Daily Reports


METAR STATION :  PALERMO PUNTA RAISI

 

Date / Time           Temp   Dew  HtIx Chill %Rh Press  Rain  Wind  Wind  Wind Visib Cloud Sky/Weather
                        C    C    C    C   %   hPa    mm   Dir   Spd  Gust    km    km ---/---

01/01/2008 00:50      14.0   8.0  15.5   4.6  67  1017   ---   NNE    27    27   ---   0.5 Broken Clouds/
01/01/2008 01:50      13.0   7.0  14.4   4.0  67  1017   ---    NE    23    23   ---   0.5 Broken Clouds/
01/01/2008 02:50      13.0   7.0  14.4   4.4  67  1018   ---    NE    21    21   ---   0.5 Broken Clouds/
01/01/2008 03:50      13.0   7.0  14.4   5.5  67  1017   ---    NE    18    18   ---   0.7 Scattered Clouds/
01/01/2008 04:50      14.0   8.0  15.5   6.9  67  1017   ---   NNE    18    18   ---   0.7 Scattered Clouds/
01/01/2008 05:50      14.0   8.0  15.5   6.9  67  1017   ---     N    18    18   ---   0.7 Scattered Clouds/
01/01/2008 06:50      13.0   9.0  15.1   9.7  77  1017   ---   NNE     8     8   ---   0.7 Scattered Clouds/
01/01/2008 07:50      13.0   9.0  15.1  13.0  77  1017   ---     N     5     5   ---   0.6 Broken Clouds/
01/01/2008 08:50      14.0   9.0  15.8   7.2  72  1018   ---    NW    16    16   ---   0.6 Broken Clouds/
01/01/2008 09:50      13.0  10.0  15.5   8.9  82  1018   ---    NW    10    10   ---   0.6 Broken Clouds/
01/01/2008 10:50      14.0   9.0  15.8   4.9  72  1018   ---   NNW    26    26   ---   0.6 Broken Clouds/
01/01/2008 11:50      14.0   7.0  15.2   4.9  63  1018   ---   NNW    26    26   ---   0.6 Broken Clouds/
01/01/2008 12:50      14.0   6.0  14.9   5.8  59  1018   ---    NW    21    21   ---   1.2 Scattered Clouds/
01/01/2008 14:50      13.0   5.0  13.9   4.4  58  1018   ---    NW    21    21   ---   1.2 Scattered Clouds/
01/01/2008 15:50      13.0   6.0  14.2   4.4  62  1018   ---    NW    21    21   ---   1.0 Scattered Clouds/
01/01/2008 16:50      13.0   5.0  13.9   4.8  58  1018   ---   WNW    19    19   ---   1.0 Scattered Clouds/
01/01/2008 17:50      13.0   5.0  13.9   7.4  58  1018   ---    NW    13    13   ---   0.7 Scattered Clouds/
01/01/2008 18:50      13.0   5.0  13.9   7.4  58  1018   ---    NW    13    13   ---   0.7 Scattered Clouds/
01/01/2008 19:50      13.0   5.0  13.9   5.8  58  1019   ---    NW    16    16   ---   0.7 Few Clouds/
01/01/2008 20:50      13.0   6.0  14.2   5.8  62  1019   ---    NW    16    16   ---   0.7 Few Clouds/
01/01/2008 21:50      13.0   5.0  13.9   5.8  58  1019   ---    NW    16    16   ---   0.7 Few Clouds/
01/01/2008 22:50      13.0   3.0  13.5   6.6  51  1019   ---    NW    14    14   ---   0.7 Few Clouds/
01/01/2008 23:50      13.0   1.0  13.1   4.8  44  1019   ---    NW    19    19   ---   0.7 Few Clouds/
02/01/2008 00:50      13.0   2.0  13.3   4.8  47  1019   ---    NW    19    19   ---   0.7 Few Clouds/
02/01/2008 01:50      13.0   2.0  13.3   4.4  47  1019   ---    NW    21    21   ---   0.7 Few Clouds/
02/01/2008 02:50      13.0   2.0  13.3   4.4  47  1019   ---    NW    21    21   ---   0.7 Few Clouds/
02/01/2008 03:50      13.0   2.0  13.3   4.8  47  1018   ---   NNW    19    19   ---   0.9 Few Clouds/
02/01/2008 04:50      13.0   5.0  13.9   5.5  58  1019   ---   NNW    18    18   ---   0.9 Few Clouds/
02/01/2008 05:50      12.0   5.0  13.1   6.2  62  1018   ---     N    13    13   ---   0.9 Few Clouds/
02/01/2008 06:50      12.0   4.0  12.9   8.5  58  1019   ---   NNW     8     8   ---   0.9 Few Clouds/
02/01/2008 07:50       8.0   3.0   9.7   2.9  71  1019   ---     S    10    10   ---   0.9 Few Clouds/
02/01/2008 08:50       9.0   5.0  11.1   2.3  76  1019   ---     S    13    13   ---   0.8 Broken Clouds/
02/01/2008 09:50      12.0   5.0  13.1  12.0  62  1020   ---     N     5     5   ---   0.8 Broken Clouds/
02/01/2008 10:50      13.0   4.0  13.7  13.0  54  1020   ---     N     5     5   ---   0.8 Broken Clouds/
02/01/2008 11:50      13.0   5.0  13.9  13.0  58  1019   ---     N     2     2   ---   0.8 Broken Clouds/
02/01/2008 12:50      13.0   4.0  13.7  13.0  54  1019   ---     N     3     3   ---   0.8 Broken Clouds/
02/01/2008 13:50      13.0   5.0  13.9  13.0  58  1018   ---     N     3     3   ---   0.8 Broken Clouds/
02/01/2008 14:50      14.0   4.0  14.5  14.0  51  1018   ---     N     5     5   ---   0.8 Broken Clouds/
02/01/2008 15:50      14.0   4.0  14.5  14.0  51  1018   ---     N     5     5   ---   0.8 Scattered Clouds/
02/01/2008 16:50      13.0   4.0  13.7  13.0  54  1018   ---     N     2     2   ---   0.8 Scattered Clouds/
02/01/2008 17:50      11.0   5.0  12.4   9.0  66  1018   ---   SSE     6     6   ---   0.8 Scattered Clouds/
02/01/2008 18:50      10.0   4.0  11.4   2.7  66  1018   ---   SSE    14    14   ---   0.8 Scattered Clouds/
02/01/2008 19:50      10.0   4.0  11.4   2.7  66  1018   ---   SSE    14    14   ---   0.8 Few Clouds/
02/01/2008 20:50       9.0   4.0  10.7   1.4  71  1018   ---   SSE    14    14   ---   0.8 Few Clouds/
02/01/2008 21:50      10.0   5.0  11.7   2.7  71  1018   ---   SSE    14    14   ---   0.8 Few Clouds/
02/01/2008 22:50      11.0   5.0  12.4   4.0  66  1018   ---   SSE    14    14   ---   0.8 Few Clouds/
02/01/2008 23:50      11.0   4.0  12.1   4.0  62  1017   ---   SSE    14    14   ---   0.8 Few Clouds/
03/01/2008 00:50      11.0   4.0  12.1   4.0  62  1017   ---   SSE    14    14   ---   0.8 Few Clouds/
03/01/2008 01:50      11.0   4.0  12.1   1.5  62  1016   ---   SSE    21    21   ---   0.8 Few Clouds/
03/01/2008 02:50      11.0   4.0  12.1   2.7  62  1016   ---   SSE    18    18   ---   0.8 Few Clouds/
03/01/2008 03:50      12.0   2.0  12.5  12.0  50  1015   ---    SE     3     3   ---   0.8 Few Clouds/
03/01/2008 04:50      10.0   1.0  10.6   6.2  54  1014   ---     E     8     8   ---   0.8 Few Clouds/
03/01/2008 05:50      11.0   0.0  11.3   6.5  47  1014   ---     E    10    10   ---   0.8 Few Clouds/
03/01/2008 06:50      12.0   0.0  12.1  12.0  44  1014   ---     N     3     3   ---   0.8 Scattered Clouds/
03/01/2008 07:50      12.0   1.0  12.3  12.0  47  1014   ---     N     5     5   ---   0.9 Broken Clouds/
03/01/2008 08:50      13.0   5.0  13.9   2.9  58  1014   ---     S    29    29   ---   0.6 Overcast/
03/01/2008 09:20      13.0   5.0  13.9   2.9  58  1014   ---     S    29    29   ---   0.6 Broken Clouds/
03/01/2008 10:50      14.0   6.0  14.9   4.9  59  1014   ---     S    26    26   ---   0.6 Broken Clouds/
03/01/2008 11:50      13.0   6.0  14.2   2.2  62  1014   ---     S    34    56   ---   0.6 Broken Clouds/
03/01/2008 12:50      15.0   4.0  15.3   5.9  48  1013   ---     S    29    47   ---   0.7 Broken Clouds/
03/01/2008 13:50      16.0   5.0  16.3   8.4  48  1012   ---     S    23    23   ---   0.7 Scattered Clouds/
03/01/2008 14:50      15.0   6.0  15.7   8.2  55  1012   ---     S    18    18   ---   0.7 Scattered Clouds/
03/01/2008 15:50      16.0   6.0  16.5  14.4  51  1012   ---   SSE     6     6   ---   1.0 Scattered Clouds/
03/01/2008 16:50      14.0   7.0  15.2  14.0  63  1012   ---     N     3     3   ---   0.9 Few Clouds/
03/01/2008 17:20      13.0   6.0  14.2  13.0  62  1013   ---     N     5     5   ---   0.9 Few Clouds/
03/01/2008 18:50      11.0   6.0  12.7   9.0  71  1013   ---     S     6     6   ---   0.9 Few Clouds/
03/01/2008 19:50      10.0   5.0  11.7   7.9  71  1013   ---     S     6     6   ---   0.9 Few Clouds/
03/01/2008 20:50      12.0   6.0  13.4  12.0  67  1013   ---     N     0     0   ---   0.9 Few Clouds/
03/01/2008 21:50      10.0   6.0  12.1   7.9  76  1013   ---   SSE     6     6   ---   0.9 Few Clouds/
03/01/2008 22:50       9.0   5.0  11.1   6.8  76  1013   ---   SSE     6     6   ---   0.9 Few Clouds/
03/01/2008 23:50      12.0   7.0  13.7  12.0  71  1013   ---     N     5     5   ---   0.9 Few Clouds/
04/01/2008 00:50      11.0   6.0  12.7   9.0  71  1012   ---    SE     6     6   ---   --- /
04/01/2008 01:50      11.0   7.0  13.1  11.0  76  1012   ---     N     2     2   ---   --- /
04/01/2008 02:50      11.0   7.0  13.1  11.0  76  1012   ---     N     5     5   ---   0.8 Few Clouds/
04/01/2008 03:50      10.0   7.0  12.5   6.2  82  1012   ---     S     8     8   ---   0.8 Scattered Clouds/
04/01/2008 04:50      12.0   8.0  14.1  12.0  77  1011   ---     E     5     5   ---   0.8 Scattered Clouds/
04/01/2008 05:50      12.0   7.0  13.7   8.5  71  1012   ---     E     8     8   ---   0.8 Scattered Clouds/
04/01/2008 06:50      12.0   7.0  13.7   5.3  71  1011   ---    NE    14    14   ---   0.7 Broken Clouds/
04/01/2008 07:50      12.0   7.0  13.7  10.1  71  1012   ---     S     6     6   ---   0.8 Broken Clouds/
04/01/2008 08:50      14.0   8.0  15.5  12.3  67  1012   ---     N     6     6   ---   0.8 Broken Clouds/
04/01/2008 09:20      16.0   3.0  16.0   9.9  42  1013   ---     S    16    16   ---   0.8 Broken Clouds/
04/01/2008 10:50      17.0   3.0  16.9   8.5  39  1013   ---     S    32    32   ---   0.8 Broken Clouds/
04/01/2008 11:50      18.0   5.0  18.1  16.6  42  1013   ---    NE     6     6   ---   0.8 Broken Clouds/
04/01/2008 12:50      18.0   7.0  18.4  16.6  49  1013   ---     N     6    27   ---   0.8 Scattered Clouds/
04/01/2008 13:50      19.0   4.0  18.8  11.6  37  1012   ---     S    32    53   ---   0.9 Scattered Clouds/
04/01/2008 14:50      19.0   4.0  18.8  12.0  37  1012   ---     S    27    27   ---   0.9 Scattered Clouds/
04/01/2008 15:50      18.0   3.0  17.8  16.6  37  1013   ---   ESE     6     6   ---   0.9 Scattered Clouds/
04/01/2008 16:50      17.0   6.0  17.4  17.0  48  1014   ---     N     3     3   ---   0.9 Scattered Clouds/
04/01/2008 17:50      16.0   7.0  16.7  16.0  55  1014   ---     N     2     2   ---   0.9 Broken Clouds/
04/01/2008 18:50      17.0   0.0  16.6  15.5  32  1015   ---     N     6     6   ---   0.9 Broken Clouds/
04/01/2008 19:50      18.0   0.0  17.5  12.6  30  1016   ---     S    16    40   ---   0.9 Broken Clouds/
04/01/2008 20:50      18.0   1.0  17.6  13.8  32  1016   ---     N    13    13   ---   0.9 Broken Clouds/
04/01/2008 21:50      18.0   0.0  17.5  12.6  30  1017   ---   SSE    16    16   ---   0.9 Broken Clouds/
04/01/2008 22:50      18.0   0.0  17.5  15.0  30  1017   ---     S    10    10   ---   0.9 Broken Clouds/
04/01/2008 23:50      15.0   6.0  15.7   7.3  55  1017   ---   SSW    21    21   ---   0.9 Broken Clouds/
05/01/2008 00:50      15.0   6.0  15.7  15.0  55  1018   ---     N     5     5   ---   0.9 Broken Clouds/
05/01/2008 01:50      15.0   5.0  15.5  11.3  51  1018   ---     S    10    10   ---   0.9 Broken Clouds/
05/01/2008 02:50      17.0   5.0  17.2  10.4  45  1018   ---     S    19    40   ---   0.9 Scattered Clouds/
05/01/2008 03:50      17.0   6.0  17.4   9.8  48  1018   ---   SSE    23    23   ---   0.9 Scattered Clouds/
05/01/2008 04:50      17.0   6.0  17.4  12.5  48  1018   ---   SSE    13    13   ---   0.9 Scattered Clouds/
05/01/2008 05:50      15.0   7.0  15.9  11.3  59  1018   ---   ENE    10    10   ---   0.9 Few Clouds/
05/01/2008 06:50      16.0   7.0  16.7  16.0  55  1019   ---     N     0     0   ---   0.9 Few Clouds/
05/01/2008 07:50      15.0   9.0  16.5  15.0  67  1019   ---   ---     2     2   ---   1.2 Broken Clouds/
05/01/2008 08:50      17.0   7.0  17.5  14.3  52  1019   ---     S     8     8   ---   1.2 Broken Clouds/
05/01/2008 09:50      18.0   7.0  18.4  11.8  49  1020   ---     S    19    19   ---   1.2 Broken Clouds/
05/01/2008 10:50      19.0   8.0  19.4  12.3  49  1021   ---     S    26    43   ---   0.9 Broken Clouds/
05/01/2008 11:50      19.0   8.0  19.4  11.9  49  1020   ---     S    29    47   ---   0.9 Broken Clouds/
05/01/2008 12:50      19.0  10.0  19.8  11.1  56  1020   ---     S    39    39   ---   0.9 Broken Clouds/
05/01/2008 13:50      19.0  10.0  19.8  12.3  56  1020   ---   SSW    26    26   ---   0.9 Broken Clouds/
05/01/2008 14:50      18.0  11.0  19.2  11.8  64  1020   ---   SSW    19    19   ---   0.9 Broken Clouds/
05/01/2008 15:50      18.0  11.0  19.2  13.2  64  1020   ---   SSW    14    14   ---   0.7 Broken Clouds/
05/01/2008 16:50      18.0   8.0  18.6   9.6  52  1021   ---     S    37    37   ---   0.7 Broken Clouds/
05/01/2008 17:50      18.0   9.0  18.8  10.4  56  1021   ---   SSW    29    29   ---   0.7 Broken Clouds/
05/01/2008 18:50      16.0  10.0  17.5   7.8  68  1022   ---    SW    26    26   ---   0.7 Broken Clouds/
05/01/2008 19:50      16.0   9.0  17.2   7.8  63  1022   ---   SSW    26    26   ---   0.7 Broken Clouds/
05/01/2008 20:50      16.0   9.0  17.2   8.4  63  1022   ---   SSW    23    23   ---   0.9 Few Clouds/
05/01/2008 21:50      16.0   9.0  17.2  10.6  63  1023   ---     S    14    14   ---   --- /
05/01/2008 22:50      16.0   8.0  16.9  11.3  59  1023   ---   SSE    13    13   ---   --- /
05/01/2008 23:50      15.0   8.0  16.2   7.3  63  1024   ---     S    21    21   ---   --- /
06/01/2008 00:50      14.0   8.0  15.5   6.9  67  1024   ---   SSW    18    18   ---   --- /
06/01/2008 01:50      14.0   8.0  15.5   7.2  67  1024   ---   SSW    16    16   ---   --- /
06/01/2008 02:50      15.0   9.0  16.5  10.0  67  1025   ---   WSW    13    13   ---   --- /
06/01/2008 04:50      15.0   9.0  16.5   6.9  67  1024   ---   SSW    23    23   ---   --- /
06/01/2008 05:50      15.0  10.0  16.8   6.4  72  1024   ---   SSW    26    26   ---   0.9 Few Clouds/
06/01/2008 06:50      15.0  10.0  16.8   6.9  72  1024   ---   SSW    23    23   ---   0.7 Few Clouds/
06/01/2008 07:50      15.0  11.0  17.1   8.2  77  1025   ---    SW    18    18   ---   0.7 Scattered Clouds/
06/01/2008 08:50      15.0  11.0  17.1   8.2  77  1025   ---    SW    18    18   ---   0.6 Scattered Clouds/
06/01/2008 09:20      15.0  11.0  17.1   7.3  77  1025   ---   SSW    21    21   ---   0.6 Scattered Clouds/
06/01/2008 10:50      17.0  11.0  18.5   8.9  68  1025   ---   SSW    29    29   ---   0.6 Scattered Clouds/
06/01/2008 11:50      17.0  11.0  18.5   8.9  68  1025   ---    SW    29    29   ---   0.6 Scattered Clouds/
06/01/2008 12:50      17.0  12.0  18.8   9.8  72  1024   ---   WSW    23    23   ---   0.6 Scattered Clouds/
06/01/2008 13:50      16.0  12.0  18.1   7.8  77  1023   ---   WSW    26    26   ---   0.6 Scattered Clouds/
06/01/2008 14:50      16.0  12.0  18.1   7.4  77  1023   ---   WSW    29    29   ---   0.6 Scattered Clouds/
06/01/2008 15:50      16.0  11.0  17.8   7.2  72  1023   ---   WSW    31    31   ---   0.6 Scattered Clouds/
06/01/2008 16:50      16.0  10.0  17.5   7.6  68  1024   ---    SW    27    27   ---   0.6 Few Clouds/
06/01/2008 17:50      15.0  11.0  17.1   7.6  77  1024   ---    SW    19    19   ---   0.6 Few Clouds/
06/01/2008 18:50      14.0  10.0  16.1   5.8  77  1025   ---     S    21    21   ---   0.6 Few Clouds/
06/01/2008 19:50      14.0  10.0  16.1   5.8  77  1024   ---   SSW    21    21   ---   0.6 Few Clouds/
06/01/2008 20:50      14.0  10.0  16.1   4.9  77  1024   ---   SSW    26    26   ---   0.6 Few Clouds/
06/01/2008 21:50      14.0  10.0  16.1   4.6  77  1024   ---     S    27    27   ---   0.6 Few Clouds/
06/01/2008 22:50      14.0  10.0  16.1   4.1  77  1025   ---     S    31    31   ---   0.6 Few Clouds/
06/01/2008 23:50      14.0   9.0  15.8   4.1  72  1025   ---     S    31    31   ---   0.6 Few Clouds/
07/01/2008 00:50      14.0  10.0  16.1   4.4  77  1025   ---     S    29    29   ---   0.6 Few Clouds/
07/01/2008 01:50      14.0  10.0  16.1   4.6  77  1025   ---     S    27    27   ---   0.6 Few Clouds/
07/01/2008 02:50      14.0  10.0  16.1   3.9  77  1025   ---     S    32    32   ---   0.6 Few Clouds/
07/01/2008 03:50      14.0  10.0  16.1   4.4  77  1024   ---     S    29    29   ---   0.6 Few Clouds/
07/01/2008 04:50      14.0  10.0  16.1   4.9  77  1024   ---     S    26    26   ---   0.6 Few Clouds/
07/01/2008 05:50      14.0  10.0  16.1   6.2  77  1024   ---   SSW    19    19   ---   0.6 Few Clouds/
07/01/2008 06:50      13.0  10.0  15.5   4.8  82  1024   ---     S    19    19   ---   0.6 Few Clouds/
07/01/2008 07:50      14.0  10.0  16.1   7.2  77  1024   ---     S    16    16   ---   0.7 Broken Clouds/
07/01/2008 08:50      15.0  11.0  17.1   8.6  77  1024   ---     S    16    16   ---   0.7 Broken Clouds/
07/01/2008 09:50      15.0  11.0  17.1   6.9  77  1024   ---   SSW    23    23   ---   0.7 Broken Clouds/
07/01/2008 10:50      16.0  11.0  17.8   7.8  72  1024   ---     S    26    26   ---   0.7 Broken Clouds/
07/01/2008 11:50      16.0  11.0  17.8   7.6  72  1024   ---   SSW    27    27   ---   0.7 Broken Clouds/
07/01/2008 12:50      16.0  12.0  18.1   7.4  77  1023   ---     S    29    29   ---   0.7 Broken Clouds/
07/01/2008 13:50      16.0  12.0  18.1   7.6  77  1023   ---     S    27    27   ---   0.7 Broken Clouds/
07/01/2008 14:50      16.0  13.0  18.5   8.7  82  1023   ---   SSW    21    21   ---   0.4 Broken Clouds/
07/01/2008 15:50      16.0  13.0  18.5   9.9  82  1023   ---   SSW    16    16   ---   0.4 Broken Clouds/
07/01/2008 16:50      15.0  13.0  18.0  10.0  88  1023   ---   WSW    13    13   ---   0.4 Broken Clouds/
07/01/2008 17:50      15.0  13.0  18.0  11.3  88  1023   ---    SW    10    10   ---   0.4 Broken Clouds/
07/01/2008 18:50      14.0  12.0  17.0  10.1  88  1023   ---    SW    10    10   ---   0.5 Scattered Clouds/
07/01/2008 19:50      14.0  12.0  17.0   7.2  88  1022   ---   SSW    16    16   ---   0.5 Few Clouds/
07/01/2008 20:50      14.0  10.0  16.1   8.0  77  1023   ---     S    14    14   ---   0.5 Few Clouds/
07/01/2008 21:20      15.0  11.0  17.1  13.3  77  1023   ---   SSE     6     6   ---   0.5 Few Clouds/
07/01/2008 22:50      14.0  10.0  16.1  14.0  77  1023   ---     N     3     3   ---   0.5 Scattered Clouds/
07/01/2008 23:20      13.0  10.0  15.5  11.2  82  1023   ---    SW     6     6   ---   0.5 Scattered Clouds/
08/01/2008 00:50      13.0  10.0  15.5  13.0  82  1023   ---     N     5     5   ---   0.5 Few Clouds/
08/01/2008 01:50      13.0  11.0  15.9  13.0  88  1022   ---    SW     2     2   ---   0.5 Few Clouds/
08/01/2008 02:50      13.0  11.0  15.9  13.0  88  1022   ---     N     2     2   ---   0.5 Few Clouds/
08/01/2008 03:50      11.0  10.0  14.4   9.0  94  1022   ---   SSE     6     6   ---   0.5 Few Clouds/
08/01/2008 04:50      11.0   9.0  13.9  11.0  87  1021   ---     N     5     5   ---   0.5 Few Clouds/
08/01/2008 05:50      10.0   9.0  13.4  10.0  94  1022   ---     N     5     5   ---   0.5 Few Clouds/
08/01/2008 06:50      11.0   9.0  13.9  11.0  87  1022   ---     N     3     3   ---   0.5 Few Clouds/
08/01/2008 07:50      11.0  10.0  14.4  11.0  94  1022   ---     N     0     0   ---   0.5 Few Clouds/
08/01/2008 08:50      11.0  10.0  14.4   9.0  94  1023   ---     S     6     6   ---   0.7 Few Clouds/
08/01/2008 09:20      13.0  11.0  15.9  11.2  88  1023   ---   SSW     6     6   ---   0.7 Few Clouds/
08/01/2008 10:50      15.0  12.0  17.5  12.0  82  1023   ---    SW     8     8   ---   0.7 Scattered Clouds/
08/01/2008 11:50      16.0  12.0  18.1  16.0  77  1022   ---     N     3     3   ---   0.7 Scattered Clouds/
08/01/2008 12:50      16.0  12.0  18.1  16.0  77  1022   ---     N     5     5   ---   0.7 Scattered Clouds/
08/01/2008 13:50      16.0  13.0  18.5  14.4  82  1021   ---     N     6     6   ---   0.7 Scattered Clouds/
08/01/2008 14:50      16.0  13.0  18.5  13.2  82  1021   ---     N     8     8   ---   --- /
08/01/2008 15:50      15.0  13.0  18.0  12.0  88  1021   ---    NE     8     8   ---   --- /
08/01/2008 16:50      15.0  13.0  18.0   8.6  88  1021   ---   ENE    16    16   ---   0.4 Few Clouds/
08/01/2008 17:20      15.0  13.0  18.0   8.2  88  1021   ---    NE    18    18   ---   0.4 Scattered Clouds/
08/01/2008 18:50      14.0  13.0  17.4   6.9  94  1021   ---    NE    18    18   ---   0.5 Few Clouds/
08/01/2008 19:50      13.0  12.0  16.4   4.8  94  1022   ---   ENE    19    19   ---   0.5 Few Clouds/
08/01/2008 20:50      13.0  11.0  15.9  13.0  88  1022   ---     N     5     5   ---   0.5 Few Clouds/
08/01/2008 21:50      12.0  10.0  14.9  12.0  88  1022   ---     N     5     5   ---   0.5 Few Clouds/
08/01/2008 22:50      11.0  10.0  14.4   9.0  94  1022   ---   SSW     6     6   ---   0.5 Few Clouds/
08/01/2008 23:50      12.0  11.0  15.4  12.0  94  1022   ---     N     5     5   ---   0.5 Few Clouds/
09/01/2008 00:50      11.0   9.0  13.9  11.0  87  1022   ---     N     3     3   ---   0.5 Few Clouds/
09/01/2008 01:50      11.0   9.0  13.9  11.0  87  1022   ---     N     5     5   ---   0.5 Few Clouds/
09/01/2008 02:50      11.0   9.0  13.9  11.0  87  1022   ---     N     5     5   ---   0.5 Few Clouds/
09/01/2008 03:50      11.0  10.0  14.4   9.0  94  1022   ---   SSW     6     6   ---   0.6 Few Clouds/
09/01/2008 04:50      12.0   9.0  14.5  12.0  82  1022   ---     N     5     5   ---   0.6 Few Clouds/
09/01/2008 05:50      11.0   9.0  13.9  11.0  87  1022   ---     N     3     3   ---   0.6 Few Clouds/
09/01/2008 06:50      11.0   9.0  13.9  11.0  87  1022   ---     N     5     5   ---   0.6 Few Clouds/
09/01/2008 07:20      10.0   8.0  12.9  10.0  87  1022   ---     N     3     3   ---   0.6 Few Clouds/
09/01/2008 08:50      11.0   9.0  13.9   9.0  87  1023   ---   SSW     6     6   ---   0.7 Scattered Clouds/
09/01/2008 09:20      11.0   9.0  13.9   9.0  87  1023   ---     S     6     6   ---   0.7 Scattered Clouds/
09/01/2008 10:50      15.0  12.0  17.5  15.0  82  1024   ---     N     3     3   ---   --- /
09/01/2008 11:50      16.0  12.0  18.1  12.5  77  1023   ---    NE    10    10   ---   --- /
09/01/2008 13:20      15.0  11.0  17.1  12.0  77  1022   ---     N     8     8   ---   --- /
09/01/2008 13:50      15.0  12.0  17.5  12.0  82  1022   ---     N     8     8   ---   0.8 Few Clouds/
09/01/2008 14:50      16.0  12.0  18.1   9.6  77  1022   ---   ENE    18    18   ---   0.8 Few Clouds/
09/01/2008 15:20      16.0  12.0  18.1   9.0  77  1022   ---   ENE    19    19   ---   0.8 Scattered Clouds/
09/01/2008 16:50      16.0  13.0  18.5   9.9  82  1022   ---    NE    16    16   ---   0.8 Scattered Clouds/
09/01/2008 17:20      14.0  12.0  17.0  14.0  88  1023   ---     N     5     5   ---   0.7 Broken Clouds/
09/01/2008 18:50      14.0  13.0  17.4   8.0  94  1024   ---   SSW    14    14   ---   0.7 Broken Clouds/
09/01/2008 19:50      14.0  12.0  17.0  10.8  88  1024   ---   SSW     8     8   ---   0.5 Broken Clouds/
09/01/2008 20:50      13.0  11.0  15.9   9.7  88  1024   ---   SSW     8     8   ---   0.7 Scattered Clouds/
09/01/2008 21:50      13.0  11.0  15.9  11.2  88  1024   ---   SSW     6     6   ---   0.7 Broken Clouds/
09/01/2008 22:50      13.0  10.0  15.5  11.2  82  1025   ---   SSW     6     6   ---   0.7 Broken Clouds/
09/01/2008 23:50      14.0  11.0  16.5  12.3  82  1025   ---   SSW     6     6   ---   0.7 Broken Clouds/
10/01/2008 00:50      14.0  11.0  16.5  12.3  82  1025   ---     S     6     6   ---   0.7 Broken Clouds/
10/01/2008 01:50      13.0  11.0  15.9  11.2  88  1025   ---     S     6     6   ---   0.7 Broken Clouds/
10/01/2008 02:50      13.0  11.0  15.9  11.2  88  1025   ---     S     6     6   ---   0.7 Broken Clouds/
10/01/2008 03:50      13.0  11.0  15.9  11.2  88  1025   ---     S     6     6   ---   0.7 Broken Clouds/
10/01/2008 04:50      13.0  11.0  15.9  11.2  88  1025   ---    NE     6     6   ---   0.7 Broken Clouds/
10/01/2008 05:50      13.0  10.0  15.5  13.0  82  1025   ---   ENE     5     5   ---   0.7 Broken Clouds/
10/01/2008 06:50      13.0  10.0  15.5  13.0  82  1025   ---    SE     5     5   ---   0.7 Broken Clouds/
10/01/2008 07:50      13.0  10.0  15.5  11.2  82  1026   ---     S     6     6   ---   0.7 Broken Clouds/
10/01/2008 08:50      13.0  11.0  15.9  13.0  88  1026   ---     N     5     5   ---   0.7 Broken Clouds/
10/01/2008 09:20      14.0  12.0  17.0  12.3  88  1026   ---    SE     6     6   ---   0.8 Broken Clouds/
10/01/2008 10:50      15.0  12.0  17.5  11.3  82  1026   ---     W    10    10   ---   --- /
10/01/2008 11:50      16.0  12.0  18.1  10.6  77  1026   ---   WSW    14    14   ---   0.7 Broken Clouds/
10/01/2008 12:50      17.0  11.0  18.5  11.3  68  1026   ---    SW    16    16   ---   --- /
10/01/2008 13:50      17.0  12.0  18.8  17.0  72  1025   ---     N     5     5   ---   0.8 Broken Clouds/
10/01/2008 14:50      16.0  12.0  18.1  13.2  77  1025   ---   ENE     8     8   ---   0.8 Broken Clouds/
10/01/2008 15:50      16.0  12.0  18.1  12.5  77  1025   ---     E    10    10   ---   0.8 Broken Clouds/
10/01/2008 16:50      15.0  10.0  16.8  11.3  72  1025   ---     E    10    10   ---   0.8 Scattered Clouds/
10/01/2008 17:50      15.0  10.0  16.8  12.0  72  1026   ---     E     8     8   ---   0.8 Scattered Clouds/
10/01/2008 18:50      15.0  10.0  16.8  15.0  72  1026   ---     N     3     3   ---   0.8 Scattered Clouds/
10/01/2008 19:50      15.0  11.0  17.1  12.0  77  1026   ---     S     8     8   ---   0.8 Scattered Clouds/
10/01/2008 20:50      15.0  11.0  17.1  15.0  77  1026   ---     N     5     5   ---   0.8 Broken Clouds/
10/01/2008 21:50      12.0  10.0  14.9   8.5  88  1026   ---   SSE     8     8   ---   0.8 Scattered Clouds/
10/01/2008 22:50      12.0  10.0  14.9   8.5  88  1026   ---   SSW     8     8   ---   0.8 Scattered Clouds/
10/01/2008 23:50      11.0   8.0  13.5  11.0  82  1026   ---     N     5     5   ---   0.7 Few Clouds/
11/01/2008 00:50      13.0  10.0  15.5  13.0  82  1026   ---     N     2     2   ---   0.7 Few Clouds/
11/01/2008 01:50      13.0   9.0  15.1   6.6  77  1026   ---     S    14    14   ---   0.7 Few Clouds/
11/01/2008 02:50      13.0   9.0  15.1   8.9  77  1026   ---     S    10    10   ---   0.7 Few Clouds/
11/01/2008 03:50      13.0  10.0  15.5   6.6  82  1025   ---    SW    14    14   ---   0.7 Few Clouds/
11/01/2008 04:50      13.0  10.0  15.5  13.0  82  1025   ---     N     3     3   ---   0.7 Few Clouds/
11/01/2008 05:50      14.0   9.0  15.8  10.1  72  1025   ---   SSE    10    10   ---   0.7 Few Clouds/
11/01/2008 06:50      14.0   9.0  15.8   8.7  72  1025   ---   SSE    13    13   ---   0.7 Scattered Clouds/
11/01/2008 07:50      14.0   9.0  15.8   8.7  72  1025   ---     S    13    13   ---   0.8 Scattered Clouds/
11/01/2008 08:50      15.0   9.0  16.5   8.6  67  1025   ---     S    16    16   ---   0.8 Scattered Clouds/
11/01/2008 09:50      16.0  10.0  17.5  16.0  68  1025   ---     N     5     5   ---   0.8 Scattered Clouds/
11/01/2008 10:50      17.0  10.0  18.2  12.5  63  1025   ---   SSW    13    13   ---   --- /
11/01/2008 11:50      17.0  10.0  18.2  11.3  63  1025   ---   SSW    16    16   ---   0.7 Few Clouds/
11/01/2008 12:50      17.0  10.0  18.2  11.3  63  1024   ---   SSW    16    16   ---   0.7 Few Clouds/
11/01/2008 13:50      18.0  10.0  19.0  11.8  60  1023   ---   SSW    19    19   ---   0.8 Scattered Clouds/
11/01/2008 14:50      17.0  10.0  18.2  11.0  63  1023   ---   SSW    18    18   ---   0.8 Scattered Clouds/
11/01/2008 15:50      17.0  10.0  18.2  11.3  63  1023   ---   SSW    16    16   ---   0.8 Scattered Clouds/
11/01/2008 16:50      16.0   9.0  17.2  10.6  63  1023   ---   SSW    14    14   ---   0.8 Scattered Clouds/
11/01/2008 17:50      16.0   9.0  17.2  11.3  63  1023   ---   SSW    13    13   ---   0.8 Scattered Clouds/
11/01/2008 18:50      16.0   7.0  16.7  13.2  55  1023   ---   SSE     8     8   ---   0.8 Scattered Clouds/
11/01/2008 19:50      15.0   6.0  15.7  12.0  55  1023   ---    SE     8     8   ---   0.8 Scattered Clouds/
11/01/2008 20:50      15.0   9.0  16.5  13.3  67  1023   ---   WSW     6     6   ---   --- /
11/01/2008 21:50      14.0   7.0  15.2  14.0  63  1023   ---     N     5     5   ---   --- /
11/01/2008 22:50      14.0   7.0  15.2  10.1  63  1023   ---   SSE    10    10   ---   --- /
11/01/2008 23:50      14.0   8.0  15.5   6.9  67  1023   ---     S    18    18   ---   --- /
12/01/2008 00:50      15.0   8.0  16.2   8.6  63  1022   ---   SSW    16    16   ---   0.7 Few Clouds/
12/01/2008 01:50      15.0   7.0  15.9   5.3  59  1021   ---     S    34    34   ---   0.7 Few Clouds/
12/01/2008 02:50      15.0   9.0  16.5   6.9  67  1021   ---   SSW    23    23   ---   0.7 Few Clouds/
12/01/2008 03:50      15.0   8.0  16.2   6.4  63  1021   ---     S    26    26   ---   0.7 Few Clouds/
12/01/2008 04:20      15.0   7.0  15.9   6.1  59  1020   ---     S    27    27   ---   0.7 Few Clouds/
12/01/2008 05:50      15.0   7.0  15.9   5.6  59  1020   ---     S    31    51   ---   --- /
12/01/2008 06:50      15.0   6.0  15.7   5.3  55  1019   ---     S    34    56   ---   1.0 Few Clouds/
12/01/2008 07:50      15.0   7.0  15.9   4.9  59  1019   ---     S    37    37   ---   1.0 Few Clouds/
12/01/2008 08:50      16.0   7.0  16.7   7.0  55  1019   ---     S    32    66   ---   1.0 Few Clouds/
12/01/2008 09:50      16.0   8.0  16.9   6.4  59  1020   ---     S    39    39   ---   1.0 Few Clouds/
12/01/2008 10:50      17.0   8.0  17.7   7.7  55  1019   ---     S    43    64   ---   1.0 Few Clouds/
12/01/2008 11:50      17.0   9.0  18.0   8.1  59  1018   ---     S    37    37   ---   1.0 Few Clouds/
12/01/2008 12:50      17.0  10.0  18.2   7.9  63  1017   ---     S    40    60   ---   1.0 Few Clouds/
12/01/2008 13:50      17.0  11.0  18.5   7.9  68  1016   ---   SSW    40    40   ---   1.0 Scattered Clouds/
12/01/2008 14:50      17.0  10.0  18.2   7.8  63  1016   ---   SSW    42    63   ---   1.0 Scattered Clouds/
12/01/2008 15:50      16.0  11.0  17.8   6.5  72  1016   ---   SSW    37    58   ---   0.9 Scattered Clouds/
12/01/2008 16:50      15.0  11.0  17.1   7.3  77  1017   ---   SSW    21    21   ---   0.7 Broken Clouds/
12/01/2008 17:50      14.0  11.0  16.5   4.6  82  1017   ---     S    27    27   ---   0.7 Broken Clouds/
12/01/2008 18:50      13.0  11.0  15.9   5.5  88  1018   ---     S    18    18   ---   --- Overcast/ Light Rain
12/01/2008 19:50      14.0  10.0  16.1   6.9  77  1018   ---    SW    18    18   ---   --- Overcast/ Light Rain
12/01/2008 20:50      13.0   9.0  15.1   4.8  77  1018   ---     S    19    19   ---   0.6 Broken Clouds/
12/01/2008 21:50      13.0   9.0  15.1   4.8  77  1019   ---     S    19    19   ---   0.6 Broken Clouds/
12/01/2008 22:50      14.0   8.0  15.5   5.5  67  1019   ---   WSW    23    23   ---   0.6 Broken Clouds/
12/01/2008 23:50      13.0   5.0  13.9   3.1  58  1019   ---   WSW    27    27   ---   0.6 Broken Clouds/
13/01/2008 00:50      12.0   9.0  14.5  -0.2  82  1019   ---     W    43    43   ---   --- Overcast/ Rain Showers
13/01/2008 01:50      12.0   8.0  14.1   3.0  77  1019   ---    SW    21    21   ---   0.7 Broken Clouds/
13/01/2008 02:50      11.0   7.0  13.1   2.7  76  1019   ---     S    18    18   ---   0.7 Broken Clouds/
13/01/2008 03:50      11.0   7.0  13.1   1.9  76  1019   ---   SSW    19    19   ---   0.7 Broken Clouds/
13/01/2008 04:50      11.0   7.0  13.1   1.9  76  1019   ---   SSW    19    19   ---   0.7 Broken Clouds/
13/01/2008 05:50      11.0   6.0  12.7   2.7  71  1019   ---     S    18    18   ---   0.7 Few Clouds/
13/01/2008 06:50      11.0   5.0  12.4   1.5  66  1020   ---     S    21    21   ---   0.7 Few Clouds/
13/01/2008 07:50      11.0   5.0  12.4   1.9  66  1020   ---     S    19    19   ---   0.7 Scattered Clouds/
13/01/2008 08:50      12.0   6.0  13.4   3.3  67  1020   ---     S    19    19   ---   0.7 Scattered Clouds/
13/01/2008 09:20      11.0   7.0  13.1   0.4  76  1021   ---   WNW    26    55   ---   0.5 Broken Clouds/
13/01/2008 10:50      11.0   7.0  13.1   1.1  76  1021   ---   SSW    23    23   ---   0.6 Broken Clouds/
13/01/2008 11:50      12.0   6.0  13.4   2.6  67  1021   ---     S    23    23   ---   0.6 Broken Clouds/
13/01/2008 12:50      12.0   6.0  13.4   0.2  67  1020   ---     S    39    39   ---   0.6 Broken Clouds/
13/01/2008 13:50      13.0   6.0  14.2   3.1  62  1019   ---   SSW    27    27   ---   0.9 Scattered Clouds/
13/01/2008 14:50      13.0   6.0  14.2   2.4  62  1019   ---   SSW    32    32   ---   0.9 Scattered Clouds/
13/01/2008 15:50      13.0   7.0  14.4   2.4  67  1019   ---   SSW    32    32   ---   0.9 Scattered Clouds/
13/01/2008 16:50      12.0   6.0  13.4   0.2  67  1019   ---   SSW    39    39   ---   0.9 Scattered Clouds/
13/01/2008 17:50      11.0   7.0  13.1   1.1  76  1019   ---   SSW    23    23   ---   0.7 Broken Clouds/
13/01/2008 18:50      12.0   8.0  14.1   1.6  77  1020   ---     S    27    27   ---   0.7 Scattered Clouds/
13/01/2008 19:50      12.0   8.0  14.1   1.4  77  1020   ---     S    29    29   ---   0.7 Scattered Clouds/
13/01/2008 20:50      11.0   9.0  13.9   1.1  87  1020   ---     S    23    23   ---   0.5 Broken Clouds/
13/01/2008 21:50      11.0   6.0  12.7  -1.4  71  1020   ---     S    39    39   ---   0.5 Scattered Clouds/
13/01/2008 22:50      12.0   6.0  13.4   1.4  67  1020   ---     S    29    29   ---   0.5 Scattered Clouds/
13/01/2008 23:50      11.0   7.0  13.1   0.1  76  1020   ---     S    27    27   ---   0.5 Scattered Clouds/
14/01/2008 00:50      12.0   7.0  13.7   2.6  71  1020   ---     S    23    23   ---   0.8 Few Clouds/
14/01/2008 01:50      12.0   7.0  13.7   2.6  71  1020   ---   SSW    23    23   ---   0.8 Few Clouds/
14/01/2008 02:50      12.0   8.0  14.1   1.9  77  1020   ---     S    26    26   ---   --- Overcast/ Light Rain
14/01/2008 03:50      12.0   9.0  14.5   3.0  82  1020   ---   SSW    21    21   ---   --- Overcast/ Light Rain
14/01/2008 04:50      12.0   8.0  14.1   4.1  77  1020   ---   SSW    18    18   ---   0.6 Broken Clouds/
14/01/2008 05:50      12.0   9.0  14.5   4.5  82  1021   ---   SSW    16    16   ---   0.6 Broken Clouds/
14/01/2008 06:50      12.0   8.0  14.1   4.1  77  1021   ---     S    18    18   ---   0.6 Scattered Clouds/
14/01/2008 07:50      12.0   8.0  14.1   4.5  77  1021   ---     S    16    16   ---   0.6 Scattered Clouds/
14/01/2008 08:50      11.0   8.0  13.5   4.0  82  1022   ---     S    14    14   ---   0.6 Scattered Clouds/
14/01/2008 09:50      14.0   9.0  15.8   8.0  72  1022   ---   SSW    14    14   ---   0.7 Scattered Clouds/
14/01/2008 10:50      14.0   9.0  15.8   8.7  72  1023   ---    SW    13    13   ---   0.7 Scattered Clouds/
14/01/2008 11:50      14.0   9.0  15.8  10.1  72  1022   ---   WSW    10    10   ---   0.7 Scattered Clouds/
14/01/2008 12:50      15.0   9.0  16.5  15.0  67  1022   ---     N     5     5   ---   0.7 Scattered Clouds/
14/01/2008 13:50      14.0   9.0  15.8  10.8  72  1021   ---    NW     8     8   ---   0.7 Few Clouds/
14/01/2008 14:50      14.0   9.0  15.8  10.8  72  1021   ---   NNW     8     8   ---   0.7 Few Clouds/
14/01/2008 15:50      14.0   9.0  15.8  12.3  72  1022   ---     N     6     6   ---   0.7 Few Clouds/
14/01/2008 16:50      14.0   9.0  15.8  12.3  72  1022   ---    NE     6     6   ---   0.7 Few Clouds/
14/01/2008 17:50      12.0   8.0  14.1   5.3  77  1021   ---   ENE    14    14   ---   0.7 Few Clouds/
14/01/2008 18:50      12.0   8.0  14.1  10.1  77  1022   ---     E     6     6   ---   0.7 Few Clouds/
14/01/2008 19:50      10.0   8.0  12.9   5.3  87  1022   ---   SSE    10    10   ---   0.7 Few Clouds/
14/01/2008 20:50      11.0   8.0  13.5   6.5  82  1022   ---   SSE    10    10   ---   0.7 Few Clouds/
14/01/2008 21:50      11.0   8.0  13.5   7.3  82  1022   ---     S     8     8   ---   0.7 Few Clouds/
14/01/2008 22:50      11.0   7.0  13.1   9.0  76  1022   ---     S     6     6   ---   0.7 Few Clouds/
14/01/2008 23:50      10.0   7.0  12.5  10.0  82  1022   ---     N     3     3   ---   0.7 Few Clouds/
15/01/2008 00:50      11.0   7.0  13.1  11.0  76  1022   ---     N     2     2   ---   0.7 Few Clouds/
15/01/2008 01:50      10.0   7.0  12.5  10.0  82  1021   ---     N     5     5   ---   0.7 Few Clouds/
15/01/2008 02:50       9.0   5.0  11.1   9.0  76  1021   ---     N     3     3   ---   0.7 Few Clouds/
15/01/2008 03:50       9.0   5.0  11.1   9.0  76  1021   ---     N     5     5   ---   0.7 Few Clouds/
15/01/2008 04:50      10.0   6.0  12.1  10.0  76  1021   ---     N     3     3   ---   0.7 Few Clouds/
15/01/2008 05:50       8.0   4.0  10.0   5.7  76  1021   ---   SSE     6     6   ---   0.7 Few Clouds/
15/01/2008 06:50      10.0   5.0  11.7   7.9  71  1021   ---    SE     6     6   ---   0.7 Few Clouds/
15/01/2008 07:50       9.0   4.0  10.7   6.8  71  1021   ---     E     6     6   ---   0.7 Scattered Clouds/
15/01/2008 08:50      10.0   6.0  12.1   7.9  76  1021   ---     S     6     6   ---   0.7 Broken Clouds/
15/01/2008 09:50      13.0   9.0  15.1  13.0  77  1021   ---     N     3     3   ---   --- /
15/01/2008 10:50      14.0   9.0  15.8  14.0  72  1022   ---     N     2     2   ---   --- /
15/01/2008 11:50      15.0   9.0  16.5  15.0  67  1021   ---     N     5     5   ---   --- /
15/01/2008 12:50      15.0   8.0  16.2  10.0  63  1020   ---   NNE    13    13   ---   --- /
15/01/2008 13:50      16.0   8.0  16.9  11.3  59  1020   ---   ENE    13    13   ---   --- /
15/01/2008 14:50      16.0   6.0  16.5  10.6  51  1019   ---   ENE    14    14   ---   0.8 Scattered Clouds/
15/01/2008 15:50      15.0   9.0  16.5  13.3  67  1019   ---   ENE     6     6   ---   0.8 Scattered Clouds/
15/01/2008 16:50      15.0   8.0  16.2  15.0  63  1019   ---     N     5     5   ---   0.8 Scattered Clouds/
15/01/2008 17:50      15.0  10.0  16.8  15.0  72  1019   ---     N     5     5   ---   0.8 Scattered Clouds/
15/01/2008 18:50      14.0   8.0  15.5  14.0  67  1020   ---     N     3     3   ---   0.8 Broken Clouds/
15/01/2008 19:50      14.0  10.0  16.1   6.9  77  1020   ---   SSW    18    18   ---   0.8 Broken Clouds/
15/01/2008 20:50      14.0  10.0  16.1   6.9  77  1020   ---     S    18    18   ---   0.8 Broken Clouds/
15/01/2008 21:50      14.0  11.0  16.5   6.9  82  1020   ---   SSW    18    18   ---   0.8 Broken Clouds/
15/01/2008 22:20      14.0  11.0  16.5   6.2  82  1020   ---     S    19    19   ---   0.8 Broken Clouds/
15/01/2008 23:50      15.0  10.0  16.8   6.1  72  1020   ---   SSW    27    27   ---   0.8 Broken Clouds/
16/01/2008 00:20      15.0  10.0  16.8   5.4  72  1019   ---     S    32    32   ---   0.8 Broken Clouds/
16/01/2008 02:50      14.0  10.0  16.1   4.4  77  1019   ---   SSW    29    29   ---   0.8 Scattered Clouds/
16/01/2008 03:50      14.0  10.0  16.1   4.1  77  1019   ---   SSW    31    31   ---   0.8 Scattered Clouds/
16/01/2008 04:50      13.0  10.0  15.5   4.0  82  1019   ---   SSW    23    23   ---   0.8 Scattered Clouds/
16/01/2008 05:50      13.0  10.0  15.5   3.4  82  1019   ---   SSW    26    26   ---   0.8 Few Clouds/
16/01/2008 06:20      13.0  10.0  15.5   3.4  82  1019   ---   SSW    26    26   ---   0.8 Few Clouds/
16/01/2008 07:50      13.0   9.0  15.1   4.4  77  1019   ---     S    21    21   ---   0.8 Few Clouds/
16/01/2008 08:50      14.0   6.0  14.9   5.5  59  1019   ---     S    23    23   ---   0.8 Few Clouds/
16/01/2008 10:50      15.0   5.0  15.5   6.9  51  1019   ---     S    23    23   ---   1.0 Broken Clouds/
16/01/2008 10:50      15.0   5.0  15.5   6.9  51  1019   ---     S    23    23   ---   1.0 Broken Clouds/None reported
16/01/2008 11:20      15.0   8.0  16.2   6.4  63  1018   ---     S    26    26   ---   1.0 Broken Clouds/
16/01/2008 12:50      16.0   9.0  17.2   9.9  63  1017   ---     S    16    16   ---   0.9 Broken Clouds/
16/01/2008 13:50      16.0   9.0  17.2   8.4  63  1016   ---     S    23    23   ---   0.9 Broken Clouds/
16/01/2008 14:50      16.0   9.0  17.2   8.4  63  1015   ---   SSW    23    23   ---   0.9 Broken Clouds/
16/01/2008 15:50      16.0   9.0  17.2   9.0  63  1015   ---     S    19    19   ---   0.9 Broken Clouds/
16/01/2008 16:50      16.0   8.0  16.9   9.6  59  1014   ---     S    18    37   ---   0.9 Broken Clouds/
16/01/2008 17:50      16.0   7.0  16.7   7.2  55  1014   ---     S    31    53   ---   0.9 Broken Clouds/
16/01/2008 18:50      15.0   8.0  16.2   8.6  63  1014   ---   SSW    16    16   ---   0.9 Broken Clouds/
16/01/2008 19:50      15.0   8.0  16.2   6.1  63  1014   ---   SSW    27    27   ---   0.9 Broken Clouds/
16/01/2008 20:50      15.0   8.0  16.2   4.9  63  1014   ---     S    37    37   ---   0.8 Broken Clouds/
16/01/2008 21:50      15.0   8.0  16.2   5.4  63  1013   ---     S    32    55   ---   0.8 Broken Clouds/
16/01/2008 22:50      15.0   9.0  16.5   4.9  67  1013   ---     S    37    56   ---   0.8 Broken Clouds/
16/01/2008 23:50      15.0   8.0  16.2   6.4  63  1013   ---     S    26    47   ---   0.8 Broken Clouds/
17/01/2008 00:50      15.0   9.0  16.5   5.6  67  1012   ---     S    31    51   ---   0.7 Broken Clouds/
17/01/2008 01:50      15.0  10.0  16.8   5.6  72  1012   ---     S    31    53   ---   0.7 Broken Clouds/
17/01/2008 02:50      16.0   5.0  16.3   7.4  48  1012   ---     S    29    50   ---   0.7 Broken Clouds/
17/01/2008 03:50      14.0   7.0  15.2   6.2  63  1012   ---   SSW    19    19   ---   --- Overcast/ Light Rain
17/01/2008 04:50      13.0  11.0  15.9   2.9  88  1012   ---     W    29    29   ---   --- Overcast/ Light Rain
17/01/2008 05:50      13.0  10.0  15.5   4.0  82  1012   ---     W    23    23   ---   --- / Drizzle
17/01/2008 06:50      12.0  10.0  14.9   5.3  88  1013   ---    SW    14    14   ---   --- Overcast/ Light Rain
17/01/2008 07:50      11.0   9.0  13.9   6.5  87  1013   ---     W    10    10   ---   --- / Drizzle
17/01/2008 08:50      11.0  10.0  14.4   4.9  94  1013   ---     S    13    13   ---   --- / Drizzle
17/01/2008 09:20      12.0   9.0  14.5   6.2  82  1013   ---     S    13    13   ---   0.6 Overcast/
17/01/2008 09:50      12.0   9.0  14.5   7.7  82  1014   ---   SSE    10    10   ---   0.6 Overcast/
17/01/2008 10:50      14.0   9.0  15.8  12.3  72  1014   ---   SSE     6     6   ---   0.6 Overcast/
17/01/2008 12:50      14.0   9.0  15.8  12.3  72  1014   ---     W     6     6   ---   --- Overcast/ Light Rain
17/01/2008 13:50      12.0  10.0  14.9   3.0  88  1014   ---   NNW    21    21   ---   --- Overcast/ Rain
17/01/2008 14:50      12.0  10.0  14.9   3.0  88  1015   ---   NNW    21    21   ---   --- Overcast/ Rain
17/01/2008 15:50      13.0   9.0  15.1   5.8  77  1015   ---     N    16    16   ---   0.7 Broken Clouds/
17/01/2008 16:50      14.0   9.0  15.8   6.2  72  1015   ---     N    19    19   ---   0.7 Broken Clouds/
17/01/2008 17:50      14.0  10.0  16.1   6.2  77  1016   ---     N    19    19   ---   0.7 Broken Clouds/
17/01/2008 18:50      14.0   9.0  15.8   7.2  72  1016   ---     N    16    16   ---   0.7 Broken Clouds/
17/01/2008 19:50      14.0   9.0  15.8   4.9  72  1017   ---   NNW    26    26   ---   0.7 Broken Clouds/
17/01/2008 20:50      14.0   9.0  15.8   5.8  72  1018   ---     N    21    21   ---   0.7 Scattered Clouds/
17/01/2008 21:50      14.0   9.0  15.8   6.9  72  1018   ---   NNW    18    18   ---   0.7 Scattered Clouds/
17/01/2008 22:50      14.0   8.0  15.5   7.2  67  1018   ---     N    16    16   ---   0.7 Scattered Clouds/
17/01/2008 23:50      14.0   8.0  15.5   8.0  67  1019   ---     N    14    14   ---   0.7 Scattered Clouds/
18/01/2008 00:50      14.0   8.0  15.5   8.7  67  1019   ---   NNW    13    13   ---   0.7 Scattered Clouds/
18/01/2008 01:50      14.0   7.0  15.2   8.0  63  1019   ---    NW    14    14   ---   0.7 Scattered Clouds/
18/01/2008 02:50      14.0   8.0  15.5   8.7  67  1019   ---    NW    13    13   ---   0.7 Scattered Clouds/
18/01/2008 03:50      14.0   8.0  15.5  10.1  67  1019   ---   WNW    10    10   ---   0.7 Scattered Clouds/
18/01/2008 04:50      11.0   6.0  12.7  11.0  71  1019   ---     N     5     5   ---   0.7 Few Clouds/
18/01/2008 05:50      12.0   7.0  13.7  12.0  71  1019   ---     N     5     5   ---   0.7 Few Clouds/
18/01/2008 06:50      10.0   7.0  12.5  10.0  82  1019   ---     N     5     5   ---   0.7 Few Clouds/
18/01/2008 07:50      11.0   8.0  13.5  11.0  82  1020   ---     N     5     5   ---   0.7 Scattered Clouds/
18/01/2008 08:50      11.0   8.0  13.5  11.0  82  1021   ---     N     3     3   ---   0.7 Scattered Clouds/
18/01/2008 09:50      13.0  10.0  15.5   9.7  82  1022   ---    SW     8     8   ---   0.7 Scattered Clouds/
18/01/2008 10:50      14.0  10.0  16.1  12.3  77  1023   ---   WSW     6     6   ---   0.7 Broken Clouds/
18/01/2008 11:50      14.0  10.0  16.1  14.0  77  1022   ---     N     3     3   ---   0.5 Broken Clouds/
18/01/2008 12:50      14.0  11.0  16.5   8.0  82  1022   ---    NW    14    14   ---   0.5 Broken Clouds/
18/01/2008 13:50      13.0  11.0  15.9   4.4  88  1022   ---    NW    21    21   ---   --- Overcast/ Light Rain
18/01/2008 14:50      13.0  11.0  15.9   9.7  88  1022   ---     W     8     8   ---   0.3 Broken Clouds/
18/01/2008 15:50      13.0  11.0  15.9   8.9  88  1023   ---     N    10    10   ---   --- Overcast/ Light Rain
18/01/2008 16:50      14.0  11.0  16.5   6.9  82  1023   ---     N    18    18   ---   0.3 Broken Clouds/
18/01/2008 17:50      14.0  10.0  16.1   6.2  77  1024   ---   NNE    19    19   ---   0.3 Broken Clouds/
18/01/2008 18:50      14.0  10.0  16.1   6.2  77  1025   ---     N    19    19   ---   0.4 Broken Clouds/
18/01/2008 19:50      14.0  11.0  16.5   6.9  82  1025   ---     N    18    18   ---   0.4 Broken Clouds/
18/01/2008 20:50      14.0  11.0  16.5   6.9  82  1025   ---     N    18    18   ---   0.4 Broken Clouds/
18/01/2008 21:50      14.0  11.0  16.5   7.2  82  1026   ---     N    16    16   ---   0.5 Broken Clouds/
18/01/2008 22:50      14.0  11.0  16.5   8.0  82  1026   ---   NNE    14    14   ---   0.5 Broken Clouds/
18/01/2008 23:50      14.0  11.0  16.5   8.0  82  1026   ---    NE    14    14   ---   0.5 Broken Clouds/
19/01/2008 00:50      13.0  11.0  15.9   9.7  88  1026   ---   ENE     8     8   ---   0.5 Broken Clouds/
19/01/2008 01:50      13.0  11.0  15.9   8.9  88  1026   ---   ENE    10    10   ---   0.5 Broken Clouds/
19/01/2008 02:50      13.0  11.0  15.9   7.4  88  1026   ---   ENE    13    13   ---   0.5 Broken Clouds/
19/01/2008 03:50      12.0  10.0  14.9   6.2  88  1026   ---   ENE    13    13   ---   0.5 Broken Clouds/
19/01/2008 04:50      11.0   9.0  13.9   4.0  87  1026   ---   ENE    14    14   ---   0.7 Few Clouds/
19/01/2008 05:50      10.0   9.0  13.4   2.7  94  1027   ---   ENE    14    14   ---   0.7 Few Clouds/
19/01/2008 06:50      11.0   9.0  13.9   6.5  87  1027   ---     E    10    10   ---   0.7 Few Clouds/
19/01/2008 07:50      12.0   9.0  14.5  12.0  82  1027   ---     N     3     3   ---   0.6 Scattered Clouds/
19/01/2008 08:50      12.0   9.0  14.5  10.1  82  1028   ---    SE     6     6   ---   --- Overcast/ Light Rain
19/01/2008 10:50      13.0  11.0  15.9  13.0  88  1029   ---     N     3     3   ---   0.6 Broken Clouds/
19/01/2008 11:50      14.0  12.0  17.0  14.0  88  1029   ---     N     3     3   ---   0.6 Scattered Clouds/
19/01/2008 12:50      15.0  11.0  17.1  10.0  77  1028   ---    NE    13    13   ---   0.6 Scattered Clouds/
19/01/2008 13:50      14.0  11.0  16.5   6.9  82  1028   ---   NNE    18    18   ---   0.6 Few Clouds/
19/01/2008 14:20      15.0  11.0  17.1   8.6  77  1028   ---     N    16    16   ---   0.6 Few Clouds/
19/01/2008 15:50      15.0  10.0  16.8  10.0  72  1028   ---    NE    13    13   ---   0.6 Few Clouds/
19/01/2008 16:50      14.0  10.0  16.1   8.7  77  1028   ---    NE    13    13   ---   0.6 Few Clouds/
19/01/2008 17:50      14.0  10.0  16.1  10.1  77  1028   ---    NE    10    10   ---   0.6 Broken Clouds/
19/01/2008 18:50      14.0  11.0  16.5   6.9  82  1029   ---   NNE    18    18   ---   0.6 Broken Clouds/
19/01/2008 19:50      13.0  10.0  15.5   9.7  82  1029   ---   ENE     8     8   ---   0.6 Broken Clouds/
19/01/2008 20:50      13.0  10.0  15.5  11.2  82  1028   ---   ENE     6     6   ---   0.4 Scattered Clouds/
19/01/2008 21:50      13.0  10.0  15.5   9.7  82  1029   ---   ENE     8     8   ---   0.5 Scattered Clouds/
19/01/2008 22:50      13.0  10.0  15.5  11.2  82  1029   ---   ENE     6     6   ---   0.5 Scattered Clouds/
19/01/2008 23:50      13.0  10.0  15.5  11.2  82  1029   ---   ENE     6     6   ---   0.5 Scattered Clouds/
20/01/2008 00:50      12.0  10.0  14.9  10.1  88  1029   ---     E     6     6   ---   0.5 Scattered Clouds/
20/01/2008 01:50      13.0  10.0  15.5   9.7  82  1029   ---   ENE     8     8   ---   0.5 Scattered Clouds/
20/01/2008 02:50      12.0  10.0  14.9  10.1  88  1029   ---   ENE     6     6   ---   0.5 Scattered Clouds/
20/01/2008 03:50      12.0   9.0  14.5   8.5  82  1028   ---   ENE     8     8   ---   0.5 Scattered Clouds/
20/01/2008 04:50      12.0   9.0  14.5   7.7  82  1028   ---     E    10    10   ---   0.5 Scattered Clouds/
20/01/2008 05:50      12.0   9.0  14.5   8.5  82  1029   ---     E     8     8   ---   0.6 Scattered Clouds/
20/01/2008 06:50      10.0   8.0  12.9  10.0  87  1029   ---     N     5     5   ---   0.6 Few Clouds/
20/01/2008 07:50      10.0   8.0  12.9  10.0  87  1029   ---     N     5     5   ---   0.6 Few Clouds/
20/01/2008 08:50      10.0   8.0  12.9  10.0  87  1030   ---     N     5     5   ---   0.6 Few Clouds/
20/01/2008 09:20      12.0  10.0  14.9  12.0  88  1030   ---     N     3     3   ---   0.6 Few Clouds/
20/01/2008 10:20      14.0  11.0  16.5  14.0  82  1031   ---     N     2     2   ---   0.7 Scattered Clouds/
20/01/2008 11:50      14.0  11.0  16.5  14.0  82  1031   ---     N     5     5   ---   0.7 Few Clouds/
20/01/2008 12:50      15.0  11.0  17.1  10.0  77  1030   ---     N    13    13   ---   0.5 Few Clouds/
20/01/2008 13:50      15.0  10.0  16.8  11.3  72  1029   ---     E    10    10   ---   0.6 Few Clouds/
20/01/2008 14:50      15.0  10.0  16.8  11.3  72  1029   ---   NNE    10    10   ---   0.5 Few Clouds/
20/01/2008 15:50      14.0  10.0  16.1  10.1  77  1029   ---   NNE    10    10   ---   0.5 Few Clouds/
20/01/2008 16:50      14.0  10.0  16.1   8.7  77  1029   ---   NNE    13    13   ---   0.4 Broken Clouds/
20/01/2008 17:50      14.0  10.0  16.1   8.7  77  1030   ---   NNE    13    13   ---   0.5 Scattered Clouds/
20/01/2008 18:50      14.0  10.0  16.1  10.1  77  1030   ---   NNE    10    10   ---   0.5 Scattered Clouds/
20/01/2008 19:50      14.0  10.0  16.1  10.1  77  1030   ---   NNE    10    10   ---   0.5 Scattered Clouds/
20/01/2008 20:50      12.0   9.0  14.5   6.2  82  1030   ---   ENE    13    13   ---   0.5 Scattered Clouds/
20/01/2008 21:50      11.0   8.0  13.5  11.0  82  1030   ---     N     3     3   ---   0.6 Few Clouds/
20/01/2008 22:50      12.0   8.0  14.1  12.0  77  1030   ---     N     5     5   ---   0.6 Few Clouds/
20/01/2008 23:50      10.0   7.0  12.5   7.9  82  1030   ---   SSE     6     6   ---   0.6 Few Clouds/
21/01/2008 00:50      10.0   8.0  12.9  10.0  87  1029   ---     N     5     5   ---   0.6 Few Clouds/
21/01/2008 01:50      10.0   7.0  12.5  10.0  82  1029   ---     N     2     2   ---   0.6 Few Clouds/
21/01/2008 02:50       8.0   6.0  10.9   8.0  87  1029   ---     N     3     3   ---   0.6 Few Clouds/
21/01/2008 03:50      10.0   8.0  12.9   7.9  87  1029   ---   NNE     6     6   ---   0.6 Few Clouds/
21/01/2008 04:50      10.0   8.0  12.9   7.9  87  1029   ---   SSE     6     6   ---   0.6 Few Clouds/
21/01/2008 05:50       9.0   8.0  12.4   9.0  93  1029   ---     N     5     5   ---   0.6 Few Clouds/
21/01/2008 06:50       9.0   8.0  12.4   9.0  93  1029   ---     N     3     3   ---   0.6 Scattered Clouds/
21/01/2008 07:50       9.0   8.0  12.4   9.0  93  1029   ---     N     5     5   ---   0.6 Scattered Clouds/
21/01/2008 08:50      12.0   9.0  14.5   4.5  82  1029   ---   ENE    16    16   ---   1.2 Scattered Clouds/
21/01/2008 09:20      12.0   8.0  14.1   8.5  77  1029   ---   ESE     8     8   ---   1.2 Scattered Clouds/
21/01/2008 10:50      14.0   9.0  15.8   7.2  72  1029   ---    NE    16    16   ---   1.2 Scattered Clouds/
21/01/2008 11:20      14.0   9.0  15.8   7.2  72  1029   ---   NNE    16    16   ---   1.2 Scattered Clouds/
21/01/2008 12:20      14.0   9.0  15.8   6.9  72  1028   ---    NE    18    18   ---   --- /
21/01/2008 13:50      14.0   9.0  15.8   6.9  72  1027   ---    NE    18    18   ---   --- /
21/01/2008 14:50      14.0   9.0  15.8   5.8  72  1027   ---   NNE    21    21   ---   --- /
21/01/2008 15:50      14.0   9.0  15.8   5.8  72  1027   ---    NE    21    21   ---   0.7 Scattered Clouds/
21/01/2008 16:50      13.0   9.0  15.1   4.0  77  1027   ---    NE    23    23   ---   0.7 Scattered Clouds/
21/01/2008 17:50      13.0   9.0  15.1   4.4  77  1027   ---    NE    21    21   ---   0.7 Scattered Clouds/
21/01/2008 18:50      13.0   8.0  14.8   4.4  72  1027   ---    NE    21    21   ---   0.7 Scattered Clouds/
21/01/2008 19:50      11.0   8.0  13.5   2.7  82  1026   ---   ENE    18    18   ---   0.7 Few Clouds/
21/01/2008 20:50      11.0   8.0  13.5   2.7  82  1026   ---   ENE    18    18   ---   0.7 Few Clouds/
21/01/2008 21:20      10.0   7.0  12.5   3.6  82  1026   ---   ENE    13    13   ---   0.7 Few Clouds/
21/01/2008 22:50       9.0   7.0  11.9   6.8  87  1025   ---   ESE     6     6   ---   0.7 Few Clouds/
21/01/2008 23:50       9.0   7.0  11.9   6.8  87  1025   ---   SSW     6     6   ---   0.7 Few Clouds/
22/01/2008 00:50       8.0   6.0  10.9   5.7  87  1025   ---     S     6     6   ---   0.7 Few Clouds/
22/01/2008 01:50       8.0   7.0  11.4   5.7  93  1024   ---   SSE     6     6   ---   0.7 Few Clouds/
22/01/2008 02:50       9.0   7.0  11.9   6.8  87  1024   ---   SSE     6     6   ---   0.7 Broken Clouds/
22/01/2008 03:50      10.0   8.0  12.9   7.9  87  1023   ---   SSE     6     6   ---   0.7 Broken Clouds/
22/01/2008 04:50      10.0   8.0  12.9   2.7  87  1023   ---   SSE    14    14   ---   0.7 Broken Clouds/
22/01/2008 05:50      13.0   8.0  14.8   9.7  72  1022   ---   WSW     8     8   ---   0.7 Broken Clouds/
22/01/2008 06:50      12.0   8.0  14.1   8.5  77  1021   ---     S     8     8   ---   0.7 Broken Clouds/
22/01/2008 07:50      12.0   8.0  14.1   6.2  77  1021   ---     S    13    13   ---   0.8 Broken Clouds/
22/01/2008 08:50      13.0   8.0  14.8   7.4  72  1020   ---     S    13    13   ---   0.8 Broken Clouds/
22/01/2008 09:50      14.0   8.0  15.5   6.9  67  1019   ---     S    18    18   ---   0.8 Broken Clouds/
22/01/2008 10:20      14.0   8.0  15.5   6.2  67  1019   ---     S    19    19   ---   0.7 Broken Clouds/
22/01/2008 11:50      14.0   8.0  15.5   6.9  67  1019   ---   SSW    18    18   ---   0.7 Broken Clouds/
22/01/2008 12:50      15.0   9.0  16.5   6.9  67  1017   ---   SSW    23    23   ---   0.7 Scattered Clouds/
22/01/2008 13:50      16.0  10.0  17.5   7.0  68  1015   ---   SSW    32    32   ---   0.7 Scattered Clouds/
22/01/2008 14:50      15.0  11.0  17.1   4.7  77  1014   ---     W    40    40   ---   0.9 Scattered Clouds/
22/01/2008 15:50      15.0  11.0  17.1   5.3  77  1014   ---   WSW    34    34   ---   0.6 Broken Clouds/
22/01/2008 16:50      15.0  10.0  16.8   5.4  72  1013   ---   WSW    32    32   ---   0.6 Scattered Clouds/
22/01/2008 17:20      15.0  12.0  17.5   5.9  82  1013   ---   WSW    29    29   ---   0.6 Broken Clouds/
22/01/2008 18:50      15.0  12.0  17.5   5.3  82  1013   ---     W    34    34   ---   0.6 Broken Clouds/
22/01/2008 18:50      15.0  12.0  17.5   5.3  82  1013   ---     W    34    34   ---   0.6 Broken Clouds/None reported
22/01/2008 19:50      15.0  12.0  17.5   6.9  82  1012   ---     W    23    23   ---   0.9 Scattered Clouds/
22/01/2008 20:50      15.0  12.0  17.5   7.6  82  1012   ---     W    19    19   ---   0.4 Broken Clouds/
22/01/2008 21:50      15.0  11.0  17.1   5.9  77  1012   ---   WNW    29    29   ---   0.4 Broken Clouds/
22/01/2008 22:50      15.0  11.0  17.1   4.9  77  1012   ---    NW    39    39   ---   0.4 Broken Clouds/
22/01/2008 23:50      15.0  11.0  17.1   4.9  77  1011   ---    NW    37    37   ---   0.4 Broken Clouds/
23/01/2008 00:50      15.0  11.0  17.1   4.9  77  1011   ---    NW    37    37   ---   0.4 Broken Clouds/
23/01/2008 01:50      15.0  11.0  17.1   4.9  77  1011   ---     N    39    39   ---   0.3 Broken Clouds/
23/01/2008 02:50      15.0  11.0  17.1   4.7  77  1011   ---     N    40    40   ---   --- / Mist
23/01/2008 03:50      15.0  11.0  17.1   4.5  77  1011   ---     N    43    43   ---   --- / Mist
23/01/2008 04:50      14.0  11.0  16.5   3.3  82  1011   ---     N    39    39   ---   --- / Mist
23/01/2008 05:50      14.0  11.0  16.5   3.3  82  1011   ---     N    39    39   ---   --- / Mist
23/01/2008 06:50      14.0  10.0  16.1   2.7  77  1012   ---   NNE    47    47   ---   0.3 Broken Clouds/
23/01/2008 07:50      14.0   8.0  15.5   2.4  67  1013   ---   NNE    51    51   ---   0.4 Broken Clouds/
23/01/2008 08:50      14.0   8.0  15.5   2.4  67  1013   ---   NNE    53    53   ---   0.7 Scattered Clouds/
23/01/2008 09:20      14.0   6.0  14.9   2.4  59  1013   ---   NNE    56    56   ---   0.7 Scattered Clouds/
23/01/2008 10:50      14.0   5.0  14.7   2.5  55  1014   ---    NE    50    50   ---   0.7 Scattered Clouds/
23/01/2008 11:50      14.0   5.0  14.7   2.8  55  1015   ---    NE    45    45   ---   0.7 Few Clouds/
23/01/2008 12:50      13.0   4.0  13.7   1.1  54  1016   ---    NE    47    47   ---   0.7 Few Clouds/
23/01/2008 13:50      13.0   6.0  14.2   1.2  62  1016   ---    NE    45    45   ---   0.7 Scattered Clouds/
23/01/2008 14:50      13.0   6.0  14.2   1.2  62  1016   ---    NE    45    45   ---   0.7 Scattered Clouds/
23/01/2008 15:50      13.0   6.0  14.2   1.1  62  1016   ---    NE    47    47   ---   0.7 Scattered Clouds/
23/01/2008 16:20      13.0   7.0  14.4   0.9  67  1016   ---   NNE    50    50   ---   0.7 Broken Clouds/
23/01/2008 17:50      13.0   6.0  14.2   0.8  62  1017   ---   NNE    53    53   ---   0.7 Broken Clouds/
23/01/2008 18:50      12.0   5.0  13.1  -0.8  62  1018   ---   NNE    53    53   ---   0.7 Broken Clouds/
23/01/2008 19:50      12.0   6.0  13.4  -0.8  67  1019   ---   NNE    51    51   ---   0.7 Broken Clouds/
23/01/2008 20:50      12.0   6.0  13.4  -0.8  67  1019   ---   NNE    51    51   ---   0.7 Broken Clouds/
23/01/2008 21:50      12.0   5.0  13.1  -0.4  62  1019   ---    NE    45    45   ---   0.7 Broken Clouds/
23/01/2008 22:50      12.0   5.0  13.1  -0.4  62  1020   ---    NE    45    45   ---   0.7 Scattered Clouds/
23/01/2008 23:50      12.0   6.0  13.4  -0.5  67  1020   ---    NE    47    47   ---   0.7 Scattered Clouds/
24/01/2008 00:50      12.0   5.0  13.1  -0.2  62  1020   ---    NE    43    43   ---   0.7 Scattered Clouds/
24/01/2008 01:50      12.0   5.0  13.1   0.3  62  1021   ---    NE    37    37   ---   0.7 Scattered Clouds/
24/01/2008 02:50      12.0   5.0  13.1   0.0  62  1021   ---    NE    40    40   ---   0.7 Scattered Clouds/
24/01/2008 03:20      12.0   6.0  13.4   0.0  67  1021   ---    NE    40    40   ---   0.7 Scattered Clouds/
24/01/2008 04:50      11.0   3.0  11.9  -0.4  58  1022   ---    NE    31    31   ---   0.7 Scattered Clouds/
24/01/2008 05:50      12.0   5.0  13.1   4.5  62  1022   ---    NE    16    16   ---   0.7 Scattered Clouds/
24/01/2008 06:50      11.0   2.0  11.6  -0.4  54  1023   ---   ENE    31    31   ---   0.6 Few Clouds/
24/01/2008 07:50      11.0   2.0  11.6   0.4  54  1023   ---   ENE    26    26   ---   0.6 Few Clouds/
24/01/2008 08:50      11.0   3.0  11.9   0.4  58  1024   ---   ENE    26    26   ---   0.6 Few Clouds/
24/01/2008 10:20      12.0   4.0  12.9   2.6  58  1025   ---    NE    23    23   ---   0.6 Few Clouds/
24/01/2008 11:50      13.0   4.0  13.7   2.2  54  1025   ---    NE    34    34   ---   0.6 Few Clouds/
24/01/2008 12:50      13.0   5.0  13.9   3.1  58  1026   ---   NNE    27    27   ---   0.6 Few Clouds/
24/01/2008 13:50      13.0   5.0  13.9   3.4  58  1026   ---    NE    26    26   ---   0.6 Few Clouds/
24/01/2008 14:50      13.0   6.0  14.2   3.4  62  1026   ---    NE    26    26   ---   0.6 Few Clouds/
24/01/2008 15:50      13.0   5.0  13.9   3.4  58  1026   ---    NE    26    26   ---   0.6 Few Clouds/
24/01/2008 16:50      13.0   5.0  13.9   3.4  58  1027   ---    NE    26    26   ---   0.6 Few Clouds/
24/01/2008 17:50      12.0   5.0  13.1   1.9  62  1027   ---    NE    26    26   ---   0.6 Few Clouds/
24/01/2008 18:50      11.0   5.0  12.4   4.0  66  1028   ---   ENE    14    14   ---   0.7 Few Clouds/
24/01/2008 19:50      11.0   5.0  12.4   4.0  66  1028   ---   ENE    14    14   ---   0.7 Few Clouds/
24/01/2008 20:50      11.0   6.0  12.7   4.0  71  1028   ---   ENE    14    14   ---   0.7 Few Clouds/
24/01/2008 21:20      11.0   6.0  12.7   3.1  71  1029   ---     E    16    16   ---   0.7 Few Clouds/
24/01/2008 22:50      11.0   5.0  12.4  11.0  66  1029   ---     N     5     5   ---   0.7 Few Clouds/
24/01/2008 23:50       9.0   5.0  11.1   9.0  76  1029   ---     N     5     5   ---   --- /
25/01/2008 00:50       8.0   4.0  10.0   5.7  76  1029   ---   SSE     6     6   ---   --- /
25/01/2008 01:50       8.0   4.0  10.0   8.0  76  1029   ---     N     5     5   ---   --- /
25/01/2008 02:50       9.0   5.0  11.1   9.0  76  1030   ---     N     5     5   ---   --- /
25/01/2008 03:50       8.0   4.0  10.0   8.0  76  1029   ---     N     5     5   ---   --- /
25/01/2008 04:50       8.0   5.0  10.5   8.0  81  1029   ---     N     3     3   ---   --- /
25/01/2008 05:50       9.0   5.0  11.1   9.0  76  1029   ---     N     5     5   ---   --- /
25/01/2008 06:50       8.0   5.0  10.5   5.7  81  1030   ---     S     6     6   ---   --- /
25/01/2008 07:50       9.0   6.0  11.5   5.0  81  1030   ---     S     8     8   ---   0.8 Broken Clouds/
25/01/2008 08:50      10.0   7.0  12.5  10.0  82  1031   ---     N     5     5   ---   0.8 Broken Clouds/
25/01/2008 09:50      12.0   9.0  14.5  12.0  82  1031   ---     N     3     3   ---   0.9 Scattered Clouds/
25/01/2008 10:50      13.0   9.0  15.1  13.0  77  1031   ---     N     3     3   ---   0.9 Scattered Clouds/
25/01/2008 11:50      13.0   9.0  15.1  13.0  77  1031   ---     N     3     3   ---   0.9 Scattered Clouds/
25/01/2008 12:50      14.0   7.0  15.2  10.8  63  1031   ---    NE     8     8   ---   1.0 Broken Clouds/
25/01/2008 13:50      13.0   7.0  14.4   5.5  67  1031   ---     N    18    18   ---   0.9 Broken Clouds/
25/01/2008 14:50      13.0   6.0  14.2   5.8  62  1031   ---     N    16    16   ---   0.9 Scattered Clouds/
25/01/2008 15:50      13.0   7.0  14.4   6.6  67  1030   ---     N    14    14   ---   0.9 Scattered Clouds/
25/01/2008 16:50      13.0   6.0  14.2   6.6  62  1030   ---   NNE    14    14   ---   0.9 Scattered Clouds/
25/01/2008 17:50      13.0   6.0  14.2   6.6  62  1031   ---    NE    14    14   ---   0.9 Scattered Clouds/
25/01/2008 18:50      13.0   7.0  14.4   5.8  67  1031   ---   NNE    16    16   ---   0.9 Scattered Clouds/
25/01/2008 19:50      13.0   6.0  14.2   5.8  62  1031   ---    NE    16    16   ---   0.9 Scattered Clouds/
25/01/2008 20:50      10.0   6.0  12.1   2.7  76  1031   ---   ENE    14    14   ---   0.9 Scattered Clouds/
25/01/2008 21:50      11.0   6.0  12.7   6.5  71  1031   ---   ENE    10    10   ---   0.9 Scattered Clouds/
25/01/2008 22:50      11.0   6.0  12.7   6.5  71  1031   ---     E    10    10   ---   0.9 Broken Clouds/
25/01/2008 23:50      11.0   6.0  12.7  -2.4  71  1031   ---   ENE   111   111   ---   0.9 Broken Clouds/
26/01/2008 00:50      10.0   5.0  11.7   3.6  71  1031   ---   ENE    13    13   ---   0.9 Broken Clouds/
26/01/2008 01:50      10.0   5.0  11.7   2.7  71  1031   ---   ENE    14    14   ---   0.9 Scattered Clouds/
26/01/2008 02:50       9.0   5.0  11.1  -0.0  76  1031   ---   ENE    18    18   ---   0.9 Scattered Clouds/
26/01/2008 03:50       9.0   5.0  11.1   1.4  76  1031   ---   ENE    14    14   ---   0.9 Few Clouds/
26/01/2008 04:50      10.0   5.0  11.7   2.7  71  1031   ---   ENE    14    14   ---   0.9 Few Clouds/
26/01/2008 05:50      10.0   6.0  12.1   2.7  76  1031   ---   ENE    14    14   ---   0.9 Few Clouds/
26/01/2008 06:50      10.0   6.0  12.1   5.3  76  1031   ---   ENE    10    10   ---   0.9 Few Clouds/
26/01/2008 07:50      10.0   6.0  12.1   2.7  76  1031   ---   ENE    14    14   ---   0.9 Few Clouds/
26/01/2008 08:50      10.0   7.0  12.5   2.7  82  1031   ---     E    14    14   ---   0.9 Few Clouds/
26/01/2008 10:50      13.0   7.0  14.4   5.8  67  1032   ---    NE    16    16   ---   0.9 Scattered Clouds/
26/01/2008 11:50      13.0   7.0  14.4   5.8  67  1032   ---   NNE    16    16   ---   0.9 Scattered Clouds/
26/01/2008 12:50      14.0   8.0  15.5   6.2  67  1031   ---   NNE    19    19   ---   0.9 Scattered Clouds/
26/01/2008 13:50      14.0   8.0  15.5   5.5  67  1031   ---   NNE    23    23   ---   0.9 Scattered Clouds/
26/01/2008 14:50      14.0   7.0  15.2   6.2  63  1031   ---    NE    19    19   ---   --- /
26/01/2008 15:50      14.0   8.0  15.5   7.2  67  1031   ---   ENE    16    16   ---   --- /
26/01/2008 16:50      13.0   8.0  14.8   6.6  72  1031   ---   ENE    14    14   ---   --- /
26/01/2008 17:50      12.0   8.0  14.1   5.3  77  1031   ---   ENE    14    14   ---   --- /
26/01/2008 18:50      11.0   7.0  13.1   4.9  76  1032   ---   ENE    13    13   ---   --- /
26/01/2008 19:50      11.0   7.0  13.1   7.3  76  1032   ---     E     8     8   ---   --- /
26/01/2008 20:50      11.0   7.0  13.1   9.0  76  1032   ---     E     6     6   ---   --- /
26/01/2008 21:50       9.0   5.0  11.1   6.8  76  1032   ---    SE     6     6   ---   --- /
26/01/2008 22:50      10.0   5.0  11.7  10.0  71  1032   ---     N     5     5   ---   --- /
26/01/2008 23:50      10.0   5.0  11.7  10.0  71  1032   ---     N     5     5   ---   --- /
27/01/2008 00:50       9.0   5.0  11.1   9.0  76  1032   ---     N     3     3   ---   --- /
27/01/2008 01:50      10.0   6.0  12.1  10.0  76  1031   ---     N     2     2   ---   --- /
27/01/2008 02:50       9.0   6.0  11.5   9.0  81  1031   ---     N     5     5   ---   --- /
27/01/2008 03:50       9.0   6.0  11.5   9.0  81  1032   ---     N     3     3   ---   --- /
27/01/2008 04:50       7.0   4.0   9.4   4.6  81  1031   ---     S     6     6   ---   --- /
27/01/2008 05:50       8.0   6.0  10.9   8.0  87  1031   ---     N     5     5   ---   --- /
27/01/2008 06:50       8.0   5.0  10.5   8.0  81  1031   ---     N     5     5   ---   --- /
27/01/2008 07:50       8.0   5.0  10.5   8.0  81  1031   ---     N     3     3   ---   --- /
27/01/2008 08:20       8.0   5.0  10.5   5.7  81  1031   ---   SSE     6     6   ---   --- /
27/01/2008 10:50      13.0  10.0  15.5  13.0  82  1032   ---     N     5     5   ---   0.6 Few Clouds/
27/01/2008 11:50      14.0  10.0  16.1  14.0  77  1031   ---     N     5     5   ---   0.6 Few Clouds/
27/01/2008 12:50      14.0   9.0  15.8  14.0  72  1031   ---     N     5     5   ---   0.6 Few Clouds/
27/01/2008 13:50      14.0   9.0  15.8  14.0  72  1030   ---   NNW     5     5   ---   --- /
27/01/2008 14:50      14.0   9.0  15.8  14.0  72  1030   ---     N     3     3   ---   --- /
27/01/2008 15:50      14.0   8.0  15.5  14.0  67  1029   ---     N     5     5   ---   --- /
27/01/2008 16:50      14.0   6.0  14.9  14.0  59  1029   ---     N     5     5   ---   --- /
27/01/2008 17:50      13.0   7.0  14.4  13.0  67  1029   ---     N     2     2   ---   --- /
27/01/2008 18:50      11.0   6.0  12.7   4.9  71  1029   ---   SSE    13    13   ---   --- /
27/01/2008 19:50      12.0   7.0  13.7   5.3  71  1028   ---     S    14    14   ---   1.0 Few Clouds/
27/01/2008 20:50      12.0   8.0  14.1   7.7  77  1028   ---     S    10    10   ---   1.0 Few Clouds/
27/01/2008 21:50      11.0   8.0  13.5   3.1  82  1028   ---     S    16    16   ---   1.0 Few Clouds/
27/01/2008 22:50      10.0   5.0  11.7   1.8  71  1027   ---     S    16    16   ---   1.0 Few Clouds/
27/01/2008 23:50      12.0   4.0  12.9   4.5  58  1027   ---     S    16    16   ---   --- /
28/01/2008 00:50      11.0   5.0  12.4   4.0  66  1026   ---     S    14    14   ---   --- /
28/01/2008 01:50      11.0   5.0  12.4   4.0  66  1026   ---     S    14    14   ---   --- /
28/01/2008 02:50      11.0   5.0  12.4   4.0  66  1026   ---     S    14    14   ---   --- /
28/01/2008 03:50       9.0   4.0  10.7   1.4  71  1025   ---     S    14    14   ---   --- /
28/01/2008 04:50      10.0   5.0  11.7   3.6  71  1025   ---   SSW    13    13   ---   --- /
28/01/2008 05:50       9.0   5.0  11.1   4.1  76  1025   ---     S    10    10   ---   --- /
28/01/2008 06:50      10.0   7.0  12.5   2.7  82  1025   ---     S    14    14   ---   --- /
28/01/2008 07:50      11.0   8.0  13.5   3.1  82  1025   ---     S    16    16   ---   --- /
28/01/2008 08:50      12.0   9.0  14.5   5.3  82  1026   ---   SSE    14    14   ---   --- /
28/01/2008 09:20      14.0  10.0  16.1  14.0  77  1026   ---     N     5     5   ---   --- /
28/01/2008 10:20      15.0  10.0  16.8  15.0  72  1026   ---     N     3     3   ---   --- /
28/01/2008 11:50      16.0  12.0  18.1  16.0  77  1026   ---     N     5     5   ---   --- /
28/01/2008 12:50      15.0  10.0  16.8  12.0  72  1026   ---     N     8     8   ---   0.7 Few Clouds/
28/01/2008 13:50      15.0  10.0  16.8  11.3  72  1025   ---   NNE    10    10   ---   0.7 Few Clouds/
28/01/2008 14:50      15.0  11.0  17.1   7.6  77  1026   ---   NNE    19    19   ---   0.7 Few Clouds/
28/01/2008 15:50      15.0   9.0  16.5   7.3  67  1026   ---    NE    21    21   ---   0.7 Few Clouds/
28/01/2008 16:50      14.0  10.0  16.1   5.8  77  1026   ---    NE    21    21   ---   0.7 Few Clouds/
28/01/2008 17:50      13.0   9.0  15.1   4.8  77  1026   ---    NE    19    19   ---   0.7 Few Clouds/
28/01/2008 18:50      14.0  10.0  16.1   5.5  77  1026   ---    NE    23    23   ---   0.7 Few Clouds/
28/01/2008 19:50      14.0  10.0  16.1   4.9  77  1026   ---    NE    26    26   ---   0.7 Few Clouds/
28/01/2008 20:50      13.0  10.0  15.5   4.8  82  1027   ---    NE    19    19   ---   0.7 Few Clouds/
28/01/2008 21:20      14.0  10.0  16.1   4.1  77  1027   ---    NE    31    31   ---   --- /
28/01/2008 22:50      13.0   9.0  15.1   4.8  77  1027   ---   ENE    19    19   ---   --- /
28/01/2008 23:50      12.0   9.0  14.5   4.1  82  1028   ---   ENE    18    18   ---   --- /
29/01/2008 00:50      13.0  10.0  15.5   5.5  82  1028   ---   ENE    18    18   ---   --- /
29/01/2008 01:50      12.0   9.0  14.5   7.7  82  1028   ---   ENE    10    10   ---   --- /
29/01/2008 02:50      11.0   8.0  13.5   6.5  82  1029   ---   ENE    10    10   ---   --- /
29/01/2008 03:50      11.0   9.0  13.9   4.9  87  1028   ---     E    13    13   ---   --- /
29/01/2008 04:50      12.0   9.0  14.5   6.2  82  1028   ---   SSE    13    13   ---   0.7 Scattered Clouds/
29/01/2008 05:50      12.0   8.0  14.1   8.5  77  1029   ---    NE     8     8   ---   0.7 Few Clouds/
29/01/2008 06:50      11.0   8.0  13.5   6.5  82  1029   ---    NE    10    10   ---   0.9 Few Clouds/
29/01/2008 07:50      10.0   7.0  12.5   7.9  82  1029   ---     S     6     6   ---   0.9 Few Clouds/
29/01/2008 08:50      10.0   8.0  12.9   7.9  87  1030   ---     S     6     6   ---   0.9 Few Clouds/
29/01/2008 09:20      10.0   8.0  12.9  10.0  87  1030   ---     N     5     5   ---   --- /
29/01/2008 10:20      14.0   9.0  15.8  14.0  72  1030   ---     N     3     3   ---   --- /
29/01/2008 11:50      15.0   9.0  16.5  15.0  67  1030   ---     N     5     5   ---   --- /
29/01/2008 12:50      15.0  10.0  16.8  15.0  72  1029   ---     N     5     5   ---   --- /
29/01/2008 13:50      15.0  10.0  16.8  15.0  72  1029   ---     N     5     5   ---   --- /
29/01/2008 14:50      15.0  10.0  16.8  12.0  72  1029   ---   NNE     8     8   ---   --- /
29/01/2008 15:50      16.0   9.0  17.2  11.3  63  1029   ---   ENE    13    13   ---   --- /
29/01/2008 16:50      15.0   9.0  16.5  13.3  67  1029   ---   ENE     6     6   ---   --- /
29/01/2008 17:50      14.0  10.0  16.1  14.0  77  1029   ---     N     2     2   ---   --- /
29/01/2008 18:50      12.0   7.0  13.7  12.0  71  1029   ---     N     5     5   ---   --- /
29/01/2008 19:50      12.0   6.0  13.4  12.0  67  1029   ---     N     5     5   ---   --- /
29/01/2008 20:20      12.0   6.0  13.4  12.0  67  1029   ---     N     5     5   ---   --- /
29/01/2008 21:50      12.0   6.0  13.4  12.0  67  1029   ---     N     5     5   ---   --- /
29/01/2008 22:50      14.0   9.0  15.8   5.5  72  1029   ---   SSW    23    23   ---   --- /
29/01/2008 23:50      14.0   9.0  15.8   4.6  72  1029   ---   SSW    27    27   ---   --- /
30/01/2008 00:50      14.0   8.0  15.5   5.5  67  1029   ---   SSW    23    23   ---   --- /
30/01/2008 01:50      14.0   8.0  15.5   5.5  67  1029   ---     S    23    23   ---   --- /
30/01/2008 02:50      13.0   8.0  14.8   3.4  72  1029   ---     S    26    26   ---   --- /
30/01/2008 03:50      14.0   7.0  15.2   4.9  63  1028   ---     S    26    26   ---   --- /
30/01/2008 04:50      14.0   7.0  15.2   6.2  63  1028   ---     S    19    19   ---   --- /
30/01/2008 05:50      14.0   7.0  15.2   5.8  63  1028   ---     S    21    21   ---   --- /
30/01/2008 06:50      14.0   7.0  15.2   5.8  63  1028   ---     S    21    21   ---   --- /
30/01/2008 07:50      14.0   7.0  15.2   5.8  63  1028   ---     S    21    21   ---   --- /
30/01/2008 08:50      16.0   5.0  16.3  11.3  48  1028   ---     S    13    13   ---   --- /
30/01/2008 09:50      16.0   7.0  16.7   9.0  55  1028   ---   SSW    19    19   ---   --- /
30/01/2008 11:20      18.0   4.0  17.9  11.3  39  1028   ---     S    23    23   ---   --- /
30/01/2008 12:50      18.0   7.0  18.4  10.8  49  1026   ---   SSW    26    26   ---   --- /
30/01/2008 13:50      19.0   8.0  19.4  12.3  49  1025   ---   SSW    26    26   ---   --- /
30/01/2008 14:50      18.0   9.0  18.8  10.4  56  1025   ---   SSW    29    29   ---   --- /
30/01/2008 15:50      17.0   8.0  17.7   8.9  55  1025   ---   SSW    29    29   ---   --- /
30/01/2008 16:20      17.0   8.0  17.7  10.1  55  1025   ---     S    21    21   ---   --- /
30/01/2008 17:50      15.0   8.0  16.2   6.1  63  1025   ---   SSW    27    27   ---   --- /
30/01/2008 18:50      14.0   7.0  15.2   6.2  63  1026   ---     S    19    19   ---   --- /
30/01/2008 19:50      15.0   6.0  15.7   6.4  55  1026   ---     S    26    26   ---   --- /
30/01/2008 20:50      14.0   6.0  14.9   4.1  59  1025   ---     S    31    31   ---   --- /
30/01/2008 21:50      14.0   6.0  14.9   4.1  59  1025   ---     S    31    31   ---   --- /
30/01/2008 22:50      14.0   6.0  14.9   4.1  59  1026   ---     S    31    31   ---   --- /
30/01/2008 23:50      14.0   5.0  14.7   5.5  55  1026   ---     S    23    23   ---   --- /
31/01/2008 00:50      13.0   5.0  13.9   4.4  58  1025   ---     S    21    21   ---   --- /
31/01/2008 01:50      13.0   5.0  13.9   4.4  58  1025   ---     S    21    21   ---   --- /
31/01/2008 02:50      14.0   4.0  14.5   5.8  51  1024   ---     S    21    21   ---   --- /
31/01/2008 03:50      13.0   5.0  13.9   5.5  58  1024   ---   SSW    18    18   ---   --- /
31/01/2008 04:50      13.0   5.0  13.9   4.8  58  1024   ---   SSW    19    19   ---   --- /
31/01/2008 05:50      13.0   4.0  13.7   4.4  54  1023   ---   SSW    21    21   ---   --- /
31/01/2008 06:50      12.0   5.0  13.1   1.9  62  1023   ---   SSW    26    26   ---   --- /
31/01/2008 07:50      12.0   5.0  13.1   2.6  62  1024   ---     S    23    23   ---   --- /
31/01/2008 08:50      13.0   7.0  14.4   3.4  67  1024   ---     S    26    26   ---   --- /
31/01/2008 09:50      14.0   7.0  15.2   4.9  63  1024   ---     S    26    26   ---   --- /
31/01/2008 10:50      14.0   8.0  15.5   4.9  67  1025   ---     S    26    26   ---   --- /
31/01/2008 11:50      15.0   8.0  16.2   5.9  63  1024   ---   SSW    29    29   ---   0.7 Scattered Clouds/
31/01/2008 12:50      15.0   8.0  16.2   6.4  63  1024   ---    SW    26    26   ---   0.7 Scattered Clouds/
31/01/2008 13:50      14.0   8.0  15.5   4.4  67  1023   ---     W    29    29   ---   0.7 Scattered Clouds/
31/01/2008 14:50      14.0   9.0  15.8   4.1  72  1022   ---     W    31    31   ---   0.7 Scattered Clouds/
31/01/2008 15:50      14.0   9.0  15.8   4.1  72  1022   ---     W    31    31   ---   0.7 Scattered Clouds/
31/01/2008 16:50      14.0   8.0  15.5   4.6  67  1022   ---     W    27    27   ---   0.7 Scattered Clouds/
31/01/2008 17:50      14.0   8.0  15.5   5.8  67  1023   ---     W    21    21   ---   0.7 Broken Clouds/
31/01/2008 18:50      14.0   9.0  15.8   6.9  72  1023   ---     W    18    18   ---   0.7 Broken Clouds/
31/01/2008 19:50      11.0   6.0  12.7   4.0  71  1023   ---     S    14    14   ---   0.7 Broken Clouds/
31/01/2008 20:50      11.0   6.0  12.7   4.0  71  1023   ---     S    14    14   ---   0.8 Scattered Clouds/
31/01/2008 21:50      11.0   6.0  12.7   3.1  71  1023   ---     S    16    16   ---   0.8 Scattered Clouds/
31/01/2008 22:50      13.0   6.0  14.2   5.5  62  1023   ---     S    18    18   ---   0.9 Broken Clouds/
31/01/2008 23:50      13.0   6.0  14.2   4.4  62  1023   ---     S    21    21   ---   0.9 Broken Clouds/
01/02/2008 00:20      13.0   6.0  14.2   4.0  62  1023   ---   SSW    23    23   ---   0.9 Broken Clouds/
01/02/2008 01:50      12.0   6.0  13.4   4.5  67  1023   ---     S    16    16   ---   0.9 Scattered Clouds/
01/02/2008 02:50      12.0   6.0  13.4   5.3  67  1022   ---     S    14    14   ---   0.9 Broken Clouds/
01/02/2008 03:50      13.0   6.0  14.2   5.5  62  1022   ---     S    18    18   ---   0.9 Broken Clouds/
01/02/2008 04:50      12.0   7.0  13.7   4.1  71  1022   ---   SSW    18    18   ---   0.9 Broken Clouds/
01/02/2008 05:50      11.0   6.0  12.7   1.9  71  1022   ---     S    19    19   ---   0.9 Broken Clouds/
01/02/2008 06:50      11.0   6.0  12.7   3.1  71  1022   ---     S    16    16   ---   0.9 Scattered Clouds/
01/02/2008 07:50      11.0   6.0  12.7   2.7  71  1023   ---   SSW    18    18   ---   0.9 Scattered Clouds/
01/02/2008 08:50      12.0   6.0  13.4   4.1  67  1023   ---   SSW    18    18   ---   0.9 Scattered Clouds/
01/02/2008 10:20      13.0   5.0  13.9   5.5  58  1023   ---     S    18    18   ---   0.9 Scattered Clouds/
01/02/2008 11:50      14.0   5.0  14.7   6.9  55  1023   ---   SSW    18    18   ---   --- /
01/02/2008 12:50      15.0   5.0  15.5   9.3  51  1022   ---    SW    14    14   ---   --- /
01/02/2008 13:50      15.0   6.0  15.7  12.0  55  1022   ---     W     8     8   ---   0.7 Few Clouds/
01/02/2008 14:50      14.0   6.0  14.9   8.7  59  1021   ---   WNW    13    13   ---   --- /
01/02/2008 15:50      14.0   7.0  15.2   8.0  63  1021   ---   WNW    14    14   ---   --- /
01/02/2008 16:50      14.0   7.0  15.2   6.9  63  1021   ---   WNW    18    18   ---   0.7 Few Clouds/
01/02/2008 17:50      14.0   8.0  15.5   7.2  67  1021   ---   WNW    16    16   ---   0.7 Few Clouds/
01/02/2008 18:50      14.0   9.0  15.8   5.5  72  1021   ---   WNW    23    23   ---   0.7 Scattered Clouds/
01/02/2008 19:50      14.0   8.0  15.5   6.9  67  1022   ---   WNW    18    18   ---   0.8 Broken Clouds/
01/02/2008 20:50      14.0   7.0  15.2   8.0  63  1021   ---     W    14    14   ---   0.7 Broken Clouds/
01/02/2008 21:50      12.0   6.0  13.4   6.2  67  1021   ---   SSW    13    13   ---   0.7 Scattered Clouds/
01/02/2008 22:50      10.0   5.0  11.7   3.6  71  1021   ---     S    13    13   ---   0.7 Scattered Clouds/
01/02/2008 22:50      10.0   5.0  11.7   3.6  71  1021   ---     S    13    13   ---   0.7 Scattered Clouds/None reported
01/02/2008 23:50      10.0   4.0  11.4   2.7  66  1021   ---     S    14    14   ---   0.7 Scattered Clouds/
02/02/2008 00:50      10.0   2.0  10.9   5.3  58  1020   ---     S    10    10   ---   0.7 Scattered Clouds/
02/02/2008 01:50      10.0   0.0  10.4   6.2  50  1020   ---   SSE     8     8   ---   0.7 Scattered Clouds/
02/02/2008 02:50      11.0   4.0  12.1   2.7  62  1019   ---    SW    18    18   ---   0.7 Scattered Clouds/
02/02/2008 03:50      12.0   2.0  12.5   3.3  50  1019   ---     S    19    19   ---   0.7 Scattered Clouds/
02/02/2008 04:50      13.0   5.0  13.9   4.0  58  1019   ---     S    23    23   ---   0.7 Scattered Clouds/
02/02/2008 05:50      13.0   5.0  13.9   2.9  58  1018   ---     S    29    29   ---   0.7 Scattered Clouds/
02/02/2008 06:50      13.0   5.0  13.9   3.4  58  1018   ---     S    26    26   ---   0.7 Broken Clouds/
02/02/2008 07:20      13.0   5.0  13.9   3.1  58  1019   ---     S    27    27   ---   0.8 Broken Clouds/
02/02/2008 08:50      14.0   6.0  14.9   5.5  59  1019   ---     S    23    23   ---   0.7 Scattered Clouds/
02/02/2008 09:50      15.0   6.0  15.7   5.6  55  1019   ---     S    31    31   ---   --- /
02/02/2008 10:50      16.0   7.0  16.7   7.6  55  1019   ---   SSW    27    27   ---   --- /
02/02/2008 11:50      16.0   7.0  16.7   7.4  55  1019   ---   SSW    29    29   ---   --- /
02/02/2008 12:50      17.0   6.0  17.4   8.0  48  1018   ---   SSW    39    39   ---   --- /
02/02/2008 13:50      17.0   6.0  17.4   8.0  48  1018   ---   SSW    39    39   ---   0.8 Few Clouds/
02/02/2008 14:50      17.0   7.0  17.5   8.4  52  1017   ---   SSW    34    34   ---   0.8 Few Clouds/
02/02/2008 15:50      16.0   6.0  16.5   7.2  51  1017   ---   SSW    31    50   ---   0.8 Few Clouds/
02/02/2008 16:50      15.0   5.0  15.5   6.9  51  1018   ---     S    23    23   ---   0.9 Few Clouds/
02/02/2008 17:50      15.0   5.0  15.5   5.6  51  1019   ---     S    31    31   ---   0.9 Scattered Clouds/
02/02/2008 18:50      15.0   5.0  15.5   7.3  51  1019   ---   SSE    21    21   ---   0.9 Scattered Clouds/
02/02/2008 19:50      14.0   5.0  14.7   8.0  55  1020   ---     S    14    14   ---   0.9 Scattered Clouds/
02/02/2008 20:50      15.0   4.0  15.3  11.3  48  1020   ---   SSE    10    10   ---   0.9 Few Clouds/
02/02/2008 21:50      14.0   6.0  14.9   8.0  59  1020   ---    SE    14    14   ---   0.9 Few Clouds/
02/02/2008 22:50      15.0   3.0  15.2  13.3  44  1021   ---     E     6     6   ---   0.9 Few Clouds/
02/02/2008 23:50      15.0   8.0  16.2  13.3  63  1021   ---   NNW     6     6   ---   0.9 Few Clouds/
03/02/2008 00:50      12.0   6.0  13.4  12.0  67  1021   ---     E     3     3   ---   --- /
03/02/2008 01:50      12.0   6.0  13.4  12.0  67  1021   ---     S     5     5   ---   --- /
03/02/2008 02:50      12.0   5.0  13.1  10.1  62  1021   ---     S     6     6   ---   --- /
03/02/2008 03:50       9.0   4.0  10.7   1.4  71  1021   ---   SSW    14    14   ---   --- /
03/02/2008 04:50       9.0   4.0  10.7   5.0  71  1021   ---    SE     8     8   ---   --- /
03/02/2008 05:50      11.0   5.0  12.4  11.0  66  1021   ---     W     5     5   ---   --- /
03/02/2008 06:50      10.0   4.0  11.4   7.9  66  1022   ---     S     6     6   ---   --- /
03/02/2008 07:50       9.0   4.0  10.7   5.0  71  1022   ---     S     8     8   ---   --- /
03/02/2008 08:50      12.0   7.0  13.7  12.0  71  1023   ---     N     5     5   ---   --- /
03/02/2008 10:50      15.0   9.0  16.5  15.0  67  1023   ---     N     5     5   ---   --- /
03/02/2008 11:50      15.0  10.0  16.8  12.0  72  1023   ---    NE     8     8   ---   --- /
03/02/2008 12:50      19.0   6.0  19.1  14.0  43  1022   ---     S    16    16   ---   0.7 Broken Clouds/
03/02/2008 13:50      16.0   9.0  17.2  12.5  63  1022   ---   NNE    10    10   ---   0.7 Broken Clouds/
03/02/2008 14:50      17.0   5.0  17.2  11.0  45  1021   ---    NE    18    18   ---   0.7 Broken Clouds/
03/02/2008 15:50      17.0   7.0  17.5  13.8  52  1021   ---    NE    10    10   ---   0.7 Few Clouds/
03/02/2008 16:50      17.0   7.0  17.5  17.0  52  1022   ---     N     2     2   ---   0.7 Few Clouds/
03/02/2008 17:50      15.0   8.0  16.2   7.6  63  1022   ---   SSW    19    19   ---   0.7 Scattered Clouds/
03/02/2008 18:50      14.0   7.0  15.2  14.0  63  1022   ---     N     5     5   ---   0.7 Scattered Clouds/
03/02/2008 19:50      13.0   7.0  14.4   9.7  67  1023   ---   SSW     8     8   ---   0.7 Scattered Clouds/
03/02/2008 20:50      12.0   7.0  13.7   8.5  71  1023   ---   SSW     8     8   ---   0.7 Scattered Clouds/
03/02/2008 21:50      11.0   6.0  12.7   4.9  71  1023   ---     S    13    13   ---   0.7 Scattered Clouds/
03/02/2008 22:50      14.0   3.0  14.3   7.2  47  1023   ---     S    16    16   ---   0.7 Scattered Clouds/
03/02/2008 23:50      15.0   2.0  15.0   9.3  41  1022   ---    SE    14    14   ---   0.7 Few Clouds/
04/02/2008 00:50      14.0   2.0  14.2  10.8  44  1022   ---    SE     8     8   ---   0.7 Few Clouds/
04/02/2008 01:50      14.0   3.0  14.3  10.8  47  1022   ---    SE     8     8   ---   0.7 Few Clouds/
04/02/2008 02:50      15.0   3.0  15.2   5.9  44  1022   ---     S    29    29   ---   0.7 Few Clouds/
04/02/2008 03:50      15.0   4.0  15.3   5.6  48  1021   ---     S    31    31   ---   0.7 Few Clouds/
04/02/2008 04:50      15.0   3.0  15.2   6.4  44  1021   ---     S    26    26   ---   0.7 Few Clouds/
04/02/2008 05:20      15.0   3.0  15.2   6.1  44  1021   ---     S    27    27   ---   0.7 Few Clouds/
04/02/2008 06:50      15.0   3.0  15.2   7.6  44  1021   ---   SSE    19    19   ---   0.6 Scattered Clouds/
04/02/2008 07:50      15.0   1.0  14.9   7.3  39  1021   ---   SSE    21    42   ---   0.7 Scattered Clouds/
04/02/2008 08:50      16.0   1.0  15.8  13.2  36  1021   ---     N     8     8   ---   0.7 Scattered Clouds/
04/02/2008 09:50      17.0   4.0  17.1  11.3  42  1021   ---     S    16    16   ---   0.7 Scattered Clouds/
04/02/2008 10:50      18.0   5.0  18.1  10.2  42  1021   ---     S    31    31   ---   0.7 Scattered Clouds/
04/02/2008 11:50      19.0   5.0  18.9  11.5  40  1021   ---     S    34    34   ---   0.7 Few Clouds/
04/02/2008 12:50      19.0   6.0  19.1  12.7  43  1020   ---     S    23    23   ---   --- /
04/02/2008 13:50      20.0   5.0  19.8  13.1  37  1019   ---   SSW    32    32   ---   --- /
04/02/2008 14:50      19.0   6.0  19.1  11.5  43  1019   ---   SSW    34    34   ---   --- /
04/02/2008 15:50      19.0   5.0  18.9  11.9  40  1019   ---   SSW    29    29   ---   --- /
04/02/2008 16:50      17.0   8.0  17.7   8.7  55  1019   ---    SW    31    31   ---   --- /
04/02/2008 17:50      16.0   8.0  16.9   7.8  59  1020   ---    SW    26    26   ---   --- /
04/02/2008 18:50      15.0   6.0  15.7   6.4  55  1020   ---   SSW    26    26   ---   --- /
04/02/2008 19:50      15.0   5.0  15.5   5.4  51  1020   ---   SSW    32    32   ---   --- /
04/02/2008 20:50      15.0   1.0  14.9   7.3  39  1020   ---   SSW    21    21   ---   --- /
04/02/2008 21:50      15.0   2.0  15.0   4.7  41  1020   ---   SSW    40    40   ---   --- /
04/02/2008 22:50      15.0   5.0  15.5   4.9  51  1021   ---     S    39    39   ---   --- /
04/02/2008 23:50      15.0   7.0  15.9   5.3  59  1021   ---   SSW    34    53   ---   --- /
05/02/2008 00:50      15.0   8.0  16.2   4.9  63  1021   ---   SSW    37    37   ---   0.9 Broken Clouds/
05/02/2008 01:50      15.0   8.0  16.2   4.7  63  1020   ---     S    40    40   ---   0.8 Broken Clouds/
05/02/2008 02:50      15.0  10.0  16.8   5.6  72  1019   ---   SSW    31    31   ---   0.8 Broken Clouds/
05/02/2008 03:50      15.0  11.0  17.1   5.3  77  1020   ---    SW    34    34   ---   0.7 Scattered Clouds/
05/02/2008 04:50      15.0   9.0  16.5   4.9  67  1020   ---     W    39    39   ---   0.7 Scattered Clouds/
05/02/2008 05:50      15.0   8.0  16.2   5.9  63  1021   ---     W    29    29   ---   0.7 Few Clouds/
05/02/2008 06:50      15.0   8.0  16.2   5.6  63  1022   ---     W    31    31   ---   0.7 Scattered Clouds/
05/02/2008 07:50      14.0   8.0  15.5   4.6  67  1022   ---     W    27    27   ---   0.7 Few Clouds/
05/02/2008 08:50      14.0   8.0  15.5   4.6  67  1023   ---     W    27    27   ---   0.7 Few Clouds/
05/02/2008 09:20      14.0   6.0  14.9   4.1  59  1023   ---     W    31    31   ---   0.7 Few Clouds/
05/02/2008 10:20      14.0   8.0  15.5   3.8  67  1023   ---     W    34    34   ---   0.7 Few Clouds/
05/02/2008 11:50      14.0   8.0  15.5   3.3  67  1024   ---     W    39    39   ---   0.7 Few Clouds/
05/02/2008 12:50      14.0   7.0  15.2   3.8  63  1024   ---     W    34    34   ---   0.7 Scattered Clouds/
05/02/2008 13:50      14.0   7.0  15.2   3.8  63  1023   ---     W    34    34   ---   0.7 Scattered Clouds/
05/02/2008 14:50      14.0   7.0  15.2   3.9  63  1024   ---   WNW    32    32   ---   0.7 Broken Clouds/
05/02/2008 15:50      14.0   8.0  15.5   4.1  67  1024   ---   WNW    31    31   ---   0.8 Broken Clouds/
05/02/2008 16:50      14.0   8.0  15.5   4.6  67  1024   ---   WNW    27    27   ---   0.8 Broken Clouds/
05/02/2008 17:50      14.0   8.0  15.5   5.5  67  1025   ---    NW    23    23   ---   0.8 Scattered Clouds/
05/02/2008 18:50      14.0   5.0  14.7   5.8  55  1025   ---    NW    21    21   ---   0.8 Scattered Clouds/
05/02/2008 19:50      14.0   6.0  14.9   5.5  59  1026   ---    NW    23    23   ---   0.8 Scattered Clouds/
05/02/2008 20:50      14.0   5.0  14.7   6.2  55  1026   ---   NNW    19    19   ---   0.8 Few Clouds/
05/02/2008 21:50      14.0   6.0  14.9   7.2  59  1026   ---   NNW    16    16   ---   0.8 Few Clouds/
05/02/2008 22:50      14.0   5.0  14.7   8.7  55  1026   ---   NNW    13    13   ---   0.8 Few Clouds/
05/02/2008 23:50      14.0   7.0  15.2   6.9  63  1027   ---   NNW    18    18   ---   0.8 Few Clouds/
06/02/2008 00:50      14.0   6.0  14.9   6.9  59  1027   ---   NNW    18    18   ---   0.8 Few Clouds/
06/02/2008 01:50      14.0   7.0  15.2   8.0  63  1027   ---     N    14    14   ---   0.8 Scattered Clouds/
06/02/2008 02:50      13.0   7.0  14.4   7.4  67  1027   ---     N    13    13   ---   0.8 Scattered Clouds/
06/02/2008 03:50      13.0   7.0  14.4   8.9  67  1027   ---     N    10    10   ---   0.8 Scattered Clouds/
06/02/2008 04:50      13.0   7.0  14.4   6.6  67  1027   ---     N    14    14   ---   0.8 Scattered Clouds/
06/02/2008 05:50      13.0   7.0  14.4   6.6  67  1027   ---     N    14    14   ---   0.8 Scattered Clouds/
06/02/2008 06:50      14.0   7.0  15.2   8.7  63  1027   ---     N    13    13   ---   0.8 Few Clouds/
06/02/2008 07:50      13.0   7.0  14.4   8.9  67  1028   ---   NNW    10    10   ---   0.8 Few Clouds/
06/02/2008 08:50      13.0   7.0  14.4   8.9  67  1029   ---   NNW    10    10   ---   0.8 Scattered Clouds/
06/02/2008 09:20      14.0   7.0  15.2  10.1  63  1029   ---     N    10    10   ---   0.8 Scattered Clouds/
06/02/2008 11:50      14.0   7.0  15.2  12.3  63  1029   ---    NW     6     6   ---   0.8 Scattered Clouds/
06/02/2008 12:50      14.0   6.0  14.9  10.8  59  1028   ---    NW     8     8   ---   0.8 Scattered Clouds/
06/02/2008 13:50      14.0   7.0  15.2   8.7  63  1028   ---   NNW    13    13   ---   0.8 Scattered Clouds/
06/02/2008 14:50      14.0   7.0  15.2   8.7  63  1028   ---    NW    13    13   ---   0.8 Scattered Clouds/
06/02/2008 15:50      14.0   7.0  15.2   8.7  63  1028   ---   NNW    13    13   ---   0.8 Scattered Clouds/
06/02/2008 16:50      14.0   8.0  15.5  10.1  67  1028   ---   NNW    10    10   ---   0.8 Scattered Clouds/
06/02/2008 17:50      14.0   8.0  15.5  10.1  67  1028   ---     N    10    10   ---   0.8 Scattered Clouds/
06/02/2008 18:50      14.0   7.0  15.2   8.7  63  1028   ---   NNW    13    13   ---   0.8 Scattered Clouds/
06/02/2008 19:50      14.0   8.0  15.5  10.8  67  1028   ---    NW     8     8   ---   0.8 Scattered Clouds/
06/02/2008 20:50      14.0   7.0  15.2   8.7  63  1028   ---   NNW    13    13   ---   0.8 Scattered Clouds/
06/02/2008 21:50      14.0   7.0  15.2  10.1  63  1027   ---    NW    10    10   ---   0.8 Scattered Clouds/
06/02/2008 22:50      13.0   7.0  14.4  13.0  67  1027   ---     N     3     3   ---   0.8 Scattered Clouds/
06/02/2008 23:50      10.0   5.0  11.7  10.0  71  1027   ---     N     5     5   ---   0.8 Scattered Clouds/
07/02/2008 00:50      10.0   5.0  11.7   3.6  71  1026   ---   SSE    13    13   ---   0.8 Scattered Clouds/
07/02/2008 01:50       9.0   5.0  11.1   2.3  76  1026   ---     S    13    13   ---   0.8 Scattered Clouds/
07/02/2008 02:50      10.0   6.0  12.1   1.8  76  1025   ---   SSE    16    16   ---   0.8 Scattered Clouds/
07/02/2008 03:50      10.0   4.0  11.4  10.0  66  1024   ---     N     5     5   ---   0.8 Scattered Clouds/
07/02/2008 04:50       8.0   3.0   9.7   1.0  71  1024   ---   SSW    13    13   ---   0.8 Scattered Clouds/
07/02/2008 05:50       9.0   4.0  10.7   0.4  71  1023   ---     S    16    16   ---   0.8 Scattered Clouds/
07/02/2008 06:50      10.0   5.0  11.7   2.7  71  1023   ---     S    14    14   ---   0.8 Scattered Clouds/
07/02/2008 07:50      12.0   7.0  13.7   7.7  71  1023   ---     S    10    10   ---   0.6 Broken Clouds/
07/02/2008 08:50      13.0   9.0  15.1   5.8  77  1022   ---     S    16    16   ---   0.6 Scattered Clouds/
07/02/2008 09:50      14.0   9.0  15.8  10.8  72  1024   ---   WSW     8     8   ---   0.6 Scattered Clouds/
07/02/2008 10:50      14.0   9.0  15.8  12.3  72  1023   ---    SW     6     6   ---   0.6 Broken Clouds/
07/02/2008 11:50      15.0  10.0  16.8   6.9  72  1023   ---    NW    23    23   ---   0.4 Broken Clouds/
07/02/2008 12:50      15.0  10.0  16.8   7.3  72  1022   ---   NNW    21    21   ---   0.4 Broken Clouds/
07/02/2008 13:50      14.0  10.0  16.1   3.3  77  1022   ---     N    39    39   ---   0.4 Broken Clouds/
07/02/2008 14:50      14.0   9.0  15.8   3.3  72  1022   ---     N    39    39   ---   0.4 Broken Clouds/
07/02/2008 15:50      14.0  10.0  16.1   3.2  77  1022   ---     N    40    40   ---   0.4 Broken Clouds/
07/02/2008 16:50      14.0   9.0  15.8   3.2  72  1023   ---   NNE    40    40   ---   0.4 Broken Clouds/
07/02/2008 17:50      14.0   9.0  15.8   3.3  72  1023   ---     N    39    39   ---   0.6 Few Clouds/
07/02/2008 18:50      14.0   8.0  15.5   3.1  67  1023   ---     N    42    42   ---   0.6 Few Clouds/
07/02/2008 19:20      14.0   9.0  15.8   3.1  72  1024   ---     N    42    42   ---   0.6 Few Clouds/
07/02/2008 20:50      14.0   9.0  15.8   3.4  72  1024   ---   NNE    37    37   ---   0.6 Few Clouds/
07/02/2008 21:50      14.0   8.0  15.5   3.4  67  1023   ---   NNE    37    37   ---   0.6 Few Clouds/
07/02/2008 22:50      14.0   8.0  15.5   4.1  67  1023   ---    NE    31    31   ---   0.6 Few Clouds/
07/02/2008 23:50      14.0   5.0  14.7   3.8  55  1023   ---    NE    34    34   ---   0.6 Few Clouds/
08/02/2008 00:50      14.0   4.0  14.5   3.8  51  1023   ---    NE    34    34   ---   0.6 Few Clouds/
08/02/2008 01:50      13.0   5.0  13.9   2.2  58  1023   ---    NE    34    34   ---   0.6 Few Clouds/
08/02/2008 02:50      13.0   4.0  13.7   2.2  54  1022   ---    NE    34    34   ---   0.6 Few Clouds/
08/02/2008 03:50      13.0   4.0  13.7   1.8  54  1022   ---    NE    37    37   ---   0.6 Few Clouds/
08/02/2008 04:50      12.0   1.0  12.3   0.0  47  1022   ---    NE    40    40   ---   0.6 Few Clouds/
08/02/2008 05:50      12.0   2.0  12.5  -0.1  50  1022   ---   NNE    42    42   ---   0.6 Few Clouds/
08/02/2008 06:50      12.0   2.0  12.5   0.7  50  1023   ---    NE    34    34   ---   0.6 Few Clouds/
08/02/2008 07:50      12.0   3.0  12.7   0.0  54  1022   ---   NNE    40    40   ---   0.7 Few Clouds/
08/02/2008 08:50      12.0   4.0  12.9  -0.2  58  1022   ---   NNE    43    43   ---   0.7 Scattered Clouds/
08/02/2008 09:50      12.0   5.0  13.1   0.2  62  1022   ---    NE    39    39   ---   0.7 Scattered Clouds/
08/02/2008 10:50      12.0   5.0  13.1  -0.2  62  1022   ---   NNE    43    43   ---   0.7 Scattered Clouds/
08/02/2008 11:50      13.0   5.0  13.9   1.4  58  1022   ---   NNE    43    43   ---   0.7 Scattered Clouds/
08/02/2008 12:50      13.0   6.0  14.2   1.6  62  1022   ---    NE    40    40   ---   0.7 Scattered Clouds/
08/02/2008 13:50      13.0   5.0  13.9   1.8  58  1022   ---    NE    39    39   ---   0.7 Broken Clouds/
08/02/2008 14:50      13.0   5.0  13.9   1.8  58  1021   ---    NE    39    39   ---   0.7 Broken Clouds/
08/02/2008 15:50      13.0   5.0  13.9   1.8  58  1022   ---    NE    39    39   ---   0.7 Scattered Clouds/
08/02/2008 16:50      13.0   5.0  13.9   1.6  58  1022   ---    NE    40    40   ---   0.7 Scattered Clouds/
08/02/2008 17:50      13.0   6.0  14.2   2.2  62  1022   ---    NE    34    34   ---   0.7 Scattered Clouds/
08/02/2008 18:50      13.0   6.0  14.2   1.8  62  1023   ---    NE    37    37   ---   0.7 Scattered Clouds/
08/02/2008 19:50      13.0   6.0  14.2   1.8  62  1023   ---    NE    37    37   ---   0.7 Scattered Clouds/
08/02/2008 21:50      13.0   6.0  14.2   2.2  62  1023   ---    NE    34    34   ---   0.7 Scattered Clouds/
08/02/2008 22:50      13.0   6.0  14.2   2.2  62  1023   ---    NE    34    34   ---   0.7 Scattered Clouds/
08/02/2008 23:50      13.0   6.0  14.2   2.6  62  1023   ---    NE    31    31   ---   0.7 Scattered Clouds/
09/02/2008 00:50      13.0   5.0  13.9   2.9  58  1023   ---    NE    29    29   ---   0.7 Scattered Clouds/
09/02/2008 01:50      13.0   5.0  13.9   3.4  58  1024   ---    NE    26    26   ---   0.7 Scattered Clouds/
09/02/2008 02:50      13.0   6.0  14.2   2.9  62  1023   ---    NE    29    29   ---   0.7 Scattered Clouds/
09/02/2008 03:50      12.0   4.0  12.9   3.0  58  1023   ---    NE    21    21   ---   0.7 Scattered Clouds/
09/02/2008 04:50      12.0   4.0  12.9   3.0  58  1023   ---    NE    21    21   ---   0.7 Scattered Clouds/
09/02/2008 05:50      12.0   2.0  12.5   1.6  50  1023   ---   ENE    27    27   ---   0.7 Scattered Clouds/
09/02/2008 06:50      12.0   3.0  12.7   1.4  54  1023   ---   ENE    29    29   ---   0.7 Scattered Clouds/
09/02/2008 07:50      12.0   3.0  12.7   1.9  54  1024   ---   ENE    26    26   ---   0.7 Scattered Clouds/
09/02/2008 08:50      13.0   4.0  13.7   2.9  54  1024   ---    NE    29    29   ---   0.7 Scattered Clouds/
09/02/2008 09:50      13.0   3.0  13.5   4.0  51  1025   ---   ENE    23    23   ---   0.7 Scattered Clouds/
09/02/2008 10:50      14.0   4.0  14.5   5.5  51  1025   ---    NE    23    23   ---   0.7 Broken Clouds/
09/02/2008 11:50      14.0   4.0  14.5   4.9  51  1025   ---   ENE    26    26   ---   0.7 Broken Clouds/
09/02/2008 12:50      14.0   4.0  14.5   7.2  51  1025   ---     E    16    16   ---   0.7 Broken Clouds/
09/02/2008 13:50      13.0   5.0  13.9   2.6  58  1024   ---    NE    31    31   ---   0.7 Broken Clouds/
09/02/2008 14:50      13.0   5.0  13.9   4.4  58  1025   ---   NNE    21    21   ---   0.8 Scattered Clouds/
09/02/2008 15:50      13.0   5.0  13.9   4.4  58  1025   ---   NNE    21    21   ---   0.8 Scattered Clouds/
09/02/2008 16:50      13.0   3.0  13.5   3.1  51  1025   ---   NNE    27    27   ---   0.8 Scattered Clouds/
09/02/2008 17:50      13.0   4.0  13.7   2.6  54  1025   ---   NNE    31    31   ---   0.8 Scattered Clouds/
09/02/2008 18:50      13.0   3.0  13.5   2.9  51  1025   ---    NE    29    29   ---   0.7 Scattered Clouds/
09/02/2008 19:50      13.0   3.0  13.5   2.9  51  1025   ---    NE    29    29   ---   0.7 Scattered Clouds/
09/02/2008 20:50      12.0   4.0  12.9   1.6  58  1025   ---    NE    27    27   ---   0.7 Scattered Clouds/
09/02/2008 21:50      13.0   4.0  13.7   4.0  54  1026   ---   NNE    23    23   ---   0.7 Scattered Clouds/
09/02/2008 22:50      13.0   4.0  13.7   3.4  54  1025   ---   NNE    26    26   ---   0.7 Scattered Clouds/
09/02/2008 23:50      12.0   4.0  12.9   1.1  58  1025   ---     N    31    31   ---   0.7 Scattered Clouds/
10/02/2008 00:50      13.0   4.0  13.7   4.4  54  1025   ---   NNE    21    21   ---   0.7 Broken Clouds/
10/02/2008 01:50      13.0   4.0  13.7   4.4  54  1025   ---   NNE    21    21   ---   0.7 Scattered Clouds/
10/02/2008 02:50      10.0   3.0  11.1   1.4  62  1025   ---     E    18    18   ---   0.9 Few Clouds/
10/02/2008 03:50      10.0   2.0  10.9   2.7  58  1025   ---   ENE    14    14   ---   0.9 Scattered Clouds/
10/02/2008 04:50      10.0   2.0  10.9   5.3  58  1025   ---   ENE    10    10   ---   0.9 Scattered Clouds/
10/02/2008 05:50      11.0   4.0  12.1   6.5  62  1025   ---   WNW    10    10   ---   0.9 Scattered Clouds/
10/02/2008 06:50      11.0   4.0  12.1   1.9  62  1025   ---    NE    19    19   ---   0.7 Scattered Clouds/
10/02/2008 07:50      12.0   4.0  12.9   1.6  58  1025   ---    NE    27    27   ---   0.7 Scattered Clouds/
10/02/2008 08:20      12.0   2.0  12.5   2.6  50  1025   ---    NE    23    23   ---   0.7 Scattered Clouds/
10/02/2008 09:50      13.0   3.0  13.5   4.4  51  1026   ---   NNE    21    21   ---   0.7 Broken Clouds/
10/02/2008 10:50      12.0   3.0  12.7   3.3  54  1026   ---     N    19    19   ---   0.7 Broken Clouds/
10/02/2008 11:50      13.0   3.0  13.5   4.8  51  1026   ---   NNE    19    19   ---   0.6 Broken Clouds/
10/02/2008 12:50      13.0   3.0  13.5   4.4  51  1025   ---   NNE    21    21   ---   0.7 Broken Clouds/
10/02/2008 13:50      12.0   3.0  12.7   1.9  54  1025   ---   NNE    26    26   ---   0.7 Broken Clouds/
10/02/2008 14:50      12.0   3.0  12.7   3.0  54  1025   ---   ENE    21    21   ---   0.7 Broken Clouds/
10/02/2008 15:50      12.0   3.0  12.7   4.5  54  1025   ---   ENE    16    16   ---   0.7 Scattered Clouds/
10/02/2008 16:50      12.0   3.0  12.7   4.5  54  1025   ---    NE    16    16   ---   0.7 Scattered Clouds/
10/02/2008 17:50      11.0   3.0  11.9   6.5  58  1025   ---    NE    10    10   ---   0.7 Scattered Clouds/
10/02/2008 18:50      10.0   3.0  11.1  -1.4  62  1026   ---     E    27    27   ---   0.7 Scattered Clouds/
10/02/2008 19:50      10.0   3.0  11.1   5.3  62  1026   ---   ENE    10    10   ---   0.7 Scattered Clouds/
10/02/2008 20:50      11.0   3.0  11.9   4.0  58  1026   ---     E    14    14   ---   0.7 Broken Clouds/
10/02/2008 21:50       9.0   3.0  10.4   9.0  66  1026   ---     N     3     3   ---   0.7 Scattered Clouds/
10/02/2008 22:50      10.0   3.0  11.1  10.0  62  1026   ---     N     5     5   ---   0.7 Scattered Clouds/
10/02/2008 23:50       8.0   4.0  10.0   2.9  76  1026   ---   SSE    10    10   ---   0.7 Scattered Clouds/
11/02/2008 00:50       8.0   4.0  10.0   2.9  76  1026   ---     S    10    10   ---   0.7 Scattered Clouds/
11/02/2008 01:50       9.0   4.0  10.7   4.1  71  1026   ---     S    10    10   ---   0.8 Scattered Clouds/
11/02/2008 02:50      10.0   5.0  11.7   5.3  71  1026   ---   WSW    10    10   ---   0.8 Broken Clouds/
11/02/2008 03:50       9.0   4.0  10.7   2.3  71  1025   ---     S    13    13   ---   0.8 Broken Clouds/
11/02/2008 04:50       9.0   4.0  10.7   2.3  71  1025   ---   SSE    13    13   ---   0.8 Broken Clouds/
11/02/2008 05:50       9.0   4.0  10.7   9.0  71  1025   ---     N     3     3   ---   0.8 Broken Clouds/
11/02/2008 06:50       9.0   4.0  10.7   1.4  71  1024   ---     E    14    14   ---   0.7 Broken Clouds/
11/02/2008 07:50       9.0   4.0  10.7   6.8  71  1025   ---   SSE     6     6   ---   0.7 Scattered Clouds/
11/02/2008 08:50      10.0   5.0  11.7   6.2  71  1025   ---     S     8     8   ---   0.9 Scattered Clouds/
11/02/2008 09:50      11.0   5.0  12.4   9.0  66  1025   ---     S     6     6   ---   0.9 Scattered Clouds/
11/02/2008 10:50      11.0   5.0  12.4   7.3  66  1026   ---   WSW     8     8   ---   0.9 Scattered Clouds/
11/02/2008 11:50      11.0   4.0  12.1  11.0  62  1026   ---     N     3     3   ---   0.9 Scattered Clouds/
11/02/2008 12:50      12.0   4.0  12.9  12.0  58  1025   ---     N     3     3   ---   0.9 Scattered Clouds/
11/02/2008 13:50      12.0   4.0  12.9   7.7  58  1025   ---   NNE    10    10   ---   0.7 Scattered Clouds/
11/02/2008 14:50      13.0   4.0  13.7   5.5  54  1024   ---    NE    18    18   ---   0.7 Scattered Clouds/
11/02/2008 15:50      13.0   3.0  13.5   5.5  51  1025   ---   ENE    18    18   ---   0.7 Scattered Clouds/
11/02/2008 16:50      12.0   3.0  12.7   3.3  54  1025   ---   ENE    19    19   ---   0.7 Scattered Clouds/
11/02/2008 17:50      11.0   3.0  11.9   2.7  58  1025   ---     E    18    18   ---   0.7 Scattered Clouds/
11/02/2008 18:50      11.0   3.0  11.9   2.7  58  1026   ---     E    18    18   ---   0.7 Scattered Clouds/
11/02/2008 19:50      10.0   3.0  11.1   2.7  62  1026   ---     E    14    14   ---   0.7 Scattered Clouds/
11/02/2008 20:50      10.0   3.0  11.1   3.6  62  1026   ---     E    13    13   ---   0.7 Scattered Clouds/
11/02/2008 21:50      11.0   3.0  11.9  11.0  58  1026   ---     N     5     5   ---   0.7 Scattered Clouds/
11/02/2008 22:50      10.0   2.0  10.9   7.9  58  1026   ---   ESE     6     6   ---   0.7 Scattered Clouds/
11/02/2008 23:50      10.0   2.0  10.9   7.9  58  1027   ---   SSE     6     6   ---   0.7 Scattered Clouds/
12/02/2008 00:50       8.0   2.0   9.4   3.8  66  1026   ---     S     8     8   ---   0.7 Scattered Clouds/
12/02/2008 01:50       7.0   1.0   8.4   7.0  66  1026   ---     N     2     2   ---   0.7 Scattered Clouds/
12/02/2008 02:50       7.0   2.0   8.7   7.0  70  1026   ---     N     5     5   ---   0.7 Scattered Clouds/
12/02/2008 03:50       6.0   1.0   7.7   1.5  70  1026   ---     S     8     8   ---   0.8 Few Clouds/
12/02/2008 04:50       6.0   1.0   7.7   1.5  70  1026   ---     S     8     8   ---   0.8 Few Clouds/
12/02/2008 05:50       6.0   1.0   7.7   3.5  70  1026   ---     S     6     6   ---   0.8 Few Clouds/
12/02/2008 06:50       6.0   1.0   7.7   0.5  70  1027   ---   SSE    10    10   ---   0.8 Few Clouds/
12/02/2008 07:50       6.0   1.0   7.7   1.5  70  1027   ---   SSE     8     8   ---   0.7 Few Clouds/
12/02/2008 08:50       9.0   4.0  10.7   6.8  71  1027   ---     S     6     6   ---   0.7 Few Clouds/
12/02/2008 09:50      11.0   3.0  11.9   7.3  58  1027   ---    SW     8     8   ---   0.7 Few Clouds/
12/02/2008 10:50      12.0   3.0  12.7   8.5  54  1028   ---   WSW     8     8   ---   0.7 Scattered Clouds/
12/02/2008 11:50      12.0   4.0  12.9  10.1  58  1028   ---   NNW     6     6   ---   0.7 Few Clouds/
12/02/2008 12:50      12.0   4.0  12.9  10.1  58  1027   ---   NNW     6     6   ---   0.7 Few Clouds/
12/02/2008 13:50      13.0   5.0  13.9   8.9  58  1027   ---     N    10    10   ---   0.7 Few Clouds/
12/02/2008 14:50      13.0   4.0  13.7   5.8  54  1026   ---    NE    16    16   ---   0.7 Few Clouds/
12/02/2008 15:50      13.0   2.0  13.3   5.8  47  1026   ---   ENE    16    16   ---   0.7 Few Clouds/
12/02/2008 16:50      13.0   3.0  13.5   5.5  51  1026   ---   ENE    18    18   ---   0.7 Few Clouds/
12/02/2008 17:50      11.0   4.0  12.1   4.0  62  1027   ---   ENE    14    14   ---   0.7 Few Clouds/
12/02/2008 18:50      11.0   2.0  11.6   4.0  54  1027   ---     E    14    14   ---   0.7 Few Clouds/
12/02/2008 19:50      11.0   2.0  11.6  11.0  54  1027   ---     N     2     2   ---   0.7 Few Clouds/
12/02/2008 20:50       9.0   2.0  10.1   9.0  62  1028   ---     N     3     3   ---   0.7 Few Clouds/
12/02/2008 21:50       9.0   3.0  10.4   6.8  66  1028   ---     N     6     6   ---   0.7 Few Clouds/
12/02/2008 22:50       8.0   2.0   9.4   8.0  66  1028   ---     N     5     5   ---   0.7 Few Clouds/
12/02/2008 23:50       8.0   2.0   9.4   8.0  66  1028   ---     N     5     5   ---   0.7 Few Clouds/
13/02/2008 00:50       8.0   2.0   9.4   3.8  66  1028   ---   SSE     8     8   ---   0.7 Few Clouds/
13/02/2008 01:50       8.0   2.0   9.4   5.7  66  1028   ---   SSE     6     6   ---   0.7 Few Clouds/
13/02/2008 02:50       8.0   2.0   9.4   5.7  66  1029   ---   SSE     6     6   ---   0.7 Few Clouds/
13/02/2008 03:50       7.0   1.0   8.4   4.6  66  1029   ---     S     6     6   ---   0.7 Few Clouds/
13/02/2008 04:50       7.0   2.0   8.7   2.7  70  1029   ---    SE     8     8   ---   0.7 Few Clouds/
13/02/2008 05:50       7.0   2.0   8.7   1.7  70  1029   ---     S    10    10   ---   0.7 Scattered Clouds/
13/02/2008 06:50       7.0   2.0   8.7   7.0  70  1030   ---     N     5     5   ---   0.7 Scattered Clouds/
13/02/2008 07:50       9.0   4.0  10.7   6.8  71  1030   ---   ESE     6     6   ---   0.8 Scattered Clouds/
13/02/2008 08:50       8.0   4.0  10.0   3.8  76  1031   ---     S     8     8   ---   0.8 Scattered Clouds/
13/02/2008 09:50      11.0   5.0  12.4  11.0  66  1031   ---   WNW     5     5   ---   0.8 Few Clouds/
13/02/2008 10:20      11.0   4.0  12.1  11.0  62  1031   ---     N     5     5   ---   0.8 Few Clouds/
13/02/2008 10:50      12.0   4.0  12.9  12.0  58  1031   ---     N     3     3   ---   0.7 Few Clouds/
13/02/2008 12:50      13.0   6.0  14.2   6.6  62  1031   ---     N    14    14   ---   0.7 Few Clouds/
13/02/2008 13:50      13.0   5.0  13.9   5.8  58  1030   ---   NNE    16    16   ---   0.7 Few Clouds/
13/02/2008 14:50      13.0   5.0  13.9   5.8  58  1030   ---    NE    16    16   ---   0.7 Few Clouds/
13/02/2008 15:50      13.0   5.0  13.9   5.5  58  1030   ---    NE    18    18   ---   0.7 Few Clouds/
13/02/2008 16:50      13.0   4.0  13.7   5.5  54  1030   ---    NE    18    18   ---   0.7 Few Clouds/
13/02/2008 17:50      12.0   3.0  12.7   3.3  54  1030   ---   ENE    19    19   ---   0.7 Few Clouds/
13/02/2008 18:50      11.0   3.0  11.9   1.9  58  1031   ---     E    19    19   ---   0.7 Few Clouds/
13/02/2008 19:50      10.0   3.0  11.1   3.6  62  1031   ---     E    13    13   ---   0.7 Few Clouds/
13/02/2008 20:20      10.0   3.0  11.1   7.9  62  1032   ---    SE     6     6   ---   0.7 Few Clouds/
13/02/2008 21:50      10.0   2.0  10.9  10.0  58  1032   ---     N     5     5   ---   0.7 Few Clouds/
13/02/2008 22:50       8.0   1.0   9.1   8.0  61  1032   ---     N     5     5   ---   0.7 Few Clouds/
13/02/2008 23:20       7.0   2.0   8.7  -0.2  70  1032   ---     S    13    13   ---   0.7 Few Clouds/
14/02/2008 00:50       6.0   2.0   8.0   6.0  75  1032   ---     N     3     3   ---   0.7 Few Clouds/
14/02/2008 01:50       7.0   2.0   8.7   4.6  70  1032   ---   SSE     6     6   ---   0.7 Few Clouds/
14/02/2008 02:50       7.0   2.0   8.7   7.0  70  1032   ---     N     5     5   ---   0.7 Few Clouds/
14/02/2008 03:50       7.0   2.0   8.7   4.6  70  1032   ---     S     6     6   ---   0.7 Few Clouds/
14/02/2008 04:50       7.0   2.0   8.7   4.6  70  1032   ---     S     6     6   ---   0.7 Few Clouds/
14/02/2008 05:50       6.0   1.0   7.7   1.5  70  1032   ---     S     8     8   ---   0.7 Few Clouds/
14/02/2008 06:50       8.0   3.0   9.7   5.7  71  1032   ---     S     6     6   ---   0.7 Few Clouds/
14/02/2008 07:20       8.0   2.0   9.4   8.0  66  1033   ---   ESE     5     5   ---   --- /
14/02/2008 08:50       9.0   4.0  10.7   9.0  71  1033   ---     N     3     3   ---   --- /
14/02/2008 09:20      11.0   5.0  12.4  11.0  66  1033   ---     N     2     2   ---   --- /
14/02/2008 10:50      13.0   4.0  13.7  11.2  54  1033   ---     N     6     6   ---   --- /
14/02/2008 11:20      13.0   4.0  13.7  11.2  54  1033   ---     N     6     6   ---   0.8 Few Clouds/
14/02/2008 12:50      13.0   4.0  13.7   8.9  54  1032   ---   NNE    10    10   ---   --- /
14/02/2008 13:50      14.0   3.0  14.3   8.0  47  1032   ---    NE    14    14   ---   0.8 Few Clouds/
14/02/2008 14:50      14.0   3.0  14.3   6.9  47  1031   ---    NE    18    18   ---   0.8 Few Clouds/
14/02/2008 15:50      14.0   3.0  14.3   6.9  47  1030   ---    NE    18    18   ---   0.8 Few Clouds/
14/02/2008 16:50      13.0   4.0  13.7   5.5  54  1030   ---   ENE    18    18   ---   0.8 Few Clouds/
14/02/2008 17:50      12.0   5.0  13.1   5.3  62  1031   ---   ENE    14    14   ---   0.8 Few Clouds/
14/02/2008 18:50      11.0   4.0  12.1   4.9  62  1031   ---     E    13    13   ---   0.8 Scattered Clouds/
14/02/2008 19:50      12.0   3.0  12.7  10.1  54  1031   ---    SE     6     6   ---   0.8 Scattered Clouds/
14/02/2008 20:50      11.0   3.0  11.9   6.5  58  1031   ---   SSE    10    10   ---   0.8 Scattered Clouds/
14/02/2008 21:50      10.0   3.0  11.1   2.7  62  1031   ---   SSE    14    14   ---   0.8 Scattered Clouds/
14/02/2008 22:50      10.0   4.0  11.4   3.6  66  1030   ---   SSE    13    13   ---   0.8 Scattered Clouds/
14/02/2008 23:50       9.0   4.0  10.7   4.1  71  1030   ---   SSE    10    10   ---   0.8 Scattered Clouds/
15/02/2008 00:50      10.0   4.0  11.4   6.2  66  1029   ---   SSE     8     8   ---   0.8 Few Clouds/
15/02/2008 01:50      10.0   4.0  11.4  10.0  66  1029   ---     N     2     2   ---   0.8 Few Clouds/
15/02/2008 02:50      10.0   5.0  11.7  10.0  71  1029   ---     N     2     2   ---   0.8 Few Clouds/
15/02/2008 03:50      10.0   4.0  11.4  10.0  66  1028   ---     N     5     5   ---   0.8 Few Clouds/
15/02/2008 04:50      10.0   4.0  11.4  10.0  66  1028   ---     N     5     5   ---   0.8 Few Clouds/
15/02/2008 05:50      10.0   4.0  11.4  10.0  66  1027   ---     E     3     3   ---   0.8 Few Clouds/
15/02/2008 06:50      10.0   4.0  11.4  10.0  66  1027   ---     E     3     3   ---   0.8 Scattered Clouds/
15/02/2008 07:50      11.0   6.0  12.7   3.1  71  1026   ---   SSE    16    16   ---   0.7 Overcast/
15/02/2008 09:50      12.0   7.0  13.7  12.0  71  1026   ---     N     5     5   ---   0.7 Overcast/
15/02/2008 10:20      12.0   7.0  13.7  10.1  71  1026   ---   ENE     6     6   ---   0.7 Overcast/
15/02/2008 11:50      12.0   7.0  13.7  10.1  71  1025   ---   ENE     6     6   ---   0.7 Overcast/
15/02/2008 12:50      12.0   7.0  13.7  12.0  71  1025   ---     N     3     3   ---   0.7 Overcast/
15/02/2008 13:50      12.0   8.0  14.1  12.0  77  1024   ---     N     2     2   ---   0.1 Overcast/
15/02/2008 14:50      11.0   8.0  13.5   6.5  82  1023   ---    NE    10    10   ---   0.4 Overcast/
15/02/2008 15:50      11.0   9.0  13.9   2.7  87  1022   ---   ENE    18    18   ---   0.5 Overcast/
15/02/2008 17:50      11.0   8.0  13.5   1.9  82  1021   ---   ENE    19    19   ---   0.3 Broken Clouds/
15/02/2008 18:50      11.0   8.0  13.5   6.5  82  1023   ---    NE    10    10   ---   0.3 Broken Clouds/
15/02/2008 19:50      12.0   7.0  13.7   4.1  71  1021   ---   ENE    18    18   ---   0.6 Broken Clouds/
15/02/2008 20:50      12.0   7.0  13.7   7.7  71  1021   ---   ENE    10    10   ---   0.6 Broken Clouds/
15/02/2008 21:50      11.0   7.0  13.1  11.0  76  1021   ---     N     5     5   ---   0.6 Broken Clouds/
15/02/2008 22:50      10.0   7.0  12.5   6.2  82  1021   ---   ENE     8     8   ---   --- Overcast/ Light Rain
15/02/2008 23:50      11.0   5.0  12.4   4.0  66  1020   ---     E    14    14   ---   0.6 Broken Clouds/
16/02/2008 00:50      12.0   5.0  13.1   3.0  62  1021   ---     E    21    21   ---   0.6 Broken Clouds/
16/02/2008 01:50      11.0   6.0  12.7   1.5  71  1020   ---   ENE    21    21   ---   0.6 Broken Clouds/
16/02/2008 02:50      12.0   6.0  13.4   1.6  67  1020   ---   ENE    27    27   ---   0.6 Broken Clouds/
16/02/2008 03:50      12.0   5.0  13.1   0.7  62  1020   ---   ENE    34    34   ---   0.7 Scattered Clouds/
16/02/2008 04:50      12.0   5.0  13.1   0.8  62  1021   ---    NE    32    32   ---   0.7 Scattered Clouds/
16/02/2008 05:50      12.0   5.0  13.1   1.4  62  1021   ---   ENE    29    29   ---   0.7 Scattered Clouds/
16/02/2008 06:50      12.0   5.0  13.1   1.1  62  1022   ---    NE    31    31   ---   0.8 Scattered Clouds/
16/02/2008 07:50      12.0   5.0  13.1  -0.1  62  1022   ---    NE    42    42   ---   0.8 Scattered Clouds/
16/02/2008 08:50      12.0   5.0  13.1   3.0  62  1023   ---    NE    21    21   ---   0.8 Scattered Clouds/
16/02/2008 09:50      12.0   3.0  12.7   0.3  54  1024   ---    NE    37    37   ---   0.9 Scattered Clouds/
16/02/2008 10:50      13.0   2.0  13.3   2.2  47  1024   ---    NE    34    34   ---   0.7 Few Clouds/
16/02/2008 11:50      14.0   3.0  14.3   3.9  47  1025   ---    NE    32    32   ---   0.7 Scattered Clouds/
16/02/2008 12:50      13.0   5.0  13.9   1.4  58  1025   ---    NE    43    43   ---   0.7 Scattered Clouds/
16/02/2008 13:50      12.0   3.0  12.7  -0.2  54  1026   ---    NE    43    43   ---   0.7 Scattered Clouds/
16/02/2008 14:50      11.0   2.0  11.6  -1.5  54  1026   ---    NE    40    40   ---   0.7 Few Clouds/
16/02/2008 15:50      11.0   0.0  11.3  -0.8  47  1026   ---    NE    34    34   ---   0.7 Few Clouds/
16/02/2008 16:50      10.0  -1.0  10.3  -2.8  46  1027   ---   ENE    37    37   ---   --- /
16/02/2008 17:50      10.0  -3.0  10.0  -2.2  40  1028   ---    NE    32    32   ---   --- /
16/02/2008 18:50      10.0  -2.0  10.1  -2.9  43  1028   ---    NE    39    39   ---   --- /
16/02/2008 19:50      10.0  -1.0  10.3  -3.2  46  1029   ---    NE    42    42   ---   --- /
16/02/2008 20:50       9.0  -3.0   9.1  -4.8  43  1030   ---    NE    42    42   ---   0.7 Few Clouds/
16/02/2008 21:50       9.0  -2.0   9.2  -5.2  46  1030   ---    NE    47    47   ---   0.7 Few Clouds/
16/02/2008 22:50       8.0  -3.0   8.2  -6.8  46  1031   ---   ENE    47    47   ---   0.7 Few Clouds/
16/02/2008 23:50       8.0  -3.0   8.2  -7.2  46  1032   ---    NE    51    51   ---   0.7 Scattered Clouds/
17/02/2008 00:50       8.0  -2.0   8.4  -6.8  49  1032   ---    NE    47    47   ---   0.7 Scattered Clouds/
17/02/2008 01:50       7.0  -5.0   7.1  -8.1  42  1033   ---   ENE    43    43   ---   0.7 Scattered Clouds/
17/02/2008 02:50       8.0  -3.0   8.2  -6.6  46  1033   ---   ENE    43    43   ---   0.7 Scattered Clouds/
17/02/2008 03:50       7.0  -4.0   7.2  -8.1  45  1033   ---   ENE    43    43   ---   0.7 Scattered Clouds/
17/02/2008 04:50       7.0  -4.0   7.2  -7.9  45  1033   ---    NE    42    42   ---   0.7 Scattered Clouds/
17/02/2008 05:50       7.0  -5.0   7.1  -8.4  42  1034   ---   ENE    47    47   ---   0.7 Scattered Clouds/
17/02/2008 06:50       7.0  -4.0   7.2  -8.3  45  1034   ---   ENE    45    45   ---   0.7 Scattered Clouds/
17/02/2008 07:50       6.0  -6.0   6.0  -9.4  42  1035   ---   ENE    40    40   ---   0.7 Scattered Clouds/
17/02/2008 08:50       7.0  -4.0   7.2  -7.9  45  1036   ---   ENE    42    42   ---   0.7 Scattered Clouds/
17/02/2008 09:50       7.0  -6.0   6.9  -7.8  39  1036   ---   ENE    40    40   ---   0.7 Scattered Clouds/
17/02/2008 10:50       8.0  -5.0   7.9  -6.3  39  1037   ---    NE    40    40   ---   0.7 Scattered Clouds/
17/02/2008 11:50       8.0  -4.0   8.1  -5.3  42  1037   ---   ENE    32    32   ---   0.7 Scattered Clouds/
17/02/2008 12:50       8.0  -4.0   8.1  -5.3  42  1037   ---   ENE    32    32   ---   0.7 Scattered Clouds/
17/02/2008 13:50       8.0  -2.0   8.4  -5.0  49  1037   ---    NE    31    31   ---   0.7 Scattered Clouds/
17/02/2008 14:50       8.0  -4.0   8.1  -5.0  42  1037   ---    NE    31    31   ---   0.7 Scattered Clouds/
17/02/2008 15:50       8.0  -2.0   8.4  -4.6  49  1037   ---    NE    29    29   ---   0.7 Scattered Clouds/
17/02/2008 16:50       7.0  -2.0   7.6  -6.1  53  1037   ---    NE    29    29   ---   0.7 Scattered Clouds/
17/02/2008 17:50       7.0  -3.0   7.4  -6.8  49  1037   ---    NE    32    32   ---   0.7 Scattered Clouds/
17/02/2008 18:50       6.0  -5.0   6.2  -8.4  45  1037   ---    NE    32    32   ---   0.7 Scattered Clouds/
17/02/2008 19:50       6.0  -5.0   6.2  -7.6  45  1038   ---   ENE    29    29   ---   0.7 Scattered Clouds/
17/02/2008 20:50       7.0  -4.0   7.2  -6.5  45  1037   ---   ENE    31    31   ---   0.7 Scattered Clouds/
17/02/2008 21:50       7.0  -4.0   7.2  -6.1  45  1037   ---   ENE    29    29   ---   0.7 Scattered Clouds/
17/02/2008 22:50       7.0  -4.0   7.2  -6.5  45  1037   ---   ENE    31    31   ---   0.7 Scattered Clouds/
17/02/2008 23:50       7.0  -5.0   7.1  -6.1  42  1036   ---   ENE    29    29   ---   0.7 Scattered Clouds/
18/02/2008 00:50       7.0  -4.0   7.2  -6.5  45  1036   ---    NE    31    31   ---   0.7 Scattered Clouds/
18/02/2008 01:50       7.0  -4.0   7.2  -5.9  45  1036   ---   ENE    27    27   ---   0.7 Scattered Clouds/
18/02/2008 02:50       6.0  -4.0   6.4  -3.7  49  1036   ---   ENE    16    16   ---   0.7 Scattered Clouds/
18/02/2008 03:50       6.0  -3.0   6.6  -1.5  52  1035   ---     E    13    13   ---   0.7 Scattered Clouds/
18/02/2008 04:50       6.0  -3.0   6.6   1.5  52  1035   ---     E     8     8   ---   0.7 Scattered Clouds/
18/02/2008 05:50       7.0  -3.0   7.4   2.7  49  1035   ---     E     8     8   ---   0.7 Scattered Clouds/
18/02/2008 06:50       6.0  -3.0   6.6   3.5  52  1035   ---    SE     6     6   ---   0.7 Scattered Clouds/
18/02/2008 07:50       6.0  -3.0   6.6   3.5  52  1035   ---   ESE     6     6   ---   0.7 Scattered Clouds/
18/02/2008 08:50       9.0  -2.0   9.2   6.8  46  1035   ---     E     6     6   ---   0.7 Scattered Clouds/
18/02/2008 09:50       9.0   0.0   9.6   5.0  53  1035   ---     W     8     8   ---   0.7 Scattered Clouds/
18/02/2008 10:50      10.0   0.0  10.4  10.0  50  1035   ---     N     2     2   ---   0.7 Scattered Clouds/
18/02/2008 11:50      10.0   0.0  10.4  10.0  50  1035   ---     N     5     5   ---   1.2 Scattered Clouds/
18/02/2008 12:50      10.0  -1.0  10.3   5.3  46  1034   ---   NNE    10    10   ---   1.2 Scattered Clouds/
18/02/2008 13:50      10.0  -1.0  10.3   5.3  46  1034   ---   NNE    10    10   ---   1.0 Scattered Clouds/
18/02/2008 14:50      10.0  -2.0  10.1   2.7  43  1033   ---   NNE    14    14   ---   1.0 Scattered Clouds/
18/02/2008 15:50      10.0   0.0  10.4   1.8  50  1032   ---   NNE    16    16   ---   1.0 Few Clouds/
18/02/2008 16:50      10.0   0.0  10.4   1.8  50  1032   ---   NNE    16    16   ---   --- /
18/02/2008 17:50       9.0  -1.0   9.4   2.3  50  1032   ---    NE    13    13   ---   --- /
18/02/2008 18:50       7.0   0.0   8.1  -0.2  61  1032   ---     E    13    13   ---   --- /
18/02/2008 20:50       7.0  -1.0   7.8  -0.2  57  1032   ---     E    13    13   ---   --- /
18/02/2008 21:50       7.0  -1.0   7.8  -0.2  57  1032   ---     E    13    13   ---   --- /
18/02/2008 22:50       7.0  -1.0   7.8   4.6  57  1032   ---   SSE     6     6   ---   --- /
18/02/2008 23:50       6.0  -2.0   6.8   6.0  56  1032   ---     N     3     3   ---   --- /
19/02/2008 00:50       6.0  -2.0   6.8   6.0  56  1031   ---     N     5     5   ---   --- /
19/02/2008 01:50       5.0  -2.0   6.0   5.0  61  1031   ---     N     5     5   ---   --- /
19/02/2008 02:50       4.0  -2.0   5.3  -4.1  65  1031   ---   SSE    13    13   ---   --- /
19/02/2008 03:50       3.0  -4.0   4.0  -3.1  60  1030   ---     S    10    10   ---   --- /
19/02/2008 04:50       3.0  -5.0   3.8  -5.3  56  1030   ---     S    13    13   ---   --- /
19/02/2008 05:50       3.0  -5.0   3.8   0.2  56  1030   ---   ESE     6     6   ---   --- /
19/02/2008 06:50       4.0  -4.0   4.8  -0.8  56  1030   ---   SSE     8     8   ---   --- /
19/02/2008 07:50       4.0  -3.0   5.0   1.3  60  1031   ---     S     6     6   ---   --- /
19/02/2008 08:20       4.0  -3.0   5.0   1.3  60  1031   ---   SSE     6     6   ---   --- /
19/02/2008 09:50      10.0  -1.0  10.3   2.7  46  1031   ---   SSW    14    14   ---   --- /
19/02/2008 10:50      11.0   1.0  11.4   4.9  50  1031   ---    SW    13    13   ---   --- /
19/02/2008 11:50      11.0   0.0  11.3   4.0  47  1031   ---   NNE    14    14   ---   --- /
19/02/2008 12:50      11.0   1.0  11.4   4.9  50  1030   ---    NE    13    13   ---   --- /
19/02/2008 13:50      11.0   2.0  11.6   3.1  54  1030   ---   NNE    16    16   ---   --- /
19/02/2008 14:50      12.0   2.0  12.5   3.0  50  1029   ---   ENE    21    21   ---   --- /
19/02/2008 15:50      12.0   3.0  12.7   3.3  54  1028   ---    NE    19    19   ---   --- /
19/02/2008 16:50      12.0   4.0  12.9   4.1  58  1028   ---   ENE    18    18   ---   --- /
19/02/2008 17:50      10.0   3.0  11.1   2.7  62  1028   ---     E    14    14   ---   --- /
19/02/2008 18:50      10.0   3.0  11.1   6.2  62  1029   ---     S     8     8   ---   --- /
19/02/2008 19:50       9.0   3.0  10.4   5.0  66  1029   ---     S     8     8   ---   --- /
19/02/2008 20:20       8.0   3.0   9.7   2.9  71  1029   ---     S    10    10   ---   --- /
19/02/2008 21:50      10.0   3.0  11.1   2.7  62  1030   ---   SSE    14    14   ---   --- /
19/02/2008 22:50       9.0   2.0  10.1   5.0  62  1029   ---    SE     8     8   ---   --- /
19/02/2008 23:50      10.0   2.0  10.9   5.3  58  1029   ---   ESE    10    10   ---   --- /
20/02/2008 00:50      10.0   3.0  11.1   6.2  62  1029   ---   ESE     8     8   ---   --- /
20/02/2008 01:50       8.0   2.0   9.4   3.8  66  1028   ---     E     8     8   ---   --- /
20/02/2008 02:50      10.0   2.0  10.9   6.2  58  1028   ---   ESE     8     8   ---   --- /
20/02/2008 03:50      11.0   2.0  11.6   7.3  54  1028   ---   SSE     8     8   ---   --- /
20/02/2008 04:50      10.0   1.0  10.6   3.6  54  1027   ---     E    13    13   ---   --- /
20/02/2008 05:50       8.0   1.0   9.1   8.0  61  1027   ---     N     5     5   ---   --- /
20/02/2008 06:50       9.0   2.0  10.1   6.8  62  1027   ---     E     6     6   ---   0.7 Few Clouds/
20/02/2008 07:50       9.0   2.0  10.1   4.1  62  1027   ---   ENE    10    10   ---   0.9 Scattered Clouds/
20/02/2008 08:20      11.0   2.0  11.6   6.5  54  1027   ---   ENE    10    10   ---   0.9 Broken Clouds/
20/02/2008 09:50      13.0   5.0  13.9  11.2  58  1027   ---   NNE     6     6   ---   0.9 Broken Clouds/
20/02/2008 10:50      16.0   2.0  15.9  14.4  39  1027   ---     S     6     6   ---   0.9 Broken Clouds/
20/02/2008 11:50      17.0   2.0  16.8  10.4  36  1027   ---     S    19    40   ---   0.9 Broken Clouds/
20/02/2008 12:50      17.0   3.0  16.9  11.0  39  1026   ---     S    18    18   ---   0.9 Broken Clouds/
20/02/2008 13:50      18.0   2.0  17.7  11.8  34  1025   ---     S    19    19   ---   0.9 Broken Clouds/
20/02/2008 14:50      18.0   1.0  17.6  10.8  32  1025   ---     S    26    53   ---   0.9 Broken Clouds/
20/02/2008 15:50      18.0   0.0  17.5  12.4  30  1024   ---     S    18    18   ---   0.9 Broken Clouds/
20/02/2008 16:50      17.0  -2.0  16.5   9.1  27  1024   ---     S    27    27   ---   0.9 Broken Clouds/
20/02/2008 17:50      16.0  -2.0  15.5   9.6  29  1025   ---     S    18    18   ---   0.8 Broken Clouds/
20/02/2008 18:50      16.0   0.0  15.7   9.9  34  1025   ---     S    16    16   ---   0.8 Broken Clouds/
20/02/2008 19:50      17.0  -2.0  16.5  10.1  27  1025   ---     S    21    21   ---   0.8 Broken Clouds/
20/02/2008 20:50      16.0   1.0  15.8   8.7  36  1025   ---   SSW    21    40   ---   0.8 Broken Clouds/
20/02/2008 21:50      16.0   3.0  16.0   7.8  42  1025   ---     S    26    45   ---   0.8 Broken Clouds/
20/02/2008 22:50      15.0   6.0  15.7   6.9  55  1026   ---     S    23    23   ---   0.8 Broken Clouds/
20/02/2008 23:50      16.0   4.0  16.2   6.5  45  1025   ---     S    37    55   ---   --- / Drizzle
21/02/2008 00:50      15.0   5.0  15.5   4.5  51  1025   ---     S    43    66   ---   0.8 Broken Clouds/
21/02/2008 01:50      15.0   5.0  15.5   5.9  51  1025   ---     S    29    29   ---   0.8 Broken Clouds/
21/02/2008 02:50      13.0   6.0  14.2   2.2  62  1025   ---   SSW    34    64   ---   --- Overcast/ Light Rain
21/02/2008 03:50      13.0   5.0  13.9   1.6  58  1025   ---     S    40    60   ---   0.7 Broken Clouds/
21/02/2008 04:50      15.0   2.0  15.0   5.3  41  1024   ---     S    34    53   ---   0.7 Broken Clouds/
21/02/2008 05:50      15.0   1.0  14.9   4.5  39  1024   ---     S    43    43   ---   0.7 Broken Clouds/
21/02/2008 06:50      15.0   1.0  14.9   4.7  39  1024   ---     S    40    40   ---   0.7 Broken Clouds/
21/02/2008 07:50      16.0   1.0  15.8   6.2  36  1025   ---     S    42    42   ---   0.7 Broken Clouds/
21/02/2008 08:50      16.0   4.0  16.2   6.9  45  1025   ---     S    34    34   ---   0.7 Broken Clouds/
21/02/2008 09:50      17.0   4.0  17.1   8.7  42  1025   ---     S    31    31   ---   0.7 Broken Clouds/
21/02/2008 10:20      17.0   5.0  17.2   9.1  45  1026   ---     S    27    47   ---   0.8 Broken Clouds/
21/02/2008 11:50      17.0   7.0  17.5   8.7  52  1025   ---     S    31    31   ---   0.8 Broken Clouds/
21/02/2008 12:50      18.0   6.0  18.2  10.2  45  1025   ---     S    31    31   ---   0.8 Broken Clouds/
21/02/2008 13:50      18.0   6.0  18.2  10.4  45  1025   ---   SSW    29    29   ---   0.8 Broken Clouds/
21/02/2008 14:20      18.0   4.0  17.9  10.2  39  1025   ---     S    31    31   ---   0.8 Broken Clouds/
21/02/2008 15:50      17.0   4.0  17.1  10.1  42  1025   ---   SSW    21    21   ---   0.8 Broken Clouds/
21/02/2008 16:50      16.0   5.0  16.3   8.7  48  1025   ---   SSW    21    21   ---   0.8 Broken Clouds/
21/02/2008 16:50      16.0   5.0  16.3   8.7  48  1025   ---   SSW    21    21   ---   0.8 Broken Clouds/None reported
21/02/2008 17:50      16.0   5.0  16.3   9.9  48  1025   ---     S    16    16   ---   0.8 Broken Clouds/
21/02/2008 18:50      15.0   4.0  15.3   8.2  48  1026   ---     S    18    18   ---   0.8 Broken Clouds/
21/02/2008 19:50      15.0   4.0  15.3   7.3  48  1026   ---     S    21    21   ---   0.8 Broken Clouds/
21/02/2008 20:50      15.0   5.0  15.5   8.2  51  1026   ---     S    18    18   ---   0.8 Broken Clouds/
21/02/2008 21:50      14.0   5.0  14.7  10.1  55  1026   ---   SSW    10    10   ---   0.8 Broken Clouds/
21/02/2008 22:50      14.0   7.0  15.2   7.2  63  1027   ---    SW    16    16   ---   0.8 Broken Clouds/
21/02/2008 23:50      14.0   6.0  14.9   5.5  59  1027   ---   SSE    23    23   ---   0.8 Broken Clouds/
22/02/2008 00:50      14.0   5.0  14.7   7.2  55  1027   ---     S    16    16   ---   0.8 Broken Clouds/
22/02/2008 01:50      15.0   7.0  15.9   7.3  59  1027   ---   SSW    21    21   ---   0.8 Broken Clouds/
22/02/2008 02:50      14.0   6.0  14.9   8.0  59  1026   ---   SSW    14    14   ---   0.7 Broken Clouds/
22/02/2008 03:50      14.0   6.0  14.9   7.2  59  1026   ---   SSW    16    16   ---   0.7 Broken Clouds/
22/02/2008 04:50      14.0   6.0  14.9   8.7  59  1026   ---    SW    13    13   ---   0.7 Broken Clouds/
22/02/2008 05:50      14.0   7.0  15.2   6.9  63  1027   ---   SSW    18    18   ---   0.7 Broken Clouds/
22/02/2008 06:50      14.0   7.0  15.2   7.2  63  1027   ---   SSE    16    16   ---   0.7 Broken Clouds/
22/02/2008 07:50      14.0   7.0  15.2   8.7  63  1027   ---     S    13    13   ---   0.8 Broken Clouds/
22/02/2008 08:50      15.0   7.0  15.9   9.3  59  1027   ---     S    14    14   ---   0.8 Broken Clouds/
22/02/2008 09:50      15.0   8.0  16.2   8.2  63  1028   ---   SSW    18    18   ---   0.8 Broken Clouds/
22/02/2008 10:20      15.0   9.0  16.5   9.3  67  1028   ---   SSW    14    14   ---   --- / Drizzle
22/02/2008 11:50      15.0  10.0  16.8  10.0  72  1028   ---   WSW    13    13   ---   0.8 Broken Clouds/
22/02/2008 12:50      15.0  11.0  17.1   9.3  77  1028   ---   WSW    14    14   ---   0.7 Broken Clouds/
22/02/2008 12:50      15.0  11.0  17.1   9.3  77  1028   ---   WSW    14    14   ---   0.7 Broken Clouds/None reported
22/02/2008 13:50      15.0  10.0  16.8   8.2  72  1027   ---     W    18    18   ---   0.7 Broken Clouds/
22/02/2008 14:50      14.0  11.0  16.5   8.0  82  1027   ---   SSW    14    14   ---   0.5 Broken Clouds/
22/02/2008 15:50      14.0  11.0  16.5  14.0  82  1027   ---     N     5     5   ---   0.5 Broken Clouds/
22/02/2008 16:50      14.0  11.0  16.5  14.0  82  1027   ---     N     3     3   ---   0.7 Broken Clouds/
22/02/2008 17:50      14.0  11.0  16.5   8.0  82  1027   ---   ENE    14    14   ---   0.7 Broken Clouds/
22/02/2008 18:50      13.0  11.0  15.9   5.8  88  1028   ---   ENE    16    16   ---   0.7 Broken Clouds/
22/02/2008 19:50      13.0  10.0  15.5  11.2  82  1028   ---     E     6     6   ---   0.7 Broken Clouds/
22/02/2008 20:50      13.0  10.0  15.5  11.2  82  1029   ---     E     6     6   ---   0.7 Broken Clouds/
22/02/2008 21:50      13.0  10.0  15.5  13.0  82  1029   ---   ESE     2     2   ---   0.7 Broken Clouds/
22/02/2008 22:50      13.0  10.0  15.5  13.0  82  1029   ---     S     3     3   ---   0.7 Broken Clouds/
22/02/2008 23:50      13.0  10.0  15.5  13.0  82  1029   ---     E     5     5   ---   --- / Drizzle
23/02/2008 00:50      12.0  10.0  14.9  12.0  88  1029   ---     E     5     5   ---   0.7 Broken Clouds/
23/02/2008 01:50      13.0  10.0  15.5  13.0  82  1029   ---   ENE     5     5   ---   0.7 Broken Clouds/
23/02/2008 02:50      12.0  10.0  14.9  12.0  88  1029   ---   ESE     5     5   ---   0.7 Broken Clouds/
23/02/2008 03:50      11.0   8.0  13.5  11.0  82  1029   ---   ESE     3     3   ---   0.7 Broken Clouds/
23/02/2008 04:50      11.0   8.0  13.5  11.0  82  1028   ---     N     3     3   ---   0.7 Few Clouds/
23/02/2008 05:50      11.0   8.0  13.5   9.0  82  1028   ---     S     6     6   ---   0.5 Few Clouds/
23/02/2008 06:50      10.0   8.0  12.9  10.0  87  1028   ---     N     3     3   ---   0.5 Few Clouds/
23/02/2008 07:50       9.0   7.0  11.9   9.0  87  1029   ---     N     5     5   ---   --- /
23/02/2008 08:50      12.0  10.0  14.9  12.0  88  1029   ---     N     3     3   ---   --- /
23/02/2008 09:50      13.0  11.0  15.9  13.0  88  1030   ---     N     5     5   ---   0.5 Scattered Clouds/
23/02/2008 10:50      14.0  11.0  16.5  10.1  82  1030   ---     N    10    10   ---   0.5 Broken Clouds/
23/02/2008 11:50      15.0  11.0  17.1   8.2  77  1030   ---   NNE    18    18   ---   0.5 Scattered Clouds/
23/02/2008 12:50      15.0  11.0  17.1   7.3  77  1030   ---    NE    21    21   ---   0.3 Few Clouds/
23/02/2008 13:50      15.0  11.0  17.1   7.3  77  1029   ---    NE    21    21   ---   0.4 Few Clouds/
23/02/2008 14:50      15.0  11.0  17.1   6.4  77  1028   ---    NE    26    26   ---   0.4 Few Clouds/
23/02/2008 15:50      15.0  10.0  16.8   6.4  72  1028   ---   ENE    26    26   ---   0.4 Few Clouds/
23/02/2008 16:50      15.0  10.0  16.8   6.4  72  1028   ---   ENE    26    26   ---   0.4 Few Clouds/
23/02/2008 17:50      14.0  10.0  16.1   5.5  77  1029   ---    NE    23    23   ---   0.4 Few Clouds/
23/02/2008 18:50      13.0  10.0  15.5   4.4  82  1029   ---    NE    21    21   ---   0.4 Few Clouds/
23/02/2008 19:50      13.0  10.0  15.5   4.0  82  1030   ---    NE    23    23   ---   0.4 Few Clouds/
23/02/2008 20:50      13.0  10.0  15.5   4.0  82  1030   ---    NE    23    23   ---   0.5 Few Clouds/
23/02/2008 21:50      12.0   9.0  14.5   4.1  82  1030   ---   ENE    18    18   ---   0.5 Few Clouds/
23/02/2008 22:50      12.0   9.0  14.5   5.3  82  1030   ---   ENE    14    14   ---   0.5 Few Clouds/
23/02/2008 23:50      12.0   9.0  14.5  12.0  82  1030   ---     N     5     5   ---   0.5 Few Clouds/
24/02/2008 00:50      11.0   8.0  13.5  11.0  82  1030   ---     N     3     3   ---   0.5 Few Clouds/
24/02/2008 01:50      11.0   8.0  13.5   7.3  82  1030   ---   ENE     8     8   ---   0.5 Few Clouds/
24/02/2008 02:50      12.0   8.0  14.1   3.3  77  1029   ---    NE    19    19   ---   0.5 Few Clouds/
24/02/2008 03:50      11.0   8.0  13.5   1.9  82  1029   ---   ENE    19    19   ---   0.5 Few Clouds/
24/02/2008 04:50       9.0   6.0  11.5   9.0  81  1029   ---     N     5     5   ---   0.6 Few Clouds/
24/02/2008 05:50      10.0   7.0  12.5   6.2  82  1030   ---     S     8     8   ---   0.6 Few Clouds/
24/02/2008 06:50      10.0   7.0  12.5  10.0  82  1030   ---     N     5     5   ---   0.5 Few Clouds/
24/02/2008 07:50      10.0   6.0  12.1  10.0  76  1030   ---     N     5     5   ---   --- /
24/02/2008 08:50      12.0   8.0  14.1  12.0  77  1030   ---     N     3     3   ---   --- /
24/02/2008 09:50      13.0   9.0  15.1   7.4  77  1030   ---     E    13    13   ---   --- /
24/02/2008 10:50      15.0  10.0  16.8   6.4  72  1030   ---    NE    26    26   ---   --- /
24/02/2008 11:50      15.0  10.0  16.8   5.9  72  1030   ---    NE    29    29   ---   --- /
24/02/2008 12:50      17.0   8.0  17.7  10.1  55  1030   ---   ENE    21    21   ---   --- /
24/02/2008 13:50      16.0  10.0  17.5   7.8  68  1029   ---    NE    26    26   ---   --- /
24/02/2008 14:50      16.0  10.0  17.5   8.7  68  1029   ---   ENE    21    21   ---   --- /
24/02/2008 15:50      16.0  10.0  17.5   9.6  68  1028   ---    NE    18    18   ---   --- /
24/02/2008 16:50      16.0  11.0  17.8  11.3  72  1028   ---    NE    13    13   ---   --- /
24/02/2008 17:50      15.0  11.0  17.1  13.3  77  1028   ---    SW     6     6   ---   --- /
24/02/2008 18:50      14.0  10.0  16.1   8.7  77  1029   ---   SSW    13    13   ---   --- /
24/02/2008 19:50      13.0  10.0  15.5   8.9  82  1029   ---    SW    10    10   ---   --- /
24/02/2008 20:50      12.0  10.0  14.9   7.7  88  1030   ---   SSW    10    10   ---   --- /
24/02/2008 21:50      11.0   9.0  13.9   9.0  87  1030   ---     S     6     6   ---   --- /
24/02/2008 22:50      12.0   9.0  14.5   4.5  82  1030   ---     N    16    16   ---   --- /
24/02/2008 23:50      12.0   8.0  14.1   8.5  77  1029   ---     S     8     8   ---   --- /
25/02/2008 00:50      11.0   8.0  13.5  11.0  82  1029   ---     N     5     5   ---   --- /
25/02/2008 01:50      11.0   8.0  13.5  11.0  82  1029   ---     N     0     0   ---   --- /
25/02/2008 02:50      11.0   8.0  13.5  11.0  82  1028   ---   ---     3     3   ---   --- /
25/02/2008 03:50      10.0   7.0  12.5  10.0  82  1028   ---     N     5     5   ---   --- /
25/02/2008 04:50      10.0   8.0  12.9   6.2  87  1028   ---   SSE     8     8   ---   --- /
25/02/2008 05:50      10.0   7.0  12.5  10.0  82  1028   ---     N     5     5   ---   --- /
25/02/2008 06:50      10.0   7.0  12.5  10.0  82  1028   ---     N     2     2   ---   --- /
25/02/2008 07:50      10.0   8.0  12.9  10.0  87  1028   ---     N     3     3   ---   --- /
25/02/2008 08:20      10.0   8.0  12.9   7.9  87  1028   ---     E     6     6   ---   --- /
25/02/2008 09:20      14.0   9.0  15.8  14.0  72  1028   ---     N     3     3   ---   --- /
25/02/2008 10:50      13.0   9.0  15.1   9.7  77  1028   ---     W     8     8   ---   --- /
25/02/2008 11:20      14.0  10.0  16.1  10.1  77  1028   ---   WNW    10    10   ---   --- /
25/02/2008 12:50      15.0  10.0  16.8  13.3  72  1027   ---     N     6     6   ---   --- /
25/02/2008 13:50      15.0  11.0  17.1   9.3  77  1026   ---   NNE    14    14   ---   --- /
25/02/2008 14:50      15.0  11.0  17.1   9.3  77  1026   ---   NNE    14    14   ---   --- /
25/02/2008 15:50      15.0  11.0  17.1   7.6  77  1025   ---    NE    19    19   ---   --- /
25/02/2008 16:50      15.0  11.0  17.1   7.6  77  1025   ---    NE    19    19   ---   0.4 Broken Clouds/
25/02/2008 17:50      14.0  11.0  16.5   6.9  82  1025   ---    NE    18    18   ---   0.4 Broken Clouds/
25/02/2008 18:50      14.0  10.0  16.1   7.2  77  1025   ---    NE    16    16   ---   0.4 Broken Clouds/
25/02/2008 19:50      14.0  11.0  16.5   8.7  82  1026   ---    NE    13    13   ---   0.4 Broken Clouds/
25/02/2008 20:20      13.0  10.0  15.5  11.2  82  1025   ---     E     6     6   ---   0.4 Broken Clouds/
25/02/2008 21:50      12.0  10.0  14.9  12.0  88  1025   ---     N     2     2   ---   0.4 Broken Clouds/
25/02/2008 22:50      11.0   9.0  13.9  11.0  87  1025   ---     N     5     5   ---   0.6 Few Clouds/
25/02/2008 23:50      11.0   8.0  13.5   9.0  82  1025   ---   ESE     6     6   ---   0.6 Few Clouds/
26/02/2008 00:50      11.0   9.0  13.9   7.3  87  1024   ---    SW     8     8   ---   0.6 Few Clouds/
26/02/2008 01:50      10.0   8.0  12.9   5.3  87  1024   ---   SSE    10    10   ---   0.6 Few Clouds/
26/02/2008 02:50      12.0   9.0  14.5   5.3  82  1024   ---    SW    14    14   ---   0.6 Few Clouds/
26/02/2008 03:50      12.0   8.0  14.1  12.0  77  1024   ---     N     5     5   ---   0.6 Few Clouds/
26/02/2008 04:50      11.0   7.0  13.1  11.0  76  1024   ---     N     3     3   ---   0.6 Few Clouds/
26/02/2008 05:50      11.0   7.0  13.1  11.0  76  1024   ---     N     0     0   ---   0.6 Few Clouds/
26/02/2008 06:50      11.0   8.0  13.5   6.5  82  1023   ---     E    10    10   ---   0.6 Few Clouds/
26/02/2008 07:50      10.0   8.0  12.9   5.3  87  1024   ---   SSW    10    10   ---   0.6 Few Clouds/
26/02/2008 08:50      12.0   8.0  14.1  12.0  77  1024   ---     N     5     5   ---   --- /
26/02/2008 09:50      14.0   7.0  15.2  12.3  63  1024   ---   WSW     6     6   ---   --- /
26/02/2008 10:50      14.0   8.0  15.5  12.3  67  1024   ---     W     6     6   ---   --- /
26/02/2008 11:50      15.0   8.0  16.2  15.0  63  1024   ---     N     5     5   ---   --- /
26/02/2008 12:50      16.0  11.0  17.8  12.5  72  1023   ---   NNE    10    10   ---   --- /
26/02/2008 13:50      16.0  11.0  17.8  12.5  72  1022   ---   NNE    10    10   ---   --- /
26/02/2008 14:50      17.0  10.0  18.2  14.3  63  1022   ---   NNE     8     8   ---   --- /
26/02/2008 15:50      16.0  12.0  18.1  13.2  77  1033   ---   NNE     8     8   ---   --- /
26/02/2008 16:50      15.0  11.0  17.1  13.3  77  1022   ---   NNE     6     6   ---   --- /
26/02/2008 17:50      15.0  10.0  16.8  15.0  72  1022   ---     N     0     0   ---   --- /
26/02/2008 18:50      14.0  11.0  16.5  14.0  82  1022   ---   ---     2     2   ---   --- /
26/02/2008 19:50      13.0   8.0  14.8  11.2  72  1022   ---     S     6     6   ---   --- /
26/02/2008 20:50      12.0   7.0  13.7   7.7  71  1022   ---     S    10    10   ---   0.7 Scattered Clouds/
26/02/2008 22:50      12.0   7.0  13.7   7.7  71  1022   ---     S    10    10   ---   0.7 Scattered Clouds/
26/02/2008 23:50      12.0   7.0  13.7   7.7  71  1022   ---     S    10    10   ---   0.5 Scattered Clouds/
27/02/2008 01:50      12.0   7.0  13.7   7.7  71  1022   ---     S    10    10   ---   0.5 Scattered Clouds/
27/02/2008 02:50      12.0   7.0  13.7   7.7  71  1022   ---     S    10    10   ---   0.5 Scattered Clouds/
27/02/2008 04:50      10.0   7.0  12.5   5.3  82  1021   ---     S    10    10   ---   0.5 Scattered Clouds/
27/02/2008 05:50      11.0   7.0  13.1  11.0  76  1021   ---     S     5     5   ---   0.5 Scattered Clouds/
27/02/2008 06:50      11.0   8.0  13.5  11.0  82  1021   ---    SE     5     5   ---   0.5 Broken Clouds/
27/02/2008 07:50      11.0   9.0  13.9  11.0  87  1021   ---    SE     5     5   ---   0.5 Broken Clouds/
27/02/2008 08:50      13.0  11.0  15.9  13.0  88  1022   ---     N     2     2   ---   0.6 Broken Clouds/
27/02/2008 09:50      15.0  11.0  17.1  13.3  77  1022   ---     N     6     6   ---   0.6 Broken Clouds/
27/02/2008 10:50      15.0  11.0  17.1  10.0  77  1022   ---   NNE    13    13   ---   0.5 Scattered Clouds/
27/02/2008 11:50      15.0  10.0  16.8   9.3  72  1022   ---    NE    14    14   ---   0.5 Few Clouds/
27/02/2008 12:50      15.0   9.0  16.5   7.6  67  1021   ---    NE    19    19   ---   0.6 Few Clouds/
27/02/2008 13:50      16.0   9.0  17.2   9.0  63  1021   ---    NE    19    19   ---   0.6 Few Clouds/
27/02/2008 14:50      16.0   8.0  16.9   8.4  59  1020   ---    NE    23    23   ---   --- /
27/02/2008 15:50      16.0   8.0  16.9   8.4  59  1020   ---    NE    23    23   ---   --- /
27/02/2008 16:50      15.0   9.0  16.5   6.9  67  1020   ---    NE    23    23   ---   --- /
27/02/2008 17:50      14.0   8.0  15.5   7.2  67  1020   ---    NE    16    16   ---   --- /
27/02/2008 18:50      14.0  10.0  16.1  10.1  77  1020   ---   NNE    10    10   ---   --- /
27/02/2008 19:50      14.0  10.0  16.1   8.7  77  1021   ---   NNE    13    13   ---   --- /
27/02/2008 20:50      12.0   9.0  14.5  12.0  82  1022   ---     N     5     5   ---   --- /
27/02/2008 21:20      12.0   8.0  14.1  10.1  77  1022   ---    SE     6     6   ---   --- /
27/02/2008 22:50      12.0   8.0  14.1  12.0  77  1022   ---     N     5     5   ---   --- /
27/02/2008 23:50      11.0   7.0  13.1  11.0  76  1022   ---     N     5     5   ---   --- /
28/02/2008 00:50      11.0   8.0  13.5  11.0  82  1021   ---     N     5     5   ---   --- /
28/02/2008 01:50      10.0   7.0  12.5   6.2  82  1021   ---    SW     8     8   ---   --- /
28/02/2008 02:50      10.0   7.0  12.5   5.3  82  1021   ---     S    10    10   ---   0.7 Few Clouds/
28/02/2008 03:50      10.0   8.0  12.9   7.9  87  1021   ---     S     6     6   ---   0.7 Few Clouds/
28/02/2008 04:50      11.0   8.0  13.5   7.3  82  1022   ---   SSE     8     8   ---   --- Clear/
28/02/2008 05:50      11.0   9.0  13.9   9.0  87  1022   ---   SSE     6     6   ---   --- Clear/
28/02/2008 06:50      11.0   8.0  13.5  11.0  82  1022   ---   SSE     3     3   ---   --- /
28/02/2008 07:50      11.0   8.0  13.5  11.0  82  1022   ---     N     2     2   ---   --- /
28/02/2008 08:50      13.0   9.0  15.1  13.0  77  1023   ---     N     5     5   ---   0.4 Broken Clouds/
28/02/2008 09:50      14.0  10.0  16.1  14.0  77  1023   ---     N     3     3   ---   0.4 Few Clouds/
28/02/2008 10:50      15.0  10.0  16.8  13.3  72  1024   ---     N     6     6   ---   0.4 Few Clouds/
28/02/2008 11:50      15.0  10.0  16.8  13.3  72  1024   ---     N     6     6   ---   0.4 Few Clouds/
28/02/2008 12:50      15.0  10.0  16.8  11.3  72  1023   ---   NNE    10    10   ---   0.4 Few Clouds/
28/02/2008 13:50      15.0  10.0  16.8   9.3  72  1023   ---   NNE    14    14   ---   0.6 Few Clouds/
28/02/2008 14:50      15.0  10.0  16.8   8.6  72  1022   ---   NNE    16    16   ---   0.6 Few Clouds/
28/02/2008 15:50      15.0  10.0  16.8   8.6  72  1023   ---    NE    16    16   ---   --- /
28/02/2008 16:50      15.0  10.0  16.8   9.3  72  1023   ---    NE    14    14   ---   --- /
28/02/2008 17:50      15.0  10.0  16.8   9.3  72  1023   ---    NE    14    14   ---   --- /
28/02/2008 18:50      13.0  10.0  15.5   8.9  82  1023   ---   ENE    10    10   ---   --- /
28/02/2008 19:50      13.0  10.0  15.5  11.2  82  1024   ---   ENE     6     6   ---   --- /
28/02/2008 20:50      14.0  10.0  16.1  12.3  77  1024   ---   NNE     6     6   ---   0.4 Few Clouds/
28/02/2008 21:50      12.0   9.0  14.5  10.1  82  1025   ---     E     6     6   ---   0.4 Few Clouds/
28/02/2008 22:50      13.0  10.0  15.5   9.7  82  1024   ---     E     8     8   ---   0.4 Few Clouds/
28/02/2008 23:50      11.0   8.0  13.5   9.0  82  1024   ---     S     6     6   ---   0.3 Few Clouds/
29/02/2008 00:50      10.0   8.0  12.9   7.9  87  1024   ---     S     6     6   ---   0.4 Few Clouds/
29/02/2008 01:50      11.0   8.0  13.5  11.0  82  1024   ---     N     3     3   ---   0.4 Few Clouds/
29/02/2008 02:50      10.0   8.0  12.9  10.0  87  1024   ---     N     3     3   ---   0.4 Few Clouds/
29/02/2008 03:50      10.0   7.0  12.5  10.0  82  1024   ---     N     5     5   ---   0.4 Few Clouds/
29/02/2008 04:50      10.0   8.0  12.9  10.0  87  1024   ---     N     3     3   ---   --- /
29/02/2008 05:50      11.0   9.0  13.9   9.0  87  1024   ---    SE     6     6   ---   1.0 Broken Clouds/
29/02/2008 06:20      12.0   9.0  14.5  12.0  82  1025   ---     N     3     3   ---   1.0 Broken Clouds/
29/02/2008 07:50      12.0   9.0  14.5  12.0  82  1025   ---     N     3     3   ---   0.2 Few Clouds/
29/02/2008 08:50      13.0  11.0  15.9  13.0  88  1025   ---     N     2     2   ---   0.2 Few Clouds/
29/02/2008 09:50      14.0  10.0  16.1  14.0  77  1025   ---     N     5     5   ---   0.2 Few Clouds/
29/02/2008 10:50      14.0  11.0  16.5  14.0  82  1024   ---     N     5     5   ---   0.2 Few Clouds/
29/02/2008 11:50      15.0  11.0  17.1  10.0  77  1025   ---   NNE    13    13   ---   0.2 Scattered Clouds/
29/02/2008 12:50      16.0  11.0  17.8   8.7  72  1024   ---    NE    21    21   ---   0.2 Broken Clouds/
29/02/2008 13:50      16.0  11.0  17.8   8.7  72  1024   ---    NE    21    21   ---   0.7 Broken Clouds/
29/02/2008 14:50      15.0  11.0  17.1   8.2  77  1024   ---   NNE    18    18   ---   0.7 Broken Clouds/
29/02/2008 15:50      15.0  11.0  17.1   9.3  77  1024   ---   NNE    14    14   ---   0.5 Broken Clouds/
29/02/2008 16:50      15.0  11.0  17.1   8.6  77  1023   ---    NE    16    16   ---   0.5 Broken Clouds/
29/02/2008 17:50      15.0  11.0  17.1   9.3  77  1024   ---   NNE    14    14   ---   0.5 Broken Clouds/
29/02/2008 18:50      14.0  10.0  16.1  10.8  77  1024   ---    NE     8     8   ---   0.6 Scattered Clouds/
29/02/2008 19:50      13.0  10.0  15.5  11.2  82  1024   ---     E     6     6   ---   0.6 Scattered Clouds/
29/02/2008 20:50      13.0  10.0  15.5  13.0  82  1024   ---     N     3     3   ---   0.6 Scattered Clouds/
29/02/2008 21:50      12.0   8.0  14.1  12.0  77  1024   ---     N     5     5   ---   0.7 Few Clouds/
29/02/2008 22:50      12.0   8.0  14.1  10.1  77  1025   ---     S     6     6   ---   0.7 Few Clouds/
29/02/2008 23:50      12.0   9.0  14.5   8.5  82  1025   ---   SSE     8     8   ---   0.7 Few Clouds/
01/03/2008 00:50      12.0   9.0  14.5   8.5  82  1025   ---   SSE     8     8   ---   0.7 Few Clouds/
01/03/2008 01:50      12.0  10.0  14.9   7.7  88  1024   ---   SSE    10    10   ---   0.6 Scattered Clouds/
01/03/2008 02:50      13.0  10.0  15.5   7.4  82  1023   ---   SSE    13    13   ---   0.6 Scattered Clouds/
01/03/2008 03:50      14.0  10.0  16.1  10.1  77  1022   ---    SW    10    10   ---   0.6 Scattered Clouds/
01/03/2008 04:50      13.0   9.0  15.1   6.6  77  1022   ---   SSW    14    14   ---   0.6 Scattered Clouds/
01/03/2008 05:50      14.0   9.0  15.8   7.2  72  1022   ---   SSW    16    16   ---   0.6 Scattered Clouds/
01/03/2008 06:50      14.0   9.0  15.8   8.0  72  1022   ---     S    14    14   ---   0.6 Broken Clouds/
01/03/2008 07:50      14.0   9.0  15.8   7.2  72  1022   ---   SSW    16    16   ---   0.6 Broken Clouds/
01/03/2008 08:50      15.0   9.0  16.5   8.2  67  1021   ---     S    18    18   ---   0.6 Broken Clouds/
01/03/2008 09:50      16.0   9.0  17.2   7.8  63  1021   ---   SSW    26    26   ---   0.6 Broken Clouds/
01/03/2008 10:50      16.0  11.0  17.8   8.4  72  1021   ---    SW    23    23   ---   0.6 Broken Clouds/
01/03/2008 11:50      16.0  10.0  17.5   7.6  68  1021   ---    SW    27    27   ---   0.6 Scattered Clouds/
01/03/2008 12:50      15.0  11.0  17.1   6.4  77  1021   ---     W    26    26   ---   0.6 Broken Clouds/
01/03/2008 13:50      15.0  11.0  17.1   5.9  77  1020   ---     W    29    29   ---   0.5 Broken Clouds/
01/03/2008 14:50      15.0  11.0  17.1   6.9  77  1019   ---   WSW    23    23   ---   0.5 Broken Clouds/
01/03/2008 15:50      15.0  11.0  17.1   6.1  77  1019   ---   WSW    27    27   ---   0.5 Broken Clouds/
01/03/2008 16:50      15.0  11.0  17.1   6.4  77  1018   ---    SW    26    26   ---   0.5 Broken Clouds/
01/03/2008 17:50      15.0  11.0  17.1   5.9  77  1018   ---    SW    29    29   ---   0.5 Broken Clouds/
01/03/2008 18:50      15.0  12.0  17.5   5.9  82  1018   ---   WSW    29    29   ---   0.5 Broken Clouds/
01/03/2008 19:50      15.0  12.0  17.5   5.9  82  1019   ---     W    29    29   ---   0.5 Broken Clouds/
01/03/2008 20:50      15.0  12.0  17.5   5.6  82  1018   ---   WSW    31    31   ---   0.5 Broken Clouds/
01/03/2008 21:50      15.0  11.0  17.1   5.9  77  1018   ---   WSW    29    29   ---   0.5 Broken Clouds/
01/03/2008 22:50      15.0  12.0  17.5   5.9  82  1018   ---   WSW    29    29   ---   0.5 Broken Clouds/
01/03/2008 23:50      15.0  12.0  17.5   6.4  82  1018   ---   WSW    26    26   ---   0.5 Broken Clouds/
02/03/2008 00:50      15.0  11.0  17.1   5.9  77  1018   ---   WSW    29    29   ---   0.5 Broken Clouds/
02/03/2008 01:50      15.0  12.0  17.5   5.3  82  1017   ---     W    34    34   ---   0.5 Broken Clouds/
02/03/2008 02:50      15.0  11.0  17.1   4.9  77  1017   ---     W    39    39   ---   0.5 Broken Clouds/
02/03/2008 03:50      15.0  12.0  17.5   5.3  82  1017   ---     W    34    34   ---   0.5 Scattered Clouds/
02/03/2008 04:50      15.0  11.0  17.1   5.3  77  1016   ---     W    34    34   ---   0.5 Scattered Clouds/
02/03/2008 05:50      15.0  12.0  17.5   5.6  82  1017   ---     W    31    31   ---   0.5 Broken Clouds/
02/03/2008 06:50      15.0  12.0  17.5   5.6  82  1017   ---     W    31    31   ---   0.3 Broken Clouds/
02/03/2008 07:50      15.0  12.0  17.5   5.9  82  1017   ---     W    29    29   ---   0.4 Broken Clouds/
02/03/2008 08:50      15.0  12.0  17.5   6.4  82  1018   ---     W    26    26   ---   0.4 Broken Clouds/
02/03/2008 09:50      15.0  12.0  17.5   7.3  82  1018   ---     W    21    21   ---   0.4 Broken Clouds/
02/03/2008 10:50      15.0  12.0  17.5   7.3  82  1018   ---     W    21    21   ---   0.4 Broken Clouds/
02/03/2008 11:50      16.0  12.0  18.1   9.9  77  1018   ---   WSW    16    16   ---   0.4 Scattered Clouds/
02/03/2008 12:50      15.0  12.0  17.5   8.6  82  1018   ---     W    16    16   ---   0.4 Scattered Clouds/
02/03/2008 13:50      15.0  12.0  17.5   8.6  82  1017   ---     W    16    16   ---   0.4 Scattered Clouds/
02/03/2008 14:50      15.0  12.0  17.5   7.6  82  1017   ---     W    19    19   ---   0.4 Scattered Clouds/
02/03/2008 15:50      15.0  12.0  17.5   7.3  82  1017   ---     W    21    21   ---   0.4 Scattered Clouds/
02/03/2008 16:20      15.0  12.0  17.5   7.3  82  1017   ---     W    21    21   ---   0.4 Scattered Clouds/
02/03/2008 17:50      15.0  12.0  17.5   9.3  82  1017   ---     W    14    14   ---   0.5 Scattered Clouds/
02/03/2008 18:50      15.0  12.0  17.5   8.2  82  1017   ---    SW    18    18   ---   0.7 Few Clouds/
02/03/2008 19:50      15.0   9.0  16.5   6.1  67  1018   ---     S    27    27   ---   0.5 Few Clouds/
02/03/2008 20:50      15.0   9.0  16.5   7.6  67  1018   ---     S    19    19   ---   0.7 Few Clouds/
02/03/2008 21:50      14.0   9.0  15.8   6.9  72  1019   ---     S    18    18   ---   0.7 Few Clouds/
02/03/2008 22:50      19.0   9.0  19.6  12.0  52  1018   ---     S    27    27   ---   --- /
02/03/2008 23:50      14.0   9.0  15.8   5.8  72  1018   ---     S    21    21   ---   --- /
03/03/2008 00:50      14.0   9.0  15.8   6.2  72  1018   ---     S    19    19   ---   --- /
03/03/2008 01:50      14.0   9.0  15.8   8.7  72  1018   ---     S    13    13   ---   --- /
03/03/2008 02:50      14.0   9.0  15.8  10.1  72  1018   ---     S    10    10   ---   0.7 Scattered Clouds/
03/03/2008 03:50      14.0   9.0  15.8   8.0  72  1018   ---     S    14    14   ---   0.7 Scattered Clouds/
03/03/2008 04:50      13.0   8.0  14.8   6.6  72  1018   ---     S    14    14   ---   0.7 Scattered Clouds/
03/03/2008 05:50      13.0   9.0  15.1   5.8  77  1018   ---     S    16    16   ---   1.2 Scattered Clouds/
03/03/2008 06:50      14.0   8.0  15.5   6.2  67  1018   ---     S    19    19   ---   --- /
03/03/2008 07:50      14.0   9.0  15.8   5.8  72  1018   ---     S    21    21   ---   --- /
03/03/2008 08:50      15.0   9.0  16.5   6.4  67  1018   ---   SSW    26    26   ---   --- /
03/03/2008 09:50      16.0   9.0  17.2   7.8  63  1018   ---   SSW    26    26   ---   --- /
03/03/2008 10:20      17.0   9.0  18.0   9.8  59  1018   ---   SSW    23    23   ---   --- /
03/03/2008 11:50      16.0  12.0  18.1   9.6  77  1018   ---     W    18    18   ---   --- /
03/03/2008 12:50      17.0  11.0  18.5  15.5  68  1018   ---    NW     6     6   ---   --- /
03/03/2008 13:50      17.0  12.0  18.8  17.0  72  1017   ---     N     5     5   ---   --- /
03/03/2008 14:50      17.0  12.0  18.8  15.5  72  1017   ---   NNW     6     6   ---   --- /
03/03/2008 15:50      16.0  12.0  18.1  13.2  77  1016   ---    NW     8     8   ---   --- /
03/03/2008 16:20      16.0  13.0  18.5  13.2  82  1016   ---   NNW     8     8   ---   --- /
03/03/2008 17:50      16.0  12.0  18.1  11.3  77  1016   ---    NE    13    13   ---   --- /
03/03/2008 18:50      15.0  10.0  16.8  12.0  72  1016   ---   ENE     8     8   ---   --- /
03/03/2008 19:50      13.0  10.0  15.5  13.0  82  1016   ---     N     2     2   ---   --- /
03/03/2008 20:50      13.0   9.0  15.1  13.0  77  1016   ---     N     3     3   ---   --- /
03/03/2008 21:50      14.0  10.0  16.1  14.0  77  1016   ---     N     3     3   ---   --- /
03/03/2008 22:50      13.0   9.0  15.1  13.0  77  1016   ---     N     3     3   ---   --- /
03/03/2008 23:50      15.0   7.0  15.9   7.6  59  1015   ---   SSW    19    19   ---   --- /
04/03/2008 00:50      15.0   5.0  15.5   7.6  51  1014   ---     S    19    19   ---   --- /
04/03/2008 01:50      15.0   8.0  16.2   8.2  63  1014   ---   SSW    18    18   ---   --- /
04/03/2008 02:50      17.0   5.0  17.2   8.7  45  1014   ---   SSW    31    31   ---   --- /
04/03/2008 03:50      16.0   6.0  16.5   7.4  51  1013   ---   SSW    29    29   ---   --- /
04/03/2008 04:50      16.0   5.0  16.3   7.2  48  1013   ---   SSW    31    31   ---   --- /
04/03/2008 05:50      16.0   6.0  16.5   7.6  51  1013   ---   SSW    27    27   ---   --- /
04/03/2008 06:50      17.0   5.0  17.2   8.9  45  1012   ---   SSW    29    29   ---   --- /
04/03/2008 07:50      17.0   5.0  17.2   9.3  45  1012   ---   SSW    26    26   ---   --- /
04/03/2008 08:50      18.0   5.0  18.1  10.8  42  1012   ---   SSW    26    26   ---   --- /
04/03/2008 09:50      19.0   6.0  19.1  12.7  43  1012   ---   SSW    23    23   ---   --- /
04/03/2008 10:50      16.0  11.0  17.8   8.4  72  1012   ---   WNW    23    23   ---   --- /
04/03/2008 11:50      16.0  11.0  17.8   9.6  72  1012   ---   WNW    18    18   ---   --- /
04/03/2008 12:50      16.0  11.0  17.8   7.6  72  1011   ---   WNW    27    27   ---   0.7 Few Clouds/
04/03/2008 13:50      15.0  11.0  17.1   6.1  77  1011   ---   WNW    27    27   ---   0.7 Few Clouds/
04/03/2008 14:50      15.0  11.0  17.1   5.9  77  1010   ---   WNW    29    29   ---   0.7 Few Clouds/
04/03/2008 15:50      16.0  11.0  17.8  16.0  72  1010   ---     N     5     5   ---   0.7 Few Clouds/
04/03/2008 16:20      16.0  11.0  17.8  14.4  72  1010   ---   WSW     6     6   ---   0.7 Few Clouds/
04/03/2008 17:50      15.0  11.0  17.1   8.6  77  1010   ---   WNW    16    16   ---   0.7 Few Clouds/
04/03/2008 18:50      15.0  12.0  17.5  15.0  82  1010   ---     N     5     5   ---   0.7 Scattered Clouds/
04/03/2008 19:50      14.0  11.0  16.5  12.3  82  1011   ---     S     6     6   ---   0.7 Scattered Clouds/
04/03/2008 20:50      13.0  10.0  15.5   9.7  82  1011   ---   SSE     8     8   ---   0.7 Few Clouds/
04/03/2008 21:50      12.0   8.0  14.1   7.7  77  1010   ---   SSE    10    10   ---   0.7 Few Clouds/
04/03/2008 22:50      12.0   5.0  13.1   7.7  62  1010   ---   SSE    10    10   ---   0.7 Few Clouds/
04/03/2008 23:50      11.0   7.0  13.1  11.0  76  1010   ---     N     0     0   ---   0.7 Few Clouds/
05/03/2008 00:50      11.0   7.0  13.1  11.0  76  1010   ---   ---     0     0   ---   0.7 Few Clouds/
05/03/2008 01:50      13.0   8.0  14.8   9.7  72  1010   ---    SE     8     8   ---   0.7 Few Clouds/
05/03/2008 02:50      13.0   7.0  14.4  13.0  67  1009   ---     N     0     0   ---   0.7 Few Clouds/
05/03/2008 03:50      12.0   6.0  13.4   8.5  67  1008   ---     S     8     8   ---   0.7 Few Clouds/
05/03/2008 04:50      12.0   6.0  13.4  10.1  67  1008   ---     S     6     6   ---   0.7 Few Clouds/
05/03/2008 05:50      14.0   7.0  15.2  12.3  63  1007   ---   WSW     6     6   ---   0.7 Scattered Clouds/
05/03/2008 06:50      12.0   7.0  13.7   4.5  71  1008   ---   SSW    16    16   ---   --- Overcast/ Light Rain
05/03/2008 07:50      11.0   8.0  13.5   4.0  82  1008   ---   SSE    14    14   ---   --- Overcast/ Light Rain
05/03/2008 09:50      12.0   9.0  14.5  12.0  82  1007   ---     N     2     2   ---   --- Overcast/ Light Rain
05/03/2008 10:50      12.0   9.0  14.5  12.0  82  1007   ---     N     2     2   ---   --- Overcast/ Light Rain
05/03/2008 11:50      12.0   8.0  14.1  10.1  77  1006   ---     W     6     6   ---   --- Overcast/ Light Rain
05/03/2008 12:50      11.0   8.0  13.5   2.7  82  1006   ---   WNW    18    18   ---   --- Overcast/ Light Rain
05/03/2008 13:50      11.0   8.0  13.5   4.0  82  1005   ---   WNW    14    14   ---   --- Overcast/ Light Rain
05/03/2008 14:50      11.0   8.0  13.5   7.3  82  1005   ---   NNW     8     8   ---   --- Overcast/ Light Rain
05/03/2008 15:50      11.0   8.0  13.5   4.9  82  1005   ---    NW    13    13   ---   --- Overcast/ Light Rain
05/03/2008 16:50      11.0   8.0  13.5   7.3  82  1005   ---    NW     8     8   ---   --- Overcast/ Light Rain
05/03/2008 17:50      11.0   8.0  13.5   9.0  82  1005   ---     N     6     6   ---   --- Overcast/ Light Rain
05/03/2008 18:50      11.0   8.0  13.5  11.0  82  1005   ---     N     5     5   ---   --- Overcast/ Light Rain
05/03/2008 19:50      10.0   8.0  12.9   7.9  87  1005   ---     N     6     6   ---   --- Overcast/ Light Rain
05/03/2008 20:50      10.0   8.0  12.9   0.1  87  1006   ---   WNW    21    21   ---   --- Overcast/ Rain
05/03/2008 21:50      10.0   7.0  12.5   1.4  82  1006   ---   WNW    18    18   ---   --- Overcast/ Rain
05/03/2008 22:50      10.0   7.0  12.5   7.9  82  1006   ---     W     6     6   ---   --- Overcast/ Light Rain
05/03/2008 23:50       9.0   7.0  11.9   4.1  87  1006   ---   SSE    10    10   ---   --- Overcast/ Light Rain
06/03/2008 00:50       9.0   7.0  11.9   2.3  87  1006   ---     S    13    13   ---   0.7 Broken Clouds/
06/03/2008 01:20       9.0   6.0  11.5   1.4  81  1005   ---     S    14    14   ---   0.7 Broken Clouds/
06/03/2008 02:50       9.0   5.0  11.1   1.4  76  1005   ---     S    14    14   ---   0.7 Broken Clouds/
06/03/2008 03:50       9.0   5.0  11.1   2.3  76  1004   ---     S    13    13   ---   0.7 Broken Clouds/
06/03/2008 04:50       9.0   4.0  10.7  -0.0  71  1004   ---     S    18    18   ---   1.0 Scattered Clouds/
06/03/2008 05:50       9.0   4.0  10.7   4.1  71  1004   ---     S    10    10   ---   0.9 Scattered Clouds/
06/03/2008 06:50       9.0   5.0  11.1  -0.9  76  1005   ---   SSW    19    19   ---   --- Overcast/ Light Rain
06/03/2008 07:50       9.0   5.0  11.1   1.4  76  1005   ---     S    14    14   ---   0.6 Broken Clouds/
06/03/2008 08:50      10.0   5.0  11.7  -2.8  71  1006   ---   WSW    37    37   ---   0.6 Broken Clouds/
06/03/2008 09:50      10.0   4.0  11.4   1.4  66  1006   ---   WSW    18    18   ---   0.6 Broken Clouds/
06/03/2008 10:50      10.0   5.0  11.7   2.7  71  1007   ---    SW    14    14   ---   0.6 Broken Clouds/
06/03/2008 11:50      10.0   4.0  11.4  -0.3  66  1007   ---   WSW    23    23   ---   --- Overcast/ Light Rain
06/03/2008 12:50      10.0   4.0  11.4   1.4  66  1007   ---     S    18    18   ---   0.6 Broken Clouds/
06/03/2008 13:50      12.0   3.0  12.7   4.5  54  1006   ---   SSW    16    16   ---   0.6 Scattered Clouds/
06/03/2008 14:50      12.0   3.0  12.7   7.7  54  1006   ---   SSW    10    10   ---   0.6 Scattered Clouds/
06/03/2008 15:50      12.0   3.0  12.7   7.7  54  1005   ---   SSW    10    10   ---   0.6 Scattered Clouds/
06/03/2008 16:50      12.0   3.0  12.7   6.2  54  1005   ---     S    13    13   ---   0.6 Broken Clouds/
06/03/2008 17:50      11.0   3.0  11.9   1.9  58  1006   ---     S    19    19   ---   0.6 Broken Clouds/
06/03/2008 18:50      10.0   2.0  10.9   0.1  58  1006   ---     S    21    21   ---   0.6 Broken Clouds/
06/03/2008 19:50      11.0  -1.0  11.1   1.9  43  1007   ---     S    19    19   ---   0.6 Broken Clouds/
06/03/2008 20:50      10.0   1.0  10.6   1.8  54  1007   ---     S    16    16   ---   0.7 Scattered Clouds/
06/03/2008 21:50      10.0   1.0  10.6   3.6  54  1007   ---    SE    13    13   ---   0.7 Few Clouds/
06/03/2008 22:50      10.0   1.0  10.6   1.8  54  1007   ---     S    16    16   ---   0.7 Scattered Clouds/
06/03/2008 23:50      10.0   1.0  10.6   0.5  54  1006   ---   SSE    19    19   ---   0.7 Scattered Clouds/
07/03/2008 00:50      10.0   1.0  10.6   0.5  54  1006   ---     S    19    40   ---   0.7 Scattered Clouds/
07/03/2008 01:50      10.0   2.0  10.9   3.6  58  1006   ---   SSE    13    13   ---   0.7 Few Clouds/
07/03/2008 02:50      11.0   2.0  11.6   4.0  54  1005   ---     S    14    14   ---   0.7 Scattered Clouds/
07/03/2008 03:50      10.0   2.0  10.9   6.2  58   ---   ---   SSW     8     8   ---   0.7 Scattered Clouds/
07/03/2008 04:50      10.0   2.0  10.9  10.0  58   ---   ---     N     5     5   ---   0.7 Scattered Clouds/
07/03/2008 05:50      10.0   3.0  11.1   0.1  62  1004   ---   SSE    21    21   ---   0.7 Scattered Clouds/
07/03/2008 06:50      10.0   3.0  11.1  -0.3  62  1004   ---     S    23    23   ---   0.7 Scattered Clouds/
07/03/2008 07:50      10.0   4.0  11.4  -0.3  66  1004   ---     S    23    23   ---   0.6 Scattered Clouds/
07/03/2008 08:50      10.0   4.0  11.4  -1.4  66  1005   ---   SSW    27    27   ---   0.6 Broken Clouds/
07/03/2008 09:50      11.0   4.0  12.1  -0.4  62  1005   ---     S    31    31   ---   0.6 Broken Clouds/
07/03/2008 10:50      12.0   5.0  13.1   1.6  62  1005   ---   SSW    27    27   ---   0.6 Broken Clouds/
07/03/2008 11:50       9.0   6.0  11.5  -2.5  81  1006   ---   SSW    26    26   ---   --- Overcast/ Light Rain
07/03/2008 12:50      12.0   7.0  13.7   0.3  71  1005   ---     S    37    37   ---   --- Overcast/ Light Rain
07/03/2008 13:50      12.0   7.0  13.7   0.8  71  1005   ---   SSW    32    32   ---   --- Overcast/ Light Rain
07/03/2008 14:50      12.0   6.0  13.4   1.4  67  1006   ---    SW    29    29   ---   0.4 Broken Clouds/
07/03/2008 15:50      11.0   6.0  12.7   1.5  71  1007   ---   WSW    21    21   ---   --- Overcast/ Light Rain
07/03/2008 16:50      12.0   7.0  13.7   1.1  71  1006   ---    SW    31    31   ---   0.4 Broken Clouds/
07/03/2008 17:20      11.0   6.0  12.7   1.5  71  1007   ---   SSW    21    21   ---   0.5 Broken Clouds/
07/03/2008 18:50      10.0   6.0  12.1  -2.8  76  1007   ---   SSW    37    37   ---   --- Overcast/ Rain
07/03/2008 19:50       9.0   6.0  11.5  -3.5  81  1008   ---    SW    31    31   ---   --- Overcast/ Light Rain
07/03/2008 20:50       9.0   5.0  11.1  -3.1  76  1009   ---     S    29    29   ---   --- Overcast/ Light Rain
07/03/2008 21:50      10.0   5.0  11.7  -3.2  71  1009   ---     S    42    63   ---   0.5 Scattered Clouds/
07/03/2008 22:50       9.0   4.0  10.7   9.0  71  1009   ---     S     3     3   ---   0.5 Scattered Clouds/
07/03/2008 23:50      10.0   5.0  11.7  -1.6  71  1009   ---     S    29    29   ---   0.7 Scattered Clouds/
08/03/2008 00:50      10.0   6.0  12.1  -2.4  76  1009   ---     S    34    34   ---   0.5 Scattered Clouds/
08/03/2008 01:50      10.0   5.0  11.7   0.1  71  1009   ---   SSW    21    21   ---   0.5 Scattered Clouds/
08/03/2008 02:50      10.0   5.0  11.7  -1.1  71  1009   ---     S    26    26   ---   0.5 Scattered Clouds/
08/03/2008 03:50      10.0   6.0  12.1  -2.4  76  1009   ---     S    34    55   ---   0.5 Scattered Clouds/
08/03/2008 04:50      11.0   5.0  12.4  -0.4  66  1009   ---     S    31    31   ---   0.6 Scattered Clouds/
08/03/2008 05:50      10.0   5.0  11.7  -1.9  71  1009   ---   SSW    31    31   ---   0.6 Scattered Clouds/
08/03/2008 06:50      10.0   3.0  11.1  -1.4  62  1009   ---     S    27    27   ---   0.7 Scattered Clouds/
08/03/2008 07:50      11.0   4.0  12.1   1.1  62  1009   ---     S    23    23   ---   0.7 Scattered Clouds/
08/03/2008 08:50      12.0   5.0  13.1   3.0  62  1010   ---   SSW    21    21   ---   0.7 Scattered Clouds/
08/03/2008 09:50      12.0   3.0  12.7   4.1  54  1010   ---     S    18    18   ---   0.7 Scattered Clouds/
08/03/2008 10:50      14.0   5.0  14.7   5.8  55  1010   ---     S    21    21   ---   0.7 Scattered Clouds/
08/03/2008 11:50      14.0   5.0  14.7   5.5  55  1011   ---    SW    23    23   ---   0.7 Scattered Clouds/
08/03/2008 12:50      13.0   4.0  13.7   4.0  54  1010   ---    SW    23    23   ---   0.7 Scattered Clouds/
08/03/2008 13:50      14.0   4.0  14.5   4.9  51  1010   ---    SW    26    26   ---   0.7 Scattered Clouds/
08/03/2008 14:20      14.0   5.0  14.7   5.8  55  1010   ---    SW    21    21   ---   0.7 Broken Clouds/
08/03/2008 15:50      14.0   4.0  14.5   7.2  51  1010   ---    SW    16    16   ---   0.6 Broken Clouds/
08/03/2008 16:50      14.0   4.0  14.5   8.0  51  1010   ---    SW    14    14   ---   0.6 Broken Clouds/
08/03/2008 17:50      14.0   4.0  14.5   8.0  51  1010   ---    SW    14    14   ---   0.6 Broken Clouds/
08/03/2008 18:50      11.0   2.0  11.6   6.5  54  1011   ---   SSE    10    10   ---   0.7 Scattered Clouds/
08/03/2008 19:50      10.0   2.0  10.9   5.3  58  1011   ---     S    10    10   ---   0.7 Scattered Clouds/
08/03/2008 20:50      10.0   3.0  11.1   3.6  62  1012   ---     S    13    13   ---   0.7 Scattered Clouds/
08/03/2008 21:50      10.0   3.0  11.1   5.3  62  1013   ---     S    10    10   ---   0.7 Scattered Clouds/
08/03/2008 22:50       9.0   3.0  10.4   2.3  66  1013   ---     S    13    13   ---   0.7 Few Clouds/
08/03/2008 23:50      11.0   5.0  12.4   6.5  66  1013   ---    SW    10    10   ---   0.7 Few Clouds/
09/03/2008 00:50       9.0   3.0  10.4   1.4  66  1013   ---   SSW    14    14   ---   0.7 Few Clouds/
09/03/2008 01:50      10.0   2.0  10.9   2.7  58  1013   ---     S    14    14   ---   0.7 Few Clouds/
09/03/2008 02:50       9.0   2.0  10.1   2.3  62  1013   ---   SSE    13    13   ---   0.7 Few Clouds/
09/03/2008 03:50       9.0   1.0   9.8   1.4  57  1013   ---     S    14    14   ---   0.7 Few Clouds/
09/03/2008 04:50       8.0   2.0   9.4   1.0  66  1013   ---     S    13    13   ---   0.7 Few Clouds/
09/03/2008 05:50       8.0   2.0   9.4  -0.9  66  1013   ---   SSE    16    16   ---   0.7 Few Clouds/
09/03/2008 06:50       9.0   3.0  10.4   0.4  66  1013   ---   SSE    16    16   ---   --- /
09/03/2008 07:50      10.0   4.0  11.4   2.7  66  1014   ---     S    14    14   ---   --- /
09/03/2008 08:20      12.0   5.0  13.1   8.5  62  1014   ---     S     8     8   ---   --- /
09/03/2008 09:50      14.0   5.0  14.7   8.0  55  1015   ---   SSW    14    14   ---   --- /
09/03/2008 10:20      14.0   5.0  14.7   8.0  55  1015   ---   SSW    14    14   ---   --- /
09/03/2008 11:50      14.0   6.0  14.9   8.0  59  1015   ---    SW    14    14   ---   0.8 Scattered Clouds/
09/03/2008 12:20      14.0   6.0  14.9   8.0  59  1015   ---    SW    14    14   ---   0.8 Scattered Clouds/
09/03/2008 13:50      15.0   6.0  15.7  15.0  55  1014   ---     N     5     5   ---   0.8 Scattered Clouds/
09/03/2008 14:50      13.0   6.0  14.2  13.0  62  1014   ---     N     5     5   ---   0.8 Scattered Clouds/
09/03/2008 15:50      14.0   6.0  14.9  14.0  59  1014   ---     N     5     5   ---   0.8 Scattered Clouds/
09/03/2008 16:50      14.0   6.0  14.9  12.3  59  1014   ---   ENE     6     6   ---   0.8 Scattered Clouds/
09/03/2008 17:50      13.0   6.0  14.2  11.2  62  1014   ---     E     6     6   ---   0.8 Broken Clouds/
09/03/2008 18:50      13.0   8.0  14.8   7.4  72  1014   ---   NNW    13    13   ---   0.8 Broken Clouds/
09/03/2008 19:20      13.0   8.0  14.8   9.7  72  1015   ---    NW     8     8   ---   0.8 Broken Clouds/
09/03/2008 20:50      11.0   7.0  13.1   7.3  76  1015   ---   SSE     8     8   ---   0.8 Scattered Clouds/
09/03/2008 21:50      11.0   7.0  13.1   9.0  76  1015   ---     S     6     6   ---   0.8 Scattered Clouds/
09/03/2008 22:50      10.0   6.0  12.1   2.7  76  1015   ---   SSE    14    14   ---   0.8 Few Clouds/
09/03/2008 23:50       9.0   5.0  11.1   1.4  76  1016   ---     S    14    14   ---   0.8 Few Clouds/
10/03/2008 00:50      10.0   5.0  11.7   5.3  71  1015   ---     S    10    10   ---   0.8 Few Clouds/
10/03/2008 01:50      10.0   5.0  11.7   3.6  71  1015   ---     S    13    13   ---   0.7 Few Clouds/
10/03/2008 02:50      10.0   4.0  11.4   3.6  66  1015   ---     S    13    13   ---   0.7 Few Clouds/
10/03/2008 03:50      10.0   5.0  11.7   7.9  71  1014   ---    SW     6     6   ---   0.7 Few Clouds/
10/03/2008 04:50      11.0   5.0  12.4   6.5  66  1014   ---     S    10    10   ---   0.7 Few Clouds/
10/03/2008 05:50      12.0   6.0  13.4   3.0  67  1014   ---     S    21    21   ---   0.7 Few Clouds/
10/03/2008 06:50      12.0   6.0  13.4   3.3  67  1014   ---     S    19    19   ---   0.8 Few Clouds/
10/03/2008 07:50      12.0   6.0  13.4   4.1  67  1014   ---     S    18    18   ---   --- /
10/03/2008 08:50      14.0   6.0  14.9   5.5  59  1014   ---     S    23    23   ---   --- /
10/03/2008 09:50      15.0   7.0  15.9   5.6  59  1015   ---   SSW    31    31   ---   --- /
10/03/2008 10:50      16.0   8.0  16.9   7.0  59  1014   ---   SSW    32    32   ---   0.7 Scattered Clouds/
10/03/2008 11:50      17.0   8.0  17.7   8.7  55  1014   ---   SSW    31    31   ---   0.7 Scattered Clouds/
10/03/2008 12:50      17.0   8.0  17.7   8.7  55  1013   ---   SSW    31    31   ---   0.7 Scattered Clouds/
10/03/2008 13:50      17.0   7.0  17.5   8.1  52  1012   ---     S    37    37   ---   0.7 Scattered Clouds/
10/03/2008 14:50      17.0   7.0  17.5   8.7  52  1011   ---   SSW    31    31   ---   0.7 Scattered Clouds/
10/03/2008 15:50      16.0   6.0  16.5   7.2  51  1011   ---     S    31    56   ---   0.7 Broken Clouds/
10/03/2008 16:50      16.0   7.0  16.7   6.3  55  1010   ---   SSW    40    40   ---   0.7 Broken Clouds/
10/03/2008 17:50      15.0   7.0  15.9   4.9  59  1010   ---   SSW    37    55   ---   0.7 Broken Clouds/
10/03/2008 18:50      14.0   9.0  15.8   5.5  72  1011   ---     S    23    23   ---   --- Overcast/ Rain
10/03/2008 19:50      14.0   9.0  15.8   4.9  72  1010   ---     S    26    26   ---   0.6 Broken Clouds/
10/03/2008 19:50      14.0   9.0  15.8   4.9  72  1010   ---     S    26    26   ---   0.6 Broken Clouds/None reported
10/03/2008 20:50      14.0   9.0  15.8   5.5  72  1011   ---     S    23    23   ---   0.6 Scattered Clouds/
10/03/2008 21:50      14.0   9.0  15.8   5.5  72  1011   ---   SSW    23    23   ---   0.6 Scattered Clouds/
10/03/2008 22:50      14.0   9.0  15.8   4.1  72  1011   ---   SSW    31    31   ---   0.6 Broken Clouds/
10/03/2008 23:50      14.0   8.0  15.5   4.6  67  1011   ---   SSW    27    27   ---   0.6 Broken Clouds/
11/03/2008 00:50      14.0   7.0  15.2   4.1  63  1011   ---    SW    31    31   ---   0.6 Broken Clouds/
11/03/2008 01:50      14.0   7.0  15.2   4.6  63  1011   ---   SSW    27    27   ---   0.6 Broken Clouds/
11/03/2008 02:50      14.0   7.0  15.2   6.2  63  1010   ---   WSW    19    19   ---   0.6 Broken Clouds/
11/03/2008 03:50      14.0   6.0  14.9   6.2  59  1009   ---   SSW    19    19   ---   0.6 Broken Clouds/
11/03/2008 04:50      13.0   7.0  14.4   2.9  67  1010   ---     S    29    29   ---   --- Overcast/ Light Rain
11/03/2008 05:50      12.0   8.0  14.1   3.3  77  1009   ---   SSW    19    19   ---   --- Overcast/ Light Rain
11/03/2008 06:50      13.0   6.0  14.2   1.8  62  1008   ---     S    39    56   ---   0.6 Broken Clouds/
11/03/2008 07:50      13.0   7.0  14.4   2.2  67  1008   ---     S    34    55   ---   --- Overcast/ Light Rain
11/03/2008 08:50      12.0  10.0  14.9   5.3  88  1009   ---   WSW    14    14   ---   --- Overcast/ Rain
11/03/2008 09:50      11.0   9.0  13.9   2.7  87  1010   ---     S    18    18   ---   0.6 Overcast/
11/03/2008 10:50      12.0  10.0  14.9   1.9  88  1010   ---     S    26    26   ---   0.4 Broken Clouds/
11/03/2008 11:50      13.0  10.0  15.5   5.5  82  1010   ---   SSW    18    18   ---   0.6 Broken Clouds/
11/03/2008 12:50      15.0  10.0  16.8   6.1  72  1009   ---     S    27    27   ---   0.8 Broken Clouds/
11/03/2008 13:50      15.0  10.0  16.8   6.4  72  1009   ---    SW    26    26   ---   0.8 Broken Clouds/
11/03/2008 14:50      16.0   8.0  16.9   6.1  59  1009   ---     W    43    43   ---   0.8 Broken Clouds/
11/03/2008 15:50      16.0   9.0  17.2   6.4  63  1009   ---     W    39    39   ---   0.8 Few Clouds/
11/03/2008 16:50      16.0   9.0  17.2   5.9  63  1010   ---     W    47    47   ---   0.8 Few Clouds/
11/03/2008 17:50      15.0  10.0  16.8   4.7  72  1010   ---     W    40    40   ---   0.7 Scattered Clouds/
11/03/2008 18:50      15.0  10.0  16.8   4.9  72  1011   ---     W    39    39   ---   0.6 Broken Clouds/
11/03/2008 19:50      15.0  11.0  17.1   5.6  77  1012   ---     W    31    31   ---   0.6 Broken Clouds/
11/03/2008 20:50      15.0  11.0  17.1   5.6  77  1012   ---     W    31    31   ---   0.6 Broken Clouds/
11/03/2008 21:50      15.0  11.0  17.1   5.4  77  1013   ---     W    32    32   ---   0.6 Broken Clouds/
11/03/2008 22:50      15.0  11.0  17.1   5.9  77  1014   ---   WNW    29    29   ---   0.7 Scattered Clouds/
11/03/2008 23:50      15.0  11.0  17.1   8.2  77  1014   ---     W    18    18   ---   0.7 Broken Clouds/
12/03/2008 00:50      15.0  11.0  17.1   8.2  77  1014   ---     W    18    18   ---   0.7 Broken Clouds/
12/03/2008 01:50      15.0  11.0  17.1   6.9  77  1015   ---     W    23    23   ---   0.6 Broken Clouds/
12/03/2008 02:50      15.0  12.0  17.5   7.3  82  1015   ---     W    21    21   ---   0.5 Broken Clouds/
12/03/2008 03:50      15.0  12.0  17.5   8.2  82  1015   ---   WSW    18    18   ---   0.5 Broken Clouds/
12/03/2008 04:50      15.0  12.0  17.5   9.3  82  1015   ---     W    14    14   ---   0.5 Broken Clouds/
12/03/2008 05:50      14.0  12.0  17.0   7.2  88  1016   ---     W    16    16   ---   0.5 Broken Clouds/
12/03/2008 06:50      15.0  12.0  17.5   7.3  82  1016   ---     W    21    21   ---   0.5 Broken Clouds/
12/03/2008 07:50      14.0  12.0  17.0   8.0  88  1017   ---    SW    14    14   ---   0.5 Scattered Clouds/
12/03/2008 08:50      15.0  12.0  17.5  13.3  82  1017   ---    SW     6     6   ---   --- /
12/03/2008 09:50      15.0  11.0  17.1  11.3  77  1017   ---    SW    10    10   ---   --- /
12/03/2008 10:50      16.0  11.0  17.8   9.9  72  1017   ---   SSW    16    16   ---   --- /
12/03/2008 11:50      17.0  11.0  18.5  11.3  68  1018   ---    SW    16    16   ---   --- /
12/03/2008 12:50      17.0  11.0  18.5  11.0  68  1017   ---    SW    18    18   ---   0.7 Few Clouds/
12/03/2008 13:20      17.0  12.0  18.8  10.4  72  1017   ---    SW    19    19   ---   0.7 Scattered Clouds/
12/03/2008 14:50      17.0  10.0  18.2   9.3  63  1017   ---    SW    26    26   ---   0.7 Broken Clouds/
12/03/2008 15:50      17.0  10.0  18.2  10.4  63  1017   ---   WSW    19    19   ---   0.7 Broken Clouds/
12/03/2008 16:50      17.0  11.0  18.5  12.5  68  1016   ---    SW    13    13   ---   0.7 Broken Clouds/
12/03/2008 17:50      17.0   9.0  18.0  10.1  59  1016   ---   SSW    21    21   ---   0.7 Broken Clouds/
12/03/2008 18:50      16.0  11.0  17.8   7.8  72  1016   ---   SSW    26    26   ---   0.7 Broken Clouds/
12/03/2008 19:50      16.0  11.0  17.8   7.2  72  1016   ---    SW    31    31   ---   0.7 Broken Clouds/
12/03/2008 20:50      16.0  10.0  17.5   7.4  68  1016   ---    SW    29    29   ---   0.7 Broken Clouds/
12/03/2008 21:50      16.0  12.0  18.1   7.0  77  1016   ---    SW    32    32   ---   0.7 Broken Clouds/
12/03/2008 22:50      16.0  11.0  17.8   7.8  72  1016   ---   WSW    26    43   ---   0.7 Broken Clouds/
12/03/2008 23:50      17.0   9.0  18.0   8.1  59  1016   ---   WSW    37    37   ---   0.7 Broken Clouds/
13/03/2008 00:50      17.0   9.0  18.0   8.4  59  1016   ---   WSW    34    34   ---   0.7 Scattered Clouds/
13/03/2008 01:50      16.0  10.0  17.5   7.8  68  1017   ---     W    26    26   ---   0.7 Few Clouds/
13/03/2008 02:50      16.0  10.0  17.5   7.6  68  1016   ---     W    27    27   ---   0.7 Few Clouds/
13/03/2008 03:50      15.0  11.0  17.1   8.6  77  1016   ---     W    16    16   ---   0.7 Few Clouds/
13/03/2008 04:50      15.0  11.0  17.1   7.6  77  1016   ---     W    19    19   ---   0.7 Few Clouds/
13/03/2008 05:50      14.0  10.0  16.1   8.0  77  1016   ---     S    14    14   ---   0.7 Broken Clouds/
13/03/2008 06:50      14.0  10.0  16.1   8.0  77  1016   ---     S    14    14   ---   0.7 Broken Clouds/
13/03/2008 07:50      15.0  11.0  17.1   8.6  77  1017   ---     S    16    16   ---   0.9 Few Clouds/
13/03/2008 08:50      16.0  10.0  17.5  14.4  68  1018   ---     S     6     6   ---   0.9 Few Clouds/
13/03/2008 10:50      16.0  11.0  17.8  12.5  72  1018   ---   WSW    10    10   ---   0.9 Few Clouds/
13/03/2008 11:50      17.0  11.0  18.5  17.0  68  1018   ---   WSW     3     3   ---   0.9 Few Clouds/
13/03/2008 12:50      18.0   9.0  18.8  18.0  56  1018   ---     N     3     3   ---   --- /
13/03/2008 13:50      18.0   9.0  18.8  18.0  56  1018   ---     N     2     2   ---   --- /
13/03/2008 14:50      18.0   9.0  18.8  18.0  56  1018   ---     N     3     3   ---   --- /
13/03/2008 15:50      17.0  10.0  18.2  17.0  63  1018   ---     N     5     5   ---   --- /
13/03/2008 16:20      17.0  10.0  18.2  17.0  63  1018   ---     N     5     5   ---   --- /
13/03/2008 17:50      16.0  12.0  18.1  16.0  77  1018   ---     N     5     5   ---   --- /
13/03/2008 18:50      16.0  12.0  18.1  16.0  77  1018   ---     N     3     3   ---   --- /
13/03/2008 19:50      12.0   7.0  13.7   8.5  71  1018   ---     S     8     8   ---   --- /
13/03/2008 20:50      13.0   9.0  15.1   6.6  77  1018   ---   SSW    14    14   ---   --- /
13/03/2008 21:50      14.0  10.0  16.1   8.7  77  1018   ---    SW    13    13   ---   --- /
13/03/2008 22:50      11.0   5.0  12.4  11.0  66  1018   ---     N     5     5   ---   --- /
13/03/2008 23:50      12.0   5.0  13.1  12.0  62  1018   ---     N     2     2   ---   --- /
14/03/2008 00:50      11.0   5.0  12.4  11.0  66  1018   ---     N     2     2   ---   --- /
14/03/2008 01:50      12.0   4.0  12.9  12.0  58  1017   ---     N     5     5   ---   --- /
14/03/2008 02:50      12.0   6.0  13.4  12.0  67  1017   ---     N     3     3   ---   --- /
14/03/2008 03:50      12.0   5.0  13.1  12.0  62  1016   ---     N     3     3   ---   --- /
14/03/2008 04:50      10.0   5.0  11.7  10.0  71  1016   ---     N     3     3   ---   --- /
14/03/2008 05:50      11.0   6.0  12.7   9.0  71  1017   ---     S     6     6   ---   --- /
14/03/2008 06:50      11.0   6.0  12.7   6.5  71  1017   ---   SSW    10    10   ---   --- /
14/03/2008 07:50      14.0   7.0  15.2   7.2  63  1017   ---    SW    16    16   ---   --- /
14/03/2008 08:50      16.0   7.0  16.7  10.6  55  1017   ---   SSW    14    14   ---   --- /
14/03/2008 09:50      17.0   7.0  17.5  11.0  52  1018   ---    SW    18    18   ---   --- /
14/03/2008 10:50      17.0  11.0  18.5   9.8  68  1018   ---    SW    23    23   ---   --- /
14/03/2008 11:50      17.0  11.0  18.5  11.9  68  1018   ---   WSW    14    14   ---   --- /
14/03/2008 12:50      15.0  11.0  17.1   7.6  77  1018   ---     W    19    19   ---   1.8 Scattered Clouds/
14/03/2008 13:50      15.0  12.0  17.5   7.3  82  1018   ---   WNW    21    21   ---   0.6 Few Clouds/
14/03/2008 14:50      15.0  11.0  17.1   8.2  77  1018   ---   WNW    18    18   ---   0.6 Few Clouds/
14/03/2008 15:50      15.0  12.0  17.5  10.0  82  1017   ---   WNW    13    13   ---   0.6 Few Clouds/
14/03/2008 16:50      15.0  12.0  17.5  10.0  82  1018   ---    NW    13    13   ---   0.6 Few Clouds/
14/03/2008 17:50      15.0  12.0  17.5  15.0  82  1018   ---     N     5     5   ---   0.6 Few Clouds/
14/03/2008 18:50      15.0  11.0  17.1  15.0  77  1018   ---     N     5     5   ---   0.6 Few Clouds/
14/03/2008 19:50      13.0  10.0  15.5  13.0  82  1018   ---     N     2     2   ---   0.6 Few Clouds/
14/03/2008 20:50      13.0  10.0  15.5  11.2  82  1019   ---     S     6     6   ---   0.6 Few Clouds/
14/03/2008 21:50      12.0  10.0  14.9  10.1  88  1019   ---   SSE     6     6   ---   0.6 Few Clouds/
14/03/2008 22:50      12.0   9.0  14.5  12.0  82  1019   ---     N     5     5   ---   0.6 Few Clouds/
14/03/2008 23:50      12.0   9.0  14.5  12.0  82  1018   ---     N     3     3   ---   0.6 Few Clouds/
15/03/2008 00:50      11.0   8.0  13.5  11.0  82  1018   ---     N     3     3   ---   --- /
15/03/2008 01:50      11.0   9.0  13.9  11.0  87  1018   ---     N     5     5   ---   --- /
15/03/2008 02:50      12.0   9.0  14.5   8.5  82  1018   ---    SW     8     8   ---   --- /
15/03/2008 03:50      11.0   9.0  13.9  11.0  87  1017   ---     N     3     3   ---   --- /
15/03/2008 04:50      10.0   8.0  12.9   7.9  87  1017   ---    SE     6     6   ---   --- /
15/03/2008 05:50      10.0   8.0  12.9   7.9  87  1017   ---    SE     6     6   ---   --- /
15/03/2008 06:50      10.0   8.0  12.9  10.0  87  1017   ---     N     5     5   ---   --- /
15/03/2008 08:50      13.0  10.0  15.5  13.0  82  1018   ---     N     5     5   ---   --- /
15/03/2008 09:50      14.0  11.0  16.5  12.3  82  1018   ---     W     6     6   ---   --- /
15/03/2008 10:50      14.0  11.0  16.5  12.3  82  1018   ---     W     6     6   ---   --- /
15/03/2008 11:50      15.0  12.0  17.5  13.3  82  1018   ---   WNW     6     6   ---   --- /
15/03/2008 12:20      15.0  12.0  17.5  13.3  82  1018   ---   WNW     6     6   ---   --- /
15/03/2008 13:50      15.0  12.0  17.5  13.3  82  1018   ---   WNW     6     6   ---   --- /
15/03/2008 14:50      17.0  11.0  18.5  11.9  68  1016   ---   NNE    14    14   ---   --- /
15/03/2008 15:50      17.0  12.0  18.8  11.3  72  1015   ---    NE    16    16   ---   --- /
15/03/2008 16:50      17.0  13.0  19.2  11.9  77  1015   ---    NE    14    14   ---   --- /
15/03/2008 17:50      16.0  12.0  18.1   9.6  77  1015   ---    NE    18    18   ---   --- /
15/03/2008 18:50      15.0  12.0  17.5  12.0  82  1015   ---    SW     8     8   ---   --- /
15/03/2008 19:50      14.0  11.0  16.5   7.2  82  1015   ---   SSW    16    16   ---   --- /
15/03/2008 20:50      14.0  10.0  16.1  12.3  77  1016   ---   SSW     6     6   ---   --- /
15/03/2008 21:50      14.0  10.0  16.1  12.3  77  1016   ---   SSW     6     6   ---   --- /
15/03/2008 22:50      13.0   9.0  15.1  11.2  77  1016   ---   ESE     6     6   ---   --- /
15/03/2008 23:50      13.0  10.0  15.5   8.9  82  1016   ---   ENE    10    10   ---   --- /
16/03/2008 00:50      13.0  10.0  15.5   8.9  82  1016   ---     E    10    10   ---   --- /
16/03/2008 01:50      13.0  10.0  15.5   8.9  82  1016   ---     E    10    10   ---   --- /
16/03/2008 02:50      13.0  10.0  15.5   8.9  82  1016   ---     E    10    10   ---   --- /
16/03/2008 03:50      13.0  10.0  15.5   8.9  82  1016   ---     E    10    10   ---   --- /
16/03/2008 04:50      13.0   9.0  15.1  13.0  77  1015   ---     S     5     5   ---   --- /
16/03/2008 05:50      12.0   9.0  14.5  12.0  82  1015   ---     E     5     5   ---   --- /
16/03/2008 06:50      12.0   8.0  14.1  12.0  77  1015   ---   SSE     5     5   ---   --- /
16/03/2008 07:50      13.0   9.0  15.1  13.0  77  1016   ---   SSW     5     5   ---   --- /
16/03/2008 08:50      15.0  10.0  16.8  15.0  72  1016   ---     N     5     5   ---   --- /
16/03/2008 09:50      15.0  11.0  17.1  13.3  77  1015   ---   NNE     6     6   ---   5.4 Broken Clouds/
16/03/2008 10:50      15.0  11.0  17.1  13.3  77  1015   ---   NNE     6     6   ---   0.9 Broken Clouds/
16/03/2008 11:50      16.0  12.0  18.1  12.5  77  1015   ---    NE    10    10   ---   0.9 Broken Clouds/
16/03/2008 12:50      16.0  12.0  18.1  12.5  77  1014   ---   NNE    10    10   ---   0.9 Broken Clouds/
16/03/2008 13:50      16.0  11.0  17.8  16.0  72  1013   ---     N     2     2   ---   0.9 Broken Clouds/
16/03/2008 14:20      17.0  11.0  18.5  15.5  68  1013   ---   WNW     6     6   ---   0.9 Broken Clouds/
16/03/2008 15:50      17.0  12.0  18.8  17.0  72  1013   ---     N     5     5   ---   0.9 Broken Clouds/
16/03/2008 16:50      18.0  12.0  19.5  11.3  68  1012   ---   SSW    23    23   ---   0.9 Scattered Clouds/
16/03/2008 17:50      18.0  11.0  19.2  15.0  64  1012   ---     N    10    10   ---   --- /
16/03/2008 18:50      16.0  12.0  18.1   8.7  77  1012   ---    SW    21    21   ---   --- /
16/03/2008 19:50      16.0  11.0  17.8   9.6  72  1013   ---   SSW    18    18   ---   --- /
16/03/2008 20:50      16.0  11.0  17.8   8.4  72  1014   ---   SSW    23    23   ---   0.7 Scattered Clouds/
16/03/2008 21:50      16.0  11.0  17.8   8.4  72  1013   ---   SSW    23    23   ---   0.7 Broken Clouds/
16/03/2008 22:50      16.0  11.0  17.8   9.6  72  1013   ---   SSW    18    18   ---   0.7 Broken Clouds/
16/03/2008 23:50      16.0  12.0  18.1  10.6  77  1013   ---   WSW    14    14   ---   0.6 Broken Clouds/
17/03/2008 00:50      15.0  12.0  17.5  10.0  82  1014   ---     W    13    13   ---   0.6 Broken Clouds/
17/03/2008 01:50      14.0  11.0  16.5  14.0  82  1013   ---     N     5     5   ---   0.7 Broken Clouds/
17/03/2008 02:50      15.0  12.0  17.5  11.3  82  1014   ---   WNW    10    10   ---   0.7 Broken Clouds/
17/03/2008 03:50      14.0  12.0  17.0  14.0  88  1013   ---     N     2     2   ---   0.6 Broken Clouds/
17/03/2008 04:50      13.0  11.0  15.9  13.0  88  1013   ---     N     5     5   ---   0.9 Broken Clouds/
17/03/2008 05:50      13.0   9.0  15.1  13.0  77  1013   ---     N     5     5   ---   0.9 Broken Clouds/
17/03/2008 06:50      13.0   8.0  14.8  13.0  72  1013   ---     N     5     5   ---   0.9 Scattered Clouds/
17/03/2008 07:20      12.0   7.0  13.7  10.1  71  1013   ---     S     6     6   ---   --- /
17/03/2008 08:50      15.0  11.0  17.1  12.0  77  1014   ---    SW     8     8   ---   --- /
17/03/2008 09:50      15.0  11.0  17.1  11.3  77  1014   ---   WSW    10    10   ---   0.7 Few Clouds/
17/03/2008 10:50      15.0  11.0  17.1   9.3  77  1014   ---   WSW    14    14   ---   0.7 Few Clouds/
17/03/2008 11:50      16.0  11.0  17.8   9.9  72  1014   ---     W    16    16   ---   0.7 Few Clouds/
17/03/2008 12:50      16.0   9.0  17.2   9.0  63  1014   ---     W    19    19   ---   0.7 Few Clouds/
17/03/2008 13:50      16.0   9.0  17.2   7.6  63  1014   ---     W    27    27   ---   --- /
17/03/2008 14:50      15.0   9.0  16.5   5.6  67  1013   ---     W    31    31   ---   0.7 Few Clouds/
17/03/2008 15:50      15.0  10.0  16.8   7.3  72  1012   ---     W    21    21   ---   0.7 Few Clouds/
17/03/2008 16:50      15.0   9.0  16.5   6.9  67  1012   ---     W    23    23   ---   0.7 Few Clouds/
17/03/2008 17:50      15.0   9.0  16.5   8.2  67  1012   ---     W    18    18   ---   0.7 Few Clouds/
17/03/2008 17:50      15.0   9.0  16.5   8.2  67  1012   ---     W    18    18   ---   0.7 Few Clouds/None reported
17/03/2008 18:50      15.0   9.0  16.5   8.2  67  1012   ---   WSW    18    18   ---   --- /
17/03/2008 19:50      15.0  10.0  16.8   7.6  72  1013   ---   WSW    19    19   ---   --- /
17/03/2008 20:50      13.0   8.0  14.8   5.8  72  1012   ---     S    16    16   ---   --- /
17/03/2008 22:50      13.0   7.0  14.4   4.8  67  1012   ---     S    19    19   ---   --- /
17/03/2008 23:50      14.0   7.0  15.2   5.8  63  1012   ---   SSW    21    21   ---   --- /
18/03/2008 00:50      13.0   7.0  14.4   5.5  67  1011   ---   SSW    18    18   ---   --- /
18/03/2008 01:50      13.0   6.0  14.2   6.6  62  1011   ---     S    14    14   ---   0.7 Few Clouds/
18/03/2008 02:50      13.0   6.0  14.2   7.4  62  1010   ---     S    13    13   ---   0.7 Few Clouds/
18/03/2008 03:50      13.0   8.0  14.8   2.6  72  1010   ---   SSW    31    31   ---   0.7 Few Clouds/
18/03/2008 04:50      14.0   8.0  15.5   3.9  67  1009   ---     S    32    32   ---   --- /
18/03/2008 05:50      14.0   7.0  15.2   3.9  63  1009   ---     S    32    32   ---   --- /
18/03/2008 06:50      14.0   5.0  14.7   5.5  55  1009   ---     S    23    23   ---   --- /
18/03/2008 07:50      15.0   5.0  15.5   5.3  51  1009   ---   SSW    34    34   ---   --- /
18/03/2008 08:50      16.0   7.0  16.7   6.5  55  1010   ---     S    37    37   ---   --- /
18/03/2008 09:20      17.0   7.0  17.5   8.1  52  1010   ---     S    37    37   ---   --- /
18/03/2008 10:50      19.0   9.0  19.6  11.2  52  1009   ---     S    37    37   ---   --- /
18/03/2008 11:50      20.0   8.0  20.2  12.5  46  1008   ---   SSW    42    42   ---   --- /
18/03/2008 12:50      21.0   7.0  21.0  14.3  40  1008   ---     S    39    39   ---   --- /
18/03/2008 13:50      22.0   7.0  21.9  15.9  38  1006   ---   SSW    37    37   ---   --- /
18/03/2008 14:50      22.0   7.0  21.9  15.7  38  1006   ---   SSW    40    40   ---   --- /
18/03/2008 15:50      21.0   9.0  21.3  14.6  46  1006   ---   SSW    32    32   ---   --- /
18/03/2008 16:50      19.0  11.0  20.0  12.0  60  1006   ---    SW    27    27   ---   --- /
18/03/2008 17:50      18.0  10.0  19.0  10.4  60  1007   ---    SW    29    29   ---   --- /
18/03/2008 18:50      18.0   9.0  18.8  10.4  56  1007   ---   SSW    29    29   ---   --- /
18/03/2008 19:50      17.0   8.0  17.7   7.9  55  1007   ---     S    40    40   ---   --- /
18/03/2008 20:50      17.0   8.0  17.7   8.0  55  1007   ---   SSW    39    39   ---   --- /
18/03/2008 21:20      17.0   8.0  17.7   8.0  55  1007   ---   SSW    39    39   ---   --- /
18/03/2008 22:50      17.0   8.0  17.7   8.4  55  1007   ---     S    34    34   ---   --- /
18/03/2008 23:50      16.0   9.0  17.2   6.4  63  1007   ---     S    39    58   ---   0.9 Scattered Clouds/
19/03/2008 00:50      16.0   9.0  17.2   7.4  63  1007   ---     S    29    29   ---   0.9 Scattered Clouds/
19/03/2008 01:50      16.0   9.0  17.2   7.4  63  1007   ---   SSW    29    29   ---   0.9 Scattered Clouds/
19/03/2008 02:50      16.0  10.0  17.5   7.8  68  1007   ---   SSW    26    45   ---   0.9 Scattered Clouds/
19/03/2008 03:50      15.0  10.0  16.8   7.6  72  1007   ---   SSW    19    19   ---   0.9 Scattered Clouds/
19/03/2008 04:50      15.0  10.0  16.8   6.9  72  1007   ---   SSW    23    23   ---   0.9 Scattered Clouds/
19/03/2008 05:50      15.0  12.0  17.5   5.9  82  1008   ---     W    29    29   ---   0.6 Scattered Clouds/
19/03/2008 06:50      15.0  12.0  17.5   5.3  82  1008   ---     W    34    34   ---   0.4 Scattered Clouds/
19/03/2008 07:50      15.0  12.0  17.5   6.1  82  1008   ---     W    27    27   ---   0.3 Few Clouds/
19/03/2008 08:50      15.0  12.0  17.5   7.3  82  1009   ---     W    21    21   ---   0.3 Scattered Clouds/
19/03/2008 09:50      15.0  12.0  17.5   8.2  82  1008   ---     W    18    18   ---   0.3 Scattered Clouds/
19/03/2008 10:50      15.0  12.0  17.5  10.0  82  1009   ---     W    13    13   ---   0.3 Scattered Clouds/
19/03/2008 11:50      16.0  11.0  17.8   9.0  72  1009   ---     W    19    19   ---   0.7 Few Clouds/
19/03/2008 12:50      17.0  11.0  18.5  14.3  68  1009   ---    SW     8     8   ---   0.7 Few Clouds/
19/03/2008 13:50      16.0  11.0  17.8   9.0  72  1008   ---     W    19    19   ---   0.7 Few Clouds/
19/03/2008 14:50      16.0  11.0  17.8   9.0  72  1008   ---   WNW    19    19   ---   0.7 Few Clouds/
19/03/2008 15:50      16.0  12.0  18.1   7.8  77  1008   ---     W    26    26   ---   0.5 Scattered Clouds/
19/03/2008 16:50      15.0  11.0  17.1   6.9  77  1008   ---     W    23    23   ---   0.5 Scattered Clouds/
19/03/2008 17:20      15.0  11.0  17.1   5.9  77  1008   ---   WNW    29    29   ---   0.5 Scattered Clouds/
19/03/2008 18:50      15.0  10.0  16.8   8.2  72  1008   ---     W    18    18   ---   0.5 Scattered Clouds/
19/03/2008 19:50      15.0   9.0  16.5  13.3  67  1009   ---     W     6     6   ---   0.6 Few Clouds/
19/03/2008 20:50      15.0   9.0  16.5   9.3  67  1010   ---     W    14    14   ---   0.6 Few Clouds/
19/03/2008 21:50      12.0   7.0  13.7   8.5  71  1010   ---     S     8     8   ---   0.7 Few Clouds/
19/03/2008 22:50      12.0   7.0  13.7   6.2  71  1010   ---     S    13    13   ---   0.7 Few Clouds/
19/03/2008 23:50      12.0   7.0  13.7   5.3  71  1010   ---   SSE    14    14   ---   0.7 Scattered Clouds/
20/03/2008 00:50      12.0   6.0  13.4   7.7  67  1010   ---   SSE    10    10   ---   0.7 Broken Clouds/
20/03/2008 01:50      11.0   7.0  13.1   4.9  76  1010   ---     S    13    13   ---   0.7 Scattered Clouds/
20/03/2008 02:50      12.0   7.0  13.7   8.5  71  1009   ---     S     8     8   ---   0.7 Scattered Clouds/
20/03/2008 03:50      12.0   6.0  13.4   6.2  67  1009   ---   SSE    13    13   ---   0.7 Scattered Clouds/
20/03/2008 04:50      12.0   6.0  13.4   6.2  67  1009   ---     S    13    13   ---   0.7 Scattered Clouds/
20/03/2008 05:50      12.0   7.0  13.7   5.3  71  1009   ---     S    14    14   ---   0.7 Scattered Clouds/
20/03/2008 06:50      13.0   8.0  14.8   7.4  72  1009   ---    SW    13    13   ---   0.7 Scattered Clouds/
20/03/2008 07:50      13.0   9.0  15.1   8.9  77  1009   ---   SSW    10    10   ---   0.7 Scattered Clouds/
20/03/2008 08:50      14.0   9.0  15.8   8.7  72  1010   ---    SW    13    13   ---   0.7 Scattered Clouds/
20/03/2008 09:50      15.0   9.0  16.5   9.3  67  1010   ---   SSW    14    14   ---   0.7 Scattered Clouds/
20/03/2008 10:50      15.0   9.0  16.5   8.2  67  1010   ---     W    18    18   ---   0.7 Scattered Clouds/
20/03/2008 11:50      15.0   9.0  16.5   8.2  67  1010   ---     W    18    18   ---   0.7 Scattered Clouds/
20/03/2008 12:50      15.0   9.0  16.5   7.6  67  1009   ---     W    19    19   ---   0.7 Scattered Clouds/
20/03/2008 13:50      15.0   9.0  16.5   8.2  67  1009   ---     W    18    18   ---   0.7 Scattered Clouds/
20/03/2008 14:50      15.0   9.0  16.5   8.6  67  1009   ---     W    16    16   ---   0.7 Broken Clouds/
20/03/2008 15:50      15.0   9.0  16.5   9.3  67  1008   ---   WSW    14    14   ---   0.7 Broken Clouds/
20/03/2008 16:50      14.0   9.0  15.8   6.2  72  1008   ---     W    19    19   ---   0.7 Broken Clouds/
20/03/2008 17:50      14.0   8.0  15.5   6.2  67  1008   ---     W    19    19   ---   0.7 Broken Clouds/
20/03/2008 18:50      14.0   9.0  15.8   7.2  72  1008   ---   WSW    16    16   ---   --- / Drizzle
20/03/2008 19:50      13.0   8.0  14.8   5.8  72  1008   ---    SW    16    16   ---   0.7 Broken Clouds/
20/03/2008 20:50      14.0   9.0  15.8   7.2  72  1008   ---     W    16    16   ---   0.7 Broken Clouds/
20/03/2008 21:50      14.0   9.0  15.8   5.8  72  1008   ---     W    21    21   ---   0.7 Broken Clouds/
20/03/2008 22:50      14.0   9.0  15.8  10.1  72  1008   ---   WSW    10    10   ---   0.7 Broken Clouds/
20/03/2008 23:50      14.0   8.0  15.5   5.8  67  1008   ---   WNW    21    21   ---   0.7 Broken Clouds/
21/03/2008 00:50      14.0   8.0  15.5   8.0  67  1008   ---   NNW    14    14   ---   0.6 Scattered Clouds/
21/03/2008 01:50      13.0   8.0  14.8   4.4  72  1008   ---   NNW    21    21   ---   0.6 Scattered Clouds/
21/03/2008 02:50      13.0   7.0  14.4   3.1  67  1007   ---   NNW    27    27   ---   0.6 Scattered Clouds/
21/03/2008 03:50      13.0   7.0  14.4   2.9  67  1007   ---    NW    29    29   ---   0.6 Scattered Clouds/
21/03/2008 04:50      12.0   6.0  13.4   1.9  67  1008   ---    NW    26    26   ---   0.6 Scattered Clouds/
21/03/2008 05:50      12.0   5.0  13.1   2.6  62  1008   ---    NW    23    23   ---   0.6 Scattered Clouds/
21/03/2008 06:50      12.0   5.0  13.1   3.0  62  1008   ---    NW    21    21   ---   0.6 Scattered Clouds/
21/03/2008 07:50      12.0   3.0  12.7   4.1  54  1009   ---    NW    18    18   ---   0.6 Scattered Clouds/
21/03/2008 08:50      13.0   4.0  13.7   3.1  54  1009   ---   WNW    27    27   ---   0.7 Broken Clouds/
21/03/2008 08:50      13.0   4.0  13.7   3.1  54  1009   ---   WNW    27    27   ---   0.7 Broken Clouds/None reported
21/03/2008 09:50      12.0   5.0  13.1   2.6  62  1000   ---    NW    23    23   ---   0.7 Broken Clouds/
21/03/2008 10:50      13.0   5.0  13.9   4.0  58  1010   ---    NW    23    23   ---   0.7 Broken Clouds/
21/03/2008 11:50      13.0   4.0  13.7   4.4  54  1009   ---   WNW    21    21   ---   0.7 Broken Clouds/
21/03/2008 13:50      13.0   5.0  13.9   2.6  58  1008   ---     W    31    31   ---   0.7 Scattered Clouds/
21/03/2008 14:50      13.0   3.0  13.5   2.4  51  1007   ---     W    32    32   ---   0.7 Scattered Clouds/
21/03/2008 15:50      13.0   4.0  13.7   2.6  54  1006   ---     W    31    31   ---   0.7 Scattered Clouds/
21/03/2008 16:50      14.0   5.0  14.7   3.4  55  1006   ---     W    37    37   ---   0.7 Scattered Clouds/
21/03/2008 17:50      13.0   5.0  13.9   2.4  58  1006   ---     W    32    32   ---   0.7 Broken Clouds/
21/03/2008 18:50      13.0   6.0  14.2   1.8  62  1005   ---     W    37    37   ---   0.7 Scattered Clouds/
21/03/2008 19:50      14.0   6.0  14.9   4.4  59  1005   ---   WSW    29    29   ---   0.7 Scattered Clouds/
21/03/2008 20:50      14.0   7.0  15.2   5.8  63  1006   ---   WSW    21    43   ---   0.7 Broken Clouds/
21/03/2008 21:50      14.0   7.0  15.2   3.4  63  1005   ---     W    37    37   ---   0.7 Broken Clouds/
21/03/2008 22:50      14.0   7.0  15.2   4.6  63  1005   ---     W    27    27   ---   0.7 Broken Clouds/
21/03/2008 23:50      13.0   6.0  14.2   2.9  62  1005   ---   WSW    29    29   ---   0.7 Broken Clouds/
22/03/2008 00:50      12.0   5.0  13.1   1.4  62  1004   ---   WSW    29    29   ---   0.7 Scattered Clouds/
22/03/2008 01:50      12.0   5.0  13.1   1.4  62  1004   ---   WSW    29    29   ---   0.7 Scattered Clouds/
22/03/2008 02:50      12.0   3.0  12.7   1.4  54  1003   ---   WSW    29    29   ---   0.7 Scattered Clouds/
22/03/2008 03:50      12.0   3.0  12.7   1.4  54  1002   ---   WSW    29    29   ---   0.7 Scattered Clouds/
22/03/2008 04:50      12.0   4.0  12.9  -0.5  58  1001   ---   SSW    47    47   ---   0.7 Scattered Clouds/
22/03/2008 05:50      12.0   5.0  13.1  -0.2  62  1000   ---     S    43    43   ---   0.7 Scattered Clouds/
22/03/2008 06:50      13.0   6.0  14.2   1.8  62  1000   ---     S    37    37   ---   0.7 Scattered Clouds/
22/03/2008 07:50      14.0   7.0  15.2   3.9  63  1000   ---   SSW    32    32   ---   0.7 Scattered Clouds/
22/03/2008 08:50      15.0   7.0  15.9   4.5  59   999   ---   SSW    43    66   ---   0.7 Scattered Clouds/
22/03/2008 09:50      16.0   8.0  16.9   6.3  59  1000   ---   SSW    40    64   ---   0.7 Scattered Clouds/
22/03/2008 10:50      15.0   8.0  16.2   4.5  63  1000   ---     S    43    43   ---   0.7 Scattered Clouds/
22/03/2008 11:50      17.0   7.0  17.5   7.7  52   999   ---   SSW    43    43   ---   0.7 Scattered Clouds/
22/03/2008 12:50      17.0   8.0  17.7   7.7  55   999   ---   SSW    43    43   ---   0.7 Scattered Clouds/
22/03/2008 13:50      18.0   7.0  18.4   9.4  49   997   ---   SSW    40    40   ---   0.8 Scattered Clouds/
22/03/2008 14:50      18.0   8.0  18.6   9.6  52   996   ---     S    37    56   ---   0.8 Few Clouds/
22/03/2008 15:50      17.0   8.0  17.7   8.7  55   996   ---   SSW    31    31   ---   0.8 Few Clouds/
22/03/2008 16:20      17.0   7.0  17.5   7.9  52   996   ---   SSW    40    58   ---   0.8 Few Clouds/
22/03/2008 17:50      15.0   7.0  15.9   5.3  59   996   ---     S    34    60   ---   0.8 Scattered Clouds/
22/03/2008 18:50      15.0   7.0  15.9   5.9  59   997   ---   SSW    29    29   ---   0.8 Broken Clouds/
22/03/2008 19:50      15.0   7.0  15.9   5.4  59   998   ---   SSW    32    56   ---   0.8 Broken Clouds/
22/03/2008 20:50      15.0   6.0  15.7   4.9  55   998   ---   SSW    37    37   ---   0.7 Scattered Clouds/
22/03/2008 21:50      15.0   6.0  15.7   5.6  55   998   ---   SSW    31    31   ---   0.7 Scattered Clouds/
22/03/2008 22:50      15.0   5.0  15.5   4.9  51   998   ---     S    37    37   ---   0.7 Scattered Clouds/
22/03/2008 23:50      15.0   5.0  15.5   5.6  51   998   ---   SSW    31    31   ---   0.7 Scattered Clouds/
23/03/2008 00:50      16.0   4.0  16.2   7.4  45   998   ---   SSW    29    29   ---   0.7 Scattered Clouds/
23/03/2008 01:50      15.0   5.0  15.5   6.1  51   997   ---   SSW    27    27   ---   0.7 Scattered Clouds/
23/03/2008 02:50      14.0   4.0  14.5   5.8  51   997   ---   SSW    21    21   ---   0.7 Scattered Clouds/
23/03/2008 03:50      15.0   3.0  15.2   5.9  44   996   ---   SSW    29    29   ---   --- /
23/03/2008 04:50      15.0   2.0  15.0   5.6  41   996   ---   SSW    31    31   ---   --- /
23/03/2008 05:50      14.0   2.0  14.2   4.9  44   995   ---   SSW    26    26   ---   --- /
23/03/2008 06:50      14.0   4.0  14.5   3.4  51   995   ---    SW    37    37   ---   --- /
23/03/2008 07:50      14.0   4.0  14.5   3.1  51   995   ---   SSW    42    42   ---   --- /
23/03/2008 08:50      17.0   5.0  17.2   7.8  45   995   ---   SSW    42    42   ---   --- /
23/03/2008 09:50      18.0   7.0  18.4   9.3  49   996   ---   SSW    43    74   ---   --- /
23/03/2008 10:50      18.0   9.0  18.8   8.9  56   996   ---   SSW    51    51   ---   0.9 Few Clouds/
23/03/2008 11:50      19.0   9.0  19.6  10.7  52   996   ---   SSW    45    45   ---   0.9 Scattered Clouds/
23/03/2008 12:50      19.0   9.0  19.6  10.7  52   996   ---   SSW    45    45   ---   0.8 Scattered Clouds/
23/03/2008 13:50      19.0  10.0  19.8  11.1  56   996   ---    SW    39    39   ---   0.7 Scattered Clouds/
23/03/2008 14:50      19.0   7.0  19.2  11.0  46   996   ---    SW    40    40   ---   0.7 Scattered Clouds/
23/03/2008 15:50      18.0   7.0  18.4   9.9  49   996   ---    SW    34    34   ---   0.7 Broken Clouds/
23/03/2008 16:50      17.0   9.0  18.0   7.7  59   997   ---   WSW    43    43   ---   0.7 Broken Clouds/
23/03/2008 17:50      17.0  10.0  18.2   8.9  63   998   ---   WSW    29    29   ---   0.7 Broken Clouds/
23/03/2008 18:50      16.0   9.0  17.2   8.7  63   999   ---    SW    21    21   ---   0.7 Broken Clouds/
23/03/2008 19:50      16.0   9.0  17.2   7.2  63  1000   ---    SW    31    31   ---   0.7 Broken Clouds/
23/03/2008 20:50      15.0   9.0  16.5   8.2  67  1000   ---   WSW    18    18   ---   0.7 Broken Clouds/
23/03/2008 21:50      14.0   9.0  15.8   6.2  72  1001   ---    SW    19    19   ---   0.7 Broken Clouds/
23/03/2008 22:50      14.0   9.0  15.8   3.8  72  1002   ---     W    34    34   ---   0.7 Broken Clouds/
23/03/2008 23:50      14.0   8.0  15.5   4.9  67  1001   ---     W    26    26   ---   0.7 Scattered Clouds/
24/03/2008 00:50      13.0   8.0  14.8   3.1  72  1002   ---     W    27    27   ---   0.7 Broken Clouds/
24/03/2008 01:50      13.0   5.0  13.9   3.1  58  1000   ---     W    27    27   ---   0.7 Broken Clouds/
24/03/2008 02:50      13.0   5.0  13.9   3.1  58  1000   ---     W    27    27   ---   0.7 Broken Clouds/
24/03/2008 03:50      12.0   5.0  13.1   2.6  62  1000   ---     W    23    23   ---   --- Overcast/ Light Rain
24/03/2008 04:50      11.0   6.0  12.7   1.1  71  1000   ---     W    23    23   ---   --- Overcast/ Light Rain
24/03/2008 05:50      10.0   6.0  12.1   1.8  76  1000   ---   WSW    16    16   ---   --- Overcast/ Light Rain
24/03/2008 06:50       9.0   5.0  11.1  -0.0  76  1001   ---     S    18    18   ---   --- Overcast/ Light Rain
24/03/2008 07:50       9.0   5.0  11.1  -1.3  76  1001   ---     S    21    21   ---   0.5 Broken Clouds/
24/03/2008 08:50      11.0   5.0  12.4  -1.3  66  1001   ---    SW    37    37   ---   0.6 Scattered Clouds/
24/03/2008 09:50      12.0   6.0  13.4   0.3  67  1002   ---   WSW    37    37   ---   0.6 Broken Clouds/
24/03/2008 10:50      11.0   5.0  12.4  -2.1  66  1001   ---   WNW    47    71   ---   --- Overcast/ Light Rain
24/03/2008 11:50      11.0   6.0  12.7  -0.1  71  1002   ---   WSW    29    29   ---   --- Overcast/ Light Rain
24/03/2008 12:50      12.0   4.0  12.9  -0.4  58  1002   ---     W    45    45   ---   0.6 Broken Clouds/
24/03/2008 13:50      13.0   5.0  13.9   1.6  58  1002   ---   WSW    40    40   ---   0.7 Broken Clouds/
24/03/2008 14:50      13.0   5.0  13.9   1.5  58  1001   ---   WSW    42    42   ---   0.7 Broken Clouds/
24/03/2008 15:50      13.0   4.0  13.7   1.4  54  1000   ---   WSW    43    43   ---   0.7 Broken Clouds/
24/03/2008 16:50      11.0   6.0  12.7  -2.4  71  1000   ---   WSW    55    55   ---   --- Overcast/ Light Rain
24/03/2008 17:50      12.0   5.0  13.1  -0.8  62  1001   ---   WSW    60    60   ---   0.4 Broken Clouds/
24/03/2008 18:50      13.0   4.0  13.7   0.8  54  1000   ---     W    66    66   ---   0.6 Broken Clouds/
24/03/2008 19:50      13.0   4.0  13.7   0.8  54  1001   ---     W    71    71   ---   0.6 Broken Clouds/
24/03/2008 20:50      13.0   4.0  13.7   0.8  54  1002   ---     W    66    87   ---   0.6 Broken Clouds/
24/03/2008 21:50      12.0   2.0  12.5  -0.8  50  1003   ---     W    69    95   ---   0.6 Scattered Clouds/
24/03/2008 22:50      12.0   5.0  13.1  -0.8  62  1004   ---     W    69    92   ---   0.6 Scattered Clouds/
24/03/2008 23:50      12.0   4.0  12.9  -0.8  58  1005   ---     W    63    80   ---   0.6 Scattered Clouds/
25/03/2008 00:50      13.0   5.0  13.9   0.8  58  1005   ---     W    58    84   ---   0.6 Scattered Clouds/
25/03/2008 01:50      13.0   5.0  13.9   0.8  58  1006   ---     W    56    76   ---   0.6 Scattered Clouds/
25/03/2008 02:50      13.0   5.0  13.9   0.8  58  1006   ---     W    56    56   ---   0.6 Scattered Clouds/
25/03/2008 03:50      13.0   5.0  13.9   0.9  58  1006   ---     W    50    69   ---   0.6 Scattered Clouds/
25/03/2008 04:50      14.0   8.0  15.5   2.4  67  1007   ---     W    51    51   ---   0.6 Scattered Clouds/
25/03/2008 05:50      14.0   8.0  15.5   2.9  67  1007   ---     W    43    43   ---   0.6 Scattered Clouds/
25/03/2008 06:50      14.0   9.0  15.8   3.1  72  1007   ---     W    42    42   ---   0.6 Scattered Clouds/
25/03/2008 07:50      14.0   9.0  15.8   2.8  72  1007   ---     W    45    45   ---   0.6 Scattered Clouds/
25/03/2008 08:50      14.0   9.0  15.8   2.9  72  1008   ---     W    43    43   ---   0.6 Scattered Clouds/
25/03/2008 09:50      15.0   9.0  16.5   5.3  67  1008   ---     W    34    34   ---   0.6 Scattered Clouds/
25/03/2008 10:50      15.0   9.0  16.5   4.0  67  1008   ---     W    51    51   ---   0.6 Scattered Clouds/
25/03/2008 11:50      15.0   9.0  16.5   4.1  67  1008   ---     W    50    50   ---   0.6 Scattered Clouds/
25/03/2008 12:50      15.0  10.0  16.8   4.5  72  1008   ---     W    43    43   ---   0.6 Scattered Clouds/
25/03/2008 13:50      15.0  10.0  16.8   4.7  72  1008   ---     W    42    42   ---   0.6 Broken Clouds/
25/03/2008 14:50      15.0  10.0  16.8   4.9  72  1008   ---   WSW    39    39   ---   0.6 Broken Clouds/
25/03/2008 15:50      16.0  10.0  17.5   6.3  68  1007   ---   WSW    40    40   ---   0.6 Broken Clouds/
25/03/2008 16:20      16.0  10.0  17.5   6.3  68  1007   ---   WSW    40    40   ---   0.6 Scattered Clouds/
25/03/2008 17:50      16.0  10.0  17.5   6.5  68  1008   ---   WSW    37    37   ---   0.6 Few Clouds/
25/03/2008 18:50      15.0  10.0  16.8   5.4  72  1008   ---   WSW    32    32   ---   0.6 Few Clouds/
25/03/2008 19:50      15.0  10.0  16.8   5.6  72  1008   ---    SW    31    31   ---   0.6 Few Clouds/
25/03/2008 20:50      14.0  10.0  16.1   3.8  77  1009   ---    SW    34    34   ---   0.6 Few Clouds/
25/03/2008 21:50      15.0  10.0  16.8   5.3  72  1009   ---   WSW    34    34   ---   0.7 Few Clouds/
25/03/2008 22:50      15.0   9.0  16.5   5.4  67  1009   ---   WSW    32    32   ---   0.7 Few Clouds/
25/03/2008 23:50      15.0   9.0  16.5   5.3  67  1009   ---   WSW    34    34   ---   0.7 Few Clouds/
26/03/2008 00:50      15.0   9.0  16.5   5.3  67  1010   ---     W    34    53   ---   0.7 Few Clouds/
26/03/2008 01:50      15.0  10.0  16.8   5.3  72  1010   ---     W    34    34   ---   0.7 Scattered Clouds/
26/03/2008 02:50      14.0   9.0  15.8   4.1  72  1009   ---     W    31    31   ---   0.7 Few Clouds/
26/03/2008 03:50      15.0  10.0  16.8   5.6  72  1009   ---     W    31    31   ---   0.7 Scattered Clouds/
26/03/2008 04:50      14.0   9.0  15.8   3.4  72  1009   ---     W    37    37   ---   0.7 Scattered Clouds/
26/03/2008 05:50      14.0  10.0  16.1   3.4  77  1009   ---     W    37    37   ---   0.7 Scattered Clouds/
26/03/2008 06:50      14.0   9.0  15.8   3.4  72  1009   ---     W    37    37   ---   0.7 Broken Clouds/
26/03/2008 07:50      14.0   9.0  15.8   3.3  72  1010   ---     W    39    39   ---   0.7 Broken Clouds/
26/03/2008 08:20      14.0   9.0  15.8   3.8  72  1010   ---     W    34    34   ---   0.7 Broken Clouds/
26/03/2008 09:50      15.0   9.0  16.5   5.4  67  1010   ---     W    32    32   ---   0.7 Broken Clouds/
26/03/2008 10:50      15.0   9.0  16.5   5.4  67  1011   ---     W    32    32   ---   0.7 Broken Clouds/
26/03/2008 11:50      15.0   9.0  16.5   5.6  67  1011   ---     W    31    31   ---   0.7 Broken Clouds/
26/03/2008 12:50      15.0   9.0  16.5   6.4  67  1011   ---   WSW    26    26   ---   0.7 Scattered Clouds/
26/03/2008 13:50      15.0   9.0  16.5   6.1  67  1010   ---     W    27    27   ---   0.7 Scattered Clouds/
26/03/2008 14:50      15.0   9.0  16.5   6.4  67  1009   ---   WSW    26    26   ---   0.7 Scattered Clouds/
26/03/2008 15:50      15.0   9.0  16.5   6.4  67  1009   ---     W    26    26   ---   0.7 Scattered Clouds/
26/03/2008 16:50      16.0  10.0  17.5   7.6  68  1009   ---     W    27    27   ---   0.7 Scattered Clouds/
26/03/2008 17:50      16.0  10.0  17.5   8.4  68  1009   ---     W    23    23   ---   0.7 Scattered Clouds/
26/03/2008 18:50      15.0  10.0  16.8   8.2  72  1009   ---    SW    18    18   ---   0.6 Few Clouds/
26/03/2008 19:50      15.0   9.0  16.5   7.6  67  1009   ---    SW    19    19   ---   0.6 Few Clouds/
26/03/2008 20:50      15.0  10.0  16.8   6.9  72  1009   ---    SW    23    23   ---   0.6 Few Clouds/
26/03/2008 21:50      14.0   9.0  15.8   6.2  72  1008   ---   SSW    19    19   ---   0.6 Few Clouds/
26/03/2008 22:50      14.0   9.0  15.8   6.9  72  1008   ---   SSW    18    18   ---   0.6 Few Clouds/
26/03/2008 23:50      14.0   9.0  15.8   4.1  72  1007   ---     S    31    31   ---   0.6 Few Clouds/
27/03/2008 00:50      14.0   9.0  15.8   4.6  72  1007   ---     S    27    27   ---   0.6 Broken Clouds/
27/03/2008 01:50      14.0   9.0  15.8   4.9  72  1006   ---     S    26    43   ---   0.6 Broken Clouds/
27/03/2008 02:50      14.0   9.0  15.8   4.9  72  1004   ---     S    26    26   ---   0.6 Broken Clouds/
27/03/2008 03:50      14.0   7.0  15.2   4.1  63  1003   ---   SSW    31    31   ---   0.6 Broken Clouds/
27/03/2008 04:50      17.0   7.0  17.5   8.9  52  1002   ---   SSW    29    29   ---   0.6 Broken Clouds/
27/03/2008 05:50      15.0   6.0  15.7   6.4  55  1002   ---   SSW    26    26   ---   0.6 Broken Clouds/
27/03/2008 06:50      12.0   8.0  14.1   1.4  77  1002   ---     S    29    45   ---   --- Overcast/ Rain
27/03/2008 07:50      14.0   8.0  15.5   4.6  67  1001   ---     S    27    45   ---   0.7 Broken Clouds/
27/03/2008 08:50      10.0   8.0  12.9   0.5  87  1002   ---   SSW    19    19   ---   0.4 Broken Clouds/
27/03/2008 09:20      10.0   8.0  12.9   1.4  87  1001   ---     S    18    18   ---   --- Overcast/ Light Rain
27/03/2008 10:50      11.0   7.0  13.1   2.7  76  1001   ---     S    18    18   ---   0.4 Overcast/
27/03/2008 11:20      12.0   8.0  14.1   1.6  77  1000   ---     S    27    27   ---   --- Overcast/ Rain
27/03/2008 12:50      14.0   6.0  14.9   8.7  59   999   ---     S    13    13   ---   0.6 Broken Clouds/
27/03/2008 13:50      12.0   8.0  14.1   4.1  77   998   ---    SW    18    18   ---   --- Overcast/ Light Rain
27/03/2008 14:50      13.0   8.0  14.8   6.6  72   998   ---     S    14    14   ---   0.6 Broken Clouds/
27/03/2008 15:50      12.0   8.0  14.1   4.5  77   998   ---     S    16    16   ---   0.6 Broken Clouds/
27/03/2008 16:50      13.0   7.0  14.4   7.4  67   998   ---     S    13    13   ---   --- Overcast/ Light Rain
27/03/2008 17:50      12.0   8.0  14.1  12.0  77   999   ---     N     5     5   ---   0.6 Broken Clouds/
27/03/2008 18:50      13.0  10.0  15.5   1.5  82   999   ---   WNW    42    42   ---   --- Overcast/ Light Rain
27/03/2008 19:50      12.0   9.0  14.5   0.8  82  1001   ---    NW    32    32   ---   --- Overcast/ Light Rain
27/03/2008 20:50      13.0   8.0  14.8   2.6  72  1002   ---    NW    31    31   ---   --- Overcast/ Light Rain
27/03/2008 21:50      13.0   8.0  14.8   3.4  72  1002   ---    NW    26    26   ---   --- Overcast/ Light Rain
27/03/2008 22:50      12.0   7.0  13.7  -0.2  71  1002   ---    NW    43    63   ---   --- Overcast/ Rain
27/03/2008 23:50      12.0   9.0  14.5   0.8  82  1002   ---   WNW    32    32   ---   --- Overcast/ Light Rain
28/03/2008 00:50      14.0   6.0  14.9   3.4  59  1002   ---    NW    37    37   ---   0.6 Scattered Clouds/
28/03/2008 01:50      14.0   4.0  14.5   3.1  51  1002   ---    NW    42    42   ---   0.6 Scattered Clouds/
28/03/2008 02:50      13.0   4.0  13.7   1.8  54  1002   ---    NW    39    39   ---   0.6 Scattered Clouds/
28/03/2008 03:50      13.0   4.0  13.7   2.2  54  1002   ---    NW    34    34   ---   0.6 Scattered Clouds/
28/03/2008 04:50      13.0   4.0  13.7   2.2  54  1002   ---    NW    34    34   ---   0.6 Scattered Clouds/
28/03/2008 05:50      13.0   4.0  13.7   2.2  54  1002   ---    NW    34    34   ---   0.6 Scattered Clouds/
28/03/2008 06:50      13.0   4.0  13.7   2.2  54  1002   ---    NW    34    34   ---   0.6 Scattered Clouds/
28/03/2008 07:50      13.0   5.0  13.9   2.4  58  1002   ---    NW    32    32   ---   0.6 Scattered Clouds/
28/03/2008 08:50      13.0   5.0  13.9   2.6  58  1003   ---    NW    31    31   ---   0.7 Scattered Clouds/
28/03/2008 09:50      12.0   6.0  13.4   1.4  67  1003   ---   NNW    29    29   ---   0.7 Broken Clouds/
28/03/2008 10:50      13.0   6.0  14.2   2.4  62  1004   ---    NW    32    32   ---   0.7 Broken Clouds/
28/03/2008 11:50      12.0   5.0  13.1   0.8  62  1005   ---   NNW    32    32   ---   0.7 Broken Clouds/
28/03/2008 12:50      13.0   8.0  14.8   1.8  72  1005   ---   NNW    39    39   ---   0.6 Broken Clouds/
28/03/2008 13:50      13.0   8.0  14.8   2.4  72  1005   ---   NNW    32    32   ---   0.6 Broken Clouds/
28/03/2008 14:20      13.0   8.0  14.8   1.8  72  1006   ---   NNW    39    39   ---   0.6 Broken Clouds/
28/03/2008 15:20      14.0   9.0  15.8   3.8  72  1006   ---   NNW    34    34   ---   0.6 Broken Clouds/
28/03/2008 16:20      14.0   9.0  15.8   4.1  72  1007   ---   NNW    31    31   ---   0.6 Broken Clouds/
28/03/2008 17:50      14.0  10.0  16.1   3.4  77  1008   ---     N    37    37   ---   0.6 Broken Clouds/
28/03/2008 18:50      14.0  10.0  16.1   3.3  77  1009   ---     N    39    39   ---   0.4 Broken Clouds/
28/03/2008 19:50      14.0  11.0  16.5   3.3  82  1010   ---     N    39    39   ---   0.4 Broken Clouds/
28/03/2008 20:50      14.0  11.0  16.5   3.4  82  1012   ---     N    37    37   ---   0.3 Scattered Clouds/
28/03/2008 21:50      14.0  12.0  17.0   4.1  88  1013   ---     N    31    31   ---   0.3 Scattered Clouds/
28/03/2008 22:50      14.0  12.0  17.0   7.2  88  1014   ---   NNE    16    16   ---   0.4 Scattered Clouds/
28/03/2008 23:50      14.0  11.0  16.5  14.0  82  1015   ---     N     2     2   ---   0.4 Scattered Clouds/
29/03/2008 00:50      12.0   9.0  14.5  12.0  82  1016   ---     N     3     3   ---   0.5 Scattered Clouds/
29/03/2008 01:50      10.0   8.0  12.9   6.2  87  1016   ---   SSE     8     8   ---   0.5 Scattered Clouds/
29/03/2008 02:50      10.0   7.0  12.5   6.2  82  1016   ---   SSE     8     8   ---   0.6 Few Clouds/
29/03/2008 03:50      11.0   8.0  13.5   7.3  82  1017   ---    SE     8     8   ---   --- /
29/03/2008 04:50      11.0   7.0  13.1  11.0  76  1017   ---     N     3     3   ---   --- /
29/03/2008 05:50      12.0   8.0  14.1  12.0  77  1017   ---     N     5     5   ---   --- /
29/03/2008 06:50      10.0   6.0  12.1   7.9  76  1018   ---   SSW     6     6   ---   --- /
29/03/2008 07:50      13.0  10.0  15.5  11.2  82  1018   ---   SSE     6     6   ---   --- /
29/03/2008 08:50      15.0  11.0  17.1  13.3  77  1019   ---   WSW     6     6   ---   --- /
29/03/2008 09:50      15.0  11.0  17.1  15.0  77  1020   ---     N     5     5   ---   --- /
29/03/2008 10:50      15.0  11.0  17.1  13.3  77  1021   ---     W     6     6   ---   --- /
29/03/2008 11:50      16.0  12.0  18.1  13.2  77  1021   ---   WNW     8     8   ---   0.2 Scattered Clouds/
29/03/2008 12:50      16.0  12.0  18.1  14.4  77  1021   ---   WNW     6     6   ---   0.2 Scattered Clouds/
29/03/2008 13:50      16.0  13.0  18.5  11.3  82  1021   ---    NW    13    13   ---   0.2 Scattered Clouds/
29/03/2008 14:50      15.0  12.0  17.5  12.0  82  1021   ---   NNW     8     8   ---   0.3 Scattered Clouds/
29/03/2008 15:20      16.0  12.0  18.1  13.2  77  1021   ---   NNW     8     8   ---   0.3 Scattered Clouds/
29/03/2008 16:50      15.0  11.0  17.1  13.3  77  1021   ---     N     6     6   ---   0.5 Scattered Clouds/
29/03/2008 17:50      15.0  11.0  17.1  12.0  77  1021   ---     N     8     8   ---   0.5 Scattered Clouds/
29/03/2008 18:50      14.0  11.0  16.5  10.1  82  1021   ---   NNE    10    10   ---   0.5 Scattered Clouds/
29/03/2008 19:50      13.0  10.0  15.5  13.0  82  1021   ---     N     5     5   ---   0.5 Scattered Clouds/
29/03/2008 20:50      13.0  10.0  15.5  11.2  82  1022   ---     N     6     6   ---   0.5 Few Clouds/
29/03/2008 21:50      12.0  10.0  14.9  12.0  88  1022   ---     N     5     5   ---   0.5 Few Clouds/
29/03/2008 22:50      12.0  10.0  14.9  12.0  88  1022   ---     N     5     5   ---   0.3 Few Clouds/
29/03/2008 23:50      11.0   9.0  13.9   7.3  87  1021   ---    SE     8     8   ---   0.3 Few Clouds/
30/03/2008 00:50      12.0  10.0  14.9  12.0  88  1021   ---     N     3     3   ---   0.3 Few Clouds/
30/03/2008 03:50      11.0   9.0  13.9   7.3  87  1021   ---     E     8     8   ---   --- /
30/03/2008 04:50      11.0   9.0  13.9   9.0  87  1021   ---     E     6     6   ---   --- /
30/03/2008 05:20      11.0   9.0  13.9   4.9  87  1021   ---   ENE    13    13   ---   --- /
30/03/2008 08:50      13.0  10.0  15.5  11.2  82  1021   ---   ENE     6     6   ---   --- /
30/03/2008 09:50      15.0   9.0  16.5  10.0  67  1021   ---   ENE    13    13   ---   --- /
30/03/2008 10:50      15.0  10.0  16.8   6.9  72  1021   ---    NE    23    23   ---   --- /
30/03/2008 11:50      16.0  11.0  17.8   7.6  72  1021   ---   ENE    27    27   ---   0.6 Scattered Clouds/
30/03/2008 12:50      16.0  11.0  17.8   8.4  72  1020   ---   ENE    23    23   ---   0.6 Scattered Clouds/
30/03/2008 13:50      16.0  11.0  17.8   7.6  72  1020   ---    NE    27    27   ---   0.6 Scattered Clouds/
30/03/2008 14:50      17.0  11.0  18.5   9.8  68  1019   ---    NE    23    23   ---   0.6 Scattered Clouds/
30/03/2008 15:50      16.0  11.0  17.8   7.6  72  1019   ---   ENE    27    27   ---   0.7 Scattered Clouds/
30/03/2008 16:50      17.0  11.0  18.5   9.3  68  1018   ---   ENE    26    26   ---   0.7 Scattered Clouds/
30/03/2008 17:50      17.0  11.0  18.5   9.8  68  1018   ---   ENE    23    23   ---   0.7 Scattered Clouds/
30/03/2008 18:20      17.0  11.0  18.5  10.4  68  1018   ---   ENE    19    19   ---   0.7 Scattered Clouds/
30/03/2008 19:50      15.0  11.0  17.1   9.3  77  1018   ---    SW    14    14   ---   0.7 Scattered Clouds/
30/03/2008 20:50      15.0  12.0  17.5   8.2  82  1018   ---    SW    18    18   ---   0.9 Scattered Clouds/
30/03/2008 21:50      14.0  11.0  16.5   8.0  82  1019   ---   SSW    14    14   ---   0.9 Few Clouds/
30/03/2008 22:50      14.0  11.0  16.5  14.0  82  1018   ---     N     3     3   ---   0.9 Few Clouds/
30/03/2008 23:50      13.0  10.0  15.5  11.2  82  1018   ---   ENE     6     6   ---   0.9 Few Clouds/
31/03/2008 00:50      13.0  10.0  15.5   8.9  82  1018   ---   ENE    10    10   ---   0.9 Few Clouds/
31/03/2008 01:50      12.0   9.0  14.5   8.5  82  1017   ---   SSW     8     8   ---   0.9 Few Clouds/
31/03/2008 02:50      13.0  10.0  15.5  13.0  82  1017   ---     N     5     5   ---   0.9 Few Clouds/
31/03/2008 03:50      12.0   9.0  14.5  12.0  82  1016   ---     N     0     0   ---   0.9 Few Clouds/
31/03/2008 04:50      12.0   8.0  14.1   6.2  77  1016   ---   SSW    13    13   ---   --- /
31/03/2008 05:50      13.0   7.0  14.4   5.5  67  1016   ---    SW    18    18   ---   --- /
31/03/2008 06:50      11.0   7.0  13.1  11.0  76  1015   ---     N     3     3   ---   --- /
31/03/2008 07:50      13.0   8.0  14.8  13.0  72  1015   ---     N     5     5   ---   0.7 Broken Clouds/
31/03/2008 08:50      14.0   9.0  15.8  10.1  72  1015   ---     W    10    10   ---   0.7 Broken Clouds/
31/03/2008 09:50      15.0  10.0  16.8  15.0  72  1015   ---     N     5     5   ---   0.7 Broken Clouds/
31/03/2008 10:50      15.0  10.0  16.8  12.0  72  1015   ---     N     8     8   ---   0.7 Broken Clouds/
31/03/2008 11:50      16.0  10.0  17.5  13.2  68  1015   ---   ENE     8     8   ---   0.6 Broken Clouds/
31/03/2008 12:50      18.0  10.0  19.0  12.4  60  1014   ---    SW    18    18   ---   0.7 Broken Clouds/
31/03/2008 13:50      18.0  11.0  19.2  12.4  64  1014   ---    SW    18    18   ---   0.7 Broken Clouds/
31/03/2008 14:50      18.0  11.0  19.2  13.8  64  1014   ---   WSW    13    13   ---   0.7 Broken Clouds/
31/03/2008 15:50      17.0  10.0  18.2  12.5  63  1013   ---   SSW    13    13   ---   0.6 Broken Clouds/
31/03/2008 16:50      16.0  10.0  17.5  14.4  68  1013   ---    NE     6     6   ---   0.6 Broken Clouds/
31/03/2008 17:50      16.0  11.0  17.8  14.4  72  1013   ---    NE     6     6   ---   0.6 Broken Clouds/
31/03/2008 18:50      16.0  11.0  17.8  11.3  72  1012   ---   ENE    13    13   ---   0.6 Broken Clouds/
31/03/2008 19:50      16.0  11.0  17.8  13.2  72  1012   ---    NE     8     8   ---   0.6 Broken Clouds/
31/03/2008 20:50      16.0  11.0  17.8  16.0  72  1012   ---     N     5     5   ---   0.6 Broken Clouds/
31/03/2008 21:50      15.0  10.0  16.8   8.2  72  1011   ---   ENE    18    18   ---   0.6 Broken Clouds/
31/03/2008 22:50      16.0  10.0  17.5   9.0  68  1011   ---   SSW    19    19   ---   0.6 Broken Clouds/
31/03/2008 23:50      15.0  10.0  16.8   7.3  72  1011   ---   WSW    21    21   ---   0.6 Broken Clouds/
01/04/2008 00:50      15.0   8.0  16.2   9.3  63  1011   ---   SSW    14    14   ---   0.6 Broken Clouds/
01/04/2008 02:50      15.0   9.0  16.5   6.9  67  1010   ---   ENE    23    23   ---   0.6 Broken Clouds/
01/04/2008 03:50      14.0   9.0  15.8   6.2  72  1009   ---   ENE    19    19   ---   0.6 Broken Clouds/
01/04/2008 04:50      14.0  11.0  16.5   7.2  82  1008   ---   ENE    16    16   ---   0.6 Broken Clouds/
01/04/2008 05:50      15.0   9.0  16.5   5.6  67  1007   ---     E    31    31   ---   0.6 Broken Clouds/
01/04/2008 06:50      15.0   9.0  16.5   4.9  67  1006   ---     E    37    37   ---   0.6 Broken Clouds/
01/04/2008 07:50      14.0  10.0  16.1   3.8  77  1007   ---     E    34    34   ---   0.6 Broken Clouds/
01/04/2008 08:50      15.0   8.0  16.2   7.6  63  1007   ---     E    19    43   ---   0.7 Broken Clouds/
01/04/2008 09:50      16.0  10.0  17.5   7.8  68  1007   ---     E    26    26   ---   0.7 Broken Clouds/
01/04/2008 10:20      16.0  11.0  17.8   8.4  72  1008   ---   ENE    23    23   ---   0.7 Broken Clouds/
01/04/2008 11:50      17.0   9.0  18.0  13.8  59  1008   ---   ESE    10    10   ---   0.7 Broken Clouds/
01/04/2008 12:50      18.0   7.0  18.4  13.2  49  1009   ---     N    14    40   ---   0.7 Broken Clouds/
01/04/2008 13:50      15.0   9.0  16.5   8.2  67  1009   ---     W    18    18   ---   0.7 Broken Clouds/
01/04/2008 14:50      17.0   6.0  17.4  10.4  48  1010   ---   ENE    19    19   ---   0.7 Broken Clouds/
01/04/2008 15:50      17.0   6.0  17.4  10.4  48  1010   ---     E    19    19   ---   0.7 Broken Clouds/
01/04/2008 16:50      17.0   7.0  17.5  13.8  52  1010   ---     E    10    10   ---   0.7 Broken Clouds/
01/04/2008 17:50      16.0   9.0  17.2   9.9  63  1011   ---     W    16    16   ---   0.7 Broken Clouds/
01/04/2008 18:50      15.0   9.0  16.5  10.0  67  1012   ---     W    13    13   ---   0.7 Broken Clouds/
01/04/2008 19:50      15.0   9.0  16.5  10.0  67  1012   ---   WNW    13    13   ---   0.7 Broken Clouds/
01/04/2008 20:50      14.0   8.0  15.5  12.3  67  1013   ---   SSW     6     6   ---   0.7 Broken Clouds/
01/04/2008 21:50      14.0   8.0  15.5  10.1  67  1014   ---    SW    10    10   ---   0.7 Broken Clouds/
01/04/2008 22:50      13.0   8.0  14.8  11.2  72  1014   ---   SSW     6     6   ---   0.7 Scattered Clouds/
01/04/2008 23:50      12.0   8.0  14.1   7.7  77  1015   ---   SSE    10    10   ---   0.7 Scattered Clouds/
02/04/2008 00:50      12.0   8.0  14.1  12.0  77  1015   ---     N     5     5   ---   0.7 Scattered Clouds/
02/04/2008 01:50      12.0   8.0  14.1   8.5  77  1015   ---   SSE     8     8   ---   0.5 Few Clouds/
02/04/2008 02:50      12.0   9.0  14.5  12.0  82  1015   ---     N     5     5   ---   0.5 Few Clouds/
02/04/2008 03:50      11.0   9.0  13.9   9.0  87  1016   ---   SSE     6     6   ---   0.5 Few Clouds/
02/04/2008 04:50      12.0   9.0  14.5  12.0  82  1016   ---     N     3     3   ---   0.6 Few Clouds/
02/04/2008 05:50      10.0   8.0  12.9   7.9  87  1016   ---     S     6     6   ---   --- /
02/04/2008 06:50      11.0   8.0  13.5   9.0  82  1016   ---   SSE     6     6   ---   --- /
02/04/2008 07:50      11.0   8.0  13.5   7.3  82  1017   ---   SSE     8     8   ---   --- /
02/04/2008 08:50      13.0  10.0  15.5  13.0  82  1017   ---     N     5     5   ---   --- /
02/04/2008 09:50      15.0  10.0  16.8  13.3  72  1018   ---   SSW     6     6   ---   --- /
02/04/2008 10:50      15.0  11.0  17.1  11.3  77  1018   ---     W    10    10   ---   --- /
02/04/2008 11:50      15.0  12.0  17.5  12.0  82  1018   ---     W     8     8   ---   --- /
02/04/2008 12:50      15.0  13.0  18.0   9.3  88  1018   ---     W    14    14   ---   --- /
02/04/2008 13:50      15.0  13.0  18.0   8.6  88  1017   ---     W    16    16   ---   --- /
02/04/2008 14:50      16.0  12.0  18.1   9.6  77  1017   ---     W    18    18   ---   0.7 Few Clouds/
02/04/2008 15:50      16.0  11.0  17.8  10.6  72  1017   ---   WSW    14    14   ---   0.7 Few Clouds/
02/04/2008 16:50      17.0  11.0  18.5  12.5  68  1016   ---   WSW    13    13   ---   0.7 Few Clouds/
02/04/2008 17:50      16.0  10.0  17.5   9.9  68  1016   ---   WSW    16    16   ---   0.7 Scattered Clouds/
02/04/2008 18:50      16.0   9.0  17.2   9.9  63  1016   ---    SW    16    16   ---   0.7 Broken Clouds/
02/04/2008 19:50      16.0  10.0  17.5   7.6  68  1016   ---   WSW    27    27   ---   0.7 Broken Clouds/
02/04/2008 20:50      16.0  10.0  17.5   7.6  68  1016   ---   WSW    27    27   ---   --- /
02/04/2008 21:50      15.0  11.0  17.1   6.4  77  1016   ---    SW    26    26   ---   --- /
02/04/2008 22:50      15.0  11.0  17.1   5.9  77  1015   ---   WSW    29    29   ---   --- /
02/04/2008 23:50      15.0  11.0  17.1   5.9  77  1015   ---   WSW    29    29   ---   --- /
03/04/2008 00:50      15.0  10.0  16.8   5.9  72  1015   ---   WSW    29    29   ---   --- /
03/04/2008 01:50      15.0  10.0  16.8   7.3  72  1015   ---   WSW    21    21   ---   0.6 Scattered Clouds/
03/04/2008 02:50      15.0  10.0  16.8   7.3  72  1014   ---   WSW    21    21   ---   0.6 Scattered Clouds/
03/04/2008 03:50      14.0  10.0  16.1   5.8  77  1013   ---   WSW    21    21   ---   0.6 Scattered Clouds/
03/04/2008 04:50      14.0   9.0  15.8   5.8  72  1012   ---   SSW    21    21   ---   0.6 Scattered Clouds/
03/04/2008 05:50      13.0   9.0  15.1   3.4  77  1011   ---   SSW    26    26   ---   0.6 Scattered Clouds/
03/04/2008 07:50      13.0   8.0  14.8   6.6  72  1012   ---     S    14    14   ---   0.6 Scattered Clouds/
03/04/2008 08:50      14.0   9.0  15.8   8.0  72  1012   ---   SSW    14    14   ---   0.7 Scattered Clouds/
03/04/2008 09:50      15.0   9.0  16.5   8.6  67  1012   ---   SSW    16    16   ---   0.7 Scattered Clouds/
03/04/2008 10:50      16.0   9.0  17.2   9.6  63  1012   ---   SSW    18    18   ---   --- /
03/04/2008 12:50      16.0   9.0  17.2   9.9  63  1013   ---   WSW    16    16   ---   --- /
03/04/2008 13:50      15.0  12.0  17.5   7.3  82  1013   ---   WNW    21    21   ---   0.6 Broken Clouds/
03/04/2008 14:50      15.0  11.0  17.1   7.6  77  1012   ---     W    19    19   ---   0.6 Scattered Clouds/
03/04/2008 15:20      15.0  11.0  17.1   7.6  77  1012   ---     W    19    19   ---   0.6 Scattered Clouds/
03/04/2008 16:50      15.0   9.0  16.5   9.3  67  1012   ---    NW    14    14   ---   0.7 Scattered Clouds/
03/04/2008 17:50      15.0   9.0  16.5  11.3  67  1012   ---     W    10    10   ---   0.7 Few Clouds/
03/04/2008 18:50      15.0   9.0  16.5  12.0  67  1012   ---   WNW     8     8   ---   0.7 Broken Clouds/
03/04/2008 19:50      15.0   9.0  16.5  10.0  67  1012   ---     W    13    13   ---   0.7 Broken Clouds/
03/04/2008 20:50      15.0   9.0  16.5  12.0  67  1013   ---     W     8     8   ---   0.7 Broken Clouds/
03/04/2008 21:50      15.0   9.0  16.5   9.3  67  1013   ---     W    14    14   ---   0.7 Broken Clouds/
03/04/2008 22:50      15.0  10.0  16.8   9.3  72  1013   ---     W    14    14   ---   0.7 Broken Clouds/
03/04/2008 23:50      15.0  10.0  16.8  10.0  72  1013   ---     W    13    13   ---   0.7 Broken Clouds/
04/04/2008 00:50      15.0  10.0  16.8   8.6  72  1013   ---   WNW    16    16   ---   0.7 Broken Clouds/
04/04/2008 01:50      15.0  10.0  16.8  11.3  72  1012   ---   WSW    10    10   ---   0.7 Broken Clouds/
04/04/2008 02:50      13.0   9.0  15.1   7.4  77  1011   ---     S    13    13   ---   0.7 Scattered Clouds/
04/04/2008 03:50      12.0   7.0  13.7   5.3  71  1011   ---     S    14    14   ---   0.7 Scattered Clouds/
04/04/2008 04:50      12.0   6.0  13.4   7.7  67  1010   ---     S    10    10   ---   0.7 Few Clouds/
04/04/2008 05:50      11.0   6.0  12.7   4.9  71  1011   ---     S    13    13   ---   0.7 Few Clouds/
04/04/2008 06:50      11.0   5.0  12.4   4.9  66  1010   ---     S    13    13   ---   0.7 Few Clouds/
04/04/2008 07:50      12.0   5.0  13.1   7.7  62  1011   ---     S    10    10   ---   0.7 Few Clouds/
04/04/2008 08:50      14.0   7.0  15.2  10.1  63  1012   ---   WSW    10    10   ---   0.7 Scattered Clouds/
04/04/2008 09:50      14.0   8.0  15.5   4.1  67  1012   ---    NW    31    31   ---   0.7 Scattered Clouds/
04/04/2008 11:50      14.0   6.0  14.9   5.8  59  1012   ---    NW    21    21   ---   0.6 Scattered Clouds/
04/04/2008 12:50      14.0   7.0  15.2   4.4  63  1012   ---    NW    29    29   ---   0.6 Scattered Clouds/
04/04/2008 13:50      14.0   7.0  15.2   5.8  63  1012   ---   WNW    21    21   ---   0.6 Scattered Clouds/
04/04/2008 14:50      14.0   6.0  14.9   5.8  59  1011   ---   WNW    21    21   ---   0.8 Scattered Clouds/
04/04/2008 15:50      14.0   7.0  15.2   6.9  63  1010   ---     W    18    18   ---   0.8 Broken Clouds/
04/04/2008 16:50      14.0  10.0  16.1   4.1  77  1010   ---    NW    31    31   ---   0.5 Scattered Clouds/
04/04/2008 17:50      14.0   7.0  15.2   4.9  63  1010   ---    NW    26    26   ---   0.5 Scattered Clouds/
04/04/2008 18:50      14.0   8.0  15.5   6.9  67  1010   ---     N    18    18   ---   0.5 Scattered Clouds/
04/04/2008 19:50      14.0   8.0  15.5   4.6  67  1010   ---    NE    27    27   ---   0.5 Scattered Clouds/
04/04/2008 20:50      14.0   7.0  15.2   4.4  63  1011   ---   NNE    29    29   ---   0.5 Scattered Clouds/
04/04/2008 21:50      13.0   8.0  14.8   3.4  72  1011   ---   NNE    26    26   ---   0.6 Scattered Clouds/
04/04/2008 22:50      13.0   7.0  14.4   5.5  67  1011   ---   NNE    18    18   ---   0.6 Scattered Clouds/
04/04/2008 23:50      13.0   7.0  14.4   7.4  67  1011   ---     N    13    13   ---   0.6 Scattered Clouds/
05/04/2008 00:50      13.0   7.0  14.4   7.4  67  1011   ---    NW    13    13   ---   0.6 Broken Clouds/
05/04/2008 01:50      13.0   7.0  14.4   7.4  67  1011   ---   WNW    13    13   ---   0.6 Broken Clouds/
05/04/2008 02:50      13.0   7.0  14.4   6.6  67  1010   ---   NNW    14    14   ---   0.6 Broken Clouds/
05/04/2008 03:50      12.0   7.0  13.7  10.1  71  1010   ---     N     6     6   ---   0.7 Scattered Clouds/
05/04/2008 04:50      13.0   8.0  14.8   6.6  72  1010   ---     N    14    14   ---   0.7 Scattered Clouds/
05/04/2008 05:50      13.0   9.0  15.1   3.1  77  1010   ---   NNE    27    27   ---   --- Overcast/ Rain
05/04/2008 06:50      13.0   8.0  14.8   5.5  72  1010   ---   NNE    18    18   ---   0.7 Broken Clouds/
05/04/2008 07:50      12.0   8.0  14.1   1.9  77  1011   ---     N    26    26   ---   --- Overcast/ Light Rain
05/04/2008 08:50      13.0   8.0  14.8   4.0  72  1011   ---   NNE    23    23   ---   0.5 Broken Clouds/
05/04/2008 09:50      13.0   7.0  14.4   5.5  67  1011   ---   ENE    18    18   ---   0.5 Broken Clouds/
05/04/2008 10:20      13.0   7.0  14.4   5.5  67  1011   ---    NE    18    18   ---   0.5 Broken Clouds/
05/04/2008 11:50      14.0   8.0  15.5   8.7  67  1011   ---   NNE    13    13   ---   0.6 Few Clouds/
05/04/2008 12:50      15.0   8.0  16.2  11.3  63  1011   ---   NNW    10    10   ---   0.6 Few Clouds/
05/04/2008 13:20      15.0   8.0  16.2   9.3  63  1011   ---   NNE    14    14   ---   0.6 Few Clouds/
05/04/2008 14:50      15.0   7.0  15.9   9.3  59  1010   ---     N    14    14   ---   0.6 Few Clouds/
05/04/2008 15:50      15.0   7.0  15.9   9.3  59  1010   ---    NW    14    14   ---   0.6 Few Clouds/
05/04/2008 16:50      15.0   9.0  16.5   7.3  67  1010   ---    NW    21    21   ---   0.6 Scattered Clouds/
05/04/2008 17:50      14.0   8.0  15.5   5.5  67  1010   ---    NW    23    23   ---   0.6 Scattered Clouds/
05/04/2008 17:50      14.0   8.0  15.5   5.5  67  1010   ---    NW    23    23   ---   0.6 Scattered Clouds/None reported
05/04/2008 18:50      14.0   7.0  15.2   5.5  63  1010   ---   WNW    23    23   ---   0.6 Scattered Clouds/
05/04/2008 19:50      14.0   7.0  15.2   4.9  63  1010   ---   WNW    26    26   ---   0.6 Scattered Clouds/
05/04/2008 20:50      14.0   7.0  15.2   5.5  63  1010   ---   WNW    23    23   ---   0.6 Scattered Clouds/
05/04/2008 21:50      14.0   7.0  15.2   6.2  63  1010   ---     W    19    19   ---   0.6 Scattered Clouds/
05/04/2008 22:50      14.0   7.0  15.2   5.8  63  1010   ---   WNW    21    21   ---   0.6 Scattered Clouds/
05/04/2008 23:50      14.0   6.0  14.9   5.8  59  1010   ---   WNW    21    21   ---   0.6 Scattered Clouds/
06/04/2008 00:50      14.0   7.0  15.2   5.8  63  1010   ---     W    21    21   ---   0.6 Scattered Clouds/
06/04/2008 01:50      14.0   8.0  15.5   4.9  67  1010   ---     W    26    26   ---   0.6 Scattered Clouds/
06/04/2008 02:50      14.0   8.0  15.5   5.5  67  1009   ---     W    23    23   ---   0.6 Scattered Clouds/
06/04/2008 03:50      12.0   7.0  13.7   6.2  71  1009   ---     S    13    13   ---   0.6 Scattered Clouds/
06/04/2008 04:50      12.0   7.0  13.7   4.5  71  1009   ---     S    16    16   ---   0.6 Scattered Clouds/
06/04/2008 05:50      13.0   6.0  14.2   5.5  62  1009   ---   SSW    18    18   ---   0.6 Scattered Clouds/
06/04/2008 06:50      14.0   9.0  15.8   7.2  72  1009   ---   WSW    16    16   ---   0.6 Scattered Clouds/
06/04/2008 07:50      14.0   9.0  15.8   4.4  72  1009   ---     W    29    29   ---   0.6 Scattered Clouds/
06/04/2008 08:50      13.0   7.0  14.4   4.4  67  1010   ---    SW    21    21   ---   0.6 Scattered Clouds/
06/04/2008 09:50      15.0   9.0  16.5   5.9  67  1010   ---     W    29    29   ---   0.6 Scattered Clouds/
06/04/2008 10:20      15.0   9.0  16.5   6.4  67  1010   ---   WSW    26    26   ---   0.6 Scattered Clouds/
06/04/2008 11:50      15.0   7.0  15.9   7.3  59  1011   ---     W    21    21   ---   0.6 Scattered Clouds/
06/04/2008 12:50      16.0   7.0  16.7   8.4  55  1011   ---     W    23    23   ---   0.6 Scattered Clouds/
06/04/2008 13:50      16.0   6.0  16.5   8.4  51  1011   ---     W    23    23   ---   0.6 Scattered Clouds/
06/04/2008 14:50      16.0   7.0  16.7   8.4  55  1010   ---     W    23    23   ---   0.6 Scattered Clouds/
06/04/2008 15:50      16.0   7.0  16.7   9.0  55  1010   ---     W    19    19   ---   0.6 Scattered Clouds/
06/04/2008 16:20      16.0   8.0  16.9   9.6  59  1010   ---     W    18    18   ---   0.6 Few Clouds/
06/04/2008 17:50      18.0   5.0  18.1  11.3  42  1010   ---    SW    23    23   ---   --- /
06/04/2008 18:50      17.0   5.0  17.2   9.3  45  1010   ---    SW    26    26   ---   --- /
06/04/2008 19:20      17.0   0.0  16.6   9.1  32  1009   ---   SSW    27    27   ---   --- /
06/04/2008 20:50      15.0   1.0  14.9   5.6  39  1010   ---     S    31    31   ---   --- /
06/04/2008 21:50      15.0   0.0  14.8   5.6  36  1010   ---     S    31    31   ---   --- /
06/04/2008 22:50      16.0  -3.0  15.4   7.4  27  1010   ---     S    29    29   ---   --- /
06/04/2008 23:50      16.0  -4.0  15.4   8.7  25  1010   ---   SSE    21    21   ---   --- /
07/04/2008 00:50      16.0  -7.0  15.2   8.4  20  1009   ---   SSE    23    23   ---   --- /
07/04/2008 01:50      16.0  -8.0  15.2   9.6  18  1009   ---     S    18    18   ---   --- /
07/04/2008 02:50      17.0 -12.0  16.0  10.1  13  1009   ---     S    21    21   ---   --- /
07/04/2008 03:50      18.0  -5.0  17.2  10.8  20  1008   ---   SSW    26    26   ---   --- /
07/04/2008 04:50      19.0  -3.0  18.3  12.0  22  1008   ---   SSW    27    27   ---   --- /
07/04/2008 05:20      19.0  -4.0  18.2  12.0  21  1008   ---   SSW    27    27   ---   --- /
07/04/2008 06:50      19.0  -4.0  18.2  12.7  21  1007   ---     S    23    23   ---   --- /
07/04/2008 07:50      19.0   1.0  18.5  14.0  30  1007   ---     S    16    16   ---   --- /
07/04/2008 08:50      22.0  -1.0  21.3  17.5  22  1007   ---   SSE    19    19   ---   --- /
07/04/2008 09:50      18.0  10.0  19.0  15.0  60  1007   ---    NE    10    10   ---   --- /
07/04/2008 11:50      25.0   3.0  24.3  21.6  24  1008   ---   SSW    21    21   ---   --- /
07/04/2008 12:50      20.0  11.0  20.8  20.0  56  1007   ---    NE     0     0   ---   --- /
07/04/2008 13:50      26.0   5.0  25.4  22.6  26  1007   ---   SSW    26    26   ---   --- /
07/04/2008 14:50      24.0   7.0  23.7  19.7  34  1007   ---   SSW    26    26   ---   --- /
07/04/2008 15:50      25.0   7.0  24.6  21.6  32  1007   ---    SW    21    21   ---   --- /
07/04/2008 16:20      27.0   4.0  26.2  24.4  23  1007   ---    SW    21    21   ---   --- /
07/04/2008 17:50      26.0   5.0  25.4  23.0  26  1008   ---   SSW    21    21   ---   --- /
07/04/2008 18:50      24.0   6.0  23.6  20.1  31  1008   ---   SSW    21    21   ---   --- /
07/04/2008 19:50      23.0   4.0  22.5  18.7  29  1008   ---   SSW    21    21   ---   --- /
07/04/2008 20:50      22.0   7.0  21.9  18.1  38  1009   ---   SSW    16    16   ---   --- /
07/04/2008 21:50      20.0   6.0  20.0  15.3  40  1009   ---     S    16    16   ---   --- /
07/04/2008 22:50      18.0   8.0  18.6  12.4  52  1008   ---    SW    18    18   ---   --- /
07/04/2008 23:50      18.0   8.0  18.6  12.4  52  1008   ---   SSW    18    18   ---   --- /
08/04/2008 00:50      18.0   9.0  18.8  12.6  56  1008   ---   SSW    16    16   ---   --- /
08/04/2008 01:50      23.0   0.0  22.3  18.5  22  1008   ---     S    23    23   ---   --- /
08/04/2008 02:50      21.0   6.0  20.9  15.6  38  1008   ---   SSW    23    23   ---   --- /
08/04/2008 03:50      22.0   5.0  21.7  16.5  33  1007   ---   SSW    27    27   ---   --- /
08/04/2008 04:50      24.0  -1.0  23.2  19.3  19  1007   ---   SSW    31    31   ---   --- /
08/04/2008 05:50      22.0   3.0  21.5  17.1  29  1007   ---   SSW    23    23   ---   --- /
08/04/2008 06:50      23.0   4.0  22.5  19.2  29  1007   ---     S    18    18   ---   0.9 Broken Clouds/
08/04/2008 07:50      21.0   7.0  21.0  18.6  40  1008   ---    SW    10    10   ---   0.9 Overcast/
08/04/2008 08:50      19.0  11.0  20.0  15.1  60  1010   ---   WSW    13    13   ---   0.9 Overcast/
08/04/2008 09:50      20.0   9.0  20.4  15.3  49  1010   ---     S    16    16   ---   0.9 Overcast/
08/04/2008 10:50      20.0  10.0  20.6  15.3  53  1010   ---     S    16    16   ---   0.9 Overcast/
08/04/2008 11:50      22.0   9.0  22.1  22.0  43  1008   ---     N     5     5   ---   0.9 Overcast/
08/04/2008 13:50      22.0  12.0  22.6  15.7  53  1008   ---     N    42    42   ---   0.9 Overcast/
08/04/2008 14:50      20.0  14.0  21.5  16.4  68  1007   ---   WNW    13    13   ---   0.9 Broken Clouds/
08/04/2008 15:50      19.0  14.0  20.8  15.1  73  1007   ---   NNE    13    13   ---   0.9 Broken Clouds/
08/04/2008 16:50      19.0  13.0  20.5  19.0  68  1009   ---     N     3     3   ---   0.9 Broken Clouds/
08/04/2008 17:50      18.0  11.0  19.2  18.0  64  1010   ---     N     5     5   ---   0.9 Broken Clouds/
08/04/2008 18:50      18.0  12.0  19.5  15.5  68  1010   ---   WSW     8     8   ---   0.5 Broken Clouds/
08/04/2008 19:50      17.0  12.0  18.8  17.0  72  1009   ---     N     3     3   ---   0.7 Broken Clouds/
08/04/2008 20:50      17.0  13.0  19.2  12.5  77  1008   ---   WNW    13    13   ---   0.7 Broken Clouds/
08/04/2008 21:50      16.0  13.0  18.5  12.5  82  1010   ---   WSW    10    10   ---   0.9 Few Clouds/
08/04/2008 22:50      16.0  13.0  18.5   9.9  82  1010   ---   WSW    16    16   ---   --- /
08/04/2008 23:50      16.0  11.0  17.8   9.6  72  1010   ---    SW    18    18   ---   --- /
09/04/2008 00:50      16.0  11.0  17.8  10.6  72  1010   ---   WSW    14    14   ---   --- /
09/04/2008 01:50      15.0  10.0  16.8   8.2  72  1010   ---   SSW    18    18   ---   --- /
09/04/2008 02:50      16.0   9.0  17.2   9.6  63  1010   ---   SSW    18    18   ---   --- /
09/04/2008 03:50      17.0   8.0  17.7  11.0  55  1010   ---   SSW    18    18   ---   --- /
09/04/2008 04:50      15.0   8.0  16.2  10.0  63  1009   ---     S    13    13   ---   --- /
09/04/2008 05:50      15.0   7.0  15.9  10.0  59  1009   ---   SSW    13    13   ---   --- /
09/04/2008 06:50      15.0   8.0  16.2  13.3  63  1009   ---    SW     6     6   ---   --- /
09/04/2008 07:50      14.0   9.0  15.8   6.9  72  1009   ---    SW    18    18   ---   --- /
09/04/2008 08:50      15.0  11.0  17.1   8.2  77  1010   ---    SW    18    18   ---   --- /
09/04/2008 09:50      17.0  11.0  18.5  11.9  68  1010   ---   WSW    14    14   ---   --- /
09/04/2008 11:50      18.0  12.0  19.5  12.6  68  1010   ---   WSW    16    16   ---   --- /
09/04/2008 12:50      18.0  12.0  19.5  11.6  68  1010   ---     W    21    21   ---   --- /
09/04/2008 13:50      18.0  14.0  20.2  18.0  77  1010   ---     N     5     5   ---   --- /
09/04/2008 14:50      20.0  13.0  21.3  15.3  64  1009   ---   ENE    16    16   ---   --- /
09/04/2008 15:50      18.0  13.0  19.8  12.4  73  1009   ---    NE    18    18   ---   --- /
09/04/2008 16:50      18.0  14.0  20.2  16.6  77  1009   ---   NNE     6     6   ---   --- /
09/04/2008 17:50      18.0  14.0  20.2  18.0  77  1008   ---     N     3     3   ---   --- /
09/04/2008 18:20      18.0  14.0  20.2  18.0  77  1008   ---     N     5     5   ---   --- /
09/04/2008 19:50      22.0  11.0  22.4  16.4  50  1008   ---   SSW    29    29   ---   --- /
09/04/2008 20:50      22.0  10.0  22.3  17.1  46  1009   ---   SSW    23    23   ---   --- /
09/04/2008 21:50      23.0   9.0  23.0  18.2  41  1008   ---   SSW    26    26   ---   --- /
09/04/2008 22:50      22.0   9.0  22.1  17.3  43  1008   ---   SSW    21    21   ---   --- /
09/04/2008 23:50      24.0   8.0  23.8  18.9  36  1008   ---   SSW    39    39   ---   --- /
10/04/2008 00:50      25.0   8.0  24.7  20.8  34  1007   ---     S    31    31   ---   --- /
10/04/2008 01:50      25.0   8.0  24.7  20.8  34  1007   ---   SSW    31    31   ---   --- /
10/04/2008 02:50      24.0   8.0  23.8  19.3  36  1007   ---   SSW    31    53   ---   --- /
10/04/2008 03:50      21.0   9.0  21.3  15.6  46  1007   ---    SW    23    23   ---   --- /
10/04/2008 04:50      24.0   7.0  23.7  19.0  34  1006   ---   SSW    37    37   ---   0.8 Scattered Clouds/
10/04/2008 05:50      24.0   7.0  23.7  18.6  34  1006   ---   SSW    50    79   ---   0.7 Broken Clouds/
10/04/2008 06:50      24.0   6.0  23.6  18.7  31  1007   ---     S    47    66   ---   --- /
10/04/2008 07:20      24.0   7.0  23.7  18.6  34  1007   ---     S    50    69   ---   --- /
10/04/2008 08:50      24.0   8.0  23.8  20.0  36  1008   ---   SSW    23    23   ---   --- /
10/04/2008 09:20      24.0   9.0  23.9  20.0  39  1009   ---   SSW    23    23   ---   --- /
10/04/2008 09:50      23.0  11.0  23.3  18.5  47  1009   ---    SW    23    23   ---   --- /
10/04/2008 11:50      26.0  10.0  25.8  22.9  37  1009   ---    SW    23    23   ---   --- /
10/04/2008 12:50      28.0  10.0  27.2  25.9  33  1009   ---    SW    21    21   ---   --- /
10/04/2008 13:50      27.0  10.0  26.6  24.1  34  1009   ---   SSW    26    26   ---   --- /
10/04/2008 14:50      25.0  10.0  24.9  22.0  39  1010   ---   WSW    18    18   ---   --- /
10/04/2008 15:50      24.0   9.0  23.9  21.5  39  1009   ---     W    13    13   ---   --- /
10/04/2008 16:50      26.0   9.0  25.7  24.8  34  1009   ---   SSW     8     8   ---   --- /
10/04/2008 17:50      26.0   9.0  25.7  24.1  34  1009   ---    SW    13    13   ---   --- /
10/04/2008 18:50      25.0  10.0  24.9  23.4  39  1009   ---    SW    10    10   ---   5.4 Broken Clouds/
10/04/2008 20:50      22.0   9.0  22.1  22.0  43  1009   ---     N     5     5   ---   --- /
10/04/2008 21:50      22.0   8.0  22.0  21.0  41  1009   ---     S     6     6   ---   --- /
10/04/2008 22:50      21.0  10.0  21.4  21.0  49  1010   ---     N     5     5   ---   --- /
10/04/2008 23:50      22.0   8.0  22.0  22.0  41  1009   ---     N     2     2   ---   --- /
11/04/2008 00:50      20.0  10.0  20.6  20.0  53  1010   ---     N     5     5   ---   --- /
11/04/2008 01:50      19.0  11.0  20.0  15.1  60  1010   ---    NE    13    13   ---   --- /
11/04/2008 02:50      19.0  12.0  20.2  14.0  64  1010   ---    NE    16    16   ---   --- /
11/04/2008 03:50      20.0  10.0  20.6  14.2  53  1009   ---   ENE    23    23   ---   --- /
11/04/2008 04:50      20.0   9.0  20.4  14.2  49  1008   ---   ENE    23    23   ---   --- /
11/04/2008 05:50      21.0   8.0  21.1  14.9  43  1007   ---     E    29    29   ---   --- /
11/04/2008 06:50      20.0   9.0  20.4  14.2  49  1006   ---   ENE    23    23   ---   --- /
11/04/2008 07:50      18.0  11.0  19.2  16.6  64  1007   ---     N     6     6   ---   --- /
11/04/2008 08:50      18.0  12.0  19.5  13.8  68  1008   ---   SSW    13    13   ---   --- /
11/04/2008 09:50      18.0  13.0  19.8  18.0  73  1008   ---     N     3     3   ---   --- /
11/04/2008 10:20      19.0  13.0  20.5  14.0  68  1008   ---    SW    16    16   ---   --- /
11/04/2008 11:50      17.0  14.0  19.5  12.5  83  1010   ---    NE    13    13   ---   --- /
11/04/2008 12:50      20.0  13.0  21.3  14.4  64  1009   ---   ENE    21    21   ---   --- /
11/04/2008 13:50      19.0  13.0  20.5  11.9  68  1008   ---    NE    29    29   ---   --- /
11/04/2008 14:50      21.0  13.0  22.0  14.8  60  1008   ---   ENE    31    31   ---   --- /
11/04/2008 15:50      20.0  11.0  20.8  13.0  56  1007   ---   ENE    34    34   ---   --- /
11/04/2008 16:50      19.0  12.0  20.2  12.7  64  1007   ---    NE    23    23   ---   --- /
11/04/2008 17:50      19.0  13.0  20.5  12.0  68  1007   ---   ENE    27    27   ---   --- /
11/04/2008 18:50      19.0  12.0  20.2  14.5  64  1006   ---     E    14    14   ---   --- /
11/04/2008 19:50      17.0  13.0  19.2  11.9  77  1007   ---   WSW    14    14   ---   --- /
11/04/2008 20:50      17.0  13.0  19.2  13.8  77  1007   ---   WSW    10    10   ---   --- /
11/04/2008 21:50      17.0  13.0  19.2  12.5  77  1008   ---   NNE    13    13   ---   --- /
11/04/2008 22:50      17.0  13.0  19.2  10.4  77  1008   ---     E    19    19   ---   --- /
11/04/2008 23:50      17.0  13.0  19.2   9.1  77  1008   ---   ENE    27    27   ---   --- /
12/04/2008 00:50      18.0  11.0  19.2  11.8  64  1009   ---   ENE    19    19   ---   --- /
12/04/2008 01:50      18.0  12.0  19.5  15.5  68  1010   ---     S     8     8   ---   --- /
12/04/2008 02:50      16.0  13.0  18.5   9.6  82  1010   ---    NW    18    37   ---   --- /
12/04/2008 03:50      17.0  12.0  18.8   8.9  72  1010   ---   ENE    29    29   ---   --- /
12/04/2008 04:50      18.0  11.0  19.2  11.6  64  1009   ---   ENE    21    21   ---   --- /
12/04/2008 05:50      17.0  12.0  18.8   9.1  72  1010   ---   NNE    27    27   ---   --- /
12/04/2008 06:50      17.0  13.0  19.2   9.1  77  1011   ---     N    27    27   ---   --- /
12/04/2008 07:50      16.0  13.0  18.5   7.4  82  1012   ---   NNW    29    29   ---   0.3 Broken Clouds/
12/04/2008 08:50      16.0  13.0  18.5   8.7  82  1012   ---     N    21    21   ---   0.3 Broken Clouds/
12/04/2008 09:50      17.0  13.0  19.2  13.8  77  1013   ---    NE    10    10   ---   0.3 Broken Clouds/
12/04/2008 10:50      17.0  13.0  19.2  14.3  77  1014   ---    NW     8     8   ---   0.3 Broken Clouds/
12/04/2008 11:50      16.0  12.0  18.1  14.4  77  1014   ---   WNW     6     6   ---   0.6 Broken Clouds/
12/04/2008 12:50      16.0  11.0  17.8  14.4  72  1014   ---   WNW     6     6   ---   0.6 Broken Clouds/
12/04/2008 13:50      16.0  11.0  17.8  12.5  72  1014   ---     W    10    10   ---   0.6 Broken Clouds/
12/04/2008 14:50      17.0  11.0  18.5  14.3  68  1015   ---   WSW     8     8   ---   0.6 Broken Clouds/
12/04/2008 15:50      17.0  11.0  18.5  14.3  68  1015   ---   WSW     8     8   ---   0.6 Broken Clouds/
12/04/2008 16:50      17.0  11.0  18.5  15.5  68  1015   ---   WSW     6     6   ---   0.6 Broken Clouds/
12/04/2008 17:50      16.0  11.0  17.8   7.4  72  1015   ---   WNW    29    29   ---   0.6 Broken Clouds/
12/04/2008 18:50      16.0  10.0  17.5   9.6  68  1015   ---     W    18    18   ---   0.6 Broken Clouds/
12/04/2008 19:50      16.0  11.0  17.8  10.6  72  1016   ---     W    14    14   ---   0.6 Broken Clouds/
12/04/2008 20:50      16.0  10.0  17.5  10.6  68  1016   ---     W    14    14   ---   --- /
12/04/2008 21:50      16.0  11.0  17.8  14.4  72  1017   ---   WSW     6     6   ---   --- /
12/04/2008 22:50      15.0  10.0  16.8  15.0  72  1017   ---     N     3     3   ---   0.6 Broken Clouds/
12/04/2008 23:50      15.0  10.0  16.8  15.0  72  1018   ---     N     5     5   ---   0.6 Broken Clouds/
13/04/2008 00:50      14.0  10.0  16.1  12.3  77  1018   ---     S     6     6   ---   0.6 Broken Clouds/
13/04/2008 01:50      15.0  10.0  16.8  15.0  72  1018   ---     N     5     5   ---   0.6 Broken Clouds/
13/04/2008 02:50      14.0  10.0  16.1  12.3  77  1018   ---     S     6     6   ---   --- /
13/04/2008 03:50      14.0  10.0  16.1  14.0  77  1017   ---     N     3     3   ---   0.7 Few Clouds/
13/04/2008 04:50      13.0   9.0  15.1  13.0  77  1017   ---     N     3     3   ---   0.7 Few Clouds/
13/04/2008 05:50      15.0  12.0  17.5  11.3  82  1017   ---   WNW    10    10   ---   0.4 Scattered Clouds/
13/04/2008 06:50      15.0  13.0  18.0  13.3  88  1017   ---   WNW     6     6   ---   0.4 Scattered Clouds/
13/04/2008 07:50      15.0  12.0  17.5  15.0  82  1018   ---     N     5     5   ---   0.3 Broken Clouds/
13/04/2008 08:50      15.0  12.0  17.5  15.0  82  1019   ---     N     5     5   ---   0.3 Broken Clouds/
13/04/2008 09:50      15.0  11.0  17.1  11.3  77  1019   ---   NNW    10    10   ---   0.3 Broken Clouds/
13/04/2008 11:50      15.0  11.0  17.1  13.3  77  1021   ---     N     6     6   ---   0.3 Broken Clouds/
13/04/2008 12:50      15.0  11.0  17.1  15.0  77  1020   ---     N     5     5   ---   0.5 Broken Clouds/
13/04/2008 13:50      15.0  11.0  17.1  12.0  77  1021   ---     W     8     8   ---   0.5 Broken Clouds/
13/04/2008 14:50      15.0  11.0  17.1  12.0  77  1020   ---     W     8     8   ---   0.5 Overcast/
13/04/2008 15:50      15.0  11.0  17.1   8.2  77  1020   ---     N    18    18   ---   0.5 Overcast/
13/04/2008 16:50      15.0  10.0  16.8   9.3  72  1020   ---     N    14    14   ---   0.5 Overcast/
13/04/2008 17:50      15.0   9.0  16.5   9.3  67  1019   ---   NNE    14    14   ---   0.5 Overcast/
13/04/2008 18:50      15.0   9.0  16.5   8.2  67  1020   ---   NNE    18    18   ---   0.5 Overcast/
13/04/2008 19:50      15.0   9.0  16.5   9.3  67  1020   ---    NE    14    14   ---   0.5 Broken Clouds/
13/04/2008 20:50      15.0   9.0  16.5   7.6  67  1020   ---   NNE    19    19   ---   0.5 Broken Clouds/
13/04/2008 21:50      15.0   9.0  16.5   7.3  67  1020   ---   NNE    21    21   ---   0.5 Broken Clouds/
13/04/2008 22:50      15.0   9.0  16.5   7.6  67  1020   ---   NNE    19    19   ---   0.5 Broken Clouds/
13/04/2008 23:50      15.0   9.0  16.5   8.6  67  1021   ---   NNE    16    16   ---   0.5 Broken Clouds/
14/04/2008 00:50      14.0   8.0  15.5   7.2  67  1020   ---   NNE    16    16   ---   0.5 Broken Clouds/
14/04/2008 01:50      14.0   8.0  15.5   8.7  67  1020   ---   NNE    13    13   ---   0.5 Broken Clouds/
14/04/2008 02:50      14.0   7.0  15.2   7.2  63  1020   ---     N    16    16   ---   0.5 Broken Clouds/
14/04/2008 03:50      14.0   7.0  15.2   8.0  63  1020   ---     N    14    14   ---   0.5 Broken Clouds/
14/04/2008 04:50      14.0   8.0  15.5   8.0  67  1020   ---     N    14    14   ---   0.5 Broken Clouds/
14/04/2008 05:50      14.0   7.0  15.2   8.7  63  1019   ---   NNE    13    13   ---   0.5 Broken Clouds/
14/04/2008 06:50      14.0   7.0  15.2   8.7  63  1019   ---   NNE    13    13   ---   0.6 Scattered Clouds/
14/04/2008 07:50      14.0   8.0  15.5   8.0  67  1019   ---   NNE    14    14   ---   0.6 Scattered Clouds/
14/04/2008 08:50      14.0   7.0  15.2   8.7  63  1019   ---    NE    13    13   ---   --- /
14/04/2008 09:50      15.0   7.0  15.9   8.6  59  1019   ---   NNE    16    16   ---   --- /
14/04/2008 11:50      16.0   2.0  15.9  13.2  39  1020   ---   NNE     8     8   ---   --- /
14/04/2008 12:50      17.0   2.0  16.8  15.5  36  1019   ---   NNE     6     6   ---   --- /
14/04/2008 13:50      17.0   2.0  16.8  17.0  36  1019   ---    NW     5     5   ---   --- /
14/04/2008 14:50      17.0   4.0  17.1  17.0  42  1019   ---     N     5     5   ---   --- /
14/04/2008 15:50      17.0   3.0  16.9  14.3  39  1019   ---   WSW     8     8   ---   --- /
14/04/2008 16:50      16.0   7.0  16.7  11.3  55  1018   ---     W    13    13   ---   --- /
14/04/2008 17:50      16.0  11.0  17.8   8.7  72  1018   ---     W    21    21   ---   --- /
14/04/2008 19:50      15.0   9.0  16.5   8.6  67  1018   ---     W    16    16   ---   --- /
14/04/2008 20:50      15.0   9.0  16.5   7.6  67  1019   ---     W    19    19   ---   --- /
14/04/2008 21:50      13.0   7.0  14.4   6.6  67  1019   ---     S    14    14   ---   --- /
14/04/2008 22:50      14.0   7.0  15.2   6.9  63  1019   ---   SSW    18    18   ---   --- /
14/04/2008 23:50      14.0   4.0  14.5   6.9  51  1018   ---   SSW    18    18   ---   --- /
15/04/2008 00:50      15.0   3.0  15.2   7.3  44  1017   ---   SSW    21    21   ---   --- /
15/04/2008 01:50      15.0   8.0  16.2   6.4  63  1017   ---    SW    26    26   ---   --- /
15/04/2008 02:50      15.0   8.0  16.2   6.4  63  1017   ---    SW    26    26   ---   --- /
15/04/2008 03:20      15.0   8.0  16.2   6.4  63  1017   ---    SW    26    26   ---   --- /
15/04/2008 04:50      15.0   9.0  16.5   4.5  67  1016   ---     W    43    43   ---   0.4 Scattered Clouds/
15/04/2008 05:50      15.0   9.0  16.5   4.7  67  1016   ---     W    40    40   ---   0.4 Scattered Clouds/
15/04/2008 06:50      14.0   8.0  15.5   3.8  67  1017   ---     W    34    34   ---   0.4 Scattered Clouds/
15/04/2008 07:50      14.0   8.0  15.5   3.2  67  1018   ---     W    40    40   ---   0.4 Scattered Clouds/
15/04/2008 08:50      15.0   8.0  16.2   4.9  63  1018   ---     W    39    39   ---   0.4 Scattered Clouds/
15/04/2008 09:50      15.0   8.0  16.2   4.9  63  1018   ---     W    39    39   ---   0.6 Scattered Clouds/
15/04/2008 11:50      15.0   8.0  16.2   4.7  63  1019   ---     W    40    40   ---   0.6 Scattered Clouds/
15/04/2008 12:50      15.0   8.0  16.2   4.7  63  1019   ---     W    40    40   ---   0.6 Scattered Clouds/
15/04/2008 13:50      15.0   7.0  15.9   4.5  59  1019   ---     W    43    43   ---   0.6 Scattered Clouds/
15/04/2008 14:50      15.0   8.0  16.2   4.7  63  1019   ---     W    42    42   ---   0.6 Scattered Clouds/
15/04/2008 15:50      15.0   7.0  15.9   4.9  59  1019   ---     W    39    39   ---   0.6 Scattered Clouds/
15/04/2008 16:50      15.0   7.0  15.9   4.7  59  1019   ---     W    40    40   ---   0.6 Scattered Clouds/
15/04/2008 17:50      15.0   8.0  16.2   5.3  63  1019   ---     W    34    34   ---   0.6 Scattered Clouds/
15/04/2008 18:50      15.0   8.0  16.2   5.6  63  1019   ---   WSW    31    31   ---   0.6 Scattered Clouds/
15/04/2008 19:50      15.0   7.0  15.9   5.6  59  1019   ---     W    31    31   ---   0.6 Scattered Clouds/
15/04/2008 20:50      15.0   9.0  16.5   5.4  67  1019   ---     W    32    32   ---   0.6 Few Clouds/
15/04/2008 21:50      15.0   9.0  16.5   5.3  67  1020   ---     W    34    34   ---   0.6 Few Clouds/
15/04/2008 22:50      15.0   9.0  16.5   5.6  67  1020   ---     W    31    31   ---   0.6 Few Clouds/
15/04/2008 23:50      15.0   9.0  16.5   5.3  67  1021   ---     W    34    34   ---   0.6 Few Clouds/
16/04/2008 00:50      15.0   8.0  16.2   6.1  63  1021   ---     W    27    27   ---   0.6 Few Clouds/
16/04/2008 01:50      15.0   9.0  16.5   6.1  67  1021   ---     W    27    27   ---   0.6 Scattered Clouds/
16/04/2008 02:50      15.0   9.0  16.5   6.4  67  1021   ---     W    26    26   ---   0.6 Scattered Clouds/
16/04/2008 03:50      15.0   8.0  16.2   8.2  63  1020   ---   WSW    18    18   ---   0.6 Scattered Clouds/
16/04/2008 04:50      14.0   7.0  15.2   5.8  63  1020   ---     W    21    21   ---   0.6 Scattered Clouds/
16/04/2008 05:50      15.0   7.0  15.9   6.9  59  1020   ---     W    23    23   ---   0.6 Scattered Clouds/
16/04/2008 06:50      12.0   5.0  13.1   6.2  62  1020   ---     S    13    13   ---   0.6 Scattered Clouds/
16/04/2008 07:50      12.0   6.0  13.4   6.2  67  1020   ---     S    13    13   ---   0.7 Few Clouds/
16/04/2008 08:50      14.0   6.0  14.9   8.7  59  1021   ---   SSW    13    13   ---   --- /
16/04/2008 09:50      15.0   7.0  15.9   9.3  59  1020   ---    SW    14    14   ---   --- /
16/04/2008 10:20      15.0   7.0  15.9   7.6  59  1021   ---   WSW    19    19   ---   --- /
16/04/2008 11:20      16.0   7.0  16.7   9.6  55  1021   ---   WSW    18    18   ---   --- /
16/04/2008 12:50      16.0   8.0  16.9   9.6  59  1019   ---   WNW    18    18   ---   --- /
16/04/2008 13:50      16.0   8.0  16.9  10.6  59  1020   ---   NNE    14    14   ---   --- /
16/04/2008 14:50      16.0   8.0  16.9   9.9  59  1019   ---   NNE    16    16   ---   --- /
16/04/2008 15:50      16.0   7.0  16.7   9.6  55  1018   ---    NE    18    18   ---   --- /
16/04/2008 16:50      17.0   8.0  17.7  10.1  55  1018   ---   ENE    21    21   ---   --- /
16/04/2008 17:50      16.0   8.0  16.9   8.7  59  1017   ---   ENE    21    21   ---   --- /
16/04/2008 18:50      16.0   8.0  16.9   9.9  59  1017   ---   ENE    16    16   ---   --- /
16/04/2008 19:50      16.0   9.0  17.2  16.0  63  1016   ---     N     5     5   ---   --- /
16/04/2008 20:50      17.0   7.0  17.5  11.3  52  1017   ---   WSW    16    16   ---   --- /
16/04/2008 21:50      17.0   9.0  18.0  13.8  59  1017   ---     W    10    10   ---   --- /
16/04/2008 22:50      17.0   8.0  17.7  12.5  55  1016   ---     W    13    13   ---   --- /
16/04/2008 23:50      18.0   6.0  18.2  12.6  45  1015   ---    SW    16    16   ---   --- /
17/04/2008 00:50      20.0   2.0  19.6  13.4  30  1014   ---   SSW    29    55   ---   --- /
17/04/2008 01:50      21.0  -1.0  20.3  14.1  23  1013   ---     S    42    42   ---   --- /
17/04/2008 02:20      22.0  -2.0  21.2  15.6  20  1013   ---     S    43    64   ---   --- /
17/04/2008 03:50      22.0  -2.0  21.2  15.3  20  1010   ---     S    50    50   ---   --- /
17/04/2008 04:50      22.0  -2.0  21.2  16.4  20  1010   ---   SSE    29    68   ---   --- /
17/04/2008 05:50      22.0  -2.0  21.2  16.4  20  1010   ---   SSE    29    68   ---   --- /
17/04/2008 06:50      21.0  -1.0  20.3  13.7  23  1010   ---     S    50    68   ---   1.0 Broken Clouds/
17/04/2008 07:50      22.0  -2.0  21.2  15.5  20  1009   ---     S    45    69   ---   1.0 Broken Clouds/
17/04/2008 08:50      22.0   1.0  21.4  16.1  25  1009   ---     S    34    34   ---   1.0 Broken Clouds/
17/04/2008 09:50      23.0   2.0  22.4  17.4  25  1009   ---     S    39    60   ---   1.0 Scattered Clouds/
17/04/2008 10:20      23.0   3.0  22.4  17.4  27  1009   ---     S    37    37   ---   1.0 Scattered Clouds/
17/04/2008 11:50      23.0   4.0  22.5  17.2  29  1008   ---     S    43    63   ---   1.0 Broken Clouds/
17/04/2008 12:50      22.0   7.0  21.9  15.7  38  1007   ---     S    42    42   ---   1.0 Broken Clouds/
17/04/2008 13:50      22.0   9.0  22.1  15.6  43  1007   ---     S    43    43   ---   1.0 Broken Clouds/
17/04/2008 14:50      22.0   9.0  22.1  15.6  43  1006   ---     S    43    43   ---   0.8 Broken Clouds/
17/04/2008 15:50      23.0   8.0  22.9  17.1  38  1005   ---     S    47    66   ---   0.8 Broken Clouds/
17/04/2008 16:50      25.0   7.0  24.6  21.4  32  1005   ---     S    23    23   ---   0.8 Broken Clouds/
17/04/2008 17:50      24.0   7.0  23.7  20.6  34  1005   ---     S    18    39   ---   0.8 Broken Clouds/
17/04/2008 18:50      17.0  13.0  19.2  13.8  77  1006   ---   NNE    10    10   ---   0.8 Broken Clouds/
17/04/2008 19:50      18.0  13.0  19.8  13.8  73  1006   ---   SSE    13    13   ---   0.8 Broken Clouds/
17/04/2008 20:50      18.0  11.0  19.2  10.8  64  1008   ---   SSW    26    26   ---   --- /
17/04/2008 21:50      17.0  11.0  18.5  11.0  68  1008   ---   SSW    18    18   ---   0.9 Broken Clouds/
17/04/2008 22:50      17.0  10.0  18.2   9.8  63  1008   ---    SW    23    23   ---   --- /
17/04/2008 23:50      17.0   9.0  18.0  11.0  59  1009   ---   SSW    18    18   ---   0.9 Few Clouds/
18/04/2008 00:50      17.0   9.0  18.0   9.8  59  1010   ---   SSW    23    23   ---   0.9 Scattered Clouds/
18/04/2008 01:50      17.0   9.0  18.0   8.7  59  1009   ---     S    31    31   ---   0.9 Scattered Clouds/
18/04/2008 02:50      18.0   8.0  18.6  10.6  52  1008   ---     S    27    27   ---   0.9 Scattered Clouds/
18/04/2008 03:50      18.0   7.0  18.4  10.6  49  1008   ---   SSW    27    27   ---   0.9 Scattered Clouds/
18/04/2008 04:50      17.0   8.0  17.7   9.3  55  1008   ---   SSW    26    26   ---   0.9 Few Clouds/
18/04/2008 05:50      18.0   8.0  18.6  11.3  52  1007   ---   SSW    23    23   ---   0.9 Few Clouds/
18/04/2008 06:50      18.0   8.0  18.6  11.8  52  1008   ---   SSW    19    19   ---   0.9 Scattered Clouds/
18/04/2008 07:50      18.0   8.0  18.6  12.4  52  1008   ---   SSW    18    18   ---   0.9 Scattered Clouds/
18/04/2008 08:50      17.0  11.0  18.5  10.1  68  1008   ---    SW    21    21   ---   0.9 Scattered Clouds/
18/04/2008 09:50      20.0   8.0  20.2  13.4  46  1008   ---   SSW    29    29   ---   0.9 Scattered Clouds/
18/04/2008 10:50      21.0  10.0  21.4  14.6  49  1008   ---   SSW    32    32   ---   --- /
18/04/2008 11:50      23.0  10.0  23.1  17.6  44  1008   ---     S    34    34   ---   --- /
18/04/2008 12:50      23.0  10.0  23.1  17.3  44  1009   ---   SSW    42    42   ---   6.0 Broken Clouds/
18/04/2008 13:50      24.0  10.0  24.0  19.0  41  1008   ---   SSW    37    37   ---   6.0 Broken Clouds/
18/04/2008 14:50      24.0  10.0  24.0  19.2  41  1007   ---   SSW    34    34   ---   --- /
18/04/2008 15:50      25.0  10.0  24.9  20.8  39  1007   ---   SSW    31    31   ---   --- /
18/04/2008 16:50      26.0   8.0  25.6  22.5  32  1006   ---   SSW    27    27   ---   --- /
18/04/2008 17:50      20.0  13.0  21.3  15.3  64  1006   ---    NE    16    16   ---   --- /
18/04/2008 18:20      19.0  13.0  20.5  15.1  68  1006   ---     N    13    13   ---   --- /
18/04/2008 19:50      18.0  13.0  19.8  16.6  73  1006   ---     N     6     6   ---   --- /
18/04/2008 20:50      20.0  12.0  21.0  20.0  60  1006   ---     N     3     3   ---   --- /
18/04/2008 21:50      18.0  12.0  19.5  15.5  68  1006   ---    NE     8     8   ---   --- /
18/04/2008 22:50      23.0   5.0  22.6  19.8  31  1005   ---     N    14    37   ---   --- /
18/04/2008 23:50      27.0   3.0  26.1  23.6  21  1004   ---   SSW    39    66   ---   --- /
19/04/2008 00:50      28.0   2.0  26.7  25.0  19  1003   ---     S    47    71   ---   --- /
19/04/2008 01:50      28.0   2.0  26.7  25.1  19  1003   ---   SSW    40    71   ---   --- /
19/04/2008 02:50      27.0   2.0  26.1  23.8  20  1003   ---    SW    34    69   ---   --- /
19/04/2008 03:50      21.0   8.0  21.1  14.3  43  1007   ---    SW    37    37   ---   --- /
19/04/2008 04:50      20.0  10.0  20.6  12.6  53  1007   ---   WSW    40    40   ---   --- /
19/04/2008 05:50      18.0  12.0  19.5  10.8  68  1008   ---   WSW    26    26   ---   --- /
19/04/2008 06:50      18.0  12.0  19.5  13.2  68  1009   ---    SW    14    14   ---   --- /
19/04/2008 07:50      19.0  11.0  20.0  14.5  60  1008   ---   SSW    14    14   ---   0.9 Scattered Clouds/
19/04/2008 08:50      22.0  11.0  22.4  21.0  50  1008   ---     S     6     6   ---   --- Clear/
19/04/2008 09:20      19.0  13.0  20.5  14.0  68  1008   ---   WSW    16    16   ---   --- Clear/
19/04/2008 10:50      19.0  13.0  20.5  16.7  68  1009   ---     W     8     8   ---   --- Clear/
19/04/2008 12:50      19.0  13.0  20.5  17.7  68  1009   ---   NNE     6     6   ---   --- Clear/
19/04/2008 13:50      20.0  13.0  21.3  16.4  64  1009   ---    NE    13    13   ---   --- /
19/04/2008 14:50      20.0  14.0  21.5  17.4  68  1008   ---   NNE    10    10   ---   --- Clear/
19/04/2008 15:50      19.0  14.0  20.8  14.5  73  1008   ---    NE    14    14   ---   --- Clear/
19/04/2008 16:50      18.0  14.0  20.2  11.3  77  1007   ---    NE    23    23   ---   --- Clear/
19/04/2008 17:50      18.0  14.0  20.2  10.4  77  1007   ---    NE    29    29   ---   --- Clear/
19/04/2008 18:50      18.0  14.0  20.2  11.6  77  1007   ---   ENE    21    21   ---   1.2 Scattered Clouds/
19/04/2008 19:50      18.0  12.0  19.5  11.6  68  1007   ---   ENE    21    21   ---   1.2 Scattered Clouds/
19/04/2008 20:50      17.0  12.0  18.8  11.3  72  1008   ---    NE    16    16   ---   1.2 Scattered Clouds/
19/04/2008 21:50      17.0  12.0  18.8  12.5  72  1008   ---     E    13    13   ---   1.2 Scattered Clouds/
19/04/2008 22:50      17.0  13.0  19.2  14.3  77  1008   ---   WNW     8     8   ---   --- Clear/
19/04/2008 23:50      16.0  13.0  18.5  16.0  82  1008   ---     N     0     0   ---   --- Clear/
20/04/2008 00:50      16.0  13.0  18.5  16.0  82  1008   ---   ---     3     3   ---   --- /
20/04/2008 01:50      15.0  13.0  18.0  15.0  88  1008   ---     N     2     2   ---   --- /
20/04/2008 02:50      16.0  13.0  18.5  16.0  82  1008   ---     N     3     3   ---   --- Clear/
20/04/2008 03:50      15.0  12.0  17.5  15.0  82  1008   ---     N     5     5   ---   --- Clear/
20/04/2008 04:50      15.0  13.0  18.0  15.0  88  1008   ---     N     5     5   ---   --- Clear/
20/04/2008 05:50      14.0  12.0  17.0  14.0  88  1008   ---     N     2     2   ---   0.1 Few Clouds/
20/04/2008 06:50      15.0  13.0  18.0  13.3  88  1008   ---   SSE     6     6   ---   0.1 Scattered Clouds/
20/04/2008 07:50      15.0  13.0  18.0  15.0  88  1009   ---     N     3     3   ---   0.0 Scattered Clouds/
20/04/2008 08:50      16.0  14.0  19.0  16.0  88  1009   ---     N     3     3   ---   0.1 Scattered Clouds/
20/04/2008 09:50      16.0  14.0  19.0  14.4  88  1009   ---     W     6     6   ---   0.1 Scattered Clouds/
20/04/2008 10:50      17.0  14.0  19.5  14.3  83  1009   ---     W     8     8   ---   0.1 Scattered Clouds/
20/04/2008 12:50      21.0  14.0  22.3  16.5  64  1008   ---   ENE    18    18   ---   0.3 Few Clouds/
20/04/2008 14:50      20.0  14.0  21.5  17.8  68  1007   ---     N     8     8   ---   --- /
20/04/2008 15:20      19.0  15.0  21.2  16.2  78  1006   ---   WSW    10    10   ---   --- /
20/04/2008 16:20      20.0  15.0  21.8  17.8  73  1005   ---   WSW     8     8   ---   --- /
20/04/2008 17:50      20.0  15.0  21.8  20.0  73  1004   ---     N     5     5   ---   --- /
20/04/2008 18:50      20.0  14.0  21.5  16.4  68  1004   ---   WSW    13    13   ---   --- /
20/04/2008 19:50      19.0  14.0  20.8  19.0  73  1004   ---     N     5     5   ---   --- /
20/04/2008 20:50      19.0  14.0  20.8  19.0  73   ---   ---     N     2     2   ---   --- /
20/04/2008 21:50      19.0  13.0  20.5  19.0  68   ---   ---     N     5     5   ---   --- /
20/04/2008 22:50      18.0  13.0  19.8  15.5  73   ---   ---   NNE     8     8   ---   --- /
20/04/2008 23:50      17.0  13.0  19.2  15.5  77   ---   ---     N     6     6   ---   --- /
21/04/2008 00:50      16.0  13.0  18.5  16.0  82   ---   ---     N     5     5   ---   --- /
21/04/2008 01:50      22.0   9.0  22.1  16.2  43   ---   ---   WSW    32    32   ---   --- /
21/04/2008 02:50      21.0   9.0  21.3  13.7  46  1003   ---   SSW    50    69   ---   --- /
21/04/2008 03:50      18.0  13.0  19.8   8.9  73  1004   ---   SSW    50    50   ---   --- /
21/04/2008 04:50      17.0  13.0  19.2   9.1  77  1006   ---   SSW    27    27   ---   --- /
21/04/2008 05:50      17.0  11.0  18.5   9.8  68  1006   ---    SW    23    23   ---   --- /
21/04/2008 06:50      17.0  11.0  18.5  11.3  68  1006   ---   SSW    16    16   ---   --- /
21/04/2008 07:50      18.0  10.0  19.0  12.6  60  1007   ---    SW    16    16   ---   --- /
21/04/2008 08:50      17.0  10.0  18.2   9.3  63  1007   ---     W    26    26   ---   --- /
21/04/2008 09:50      17.0  11.0  18.5   9.3  68  1008   ---   WSW    26    26   ---   4.2 Scattered Clouds/
21/04/2008 10:20      17.0  11.0  18.5  10.4  68  1008   ---     W    19    19   ---   --- /
21/04/2008 12:50      17.0  12.0  18.8  10.1  72  1009   ---     W    21    21   ---   0.7 Scattered Clouds/
21/04/2008 13:50      17.0  12.0  18.8   9.1  72  1099   ---     W    27    27   ---   0.7 Scattered Clouds/
21/04/2008 14:50      18.0  13.0  19.8  11.8  73  1009   ---     W    19    19   ---   0.7 Scattered Clouds/
21/04/2008 15:50      17.0  12.0  18.8   9.1  72  1010   ---     W    27    27   ---   0.7 Scattered Clouds/
21/04/2008 16:50      17.0  12.0  18.8  11.3  72  1010   ---     W    16    16   ---   0.7 Scattered Clouds/
21/04/2008 17:50      17.0  12.0  18.8   9.8  72  1010   ---     W    23    23   ---   0.7 Scattered Clouds/
21/04/2008 18:50      17.0  12.0  18.8  11.0  72  1010   ---     W    18    18   ---   0.7 Broken Clouds/
21/04/2008 19:50      17.0  11.0  18.5  11.3  68  1010   ---     W    16    16   ---   0.7 Broken Clouds/
21/04/2008 20:50      16.0  10.0  17.5  12.5  68  1011   ---     S    10    10   ---   0.7 Broken Clouds/
21/04/2008 21:50      17.0  11.0  18.5  12.5  68  1011   ---    SW    13    13   ---   0.7 Broken Clouds/
21/04/2008 22:50      17.0  10.0  18.2  11.9  63  1011   ---   SSW    14    14   ---   0.7 Broken Clouds/
21/04/2008 23:50      17.0   9.0  18.0  11.0  59  1011   ---    SW    18    18   ---   0.7 Broken Clouds/
22/04/2008 00:50      17.0  10.0  18.2   9.8  63  1011   ---    SW    23    23   ---   0.7 Broken Clouds/
22/04/2008 01:50      16.0  10.0  17.5   8.4  68  1011   ---   SSW    23    23   ---   0.7 Broken Clouds/
22/04/2008 02:50      16.0  10.0  17.5   8.7  68  1011   ---    SW    21    21   ---   0.7 Broken Clouds/
22/04/2008 03:50      16.0   9.0  17.2   7.8  63  1011   ---   SSW    26    26   ---   0.7 Broken Clouds/
22/04/2008 04:50      16.0  10.0  17.5   7.6  68  1011   ---    SW    27    27   ---   0.7 Broken Clouds/
22/04/2008 05:50      16.0  10.0  17.5   7.4  68  1010   ---    SW    29    29   ---   0.7 Broken Clouds/
22/04/2008 06:50      16.0  11.0  17.8   7.6  72  1011   ---   WSW    27    27   ---   0.7 Few Clouds/
22/04/2008 07:50      16.0  11.0  17.8   7.6  72  1011   ---   WSW    27    27   ---   0.7 Few Clouds/
22/04/2008 08:50      16.0  10.0  17.5   7.6  68  1012   ---   WSW    27    27   ---   0.7 Few Clouds/
22/04/2008 09:20      17.0  11.0  18.5   8.9  68  1012   ---   WSW    29    29   ---   0.7 Few Clouds/
22/04/2008 10:20      17.0  10.0  18.2   9.1  63  1012   ---   WSW    27    27   ---   0.7 Few Clouds/
22/04/2008 11:20      18.0  11.0  19.2  10.2  64  1012   ---    SW    31    31   ---   0.7 Few Clouds/
22/04/2008 12:50      20.0  10.0  20.6  13.2  53  1012   ---    SW    31    31   ---   0.7 Few Clouds/
22/04/2008 13:50      19.0  11.0  20.0  11.7  60  1012   ---   WSW    31    31   ---   0.7 Few Clouds/
22/04/2008 14:50      18.0  11.0  19.2  10.8  64  1013   ---     W    26    26   ---   0.7 Few Clouds/
22/04/2008 15:50      17.0  12.0  18.8   9.3  72  1013   ---     W    26    26   ---   0.7 Few Clouds/
22/04/2008 16:50      17.0  11.0  18.5   9.1  68  1013   ---     W    27    27   ---   0.7 Few Clouds/
22/04/2008 17:50      17.0  12.0  18.8   9.8  72  1014   ---     W    23    23   ---   0.7 Few Clouds/
22/04/2008 18:50      18.0  11.0  19.2  11.6  64  1014   ---   WSW    21    21   ---   0.7 Few Clouds/
22/04/2008 19:50      17.0  10.0  18.2   9.3  63  1014   ---   WSW    26    26   ---   0.7 Few Clouds/
22/04/2008 20:50      17.0  10.0  18.2   9.8  63  1015   ---     W    23    23   ---   0.8 Few Clouds/
22/04/2008 21:50      17.0  10.0  18.2   9.3  63  1016   ---   WSW    26    26   ---   0.8 Few Clouds/
22/04/2008 22:50      16.0   8.0  16.9   9.0  59  1016   ---    SW    19    19   ---   0.8 Few Clouds/
22/04/2008 23:50      16.0  10.0  17.5   7.8  68  1016   ---   WSW    26    26   ---   0.8 Few Clouds/
23/04/2008 00:50      16.0  10.0  17.5   8.7  68  1017   ---   WSW    21    21   ---   0.8 Few Clouds/
23/04/2008 01:50      16.0   9.0  17.2   9.9  63  1016   ---    SW    16    16   ---   0.8 Few Clouds/
23/04/2008 02:50      16.0  11.0  17.8   7.6  72  1016   ---     W    27    27   ---   0.6 Scattered Clouds/
23/04/2008 03:50      16.0  11.0  17.8   7.2  72  1016   ---     W    31    31   ---   0.5 Scattered Clouds/
23/04/2008 04:50      16.0  11.0  17.8   7.4  72  1016   ---     W    29    29   ---   0.5 Scattered Clouds/
23/04/2008 05:50      16.0  11.0  17.8   7.6  72  1016   ---     W    27    27   ---   0.7 Scattered Clouds/
23/04/2008 06:50      16.0  11.0  17.8   7.4  72  1016   ---     W    29    29   ---   0.7 Scattered Clouds/
23/04/2008 07:50      16.0  11.0  17.8   7.6  72  1017   ---     W    27    27   ---   0.7 Scattered Clouds/
23/04/2008 08:50      16.0  11.0  17.8   7.2  72  1018   ---     W    31    31   ---   0.5 Broken Clouds/
23/04/2008 09:50      16.0  11.0  17.8   7.6  72  1018   ---     W    27    27   ---   0.5 Broken Clouds/
23/04/2008 10:20      16.0  11.0  17.8   8.7  72  1019   ---     W    21    21   ---   0.7 Broken Clouds/
23/04/2008 11:50      16.0  12.0  18.1   8.4  77  1019   ---     W    23    23   ---   0.7 Broken Clouds/
23/04/2008 13:50      16.0  11.0  17.8   7.6  72  1020   ---     W    27    27   ---   0.6 Scattered Clouds/
23/04/2008 14:50      16.0  11.0  17.8   7.6  72  1020   ---   WNW    27    27   ---   0.6 Scattered Clouds/
23/04/2008 15:50      16.0  11.0  17.8   7.6  72  1020   ---     W    27    27   ---   0.6 Scattered Clouds/
23/04/2008 16:50      16.0  12.0  18.1   8.7  77  1020   ---     W    21    21   ---   0.6 Scattered Clouds/
23/04/2008 17:50      17.0  13.0  19.2   9.8  77  1020   ---     W    23    23   ---   0.5 Scattered Clouds/
23/04/2008 18:50      16.0  12.0  18.1   9.9  77  1020   ---     W    16    16   ---   0.5 Scattered Clouds/
23/04/2008 19:50      16.0  12.0  18.1  10.6  77  1020   ---   WSW    14    14   ---   0.5 Few Clouds/
23/04/2008 20:50      16.0  12.0  18.1  12.5  77  1021   ---    SW    10    10   ---   0.6 Few Clouds/
23/04/2008 21:50      15.0  11.0  17.1  10.0  77  1021   ---     S    13    13   ---   0.6 Few Clouds/
23/04/2008 22:50      15.0  10.0  16.8  11.3  72  1022   ---     S    10    10   ---   --- /
23/04/2008 23:50      15.0  10.0  16.8  10.0  72  1022   ---     S    13    13   ---   --- /
24/04/2008 00:50      15.0  10.0  16.8  12.0  72  1022   ---     S     8     8   ---   --- /
24/04/2008 01:50      14.0  10.0  16.1  10.1  77  1022   ---     S    10    10   ---   --- /
24/04/2008 02:50      14.0  10.0  16.1   8.7  77  1021   ---     S    13    13   ---   --- /
24/04/2008 03:50      13.0   9.0  15.1   6.6  77  1021   ---     S    14    14   ---   --- /
24/04/2008 04:50      13.0   8.0  14.8   8.9  72  1021   ---     S    10    10   ---   --- /
24/04/2008 05:50      12.0   8.0  14.1   8.5  77  1021   ---   SSW     8     8   ---   --- /
24/04/2008 06:50      12.0   8.0  14.1   8.5  77  1020   ---   SSW     8     8   ---   --- /
24/04/2008 07:50      14.0   9.0  15.8   8.0  72  1021   ---    SW    14    14   ---   --- /
24/04/2008 08:50      16.0  10.0  17.5  11.3  68  1021   ---    SW    13    13   ---   --- /
24/04/2008 09:50      16.0  11.0  17.8  14.4  72  1022   ---     W     6     6   ---   --- /
24/04/2008 11:50      17.0  12.0  18.8  11.9  72  1022   ---    NW    14    14   ---   0.5 Few Clouds/
24/04/2008 12:50      17.0  12.0  18.8  13.8  72  1023   ---   NNW    10    10   ---   0.5 Few Clouds/
24/04/2008 13:50      17.0  12.0  18.8  14.3  72  1022   ---     N     8     8   ---   0.6 Scattered Clouds/
24/04/2008 14:50      17.0  13.0  19.2  12.5  77  1022   ---   NNE    13    13   ---   0.6 Scattered Clouds/
24/04/2008 15:50      17.0  12.0  18.8  13.8  72  1022   ---     N    10    10   ---   0.6 Few Clouds/
24/04/2008 16:50      17.0  12.0  18.8  15.5  72  1022   ---   NNW     6     6   ---   0.6 Few Clouds/
24/04/2008 17:50      17.0  12.0  18.8  13.8  72  1021   ---     N    10    10   ---   0.6 Few Clouds/
24/04/2008 18:50      17.0  12.0  18.8  13.8  72  1021   ---     N    10    10   ---   0.6 Few Clouds/
24/04/2008 19:50      16.0  12.0  18.1  11.3  77  1021   ---   NNE    13    13   ---   0.6 Few Clouds/
24/04/2008 20:50      16.0  12.0  18.1   9.9  77  1021   ---    NE    16    16   ---   0.6 Few Clouds/
24/04/2008 21:50      16.0  12.0  18.1   9.9  77  1023   ---    NE    16    16   ---   0.6 Few Clouds/
24/04/2008 22:50      15.0  11.0  17.1   9.3  77  1023   ---   ENE    14    14   ---   0.6 Few Clouds/
24/04/2008 23:50      15.0  11.0  17.1   9.3  77  1022   ---   ENE    14    14   ---   0.6 Few Clouds/
25/04/2008 00:50      15.0  10.0  16.8  13.3  72  1023   ---    SW     6     6   ---   0.6 Few Clouds/
25/04/2008 01:50      15.0  11.0  17.1  15.0  77  1022   ---     N     5     5   ---   0.6 Few Clouds/
25/04/2008 02:50      13.0   9.0  15.1  13.0  77  1022   ---     N     3     3   ---   0.6 Few Clouds/
25/04/2008 03:50      14.0  10.0  16.1  14.0  77  1022   ---     N     3     3   ---   0.6 Few Clouds/
25/04/2008 04:50      14.0  10.0  16.1  14.0  77  1022   ---     N     3     3   ---   --- /
25/04/2008 05:50      14.0  11.0  16.5   8.0  82  1022   ---     E    14    14   ---   --- /
25/04/2008 06:50      14.0  11.0  16.5   8.0  82  1022   ---   ENE    14    14   ---   --- /
25/04/2008 07:50      15.0  12.0  17.5   9.3  82  1023   ---   ENE    14    14   ---   --- /
25/04/2008 08:50      16.0  12.0  18.1   9.9  77  1024   ---   ENE    16    16   ---   0.6 Scattered Clouds/
25/04/2008 09:50      17.0  12.0  18.8  11.0  72  1024   ---    NE    18    18   ---   0.5 Broken Clouds/
25/04/2008 10:50      17.0  12.0  18.8  10.4  72  1024   ---    NE    19    19   ---   0.5 Broken Clouds/
25/04/2008 11:50      17.0  12.0  18.8  11.0  72  1025   ---    NE    18    18   ---   0.5 Broken Clouds/
25/04/2008 12:50      18.0  12.0  19.5  13.2  68  1024   ---    NE    14    14   ---   0.6 Scattered Clouds/
25/04/2008 13:50      18.0  12.0  19.5  13.8  68  1024   ---   NNE    13    13   ---   0.6 Scattered Clouds/
25/04/2008 14:50      17.0  12.0  18.8  12.5  72  1024   ---   NNE    13    13   ---   0.6 Scattered Clouds/
25/04/2008 15:50      17.0  12.0  18.8  11.3  72  1024   ---   NNW    16    16   ---   0.6 Scattered Clouds/
25/04/2008 16:50      17.0  12.0  18.8  11.9  72  1023   ---     N    14    14   ---   0.6 Scattered Clouds/
25/04/2008 17:50      17.0  12.0  18.8  11.9  72  1023   ---   NNW    14    14   ---   0.6 Scattered Clouds/
25/04/2008 18:50      17.0  12.0  18.8  11.9  72  1022   ---   NNW    14    14   ---   0.6 Scattered Clouds/
25/04/2008 19:50      16.0  12.0  18.1  10.6  77  1022   ---    NW    14    14   ---   0.6 Broken Clouds/
25/04/2008 20:50      16.0  12.0  18.1  13.2  77  1023   ---    NW     8     8   ---   0.6 Broken Clouds/
25/04/2008 21:50      16.0  12.0  18.1  11.3  77  1023   ---    NW    13    13   ---   0.6 Broken Clouds/
25/04/2008 22:50      16.0  12.0  18.1  12.5  77  1023   ---    NW    10    10   ---   0.6 Broken Clouds/
25/04/2008 23:50      16.0  12.0  18.1  13.2  77  1023   ---   NNW     8     8   ---   0.6 Scattered Clouds/
26/04/2008 00:50      16.0  12.0  18.1  13.2  77  1023   ---    NW     8     8   ---   0.6 Scattered Clouds/
26/04/2008 01:50      16.0  12.0  18.1  16.0  77  1022   ---     N     5     5   ---   0.6 Scattered Clouds/
26/04/2008 02:50      14.0  10.0  16.1  10.1  77  1021   ---     S    10    10   ---   0.6 Scattered Clouds/
26/04/2008 03:50      13.0   9.0  15.1   7.4  77  1021   ---     S    13    13   ---   0.6 Scattered Clouds/
26/04/2008 04:50      12.0   7.0  13.7  12.0  71  1020   ---     N     5     5   ---   0.6 Few Clouds/
26/04/2008 05:20      13.0   7.0  14.4  13.0  67  1020   ---     N     3     3   ---   0.6 Few Clouds/
26/04/2008 06:50      12.0   7.0  13.7  10.1  71  1020   ---     S     6     6   ---   0.6 Few Clouds/
26/04/2008 07:50      15.0   9.0  16.5  15.0  67  1020   ---     N     2     2   ---   0.7 Few Clouds/
26/04/2008 08:50      15.0   9.0  16.5  11.3  67  1020   ---   WSW    10    10   ---   --- /
26/04/2008 09:50      16.0  11.0  17.8  11.3  72  1020   ---   WSW    13    13   ---   --- /
26/04/2008 10:50      17.0  12.0  18.8  15.5  72  1020   ---     W     6     6   ---   --- /
26/04/2008 11:50      18.0  12.0  19.5  16.6  68  1020   ---     W     6     6   ---   --- /
26/04/2008 12:50      18.0  12.0  19.5  16.6  68  1020   ---     W     6     6   ---   0.6 Scattered Clouds/
26/04/2008 13:50      17.0  13.0  19.2  13.8  77  1020   ---     N    10    10   ---   0.4 Scattered Clouds/
26/04/2008 14:50      17.0  13.0  19.2  10.4  77  1020   ---   NNE    19    19   ---   0.4 Scattered Clouds/
26/04/2008 15:50      18.0  12.0  19.5  10.6  68  1019   ---    NE    27    27   ---   0.4 Broken Clouds/
26/04/2008 16:50      18.0   9.0  18.8  10.4  56  1019   ---    NE    29    29   ---   0.7 Few Clouds/
26/04/2008 17:50      17.0  10.0  18.2   8.9  63  1019   ---    NE    29    29   ---   0.7 Few Clouds/
26/04/2008 18:50      17.0   9.0  18.0   9.8  59  1019   ---   ENE    23    23   ---   0.7 Scattered Clouds/
26/04/2008 19:50      16.0   7.0  16.7   9.0  55  1020   ---   ENE    19    19   ---   --- /
26/04/2008 20:50      16.0   7.0  16.7   9.0  55  1020   ---   ENE    19    19   ---   --- /
26/04/2008 21:50      16.0   8.0  16.9   9.0  59  1020   ---   ENE    19    19   ---   --- /
26/04/2008 22:50      15.0   7.0  15.9   7.6  59  1020   ---   ENE    19    19   ---   --- /
26/04/2008 23:50      15.0   8.0  16.2   8.6  63  1020   ---   ENE    16    16   ---   --- /
27/04/2008 00:50      16.0  10.0  17.5   7.2  68  1020   ---   NNE    31    31   ---   --- /
27/04/2008 01:50      16.0  11.0  17.8   7.2  72  1020   ---   NNE    31    31   ---   --- /
27/04/2008 02:50      16.0  10.0  17.5   7.2  68  1020   ---   NNE    31    31   ---   --- /
27/04/2008 03:50      16.0  10.0  17.5   7.2  68  1020   ---   NNE    31    31   ---   --- /
27/04/2008 04:50      16.0   9.0  17.2   7.8  63  1020   ---    NE    26    26   ---   --- /
27/04/2008 05:50      15.0   8.0  16.2   7.3  63  1020   ---    NE    21    21   ---   --- /
27/04/2008 06:50      15.0   8.0  16.2   8.2  63  1020   ---   ENE    18    18   ---   --- /
27/04/2008 07:50      16.0   8.0  16.9   9.0  59  1020   ---    NE    19    19   ---   --- /
27/04/2008 08:50      16.0   8.0  16.9   8.7  59  1021   ---    NE    21    21   ---   0.9 Few Clouds/
27/04/2008 09:50      17.0   9.0  18.0  10.4  59  1021   ---    NE    19    19   ---   0.9 Few Clouds/
27/04/2008 10:20      17.0   9.0  18.0  11.3  59  1022   ---    NE    16    16   ---   0.9 Few Clouds/
27/04/2008 11:50      18.0   9.0  18.8  13.2  56  1022   ---    NE    14    14   ---   0.9 Few Clouds/
27/04/2008 12:50      18.0  10.0  19.0  12.6  60  1022   ---   NNE    16    16   ---   0.9 Few Clouds/
27/04/2008 13:50      18.0   9.0  18.8  13.2  56  1021   ---   NNE    14    14   ---   0.9 Few Clouds/
27/04/2008 14:50      18.0   9.0  18.8  12.6  56  1021   ---    NE    16    16   ---   0.9 Few Clouds/
27/04/2008 15:50      18.0  10.0  19.0  12.6  60  1021   ---   NNE    16    16   ---   0.9 Few Clouds/
27/04/2008 16:50      17.0   9.0  18.0  11.3  59  1020   ---   NNE    16    16   ---   0.9 Few Clouds/
27/04/2008 17:50      17.0   9.0  18.0  11.3  59  1020   ---   NNE    16    16   ---   0.8 Few Clouds/
27/04/2008 18:50      17.0   9.0  18.0  12.5  59  1020   ---    NE    13    13   ---   --- /
27/04/2008 19:50      16.0   9.0  17.2  12.5  63  1020   ---    NE    10    10   ---   --- /
27/04/2008 20:50      16.0   9.0  17.2  11.3  63  1020   ---    NE    13    13   ---   --- /
27/04/2008 21:50      15.0   8.0  16.2  11.3  63  1021   ---   ENE    10    10   ---   --- /
27/04/2008 22:50      15.0   8.0  16.2  13.3  63  1021   ---   ENE     6     6   ---   --- /
27/04/2008 23:20      15.0   7.0  15.9  13.3  59  1021   ---   ENE     6     6   ---   --- /
28/04/2008 00:50      14.0   6.0  14.9  14.0  59  1021   ---     N     5     5   ---   --- /
28/04/2008 01:50      13.0   6.0  14.2   9.7  62  1020   ---   SSE     8     8   ---   --- /
28/04/2008 02:50      12.0   7.0  13.7  12.0  71  1020   ---     N     5     5   ---   --- /
28/04/2008 03:50      12.0   6.0  13.4  12.0  67  1020   ---     N     5     5   ---   --- /
28/04/2008 04:50      11.0   5.0  12.4   7.3  66  1019   ---   SSE     8     8   ---   --- /
28/04/2008 05:50      11.0   5.0  12.4   9.0  66  1019   ---     S     6     6   ---   --- /
28/04/2008 06:50      12.0   6.0  13.4   8.5  67  1019   ---   SSE     8     8   ---   --- /
28/04/2008 07:50      14.0   8.0  15.5  12.3  67  1019   ---   SSW     6     6   ---   --- /
28/04/2008 08:50      15.0   5.0  15.5   9.3  51  1020   ---    SW    14    14   ---   --- /
28/04/2008 09:20      16.0   7.0  16.7  11.3  55  1020   ---    SW    13    13   ---   --- /
28/04/2008 10:20      16.0   9.0  17.2  12.5  63  1020   ---     W    10    10   ---   --- /
28/04/2008 11:50      17.0  11.0  18.5  13.8  68  1020   ---    NW    10    10   ---   --- /
28/04/2008 12:50      17.0  11.0  18.5  12.5  68  1019   ---     N    13    13   ---   --- /
28/04/2008 13:50      18.0  10.0  19.0  13.8  60  1019   ---     N    13    13   ---   --- /
28/04/2008 14:50      18.0  11.0  19.2  12.6  64  1018   ---   NNE    16    16   ---   0.6 Few Clouds/
28/04/2008 15:50      18.0  10.0  19.0  12.6  60  1018   ---   NNE    16    16   ---   --- /
28/04/2008 16:50      18.0  10.0  19.0  12.6  60  1017   ---   NNE    16    16   ---   --- /
28/04/2008 17:50      18.0   8.0  18.6  12.4  52  1016   ---    NE    18    18   ---   --- /
28/04/2008 18:50      17.0   8.0  17.7  11.3  55  1016   ---    NE    16    16   ---   --- /
28/04/2008 19:50      17.0   9.0  18.0  11.0  59  1016   ---    NE    18    18   ---   --- /
28/04/2008 20:50      16.0   7.0  16.7   9.9  55  1016   ---   ENE    16    16   ---   --- /
28/04/2008 21:50      16.0   8.0  16.9  13.2  59  1016   ---     E     8     8   ---   --- /
28/04/2008 22:50      15.0   6.0  15.7  15.0  55  1015   ---     N     3     3   ---   --- /
28/04/2008 23:50      15.0   7.0  15.9  11.3  59  1015   ---   SSW    10    10   ---   --- /
29/04/2008 00:50      13.0   5.0  13.9   9.7  58  1015   ---     S     8     8   ---   --- /
29/04/2008 01:50      13.0   5.0  13.9  13.0  58  1014   ---     N     5     5   ---   --- /
29/04/2008 02:50      14.0   4.0  14.5  14.0  51  1013   ---     N     5     5   ---   --- /
29/04/2008 03:50      14.0   6.0  14.9  14.0  59  1012   ---     N     3     3   ---   --- /
29/04/2008 04:50      14.0   4.0  14.5  10.1  51  1012   ---    SW    10    10   ---   --- /
29/04/2008 05:50      16.0   1.0  15.8   9.6  36  1011   ---   SSW    18    18   ---   --- /
29/04/2008 06:50      16.0   6.0  16.5  16.0  51  1011   ---     N     3     3   ---   --- /
29/04/2008 07:50      16.0   2.0  15.9  10.6  39  1011   ---   SSW    14    14   ---   --- /
29/04/2008 08:50      17.0   4.0  17.1  17.0  42  1010   ---     N     2     2   ---   --- /
29/04/2008 09:50      19.0   5.0  18.9  13.2  40  1010   ---   SSW    19    19   ---   --- /
29/04/2008 10:20      20.0   0.0  19.4  15.1  26  1010   ---     S    18    18   ---   --- /
29/04/2008 13:50      20.0   8.0  20.2  17.4  46  1008   ---     N    10    10   ---   --- /
29/04/2008 14:50      23.0   6.0  22.7  18.0  33  1008   ---    SW    29    29   ---   0.6 Scattered Clouds/
29/04/2008 15:50      23.0   8.0  22.9  17.8  38  1007   ---    SW    31    31   ---   --- /
29/04/2008 16:50      20.0  10.0  20.6  18.8  53  1008   ---     N     6     6   ---   --- /
29/04/2008 17:50      19.0  10.0  19.8  13.2  56  1008   ---   ENE    19    19   ---   --- /
29/04/2008 18:50      18.0  12.0  19.5  11.8  68  1009   ---   ENE    19    19   ---   --- /
29/04/2008 19:50      18.0  11.0  19.2  11.8  64  1009   ---   ENE    19    19   ---   --- /
29/04/2008 20:50      17.0  10.0  18.2  11.9  63  1009   ---     E    14    14   ---   --- /
29/04/2008 21:50      17.0  11.0  18.5  17.0  68  1010   ---     N     3     3   ---   --- /
29/04/2008 22:50      17.0  11.0  18.5  17.0  68  1010   ---     N     2     2   ---   --- /
29/04/2008 23:50      16.0  11.0  17.8  16.0  72  1010   ---     N     2     2   ---   --- /
30/04/2008 00:50      15.0  10.0  16.8  15.0  72  1010   ---     N     5     5   ---   --- /
30/04/2008 01:50      14.0   9.0  15.8  14.0  72  1009   ---     N     3     3   ---   --- /
30/04/2008 02:50      14.0   9.0  15.8  14.0  72  1009   ---     N     5     5   ---   --- /
30/04/2008 03:50      13.0   8.0  14.8  11.2  72  1008   ---     S     6     6   ---   --- /
30/04/2008 04:50      14.0   9.0  15.8  14.0  72  1008   ---     N     5     5   ---   --- /
30/04/2008 05:50      13.0   8.0  14.8  13.0  72  1008   ---     N     5     5   ---   --- /
30/04/2008 06:50      13.0   8.0  14.8  13.0  72  1009   ---     N     2     2   ---   --- /
30/04/2008 07:50      15.0  10.0  16.8  15.0  72  1009   ---     N     2     2   ---   --- /
30/04/2008 08:50      17.0  11.0  18.5  11.3  68  1009   ---    NE    16    16   ---   --- /
30/04/2008 09:50      17.0  12.0  18.8  11.9  72  1009   ---    NE    14    14   ---   --- /
30/04/2008 10:50      18.0  13.0  19.8  13.8  73  1010   ---   NNE    13    13   ---   --- /
30/04/2008 11:50      18.0  12.0  19.5  12.6  68  1010   ---   NNE    16    16   ---   --- /
30/04/2008 12:50      19.0  12.0  20.2  14.0  64  1009   ---    NE    16    16   ---   --- /
30/04/2008 13:50      21.0  10.0  21.4  15.6  49  1009   ---   ENE    23    23   ---   --- /
30/04/2008 14:20      21.0  11.0  21.6  15.8  53  1009   ---   ENE    21    21   ---   --- /
30/04/2008 15:50      20.0  13.0  21.3  14.2  64  1009   ---    NE    23    23   ---   --- /
30/04/2008 16:50      21.0  11.0  21.6  17.7  53  1009   ---    NE    13    13   ---   --- /
30/04/2008 17:50      20.0  13.0  21.3  16.4  64  1009   ---    SW    13    13   ---   --- /
30/04/2008 18:50      19.0  14.0  20.8  16.2  73  1009   ---   WSW    10    10   ---   1.2 Scattered Clouds/
30/04/2008 19:50      18.0  15.0  20.5  15.5  83  1009   ---   WSW     8     8   ---   1.2 Scattered Clouds/
30/04/2008 20:50      17.0  14.0  19.5  15.5  83  1009   ---   SSW     6     6   ---   1.2 Scattered Clouds/
30/04/2008 21:50      17.0  14.0  19.5  17.0  83  1011   ---     N     5     5   ---   1.2 Scattered Clouds/
30/04/2008 22:50      17.0  13.0  19.2  12.5  77  1011   ---    SW    13    13   ---   1.2 Scattered Clouds/
30/04/2008 23:50      17.0  12.0  18.8  14.3  72  1011   ---   SSW     8     8   ---   0.6 Scattered Clouds/
01/05/2008 00:50      17.0  11.0  18.5  13.8  68  1012   ---     S    10    10   ---   0.6 Scattered Clouds/
01/05/2008 01:50      18.0  12.0  19.5  12.6  68  1011   ---   WSW    16    16   ---   0.6 Scattered Clouds/
01/05/2008 02:50      18.0  12.0  19.5  12.4  68  1012   ---   WSW    18    18   ---   0.6 Scattered Clouds/
01/05/2008 03:50      18.0  12.0  19.5  18.0  68  1012   ---     N     3     3   ---   0.6 Scattered Clouds/
01/05/2008 04:50      16.0  11.0  17.8  12.5  72  1011   ---   ENE    10    10   ---   0.6 Scattered Clouds/
01/05/2008 05:50      16.0  10.0  17.5  14.4  68  1011   ---    NE     6     6   ---   0.6 Scattered Clouds/
01/05/2008 06:50      16.0  10.0  17.5  13.2  68  1012   ---    SE     8     8   ---   --- /
01/05/2008 07:50      18.0  11.0  19.2  15.5  64  1013   ---     E     8     8   ---   --- /
01/05/2008 08:50      20.0  11.0  20.8  15.9  56  1013   ---   ENE    14    14   ---   --- /
01/05/2008 09:50      18.0  12.0  19.5  15.5  68  1014   ---   WNW     8     8   ---   --- /
01/05/2008 11:50      19.0  13.0  20.5  14.5  68  1015   ---   NNE    14    14   ---   --- /
01/05/2008 12:50      20.0  14.0  21.5  15.9  68  1014   ---   NNE    14    14   ---   --- /
01/05/2008 13:50      20.0  14.0  21.5  15.1  68  1014   ---    NE    18    18   ---   --- /
01/05/2008 14:50      20.0  15.0  21.8  15.1  73  1015   ---   NNE    18    18   ---   --- /
01/05/2008 15:50      20.0  15.0  21.8  16.4  73  1015   ---   NNE    13    13   ---   --- /
01/05/2008 16:50      19.0  16.0  21.6  14.0  83  1015   ---   NNE    16    16   ---   --- /
01/05/2008 17:50      19.0  16.0  21.6  14.0  83  1016   ---    NE    16    16   ---   0.2 Few Clouds/
01/05/2008 18:50      18.0  16.0  21.0  11.8  88  1016   ---   NNE    19    19   ---   0.2 Few Clouds/
01/05/2008 19:50      18.0  15.0  20.5  12.6  83  1016   ---    NE    16    16   ---   0.1 Scattered Clouds/
01/05/2008 20:50      18.0  15.0  20.5  13.2  83  1016   ---   ENE    14    14   ---   0.7 Scattered Clouds/
01/05/2008 21:50      18.0  15.0  20.5  15.0  83  1017   ---    NE    10    10   ---   0.7 Scattered Clouds/
01/05/2008 22:50      18.0  16.0  21.0  13.2  88  1017   ---   NNE    14    14   ---   0.7 Scattered Clouds/
01/05/2008 23:50      17.0  15.0  20.0  14.3  88  1017   ---   ENE     8     8   ---   0.2 Few Clouds/
02/05/2008 00:50      17.0  16.0  20.5  11.0  94  1018   ---    NE    18    18   ---   0.2 Scattered Clouds/
02/05/2008 01:50      17.0  16.0  20.5  11.0  94  1017   ---    NE    18    18   ---   0.2 Scattered Clouds/
02/05/2008 02:50      17.0  15.0  20.0  12.5  88  1017   ---   ENE    13    13   ---   0.2 Scattered Clouds/
02/05/2008 03:50      17.0  15.0  20.0  17.0  88  1017   ---     N     3     3   ---   --- / Mist
02/05/2008 04:50      16.0  15.0  19.5  13.2  94  1017   ---   ESE     8     8   ---   --- / Mist
02/05/2008 05:50      17.0  15.0  20.0   9.3  88  1017   ---    NE    26    26   ---   0.3 Scattered Clouds/
02/05/2008 06:50      17.0  15.0  20.0   9.8  88  1018   ---    NE    23    23   ---   0.1 Broken Clouds/
02/05/2008 07:20      17.0  15.0  20.0  10.4  88  1018   ---    NE    19    19   ---   0.2 Few Clouds/
02/05/2008 08:50      17.0  14.0  19.5  10.1  83  1019   ---    NE    21    21   ---   0.2 Few Clouds/
02/05/2008 09:50      18.0  14.0  20.2  10.8  77  1019   ---    NE    26    26   ---   0.2 Few Clouds/
02/05/2008 10:50      19.0  14.0  20.8  12.3  73  1019   ---    NE    26    26   ---   0.2 Scattered Clouds/
02/05/2008 11:50      18.0  14.0  20.2  10.8  77  1019   ---    NE    26    26   ---   0.2 Scattered Clouds/
02/05/2008 12:50      18.0  14.0  20.2  10.4  77  1019   ---    NE    29    29   ---   0.2 Scattered Clouds/
02/05/2008 13:50      18.0  14.0  20.2  10.8  77  1019   ---    NE    26    26   ---   0.2 Scattered Clouds/
02/05/2008 14:50      19.0  15.0  21.2  11.9  78  1019   ---    NE    29    29   ---   0.3 Scattered Clouds/
02/05/2008 15:50      19.0  14.0  20.8  11.6  73  1018   ---    NE    32    32   ---   0.3 Scattered Clouds/
02/05/2008 16:50      18.0  14.0  20.2  10.2  77  1018   ---    NE    31    31   ---   0.3 Scattered Clouds/
02/05/2008 17:50      18.0  14.0  20.2  10.2  77  1018   ---    NE    31    31   ---   0.3 Broken Clouds/
02/05/2008 18:20      18.0  14.0  20.2  10.0  77  1018   ---    NE    32    32   ---   0.3 Broken Clouds/
02/05/2008 19:50      17.0  14.0  19.5   9.3  83  1018   ---   ENE    26    26   ---   0.3 Scattered Clouds/
02/05/2008 20:50      17.0  14.0  19.5  10.1  83  1018   ---    NE    21    21   ---   0.3 Scattered Clouds/
02/05/2008 21:50      17.0  14.0  19.5  10.1  83  1019   ---   ENE    21    21   ---   0.3 Scattered Clouds/
02/05/2008 22:50      17.0  14.0  19.5   9.3  83  1019   ---   ENE    26    26   ---   0.3 Scattered Clouds/
02/05/2008 23:50      17.0  14.0  19.5   9.1  83  1019   ---    NE    27    27   ---   0.4 Few Clouds/
03/05/2008 00:50      15.0  13.0  18.0   8.6  88  1019   ---   ENE    16    16   ---   0.4 Few Clouds/
03/05/2008 01:50      16.0  13.0  18.5   9.9  82  1018   ---   ENE    16    16   ---   0.4 Few Clouds/
03/05/2008 02:50      15.0  13.0  18.0   8.6  88  1018   ---     E    16    16   ---   0.4 Few Clouds/
03/05/2008 03:50      14.0  11.0  16.5  14.0  82  1018   ---     S     3     3   ---   0.4 Few Clouds/
03/05/2008 04:50      13.0  11.0  15.9  13.0  88  1018   ---     S     3     3   ---   0.4 Few Clouds/
03/05/2008 05:50      13.0  10.0  15.5  13.0  82  1018   ---    SE     3     3   ---   0.4 Few Clouds/
03/05/2008 06:50      13.0  11.0  15.9  13.0  88  1018   ---    SE     3     3   ---   --- /
03/05/2008 07:50      15.0  13.0  18.0  15.0  88  1018   ---     S     5     5   ---   --- /
03/05/2008 08:50      17.0  13.0  19.2  15.5  77  1019   ---   ENE     6     6   ---   --- /
03/05/2008 09:50      17.0  13.0  19.2  10.1  77  1019   ---    NE    21    21   ---   --- /
03/05/2008 10:50      18.0  13.0  19.8  11.3  73  1019   ---    NE    23    23   ---   --- /
03/05/2008 11:50      18.0  13.0  19.8  11.3  73  1019   ---    NE    23    23   ---   --- /
03/05/2008 12:50      18.0  13.0  19.8  11.3  73  1019   ---   NNE    23    23   ---   --- /
03/05/2008 13:50      18.0  13.0  19.8  11.3  73  1019   ---    NE    23    23   ---   --- /
03/05/2008 14:50      18.0  13.0  19.8  10.4  73  1018   ---    NE    29    29   ---   --- /
03/05/2008 15:50      18.0  13.0  19.8  10.2  73  1018   ---    NE    31    31   ---   --- /
03/05/2008 16:50      18.0  13.0  19.8  10.0  73  1017   ---    NE    32    32   ---   --- /
03/05/2008 17:50      18.0  13.0  19.8  10.4  73  1017   ---    NE    29    29   ---   --- /
03/05/2008 18:50      18.0  13.0  19.8  10.8  73  1017   ---   ENE    26    26   ---   --- /
03/05/2008 19:50      17.0  13.0  19.2  10.4  77  1018   ---   ENE    19    19   ---   --- /
03/05/2008 20:50      17.0  13.0  19.2  10.4  77  1018   ---   ENE    19    19   ---   --- /
03/05/2008 21:50      16.0  13.0  18.5  12.5  82  1018   ---   ENE    10    10   ---   --- /
03/05/2008 22:50      17.0  13.0  19.2  15.5  77  1019   ---   WSW     6     6   ---   --- /
03/05/2008 23:20      16.0  13.0  18.5  16.0  82  1018   ---     N     5     5   ---   --- /
04/05/2008 00:50      14.0  11.0  16.5  14.0  82  1019   ---     N     2     2   ---   --- /
04/05/2008 01:50      16.0  13.0  18.5  16.0  82  1018   ---     N     2     2   ---   --- /
04/05/2008 02:50      14.0  11.0  16.5  14.0  82  1018   ---     N     5     5   ---   --- /
04/05/2008 03:50      14.0  12.0  17.0  14.0  88  1018   ---     N     5     5   ---   --- /
04/05/2008 04:50      13.0  11.0  15.9  13.0  88  1018   ---     N     3     3   ---   --- /
04/05/2008 05:50      13.0  10.0  15.5  13.0  82  1018   ---     N     3     3   ---   --- /
04/05/2008 06:50      13.0  10.0  15.5  13.0  82  1018   ---     N     5     5   ---   --- /
04/05/2008 07:20      15.0  11.0  17.1  15.0  77  1018   ---     N     5     5   ---   --- /
04/05/2008 08:50      16.0  13.0  18.5  16.0  82  1018   ---     N     5     5   ---   --- /
04/05/2008 09:50      17.0  13.0  19.2  15.5  77  1019   ---   WNW     6     6   ---   0.6 Few Clouds/
04/05/2008 10:50      18.0  14.0  20.2  18.0  77  1019   ---     N     5     5   ---   0.5 Few Clouds/
04/05/2008 11:50      18.0  15.0  20.5  12.6  83  1019   ---   NNE    16    16   ---   0.5 Few Clouds/
04/05/2008 12:50      19.0  16.0  21.6  13.2  83  1018   ---    NE    19    19   ---   0.5 Scattered Clouds/
04/05/2008 13:50      19.0  16.0  21.6  13.0  83  1018   ---    NE    21    21   ---   0.6 Scattered Clouds/
04/05/2008 14:20      19.0  16.0  21.6  13.0  83  1018   ---    NE    21    21   ---   0.6 Scattered Clouds/
04/05/2008 15:50      19.0  15.0  21.2  13.0  78  1018   ---    NE    21    21   ---   0.6 Scattered Clouds/
04/05/2008 16:50      19.0  15.0  21.2  12.3  78  1017   ---    NE    26    26   ---   --- /
04/05/2008 17:50      19.0  15.0  21.2  12.3  78  1017   ---    NE    26    26   ---   --- /
04/05/2008 18:50      19.0  14.0  20.8  13.0  73  1017   ---    NE    21    21   ---   --- /
04/05/2008 19:50      19.0  13.0  20.5  14.0  68  1018   ---   ENE    16    16   ---   --- /
04/05/2008 20:50      18.0  13.0  19.8  12.4  73  1018   ---   ENE    18    18   ---   --- /
04/05/2008 21:50      18.0  14.0  20.2  12.6  77  1019   ---    NE    16    16   ---   --- /
04/05/2008 22:50      17.0  11.0  18.5  11.9  68  1019   ---    NE    14    14   ---   --- /
04/05/2008 23:50      18.0   2.0  17.7  13.2  34  1019   ---   ENE    14    14   ---   --- /
05/05/2008 00:50      18.0   2.0  17.7  12.6  34  1019   ---   ENE    16    16   ---   --- /
05/05/2008 01:50      16.0  10.0  17.5  16.0  68  1019   ---     N     5     5   ---   --- /
05/05/2008 02:50      15.0   7.0  15.9  15.0  59  1018   ---     N     5     5   ---   --- /
05/05/2008 03:50      14.0   6.0  14.9  14.0  59  1018   ---     N     2     2   ---   --- /
05/05/2008 04:50      15.0   5.0  15.5  15.0  51  1018   ---     N     3     3   ---   --- /
05/05/2008 05:50      14.0   5.0  14.7  14.0  55  1018   ---     N     5     5   ---   --- /
05/05/2008 06:50      14.0   5.0  14.7  14.0  55  1019   ---     S     5     5   ---   --- /
05/05/2008 07:50      16.0   7.0  16.7  14.4  55  1019   ---   SSW     6     6   ---   --- /
05/05/2008 08:50      17.0  10.0  18.2  15.5  63  1019   ---   WSW     6     6   ---   --- /
05/05/2008 09:50      18.0  11.0  19.2  18.0  64  1019   ---     N     5     5   ---   --- /
05/05/2008 10:50      19.0  13.0  20.5  17.7  68  1020   ---   NNW     6     6   ---   --- /
05/05/2008 11:50      19.0  13.0  20.5  14.5  68  1019   ---   NNE    14    14   ---   --- /
05/05/2008 12:50      19.0  14.0  20.8  15.1  73  1019   ---   NNE    13    13   ---   --- /
05/05/2008 13:50      20.0  14.0  21.5  15.3  68  1019   ---   NNE    16    16   ---   --- /
05/05/2008 14:50      20.0  14.0  21.5  15.1  68  1019   ---   NNE    18    18   ---   --- /
05/05/2008 15:50      20.0  14.0  21.5  15.3  68  1018   ---   NNE    16    16   ---   --- /
05/05/2008 16:50      20.0  14.0  21.5  15.3  68  1018   ---   NNE    16    16   ---   --- /
05/05/2008 17:50      20.0  14.0  21.5  17.4  68  1018   ---     N    10    10   ---   --- /
05/05/2008 18:50      20.0  14.0  21.5  17.8  68  1018   ---   NNE     8     8   ---   --- /
05/05/2008 19:50      19.0  14.0  20.8  17.7  73  1018   ---   NNE     6     6   ---   --- /
05/05/2008 20:50      19.0  15.0  21.2  19.0  78  1018   ---     N     3     3   ---   --- /
05/05/2008 21:50      18.0  14.0  20.2  13.8  77  1019   ---    SW    13    13   ---   --- /
05/05/2008 22:50      18.0  14.0  20.2  15.0  77  1019   ---   WSW    10    10   ---   --- /
05/05/2008 23:50      17.0  13.0  19.2  17.0  77  1019   ---     N     3     3   ---   --- /
06/05/2008 00:50      16.0  13.0  18.5  16.0  82  1019   ---     N     5     5   ---   --- /
06/05/2008 01:50      17.0  13.0  19.2  17.0  77  1018   ---     N     3     3   ---   --- /
06/05/2008 02:50      16.0  13.0  18.5  12.5  82  1018   ---    NE    10    10   ---   --- /
06/05/2008 03:50      16.0  12.0  18.1  16.0  77  1017   ---     N     5     5   ---   --- /
06/05/2008 04:50      16.0  12.0  18.1  14.4  77  1017   ---     S     6     6   ---   --- /
06/05/2008 05:50      15.0  11.0  17.1  13.3  77  1017   ---   SSE     6     6   ---   --- /
06/05/2008 06:50      16.0  12.0  18.1  10.6  77  1017   ---   ENE    14    14   ---   --- /
06/05/2008 07:50      17.0  12.0  18.8  17.0  72  1017   ---     N     2     2   ---   --- /
06/05/2008 08:50      18.0  13.0  19.8  16.6  73  1017   ---     N     6     6   ---   1.0 Broken Clouds/
06/05/2008 09:50      19.0  13.0  20.5  19.0  68  1017   ---     N     2     2   ---   1.0 Broken Clouds/
06/05/2008 10:50      19.0  13.0  20.5  16.2  68  1018   ---   NNE    10    10   ---   1.0 Broken Clouds/
06/05/2008 11:50      19.0  13.0  20.5  16.2  68  1018   ---    NE    10    10   ---   1.0 Broken Clouds/
06/05/2008 12:50      20.0  12.0  21.0  15.9  60  1017   ---    NE    14    14   ---   1.0 Broken Clouds/
06/05/2008 13:50      21.0  12.0  21.8  16.1  56  1017   ---    NE    19    19   ---   1.0 Scattered Clouds/
06/05/2008 14:50      22.0  12.0  22.6  17.1  53  1017   ---    NE    23    23   ---   0.9 Scattered Clouds/
06/05/2008 15:50      20.0  12.0  21.0  13.5  60  1017   ---   ENE    27    27   ---   0.9 Scattered Clouds/
06/05/2008 16:50      21.0  10.0  21.4  15.2  49  1016   ---   ENE    26    26   ---   0.7 Broken Clouds/
06/05/2008 17:50      21.0  13.0  22.0  15.2  60  1016   ---   ENE    26    26   ---   0.7 Broken Clouds/
06/05/2008 18:50      20.0  13.0  21.3  14.4  64  1015   ---   ENE    21    21   ---   0.7 Broken Clouds/
06/05/2008 19:50      19.0  14.0  20.8  14.0  73  1015   ---    NE    16    16   ---   0.7 Broken Clouds/
06/05/2008 20:50      19.0  14.0  20.8  14.5  73  1016   ---    NE    14    14   ---   0.7 Scattered Clouds/
06/05/2008 21:50      19.0  15.0  21.2  14.0  78  1017   ---     N    16    16   ---   0.7 Scattered Clouds/
06/05/2008 22:50      18.0  15.0  20.5  16.6  83  1017   ---    NE     6     6   ---   0.7 Scattered Clouds/
06/05/2008 23:50      18.0  14.0  20.2  15.0  77  1017   ---    NE    10    10   ---   0.7 Scattered Clouds/
07/05/2008 00:50      18.0  14.0  20.2  13.2  77  1017   ---    NE    14    14   ---   0.7 Scattered Clouds/
07/05/2008 01:50      18.0  14.0  20.2  13.2  77  1016   ---     E    14    14   ---   0.7 Scattered Clouds/
07/05/2008 02:50      17.0  13.0  19.2  12.5  77  1016   ---     E    13    13   ---   0.7 Scattered Clouds/
07/05/2008 03:50      17.0  12.0  18.8  17.0  72  1016   ---     N     3     3   ---   0.7 Scattered Clouds/
07/05/2008 04:50      17.0  14.0  19.5  12.5  83  1016   ---    NE    13    13   ---   0.6 Scattered Clouds/
07/05/2008 05:50      17.0  14.0  19.5  12.5  83  1016   ---   ENE    13    13   ---   0.6 Scattered Clouds/
07/05/2008 06:50      17.0  13.0  19.2  11.0  77  1016   ---   ENE    18    18   ---   0.6 Few Clouds/
07/05/2008 07:20      18.0  14.0  20.2  12.4  77  1016   ---   ENE    18    18   ---   0.6 Few Clouds/
07/05/2008 07:50      18.0  13.0  19.8  12.4  73  1016   ---   ENE    18    18   ---   0.6 Few Clouds/
07/05/2008 09:50      20.0  14.0  21.5  13.8  68  1016   ---   ENE    26    26   ---   0.6 Scattered Clouds/
07/05/2008 10:50      20.0  13.0  21.3  13.4  64  1016   ---   ENE    29    29   ---   0.6 Scattered Clouds/
07/05/2008 11:50      20.0  13.0  21.3  13.2  64  1016   ---   ENE    31    31   ---   0.6 Scattered Clouds/
07/05/2008 12:50      20.0  13.0  21.3  12.7  64  1016   ---   ENE    37    37   ---   0.6 Scattered Clouds/
07/05/2008 13:50      21.0  12.0  21.8  14.6  56  1016   ---   ENE    32    32   ---   0.6 Scattered Clouds/
07/05/2008 14:50      20.0  12.0  21.0  12.7  60  1016   ---   ENE    37    37   ---   0.6 Scattered Clouds/
07/05/2008 15:50      20.0  12.0  21.0  13.0  60  1015   ---    NE    34    34   ---   0.6 Scattered Clouds/
07/05/2008 16:50      20.0  12.0  21.0  13.1  60  1015   ---   ENE    32    32   ---   0.6 Scattered Clouds/
07/05/2008 17:50      20.0  11.0  20.8  13.0  56  1015   ---   ENE    34    34   ---   0.6 Scattered Clouds/
07/05/2008 18:50      19.0  12.0  20.2  11.2  64  1015   ---   ENE    37    37   ---   0.6 Scattered Clouds/
07/05/2008 19:50      19.0  11.0  20.0  11.6  60  1015   ---   ENE    32    32   ---   0.6 Scattered Clouds/
07/05/2008 20:50      18.0  10.0  19.0  10.4  60  1016   ---   ENE    29    29   ---   0.6 Scattered Clouds/
07/05/2008 21:50      18.0   9.0  18.8  10.8  56  1016   ---   ENE    26    26   ---   0.6 Scattered Clouds/
07/05/2008 22:50      17.0  10.0  18.2  11.9  63  1017   ---   ENE    14    14   ---   0.6 Scattered Clouds/
07/05/2008 23:50      17.0  10.0  18.2   9.1  63  1017   ---   ENE    27    27   ---   --- /
08/05/2008 00:50      17.0  10.0  18.2  10.4  63  1017   ---   ENE    19    19   ---   --- /
08/05/2008 01:50      17.0   9.0  18.0  11.9  59  1017   ---     E    14    14   ---   --- /
08/05/2008 02:50      16.0   9.0  17.2  16.0  63  1017   ---     N     5     5   ---   --- /
08/05/2008 03:50      14.0   9.0  15.8  12.3  72  1016   ---   SSE     6     6   ---   --- /
08/05/2008 04:50      16.0  10.0  17.5  16.0  68  1016   ---     N     3     3   ---   --- /
08/05/2008 05:50      13.0   9.0  15.1  13.0  77  1016   ---     N     5     5   ---   --- /
08/05/2008 06:50      14.0   9.0  15.8  14.0  72  1017   ---     N     5     5   ---   --- /
08/05/2008 07:50      16.0  10.0  17.5  16.0  68  1017   ---     N     2     2   ---   --- /
08/05/2008 08:50      17.0  10.0  18.2  13.8  63  1017   ---    SW    10    10   ---   --- /
08/05/2008 09:50      17.0  10.0  18.2  13.8  63  1018   ---   WSW    10    10   ---   --- /
08/05/2008 11:50      19.0  12.0  20.2  19.0  64  1018   ---   NNE     0     0   ---   --- /
08/05/2008 12:50      19.0  12.0  20.2  13.2  64  1017   ---   NNE    19    19   ---   0.9 Few Clouds/
08/05/2008 13:50      20.0  12.0  21.0  14.6  60  1017   ---    NE    19    19   ---   0.9 Scattered Clouds/
08/05/2008 14:50      19.0  13.0  20.5  14.0  68  1017   ---   NNE    16    16   ---   0.6 Broken Clouds/
08/05/2008 15:50      19.0  13.0  20.5  10.5  68  1017   ---   NNE   163   163   ---   0.6 Broken Clouds/
08/05/2008 16:50      20.0  14.0  21.5  15.1  68  1017   ---   NNE    18    18   ---   0.6 Scattered Clouds/
08/05/2008 17:50      19.0  12.0  20.2  13.7  64  1016   ---    NE    18    18   ---   0.6 Scattered Clouds/
08/05/2008 18:50      19.0  11.0  20.0  13.2  60  1016   ---    NE    19    19   ---   0.6 Scattered Clouds/
08/05/2008 19:50      19.0  11.0  20.0  13.7  60  1016   ---   ENE    18    18   ---   0.6 Scattered Clouds/
08/05/2008 20:50      18.0  11.0  19.2  11.8  64  1016   ---    NE    19    19   ---   0.6 Few Clouds/
08/05/2008 21:50      18.0  11.0  19.2  18.0  64  1016   ---     N     3     3   ---   0.6 Few Clouds/
08/05/2008 22:50      18.0  11.0  19.2  18.0  64  1017   ---     N     5     5   ---   0.6 Few Clouds/
08/05/2008 23:50      17.0  10.0  18.2  17.0  63  1016   ---     N     3     3   ---   0.6 Few Clouds/
09/05/2008 00:50      16.0  10.0  17.5  16.0  68  1016   ---     N     2     2   ---   0.6 Few Clouds/
09/05/2008 01:50      16.0  10.0  17.5  16.0  68  1015   ---     N     5     5   ---   0.6 Few Clouds/
09/05/2008 02:50      16.0   8.0  16.9  14.4  59  1015   ---   ESE     6     6   ---   0.6 Few Clouds/
09/05/2008 03:50      16.0   9.0  17.2  16.0  63  1015   ---     N     5     5   ---   --- /
09/05/2008 04:50      14.0   9.0  15.8  14.0  72  1015   ---     N     5     5   ---   --- /
09/05/2008 05:50      14.0   9.0  15.8  14.0  72  1014   ---     N     5     5   ---   --- /
09/05/2008 06:50      14.0   9.0  15.8  12.3  72  1014   ---     S     6     6   ---   --- /
09/05/2008 07:50      17.0  10.0  18.2  17.0  63  1014   ---     N     2     2   ---   --- /
09/05/2008 08:50      17.0   9.0  18.0  17.0  59  1014   ---     N     5     5   ---   --- /
09/05/2008 09:20      17.0  10.0  18.2  15.5  63  1014   ---     W     6     6   ---   --- /
09/05/2008 10:50      20.0  12.0  21.0  13.2  60  1013   ---   ENE    31    31   ---   --- /
09/05/2008 11:50      20.0  10.0  20.6  13.1  53  1013   ---   ENE    32    32   ---   --- /
09/05/2008 12:50      21.0  11.0  21.6  14.5  53  1012   ---   ENE    34    34   ---   --- /
09/05/2008 13:50      21.0  10.0  21.4  14.6  49  1012   ---   ENE    32    32   ---   --- /
09/05/2008 14:50      21.0  12.0  21.8  14.3  56  1011   ---   ENE    39    39   ---   --- /
09/05/2008 15:50      22.0  11.0  22.4  15.9  50  1011   ---   ENE    37    37   ---   --- /
09/05/2008 16:50      21.0   9.0  21.3  14.3  46  1010   ---   ENE    39    39   ---   --- /
09/05/2008 17:50      21.0   9.0  21.3  14.5  46  1010   ---   ENE    34    53   ---   --- /
09/05/2008 18:50      22.0   6.0  21.8  16.4  35  1009   ---   ENE    29    29   ---   --- /
09/05/2008 19:50      22.0   4.0  21.6  16.5  31  1010   ---     E    27    27   ---   --- /
09/05/2008 20:50      21.0   4.0  20.7  19.9  33  1010   ---    NE     6     6   ---   --- /
09/05/2008 21:50      19.0   7.0  19.2  14.0  46  1010   ---   ENE    16    16   ---   --- /
09/05/2008 22:50      20.0   1.0  19.5  15.9  28  1010   ---   ENE    14    14   ---   --- /
09/05/2008 23:50      19.0   8.0  19.4  17.7  49  1010   ---     E     6     6   ---   --- /
10/05/2008 00:20      19.0  10.0  19.8  16.2  56  1009   ---   SSE    10    10   ---   --- /
10/05/2008 01:50      17.0   7.0  17.5  14.3  52  1009   ---     S     8     8   ---   --- /
10/05/2008 02:50      18.0   9.0  18.8  18.0  56  1009   ---     N     2     2   ---   --- /
10/05/2008 03:50      19.0   7.0  19.2  19.0  46  1008   ---     N     0     0   ---   --- /
10/05/2008 04:50      18.0   4.0  17.9  18.0  39  1007   ---   ---     0     0   ---   --- /
10/05/2008 05:50      17.0   8.0  17.7  17.0  55  1006   ---   SSW     5     5   ---   --- /
10/05/2008 06:50      18.0   3.0  17.8  18.0  37  1006   ---    SE     5     5   ---   --- /
10/05/2008 07:50      18.0   5.0  18.1  18.0  42  1007   ---   SSE     5     5   ---   --- /
10/05/2008 08:50      18.0   9.0  18.8  15.0  56  1007   ---   WSW    10    10   ---   0.9 Broken Clouds/
10/05/2008 09:50      18.0   8.0  18.6  15.5  52  1007   ---   WSW     8     8   ---   0.9 Broken Clouds/
10/05/2008 10:20      19.0   8.0  19.4  16.7  49  1007   ---   WSW     8     8   ---   0.9 Broken Clouds/
10/05/2008 11:50      19.0  10.0  19.8  19.0  56  1008   ---     N     5     5   ---   0.9 Broken Clouds/
10/05/2008 12:50      19.0  13.0  20.5  15.1  68  1008   ---    NE    13    13   ---   0.9 Broken Clouds/
10/05/2008 13:50      19.0  12.0  20.2  14.5  64  1008   ---    NE    14    14   ---   0.9 Broken Clouds/
10/05/2008 14:50      19.0  14.0  20.8  15.1  73  1009   ---   NNE    13    13   ---   0.9 Broken Clouds/
10/05/2008 15:50      20.0  10.0  20.6  17.8  53  1009   ---   ENE     8     8   ---   0.9 Broken Clouds/
10/05/2008 16:50      19.0  14.0  20.8  19.0  73  1009   ---     N     5     5   ---   0.9 Broken Clouds/
10/05/2008 17:50      18.0  15.0  20.5  13.8  83  1009   ---   WSW    13    13   ---   0.9 Broken Clouds/
10/05/2008 18:50      18.0  15.0  20.5  15.5  83  1010   ---     W     8     8   ---   0.9 Broken Clouds/
10/05/2008 19:50      18.0  15.0  20.5  15.5  83  1011   ---    SW     8     8   ---   0.9 Broken Clouds/
10/05/2008 20:50      18.0  14.0  20.2  15.5  77  1011   ---   SSW     8     8   ---   0.9 Broken Clouds/
10/05/2008 21:50      17.0  12.0  18.8  12.5  72  1012   ---     S    13    13   ---   1.0 Scattered Clouds/
10/05/2008 22:50      18.0  14.0  20.2  13.8  77  1012   ---    SW    13    13   ---   1.0 Scattered Clouds/
10/05/2008 23:50      18.0  14.0  20.2  13.8  77  1012   ---    SW    13    13   ---   1.0 Scattered Clouds/
11/05/2008 00:50      17.0  14.0  19.5  11.9  83  1012   ---   SSW    14    14   ---   1.0 Few Clouds/
11/05/2008 01:50      15.0  11.0  17.1  11.3  77  1012   ---     S    10    10   ---   1.0 Few Clouds/
11/05/2008 02:50      15.0   9.0  16.5  11.3  67  1012   ---     S    10    10   ---   1.0 Few Clouds/
11/05/2008 03:50      16.0   8.0  16.9  13.2  59  1012   ---   SSW     8     8   ---   1.0 Few Clouds/
11/05/2008 04:50      15.0   8.0  16.2  12.0  63  1012   ---   SSW     8     8   ---   1.0 Few Clouds/
11/05/2008 05:50      16.0  11.0  17.8  12.5  72  1012   ---    SW    10    10   ---   1.0 Scattered Clouds/
11/05/2008 06:50      16.0  11.0  17.8   9.6  72  1012   ---    SW    18    18   ---   1.0 Scattered Clouds/
11/05/2008 07:50      17.0  11.0  18.5  14.3  68  1012   ---   WSW     8     8   ---   1.0 Scattered Clouds/
11/05/2008 08:50      18.0  10.0  19.0  18.0  60  1012   ---     N     3     3   ---   1.0 Scattered Clouds/
11/05/2008 09:50      19.0  11.0  20.0  16.7  60  1013   ---   NNE     8     8   ---   1.0 Scattered Clouds/
11/05/2008 11:50      22.0  10.0  22.3  20.2  46  1014   ---    SW     8     8   ---   1.0 Scattered Clouds/
11/05/2008 12:50      21.0  12.0  21.8  16.7  56  1014   ---   NNE    16    16   ---   0.8 Broken Clouds/
11/05/2008 13:50      20.0  11.0  20.8  15.9  56  1014   ---    NE    14    14   ---   0.8 Broken Clouds/
11/05/2008 14:50      19.0  14.0  20.8  13.7  73  1014   ---   NNE    18    18   ---   0.8 Broken Clouds/
11/05/2008 15:50      19.0  13.0  20.5  13.2  68  1014   ---    NE    19    19   ---   0.5 Broken Clouds/
11/05/2008 16:50      19.0  13.0  20.5  12.3  68  1014   ---   ENE    26    26   ---   0.5 Broken Clouds/
11/05/2008 17:50      19.0  14.0  20.8  13.2  73  1014   ---   ENE    19    19   ---   0.5 Broken Clouds/
11/05/2008 18:50      18.0  15.0  20.5  13.8  83  1014   ---     E    13    13   ---   --- Overcast/ Light Rain
11/05/2008 19:20      18.0  14.0  20.2  18.0  77  1014   ---     N     3     3   ---   --- Overcast/ Light Rain
11/05/2008 20:50      17.0  14.0  19.5  12.5  83  1015   ---     E    13    13   ---   --- Overcast/ Light Rain
11/05/2008 21:50      17.0  14.0  19.5  12.5  83  1015   ---     E    13    13   ---   0.4 Broken Clouds/
11/05/2008 22:50      17.0  14.0  19.5  13.8  83  1015   ---   ENE    10    10   ---   0.4 Broken Clouds/
11/05/2008 23:50      17.0  14.0  19.5  14.3  83  1015   ---   ENE     8     8   ---   0.4 Broken Clouds/
12/05/2008 00:50      17.0  14.0  19.5  11.9  83  1014   ---     E    14    14   ---   0.4 Broken Clouds/
12/05/2008 01:50      17.0  14.0  19.5  17.0  83  1014   ---     N     5     5   ---   0.4 Broken Clouds/
12/05/2008 02:50      17.0  14.0  19.5  13.8  83  1014   ---    NE    10    10   ---   0.4 Broken Clouds/
12/05/2008 03:50      16.0  14.0  19.0  13.2  88  1014   ---   ENE     8     8   ---   0.6 Broken Clouds/
12/05/2008 04:50      16.0  13.0  18.5  13.2  82  1014   ---   ENE     8     8   ---   0.6 Broken Clouds/
12/05/2008 05:20      16.0  13.0  18.5  10.6  82  1014   ---   ENE    14    14   ---   0.6 Broken Clouds/
12/05/2008 06:50      15.0  13.0  18.0  15.0  88  1013   ---     N     3     3   ---   0.7 Scattered Clouds/
12/05/2008 07:50      17.0  14.0  19.5  17.0  83  1014   ---    SW     5     5   ---   0.9 Scattered Clouds/
12/05/2008 08:50      18.0  13.0  19.8  15.0  73  1014   ---    SW    10    10   ---   0.7 Few Clouds/
12/05/2008 09:50      19.0  14.0  20.8  19.0  73  1014   ---     N     5     5   ---   0.7 Few Clouds/
12/05/2008 10:20      19.0  14.0  20.8  14.5  73  1014   ---   NNE    14    14   ---   0.7 Few Clouds/
12/05/2008 11:50      19.0  15.0  21.2  13.0  78  1014   ---    NE    21    21   ---   0.7 Few Clouds/
12/05/2008 12:50      20.0  14.0  21.5  14.4  68  1013   ---   ENE    21    21   ---   0.7 Scattered Clouds/
12/05/2008 13:50      21.0  14.0  22.3  16.7  64  1013   ---   ENE    16    16   ---   0.7 Broken Clouds/
12/05/2008 14:50      21.0  14.0  22.3  15.2  64  1013   ---   ENE    26    26   ---   0.7 Broken Clouds/
12/05/2008 15:50      20.0  13.0  21.3  13.5  64  1012   ---   ENE    27    27   ---   0.7 Broken Clouds/
12/05/2008 16:50      19.0  13.0  20.5  12.7  68  1012   ---   ENE    23    23   ---   0.7 Broken Clouds/
12/05/2008 17:50      20.0  13.0  21.3  20.0  64  1012   ---     N     3     3   ---   0.7 Broken Clouds/
12/05/2008 18:50      19.0  14.0  20.8  13.2  73  1012   ---    NE    19    19   ---   0.7 Broken Clouds/
12/05/2008 19:50      18.0  14.0  20.2  10.8  77  1012   ---   ENE    26    26   ---   0.7 Broken Clouds/
12/05/2008 20:50      18.0  13.0  19.8  13.8  73  1012   ---   ENE    13    13   ---   0.7 Broken Clouds/
12/05/2008 21:50      18.0  12.0  19.5  16.6  68  1012   ---     E     6     6   ---   0.7 Broken Clouds/
12/05/2008 22:50      18.0  13.0  19.8  18.0  73  1012   ---     N     5     5   ---   0.6 Broken Clouds/
12/05/2008 23:50      18.0  13.0  19.8  13.8  73  1012   ---   SSW    13    13   ---   0.6 Broken Clouds/
13/05/2008 00:50      18.0  12.0  19.5  13.8  68  1012   ---     S    13    13   ---   0.6 Broken Clouds/
13/05/2008 01:50      17.0  11.0  18.5  14.3  68  1011   ---     S     8     8   ---   1.0 Broken Clouds/
13/05/2008 02:50      17.0  12.0  18.8  14.3  72  1011   ---    SW     8     8   ---   1.0 Broken Clouds/
13/05/2008 03:50      17.0  12.0  18.8  12.5  72  1011   ---    SW    13    13   ---   1.0 Few Clouds/
13/05/2008 04:50      16.0  12.0  18.1  14.4  77  1010   ---     E     6     6   ---   1.0 Few Clouds/
13/05/2008 05:50      17.0  13.0  19.2  13.8  77  1010   ---    NE    10    10   ---   0.8 Broken Clouds/
13/05/2008 06:50      17.0  12.0  18.8  17.0  72  1010   ---     N     2     2   ---   0.9 Broken Clouds/
13/05/2008 07:50      18.0  13.0  19.8  16.6  73  1010   ---   WNW     6     6   ---   0.9 Broken Clouds/
13/05/2008 08:50      18.0  12.0  19.5  18.0  68  1010   ---   SSE     3     3   ---   0.9 Broken Clouds/
13/05/2008 09:50      17.0  12.0  18.8  12.5  72  1011   ---    NW    13    13   ---   0.3 Broken Clouds/
13/05/2008 11:50      18.0  13.0  19.8  13.2  73  1011   ---   SSW    14    14   ---   --- / Drizzle
13/05/2008 12:50      20.0  12.0  21.0  14.6  60  1011   ---     S    19    19   ---   0.9 Broken Clouds/
13/05/2008 13:50      21.0  13.0  22.0  16.1  60  1010   ---   SSW    19    19   ---   0.9 Broken Clouds/
13/05/2008 14:50      18.0  14.0  20.2  10.0  77  1010   ---   WNW    32    32   ---   --- Overcast/ Rain
13/05/2008 15:50      18.0  14.0  20.2  10.6  77  1010   ---   WNW    27    27   ---   0.4 Broken Clouds/
13/05/2008 17:50      19.0  15.0  21.2  16.7  78  1011   ---     W     8     8   ---   0.4 Scattered Clouds/
13/05/2008 18:50      18.0  14.0  20.2  10.4  77  1011   ---     W    29    29   ---   0.4 Scattered Clouds/
13/05/2008 19:20      18.0  14.0  20.2  10.4  77  1011   ---     W    29    29   ---   0.4 Scattered Clouds/
13/05/2008 20:50      18.0  14.0  20.2  11.8  77  1012   ---     W    19    19   ---   0.4 Scattered Clouds/
14/05/2008 07:50      17.0  12.0  18.8  11.9  72  1014   ---   SSW    14    14   ---   0.5 Broken Clouds/
14/05/2008 08:50      18.0  12.0  19.5  12.4  68  1014   ---     S    18    18   ---   0.4 Broken Clouds/
14/05/2008 09:50      18.0  13.0  19.8  13.2  73  1015   ---    SW    14    14   ---   0.5 Broken Clouds/
14/05/2008 11:50      19.0  14.0  20.8  15.1  73  1015   ---     W    13    13   ---   0.5 Scattered Clouds/
14/05/2008 12:50      19.0  13.0  20.5  16.7  68  1015   ---   WNW     8     8   ---   0.6 Few Clouds/
14/05/2008 13:50      19.0  13.0  20.5  16.7  68  1015   ---   WNW     8     8   ---   0.6 Few Clouds/
14/05/2008 14:50      20.0  14.0  21.5  17.4  68  1015   ---   WNW    10    10   ---   0.6 Few Clouds/
14/05/2008 15:50      19.0  14.0  20.8  13.2  73  1015   ---   WNW    19    19   ---   0.6 Few Clouds/
14/05/2008 16:50      19.0  14.0  20.8  13.2  73  1015   ---   WNW    19    19   ---   0.6 Few Clouds/
14/05/2008 17:50      19.0  15.0  21.2  13.2  78  1015   ---   WNW    19    19   ---   0.6 Few Clouds/
14/05/2008 18:50      18.0  15.0  20.5  12.6  83  1015   ---    NW    16    16   ---   0.6 Few Clouds/
14/05/2008 19:50      18.0  14.0  20.2  16.6  77  1015   ---    NW     6     6   ---   0.6 Scattered Clouds/
14/05/2008 20:50      18.0  14.0  20.2  16.6  77  1016   ---   WNW     6     6   ---   0.6 Scattered Clouds/
14/05/2008 21:50      18.0  14.0  20.2  18.0  77  1016   ---     N     5     5   ---   0.7 Scattered Clouds/
14/05/2008 22:50      17.0  14.0  19.5  17.0  83  1017   ---     N     2     2   ---   0.7 Scattered Clouds/
14/05/2008 23:50      17.0  13.0  19.2  17.0  77  1017   ---     N     3     3   ---   0.7 Scattered Clouds/
15/05/2008 00:50      16.0  13.0  18.5  16.0  82  1017   ---     N     5     5   ---   0.4 Scattered Clouds/
15/05/2008 01:50      16.0  13.0  18.5  16.0  82  1016   ---     N     5     5   ---   0.5 Scattered Clouds/
15/05/2008 02:50      16.0  12.0  18.1  14.4  77  1016   ---   SSW     6     6   ---   0.5 Scattered Clouds/
15/05/2008 03:50      16.0  12.0  18.1  16.0  77  1016   ---     N     5     5   ---   0.8 Few Clouds/
15/05/2008 04:50      16.0  12.0  18.1  16.0  77  1016   ---     N     5     5   ---   0.8 Few Clouds/
15/05/2008 05:50      15.0  12.0  17.5   9.3  82  1016   ---     S    14    14   ---   0.6 Few Clouds/
15/05/2008 06:50      16.0  12.0  18.1  10.6  77  1016   ---     S    14    14   ---   0.6 Few Clouds/
15/05/2008 07:50      18.0  12.0  19.5  15.5  68  1017   ---   SSW     8     8   ---   0.8 Few Clouds/
15/05/2008 09:50      19.0  13.0  20.5  15.1  68  1017   ---   WSW    13    13   ---   0.8 Few Clouds/
15/05/2008 11:50      20.0  14.0  21.5  16.4  68  1017   ---   NNE    13    13   ---   0.8 Few Clouds/
15/05/2008 12:50      20.0  13.0  21.3  15.1  64  1017   ---   NNE    18    18   ---   0.8 Few Clouds/
15/05/2008 13:50      21.0  14.0  22.3  15.8  64  1017   ---    NE    21    21   ---   0.8 Few Clouds/
15/05/2008 14:20      21.0  13.0  22.0  16.1  60  1016   ---    NE    19    19   ---   --- /
15/05/2008 15:50      21.0  14.0  22.3  16.7  64  1016   ---    NE    16    16   ---   --- /
15/05/2008 16:50      21.0  13.0  22.0  16.7  60  1016   ---    NE    16    16   ---   --- /
15/05/2008 17:50      21.0  12.0  21.8  17.7  56  1016   ---    NE    13    13   ---   --- /
15/05/2008 18:50      20.0  11.0  20.8  16.4  56  1016   ---    NE    13    13   ---   --- /
15/05/2008 19:50      20.0  11.0  20.8  17.4  56  1016   ---   ENE    10    10   ---   --- /
15/05/2008 20:50      19.0  13.0  20.5  14.0  68  1016   ---   ENE    16    16   ---   --- /
15/05/2008 21:50      19.0  12.0  20.2  16.7  64  1016   ---     E     8     8   ---   --- /
15/05/2008 22:50      18.0  13.0  19.8  15.0  73  1017   ---    SW    10    10   ---   --- /
15/05/2008 23:50      18.0  13.0  19.8  16.6  73  1016   ---    SW     6     6   ---   --- /
16/05/2008 00:50      17.0  13.0  19.2  17.0  77  1016   ---     N     5     5   ---   --- /
16/05/2008 01:50      17.0  13.0  19.2  17.0  77  1016   ---     N     3     3   ---   --- /
16/05/2008 02:50      18.0  12.0  19.5  16.6  68  1015   ---     N     6     6   ---   --- /
16/05/2008 03:50      17.0  12.0  18.8  17.0  72  1015   ---     N     2     2   ---   --- /
16/05/2008 04:50      16.0  12.0  18.1  14.4  77  1015   ---    NE     6     6   ---   --- /
16/05/2008 05:50      15.0  11.0  17.1  13.3  77  1015   ---   SSE     6     6   ---   --- /
16/05/2008 07:50      19.0  14.0  20.8  19.0  73  1015   ---     N     3     3   ---   --- /
16/05/2008 08:20      19.0  15.0  21.2  17.7  78  1015   ---   NNE     6     6   ---   --- /
16/05/2008 09:20      20.0  15.0  21.8  16.4  73  1015   ---    NE    13    13   ---   --- /
16/05/2008 10:20      21.0  13.0  22.0  17.2  60  1014   ---    NE    14    14   ---   --- /
16/05/2008 11:50      24.0  13.0  24.5  20.6  50  1014   ---   ENE    18    18   ---   --- /
16/05/2008 12:50      24.0  13.0  24.5  20.8  50  1013   ---   ENE    16    16   ---   --- /
16/05/2008 13:50      23.0  16.0  24.3  20.2  65  1013   ---   NNE    13    13   ---   --- /
16/05/2008 14:50      24.0  15.0  24.8  20.8  57  1014   ---   NNE    16    16   ---   --- /
16/05/2008 15:50      22.0  15.0  23.3  17.9  65  1014   ---   NNE    18    18   ---   --- /
16/05/2008 16:50      24.0  14.0  24.6  22.2  54  1013   ---   NNE    10    10   ---   --- /
16/05/2008 17:50      26.0  11.0  25.9  24.6  39  1013   ---   WSW    10    10   ---   --- /
16/05/2008 18:50      26.0  12.0  26.0  24.1  42  1013   ---    NE    13    13   ---   --- /
16/05/2008 19:50      21.0  16.0  22.9  19.0  73  1013   ---    NE     8     8   ---   --- /
16/05/2008 03:20      18.0  13.0  19.8  18.0  73  1015   ---     N     5     5   ---   --- /
16/05/2008 04:50      16.0  12.0  18.1  14.4  77  1015   ---    NE     6     6   ---   --- /
17/05/2008 08:50      22.0  14.0  23.0  22.0  61  1008   ---     N     3     3   ---   1.0 Few Clouds/
17/05/2008 09:50      22.0  14.0  23.0  20.2  61  1008   ---     N     8     8   ---   1.0 Broken Clouds/
17/05/2008 10:20      24.0  13.0  24.5  24.0  50  1008   ---     N     2     2   ---   1.0 Broken Clouds/
17/05/2008 11:50      24.0  15.0  24.8  23.2  57  1008   ---   NNW     6     6   ---   1.0 Broken Clouds/
17/05/2008 12:50      26.0  13.0  26.2  24.6  45  1007   ---     N    10    10   ---   1.0 Scattered Clouds/
17/05/2008 13:50      25.0  14.0  25.5  24.3  51  1006   ---   NNW     6     6   ---   --- /
17/05/2008 14:50      24.0  16.0  25.1  20.8  61  1006   ---   NNE    16    16   ---   --- /
17/05/2008 15:50      24.0  17.0  25.3  22.2  65  1005   ---   NNE    10    10   ---   --- /
17/05/2008 16:50      25.0  15.0  25.7  22.1  54  1005   ---     W    16    16   ---   --- /
17/05/2008 17:50      22.0  16.0  23.6  20.2  69  1007   ---     S     8    34   ---   --- /
17/05/2008 18:50      23.0  14.0  23.8  23.0  57  1007   ---     N     5     5   ---   --- /
17/05/2008 19:50      22.0  14.0  23.0  22.0  61  1007   ---     N     5     5   ---   --- /
17/05/2008 20:50      21.0  14.0  22.3  15.8  64  1007   ---    NE    21    21   ---   --- /
17/05/2008 21:50      21.0  15.0  22.5  14.9  69  1007   ---    NE    29    29   ---   --- /
17/05/2008 22:50      21.0  15.0  22.5  21.0  69  1008   ---     N     3     3   ---   --- /
17/05/2008 23:50      20.0  15.0  21.8  17.8  73  1008   ---    SW     8     8   ---   --- /
18/05/2008 00:50      19.0  16.0  21.6  16.2  83  1008   ---     W    10    10   ---   --- /
18/05/2008 01:50      19.0  15.0  21.2  19.0  78  1008   ---     N     2     2   ---   --- /
18/05/2008 02:50      18.0  15.0  20.5  18.0  83  1007   ---     N     3     3   ---   --- /
18/05/2008 03:50      18.0  15.0  20.5  18.0  83  1007   ---     N     3     3   ---   --- /
18/05/2008 04:50      18.0  14.0  20.2  16.6  77  1007   ---     E     6     6   ---   --- /
18/05/2008 05:50      19.0  14.0  20.8  16.2  73  1007   ---     E    10    10   ---   --- /
18/05/2008 06:50      19.0  15.0  21.2  14.5  78  1008   ---   ENE    14    14   ---   --- /
18/05/2008 07:50      20.0  15.0  21.8  20.0  73  1008   ---     N     5     5   ---   --- /
18/05/2008 08:50      20.0  17.0  22.6  16.4  83  1008   ---   NNE    13    13   ---   --- /
18/05/2008 10:20      20.0  17.0  22.6  15.3  83  1008   ---   NNE    16    16   ---   --- /
18/05/2008 12:50      21.0  17.0  23.2  16.1  78  1008   ---   NNE    19    19   ---   --- /
18/05/2008 13:50      21.0  17.0  23.2  16.5  78  1008   ---   NNW    18    18   ---   0.4 Few Clouds/
18/05/2008 14:50      20.0  17.0  22.6  14.4  83  1008   ---    NW    21    21   ---   0.3 Scattered Clouds/
18/05/2008 15:50      21.0  16.0  22.9  16.5  73  1007   ---   NNE    18    18   ---   0.4 Scattered Clouds/
18/05/2008 16:50      21.0  17.0  23.2  15.2  78  1006   ---   NNE    26    26   ---   0.3 Scattered Clouds/
18/05/2008 17:50      21.0  17.0  23.2  14.8  78  1006   ---    NE    31    31   ---   0.3 Scattered Clouds/
18/05/2008 18:50      21.0  17.0  23.2  14.6  78  1005   ---    NE    32    32   ---   0.3 Scattered Clouds/
18/05/2008 19:50      22.0  15.0  23.3  16.5  65  1005   ---   ENE    27    27   ---   0.6 Few Clouds/
18/05/2008 20:50      20.0  17.0  22.6  17.4  83  1005   ---   WSW    10    10   ---   0.5 Scattered Clouds/
18/05/2008 21:50      20.0  17.0  22.6  17.8  83  1006   ---     W     8     8   ---   0.5 Scattered Clouds/
18/05/2008 22:50      19.0  16.0  21.6  19.0  83  1006   ---     N     5     5   ---   0.4 Scattered Clouds/
18/05/2008 23:50      19.0  16.0  21.6  19.0  83  1005   ---     N     3     3   ---   0.4 Few Clouds/
19/05/2008 00:50      19.0  16.0  21.6  17.7  83  1003   ---   WNW     6     6   ---   0.4 Few Clouds/
19/05/2008 01:50      18.0  16.0  21.0  18.0  88  1003   ---     N     3     3   ---   0.4 Few Clouds/
19/05/2008 02:50      19.0  16.0  21.6  14.5  83  1002   ---     W    14    14   ---   0.5 Scattered Clouds/
19/05/2008 03:50      19.0  16.0  21.6  17.7  83  1001   ---    NW     6     6   ---   0.5 Scattered Clouds/
19/05/2008 04:50      19.0  16.0  21.6  15.1  83  1003   ---   SSW    13    13   ---   0.6 Few Clouds/
19/05/2008 05:50      19.0  16.0  21.6  15.1  83  1002   ---   NNE    13    13   ---   0.6 Scattered Clouds/
19/05/2008 06:50      19.0  16.0  21.6  12.3  83  1001   ---    NE    26    26   ---   0.4 Scattered Clouds/
19/05/2008 07:50      19.0  16.0  21.6  11.5  83  1001   ---   ENE    34    34   ---   0.5 Broken Clouds/
19/05/2008 08:50      20.0  15.0  21.8  12.7  73  1000   ---   ENE    37    37   ---   0.3 Broken Clouds/
19/05/2008 09:50      21.0  15.0  22.5  14.8  69  1000   ---   ENE    31    31   ---   0.4 Broken Clouds/
19/05/2008 11:50      22.0  15.0  23.3  17.1  65  1000   ---   ENE    23    23   ---   0.5 Broken Clouds/
19/05/2008 12:50      21.0  16.0  22.9  16.5  73  1000   ---   NNE    18    18   ---   0.5 Broken Clouds/
19/05/2008 13:50      21.0  16.0  22.9  17.7  73  1000   ---   NNE    13    13   ---   0.5 Broken Clouds/
19/05/2008 14:50      21.0  15.0  22.5  17.2  69  1000   ---   WSW    14    14   ---   0.6 Broken Clouds/
19/05/2008 15:50      20.0  16.0  22.2  14.6  78  1000   ---     W    19    19   ---   0.6 Overcast/
19/05/2008 16:50      19.0  16.0  21.6  11.9  83  1001   ---   WNW    29    29   ---   --- Overcast/ Light Rain
19/05/2008 17:20      19.0  16.0  21.6  11.2  83  1001   ---     W    37    37   ---   --- Overcast/ Light Rain
19/05/2008 18:50      18.0  15.0  20.5   9.6  83  1003   ---     W    37    37   ---   --- Overcast/ Light Rain
19/05/2008 19:50      19.0  15.0  21.2  12.7  78  1004   ---     W    23    23   ---   0.4 Scattered Clouds/
19/05/2008 20:50      18.0  15.0  20.5  10.4  83  1004   ---     W    29    29   ---   0.4 Scattered Clouds/
19/05/2008 21:50      18.0  14.0  20.2  12.4  77  1005   ---   SSW    18    18   ---   0.4 Scattered Clouds/
19/05/2008 22:50      18.0  14.0  20.2  11.6  77  1006   ---    SW    21    21   ---   0.6 Scattered Clouds/
19/05/2008 23:50      18.0  14.0  20.2  11.6  77  1006   ---   SSW    21    21   ---   0.6 Scattered Clouds/
20/05/2008 00:50      18.0  13.0  19.8  10.6  73  1006   ---    SW    27    27   ---   0.6 Scattered Clouds/
20/05/2008 01:50      18.0  13.0  19.8  10.4  73  1006   ---   SSW    29    29   ---   0.6 Scattered Clouds/
20/05/2008 02:50      18.0  14.0  20.2   9.6  77  1006   ---    SW    39    39   ---   0.6 Scattered Clouds/
20/05/2008 03:50      18.0  12.0  19.5  10.2  68  1006   ---    SW    31    31   ---   0.6 Scattered Clouds/
20/05/2008 04:50      18.0  12.0  19.5  11.3  68  1006   ---    SW    23    23   ---   0.6 Scattered Clouds/
20/05/2008 05:50      17.0  12.0  18.8   8.9  72  1007   ---   SSW    29    29   ---   0.6 Scattered Clouds/
20/05/2008 06:50      17.0  12.0  18.8   8.9  72  1007   ---   SSW    29    29   ---   0.6 Scattered Clouds/
20/05/2008 07:50      19.0  12.0  20.2  12.3  64  1008   ---     S    26    26   ---   0.7 Scattered Clouds/
20/05/2008 08:50      19.0  12.0  20.2  11.7  64  1008   ---   SSW    31    31   ---   0.6 Scattered Clouds/
20/05/2008 10:50      21.0  11.0  21.6  14.3  53  1008   ---    SW    37    37   ---   0.6 Broken Clouds/
20/05/2008 11:50      21.0  11.0  21.6  14.8  53  1009   ---    SW    31    31   ---   0.6 Scattered Clouds/
20/05/2008 12:50      22.0  10.0  22.3  16.2  46  1009   ---    SW    32    32   ---   0.6 Scattered Clouds/
20/05/2008 13:50      23.0  10.0  23.1  17.4  44  1008   ---    SW    37    37   ---   0.7 Scattered Clouds/
20/05/2008 14:50      22.0   9.0  22.1  15.7  43  1008   ---    SW    40    40   ---   0.7 Scattered Clouds/
20/05/2008 15:50      22.0  10.0  22.3  15.7  46  1008   ---    SW    40    40   ---   0.7 Broken Clouds/
20/05/2008 16:50      21.0  12.0  21.8  14.1  56  1009   ---    SW    42    42   ---   0.7 Broken Clouds/
20/05/2008 17:50      21.0  14.0  22.3  14.5  64  1010   ---    SW    34    34   ---   0.7 Scattered Clouds/
20/05/2008 18:50      20.0  13.0  21.3  13.1  64  1010   ---    SW    32    32   ---   0.7 Scattered Clouds/
20/05/2008 19:50      20.0  13.0  21.3  13.2  64  1010   ---    SW    31    31   ---   0.7 Scattered Clouds/
20/05/2008 20:50      19.0  14.0  20.8  11.9  73  1011   ---    SW    29    29   ---   0.7 Scattered Clouds/
20/05/2008 21:50      19.0  14.0  20.8  11.7  73  1012   ---    SW    31    31   ---   0.7 Scattered Clouds/
20/05/2008 22:50      19.0  14.0  20.8  11.9  73  1012   ---    SW    29    29   ---   0.7 Scattered Clouds/
20/05/2008 23:50      19.0  14.0  20.8  12.7  73  1012   ---    SW    23    23   ---   0.7 Scattered Clouds/
21/05/2008 00:50      18.0  13.0  19.8  11.8  73  1012   ---   SSW    19    19   ---   0.7 Scattered Clouds/
21/05/2008 01:50      18.0  13.0  19.8  10.6  73  1012   ---    SW    27    27   ---   0.7 Scattered Clouds/
21/05/2008 02:50      17.0  12.0  18.8   9.3  72  1012   ---   SSW    26    26   ---   0.7 Scattered Clouds/
21/05/2008 03:50      18.0  11.0  19.2  11.3  64  1012   ---   SSW    23    23   ---   0.7 Scattered Clouds/
21/05/2008 04:50      18.0  12.0  19.5  11.3  68  1012   ---   SSW    23    23   ---   0.7 Scattered Clouds/
21/05/2008 05:50      18.0  12.0  19.5  10.8  68  1012   ---   SSW    26    26   ---   0.7 Scattered Clouds/
21/05/2008 05:50      18.0  12.0  19.5  10.8  68  1012   ---   SSW    26    26   ---   0.7 Scattered Clouds/None reported
21/05/2008 03:50      18.0  11.0  19.2  11.3  64  1012   ---   SSW    23    23   ---   0.7 Scattered Clouds/
20/05/2008 14:50      22.0   9.0  22.1  15.7  43  1008   ---    SW    40    40   ---   0.7 Scattered Clouds/
21/05/2008 14:50      20.0  14.0  21.5  14.2  68  1013   ---     W    23    23   ---   0.7 Scattered Clouds/
21/05/2008 15:50      21.0  14.0  22.3  15.2  64  1013   ---   WSW    26    26   ---   0.7 Broken Clouds/
21/05/2008 16:50      22.0  13.0  22.8  16.2  57  1013   ---    SW    32    32   ---   0.7 Scattered Clouds/
21/05/2008 17:50      21.0  14.0  22.3  14.9  64  1013   ---   WSW    29    29   ---   0.7 Scattered Clouds/
21/05/2008 18:50      20.0  14.0  21.5  13.1  68  1013   ---   WSW    32    32   ---   0.7 Scattered Clouds/
21/05/2008 19:50      20.0  14.0  21.5  13.8  68  1014   ---    SW    26    26   ---   0.7 Few Clouds/
21/05/2008 20:50      19.0  13.0  20.5  12.7  68  1014   ---    SW    23    23   ---   0.7 Few Clouds/
21/05/2008 21:50      19.0  13.0  20.5  12.7  68  1014   ---   SSW    23    23   ---   0.8 Few Clouds/
21/05/2008 22:50      19.0  11.0  20.0  13.0  60  1015   ---   SSW    21    21   ---   0.8 Few Clouds/
21/05/2008 23:50      19.0  11.0  20.0  13.2  60  1015   ---   SSW    19    19   ---   0.8 Few Clouds/
22/05/2008 00:50      19.0  11.0  20.0  13.0  60  1015   ---   SSW    21    21   ---   --- /
22/05/2008 01:50      19.0  10.0  19.8  13.2  56  1015   ---   SSW    19    19   ---   --- /
22/05/2008 02:50      19.0  10.0  19.8  13.7  56  1014   ---   SSW    18    18   ---   0.7 Few Clouds/
22/05/2008 03:50      18.0  10.0  19.0  12.4  60  1014   ---     S    18    18   ---   --- /
22/05/2008 04:50      18.0  11.0  19.2  11.3  64  1014   ---    SW    23    23   ---   --- /
22/05/2008 05:50      18.0  12.0  19.5  11.6  68  1014   ---   SSW    21    21   ---   --- /
22/05/2008 06:20      18.0  11.0  19.2  11.6  64  1014   ---   SSW    21    21   ---   --- /
22/05/2008 07:50      18.0  12.0  19.5  10.8  68  1015   ---   SSW    26    26   ---   --- /
22/05/2008 08:50      20.0  12.0  21.0  13.8  60  1016   ---   SSW    26    26   ---   --- /
22/05/2008 09:50      21.0  12.0  21.8  14.9  56  1016   ---   SSW    29    29   ---   --- /
22/05/2008 10:20      22.0  11.0  22.4  16.7  50  1016   ---   SSW    26    26   ---   --- /
22/05/2008 11:50      21.0  14.0  22.3  16.5  64  1016   ---   WSW    18    18   ---   0.7 Few Clouds/
22/05/2008 12:50      20.0  14.0  21.5  15.1  68  1016   ---   WNW    18    18   ---   0.7 Few Clouds/
22/05/2008 13:50      21.0  15.0  22.5  17.7  69  1016   ---   WNW    13    13   ---   0.7 Few Clouds/
22/05/2008 14:50      20.0  15.0  21.8  14.4  73  1016   ---   WNW    21    21   ---   0.7 Few Clouds/
22/05/2008 15:50      21.0  15.0  22.5  17.7  69  1016   ---   WNW    13    13   ---   0.7 Few Clouds/
22/05/2008 16:50      21.0  15.0  22.5  18.6  69  1016   ---    NW    10    10   ---   --- /
22/05/2008 17:50      22.0  14.0  23.0  22.0  61  1015   ---     N     3     3   ---   --- /
22/05/2008 18:50      20.0  14.0  21.5  17.8  68  1015   ---   NNE     8     8   ---   --- /
22/05/2008 19:50      20.0  14.0  21.5  16.4  68  1015   ---   NNE    13    13   ---   --- /
22/05/2008 20:50      19.0  14.0  20.8  14.5  73  1015   ---   ENE    14    14   ---   --- /
22/05/2008 21:50      18.0  14.0  20.2  15.5  77  1016   ---   ENE     8     8   ---   --- /
22/05/2008 22:50      19.0  14.0  20.8  19.0  73  1016   ---     N     5     5   ---   --- /
22/05/2008 23:50      18.0  15.0  20.5  18.0  83  1016   ---     N     3     3   ---   --- /
23/05/2008 00:50      18.0  14.0  20.2  16.6  77  1016   ---   WSW     6     6   ---   --- /
23/05/2008 01:50      17.0  13.0  19.2  13.8  77  1015   ---   ENE    10    10   ---   --- /
23/05/2008 02:50      18.0  14.0  20.2  12.6  77  1015   ---   ENE    16    16   ---   0.8 Few Clouds/
23/05/2008 03:50      17.0  12.0  18.8  13.8  72  1015   ---   ENE    10    10   ---   --- /
23/05/2008 04:50      18.0  12.0  19.5  18.0  68  1014   ---     N     3     3   ---   --- /
23/05/2008 05:50      17.0  12.0  18.8  17.0  72  1014   ---     N     3     3   ---   --- /
23/05/2008 06:50      18.0  12.0  19.5  18.0  68  1014   ---     N     5     5   ---   --- /
23/05/2008 07:50      20.0  14.0  21.5  20.0  68  1015   ---     N     5     5   ---   --- /
23/05/2008 08:50      24.0   7.0  23.7  20.8  34  1015   ---     S    16    16   ---   --- /
23/05/2008 09:50      25.0   6.0  24.5  22.0  30  1015   ---   SSW    18    18   ---   --- /
23/05/2008 10:20      25.0   8.0  24.7  22.5  34  1014   ---   SSW    14    14   ---   --- /
23/05/2008 11:50      23.0  13.0  23.6  21.0  53  1015   ---   ENE    10    10   ---   --- /
23/05/2008 12:50      22.0  15.0  23.3  18.1  65  1015   ---    NE    16    16   ---   --- /
23/05/2008 13:50      23.0  14.0  23.8  19.4  57  1015   ---   NNE    16    16   ---   0.7 Few Clouds/
23/05/2008 14:50      23.0  16.0  24.3  18.7  65  1015   ---   NNE    21    21   ---   0.7 Few Clouds/
23/05/2008 15:50      23.0  11.0  23.3  18.5  47  1014   ---    NE    23    23   ---   0.7 Few Clouds/
23/05/2008 16:50      22.0  13.0  22.8  17.3  57  1014   ---    NE    21    21   ---   0.7 Few Clouds/
23/05/2008 17:50      22.0  14.0  23.0  17.3  61  1014   ---    NE    21    21   ---   0.7 Few Clouds/
23/05/2008 18:50      23.0  13.0  23.6  19.2  53  1013   ---    NE    18    18   ---   0.7 Few Clouds/
23/05/2008 19:50      22.0  14.0  23.0  18.9  61  1014   ---    NE    13    13   ---   --- /
23/05/2008 20:50      20.0  16.0  22.2  20.0  78  1014   ---     N     3     3   ---   --- /
23/05/2008 21:50      20.0  16.0  22.2  15.3  78  1014   ---    SW    16    16   ---   --- /
23/05/2008 22:50      19.0  16.0  21.6  14.5  83  1015   ---    SW    14    14   ---   --- /
23/05/2008 23:50      19.0  15.0  21.2  15.1  78  1014   ---    SW    13    13   ---   --- /
24/05/2008 00:50      18.0  14.0  20.2  15.0  77  1015   ---    SW    10    10   ---   --- /
24/05/2008 01:50      18.0  11.0  19.2  13.8  64  1014   ---   SSW    13    13   ---   --- /
24/05/2008 02:50      21.0   5.0  20.8  19.0  35  1014   ---   SSW     8     8   ---   --- /
24/05/2008 03:50      19.0  13.0  20.5  14.5  68  1014   ---   ENE    14    14   ---   --- /
24/05/2008 04:50      19.0  13.0  20.5  17.7  68  1013   ---   ENE     6     6   ---   --- /
24/05/2008 05:50      18.0  13.0  19.8  18.0  73  1013   ---     N     5     5   ---   --- /
24/05/2008 06:50      17.0  13.0  19.2  17.0  77  1013   ---     N     2     2   ---   --- /
24/05/2008 07:50      20.0  14.0  21.5  20.0  68  1014   ---     N     2     2   ---   --- /
24/05/2008 08:50      20.0  15.0  21.8  20.0  73  1014   ---   NNE     5     5   ---   --- /
24/05/2008 10:20      22.0  11.0  22.4  18.5  50  1013   ---    NE    14    14   ---   --- /
24/05/2008 12:50      24.0  13.0  24.5  20.1  50  1013   ---    NE    21    21   ---   --- /
24/05/2008 13:50      26.0  10.0  25.8  23.0  37  1013   ---    NE    21    21   ---   --- /
24/05/2008 14:50      27.0  10.0  26.6  24.1  34  1013   ---   ENE    26    26   ---   --- /
24/05/2008 15:50      26.0  10.0  25.8  22.4  37  1013   ---   ENE    31    31   ---   --- /
24/05/2008 16:50      27.0  10.0  26.6  24.0  34  1014   ---   ENE    27    27   ---   --- /
24/05/2008 17:50      27.0  10.0  26.6  24.3  34  1013   ---   ENE    23    23   ---   --- /
24/05/2008 18:50      28.0   8.0  27.0  26.1  28  1013   ---   ENE    18    18   ---   --- /
24/05/2008 19:50      22.0  16.0  23.6  19.8  69  1013   ---   WSW    10    10   ---   --- /
24/05/2008 20:50      22.0  16.0  23.6  22.0  69  1014   ---     N     3     3   ---   --- /
24/05/2008 21:50      21.0  16.0  22.9  21.0  73  1014   ---     N     2     2   ---   --- /
24/05/2008 22:50      20.0  15.0  21.8  20.0  73  1014   ---     N     5     5   ---   --- /
24/05/2008 23:50      20.0  16.0  22.2  20.0  78  1014   ---     N     0     0   ---   --- /
25/05/2008 00:50      20.0  12.0  21.0  20.0  60  1014   ---   ---     2     2   ---   --- /
25/05/2008 01:50      20.0  13.0  21.3  20.0  64  1014   ---     N     5     5   ---   --- /
25/05/2008 02:50      19.0  13.0  20.5  16.7  68  1014   ---    SW     8     8   ---   --- /
25/05/2008 03:50      21.0   9.0  21.3  21.0  46  1014   ---     N     3     3   ---   --- /
25/05/2008 04:50      21.0   7.0  21.0  19.0  40  1013   ---   SSW     8     8   ---   --- /
25/05/2008 05:50      20.0  13.0  21.3  18.8  64  1014   ---   NNE     6     6   ---   --- /
25/05/2008 06:50      19.0  10.0  19.8  19.0  56  1014   ---     N     5     5   ---   --- /
25/05/2008 07:50      20.0  13.0  21.3  17.8  64  1014   ---    NE     8     8   ---   --- /
25/05/2008 08:50      21.0  16.0  22.9  16.7  73  1015   ---    NE    16    16   ---   --- /
25/05/2008 09:50      22.0  15.0  23.3  17.5  65  1015   ---    NE    19    19   ---   --- /
25/05/2008 10:50      25.0   8.0  24.7  21.7  34  1015   ---    NE    19    19   ---   --- /
25/05/2008 11:50      28.0   5.0  26.8  25.9  23  1015   ---   ENE    21    21   ---   --- /
25/05/2008 12:50      23.0  16.0  24.3  18.7  65  1015   ---   NNE    21    21   ---   --- /
25/05/2008 13:50      27.0  13.0  27.0  24.4  42  1015   ---    NE    21    21   ---   --- /
25/05/2008 14:50      26.0  14.0  26.3  22.5  48  1015   ---   ENE    27    27   ---   --- /
25/05/2008 15:50      27.0  11.0  26.7  23.8  37  1014   ---   ENE    32    32   ---   --- /
25/05/2008 16:50      29.0   8.0  27.7  26.9  27  1013   ---   ENE    31    31   ---   --- /
25/05/2008 17:50      29.0  11.0  28.0  27.0  33  1013   ---   ENE    27    27   ---   --- /
25/05/2008 18:50      27.0  12.0  26.8  25.1  39  1013   ---    SW    14    14   ---   --- /
25/05/2008 19:50      23.0  15.0  24.1  23.0  61  1014   ---   NNW     3     3   ---   --- /
25/05/2008 20:50      23.0  12.0  23.4  23.0  50  1014   ---   SSE     3     3   ---   --- /
25/05/2008 21:20      23.0  13.0  23.6  23.0  53  1014   ---     N     2     2   ---   --- /
25/05/2008 22:50      23.0  13.0  23.6  21.3  53  1014   ---   SSW     8     8   ---   --- /
25/05/2008 23:50      24.0  10.0  24.0  22.5  41  1014   ---   SSW     8     8   ---   --- /
26/05/2008 00:50      22.0  12.0  22.6  22.0  53  1014   ---     W     3     3   ---   --- /
26/05/2008 01:50      22.0  11.0  22.4  22.0  50  1014   ---   NNW     5     5   ---   --- /
26/05/2008 03:20      21.0  12.0  21.8  21.0  56  1013   ---     S     3     3   ---   --- /
26/05/2008 04:50      21.0  13.0  22.0  21.0  60  1014   ---     N     3     3   ---   --- /
26/05/2008 05:50      22.0  11.0  22.4  21.0  50  1014   ---   ENE     6     6   ---   --- /
26/05/2008 06:50      22.0  11.0  22.4  21.0  50  1014   ---   ENE     6     6   ---   --- /
26/05/2008 07:50      24.0  11.0  24.1  24.0  44  1014   ---     N     2     2   ---   --- /
26/05/2008 08:50      23.0  15.0  24.1  20.2  61  1014   ---    NE    13    13   ---   --- /
26/05/2008 09:20      24.0  13.0  24.5  20.8  50  1014   ---    NE    16    16   ---   --- /
26/05/2008 10:50      24.0  16.0  25.1  24.0  61  1014   ---     N     5     5   ---   --- /
26/05/2008 11:50      25.0  16.0  25.9  22.0  57  1013   ---    NE    18    18   ---   --- /
26/05/2008 12:50      25.0  17.0  26.1  22.5  61  1013   ---   NNE    14    14   ---   --- /
26/05/2008 13:50      26.0  15.0  26.5  24.1  51  1013   ---   NNE    13    13   ---   --- /
26/05/2008 14:50      31.0  11.0  29.7  30.4  29  1012   ---    NE    13    13   ---   --- /
26/05/2008 15:50      31.0   9.0  29.4  30.2  26  1012   ---   ENE    19    19   ---   --- /
26/05/2008 16:50      31.0  13.0  30.1  30.6  33  1012   ---   ENE    10    10   ---   --- /
26/05/2008 17:50      25.0  16.0  25.9  23.4  57  1012   ---   NNE    10    10   ---   --- /
26/05/2008 18:50      24.0  16.0  25.1  21.5  61  1011   ---   NNE    13    13   ---   --- /
26/05/2008 19:50      25.0  15.0  25.7  23.4  54  1012   ---    NE    10    10   ---   --- /
26/05/2008 20:50      24.0  15.0  24.8  24.0  57  1012   ---     N     2     2   ---   --- /
26/05/2008 21:50      22.0  16.0  23.6  22.0  69  1012   ---     N     3     3   ---   --- /
26/05/2008 22:50      22.0  16.0  23.6  22.0  69  1012   ---     N     3     3   ---   --- /
26/05/2008 23:50      22.0  13.0  22.8  22.0  57  1012   ---     N     2     2   ---   --- /
27/05/2008 00:50      21.0  13.0  22.0  21.0  60  1012   ---     N     5     5   ---   --- /
27/05/2008 01:50      22.0  12.0  22.6  22.0  53  1011   ---     N     3     3   ---   --- /
27/05/2008 02:50      21.0  13.0  22.0  21.0  60  1011   ---     N     2     2   ---   --- /
27/05/2008 03:50      21.0  11.0  21.6  21.0  53  1010   ---     N     5     5   ---   --- /
27/05/2008 04:50      21.0  11.0  21.6  21.0  53  1010   ---     N     5     5   ---   --- /
27/05/2008 05:50      22.0   9.0  22.1  22.0  43  1010   ---     S     3     3   ---   --- /
27/05/2008 06:50      23.0   9.0  23.0  23.0  41  1010   ---     W     5     5   ---   --- /
27/05/2008 07:50      27.0  10.0  26.6  27.0  34  1010   ---   ENE     2     2   ---   --- /
27/05/2008 08:50      26.0  12.0  26.0  26.0  42  1010   ---     N     3     3   ---   --- /
27/05/2008 09:50      28.0  10.0  27.2  28.0  33  1010   ---     N     3     3   ---   --- /
27/05/2008 10:50      29.0  10.0  27.9  29.0  31  1009   ---     N     5     5   ---   --- /
27/05/2008 11:50      31.0   5.0  29.1  30.4  19  1009   ---     N    14    14   ---   --- /
27/05/2008 12:50      28.0  14.0  27.8  27.5  42  1009   ---     N     6     6   ---   --- /
27/05/2008 13:50      38.0   1.0  35.1  38.0  10  1009   ---     S    32    32   ---   --- /
27/05/2008 14:50      31.0   7.0  29.2  30.7  22  1008   ---     N     8     8   ---   0.8 Few Clouds/
27/05/2008 15:50      39.0   3.0  36.1  39.0  11  1008   ---     N    29    29   ---   1.0 Few Clouds/
27/05/2008 16:20      38.0   2.0  35.1  38.0  11  1008   ---   SSE    29    29   ---   1.0 Scattered Clouds/
27/05/2008 17:20      37.0   3.0  34.3  37.0  12  1007   ---     S    31    31   ---   1.0 Scattered Clouds/
27/05/2008 18:50      31.0  10.0  29.5  30.6  27  1008   ---    NE    10    10   ---   1.0 Broken Clouds/
27/05/2008 19:50      26.0  15.0  26.5  24.8  51  1008   ---   NNW     8     8   ---   1.0 Broken Clouds/
27/05/2008 20:50      27.0  14.0  27.1  25.8  45  1008   ---    NE    10    10   ---   1.0 Scattered Clouds/
27/05/2008 21:50      26.0  16.0  26.7  24.8  54  1009   ---    NW     8     8   ---   0.9 Scattered Clouds/
27/05/2008 22:50      26.0  13.0  26.2  26.0  45  1010   ---     N     2     2   ---   0.9 Few Clouds/
27/05/2008 23:50      24.0  16.0  25.1  20.8  61  1011   ---     N    16    16   ---   --- /
28/05/2008 00:50      24.0  12.0  24.3  22.2  47  1011   ---   ENE    10    10   ---   --- /
28/05/2008 01:50      26.0  11.0  25.9  22.9  39  1011   ---   ENE    23    23   ---   --- /
28/05/2008 02:20      25.0  11.0  25.0  22.1  41  1011   ---    NE    16    16   ---   --- /
28/05/2008 03:50      23.0  16.0  24.3  18.7  65  1012   ---     N    21    21   ---   --- /
28/05/2008 04:50      22.0  15.0  23.3  22.0  65  1012   ---     N     2     2   ---   --- /
28/05/2008 05:50      22.0  17.0  23.9  19.8  73  1012   ---   NNE    10    10   ---   --- /
28/05/2008 06:50      22.0  17.0  23.9  18.1  73  1012   ---    SW    16    16   ---   --- /
28/05/2008 07:50      22.0  17.0  23.9  16.7  73  1012   ---    SW    26    26   ---   --- /
28/05/2008 08:50      22.0  17.0  23.9  18.5  73  1013   ---   WSW    14    14   ---   --- /
28/05/2008 09:50      23.0  18.0  24.9  21.3  73  1012   ---    NW     8     8   ---   --- /
28/05/2008 10:20      23.0  18.0  24.9  22.1  73  1011   ---   NNE     6     6   ---   --- /
28/05/2008 11:50      26.0  16.0  26.7  25.4  54  1010   ---   NNE     6    26   ---   --- /
28/05/2008 12:50      25.0  17.0  26.1  22.1  61  1010   ---    SW    16    16   ---   --- /
28/05/2008 13:50      26.0  16.0  26.7  22.9  54  1009   ---    NE    23    23   ---   --- /
28/05/2008 14:50      27.0  16.0  27.5  24.3  51  1008   ---    NE    23    23   ---   --- /
28/05/2008 15:50      28.0  14.0  27.8  25.5  42  1007   ---    NE    27    27   ---   --- /
28/05/2008 17:50      25.0  16.0  25.9  23.4  57  1007   ---     W    10    10   ---   0.9 Scattered Clouds/
28/05/2008 18:50      23.0  16.0  24.3  16.9  65  1010   ---     W    50    71   ---   0.9 Broken Clouds/
28/05/2008 19:50      22.0  16.0  23.6  17.5  69  1011   ---     N    19    42   ---   0.4 Broken Clouds/
28/05/2008 20:50      22.0  17.0  23.9  15.8  73  1009   ---   NNE    39    39   ---   0.6 Broken Clouds/
28/05/2008 21:50      32.0   5.0  29.9  31.4  18  1005   ---     E    58    58   ---   0.6 Broken Clouds/
28/05/2008 22:50      28.0  13.0  27.6  26.1  40  1008   ---     W    18    18   ---   0.6 Broken Clouds/
28/05/2008 23:50      29.0   9.0  27.8  27.3  29  1010   ---   ENE    21    21   ---   0.7 Broken Clouds/
29/05/2008 00:50      26.0  13.0  26.2  22.9  45  1009   ---    NE    23    23   ---   0.7 Broken Clouds/
29/05/2008 01:50      24.0  15.0  24.8  19.5  57  1009   ---   ENE    27    27   ---   0.8 Broken Clouds/
29/05/2008 02:50      23.0  15.0  24.1  18.9  61  1007   ---   ENE    19    19   ---   0.8 Broken Clouds/
29/05/2008 03:50      25.0  12.0  25.2  22.1  44  1006   ---    NE    16    16   ---   0.5 Broken Clouds/
29/05/2008 04:20      25.0  14.0  25.5  21.6  51  1007   ---     N    21    60   ---   0.5 Broken Clouds/
29/05/2008 05:50      23.0  16.0  24.3  21.3  65  1007   ---    SW     8     8   ---   0.7 Broken Clouds/
29/05/2008 06:50      22.0  17.0  23.9  21.0  73  1008   ---    SW     6     6   ---   0.7 Broken Clouds/
29/05/2008 07:50      21.0  17.0  23.2  19.0  78  1009   ---   WSW     8     8   ---   --- Overcast/ Light Rain
29/05/2008 08:50      20.0  17.0  22.6  13.8  83  1009   ---    NW    26    26   ---   0.7 Broken Clouds/
29/05/2008 09:50      21.0  18.0  23.6  21.0  83  1011   ---     N     2     2   ---   0.7 Broken Clouds/
29/05/2008 10:20      21.0  18.0  23.6  17.7  83  1010   ---    NW    13    13   ---   0.7 Broken Clouds/
29/05/2008 11:50      22.0  17.0  23.9  16.7  73  1010   ---   WSW    26    26   ---   0.7 Scattered Clouds/
29/05/2008 12:50      21.0  17.0  23.2  14.6  78  1011   ---     W    32    32   ---   0.7 Scattered Clouds/
29/05/2008 13:50      20.0  16.0  22.2  13.4  78  1012   ---     W    29    29   ---   0.5 Few Clouds/
29/05/2008 14:50      20.0  15.0  21.8  12.7  73  1012   ---     W    39    56   ---   0.8 Scattered Clouds/
29/05/2008 15:20      20.0  15.0  21.8  13.1  73  1012   ---     W    32    32   ---   0.8 Scattered Clouds/
29/05/2008 16:50      20.0  15.0  21.8  13.1  73  1012   ---     W    32    32   ---   0.8 Few Clouds/
29/05/2008 17:50      20.0  15.0  21.8  13.1  73  1013   ---     W    32    32   ---   0.6 Scattered Clouds/
29/05/2008 18:50      20.0  15.0  21.8  13.5  73  1014   ---     W    27    27   ---   0.7 Few Clouds/
29/05/2008 19:50      20.0  13.0  21.3  13.1  64  1014   ---     W    32    32   ---   0.5 Few Clouds/
29/05/2008 20:50      19.0  15.0  21.2  11.7  78  1014   ---     W    31    31   ---   0.5 Few Clouds/
29/05/2008 21:50      20.0  15.0  21.8  15.1  73  1015   ---   WSW    18    18   ---   0.5 Few Clouds/
29/05/2008 22:50      19.0  13.0  20.5  14.0  68  1016   ---   SSW    16    16   ---   --- /
29/05/2008 23:50      18.0  12.0  19.5  12.6  68  1015   ---   SSW    16    16   ---   --- /
30/05/2008 00:50      18.0  11.0  19.2  16.6  64  1015   ---    SW     6     6   ---   --- /
30/05/2008 01:50      19.0  13.0  20.5  17.7  68  1015   ---   WSW     6     6   ---   --- /
30/05/2008 02:50      16.0  10.0  17.5  14.4  68  1015   ---     S     6     6   ---   --- /
30/05/2008 03:50      16.0  10.0  17.5  14.4  68  1015   ---   SSW     6     6   ---   --- /
30/05/2008 04:50      16.0  10.0  17.5  14.4  68  1015   ---   SSW     6     6   ---   --- /
30/05/2008 05:50      16.0  10.0  17.5  13.2  68  1015   ---   SSW     8     8   ---   --- /
30/05/2008 06:50      17.0  12.0  18.8  11.0  72  1015   ---    SW    18    18   ---   --- /
30/05/2008 07:50      19.0  12.0  20.2  13.0  64  1016   ---   SSW    21    21   ---   --- /
30/05/2008 08:50      20.0  12.0  21.0  14.6  60  1016   ---   SSW    19    19   ---   --- /
30/05/2008 09:20      20.0  13.0  21.3  14.2  64  1016   ---    SW    23    23   ---   --- /
30/05/2008 11:20      20.0  16.0  22.2  14.6  78  1017   ---    NW    19    19   ---   --- /
30/05/2008 12:50      21.0  16.0  22.9  17.2  73  1017   ---    NW    14    14   ---   --- /
30/05/2008 13:50      20.0  16.0  22.2  15.1  78  1017   ---    NW    18    18   ---   --- /
30/05/2008 14:20      20.0  16.0  22.2  15.3  78  1017   ---    NW    16    16   ---   --- /
30/05/2008 15:50      21.0  16.0  22.9  19.0  73  1017   ---     N     8     8   ---   --- /
30/05/2008 16:50      21.0  16.0  22.9  17.2  73  1017   ---   NNE    14    14   ---   --- /
30/05/2008 17:20      21.0  16.0  22.9  16.5  73  1017   ---   NNE    18    18   ---   --- /
30/05/2008 18:50      22.0  15.0  23.3  17.1  65  1016   ---   ENE    23    23   ---   --- /
30/05/2008 19:50      22.0  16.0  23.6  17.9  69  1016   ---    NE    18    18   ---   --- /
30/05/2008 20:50      21.0  16.0  22.9  18.6  73  1017   ---   ENE    10    10   ---   --- /
30/05/2008 21:50      21.0  15.0  22.5  21.0  69  1017   ---     N     2     2   ---   --- /
30/05/2008 22:50      20.0  16.0  22.2  15.3  78  1017   ---    SW    16    16   ---   --- /
30/05/2008 23:50      19.0  15.0  21.2  16.2  78  1017   ---    SW    10    10   ---   --- /
31/05/2008 00:50      18.0  14.0  20.2  15.5  77  1017   ---    SW     8     8   ---   --- /
31/05/2008 01:50      19.0  13.0  20.5  17.7  68  1017   ---     S     6     6   ---   --- /
31/05/2008 02:50      19.0  12.0  20.2  19.0  64  1017   ---     N     2     2   ---   --- /
31/05/2008 03:50      18.0  12.0  19.5  15.0  68  1017   ---   ENE    10    10   ---   --- /
31/05/2008 04:50      17.0  12.0  18.8  17.0  72  1017   ---     N     3     3   ---   --- /
31/05/2008 05:50      18.0  13.0  19.8  18.0  73  1017   ---     N     5     5   ---   --- /
31/05/2008 06:50      18.0  13.0  19.8  18.0  73  1017   ---     N     5     5   ---   --- /
31/05/2008 07:50      20.0  14.0  21.5  20.0  68  1017   ---     N     5     5   ---   --- /
31/05/2008 08:50      20.0  14.0  21.5  18.8  68  1018   ---     W     6     6   ---   --- /
31/05/2008 09:50      21.0  15.0  22.5  21.0  69  1018   ---     N     5     5   ---   --- /
31/05/2008 10:50      22.0  16.0  23.6  18.5  69  1018   ---   NNE    14    14   ---   --- /
31/05/2008 11:50      23.0  16.0  24.3  18.2  65  1018   ---    NE    26    26   ---   --- /
31/05/2008 12:50      24.0  14.0  24.6  19.5  54  1018   ---   ENE    27    27   ---   --- /
31/05/2008 13:50      25.0  11.0  25.0  21.0  41  1017   ---   ENE    27    27   ---   --- /
31/05/2008 14:50      26.0  14.0  26.3  22.5  48  1017   ---   ENE    29    29   ---   --- /
31/05/2008 15:50      26.0  13.0  26.2  22.5  45  1017   ---   ENE    27    27   ---   --- /
31/05/2008 16:50      27.0  13.0  27.0  24.3  42  1017   ---   ENE    23    23   ---   --- /
31/05/2008 17:50      26.0  13.0  26.2  23.0  45  1016   ---   ENE    21    21   ---   --- /
31/05/2008 18:50      25.0  12.0  25.2  21.4  44  1016   ---   ENE    23    23   ---   --- /
31/05/2008 19:50      23.0  14.0  23.8  18.2  57  1016   ---   ENE    26    26   ---   --- /
31/05/2008 20:50      22.0  14.0  23.0  21.0  61  1017   ---   ESE     6     6   ---   --- /
31/05/2008 21:50      21.0  17.0  23.2  21.0  78  1017   ---     N     3     3   ---   --- /
31/05/2008 22:50      20.0  16.0  22.2  17.4  78  1017   ---   SSW    10    10   ---   --- /
31/05/2008 23:50      21.0  15.0  22.5  21.0  69  1017   ---     N     5     5   ---   --- /
01/06/2008 00:50      20.0  15.0  21.8  17.4  73  1017   ---    NE    10    10   ---   --- /
01/06/2008 01:50      20.0  16.0  22.2  20.0  78  1017   ---     N     5     5   ---   --- /
01/06/2008 02:50      19.0  14.0  20.8  17.7  73  1016   ---   SSW     6     6   ---   --- /
01/06/2008 03:50      20.0  12.0  21.0  20.0  60  1015   ---     N     5     5   ---   --- /
01/06/2008 04:50      20.0  15.0  21.8  20.0  73  1015   ---     N     3     3   ---   --- /
01/06/2008 05:50      18.0  12.0  19.5  18.0  68  1015   ---     N     5     5   ---   --- /
01/06/2008 06:50      19.0  13.0  20.5  16.7  68  1015   ---   SSW     8     8   ---   --- /
01/06/2008 07:50      21.0  13.0  22.0  16.5  60  1016   ---    SW    18    18   ---   0.9 Scattered Clouds/
01/06/2008 08:50      22.0  13.0  22.8  17.9  57  1017   ---    SW    18    18   ---   0.9 Scattered Clouds/
01/06/2008 09:50      23.0  12.0  23.4  21.0  50  1017   ---    SW    10    10   ---   --- /
01/06/2008 10:20      22.0  12.0  22.6  19.8  53  1017   ---    SW    10    10   ---   --- /
01/06/2008 11:50      24.0  12.0  24.3  23.2  47  1016   ---     N     6     6   ---   5.4 Broken Clouds/
01/06/2008 12:50      23.0  16.0  24.3  18.5  65  1016   ---    NE    23    23   ---   --- /
01/06/2008 13:50      27.0  13.0  27.0  25.8  42  1015   ---   SSW    10    10   ---   --- /
01/06/2008 14:50      23.0  17.0  24.6  19.8  69  1015   ---   WSW    14    14   ---   --- /
01/06/2008 15:50      23.0  17.0  24.6  19.8  69  1015   ---   WSW    14    14   ---   --- /
01/06/2008 16:50      23.0  17.0  24.6  22.1  69  1014   ---     N     6     6   ---   --- /
01/06/2008 17:50      25.0  14.0  25.5  21.2  51  1012   ---    NE    26    26   ---   --- /
01/06/2008 18:50      23.0  18.0  24.9  21.3  73  1012   ---     W     8    56   ---   --- /
01/06/2008 19:50      22.0  16.0  23.6  19.8  69  1013   ---   WSW    10    10   ---   --- /
01/06/2008 20:50      22.0  16.0  23.6  20.2  69  1013   ---     W     8     8   ---   --- /
01/06/2008 21:50      22.0  17.0  23.9  20.2  73  1013   ---     W     8     8   ---   --- /
01/06/2008 22:50      21.0  15.0  22.5  19.9  69  1013   ---     S     6     6   ---   --- /
01/06/2008 23:50      21.0  14.0  22.3  17.7  64  1013   ---   SSW    13    13   ---   --- /
02/06/2008 00:50      21.0  14.0  22.3  21.0  64  1012   ---   SSW     5     5   ---   --- /
02/06/2008 01:50      21.0  16.0  22.9  17.2  73  1012   ---    SW    14    14   ---   --- /
02/06/2008 02:50      21.0  16.0  22.9  17.2  73  1012   ---   SSW    14    14   ---   --- /
02/06/2008 03:50      21.0  15.0  22.5  21.0  69  1011   ---    SE     3     3   ---   --- /
02/06/2008 04:50      21.0  17.0  23.2  14.9  78  1011   ---   ESE    29    29   ---   --- /
02/06/2008 05:50      20.0  18.0  23.0  17.4  88  1013   ---    SW    10    10   ---   0.4 Broken Clouds/
02/06/2008 06:50      21.0  18.0  23.6  18.6  83  1013   ---    NW    10    10   ---   0.4 Overcast/
02/06/2008 07:50      21.0  18.0  23.6  21.0  83  1012   ---     S     3     3   ---   0.8 Broken Clouds/
02/06/2008 08:50      21.0  18.0  23.6  16.5  83  1012   ---    SW    18    18   ---   0.7 Broken Clouds/
02/06/2008 09:50      23.0  16.0  24.3  19.4  65  1012   ---   WSW    16    16   ---   0.7 Broken Clouds/
02/06/2008 11:20      22.0  18.0  24.2  18.9  78  1012   ---   NNE    13    13   ---   --- /
02/06/2008 12:50      22.0  18.0  24.2  17.1  78  1012   ---    NE    23    23   ---   --- /
02/06/2008 13:50      22.0  19.0  24.6  16.3  83  1011   ---    NE    31    31   ---   --- /
02/06/2008 14:50      22.0  19.0  24.6  16.4  83  1011   ---    NE    29    29   ---   --- /
02/06/2008 15:50      22.0  19.0  24.6  16.5  83  1010   ---   NNE    27    27   ---   --- /
02/06/2008 16:50      22.0  19.0  24.6  17.5  83  1010   ---    NE    19    19   ---   0.7 Few Clouds/
02/06/2008 17:50      22.0  19.0  24.6  17.5  83  1010   ---   NNE    19    19   ---   0.7 Few Clouds/
02/06/2008 18:50      21.0  19.0  24.0  16.7  88  1010   ---   NNE    16    16   ---   0.9 Scattered Clouds/
02/06/2008 19:50      21.0  19.0  24.0  18.6  88  1010   ---   NNE    10    10   ---   0.2 Scattered Clouds/
02/06/2008 20:50      21.0  19.0  24.0  21.0  88  1010   ---     N     5     5   ---   0.2 Scattered Clouds/
02/06/2008 21:50      21.0  19.0  24.0  18.6  88  1010   ---   WSW    10    10   ---   0.2 Scattered Clouds/
02/06/2008 22:50      21.0  19.0  24.0  16.7  88  1011   ---     W    16    16   ---   0.2 Scattered Clouds/
02/06/2008 23:50      21.0  19.0  24.0  18.6  88  1011   ---   WSW    10    10   ---   0.2 Scattered Clouds/
03/06/2008 00:50      20.0  19.0  23.5  17.4  94  1011   ---   WSW    10    10   ---   0.2 Scattered Clouds/
03/06/2008 01:50      20.0  19.0  23.5  13.8  94  1011   ---     W    26    26   ---   0.2 Broken Clouds/
03/06/2008 02:50      20.0  19.0  23.5  14.4  94  1011   ---     W    21    21   ---   0.2 Scattered Clouds/
03/06/2008 03:50      20.0  18.0  23.0  16.4  88  1010   ---     S    13    13   ---   0.4 Few Clouds/
03/06/2008 04:50      20.0  17.0  22.6  15.3  83  1010   ---    SW    16    16   ---   0.4 Few Clouds/
03/06/2008 05:50      21.0  16.0  22.9  19.9  73  1009   ---    SW     6     6   ---   0.5 Few Clouds/
03/06/2008 06:50      20.0  16.0  22.2  14.4  78  1010   ---    SW    21    21   ---   --- /
03/06/2008 07:50      21.0  17.0  23.2  17.2  78  1011   ---   SSW    14    14   ---   0.3 Scattered Clouds/
03/06/2008 08:50      21.0  18.0  23.6  16.7  83  1011   ---   WSW    16    16   ---   0.4 Scattered Clouds/
03/06/2008 09:20      21.0  18.0  23.6  16.7  83  1011   ---    SW    16    16   ---   0.4 Scattered Clouds/
03/06/2008 10:20      22.0  18.0  24.2  17.5  78  1011   ---   WSW    19    19   ---   0.4 Scattered Clouds/
03/06/2008 11:50      21.0  18.0  23.6  15.8  83  1012   ---     W    21    21   ---   0.4 Few Clouds/
03/06/2008 12:50      21.0  18.0  23.6  16.1  83  1012   ---   WSW    19    19   ---   0.3 Broken Clouds/
03/06/2008 13:20      21.0  18.0  23.6  15.8  83  1012   ---     W    21    21   ---   0.2 Broken Clouds/
03/06/2008 14:50      21.0  18.0  23.6  16.5  83  1012   ---     W    18    18   ---   0.2 Broken Clouds/
03/06/2008 15:50      21.0  18.0  23.6  16.1  83  1013   ---     W    19    19   ---   0.2 Broken Clouds/
03/06/2008 16:50      21.0  18.0  23.6  16.7  83  1012   ---     W    16    16   ---   0.2 Broken Clouds/
03/06/2008 17:50      21.0  18.0  23.6  17.2  83  1012   ---     W    14    14   ---   0.2 Broken Clouds/
03/06/2008 18:50      20.0  18.0  23.0  14.6  88  1012   ---   WNW    19    19   ---   0.1 Broken Clouds/
03/06/2008 19:50      20.0  18.0  23.0  15.1  88  1013   ---   WNW    18    18   ---   0.1 Broken Clouds/
03/06/2008 20:50      20.0  18.0  23.0  15.9  88  1013   ---   WNW    14    14   ---   0.1 Broken Clouds/
03/06/2008 21:50      20.0  18.0  23.0  15.9  88  1014   ---   WNW    14    14   ---   0.2 Scattered Clouds/
03/06/2008 22:20      20.0  18.0  23.0  15.3  88  1014   ---   WNW    16    16   ---   0.2 Scattered Clouds/
03/06/2008 23:50      20.0  18.0  23.0  15.9  88  1015   ---     W    14    14   ---   0.1 Scattered Clouds/
04/06/2008 00:50      20.0  18.0  23.0  17.4  88  1015   ---     W    10    10   ---   0.2 Scattered Clouds/
04/06/2008 01:50      20.0  18.0  23.0  17.4  88  1014   ---     W    10    10   ---   0.4 Scattered Clouds/
04/06/2008 02:50      20.0  17.0  22.6  15.9  83  1014   ---     W    14    14   ---   0.4 Scattered Clouds/
04/06/2008 03:50      20.0  17.0  22.6  15.9  83  1014   ---     W    14    14   ---   0.4 Scattered Clouds/
04/06/2008 04:50      20.0  17.0  22.6  17.4  83  1013   ---     W    10    10   ---   0.4 Scattered Clouds/
04/06/2008 05:50      20.0  17.0  22.6  16.4  83  1014   ---     W    13    13   ---   0.4 Scattered Clouds/
04/06/2008 06:50      20.0  17.0  22.6  17.8  83  1014   ---     W     8     8   ---   0.4 Scattered Clouds/
04/06/2008 07:50      20.0  17.0  22.6  20.0  83  1014   ---     W     5     5   ---   0.6 Few Clouds/
04/06/2008 08:50      20.0  17.0  22.6  18.8  83  1014   ---     W     6     6   ---   0.6 Few Clouds/
04/06/2008 09:50      21.0  17.0  23.2  19.9  78  1015   ---     W     6     6   ---   0.6 Few Clouds/
04/06/2008 11:50      21.0  17.0  23.2  17.2  78  1016   ---     W    14    14   ---   0.6 Scattered Clouds/
04/06/2008 12:50      21.0  17.0  23.2  16.5  78  1016   ---   WNW    18    18   ---   0.5 Scattered Clouds/
04/06/2008 13:50      21.0  17.0  23.2  15.8  78  1015   ---   WNW    21    21   ---   0.5 Few Clouds/
04/06/2008 14:50      20.0  16.0  22.2  13.8  78  1015   ---     W    26    26   ---   0.5 Few Clouds/
04/06/2008 15:50      20.0  16.0  22.2  13.5  78  1015   ---     W    27    27   ---   0.5 Few Clouds/
04/06/2008 16:50      21.0  16.0  22.9  16.1  73  1014   ---     W    19    19   ---   0.5 Few Clouds/
04/06/2008 17:50      20.0  16.0  22.2  13.4  78  1014   ---     W    29    29   ---   0.5 Few Clouds/
04/06/2008 18:50      20.0  16.0  22.2  13.4  78  1014   ---     W    29    29   ---   0.5 Few Clouds/
04/06/2008 19:50      20.0  16.0  22.2  14.4  78  1014   ---     W    21    21   ---   0.5 Few Clouds/
04/06/2008 20:50      20.0  16.0  22.2  15.3  78  1014   ---   WSW    16    16   ---   0.5 Few Clouds/
04/06/2008 21:50      20.0  15.0  21.8  15.9  73  1015   ---   WSW    14    14   ---   0.5 Few Clouds/
04/06/2008 22:50      18.0  13.0  19.8  15.0  73  1015   ---     S    10    10   ---   0.5 Few Clouds/
04/06/2008 23:50      20.0  14.0  21.5  15.1  68  1016   ---   SSW    18    18   ---   0.5 Few Clouds/
05/06/2008 00:50      20.0  13.0  21.3  15.3  64  1015   ---     S    16    16   ---   0.5 Few Clouds/
05/06/2008 01:50      20.0  13.0  21.3  15.1  64  1015   ---   SSW    18    18   ---   0.5 Few Clouds/
05/06/2008 02:50      19.0  14.0  20.8  13.7  73  1014   ---    SW    18    18   ---   0.5 Few Clouds/
05/06/2008 03:50      19.0  14.0  20.8  12.7  73  1014   ---   SSW    23    23   ---   0.5 Few Clouds/
05/06/2008 04:50      19.0  13.0  20.5  12.7  68  1014   ---   SSW    23    23   ---   0.5 Few Clouds/
05/06/2008 05:50      19.0  14.0  20.8  13.7  73  1014   ---   SSW    18    18   ---   --- /
05/06/2008 06:50      29.0  14.0  28.6  27.5  40  1014   ---   SSW    18    18   ---   0.7 Scattered Clouds/
05/06/2008 07:50      20.0  14.0  21.5  15.9  68  1014   ---   SSW    14    14   ---   0.7 Scattered Clouds/
05/06/2008 08:50      21.0  14.0  22.3  16.7  64  1014   ---    SW    16    16   ---   0.7 Scattered Clouds/
05/06/2008 09:50      21.0  15.0  22.5  16.7  69  1015   ---   WSW    16    16   ---   0.7 Scattered Clouds/
05/06/2008 10:50      20.0  15.0  21.8  15.1  73  1015   ---     W    18    18   ---   0.7 Scattered Clouds/
05/06/2008 11:50      21.0  15.0  22.5  16.5  69  1015   ---     W    18    18   ---   0.8 Scattered Clouds/
05/06/2008 12:50      21.0  14.0  22.3  16.1  64  1015   ---     W    19    19   ---   0.8 Scattered Clouds/
05/06/2008 13:50      21.0  16.0  22.9  14.9  73  1014   ---   WNW    29    29   ---   0.8 Scattered Clouds/
05/06/2008 14:50      21.0  16.0  22.9  14.6  73  1014   ---   WNW    32    32   ---   0.6 Scattered Clouds/
05/06/2008 15:50      21.0  15.0  22.5  14.3  69  1014   ---   WNW    37    37   ---   0.5 Scattered Clouds/
05/06/2008 16:50      21.0  15.0  22.5  14.3  69  1013   ---   WNW    37    37   ---   0.5 Scattered Clouds/
05/06/2008 17:50      21.0  15.0  22.5  14.5  69  1013   ---   WNW    34    34   ---   0.5 Scattered Clouds/
05/06/2008 18:50      21.0  15.0  22.5  15.0  69  1013   ---   WNW    27    27   ---   0.5 Scattered Clouds/
05/06/2008 19:50      20.0  15.0  21.8  14.2  73  1014   ---   WNW    23    23   ---   0.5 Scattered Clouds/
05/06/2008 20:50      20.0  15.0  21.8  15.9  73  1014   ---     W    14    14   ---   0.5 Scattered Clouds/
05/06/2008 21:50      20.0  15.0  21.8  17.4  73  1015   ---   WSW    10    10   ---   0.5 Scattered Clouds/
05/06/2008 22:50      19.0  13.0  20.5  17.7  68  1015   ---     S     6     6   ---   0.5 Scattered Clouds/
05/06/2008 23:50      18.0  10.0  19.0  13.2  60  1015   ---     S    14    14   ---   0.6 Few Clouds/
06/06/2008 00:50      17.0  10.0  18.2  12.5  63  1015   ---     S    13    13   ---   0.6 Few Clouds/
06/06/2008 01:50      17.0   9.0  18.0  13.8  59  1014   ---     S    10    10   ---   0.6 Few Clouds/
06/06/2008 02:50      19.0  11.0  20.0  14.5  60  1014   ---    SW    14    14   ---   --- /
06/06/2008 03:50      19.0  10.0  19.8  13.0  56  1013   ---   SSW    21    21   ---   --- /
06/06/2008 04:50      19.0  10.0  19.8  13.2  56  1013   ---   SSW    19    19   ---   --- /
06/06/2008 05:50      19.0  10.0  19.8  13.7  56  1013   ---     S    18    18   ---   --- /
06/06/2008 06:50      20.0  10.0  20.6  15.1  53  1013   ---   SSW    18    18   ---   --- /
06/06/2008 07:50      21.0   9.0  21.3  15.8  46  1014   ---   SSW    21    21   ---   3.6 Scattered Clouds/
06/06/2008 08:50      21.0  10.0  21.4  15.8  49  1013   ---   SSW    21    21   ---   --- /
06/06/2008 09:50      21.0  11.0  21.6  15.8  53  1013   ---    SW    21    21   ---   0.8 Few Clouds/
06/06/2008 10:20      22.0  12.0  22.6  17.3  53  1013   ---    SW    21    21   ---   0.8 Scattered Clouds/
06/06/2008 11:50      23.0  12.0  23.4  19.8  50  1014   ---   SSW    14    14   ---   0.8 Scattered Clouds/
06/06/2008 12:50      23.0  15.0  24.1  19.4  61  1013   ---    NW    16    16   ---   0.8 Scattered Clouds/
06/06/2008 13:50      22.0  16.0  23.6  18.1  69  1013   ---    NW    16    16   ---   0.8 Scattered Clouds/
06/06/2008 14:50      22.0  14.0  23.0  22.0  61  1013   ---    NW     5     5   ---   0.8 Broken Clouds/
06/06/2008 15:50      21.0  15.0  22.5  21.0  69  1013   ---    NW     5     5   ---   0.8 Broken Clouds/
06/06/2008 16:50      21.0  14.0  22.3  21.0  64  1013   ---   NNW     2     2   ---   0.8 Overcast/
06/06/2008 17:50      21.0  15.0  22.5  21.0  69  1013   ---     N     3     3   ---   0.8 Overcast/
06/06/2008 18:50      21.0  15.0  22.5  17.7  69  1012   ---   NNE    13    13   ---   0.8 Broken Clouds/
06/06/2008 19:50      20.0  15.0  21.8  16.4  73  1012   ---   NNE    13    13   ---   --- /
06/06/2008 20:50      20.0  14.0  21.5  16.4  68  1013   ---    NE    13    13   ---   --- /
06/06/2008 21:50      20.0  14.0  21.5  18.8  68  1013   ---   ENE     6     6   ---   --- /
06/06/2008 22:50      19.0  13.0  20.5  16.7  68  1013   ---     S     8     8   ---   --- /
06/06/2008 23:50      20.0  11.0  20.8  14.6  56  1013   ---   SSW    19    19   ---   --- /
07/06/2008 00:50      21.0  14.0  22.3  15.2  64  1013   ---     S    26    26   ---   0.6 Scattered Clouds/
07/06/2008 01:50      21.0  14.0  22.3  16.1  64  1012   ---   SSW    19    19   ---   0.6 Scattered Clouds/
07/06/2008 02:50      20.0  15.0  21.8  13.2  73  1012   ---     W    31    31   ---   0.6 Scattered Clouds/
07/06/2008 03:50      20.0  16.0  22.2  13.4  78  1012   ---     W    29    29   ---   0.6 Scattered Clouds/
07/06/2008 04:50      20.0  16.0  22.2  13.0  78  1012   ---     W    34    34   ---   0.6 Scattered Clouds/
07/06/2008 05:50      20.0  15.0  21.8  13.0  73  1012   ---     W    34    34   ---   0.6 Broken Clouds/
07/06/2008 06:50      20.0  15.0  21.8  13.1  73  1012   ---     W    32    32   ---   0.6 Scattered Clouds/
07/06/2008 07:50      20.0  15.0  21.8  13.0  73  1012   ---     W    34    34   ---   0.4 Scattered Clouds/
07/06/2008 08:50      20.0  15.0  21.8  13.0  73  1012   ---     W    34    34   ---   0.4 Broken Clouds/
07/06/2008 09:50      20.0  14.0  21.5  13.2  68  1013   ---     W    31    31   ---   0.5 Broken Clouds/
07/06/2008 10:50      20.0  15.0  21.8  13.4  73  1013   ---     W    29    29   ---   0.5 Broken Clouds/
07/06/2008 11:50      20.0  15.0  21.8  13.0  73  1013   ---     W    34    34   ---   0.5 Broken Clouds/
07/06/2008 12:20      20.0  15.0  21.8  13.1  73  1013   ---     W    32    32   ---   0.5 Broken Clouds/
07/06/2008 13:50      20.0  15.0  21.8  13.5  73  1013   ---     W    27    27   ---   0.4 Broken Clouds/
07/06/2008 14:50      20.0  15.0  21.8  13.0  73  1013   ---     W    34    34   ---   0.4 Broken Clouds/
07/06/2008 15:50      20.0  16.0  22.2  13.1  78  1012   ---     W    32    32   ---   0.4 Broken Clouds/
07/06/2008 16:50      20.0  15.0  21.8  13.2  73  1012   ---     W    31    31   ---   0.4 Broken Clouds/
07/06/2008 17:50      20.0  16.0  22.2  13.5  78  1012   ---     W    27    27   ---   0.5 Scattered Clouds/
07/06/2008 18:50      20.0  16.0  22.2  13.8  78  1012   ---     W    26    26   ---   0.5 Broken Clouds/
07/06/2008 19:50      20.0  16.0  22.2  13.8  78  1012   ---     W    26    26   ---   0.5 Scattered Clouds/
07/06/2008 20:50      20.0  15.0  21.8  15.1  73  1013   ---     W    18    18   ---   0.5 Few Clouds/
07/06/2008 21:50      20.0  15.0  21.8  16.4  73  1013   ---   WNW    13    13   ---   0.5 Few Clouds/
07/06/2008 22:50      20.0  15.0  21.8  18.8  73  1013   ---   WSW     6     6   ---   0.5 Few Clouds/
07/06/2008 23:50      18.0  14.0  20.2  13.8  77  1013   ---     S    13    13   ---   0.5 Few Clouds/
08/06/2008 00:50      18.0  13.0  19.8  15.0  73  1013   ---     S    10    10   ---   0.6 Few Clouds/
08/06/2008 01:50      18.0  13.0  19.8  13.8  73  1013   ---   ENE    13    13   ---   0.6 Few Clouds/
08/06/2008 02:50      17.0  12.0  18.8  13.8  72  1013   ---   SSE    10    10   ---   0.6 Few Clouds/
08/06/2008 03:50      17.0  11.0  18.5  14.3  68  1013   ---     S     8     8   ---   0.6 Few Clouds/
08/06/2008 04:50      17.0  11.0  18.5  14.3  68  1013   ---   SSE     8     8   ---   0.6 Few Clouds/
08/06/2008 05:50      17.0  12.0  18.8  12.5  72  1012   ---   SSW    13    13   ---   0.6 Few Clouds/
08/06/2008 06:50      18.0  13.0  19.8  13.8  73  1013   ---    SW    13    13   ---   0.6 Few Clouds/
08/06/2008 07:50      19.0  12.0  20.2  13.7  64  1013   ---    SW    18    18   ---   0.6 Scattered Clouds/
08/06/2008 08:50      21.0  13.0  22.0  16.1  60  1013   ---    SW    19    19   ---   0.6 Scattered Clouds/
08/06/2008 09:20      21.0  14.0  22.3  17.2  64  1013   ---    SW    14    14   ---   0.6 Few Clouds/
08/06/2008 11:50      20.0  15.0  21.8  14.4  73  1014   ---   WNW    21    21   ---   0.6 Few Clouds/
08/06/2008 12:50      20.0  15.0  21.8  13.5  73  1014   ---   WNW    27    27   ---   0.6 Few Clouds/
08/06/2008 13:50      20.0  15.0  21.8  13.8  73  1014   ---   WNW    26    26   ---   0.6 Broken Clouds/
08/06/2008 14:50      20.0  15.0  21.8  13.5  73  1014   ---   WNW    27    27   ---   0.6 Broken Clouds/
08/06/2008 15:50      20.0  13.0  21.3  15.3  64  1014   ---     W    16    16   ---   0.6 Broken Clouds/
08/06/2008 16:50      20.0  13.0  21.3  14.4  64  1014   ---   WNW    21    21   ---   0.6 Broken Clouds/
08/06/2008 17:50      20.0  12.0  21.0  15.9  60  1014   ---     W    14    14   ---   0.6 Broken Clouds/
08/06/2008 19:50      20.0  14.0  21.5  14.2  68  1014   ---   WNW    23    23   ---   0.6 Broken Clouds/
08/06/2008 20:50      20.0  14.0  21.5  15.9  68  1015   ---     W    14    14   ---   0.6 Broken Clouds/
08/06/2008 21:50      20.0  14.0  21.5  15.1  68  1015   ---   WNW    18    18   ---   0.6 Broken Clouds/
08/06/2008 22:50      20.0  14.0  21.5  16.4  68  1016   ---   WNW    13    13   ---   0.6 Few Clouds/
08/06/2008 23:50      20.0  14.0  21.5  14.6  68  1015   ---   WNW    19    19   ---   0.6 Few Clouds/
09/06/2008 00:50      19.0  14.0  20.8  14.5  73  1016   ---   WNW    14    14   ---   0.6 Few Clouds/
09/06/2008 01:50      19.0  14.0  20.8  14.5  73  1016   ---   WNW    14    14   ---   0.6 Few Clouds/
09/06/2008 02:50      19.0  14.0  20.8  15.1  73  1015   ---   WNW    13    13   ---   0.6 Few Clouds/
09/06/2008 03:50      17.0  12.0  18.8  15.5  72  1015   ---     S     6     6   ---   0.6 Few Clouds/
09/06/2008 04:50      17.0  13.0  19.2  17.0  77  1015   ---     N     5     5   ---   0.6 Few Clouds/
09/06/2008 05:50      16.0  13.0  18.5  16.0  82  1015   ---     N     5     5   ---   0.6 Few Clouds/
09/06/2008 06:50      17.0  13.0  19.2  17.0  77  1016   ---     N     3     3   ---   0.6 Few Clouds/
09/06/2008 07:50      20.0  14.0  21.5  20.0  68  1016   ---     N     2     2   ---   0.6 Few Clouds/
09/06/2008 08:50      19.0  15.0  21.2  17.7  78  1017   ---   WNW     6     6   ---   0.6 Few Clouds/
09/06/2008 09:50      20.0  15.0  21.8  17.8  73  1017   ---     N     8     8   ---   0.7 Few Clouds/
09/06/2008 10:20      21.0  15.0  22.5  19.0  69  1017   ---     N     8     8   ---   0.7 Few Clouds/
09/06/2008 12:50      21.0  15.0  22.5  16.1  69  1017   ---   NNE    19    19   ---   0.7 Few Clouds/
09/06/2008 13:50      22.0  14.0  23.0  17.5  61  1017   ---    NE    19    19   ---   0.7 Few Clouds/
09/06/2008 14:50      22.0  14.0  23.0  16.5  61  1017   ---    NE    27    27   ---   0.7 Few Clouds/
09/06/2008 15:50      22.0  14.0  23.0  16.3  61  1016   ---    NE    31    31   ---   --- /
09/06/2008 16:50      22.0  14.0  23.0  16.1  61  1016   ---    NE    34    34   ---   --- /
09/06/2008 17:50      22.0  13.0  22.8  15.9  57  1016   ---    NE    37    37   ---   --- /
09/06/2008 18:50      22.0  13.0  22.8  16.1  57  1016   ---   ENE    34    34   ---   --- /
09/06/2008 19:50      22.0  14.0  23.0  16.3  61  1015   ---   ENE    31    31   ---   --- /
09/06/2008 20:20      22.0  14.0  23.0  16.3  61  1016   ---   ENE    31    31   ---   --- /
09/06/2008 21:50      21.0  13.0  22.0  17.7  60  1017   ---   ENE    13    13   ---   --- /
09/06/2008 22:50      20.0  14.0  21.5  18.8  68  1017   ---    SW     6     6   ---   --- /
09/06/2008 23:50      19.0  14.0  20.8  19.0  73  1018   ---     N     5     5   ---   --- /
10/06/2008 00:50      20.0  15.0  21.8  15.9  73  1018   ---    SW    14    14   ---   --- /
10/06/2008 01:50      18.0  13.0  19.8  10.8  73  1018   ---     E    26    26   ---   --- /
10/06/2008 02:50      19.0  14.0  20.8  16.7  73  1018   ---    NE     8     8   ---   --- /
10/06/2008 03:50      19.0  13.0  20.5  16.2  68  1018   ---   ENE    10    10   ---   --- /
10/06/2008 04:50      18.0  13.0  19.8  15.0  73  1018   ---   ENE    10    10   ---   --- /
10/06/2008 05:50      17.0  12.0  18.8  15.5  72  1018   ---    SE     6     6   ---   --- /
10/06/2008 06:50      18.0  13.0  19.8  16.6  73  1017   ---    SW     6     6   ---   --- /
10/06/2008 07:50      19.0  13.0  20.5  16.7  68  1018   ---    SW     8     8   ---   --- /
10/06/2008 08:50      20.0  14.0  21.5  17.4  68  1018   ---   WSW    10    10   ---   --- /
10/06/2008 09:50      21.0  15.0  22.5  21.0  69  1018   ---     N     5     5   ---   --- /
10/06/2008 11:20      22.0  17.0  23.9  18.5  73  1019   ---    NE    14    14   ---   --- /
10/06/2008 12:50      23.0  17.0  24.6  18.5  69  1018   ---    NE    23    23   ---   --- /
10/06/2008 13:50      23.0  18.0  24.9  18.0  73  1018   ---    NE    27    27   ---   --- /
10/06/2008 14:50      23.0  16.0  24.3  18.0  65  1018   ---    NE    27    27   ---   --- /
10/06/2008 15:50      23.0  18.0  24.9  18.2  73  1018   ---    NE    26    26   ---   --- /
10/06/2008 16:50      23.0  17.0  24.6  18.2  69  1018   ---    NE    26    26   ---   --- /
10/06/2008 17:50      22.0  18.0  24.2  17.3  78  1018   ---   NNE    21    21   ---   --- /
10/06/2008 18:20      22.0  18.0  24.2  16.7  78  1017   ---    NE    26    26   ---   0.5 Few Clouds/
10/06/2008 19:50      22.0  18.0  24.2  17.1  78  1018   ---    NE    23    23   ---   0.5 Few Clouds/
10/06/2008 20:50      21.0  18.0  23.6  16.1  83  1018   ---    NE    19    19   ---   0.5 Few Clouds/
10/06/2008 21:50      21.0  18.0  23.6  16.7  83  1018   ---   ENE    16    16   ---   0.5 Few Clouds/
10/06/2008 22:50      21.0  18.0  23.6  21.0  83  1018   ---     N     2     2   ---   0.6 Few Clouds/
10/06/2008 23:50      20.0  17.0  22.6  16.4  83  1018   ---    SW    13    13   ---   0.6 Few Clouds/
11/06/2008 00:50      20.0  17.0  22.6  16.4  83  1018   ---    SW    13    13   ---   0.6 Few Clouds/
11/06/2008 01:50      20.0  17.0  22.6  17.8  83  1018   ---   SSW     8     8   ---   0.6 Few Clouds/
11/06/2008 02:50      21.0  12.0  21.8  19.9  56  1018   ---     S     6     6   ---   0.6 Few Clouds/
11/06/2008 03:50      21.0  16.0  22.9  21.0  73  1017   ---     N     5     5   ---   0.6 Few Clouds/
11/06/2008 04:50      20.0  17.0  22.6  17.8  83  1017   ---   ENE     8     8   ---   0.6 Few Clouds/
11/06/2008 05:50      18.0  16.0  21.0  18.0  88  1018   ---     N     2     2   ---   --- /
11/06/2008 06:50      19.0  15.0  21.2  19.0  78  1018   ---     N     3     3   ---   --- /
11/06/2008 07:50      21.0  18.0  23.6  21.0  83  1018   ---     N     5     5   ---   --- /
11/06/2008 08:50      22.0  18.0  24.2  19.8  78  1018   ---   NNE    10    10   ---   --- /
11/06/2008 09:50      22.0  18.0  24.2  18.5  78  1018   ---   NNE    14    14   ---   --- /
11/06/2008 11:20      23.0  17.0  24.6  19.2  69  1018   ---   NNE    18    18   ---   --- /
11/06/2008 12:50      24.0  13.0  24.5  20.3  50  1018   ---   NNE    19    19   ---   --- /
11/06/2008 13:50      25.0  11.0  25.0  21.4  41  1017   ---    NE    23    23   ---   --- /
11/06/2008 14:50      24.0  15.0  24.8  20.0  57  1016   ---    NE    23    23   ---   --- /
11/06/2008 15:50      25.0  13.0  25.3  21.6  47  1016   ---    NE    21    21   ---   --- /
11/06/2008 16:50      25.0  13.0  25.3  22.0  47  1015   ---    NE    18    18   ---   --- /
11/06/2008 17:50      25.0  13.0  25.3  22.8  47  1015   ---   NNE    13    13   ---   --- /
11/06/2008 18:50      24.0  14.0  24.6  21.5  54  1015   ---    NE    13    13   ---   --- /
11/06/2008 19:50      23.0  17.0  24.6  21.3  69  1015   ---   NNE     8     8   ---   --- /
11/06/2008 20:50      22.0  17.0  23.9  21.0  73  1015   ---    NE     6     6   ---   0.9 Broken Clouds/
11/06/2008 21:50      21.0  18.0  23.6  21.0  83  1015   ---     N     3     3   ---   --- /
11/06/2008 22:50      21.0  18.0  23.6  21.0  83  1015   ---     N     2     2   ---   --- /
11/06/2008 23:50      21.0  18.0  23.6  21.0  83  1014   ---     N     3     3   ---   --- /
12/06/2008 00:50      21.0  18.0  23.6  21.0  83  1014   ---     N     3     3   ---   --- /
12/06/2008 01:50      21.0  17.0  23.2  19.9  78  1013   ---   ENE     6     6   ---   --- /
12/06/2008 02:50      21.0  17.0  23.2  21.0  78  1013   ---     N     3     3   ---   --- /
12/06/2008 03:50      20.0  16.0  22.2  20.0  78  1012   ---     N     2     2   ---   --- /
12/06/2008 04:50      20.0  16.0  22.2  17.4  78  1013   ---    SW    10    10   ---   --- /
12/06/2008 05:50      20.0  13.0  21.3  17.8  64  1012   ---    SW     8     8   ---   --- /
12/06/2008 06:50      22.0  11.0  22.4  19.8  50  1012   ---   SSW    10    10   ---   --- /
12/06/2008 07:50      22.0  15.0  23.3  22.0  65  1012   ---     N     3     3   ---   --- /
12/06/2008 08:50      23.0  15.0  24.1  19.8  61  1013   ---   ENE    14    14   ---   --- /
12/06/2008 09:50      23.0  17.0  24.6  19.8  69  1012   ---    NE    14    14   ---   --- /
12/06/2008 10:50      23.0  18.0  24.9  22.1  73  1012   ---     N     6     6   ---   --- /
12/06/2008 11:50      24.0  16.0  25.1  22.5  61  1012   ---   NNE     8     8   ---   --- /
12/06/2008 12:50      24.0  17.0  25.3  21.1  65  1012   ---     N    14    14   ---   --- /
12/06/2008 13:50      24.0  18.0  25.6  22.2  69  1012   ---     N    10    10   ---   --- /
12/06/2008 14:50      23.0  19.0  25.2  21.0  78  1011   ---     N    10    10   ---   --- /
12/06/2008 15:20      23.0  19.0  25.2  19.2  78  1011   ---     W    18    18   ---   --- /
12/06/2008 16:50      22.0  19.0  24.6  15.6  83  1011   ---   WNW    43    43   ---   0.4 Scattered Clouds/
12/06/2008 17:50      21.0  18.0  23.6  14.9  83  1011   ---     W    29    29   ---   0.4 Broken Clouds/
12/06/2008 18:50      21.0  17.0  23.2  15.6  78  1011   ---     W    23    23   ---   0.4 Scattered Clouds/
12/06/2008 19:50      21.0  17.0  23.2  16.5  78  1011   ---   WSW    18    18   ---   0.5 Scattered Clouds/
12/06/2008 20:50      21.0  16.0  22.9  16.1  73  1012   ---   WSW    19    19   ---   0.6 Scattered Clouds/
12/06/2008 21:20      21.0  17.0  23.2  15.0  78  1012   ---     W    27    27   ---   0.6 Scattered Clouds/
12/06/2008 22:50      21.0  17.0  23.2  15.8  78  1012   ---     W    21    21   ---   0.6 Scattered Clouds/
12/06/2008 23:50      21.0  16.0  22.9  18.6  73  1012   ---   WSW    10    10   ---   0.6 Scattered Clouds/
13/06/2008 00:50      21.0  16.0  22.9  16.5  73  1012   ---    SW    18    18   ---   0.6 Scattered Clouds/
13/06/2008 01:50      20.0  14.0  21.5  14.4  68  1012   ---   SSW    21    21   ---   0.6 Scattered Clouds/
13/06/2008 02:50      20.0  15.0  21.8  15.1  73  1011   ---   SSW    18    18   ---   0.6 Scattered Clouds/
13/06/2008 03:50      20.0  15.0  21.8  14.2  73  1011   ---    SW    23    23   ---   0.6 Scattered Clouds/
13/06/2008 04:50      20.0  15.0  21.8  15.1  73  1011   ---    SW    18    18   ---   0.6 Scattered Clouds/
13/06/2008 05:50      21.0  16.0  22.9  15.0  73  1011   ---     W    27    27   ---   0.6 Scattered Clouds/
13/06/2008 06:50      20.0  15.0  21.8  13.8  73  1011   ---   WSW    26    26   ---   0.6 Scattered Clouds/
13/06/2008 07:50      21.0  15.0  22.5  16.5  69  1011   ---    SW    18    18   ---   0.6 Scattered Clouds/
13/06/2008 08:50      21.0  15.0  22.5  16.5  69  1011   ---    SW    18    18   ---   0.6 Scattered Clouds/
13/06/2008 09:50      22.0  15.0  23.3  17.3  65  1011   ---    SW    21    21   ---   0.6 Broken Clouds/
13/06/2008 10:50      21.0  17.0  23.2  15.8  78  1012   ---     W    21    21   ---   0.6 Broken Clouds/
13/06/2008 11:50      21.0  17.0  23.2  15.2  78  1012   ---     W    26    26   ---   0.6 Scattered Clouds/
13/06/2008 12:50      21.0  17.0  23.2  15.2  78  1012   ---     W    26    26   ---   0.5 Few Clouds/
13/06/2008 13:50      21.0  18.0  23.6  15.6  83  1012   ---   WNW    23    23   ---   0.5 Few Clouds/
13/06/2008 14:50      21.0  18.0  23.6  14.9  83  1012   ---   WNW    29    29   ---   0.5 Few Clouds/
13/06/2008 15:50      22.0  18.0  24.2  17.1  78  1012   ---   WNW    23    23   ---   0.5 Few Clouds/
13/06/2008 16:50      22.0  18.0  24.2  16.3  78  1012   ---   WNW    31    31   ---   0.5 Few Clouds/
13/06/2008 17:20      22.0  18.0  24.2  16.4  78  1012   ---   WNW    29    29   ---   0.5 Few Clouds/
13/06/2008 18:50      22.0  18.0  24.2  17.1  78  1013   ---     W    23    23   ---   0.5 Few Clouds/
13/06/2008 19:50      22.0  17.0  23.9  18.9  73  1013   ---     W    13    13   ---   0.5 Few Clouds/
13/06/2008 20:50      22.0  17.0  23.9  22.0  73  1014   ---     S     5     5   ---   --- /
13/06/2008 21:50      21.0  16.0  22.9  19.0  73  1014   ---     S     8     8   ---   --- /
13/06/2008 22:50      21.0  15.0  22.5  18.6  69  1014   ---    SW    10    10   ---   --- /
13/06/2008 23:50      20.0  13.0  21.3  17.4  64  1014   ---     S    10    10   ---   --- /
14/06/2008 00:50      20.0  14.0  21.5  16.4  68  1014   ---    SW    13    13   ---   --- /
14/06/2008 01:20      21.0  13.0  22.0  17.7  60  1014   ---    SW    13    13   ---   --- /
14/06/2008 02:50      21.0  13.0  22.0  17.7  60  1014   ---    SW    13    13   ---   --- /
14/06/2008 03:50      21.0  13.0  22.0  17.7  60  1014   ---     S    13    13   ---   --- /
14/06/2008 04:50      20.0  13.0  21.3  16.4  64  1014   ---     S    13    13   ---   --- /
14/06/2008 05:50      20.0  13.0  21.3  17.4  64  1014   ---     S    10    10   ---   --- /
14/06/2008 06:50      21.0  13.0  22.0  17.2  60  1014   ---     S    14    14   ---   --- /
14/06/2008 07:50      22.0  13.0  22.8  18.5  57  1014   ---   SSW    14    14   ---   --- /
14/06/2008 08:20      21.0  15.0  22.5  16.5  69  1015   ---    SW    18    18   ---   --- /
14/06/2008 09:50      22.0  14.0  23.0  18.5  61  1015   ---   WSW    14    14   ---   --- /
14/06/2008 10:50      22.0  15.0  23.3  17.9  65  1016   ---   WSW    18    18   ---   --- /
14/06/2008 11:50      23.0  15.0  24.1  19.8  61  1016   ---     W    14    14   ---   --- /
14/06/2008 12:50      23.0  16.0  24.3  18.9  65  1016   ---     W    19    19   ---   --- /
14/06/2008 13:50      22.0  15.0  23.3  16.5  65  1015   ---   WNW    27    27   ---   --- /
14/06/2008 14:50      23.0  16.0  24.3  18.7  65  1015   ---     W    21    21   ---   --- /
14/06/2008 15:50      23.0  17.0  24.6  18.5  69  1015   ---     W    23    23   ---   0.8 Few Clouds/
14/06/2008 16:50      23.0  17.0  24.6  18.9  69  1015   ---   WNW    19    19   ---   0.8 Few Clouds/
14/06/2008 17:50      22.0  17.0  23.9  18.5  73  1015   ---     W    14    14   ---   0.8 Few Clouds/
14/06/2008 18:50      22.0  15.0  23.3  17.5  65  1015   ---     W    19    19   ---   --- /
14/06/2008 19:50      22.0  16.0  23.6  17.1  69  1015   ---     W    23    23   ---   --- /
14/06/2008 20:50      22.0  16.0  23.6  17.3  69  1015   ---     W    21    21   ---   1.2 Scattered Clouds/
14/06/2008 21:50      22.0  16.0  23.6  17.3  69  1016   ---   WSW    21    21   ---   1.2 Scattered Clouds/
14/06/2008 22:50      22.0  16.0  23.6  17.9  69  1016   ---   WSW    18    18   ---   1.2 Few Clouds/
14/06/2008 23:50      21.0  16.0  22.9  16.1  73  1015   ---   SSW    19    19   ---   --- /
15/06/2008 00:50      21.0  16.0  22.9  15.8  73  1015   ---    SW    21    21   ---   --- /
15/06/2008 01:50      21.0  14.0  22.3  16.1  64  1015   ---   SSW    19    19   ---   --- /
15/06/2008 02:50      21.0  14.0  22.3  15.8  64  1014   ---   SSW    21    21   ---   --- /
15/06/2008 03:50      20.0  13.0  21.3  14.4  64  1014   ---   SSW    21    21   ---   --- /
15/06/2008 04:50      20.0  14.0  21.5  14.6  68  1014   ---   SSW    19    19   ---   1.0 Few Clouds/
15/06/2008 05:50      20.0  14.0  21.5  15.3  68  1014   ---   SSW    16    16   ---   0.7 Scattered Clouds/
15/06/2008 06:50      20.0  14.0  21.5  15.3  68  1015   ---   SSW    16    16   ---   0.7 Scattered Clouds/
15/06/2008 07:50      21.0  14.0  22.3  17.2  64  1015   ---    SW    14    14   ---   0.7 Scattered Clouds/
15/06/2008 08:50      21.0  14.0  22.3  17.2  64  1015   ---    SW    14    14   ---   0.7 Scattered Clouds/
15/06/2008 09:50      23.0  14.0  23.8  19.8  57  1016   ---    SW    14    14   ---   0.7 Scattered Clouds/
15/06/2008 10:50      22.0  14.0  23.0  17.9  61  1016   ---     W    18    18   ---   0.7 Scattered Clouds/
15/06/2008 11:50      22.0  14.0  23.0  17.5  61  1016   ---   WNW    19    19   ---   0.7 Few Clouds/
15/06/2008 12:20      22.0  14.0  23.0  17.1  61  1016   ---   WNW    23    23   ---   0.7 Few Clouds/
15/06/2008 13:50      22.0  14.0  23.0  18.1  61  1016   ---    NW    16    16   ---   0.7 Few Clouds/
15/06/2008 14:50      22.0  14.0  23.0  18.1  61  1016   ---   WNW    16    16   ---   0.7 Few Clouds/
15/06/2008 15:50      22.0  13.0  22.8  19.8  57  1015   ---   WNW    10    10   ---   0.7 Few Clouds/
15/06/2008 16:50      22.0  12.0  22.6  19.8  53  1015   ---     W    10    10   ---   --- /
15/06/2008 17:50      22.0  14.0  23.0  18.5  61  1015   ---   WNW    14    14   ---   --- /
15/06/2008 18:50      21.0  14.0  22.3  18.6  64  1015   ---     W    10    10   ---   --- /
15/06/2008 19:50      21.0  14.0  22.3  19.0  64  1015   ---   WNW     8     8   ---   --- /
15/06/2008 20:50      21.0  14.0  22.3  19.9  64  1014   ---     N     6     6   ---   --- /
15/06/2008 21:50      21.0  15.0  22.5  19.9  69  1015   ---     N     6     6   ---   --- /
15/06/2008 22:50      19.0  13.0  20.5  16.7  68  1014   ---   ENE     8     8   ---   --- /
15/06/2008 23:50      19.0  13.0  20.5  19.0  68  1014   ---     N     5     5   ---   --- /
16/06/2008 00:50      19.0  12.0  20.2  17.7  64  1013   ---   SSW     6     6   ---   --- /
16/06/2008 01:50      18.0  11.0  19.2  15.0  64  1013   ---   SSW    10    10   ---   --- /
16/06/2008 02:50      18.0  10.0  19.0  18.0  60  1013   ---     N     3     3   ---   --- /
16/06/2008 03:50      20.0  12.0  21.0  20.0  60  1013   ---     N     5     5   ---   --- /
16/06/2008 04:50      20.0  12.0  21.0  14.2  60  1012   ---     E    23    23   ---   --- /
16/06/2008 05:50      19.0  10.0  19.8  17.7  56  1013   ---   SSE     6     6   ---   --- /
16/06/2008 06:50      19.0  11.0  20.0  19.0  60  1013   ---     N     3     3   ---   --- /
16/06/2008 07:50      22.0  15.0  23.3  22.0  65  1013   ---     N     3     3   ---   --- /
16/06/2008 08:50      22.0  15.0  23.3  18.9  65  1013   ---    NE    13    13   ---   --- /
16/06/2008 09:20      22.0  15.0  23.3  18.9  65  1013   ---   NNE    13    13   ---   --- /
16/06/2008 11:50      26.0  17.0  26.9  23.0  58  1011   ---    NE    21    21   ---   --- /
16/06/2008 12:50      31.0  11.0  29.7  31.0  29  1011   ---     N     3     3   ---   --- /
16/06/2008 13:50      34.0  10.0  32.3  34.0  23  1010   ---   SSW    37    37   ---   --- /
16/06/2008 14:50      32.0  13.0  31.0  31.5  32  1010   ---    SW    26    26   ---   --- /
16/06/2008 15:50      27.0  16.0  27.5  24.7  51  1011   ---    NE    18    18   ---   --- /
16/06/2008 16:50      27.0  16.0  27.5  24.9  51  1010   ---    NE    16    16   ---   --- /
16/06/2008 17:50      26.0  17.0  26.9  24.8  58  1011   ---   NNE     8     8   ---   --- /
16/06/2008 18:50      25.0  18.0  26.3  23.4  65  1011   ---   NNE    10    10   ---   --- /
16/06/2008 18:50      25.0  18.0  26.3  23.4  65  1011   ---   NNE    10    10   ---   --- None reported/None reported
16/06/2008 19:50      26.0  16.0  26.7  24.6  54  1011   ---   ENE    10    10   ---   --- /
16/06/2008 20:50      24.0  18.0  25.6  23.2  69  1011   ---    NE     6     6   ---   --- /
16/06/2008 22:50      26.0  15.0  26.5  23.1  51  1012   ---   SSW    19    19   ---   --- /
16/06/2008 23:50      26.0  14.0  26.3  22.9  48  1011   ---    SW    23    23   ---   --- /
17/06/2008 00:50      28.0  11.0  27.3  25.8  35  1011   ---   SSW    23    23   ---   --- /
17/06/2008 01:50      32.0   4.0  29.9  31.4  17  1010   ---     S    40    40   ---   --- /
17/06/2008 02:50      32.0   3.0  29.8  31.5  16  1010   ---     S    34    56   ---   --- /
17/06/2008 03:50      32.0   4.0  29.9  31.4  17  1010   ---     S    42    42   ---   --- /
17/06/2008 04:50      30.0   8.0  28.5  28.4  25  1011   ---   SSW    31    31   ---   --- /
17/06/2008 05:50      26.0  14.0  26.3  22.3  48  1014   ---     W    32    32   ---   0.7 Broken Clouds/
17/06/2008 06:50      25.0  16.0  25.9  25.0  57  1014   ---     N     3     3   ---   0.7 Broken Clouds/
17/06/2008 07:50      27.0  14.0  27.1  26.4  45  1013   ---   NNE     6     6   ---   0.9 Scattered Clouds/
17/06/2008 08:50      30.0   9.0  28.6  28.6  27  1012   ---    SW    26    53   ---   0.9 Scattered Clouds/
17/06/2008 09:50      34.0   6.0  31.8  34.0  18  1012   ---     S    45    69   ---   0.9 Scattered Clouds/
17/06/2008 10:20      35.0   6.0  32.7  35.0  17  1012   ---     S    45    66   ---   0.9 Scattered Clouds/
17/06/2008 11:50      35.0   7.0  32.8  35.0  18  1012   ---     S    42    66   ---   0.9 Scattered Clouds/
17/06/2008 12:50      36.0   6.0  33.7  36.0  16  1011   ---     S    53    77   ---   0.9 Scattered Clouds/
17/06/2008 13:50      36.0   6.0  33.7  36.0  16  1012   ---     S    40    68   ---   0.9 Scattered Clouds/
17/06/2008 14:50      37.0   6.0  34.6  37.0  15  1011   ---   SSW    39    63   ---   0.9 Scattered Clouds/
17/06/2008 15:50      37.0   7.0  34.8  37.0  16  1012   ---   SSW    31    66   ---   0.9 Scattered Clouds/
17/06/2008 16:50      36.0   5.0  33.6  36.0  15  1012   ---   SSW    31    64   ---   0.9 Scattered Clouds/
17/06/2008 17:50      28.0  17.0  28.6  25.9  51  1012   ---    NE    21    21   ---   0.9 Scattered Clouds/
17/06/2008 18:50      29.0  16.0  29.1  27.4  45  1012   ---    NE    19    19   ---   --- /
17/06/2008 19:50      25.0  20.0  26.9  22.8  74  1011   ---   NNE    13    13   ---   --- /
17/06/2008 20:50      24.0  18.0  25.6  24.0  69  1011   ---     N     3     3   ---   --- /
17/06/2008 21:50      27.0  16.0  27.5  26.0  51  1010   ---     N     8     8   ---   --- /
17/06/2008 22:50      35.0   2.0  32.4  35.0  13  1010   ---     S    45    66   ---   --- /
17/06/2008 23:50      35.0   1.0  32.4  35.0  12  1010   ---     S    55    55   ---   --- /
18/06/2008 00:50      35.0  -1.0  32.3  35.0  10  1009   ---     S    51    77   ---   --- /
18/06/2008 01:50      34.0  -2.0  31.5  34.0  10  1010   ---     S    37    60   ---   --- /
18/06/2008 02:50      29.0   4.0  27.5  26.9  20  1010   ---   SSW    32    32   ---   --- /
18/06/2008 03:50      28.0   8.0  27.0  25.1  28  1011   ---    SW    43    43   ---   --- /
18/06/2008 04:50      27.0   9.0  26.5  23.8  32  1013   ---    SW    34    34   ---   --- /
18/06/2008 05:50      28.0   5.0  26.8  25.2  23  1012   ---   SSW    39    39   ---   --- /
18/06/2008 06:50      27.0   8.0  26.4  24.4  30  1012   ---   SSW    21    21   ---   --- /
18/06/2008 07:50      25.0  12.0  25.2  21.4  44  1013   ---    SW    23    23   ---   --- /
18/06/2008 08:50      27.0  11.0  26.7  24.7  37  1014   ---    SW    18    18   ---   --- /
18/06/2008 09:50      22.0  19.0  24.6  16.5  83  1014   ---   WNW    27    27   ---   --- /
18/06/2008 10:50      23.0  19.0  25.2  18.2  78  1014   ---    NW    26    26   ---   --- /
18/06/2008 12:50      24.0  19.0  25.9  23.2  74  1015   ---    NW     6     6   ---   --- /
18/06/2008 13:50      24.0  19.0  25.9  23.2  74  1015   ---    NW     6     6   ---   --- /
18/06/2008 14:50      24.0  19.0  25.9  23.2  74  1015   ---     N     6     6   ---   --- /
18/06/2008 15:50      24.0  19.0  25.9  23.2  74  1015   ---   NNE     6     6   ---   --- /
18/06/2008 16:20      24.0  19.0  25.9  21.1  74  1015   ---   NNE    14    14   ---   --- /
18/06/2008 17:50      23.0  20.0  25.6  20.2  83  1015   ---   NNE    13    13   ---   0.4 Scattered Clouds/
18/06/2008 18:50      23.0  19.0  25.2  19.4  78  1015   ---    NE    16    16   ---   0.4 Scattered Clouds/
18/06/2008 19:50      23.0  19.0  25.2  18.7  78  1015   ---    NE    21    21   ---   0.4 Few Clouds/
18/06/2008 20:50      22.0  19.0  24.6  17.3  83  1015   ---    NE    21    21   ---   0.4 Few Clouds/
18/06/2008 21:50      22.0  17.0  23.9  17.5  73  1015   ---   ENE    19    19   ---   0.4 Few Clouds/
18/06/2008 22:50      23.0  14.0  23.8  18.9  57  1016   ---   ENE    19    19   ---   --- /
18/06/2008 23:50      23.0  16.0  24.3  19.4  65  1016   ---    NE    16    16   ---   --- /
19/06/2008 00:50      22.0  19.0  24.6  18.1  83  1016   ---     N    16    16   ---   --- /
19/06/2008 01:50      22.0  19.0  24.6  18.1  83  1015   ---   NNW    16    16   ---   --- /
19/06/2008 02:50      21.0  19.0  24.0  16.5  88  1015   ---     N    18    18   ---   --- /
19/06/2008 03:50      21.0  19.0  24.0  16.5  88  1015   ---     N    18    18   ---   0.2 Few Clouds/
19/06/2008 04:50      21.0  18.0  23.6  16.7  83  1015   ---   NNE    16    16   ---   0.2 Scattered Clouds/
19/06/2008 05:50      21.0  18.0  23.6  16.1  83  1015   ---   NNE    19    19   ---   0.2 Scattered Clouds/
19/06/2008 06:50      21.0  17.0  23.2  16.1  78  1016   ---   NNE    19    19   ---   0.2 Scattered Clouds/
19/06/2008 07:50      22.0  17.0  23.9  17.5  73  1016   ---    NE    19    19   ---   0.2 Scattered Clouds/
19/06/2008 08:20      22.0  17.0  23.9  17.5  73  1016   ---    NE    19    19   ---   0.6 Few Clouds/
19/06/2008 09:50      23.0  17.0  24.6  18.9  69  1017   ---    NE    19    19   ---   0.6 Few Clouds/
19/06/2008 10:50      23.0  17.0  24.6  19.8  69  1017   ---   NNE    14    14   ---   --- /
19/06/2008 11:50      23.0  18.0  24.9  19.4  73  1017   ---   NNE    16    16   ---   0.6 Few Clouds/
19/06/2008 12:50      23.0  18.0  24.9  19.4  73  1017   ---   NNE    16    16   ---   0.6 Few Clouds/
19/06/2008 13:50      23.0  18.0  24.9  19.8  73  1017   ---     N    14    14   ---   0.6 Few Clouds/
19/06/2008 14:50      23.0  18.0  24.9  19.8  73  1017   ---     N    14    14   ---   0.6 Few Clouds/
19/06/2008 15:50      23.0  18.0  24.9  19.8  73  1017   ---     N    14    14   ---   0.6 Few Clouds/
19/06/2008 16:50      23.0  18.0  24.9  19.8  73  1017   ---     N    14    14   ---   0.6 Few Clouds/
19/06/2008 17:20      23.0  18.0  24.9  20.2  73  1017   ---     N    13    13   ---   0.6 Few Clouds/
19/06/2008 18:50      23.0  18.0  24.9  19.8  73  1017   ---     N    14    14   ---   0.6 Scattered Clouds/
19/06/2008 19:50      22.0  18.0  24.2  18.5  78  1017   ---   NNE    14    14   ---   0.6 Few Clouds/
19/06/2008 20:50      22.0  17.0  23.9  18.1  73  1017   ---   NNE    16    16   ---   0.6 Few Clouds/
19/06/2008 21:50      21.0  18.0  23.6  17.2  83  1017   ---   NNE    14    14   ---   0.6 Few Clouds/
19/06/2008 22:50      21.0  18.0  23.6  17.2  83  1017   ---   NNE    14    14   ---   0.6 Few Clouds/
19/06/2008 23:50      21.0  18.0  23.6  16.5  83  1017   ---   NNE    18    18   ---   0.6 Few Clouds/
20/06/2008 00:50      21.0  18.0  23.6  17.2  83  1017   ---   NNE    14    14   ---   0.6 Few Clouds/
20/06/2008 01:50      21.0  17.0  23.2  17.2  78  1017   ---   NNE    14    14   ---   0.6 Few Clouds/
20/06/2008 02:50      21.0  17.0  23.2  16.1  78  1017   ---    NE    19    19   ---   0.6 Few Clouds/
20/06/2008 03:50      21.0  17.0  23.2  16.1  78  1016   ---    NE    19    19   ---   0.6 Few Clouds/
20/06/2008 04:50      20.0  16.0  22.2  15.9  78  1017   ---    NE    14    14   ---   --- /
20/06/2008 05:50      20.0  16.0  22.2  17.4  78  1017   ---     E    10    10   ---   0.5 Scattered Clouds/
20/06/2008 06:50      21.0  16.0  22.9  17.2  73  1017   ---   ENE    14    14   ---   --- /
20/06/2008 07:50      22.0  17.0  23.9  20.2  73  1018   ---   NNE     8     8   ---   --- /
20/06/2008 08:50      22.0  17.0  23.9  18.9  73  1018   ---     N    13    13   ---   0.4 Scattered Clouds/
20/06/2008 10:50      23.0  18.0  24.9  21.0  73  1018   ---     N    10    10   ---   0.5 Few Clouds/
20/06/2008 11:50      23.0  18.0  24.9  21.0  73  1018   ---     N    10    10   ---   0.5 Few Clouds/
20/06/2008 12:50      23.0  18.0  24.9  19.4  73  1018   ---   NNE    16    16   ---   0.5 Few Clouds/
20/06/2008 13:50      23.0  18.0  24.9  18.7  73  1018   ---   NNE    21    21   ---   0.5 Few Clouds/
20/06/2008 14:50      23.0  19.0  25.2  18.5  78  1017   ---   NNE    23    23   ---   0.5 Few Clouds/
20/06/2008 15:50      23.0  19.0  25.2  18.5  78  1017   ---   NNE    23    23   ---   0.5 Few Clouds/
20/06/2008 16:50      23.0  19.0  25.2  18.5  78  1017   ---   NNE    23    23   ---   0.5 Few Clouds/
20/06/2008 17:50      23.0  19.0  25.2  18.9  78  1017   ---   NNE    19    19   ---   0.5 Few Clouds/
20/06/2008 18:50      23.0  19.0  25.2  19.2  78  1017   ---   NNE    18    18   ---   0.5 Few Clouds/
20/06/2008 19:50      22.0  19.0  24.6  18.1  83  1017   ---   NNE    16    16   ---   --- /
20/06/2008 20:50      22.0  19.0  24.6  17.9  83  1017   ---   NNE    18    18   ---   --- /
20/06/2008 21:50      22.0  19.0  24.6  17.9  83  1017   ---    NE    18    18   ---   --- /
20/06/2008 22:50      22.0  19.0  24.6  18.1  83  1017   ---    NE    16    16   ---   --- /
20/06/2008 23:50      22.0  19.0  24.6  18.5  83  1018   ---    NE    14    14   ---   --- /
21/06/2008 00:50      22.0  19.0  24.6  18.1  83  1018   ---    NE    16    16   ---   --- /
21/06/2008 01:50      21.0  18.0  23.6  21.0  83  1017   ---     N     5     5   ---   --- /
21/06/2008 02:50      21.0  19.0  24.0  21.0  88  1017   ---     N     3     3   ---   0.2 Few Clouds/
21/06/2008 03:50      20.0  18.0  23.0  20.0  88  1017   ---     N     3     3   ---   0.4 Scattered Clouds/
21/06/2008 04:50      22.0  19.0  24.6  22.0  83  1017   ---     N     5     5   ---   0.4 Scattered Clouds/
21/06/2008 05:50      21.0  19.0  24.0  17.7  88  1017   ---    NE    13    13   ---   0.4 Few Clouds/
21/06/2008 06:50      21.0  19.0  24.0  19.9  88  1017   ---   ENE     6     6   ---   0.2 Few Clouds/
21/06/2008 07:50      22.0  19.0  24.6  19.8  83  1018   ---   NNE    10    10   ---   0.2 Few Clouds/
21/06/2008 08:50      22.0  19.0  24.6  18.9  83  1018   ---   NNE    13    13   ---   0.2 Few Clouds/
21/06/2008 09:20      22.0  19.0  24.6  17.9  83  1018   ---    NE    18    18   ---   0.2 Few Clouds/
21/06/2008 09:50      23.0  19.0  25.2  18.9  78  1018   ---    NE    19    19   ---   0.3 Few Clouds/
21/06/2008 10:20      23.0  19.0  25.2  18.7  78  1018   ---    NE    21    21   ---   --- /
21/06/2008 12:20      24.0  20.0  26.2  19.7  78  1018   ---    NE    26    26   ---   --- /
21/06/2008 13:20      24.0  20.0  26.2  19.5  78  1018   ---    NE    27    27   ---   --- /
21/06/2008 14:50      24.0  20.0  26.2  19.5  78  1018   ---    NE    27    27   ---   --- /
21/06/2008 15:50      24.0  20.0  26.2  20.0  78  1018   ---   NNE    23    23   ---   --- /
21/06/2008 16:50      24.0  20.0  26.2  20.0  78  1018   ---   NNE    23    23   ---   --- /
21/06/2008 17:50      25.0  20.0  26.9  21.0  74  1018   ---    NE    29    29   ---   --- /
21/06/2008 18:50      25.0  20.0  26.9  20.7  74  1017   ---   ENE    34    34   ---   --- /
21/06/2008 19:50      24.0  20.0  26.2  19.3  78  1017   ---    NE    31    31   ---   --- /
21/06/2008 20:50      24.0  20.0  26.2  20.1  78  1018   ---    NE    21    21   ---   --- /
21/06/2008 21:50      24.0  20.0  26.2  20.6  78  1018   ---    NE    18    18   ---   --- /
21/06/2008 22:50      23.0  19.0  25.2  21.3  78  1019   ---     W     8     8   ---   --- /
21/06/2008 23:50      23.0  20.0  25.6  21.3  83  1019   ---     W     8     8   ---   --- /
22/06/2008 00:50      22.0  19.0  24.6  22.0  83  1019   ---     N     5     5   ---   --- /
22/06/2008 01:50      21.0  18.0  23.6  21.0  83  1019   ---     N     0     0   ---   --- /
22/06/2008 02:50      21.0  18.0  23.6  21.0  83  1019   ---   ---     5     5   ---   --- /
22/06/2008 03:50      20.0  17.0  22.6  20.0  83  1018   ---     N     3     3   ---   --- /
22/06/2008 04:50      20.0  16.0  22.2  20.0  78  1018   ---     N     3     3   ---   --- /
22/06/2008 05:20      20.0  16.0  22.2  20.0  78  1018   ---     N     3     3   ---   --- /
22/06/2008 06:50      21.0  16.0  22.9  19.9  73  1018   ---   WSW     6     6   ---   --- /
22/06/2008 07:50      23.0  18.0  24.9  23.0  73  1019   ---     N     2     2   ---   --- /
22/06/2008 08:50      23.0  19.0  25.2  23.0  78  1019   ---     N     5     5   ---   --- /
22/06/2008 09:50      23.0  19.0  25.2  23.0  78  1020   ---     N     5     5   ---   --- /
22/06/2008 11:50      25.0  20.0  26.9  21.2  74  1020   ---    NE    26    26   ---   --- /
22/06/2008 12:50      28.0  19.0  29.3  25.9  58  1020   ---    NE    21    21   ---   --- /
22/06/2008 13:50      28.0  20.0  29.7  25.8  62  1019   ---    NE    23    23   ---   --- /
22/06/2008 14:50      27.0  21.0  28.8  24.5  70  1019   ---    NE    19    19   ---   --- /
22/06/2008 15:20      29.0  19.0  30.3  27.4  55  1019   ---   ENE    19    19   ---   --- /
22/06/2008 16:50      25.0  21.0  27.2  21.4  79  1019   ---    NE    23    23   ---   --- /
22/06/2008 17:50      26.0  21.0  27.9  23.0  74  1019   ---   NNE    21    21   ---   --- /
22/06/2008 18:50      26.0  20.0  27.6  23.0  70  1019   ---    NE    21    21   ---   --- /
22/06/2008 19:50      25.0  18.0  26.3  22.0  65  1019   ---    NE    18    18   ---   --- /
22/06/2008 20:50      24.0  21.0  26.6  21.1  83  1019   ---    NE    14    14   ---   --- /
22/06/2008 21:50      24.0  21.0  26.6  24.0  83  1020   ---     N     5     5   ---   --- /
22/06/2008 22:50      23.0  21.0  26.0  22.1  89  1020   ---     W     6     6   ---   --- /
22/06/2008 23:50      22.0  20.0  25.0  22.0  88  1020   ---     N     3     3   ---   --- /
23/06/2008 00:50      22.0  20.0  25.0  21.0  88  1020   ---   SSW     6     6   ---   --- /
23/06/2008 01:50      21.0  19.0  24.0  21.0  88  1019   ---     N     5     5   ---   --- /
23/06/2008 02:50      22.0  19.0  24.6  22.0  83  1019   ---     N     5     5   ---   --- /
23/06/2008 03:50      22.0  19.0  24.6  22.0  83  1019   ---     N     5     5   ---   --- /
23/06/2008 04:50      21.0  17.0  23.2  21.0  78  1018   ---     N     2     2   ---   --- /
23/06/2008 05:50      22.0  17.0  23.9  22.0  73  1019   ---     N     3     3   ---   --- /
23/06/2008 06:50      21.0  17.0  23.2  18.6  78  1019   ---     S    10    10   ---   --- /
23/06/2008 07:50      23.0  17.0  24.6  21.0  69  1019   ---    SW    10    10   ---   --- /
23/06/2008 08:50      24.0  18.0  25.6  23.2  69  1020   ---   WSW     6     6   ---   --- /
23/06/2008 09:50      24.0  18.0  25.6  22.5  69  1020   ---     W     8     8   ---   --- /
23/06/2008 10:50      24.0  19.0  25.9  23.2  74  1020   ---     W     6     6   ---   --- /
23/06/2008 11:50      25.0  19.0  26.6  23.7  69  1020   ---   WNW     8     8   ---   --- /
23/06/2008 12:20      25.0  19.0  26.6  23.7  69  1020   ---    NW     8     8   ---   --- /
23/06/2008 13:50      25.0  21.0  27.2  22.8  79  1019   ---    NW    13    13   ---   --- /
23/06/2008 14:50      26.0  22.0  28.3  23.8  79  1019   ---     N    14    14   ---   --- /
23/06/2008 15:50      26.0  22.0  28.3  23.5  79  1019   ---   NNE    16    16   ---   --- /
23/06/2008 16:20      26.0  21.0  27.9  23.4  74  1019   ---     N    18    18   ---   --- /
23/06/2008 17:20      26.0  21.0  27.9  23.4  74  1018   ---   NNE    18    18   ---   --- /
23/06/2008 18:50      26.0  22.0  28.3  22.6  79  1018   ---    NE    26    26   ---   --- /
23/06/2008 19:50      25.0  22.0  27.6  21.7  83  1018   ---    NE    19    19   ---   --- /
23/06/2008 20:50      25.0  21.0  27.2  22.0  79  1018   ---   ENE    18    18   ---   --- /
23/06/2008 21:50      24.0  22.0  27.0  22.2  89  1018   ---     W    10    10   ---   --- /
23/06/2008 22:50      24.0  21.0  26.6  22.2  83  1018   ---    SW    10    10   ---   --- /
23/06/2008 23:50      24.0  21.0  26.6  21.5  83  1018   ---    SW    13    13   ---   --- /
24/06/2008 00:50      23.0  21.0  26.0  22.1  89  1018   ---    SW     6     6   ---   --- /
24/06/2008 01:50      23.0  20.0  25.6  23.0  83  1018   ---     N     2     2   ---   --- /
24/06/2008 02:50      22.0  20.0  25.0  21.0  88  1017   ---    NE     6     6   ---   --- /
24/06/2008 03:50      22.0  19.0  24.6  22.0  83  1017   ---     N     3     3   ---   --- /
24/06/2008 04:50      22.0  18.0  24.2  22.0  78  1017   ---     N     3     3   ---   --- /
24/06/2008 05:20      22.0  18.0  24.2  22.0  78  1017   ---     N     5     5   ---   --- /
24/06/2008 06:50      21.0  19.0  24.0  19.9  88  1017   ---     S     6     6   ---   --- /
24/06/2008 07:50      24.0  21.0  26.6  24.0  83  1018   ---     N     5     5   ---   --- /
24/06/2008 08:50      23.0  19.0  25.2  22.1  78  1018   ---   WSW     6     6   ---   --- /
24/06/2008 09:20      24.0  19.0  25.9  22.5  74  1018   ---     W     8     8   ---   --- /
24/06/2008 10:50      25.0  20.0  26.9  25.0  74  1018   ---     N     5     5   ---   --- /
24/06/2008 11:50      27.0  21.0  28.8  24.5  70  1017   ---    NE    19    19   ---   --- /
24/06/2008 12:50      29.0  18.0  29.9  27.0  52  1017   ---   ENE    27    27   ---   --- /
24/06/2008 13:20      30.0  17.0  30.4  28.5  46  1016   ---   ENE    29    29   ---   --- /
24/06/2008 14:50      29.0  18.0  29.9  26.9  52  1016   ---   ENE    31    31   ---   --- /
24/06/2008 15:50      29.0  18.0  29.9  26.8  52  1016   ---   ENE    34    34   ---   --- /
24/06/2008 16:50      30.0  17.0  30.4  28.5  46  1015   ---   ENE    29    29   ---   --- /
24/06/2008 17:50      29.0  19.0  30.3  27.0  55  1015   ---   ENE    29    29   ---   --- /
24/06/2008 18:50      26.0  21.0  27.9  22.5  74  1015   ---    NE    29    29   ---   --- /
24/06/2008 19:50      26.0  21.0  27.9  22.9  74  1016   ---   ENE    23    23   ---   --- /
24/06/2008 20:50      25.0  21.0  27.2  22.0  79  1016   ---   ENE    18    18   ---   --- /
24/06/2008 21:50      25.0  19.0  26.6  22.5  69  1016   ---     E    14    14   ---   --- /
24/06/2008 22:20      25.0  21.0  27.2  23.4  79  1016   ---   WSW    10    10   ---   --- /
24/06/2008 23:50      24.0  21.0  26.6  22.5  83  1016   ---   SSW     8     8   ---   --- /
25/06/2008 00:50      24.0  21.0  26.6  24.0  83  1016   ---     N     5     5   ---   --- /
25/06/2008 01:50      23.0  21.0  26.0  23.0  89  1016   ---     N     5     5   ---   --- /
25/06/2008 02:50      23.0  21.0  26.0  23.0  89  1016   ---     N     5     5   ---   --- /
25/06/2008 03:50      22.0  19.0  24.6  22.0  83  1015   ---     N     3     3   ---   --- /
25/06/2008 04:50      22.0  20.0  25.0  22.0  88  1015   ---     N     2     2   ---   --- /
25/06/2008 05:50      21.0  19.0  24.0  21.0  88  1015   ---     N     5     5   ---   --- /
25/06/2008 06:50      22.0  19.0  24.6  22.0  83  1016   ---     N     5     5   ---   --- /
25/06/2008 07:50      23.0  20.0  25.6  23.0  83  1016   ---     N     5     5   ---   --- /
25/06/2008 08:20      23.0  20.0  25.6  23.0  83  1016   ---     N     5     5   ---   --- /
25/06/2008 09:50      25.0  21.0  27.2  25.0  79  1016   ---   NNW     5     5   ---   --- /
25/06/2008 10:20      25.0  21.0  27.2  25.0  79  1016   ---   NNW     5     5   ---   --- /
25/06/2008 11:20      26.0  21.0  27.9  26.0  74  1016   ---     N     5     5   ---   --- /
25/06/2008 12:50      29.0  18.0  29.9  27.4  52  1015   ---    NE    19    19   ---   --- /
25/06/2008 13:50      30.0  16.0  30.0  28.4  43  1015   ---   ENE    31    31   ---   --- /
25/06/2008 14:50      29.0  21.0  31.4  26.9  62  1015   ---    NE    32    32   ---   --- /
25/06/2008 15:50      29.0  22.0  32.0  26.7  66  1015   ---   ENE    39    39   ---   --- /
25/06/2008 16:50      29.0  22.0  32.0  26.8  66  1015   ---   ENE    34    34   ---   --- /
25/06/2008 17:50      28.0  22.0  30.7  25.2  70  1014   ---   ENE    37    37   ---   --- /
25/06/2008 18:50      28.0  21.0  30.1  25.4  66  1015   ---   ENE    31    31   ---   --- /
25/06/2008 19:50      28.0  20.0  29.7  25.6  62  1015   ---   ENE    26    26   ---   --- /
25/06/2008 20:50      27.0  17.0  27.7  24.4  54  1015   ---   ENE    21    21   ---   --- /
25/06/2008 21:50      26.0  20.0  27.6  25.4  70  1015   ---     W     6     6   ---   --- /
25/06/2008 22:50      25.0  20.0  26.9  24.3  74  1015   ---   WSW     6     6   ---   --- /
25/06/2008 23:50      25.0  19.0  26.6  25.0  69  1015   ---     S     3     3   ---   --- /
26/06/2008 00:50      24.0  19.0  25.9  24.0  74  1015   ---     S     5     5   ---   --- /
26/06/2008 01:50      24.0  19.0  25.9  24.0  74  1015   ---   NNE     5     5   ---   --- /
26/06/2008 02:50      23.0  19.0  25.2  23.0  78  1015   ---     N     0     0   ---   --- /
26/06/2008 03:50      23.0  19.0  25.2  23.0  78  1014   ---   ---     0     0   ---   --- /
26/06/2008 04:50      23.0  17.0  24.6  23.0  69  1014   ---   ---     0     0   ---   --- /
26/06/2008 05:50      22.0  18.0  24.2  22.0  78  1015   ---   ENE     5     5   ---   --- /
26/06/2008 06:50      23.0  17.0  24.6  23.0  69  1015   ---    SE     5     5   ---   --- /
26/06/2008 07:50      25.0  20.0  26.9  25.0  74  1015   ---     N     3     3   ---   --- /
26/06/2008 08:50      25.0  20.0  26.9  25.0  74  1016   ---     N     3     3   ---   --- /
26/06/2008 09:50      26.0  21.0  27.9  24.1  74  1016   ---   NNE    13    13   ---   --- /
26/06/2008 11:50      27.0  21.0  28.8  24.0  70  1016   ---    NE    27    27   ---   --- /
26/06/2008 12:50      28.0  20.0  29.7  25.5  62  1016   ---    NE    27    27   ---   --- /
26/06/2008 13:50      27.0  22.0  29.2  24.0  74  1016   ---   NNE    27    27   ---   --- /
26/06/2008 14:20      27.0  23.0  29.6  24.0  79  1016   ---    NE    27    27   ---   --- /
26/06/2008 15:50      28.0  19.0  29.3  25.4  58  1015   ---    NE    31    31   ---   --- /
26/06/2008 16:50      27.0  21.0  28.8  24.0  70  1015   ---    NE    29    29   ---   --- /
26/06/2008 17:50      28.0  20.0  29.7  25.5  62  1015   ---    NE    27    27   ---   --- /
26/06/2008 18:50      27.0  21.0  28.8  24.1  70  1015   ---    NE    26    26   ---   --- /
26/06/2008 19:50      25.0  22.0  27.6  22.0  83  1015   ---    NE    18    18   ---   --- /
26/06/2008 20:50      26.0  21.0  27.9  23.4  74  1015   ---    NE    18    18   ---   --- /
26/06/2008 21:50      25.0  21.0  27.2  22.1  79  1015   ---    NE    16    16   ---   --- /
26/06/2008 22:50      25.0  20.0  26.9  25.0  74  1016   ---     N     5     5   ---   --- /
27/06/2008 00:50      23.0  20.0  25.6  23.0  83  1015   ---     N     3     3   ---   --- /
27/06/2008 01:50      23.0  21.0  26.0  23.0  89  1015   ---     N     3     3   ---   --- /
27/06/2008 02:50      23.0  21.0  26.0  23.0  89  1015   ---     N     2     2   ---   --- /
27/06/2008 03:50      23.0  21.0  26.0  23.0  89  1014   ---     N     5     5   ---   --- /
27/06/2008 04:50      22.0  20.0  25.0  22.0  88  1015   ---     N     5     5   ---   --- /
27/06/2008 05:50      22.0  20.0  25.0  20.2  88  1014   ---   SSE     8     8   ---   --- Clear/
27/06/2008 06:50      23.0  20.0  25.6  23.0  83  1015   ---     N     5     5   ---   0.6 Few Clouds/
27/06/2008 07:50      25.0  22.0  27.6  25.0  83  1015   ---     N     5     5   ---   0.6 Few Clouds/
27/06/2008 08:50      25.0  22.0  27.6  23.7  83  1015   ---     N     8     8   ---   0.5 Few Clouds/
27/06/2008 09:50      25.0  22.0  27.6  22.8  83  1015   ---     N    13    13   ---   0.5 Few Clouds/
27/06/2008 11:50      26.0  22.0  28.3  23.4  79  1016   ---     N    18    18   ---   0.3 Few Clouds/
27/06/2008 12:50      26.0  22.0  28.3  23.1  79  1015   ---     N    19    19   ---   0.3 Few Clouds/
27/06/2008 13:20      26.0  22.0  28.3  22.9  79  1015   ---     N    23    23   ---   0.3 Few Clouds/
27/06/2008 14:50      26.0  22.0  28.3  23.1  79  1015   ---     N    19    19   ---   0.3 Scattered Clouds/
27/06/2008 15:50      26.0  22.0  28.3  23.1  79  1015   ---     N    19    19   ---   0.3 Scattered Clouds/
27/06/2008 16:50      26.0  22.0  28.3  23.1  79  1014   ---     N    19    19   ---   0.3 Scattered Clouds/
27/06/2008 17:50      26.0  22.0  28.3  23.0  79  1014   ---   NNE    21    21   ---   0.3 Few Clouds/
27/06/2008 18:50      26.0  22.0  28.3  22.6  79  1014   ---   NNE    26    26   ---   --- /
27/06/2008 19:50      25.0  22.0  27.6  21.4  83  1014   ---   NNE    23    23   ---   --- /
27/06/2008 20:20      25.0  21.0  27.2  21.6  79  1014   ---    NE    21    21   ---   --- /
27/06/2008 21:20      25.0  21.0  27.2  22.5  79  1014   ---    NE    14    14   ---   --- /
27/06/2008 22:50      24.0  21.0  26.6  20.6  83  1014   ---   NNE    18    18   ---   --- /
27/06/2008 23:50      24.0  21.0  26.6  21.5  83  1015   ---    NE    13    13   ---   --- /
28/06/2008 00:50      24.0  20.0  26.2  20.8  78  1015   ---   ENE    16    16   ---   --- /
28/06/2008 01:50      24.0  21.0  26.6  22.5  83  1014   ---   ENE     8     8   ---   --- /
28/06/2008 02:50      24.0  20.0  26.2  21.5  78  1014   ---   ENE    13    13   ---   --- /
28/06/2008 03:50      24.0  21.0  26.6  21.1  83  1014   ---   ENE    14    14   ---   --- /
28/06/2008 04:50      24.0  19.0  25.9  20.6  74  1014   ---   ENE    18    18   ---   --- /
28/06/2008 05:50      23.0  19.0  25.2  22.1  78  1014   ---     N     6     6   ---   --- /
28/06/2008 06:50      22.0  19.0  24.6  22.0  83  1014   ---     N     3     3   ---   --- /
28/06/2008 07:50      24.0  20.0  26.2  24.0  78  1014   ---     N     5     5   ---   --- /
28/06/2008 08:50      24.0  21.0  26.6  24.0  83  1015   ---     N     5     5   ---   --- /
28/06/2008 09:50      26.0  19.0  27.3  23.1  65  1015   ---   ENE    19    19   ---   --- /
28/06/2008 10:50      26.0  22.0  28.3  22.9  79  1015   ---    NE    23    23   ---   --- /
28/06/2008 11:50      27.0  22.0  29.2  23.9  74  1015   ---    NE    31    31   ---   --- /
28/06/2008 12:50      28.0  22.0  30.7  25.3  70  1015   ---    NE    34    34   ---   --- /
28/06/2008 13:50      28.0  22.0  30.7  25.5  70  1015   ---    NE    27    27   ---   --- /
28/06/2008 14:50      26.0  22.0  28.3  22.4  79  1015   ---    NE    31    31   ---   --- /
28/06/2008 15:50      27.0  22.0  29.2  23.9  74  1015   ---    NE    31    31   ---   0.7 Few Clouds/
28/06/2008 16:50      28.0  22.0  30.7  25.2  70  1015   ---    NE    37    37   ---   1.5 Few Clouds/
28/06/2008 17:50      28.0  22.0  30.7  25.9  70  1015   ---    NE    19    19   ---   1.5 Scattered Clouds/
28/06/2008 18:50      28.0  22.0  30.7  26.1  70  1015   ---   ENE    18    18   ---   --- /
28/06/2008 19:50      27.0  22.0  29.2  24.9  74  1015   ---   ENE    16    16   ---   --- /
28/06/2008 20:50      26.0  22.0  28.3  23.4  79  1016   ---    NE    18    18   ---   --- /
28/06/2008 21:50      25.0  22.0  27.6  22.0  83  1016   ---   ENE    18    18   ---   --- /
28/06/2008 22:50      25.0  22.0  27.6  25.0  83  1016   ---     N     2     2   ---   --- /
28/06/2008 23:50      24.0  20.0  26.2  24.0  78  1016   ---     N     5     5   ---   --- /
29/06/2008 00:50      24.0  22.0  27.0  24.0  89  1016   ---     N     3     3   ---   --- /
29/06/2008 01:50      24.0  22.0  27.0  24.0  89  1016   ---     N     3     3   ---   --- /
29/06/2008 02:50      24.0  21.0  26.6  24.0  83  1016   ---     N     5     5   ---   --- /
29/06/2008 03:50      24.0  21.0  26.6  24.0  83  1016   ---     N     5     5   ---   --- /
29/06/2008 04:50      23.0  21.0  26.0  23.0  89  1016   ---     N     2     2   ---   --- /
29/06/2008 05:50      22.0  19.0  24.6  21.0  83  1016   ---     S     6     6   ---   --- /
29/06/2008 06:50      23.0  20.0  25.6  23.0  83  1017   ---     N     2     2   ---   --- /
29/06/2008 07:50      25.0  22.0  27.6  25.0  83  1017   ---     N     3     3   ---   --- /
29/06/2008 08:50      25.0  21.0  27.2  24.3  79  1017   ---   NNE     6     6   ---   --- /
29/06/2008 09:50      26.0  22.0  28.3  23.8  79  1017   ---   NNE    14    14   ---   --- Clear/
29/06/2008 10:50      26.0  23.0  28.6  23.1  84  1017   ---   NNE    19    19   ---   --- Clear/
29/06/2008 11:50      26.0  23.0  28.6  22.6  84  1017   ---    NE    26    26   ---   --- Clear/
29/06/2008 12:20      28.0  23.0  31.3  25.6  74  1017   ---    NE    26    26   ---   --- /
29/06/2008 13:50      28.0  23.0  31.3  25.5  74  1017   ---    NE    27    27   ---   --- /
29/06/2008 13:50      28.0  23.0  31.3  25.5  74  1017   ---    NE    27    27   ---   --- None reported/None reported
29/06/2008 14:50      28.0  23.0  31.3  25.5  74  1016   ---    NE    29    29   ---   0.7 Few Clouds/
29/06/2008 15:50      29.0  22.0  32.0  27.0  66  1017   ---    NE    29    29   ---   0.7 Few Clouds/
29/06/2008 16:50      29.0  22.0  32.0  26.9  66  1016   ---    NE    31    31   ---   0.7 Few Clouds/
29/06/2008 17:50      27.0  22.0  29.2  24.0  74  1016   ---    NE    27    27   ---   --- /
29/06/2008 18:50      27.0  21.0  28.8  24.3  70  1016   ---    NE    23    23   ---   --- /
29/06/2008 19:50      26.0  22.0  28.3  26.0  79  1016   ---     N     2     2   ---   --- /
29/06/2008 20:50      26.0  21.0  27.9  25.4  74  1017   ---   NNE     6     6   ---   --- /
29/06/2008 21:50      25.0  22.0  27.6  24.3  83  1017   ---     N     6     6   ---   --- /
29/06/2008 22:50      26.0  22.0  28.3  24.1  79  1017   ---   ENE    13    13   ---   --- /
29/06/2008 23:50      25.0  22.0  27.6  25.0  83  1017   ---     N     5     5   ---   --- /
30/06/2008 00:50      25.0  22.0  27.6  22.8  83  1017   ---    SW    13    13   ---   --- /
30/06/2008 01:50      25.0  22.0  27.6  22.8  83  1017   ---     W    13    13   ---   --- /
30/06/2008 02:50      24.0  21.0  26.6  24.0  83  1016   ---     N     2     2   ---   --- /
30/06/2008 03:50      24.0  21.0  26.6  24.0  83  1016   ---     N     2     2   ---   --- /
30/06/2008 04:50      24.0  21.0  26.6  24.0  83  1016   ---     N     3     3   ---   --- /
30/06/2008 06:50      24.0  20.0  26.2  24.0  78  1017   ---     N     0     0   ---   --- /
30/06/2008 07:50      25.0  21.0  27.2  25.0  79  1017   ---   ---     3     3   ---   --- /
30/06/2008 08:50      25.0  21.0  27.2  24.3  79  1017   ---   WSW     6     6   ---   --- /
30/06/2008 09:50      26.0  20.0  27.6  26.0  70  1017   ---     N     5     5   ---   --- /
30/06/2008 10:50      26.0  22.0  28.3  23.8  79  1017   ---   NNE    14    14   ---   --- /
30/06/2008 11:50      27.0  23.0  29.6  24.5  79  1017   ---   NNE    19    19   ---   --- /
30/06/2008 12:50      27.0  22.0  29.2  25.1  74  1017   ---   NNE    14    14   ---   --- /
30/06/2008 13:50      27.0  23.0  29.6  24.5  79  1017   ---   NNE    19    19   ---   --- /
30/06/2008 14:50      28.0  22.0  30.7  25.5  70  1016   ---    NE    29    29   ---   0.7 Few Clouds/
30/06/2008 15:50      28.0  23.0  31.3  25.5  74  1016   ---    NE    29    29   ---   0.7 Few Clouds/
30/06/2008 16:50      27.0  23.0  29.6  25.8  79  1017   ---     N    10    10   ---   0.7 Few Clouds/
30/06/2008 17:50      27.0  23.0  29.6  24.9  79  1016   ---   NNE    16    16   ---   --- /
30/06/2008 18:50      28.0  22.0  30.7  25.4  70  1016   ---    NE    31    31   ---   --- /
30/06/2008 19:50      28.0  22.0  30.7  25.5  70  1016   ---   ENE    27    27   ---   --- /
30/06/2008 20:50      27.0  22.0  29.2  24.4  74  1016   ---   ENE    21    21   ---   --- /
30/06/2008 21:50      26.0  22.0  28.3  23.5  79  1016   ---   ENE    16    16   ---   --- /
30/06/2008 22:50      26.0  22.0  28.3  24.1  79  1017   ---     E    13    13   ---   --- /
30/06/2008 23:50      25.0  22.0  27.6  24.3  83  1016   ---   WSW     6     6   ---   --- /
01/07/2008 00:50      25.0  22.0  27.6  25.0  83  1016   ---    SW     2     2   ---   --- /
01/07/2008 01:50      24.0  21.0  26.6  24.0  83  1016   ---   SSE     5     5   ---   --- /
01/07/2008 02:50      24.0  20.0  26.2  24.0  78  1015   ---   SSW     5     5   ---   --- /
01/07/2008 03:50      24.0  20.0  26.2  24.0  78  1015   ---     N     5     5   ---   --- /
01/07/2008 04:50      24.0  21.0  26.6  22.2  83  1015   ---   SSW    10    10   ---   --- /
01/07/2008 05:50      24.0  21.0  26.6  24.0  83  1015   ---     N     5     5   ---   --- /
01/07/2008 06:50      24.0  20.0  26.2  24.0  78  1015   ---     N     3     3   ---   --- /
01/07/2008 07:50      25.0  22.0  27.6  22.1  83  1015   ---    NE    16    16   ---   --- /
01/07/2008 08:50      26.0  22.0  28.3  23.1  79  1016   ---    NE    19    19   ---   --- /
01/07/2008 09:50      26.0  22.0  28.3  23.0  79  1015   ---    NE    21    21   ---   --- /
01/07/2008 11:50      27.0  23.0  29.6  24.1  79  1015   ---    NE    26    26   ---   --- /
01/07/2008 12:50      27.0  23.0  29.6  24.0  79  1016   ---    NE    27    27   ---   --- /
01/07/2008 13:50      28.0  23.0  31.3  25.5  74  1015   ---    NE    29    29   ---   0.5 Few Clouds/
01/07/2008 14:50      27.0  23.0  29.6  23.9  79  1014   ---    NE    31    31   ---   --- /
01/07/2008 15:50      27.0  23.0  29.6  24.0  79  1014   ---   NNE    27    27   ---   --- /
01/07/2008 16:50      28.0  23.0  31.3  25.4  74  1014   ---    NE    31    31   ---   0.7 Few Clouds/
01/07/2008 17:50      28.0  22.0  30.7  25.4  70  1014   ---    NE    31    31   ---   --- /
01/07/2008 18:50      27.0  23.0  29.6  24.1  79  1013   ---    NE    26    26   ---   --- /
01/07/2008 19:50      27.0  22.0  29.2  24.1  74  1014   ---    NE    26    26   ---   --- /
01/07/2008 20:50      27.0  21.0  28.8  24.4  70  1014   ---   ENE    21    21   ---   --- /
01/07/2008 21:50      26.0  22.0  28.3  22.9  79  1015   ---   ENE    23    23   ---   --- /
01/07/2008 22:50      27.0  21.0  28.8  24.3  70  1015   ---   ENE    23    23   ---   --- /
01/07/2008 23:50      27.0  21.0  28.8  27.0  70  1015   ---     N     5     5   ---   --- /
02/07/2008 00:50      25.0  21.0  27.2  25.0  79  1014   ---     N     5     5   ---   --- /
02/07/2008 01:50      25.0  21.0  27.2  22.5  79  1014   ---    SW    14    14   ---   --- /
02/07/2008 02:50      24.0  19.0  25.9  24.0  74  1013   ---     N     5     5   ---   --- /
02/07/2008 03:50      24.0  20.0  26.2  23.2  78  1014   ---     N     6     6   ---   --- /
02/07/2008 04:50      23.0  19.0  25.2  21.0  78  1013   ---   ENE    10    10   ---   --- /
02/07/2008 05:50      23.0  17.0  24.6  21.3  69  1013   ---    SE     8     8   ---   --- /
02/07/2008 06:20      23.0  18.0  24.9  23.0  73  1014   ---     N     3     3   ---   --- /
02/07/2008 07:50      24.0  19.0  25.9  22.2  74  1014   ---   WSW    10    10   ---   --- /
02/07/2008 08:50      25.0  20.0  26.9  24.3  74  1015   ---     W     6     6   ---   --- /
02/07/2008 09:50      26.0  22.0  28.3  24.8  79  1015   ---   NNW     8     8   ---   --- /
02/07/2008 10:50      27.0  22.0  29.2  25.8  74  1015   ---     N    10    10   ---   --- /
02/07/2008 11:50      27.0  23.0  29.6  24.7  79  1015   ---   NNE    18    18   ---   --- /
02/07/2008 12:50      27.0  23.0  29.6  24.5  79  1014   ---   NNE    19    19   ---   --- /
02/07/2008 13:50      28.0  23.0  31.3  25.5  74  1014   ---   NNE    27    27   ---   --- /
02/07/2008 14:50      28.0  23.0  31.3  25.8  74  1014   ---    NE    23    23   ---   --- /
02/07/2008 15:50      28.0  23.0  31.3  25.5  74  1013   ---    NE    29    29   ---   --- /
02/07/2008 16:20      28.0  22.0  30.7  25.5  70  1013   ---    NE    29    29   ---   --- /
02/07/2008 17:50      28.0  23.0  31.3  25.5  74  1013   ---    NE    29    29   ---   0.7 Few Clouds/
02/07/2008 18:50      28.0  22.0  30.7  25.4  70  1013   ---    NE    31    31   ---   0.7 Few Clouds/
02/07/2008 19:50      27.0  22.0  29.2  24.3  74  1013   ---   ENE    23    23   ---   --- /
02/07/2008 20:50      27.0  21.0  28.8  24.9  70  1013   ---   ENE    16    16   ---   --- /
02/07/2008 21:50      27.0  21.0  28.8  26.4  70  1014   ---     E     6     6   ---   --- /
02/07/2008 22:50      26.0  22.0  28.3  24.8  79  1014   ---   WSW     8     8   ---   --- /
02/07/2008 23:50      25.0  21.0  27.2  24.3  79  1014   ---   SSW     6     6   ---   --- /
03/07/2008 00:50      25.0  21.0  27.2  25.0  79  1014   ---     N     3     3   ---   --- /
03/07/2008 01:50      25.0  21.0  27.2  24.3  79  1014   ---   SSW     6     6   ---   --- /
03/07/2008 02:50      25.0  21.0  27.2  23.7  79  1013   ---   NNE     8     8   ---   --- /
03/07/2008 03:50      25.0  21.0  27.2  25.0  79  1013   ---     N     5     5   ---   --- /
03/07/2008 04:50      24.0  20.0  26.2  24.0  78  1013   ---     N     2     2   ---   --- /
03/07/2008 05:50      23.0  20.0  25.6  22.1  83  1013   ---     S     6     6   ---   --- /
03/07/2008 06:50      23.0  20.0  25.6  22.1  83  1014   ---   SSW     6     6   ---   --- /
03/07/2008 07:50      26.0  21.0  27.9  26.0  74  1014   ---     N     5     5   ---   --- /
03/07/2008 08:50      26.0  22.0  28.3  24.8  79  1014   ---     W     8     8   ---   --- /
03/07/2008 09:50      26.0  20.0  27.6  24.8  70  1014   ---     W     8     8   ---   --- /
03/07/2008 10:50      27.0  22.0  29.2  26.0  74  1014   ---     N     8     8   ---   --- /
03/07/2008 11:50      27.0  22.0  29.2  25.1  74  1014   ---   NNE    14    14   ---   --- /
03/07/2008 12:50      27.0  23.0  29.6  24.5  79  1014   ---   NNE    19    19   ---   --- /
03/07/2008 13:50      27.0  23.0  29.6  25.1  79  1014   ---   NNE    14    14   ---   --- /
03/07/2008 14:50      27.0  24.0  30.1  24.5  84  1014   ---   NNE    19    19   ---   --- /
03/07/2008 15:50      28.0  24.0  31.9  26.4  79  1014   ---   NNE    14    14   ---   --- /
03/07/2008 16:50      31.0  18.0  31.9  30.2  46  1013   ---    NE    19    19   ---   --- /
03/07/2008 17:50      29.0  22.0  32.0  27.4  66  1013   ---    NE    19    19   ---   --- /
03/07/2008 18:50      28.0  22.0  30.7  27.0  70  1013   ---    NE    10    10   ---   --- /
03/07/2008 19:50      27.0  22.0  29.2  27.0  74  1013   ---     N     5     5   ---   --- /
03/07/2008 20:50      26.0  22.0  28.3  26.0  79  1013   ---     N     3     3   ---   --- /
03/07/2008 21:50      26.0  23.0  28.6  24.1  84  1013   ---   SSW    13    13   ---   --- /
03/07/2008 22:50      25.0  23.0  28.0  23.4  89  1014   ---    SW    10    10   ---   --- /
03/07/2008 23:50      25.0  22.0  27.6  23.4  83  1014   ---   WSW    10    10   ---   --- /
04/07/2008 00:50      25.0  18.0  26.3  23.4  65  1013   ---   ENE    10    10   ---   --- /
04/07/2008 01:50      24.0  16.0  25.1  21.5  61  1013   ---     S    13    13   ---   --- /
04/07/2008 02:50      28.0  12.0  27.5  25.9  37  1013   ---   SSW    21    21   ---   --- /
04/07/2008 03:50      28.0   9.0  27.1  25.9  30  1013   ---     S    21    21   ---   --- /
04/07/2008 04:50      29.0   5.0  27.5  27.2  22  1012   ---     S    23    23   ---   --- /
04/07/2008 05:50      30.0   5.0  28.3  28.8  21  1012   ---     S    19    19   ---   --- /
04/07/2008 06:50      31.0   4.0  29.0  30.2  18  1012   ---     S    18    18   ---   --- /
04/07/2008 07:50      30.0   7.0  28.4  28.5  24  1013   ---   SSW    29    29   ---   --- /
04/07/2008 08:50      33.0   5.0  30.8  33.0  17  1013   ---     S    34    34   ---   --- /
04/07/2008 09:50      34.0   7.0  31.9  34.0  19  1013   ---     S    27    27   ---   --- /
04/07/2008 10:50      36.0   8.0  33.9  36.0  18  1013   ---   SSW    23    23   ---   --- /
04/07/2008 11:50      35.0  13.0  34.0  35.0  27  1013   ---    SW    21    21   ---   --- /
04/07/2008 12:50      29.0  21.0  31.4  27.5  62  1013   ---   WSW    18    18   ---   --- /
04/07/2008 13:50      28.0  23.0  31.3  25.9  74  1012   ---    NW    21    21   ---   --- /
04/07/2008 14:50      28.0  23.0  31.3  25.9  74  1012   ---     W    19    19   ---   --- /
04/07/2008 15:50      27.0  23.0  29.6  24.0  79  1012   ---     W    27    27   ---   --- /
04/07/2008 17:50      26.0  23.0  28.6  22.5  84  1012   ---     W    29    29   ---   --- Clear/
04/07/2008 18:20      26.0  23.0  28.6  22.4  84  1012   ---     W    31    31   ---   --- Clear/
04/07/2008 19:50      25.0  22.0  27.6  21.0  83  1012   ---     W    27    27   ---   --- Clear/
04/07/2008 20:50      26.0  21.0  27.9  24.6  74  1013   ---   SSW    10    10   ---   --- /
04/07/2008 21:50      26.0  22.0  28.3  23.1  79  1013   ---     W    19    19   ---   --- /
04/07/2008 22:50      25.0  22.0  27.6  21.6  83  1014   ---   WNW    21    21   ---   --- /
04/07/2008 23:50      25.0  21.0  27.2  24.3  79  1014   ---    SW     6     6   ---   --- /
05/07/2008 00:50      25.0  22.0  27.6  25.0  83  1014   ---     N     2     2   ---   0.6 Few Clouds/
05/07/2008 01:50      25.0  22.0  27.6  25.0  83  1014   ---     N     2     2   ---   0.6 Few Clouds/
05/07/2008 02:50      24.0  21.0  26.6  24.0  83  1013   ---     N     2     2   ---   --- /
05/07/2008 03:50      24.0  21.0  26.6  24.0  83  1013   ---     N     5     5   ---   0.3 Few Clouds/
05/07/2008 04:50      24.0  21.0  26.6  24.0  83  1013   ---     N     2     2   ---   0.5 Few Clouds/
05/07/2008 05:50      24.0  21.0  26.6  24.0  83  1013   ---     N     3     3   ---   0.5 Few Clouds/
05/07/2008 06:50      24.0  22.0  27.0  24.0  89  1014   ---     N     3     3   ---   0.5 Few Clouds/
05/07/2008 07:50      25.0  22.0  27.6  25.0  83  1014   ---     N     3     3   ---   0.5 Few Clouds/
05/07/2008 08:50      25.0  23.0  28.0  22.5  89  1014   ---     N    14    14   ---   0.5 Few Clouds/
05/07/2008 09:50      25.0  22.0  27.6  22.1  83  1014   ---   NNW    16    16   ---   0.4 Few Clouds/
05/07/2008 10:50      26.0  21.0  27.9  23.8  74  1014   ---     N    14    14   ---   0.7 Few Clouds/
05/07/2008 11:50      27.0  21.0  28.8  24.4  70  1014   ---   NNE    21    21   ---   0.7 Few Clouds/
05/07/2008 12:50      27.0  20.0  28.5  24.0  66  1014   ---    NE    27    27   ---   0.7 Few Clouds/
05/07/2008 13:50      27.0  21.0  28.8  24.1  70  1014   ---   NNE    26    26   ---   0.7 Few Clouds/
05/07/2008 14:20      27.0  21.0  28.8  24.0  70  1014   ---   NNE    27    27   ---   0.7 Few Clouds/
05/07/2008 16:50      27.0  20.0  28.5  24.1  66  1014   ---   NNE    26    26   ---   0.7 Few Clouds/
05/07/2008 17:50      26.0  21.0  27.9  22.5  74  1014   ---   NNE    29    29   ---   0.7 Few Clouds/
05/07/2008 18:50      26.0  20.0  27.6  22.9  70  1013   ---    NE    23    23   ---   0.7 Few Clouds/
05/07/2008 19:50      26.0  20.0  27.6  23.1  70  1013   ---    NE    19    19   ---   0.7 Few Clouds/
05/07/2008 20:50      25.0  20.0  26.9  21.7  74  1013   ---    NE    19    19   ---   0.7 Few Clouds/
05/07/2008 21:50      25.0  20.0  26.9  21.7  74  1014   ---    NE    19    19   ---   --- /
05/07/2008 22:50      25.0  21.0  27.2  21.7  79  1014   ---    NE    19    19   ---   --- /
05/07/2008 23:50      25.0  21.0  27.2  21.7  79  1014   ---    NE    19    19   ---   --- /
06/07/2008 00:50      24.0  21.0  26.6  20.0  83  1014   ---   NNE    23    23   ---   --- /
06/07/2008 01:50      24.0  21.0  26.6  20.3  83  1014   ---    NE    19    19   ---   --- /
06/07/2008 02:50      24.0  20.0  26.2  20.3  78  1014   ---    NE    19    19   ---   --- /
06/07/2008 03:50      24.0  20.0  26.2  20.0  78  1014   ---    NE    23    23   ---   --- /
06/07/2008 04:50      24.0  19.0  25.9  20.3  74  1014   ---   ENE    19    19   ---   --- /
06/07/2008 05:50      24.0  19.0  25.9  20.3  74  1013   ---   ENE    19    19   ---   --- /
06/07/2008 06:20      23.0  18.0  24.9  19.4  73  1013   ---     E    16    16   ---   --- /
06/07/2008 07:50      24.0  18.0  25.6  20.8  69  1014   ---    SE    16    16   ---   --- /
06/07/2008 08:50      25.0  19.0  26.6  24.3  69  1014   ---    NW     6     6   ---   --- /
06/07/2008 09:50      28.0  18.0  28.9  26.2  55  1014   ---   ENE    16    16   ---   --- /
06/07/2008 10:50      27.0  21.0  28.8  27.0  70  1014   ---     N     5    23   ---   --- /
06/07/2008 11:50      28.0  20.0  29.7  25.6  62  1013   ---   ENE    26    26   ---   --- /
06/07/2008 12:50      27.0  21.0  28.8  24.4  70  1014   ---    NE    21    21   ---   --- /
06/07/2008 13:50      28.0  21.0  30.1  25.6  66  1014   ---    NE    26    26   ---   --- /
06/07/2008 14:50      29.0  21.0  31.4  27.3  62  1014   ---    NE    21    21   ---   --- /
06/07/2008 15:50      31.0  20.0  33.0  30.1  52  1013   ---    NE    21    21   ---   --- /
06/07/2008 16:50      30.0  20.0  31.9  28.8  55  1013   ---    NE    19    19   ---   --- /
06/07/2008 17:50      29.0  20.0  30.8  27.4  58  1012   ---    NE    19    19   ---   --- /
06/07/2008 18:50      29.0  20.0  30.8  27.7  58  1012   ---    NE    14    14   ---   --- /
06/07/2008 19:50      27.0  22.0  29.2  24.7  74  1012   ---   WSW    18    18   ---   --- /
06/07/2008 20:50      26.0  22.0  28.3  23.5  79  1012   ---    SW    16    16   ---   --- /
06/07/2008 21:50      26.0  21.0  27.9  22.9  74  1013   ---    SW    23    23   ---   --- /
06/07/2008 22:50      26.0  22.0  28.3  23.8  79  1013   ---    SW    14    14   ---   --- /
06/07/2008 23:50      25.0  21.0  27.2  22.1  79  1013   ---    SW    16    16   ---   --- /
07/07/2008 00:50      26.0  20.0  27.6  25.4  70  1013   ---     N     6     6   ---   --- /
07/07/2008 01:50      25.0  20.0  26.9  22.5  74  1012   ---   ENE    14    14   ---   --- /
07/07/2008 02:50      24.0  18.0  25.6  23.2  69  1012   ---     S     6     6   ---   --- /
07/07/2008 03:50      25.0  19.0  26.6  25.0  69  1012   ---     N     3     3   ---   --- /
07/07/2008 04:50      29.0  11.0  28.0  27.1  33  1013   ---   SSW    26    26   ---   --- /
07/07/2008 05:50      29.0   8.0  27.7  26.9  27  1013   ---   SSW    31    31   ---   --- /
07/07/2008 06:50      31.0   4.0  29.0  30.1  18  1012   ---   SSE    23    23   ---   --- /
07/07/2008 07:50      27.0  21.0  28.8  25.3  70  1012   ---    SE    13    13   ---   --- /
07/07/2008 08:50      26.0  22.0  28.3  24.8  79  1012   ---   NNE     8     8   ---   --- /
07/07/2008 09:50      27.0  22.0  29.2  26.4  74  1013   ---   NNE     6     6   ---   --- /
07/07/2008 10:50      30.0  20.0  31.9  29.7  55  1013   ---     N     6     6   ---   --- /
07/07/2008 11:50      31.0  19.0  32.4  31.0  49  1013   ---     N     2     2   ---   --- /
07/07/2008 12:50      29.0  20.0  30.8  28.3  58  1014   ---    NE     8     8   ---   --- /
07/07/2008 13:50      30.0  22.0  33.3  29.7  62  1013   ---     N     6     6   ---   --- /
07/07/2008 14:50      30.0  22.0  33.3  29.5  62  1013   ---     N     8     8   ---   --- /
07/07/2008 15:50      38.0  15.0  38.1  38.0  26  1013   ---    SW    26    26   ---   --- /
07/07/2008 16:50      33.0  21.0  36.1  33.0  49  1013   ---     E     6     6   ---   --- /
07/07/2008 17:50      31.0  23.0  35.5  30.1  63  1012   ---    NE    21    21   ---   --- /
07/07/2008 18:50      29.0  23.0  32.8  27.6  70  1012   ---    NE    16    16   ---   --- /
07/07/2008 19:50      33.0  16.0  33.0  33.0  36  1012   ---    SW    13    13   ---   --- /
07/07/2008 20:50      31.0  19.0  32.4  30.4  49  1012   ---    SW    14    14   ---   --- /
07/07/2008 21:50      30.0  16.0  30.0  28.9  43  1013   ---    SW    18    18   ---   --- /
07/07/2008 22:50      29.0  18.0  29.9  27.1  52  1014   ---    SW    26    26   ---   --- /
07/07/2008 23:50      31.0  12.0  29.9  30.0  31  1014   ---   SSW    26    26   ---   --- /
08/07/2008 00:50      30.0  13.0  29.2  28.7  35  1013   ---   SSW    23    23   ---   --- /
08/07/2008 01:50      30.0  14.0  29.4  28.7  38  1013   ---   SSW    23    23   ---   --- /
08/07/2008 02:50      28.0  19.0  29.3  28.0  58  1012   ---     N     5     5   ---   --- /
08/07/2008 03:50      28.0  17.0  28.6  25.5  51  1012   ---   WSW    29    29   ---   --- /
08/07/2008 04:50      28.0  12.0  27.5  25.9  37  1014   ---   WSW    21    21   ---   --- /
08/07/2008 05:50      29.0   8.0  27.7  27.3  27  1014   ---    SW    21    21   ---   --- /
08/07/2008 06:50      31.0   5.0  29.1  30.2  19  1013   ---     S    18    18   ---   1.2 Broken Clouds/
08/07/2008 07:50      34.0   8.0  32.0  34.0  20  1011   ---   SSW    21    21   ---   1.2 Broken Clouds/
08/07/2008 08:50      29.0  18.0  29.9  27.0  52  1015   ---   WSW    29    29   ---   --- /
08/07/2008 09:50      27.0  22.0  29.2  26.4  74  1015   ---     W     6     6   ---   --- /
08/07/2008 10:20      28.0  22.0  30.7  28.0  70  1015   ---     N     5     5   ---   --- /
08/07/2008 11:50      27.0  23.0  29.6  25.8  79  1016   ---    NW    10    10   ---   0.8 Few Clouds/
08/07/2008 12:50      27.0  23.0  29.6  26.0  79  1016   ---   WNW     8     8   ---   0.7 Few Clouds/
08/07/2008 13:50      28.0  24.0  31.9  27.0  79  1016   ---   NNE    10    10   ---   0.6 Few Clouds/
08/07/2008 14:50      28.0  23.0  31.3  25.9  74  1016   ---   NNE    19    19   ---   --- /
08/07/2008 15:50      27.0  22.0  29.2  23.9  74  1015   ---    NE    31    31   ---   --- /
08/07/2008 16:50      28.0  21.0  30.1  25.3  66  1015   ---    NE    32    32   ---   --- /
08/07/2008 17:50      28.0  19.0  29.3  25.4  58  1016   ---    NE    31    31   ---   --- /
08/07/2008 18:50      28.0  17.0  28.6  25.3  51  1015   ---    NE    32    32   ---   --- /
08/07/2008 19:50      27.0  18.0  27.9  23.9  58  1015   ---    NE    31    31   ---   --- /
08/07/2008 20:50      27.0  18.0  27.9  23.9  58  1016   ---   ENE    31    31   ---   --- /
08/07/2008 21:50      27.0  15.0  27.3  24.1  48  1016   ---   ENE    26    26   ---   --- /
08/07/2008 22:50      27.0  14.0  27.1  24.7  45  1016   ---   ENE    18    37   ---   --- /
08/07/2008 23:50      28.0  12.0  27.5  25.9  37  1016   ---   ENE    19    19   ---   --- /
09/07/2008 00:50      26.0  17.0  26.9  23.5  58  1016   ---    NE    16    16   ---   --- /
09/07/2008 01:50      26.0  15.0  26.5  23.4  51  1016   ---    NE    18    18   ---   --- /
09/07/2008 02:50      26.0  13.0  26.2  23.5  45  1016   ---    NE    16    16   ---   --- /
09/07/2008 03:50      24.0  17.0  25.3  22.2  65  1016   ---   ENE    10    10   ---   --- /
09/07/2008 04:50      24.0  17.0  25.3  23.2  65  1016   ---     S     6     6   ---   --- /
09/07/2008 05:50      26.0   8.0  25.6  23.1  32  1016   ---    NE    19    19   ---   --- /
09/07/2008 06:50      25.0  18.0  26.3  21.6  65  1016   ---   NNE    21    21   ---   --- /
09/07/2008 07:50      25.0  19.0  26.6  21.7  69  1016   ---    NE    19    19   ---   --- /
09/07/2008 08:50      26.0  19.0  27.3  23.0  65  1016   ---    NE    21    21   ---   --- /
09/07/2008 09:50      30.0  12.0  29.0  28.7  33  1016   ---   ENE    21    21   ---   --- /
09/07/2008 10:50      27.0  19.0  28.2  24.0  62  1016   ---    NE    27    27   ---   --- /
09/07/2008 11:50      27.0  19.0  28.2  24.0  62  1017   ---    NE    27    27   ---   --- /
09/07/2008 12:50      27.0  20.0  28.5  24.1  66  1017   ---    NE    26    26   ---   --- /
09/07/2008 13:50      27.0  21.0  28.8  24.3  70  1017   ---   NNE    23    23   ---   --- /
09/07/2008 14:50      29.0  19.0  30.3  27.1  55  1016   ---    NE    26    26   ---   --- /
09/07/2008 15:50      27.0  20.0  28.5  24.1  66  1016   ---    NE    26    26   ---   --- /
09/07/2008 16:50      28.0  19.0  29.3  25.6  58  1016   ---    NE    26    26   ---   --- /
09/07/2008 17:50      27.0  19.0  28.2  24.3  62  1015   ---   NNE    23    23   ---   --- /
09/07/2008 18:50      26.0  20.0  27.6  23.1  70  1016   ---     N    19    19   ---   --- /
09/07/2008 19:50      26.0  21.0  27.9  23.4  74  1016   ---   NNE    18    18   ---   --- /
09/07/2008 20:50      26.0  20.0  27.6  23.4  70  1015   ---    NE    18    18   ---   --- /
09/07/2008 22:50      25.0  18.0  26.3  23.4  65  1017   ---   ENE    10    10   ---   --- /
09/07/2008 23:50      24.0  17.0  25.3  24.0  65  1017   ---     N     2     2   ---   --- /
10/07/2008 00:50      24.0  19.0  25.9  24.0  74  1017   ---     N     3     3   ---   --- /
10/07/2008 01:50      24.0  19.0  25.9  24.0  74  1017   ---     N     3     3   ---   --- /
10/07/2008 02:50      24.0  22.0  27.0  21.1  89  1016   ---   NNE    14    14   ---   --- /
10/07/2008 03:50      23.0  18.0  24.9  22.1  73  1016   ---   ESE     6     6   ---   --- /
10/07/2008 04:50      24.0  17.0  25.3  20.3  65  1015   ---   ENE    19    19   ---   --- /
10/07/2008 05:50      24.0  18.0  25.6  24.0  69  1015   ---     N     2     2   ---   --- /
10/07/2008 06:50      26.0   7.0  25.5  24.6  30  1015   ---   ENE    10    10   ---   --- /
10/07/2008 07:50      29.0   1.0  27.4  27.2  16  1015   ---     E    23    23   ---   --- /
10/07/2008 08:50      29.0  10.0  27.9  27.3  31  1016   ---   ENE    21    21   ---   --- /
10/07/2008 09:50      28.0  15.0  28.0  25.6  45  1016   ---    NE    26    26   ---   --- /
10/07/2008 10:50      29.0  18.0  29.9  27.0  52  1015   ---   ENE    27    27   ---   --- /
10/07/2008 12:50      28.0  18.0  28.9  25.6  55  1016   ---    NE    26    26   ---   --- /
10/07/2008 13:50      28.0  18.0  28.9  25.5  55  1016   ---    NE    27    27   ---   --- /
10/07/2008 14:50      28.0  18.0  28.9  25.6  55  1016   ---    NE    26    26   ---   --- /
10/07/2008 15:50      27.0  19.0  28.2  24.3  62  1016   ---   NNE    23    23   ---   --- /
10/07/2008 16:50      27.0  19.0  28.2  24.1  62  1016   ---    NE    26    26   ---   --- /
10/07/2008 17:50      27.0  19.0  28.2  24.1  62  1015   ---    NE    26    26   ---   --- /
10/07/2008 18:50      27.0  19.0  28.2  24.0  62  1015   ---    NE    29    29   ---   --- /
10/07/2008 19:50      26.0  19.0  27.3  22.5  65  1014   ---    NE    29    29   ---   --- /
10/07/2008 20:50      26.0  19.0  27.3  23.0  65  1015   ---    NE    21    21   ---   --- /
10/07/2008 21:50      25.0  19.0  26.6  22.0  69  1015   ---   ENE    18    18   ---   --- /
10/07/2008 22:50      25.0  19.0  26.6  24.3  69  1016   ---   ENE     6     6   ---   --- /
10/07/2008 23:50      25.0  20.0  26.9  23.7  74  1015   ---   WNW     8     8   ---   --- /
11/07/2008 00:50      24.0  19.0  25.9  24.0  74  1015   ---     N     3     3   ---   --- /
11/07/2008 01:50      23.0  18.0  24.9  23.0  73  1015   ---     N     5     5   ---   --- /
11/07/2008 02:50      23.0  18.0  24.9  23.0  73  1014   ---     N     2     2   ---   --- /
11/07/2008 03:50      23.0  18.0  24.9  21.3  73  1014   ---   ENE     8     8   ---   --- /
11/07/2008 04:50      23.0  17.0  24.6  22.1  69  1014   ---     E     6     6   ---   --- /
11/07/2008 05:50      22.0  18.0  24.2  19.8  78  1014   ---   SSW    10    10   ---   --- /
11/07/2008 06:50      22.0  18.0  24.2  21.0  78  1014   ---     S     6     6   ---   --- /
11/07/2008 07:50      24.0  18.0  25.6  23.2  69  1014   ---    SW     6     6   ---   --- /
11/07/2008 08:50      25.0  19.0  26.6  25.0  69  1015   ---     W     5     5   ---   --- /
11/07/2008 09:50      26.0  20.0  27.6  24.8  70  1015   ---     N     8     8   ---   --- /
11/07/2008 10:50      27.0  20.0  28.5  24.9  66  1015   ---   NNE    16    16   ---   --- /
11/07/2008 12:50      28.0  21.0  30.1  25.9  66  1015   ---    NE    19    19   ---   --- /
11/07/2008 13:50      27.0  21.0  28.8  24.7  70  1015   ---    NE    18    18   ---   --- /
11/07/2008 14:50      28.0  22.0  30.7  26.2  70  1015   ---   NNE    16    16   ---   --- /
11/07/2008 15:50      29.0  20.0  30.8  27.4  58  1014   ---    NE    19    19   ---   --- /
11/07/2008 16:50      29.0  21.0  31.4  27.2  62  1014   ---    NE    23    23   ---   --- /
11/07/2008 17:50      29.0  21.0  31.4  27.2  62  1013   ---   ENE    23    23   ---   --- /
11/07/2008 18:50      28.0  21.0  30.1  25.6  66  1012   ---   ENE    26    26   ---   --- /
11/07/2008 19:50      28.0  20.0  29.7  25.9  62  1013   ---   ENE    21    21   ---   --- /
11/07/2008 19:50      28.0  20.0  29.7  25.9  62  1013   ---   ENE    21    21   ---   --- None reported/None reported
11/07/2008 21:50      27.0  21.0  28.8  25.8  70  1013   ---    SW    10    10   ---   --- /
11/07/2008 22:50      26.0  20.0  27.6  24.1  70  1013   ---   SSW    13    13   ---   --- /
11/07/2008 23:50      25.0  21.0  27.2  22.8  79  1013   ---    SW    13    13   ---   --- /
12/07/2008 00:50      25.0  20.0  26.9  25.0  74  1013   ---     N     2     2   ---   --- /
12/07/2008 01:50      25.0  18.0  26.3  24.3  65  1013   ---   NNE     6     6   ---   --- /
12/07/2008 02:50      24.0  18.0  25.6  23.2  69  1013   ---     E     6     6   ---   --- /
12/07/2008 03:50      24.0  18.0  25.6  23.2  69  1012   ---     E     6     6   ---   --- /
12/07/2008 04:50      23.0  19.0  25.2  23.0  78  1012   ---     N     5     5   ---   --- /
12/07/2008 05:50      23.0  18.0  24.9  22.1  73  1011   ---     S     6     6   ---   --- /
12/07/2008 06:50      22.0  17.0  23.9  21.0  73  1012   ---   SSW     6     6   ---   --- /
12/07/2008 07:50      25.0  19.0  26.6  25.0  69  1012   ---     N     3     3   ---   --- /
12/07/2008 08:50      26.0  19.0  27.3  24.8  65  1012   ---   WSW     8     8   ---   --- /
12/07/2008 09:50      27.0  18.0  27.9  27.0  58  1012   ---     N     3     3   ---   --- /
12/07/2008 09:50      27.0  18.0  27.9  27.0  58  1012   ---   ---     3     3   ---   --- None reported/None reported
12/07/2008 10:50      27.0  20.0  28.5  27.0  66  1013   ---     N     5     5   ---   --- /
12/07/2008 10:50      27.0  20.0  28.5  27.0  66  1013   ---   ---     5     5   ---   --- None reported/None reported
12/07/2008 11:50      28.0  21.0  30.1  27.0  66  1012   ---   NNE    10    10   ---   --- /
12/07/2008 11:50      28.0  21.0  30.1  27.0  66  1012   ---   NNE    10    10   ---   --- None reported/None reported
12/07/2008 12:50      29.0  19.0  30.3  27.3  55  1011   ---    NE    21    21   ---   --- /
12/07/2008 13:50      31.0  16.0  31.0  30.0  41  1011   ---    NE    26    26   ---   --- /
12/07/2008 14:50      31.0  19.0  32.4  30.1  49  1010   ---    NE    23    23   ---   --- /
12/07/2008 15:50      32.0  16.0  32.0  31.5  38  1010   ---   ENE    26    26   ---   --- /
12/07/2008 16:50      30.0  21.0  32.6  28.9  59  1010   ---    NE    18    18   ---   --- /
12/07/2008 17:50      28.0  22.0  30.7  26.1  70  1010   ---   NNE    18    18   ---   --- /
12/07/2008 18:50      29.0  21.0  31.4  27.6  62  1010   ---     E    16    16   ---   --- /
12/07/2008 19:50      27.0  24.0  30.1  26.4  84  1011   ---    NW     6     6   ---   --- /
12/07/2008 20:50      26.0  23.0  28.6  26.0  84  1010   ---     N     5     5   ---   --- /
12/07/2008 21:50      26.0  23.0  28.6  25.4  84  1010   ---    NE     6     6   ---   --- /
12/07/2008 22:50      26.0  23.0  28.6  26.0  84  1010   ---     N     3     3   ---   --- /
12/07/2008 23:50      26.0  23.0  28.6  26.0  84  1010   ---     N     5     5   ---   --- /
13/07/2008 00:50      25.0  20.0  26.9  25.0  74  1010   ---     N     5     5   ---   --- /
13/07/2008 01:50      25.0  16.0  25.9  24.3  57  1010   ---   ESE     6     6   ---   --- /
13/07/2008 02:50      26.0  21.0  27.9  26.0  74  1010   ---     N     3     3   ---   --- /
13/07/2008 03:50      25.0  17.0  26.1  24.3  61  1010   ---     E     6     6   ---   --- /
13/07/2008 04:50      26.0  17.0  26.9  23.5  58  1009   ---   ENE    16    16   ---   --- /
13/07/2008 05:50      26.0  14.0  26.3  24.6  48  1009   ---    SE    10    10   ---   --- /
13/07/2008 06:50      27.0  12.0  26.8  24.9  39  1010   ---   SSW    16    16   ---   --- /
13/07/2008 07:50      29.0  12.0  28.2  27.9  35  1010   ---   SSW    13    13   ---   --- /
13/07/2008 08:50      29.0  14.0  28.6  27.1  40  1010   ---   WSW    26    26   ---   --- /
13/07/2008 09:50      28.0  20.0  29.7  26.2  62  1011   ---   NNE    16    16   ---   --- /
13/07/2008 10:50      32.0  17.0  32.4  31.6  41  1010   ---   ENE    18    18   ---   --- /
13/07/2008 11:50      32.0  19.0  33.5  31.6  46  1010   ---    NE    21    21   ---   --- /
13/07/2008 12:50      34.0  16.0  34.1  34.0  34  1009   ---   ENE    19    19   ---   --- /
13/07/2008 13:50      30.0  23.0  34.2  28.8  66  1009   ---    NE    19    19   ---   --- /
13/07/2008 14:50      34.0  20.0  36.5  34.0  44  1009   ---   ENE    19    19   ---   --- /
13/07/2008 15:50      31.0  21.0  33.8  30.3  55  1010   ---    NE    16    16   ---   --- /
13/07/2008 16:50      28.0  23.0  31.3  25.9  74  1011   ---     N    19    19   ---   --- /
13/07/2008 17:50      29.0  22.0  32.0  27.4  66  1011   ---    NE    19    19   ---   --- /
13/07/2008 18:50      29.0  22.0  32.0  27.5  66  1011   ---    NE    18    18   ---   --- /
13/07/2008 19:50      29.0  22.0  32.0  27.5  66  1010   ---     E    18    18   ---   --- /
13/07/2008 20:50      28.0  22.0  30.7  26.6  70  1011   ---     N    13    13   ---   --- /
13/07/2008 21:50      28.0  21.0  30.1  27.0  66  1011   ---    NE    10    10   ---   --- /
13/07/2008 22:50      28.0  21.0  30.1  27.2  66  1013   ---   WSW     8     8   ---   --- /
13/07/2008 23:50      27.0  23.0  29.6  27.0  79  1013   ---     N     5     5   ---   --- /
14/07/2008 00:50      26.0  24.0  29.0  26.0  89  1013   ---     N     5     5   ---   --- /
14/07/2008 01:50      26.0  23.0  28.6  26.0  84  1013   ---     N     2     2   ---   --- /
14/07/2008 02:50      26.0  18.0  27.1  23.8  61  1013   ---    SW    14    14   ---   --- /
14/07/2008 03:50      27.0  17.0  27.7  25.1  54  1013   ---   SSW    14    14   ---   --- /
14/07/2008 04:50      27.0  20.0  28.5  24.5  66  1014   ---     S    19    19   ---   --- /
14/07/2008 05:50      27.0  21.0  28.8  24.7  70  1014   ---   SSW    18    18   ---   0.1 Few Clouds/
14/07/2008 06:50      27.0  22.0  29.2  24.9  74  1014   ---   SSW    16    16   ---   0.1 Few Clouds/
14/07/2008 07:50      25.0  23.0  28.0  22.5  89  1015   ---    NW    14    14   ---   0.1 Scattered Clouds/
14/07/2008 08:50      25.0  23.0  28.0  22.8  89  1015   ---     N    13    13   ---   0.1 Scattered Clouds/
14/07/2008 09:50      26.0  23.0  28.6  23.8  84  1016   ---     N    14    14   ---   0.2 Scattered Clouds/
14/07/2008 10:50      27.0  23.0  29.6  24.7  79  1016   ---     N    18    18   ---   0.2 Scattered Clouds/
14/07/2008 11:50      27.0  23.0  29.6  24.9  79  1016   ---     N    16    16   ---   0.4 Scattered Clouds/
14/07/2008 12:50      27.0  22.0  29.2  24.5  74  1017   ---     N    19    19   ---   0.4 Scattered Clouds/
14/07/2008 13:50      28.0  22.0  30.7  26.1  70  1017   ---   NNE    18    18   ---   0.6 Few Clouds/
14/07/2008 14:50      28.0  21.0  30.1  25.8  66  1017   ---   NNE    23    23   ---   0.6 Few Clouds/
14/07/2008 15:50      28.0  20.0  29.7  25.6  62  1018   ---   NNE    26    26   ---   0.6 Scattered Clouds/
14/07/2008 16:50      27.0  21.0  28.8  23.9  70  1018   ---   NNE    31    31   ---   0.6 Scattered Clouds/
14/07/2008 17:50      27.0  20.0  28.5  24.1  66  1019   ---   NNE    26    26   ---   0.7 Scattered Clouds/
14/07/2008 18:50      27.0  19.0  28.2  24.1  62  1018   ---    NE    26    26   ---   1.0 Few Clouds/
14/07/2008 19:50      27.0  19.0  28.2  24.0  62  1018   ---   ENE    29    29   ---   --- /
14/07/2008 20:50      26.0  19.0  27.3  22.5  65  1018   ---    NE    29    29   ---   --- /
14/07/2008 21:50      26.0  19.0  27.3  22.5  65  1018   ---    NE    27    27   ---   --- /
14/07/2008 22:50      26.0  19.0  27.3  22.5  65  1018   ---   ENE    29    29   ---   --- /
14/07/2008 23:50      26.0  19.0  27.3  23.0  65  1019   ---   ENE    21    21   ---   --- /
15/07/2008 00:50      26.0  19.0  27.3  23.4  65  1019   ---   ENE    18    18   ---   --- /
15/07/2008 01:50      25.0  19.0  26.6  22.1  69  1020   ---   ENE    16    16   ---   --- /
15/07/2008 02:50      25.0  19.0  26.6  21.7  69  1020   ---    NE    19    19   ---   --- /
15/07/2008 03:50      25.0  19.0  26.6  22.1  69  1021   ---   NNE    16    16   ---   0.7 Few Clouds/
15/07/2008 04:50      25.0  19.0  26.6  22.5  69  1021   ---   NNE    14    14   ---   0.7 Few Clouds/
15/07/2008 05:50      24.0  18.0  25.6  21.1  69  1020   ---   ENE    14    14   ---   --- /
15/07/2008 06:50      25.0  18.0  26.3  20.8  65  1019   ---   ENE    31    31   ---   --- /
15/07/2008 07:50      26.0  18.0  27.1  22.5  61  1020   ---    NE    27    27   ---   --- /
15/07/2008 08:50      27.0  17.0  27.7  23.8  54  1019   ---   ENE    34    34   ---   --- /
15/07/2008 09:50      27.0  17.0  27.7  23.8  54  1019   ---    NE    34    34   ---   --- /
15/07/2008 10:20      28.0  18.0  28.9  25.2  55  1019   ---    NE    39    39   ---   --- /
15/07/2008 11:50      28.0  19.0  29.3  25.3  58  1020   ---    NE    34    34   ---   --- /
15/07/2008 12:50      28.0  19.0  29.3  25.2  58  1020   ---    NE    39    39   ---   --- /
15/07/2008 13:50      28.0  18.0  28.9  25.2  55  1020   ---    NE    37    37   ---   --- /
15/07/2008 14:50      28.0  19.0  29.3  25.2  58  1021   ---    NE    37    37   ---   --- /
15/07/2008 15:50      27.0  19.0  28.2  23.8  62  1020   ---    NE    32    32   ---   --- /
15/07/2008 16:50      26.0  19.0  27.3  22.4  65  1021   ---   NNE    31    31   ---   0.6 Few Clouds/
15/07/2008 17:50      26.0  19.0  27.3  22.5  65  1021   ---   NNE    27    27   ---   0.7 Scattered Clouds/
15/07/2008 18:50      25.0  18.0  26.3  21.6  65  1021   ---   NNE    21    21   ---   0.7 Scattered Clouds/
15/07/2008 19:50      25.0  17.0  26.1  21.6  61  1021   ---   NNE    21    21   ---   1.0 Scattered Clouds/
15/07/2008 20:50      25.0  17.0  26.1  21.6  61  1021   ---   NNE    21    21   ---   1.0 Few Clouds/
15/07/2008 21:50      25.0  18.0  26.3  21.6  65  1021   ---   NNE    21    21   ---   1.0 Few Clouds/
15/07/2008 22:50      25.0  18.0  26.3  21.4  65  1022   ---    NE    23    23   ---   1.0 Few Clouds/
15/07/2008 23:50      24.0  17.0  25.3  20.0  65  1022   ---    NE    23    23   ---   1.0 Few Clouds/
16/07/2008 00:50      24.0  18.0  25.6  20.0  69  1021   ---    NE    23    23   ---   1.0 Few Clouds/
16/07/2008 01:50      24.0  18.0  25.6  20.0  69  1021   ---    NE    23    23   ---   1.0 Few Clouds/
16/07/2008 02:50      24.0  17.0  25.3  20.0  65  1021   ---    NE    23    23   ---   1.0 Few Clouds/
16/07/2008 03:50      24.0  17.0  25.3  20.6  65  1020   ---   ENE    18    18   ---   1.0 Few Clouds/
16/07/2008 04:50      24.0  17.0  25.3  20.6  65  1020   ---     E    18    18   ---   --- /
16/07/2008 05:50      24.0  18.0  25.6  20.3  69  1020   ---     E    19    19   ---   --- /
16/07/2008 06:50      25.0  18.0  26.3  22.5  65  1020   ---   ENE    14    14   ---   --- /
16/07/2008 07:50      26.0  17.0  26.9  23.8  58  1020   ---   ENE    14    14   ---   --- /
16/07/2008 08:50      27.0  17.0  27.7  24.5  54  1021   ---    NE    19    19   ---   --- /
16/07/2008 09:50      27.0  17.0  27.7  24.5  54  1021   ---   ENE    19    19   ---   --- /
16/07/2008 10:50      27.0  17.0  27.7  24.4  54  1021   ---    NE    21    21   ---   --- /
16/07/2008 11:50      28.0  17.0  28.6  26.1  51  1021   ---   NNE    18    18   ---   --- /
16/07/2008 12:50      28.0  16.0  28.3  25.9  48  1021   ---   NNE    19    19   ---   --- /
16/07/2008 13:50      28.0  15.0  28.0  25.8  45  1020   ---   NNE    23    23   ---   --- /
16/07/2008 14:50      28.0  16.0  28.3  25.9  48  1020   ---   NNE    21    21   ---   --- /
16/07/2008 15:50      28.0  17.0  28.6  26.2  51  1020   ---   NNE    16    16   ---   --- /
16/07/2008 16:50      27.0  16.0  27.5  24.9  51  1019   ---   NNE    16    16   ---   --- /
16/07/2008 17:50      27.0  17.0  27.7  25.3  54  1019   ---     N    13    13   ---   --- /
16/07/2008 18:50      27.0  17.0  27.7  25.3  54  1019   ---   NNE    13    13   ---   --- /
16/07/2008 19:50      26.0  17.0  26.9  23.8  58  1019   ---     N    14    14   ---   --- /
16/07/2008 20:50      26.0  17.0  26.9  23.8  58  1018   ---    NE    14    14   ---   --- /
16/07/2008 21:50      25.0  17.0  26.1  22.5  61  1018   ---    NE    14    14   ---   --- /
16/07/2008 22:50      25.0  17.0  26.1  23.4  61  1018   ---    NE    10    10   ---   --- /
16/07/2008 23:50      24.0  17.0  25.3  22.5  65  1018   ---   ENE     8     8   ---   --- /
17/07/2008 00:50      24.0  17.0  25.3  22.5  65  1018   ---     E     8     8   ---   --- /
17/07/2008 01:50      24.0  18.0  25.6  20.8  69  1017   ---     E    16    16   ---   --- /
17/07/2008 02:50      25.0  15.0  25.7  22.1  54  1016   ---    NE    16    16   ---   --- /
17/07/2008 03:50      24.0  17.0  25.3  20.8  65  1016   ---    NE    16    16   ---   --- /
17/07/2008 04:50      24.0  16.0  25.1  20.8  61  1016   ---    NE    16    16   ---   --- /
17/07/2008 05:50      24.0  16.0  25.1  21.1  61  1016   ---    NE    14    14   ---   --- /
17/07/2008 06:50      24.0  16.0  25.1  22.2  61  1016   ---    NE    10    10   ---   --- /
17/07/2008 07:50      25.0  15.0  25.7  24.3  54  1016   ---     S     6     6   ---   --- /
17/07/2008 08:50      25.0  16.0  25.9  24.3  57  1017   ---   WSW     6     6   ---   --- /
17/07/2008 09:50      26.0  18.0  27.1  25.4  61  1017   ---    NW     6     6   ---   --- /
17/07/2008 10:50      26.0  18.0  27.1  25.4  61  1017   ---   WNW     6     6   ---   --- /
17/07/2008 11:50      27.0  19.0  28.2  25.8  62  1017   ---    NW    10    10   ---   --- /
17/07/2008 12:50      27.0  19.0  28.2  25.3  62  1017   ---   NNW    13    13   ---   --- /
17/07/2008 13:20      27.0  19.0  28.2  25.3  62  1017   ---   NNW    13    13   ---   --- /
17/07/2008 14:50      28.0  18.0  28.9  27.2  55  1016   ---   NNW     8     8   ---   --- /
17/07/2008 15:50      27.0  19.0  28.2  25.8  62  1016   ---     N    10    10   ---   --- /
17/07/2008 16:50      28.0  19.0  29.3  26.6  58  1016   ---   NNW    13    13   ---   --- /
17/07/2008 18:50      27.0  18.0  27.9  26.0  58  1015   ---     N     8     8   ---   --- /
17/07/2008 19:50      26.0  18.0  27.1  24.8  61  1015   ---     N     8     8   ---   --- /
17/07/2008 20:50      26.0  18.0  27.1  26.0  61  1015   ---   NNW     5     5   ---   --- /
17/07/2008 21:50      25.0  17.0  26.1  25.0  61  1015   ---    NE     5     5   ---   --- /
17/07/2008 22:20      25.0  17.0  26.1  25.0  61  1014   ---    NE     5     5   ---   --- /
18/07/2008 00:50      24.0  16.0  25.1  24.0  61  1014   ---     N     5     5   ---   --- /
18/07/2008 01:50      23.0  15.0  24.1  21.3  61  1014   ---     S     8     8   ---   --- /
18/07/2008 02:50      24.0  17.0  25.3  23.2  65  1014   ---   WSW     6     6   ---   --- /
18/07/2008 03:50      24.0  17.0  25.3  20.6  65  1014   ---    SW    18    18   ---   --- /
18/07/2008 05:50      25.0  14.0  25.5  22.1  51  1014   ---    SW    16    16   ---   --- /
18/07/2008 06:50      28.0   9.0  27.1  27.2  30  1010   ---   ENE     8     8   ---   --- /
18/07/2008 07:50      27.0  15.0  27.3  27.0  48  1011   ---     N     5     5   ---   1.5 Scattered Clouds/
18/07/2008 08:50      27.0  16.0  27.5  25.1  51  1013   ---   WSW    14    14   ---   --- /
18/07/2008 09:50      31.0  12.0  29.9  30.7  31  1012   ---     S     8     8   ---   --- /
18/07/2008 10:50      28.0  16.0  28.3  26.1  48  1015   ---     W    18    18   ---   --- /
18/07/2008 11:50      30.0  16.0  30.0  29.5  43  1013   ---     S     8     8   ---   1.2 Few Clouds/
18/07/2008 12:50      28.0  21.0  30.1  26.2  66  1013   ---    NW    16    16   ---   1.2 Few Clouds/
18/07/2008 13:50      27.0  22.0  29.2  24.1  74  1014   ---     W    26    26   ---   1.5 Few Clouds/
18/07/2008 14:50      27.0  20.0  28.5  24.0  66  1015   ---     W    29    29   ---   1.2 Broken Clouds/
18/07/2008 15:50      28.0  17.0  28.6  25.5  51  1013   ---     S    27    27   ---   1.2 Broken Clouds/
18/07/2008 16:50      29.0  16.0  29.1  27.1  45  1014   ---    SW    26    26   ---   1.2 Broken Clouds/
18/07/2008 17:50      29.0  15.0  28.9  27.5  43  1013   ---    SW    18    18   ---   --- /
18/07/2008 18:20      29.0  19.0  30.3  27.9  55  1013   ---   WSW    13    13   ---   --- /
18/07/2008 19:50      27.0  20.0  28.5  25.8  66  1014   ---   WNW    10    10   ---   --- /
18/07/2008 20:50      26.0  21.0  27.9  24.8  74  1014   ---   WNW     8     8   ---   --- /
18/07/2008 21:50      26.0  20.0  27.6  25.4  70  1015   ---     W     6     6   ---   --- /
18/07/2008 22:50      25.0  20.0  26.9  25.0  74  1015   ---     N     3     3   ---   --- /
18/07/2008 23:50      25.0  20.0  26.9  25.0  74  1015   ---     N     3     3   ---   --- /
19/07/2008 00:50      25.0  19.0  26.6  25.0  69  1015   ---     N     5     5   ---   --- /
19/07/2008 01:50      25.0  19.0  26.6  25.0  69  1015   ---     N     3     3   ---   --- /
19/07/2008 02:50      24.0  19.0  25.9  24.0  74  1014   ---     N     5     5   ---   --- /
19/07/2008 03:50      24.0  19.0  25.9  23.2  74  1014   ---     E     6     6   ---   --- /
19/07/2008 04:50      24.0  19.0  25.9  23.2  74  1014   ---     E     6     6   ---   --- /
19/07/2008 05:50      23.0  19.0  25.2  21.3  78  1014   ---   ENE     8     8   ---   --- /
19/07/2008 06:50      23.0  18.0  24.9  23.0  73  1014   ---     N     3     3   ---   --- /
19/07/2008 07:50      25.0  19.0  26.6  25.0  69  1015   ---     S     3     3   ---   --- /
19/07/2008 08:50      26.0  20.0  27.6  24.6  70  1015   ---   NNE    10    10   ---   --- /
19/07/2008 09:50      26.0  20.0  27.6  23.8  70  1015   ---   NNE    14    14   ---   --- /
19/07/2008 10:50      27.0  20.0  28.5  24.9  66  1015   ---    NE    16    16   ---   --- /
19/07/2008 11:50      27.0  21.0  28.8  24.5  70  1015   ---    NE    19    19   ---   --- /
19/07/2008 12:50      28.0  21.0  30.1  25.8  66  1015   ---    NE    23    23   ---   0.7 Few Clouds/
19/07/2008 13:50      28.0  20.0  29.7  25.6  62  1015   ---    NE    26    26   ---   --- /
19/07/2008 14:50      29.0  19.0  30.3  27.0  55  1015   ---    NE    27    27   ---   0.9 Few Clouds/
19/07/2008 15:50      29.0  20.0  30.8  26.9  58  1015   ---    NE    31    31   ---   0.7 Few Clouds/
19/07/2008 16:50      28.0  20.0  29.7  25.3  62  1015   ---    NE    34    34   ---   0.7 Few Clouds/
19/07/2008 17:50      28.0  19.0  29.3  25.2  58  1014   ---    NE    37    37   ---   --- /
19/07/2008 18:50      28.0  19.0  29.3  25.3  58  1014   ---    NE    34    34   ---   --- /
19/07/2008 19:50      27.0  20.0  28.5  23.8  66  1014   ---    NE    34    34   ---   --- /
19/07/2008 20:50      26.0  20.0  27.6  22.3  70  1015   ---    NE    32    32   ---   0.6 Few Clouds/
19/07/2008 21:50      26.0  21.0  27.9  22.5  74  1015   ---   ENE    29    29   ---   0.6 Few Clouds/
19/07/2008 22:50      26.0  20.0  27.6  22.5  70  1016   ---   ENE    27    27   ---   0.6 Few Clouds/
19/07/2008 23:50      26.0  20.0  27.6  22.6  70  1016   ---   ENE    26    26   ---   --- /
20/07/2008 00:20      26.0  20.0  27.6  22.9  70  1016   ---   ENE    23    23   ---   --- /
20/07/2008 01:50      25.0  20.0  26.9  21.6  74  1016   ---   ENE    21    21   ---   --- /
20/07/2008 02:50      25.0  19.0  26.6  21.6  69  1016   ---   ENE    21    21   ---   --- /
20/07/2008 03:50      25.0  20.0  26.9  21.7  74  1016   ---   ENE    19    19   ---   --- /
20/07/2008 04:50      25.0  20.0  26.9  21.7  74  1016   ---   ENE    19    19   ---   --- /
20/07/2008 06:50      25.0  20.0  26.9  21.7  74  1016   ---   ENE    19    19   ---   0.7 Few Clouds/
20/07/2008 07:50      26.0  20.0  27.6  23.4  70  1016   ---   ENE    18    18   ---   0.7 Few Clouds/
20/07/2008 08:50      27.0  20.0  28.5  24.3  66  1016   ---    NE    23    23   ---   0.7 Few Clouds/
20/07/2008 09:50      27.0  20.0  28.5  24.1  66  1016   ---    NE    26    26   ---   0.7 Few Clouds/
20/07/2008 10:50      27.0  20.0  28.5  24.0  66  1016   ---    NE    27    27   ---   0.7 Few Clouds/
20/07/2008 11:50      27.0  20.0  28.5  24.0  66  1017   ---    NE    29    29   ---   0.7 Few Clouds/
20/07/2008 12:50      27.0  20.0  28.5  24.0  66  1017   ---    NE    27    27   ---   0.7 Few Clouds/
20/07/2008 13:50      27.0  20.0  28.5  24.0  66  1017   ---    NE    29    29   ---   0.7 Few Clouds/
20/07/2008 14:50      28.0  20.0  29.7  25.5  62  1017   ---    NE    29    29   ---   0.7 Few Clouds/
20/07/2008 15:50      27.0  20.0  28.5  23.8  66  1016   ---    NE    32    32   ---   0.7 Few Clouds/
20/07/2008 16:50      27.0  21.0  28.8  23.9  70  1016   ---    NE    31    31   ---   0.7 Few Clouds/
20/07/2008 17:50      27.0  21.0  28.8  23.9  70  1016   ---    NE    31    31   ---   0.7 Few Clouds/
20/07/2008 18:50      27.0  21.0  28.8  24.0  70  1015   ---    NE    29    29   ---   0.7 Few Clouds/
20/07/2008 19:50      26.0  21.0  27.9  22.5  74  1015   ---    NE    29    29   ---   --- /
20/07/2008 20:50      26.0  21.0  27.9  22.9  74  1016   ---    NE    23    23   ---   --- /
20/07/2008 21:50      26.0  21.0  27.9  23.1  74  1016   ---    NE    19    19   ---   --- /
20/07/2008 22:50      25.0  21.0  27.2  22.5  79  1016   ---   ENE    14    14   ---   --- /
20/07/2008 23:50      25.0  21.0  27.2  24.3  79  1016   ---   WNW     6     6   ---   --- /
21/07/2008 00:50      23.0  19.0  25.2  23.0  78  1016   ---     N     5     5   ---   --- /
21/07/2008 01:50      23.0  20.0  25.6  23.0  83  1015   ---     N     5     5   ---   --- /
21/07/2008 02:50      23.0  19.0  25.2  23.0  78  1015   ---     N     3     3   ---   --- /
21/07/2008 03:50      24.0  20.0  26.2  23.2  78  1015   ---     N     6     6   ---   --- /
21/07/2008 04:50      23.0  19.0  25.2  23.0  78  1014   ---     N     3     3   ---   --- /
21/07/2008 05:50      22.0  19.0  24.6  22.0  83  1014   ---     N     0     0   ---   --- /
21/07/2008 06:50      21.0  18.0  23.6  19.9  83  1014   ---   SSW     6     6   ---   --- /
21/07/2008 07:50      23.0  19.0  25.2  20.2  78  1014   ---    SW    13    13   ---   --- /
21/07/2008 08:50      25.0  18.0  26.3  22.5  65  1015   ---   WSW    14    14   ---   --- /
21/07/2008 09:50      26.0  20.0  27.6  25.4  70  1015   ---     W     6     6   ---   --- /
21/07/2008 10:50      27.0  21.0  28.8  26.4  70  1015   ---   WNW     6     6   ---   --- /
21/07/2008 11:50      27.0  20.0  28.5  26.0  66  1015   ---     E     8     8   ---   --- /
21/07/2008 12:50      28.0  21.0  30.1  27.2  66  1014   ---   NNE     8     8   ---   --- /
21/07/2008 13:50      29.0  20.0  30.8  27.6  58  1014   ---   NNE    16    16   ---   --- /
21/07/2008 14:20      30.0  18.0  30.8  28.8  49  1014   ---   NNE    19    19   ---   --- /
21/07/2008 15:50      29.0  20.0  30.8  27.7  58  1014   ---   NNE    14    14   ---   --- /
21/07/2008 16:50      30.0  13.0  29.2  30.0  35  1013   ---     N     3     3   ---   --- /
21/07/2008 18:50      28.0  21.0  30.1  28.0  66  1013   ---     N     3     3   ---   --- /
21/07/2008 19:50      28.0  21.0  30.1  28.0  66  1012   ---     N     5     5   ---   --- /
21/07/2008 20:50      28.0  22.0  30.7  27.5  70  1012   ---     N     6     6   ---   --- /
21/07/2008 21:50      27.0  21.0  28.8  26.4  70  1012   ---     E     6     6   ---   --- /
21/07/2008 22:50      28.0  16.0  28.3  25.9  48  1011   ---    SW    21    21   ---   --- /
21/07/2008 23:50      31.0   2.0  29.0  29.9  16  1011   ---     S    34    34   ---   --- /
22/07/2008 00:50      30.0  11.0  28.8  28.3  31  1011   ---     S    37    37   ---   --- /
22/07/2008 01:50      29.0  14.0  28.6  27.0  40  1011   ---   SSW    29    29   ---   --- /
22/07/2008 02:50      27.0  17.0  27.7  23.8  54  1010   ---   SSW    34    34   ---   --- /
22/07/2008 03:50      27.0  17.0  27.7  23.8  54  1010   ---   SSW    32    32   ---   --- /
22/07/2008 04:50      27.0  18.0  27.9  23.9  58  1010   ---   SSW    31    31   ---   --- /
22/07/2008 05:50      26.0  19.0  27.3  22.6  65  1010   ---    SW    26    26   ---   --- /
22/07/2008 06:50      26.0  19.0  27.3  23.0  65  1010   ---    SW    21    21   ---   1.2 Scattered Clouds/
22/07/2008 07:50      26.0  18.0  27.1  23.1  61  1011   ---   WSW    19    19   ---   0.5 Scattered Clouds/
22/07/2008 08:50      25.0  21.0  27.2  21.2  79  1012   ---     W    26    26   ---   0.5 Scattered Clouds/
22/07/2008 09:50      26.0  22.0  28.3  22.9  79  1012   ---     W    23    23   ---   0.5 Scattered Clouds/
22/07/2008 10:50      26.0  22.0  28.3  22.6  79  1012   ---     W    26    26   ---   0.4 Scattered Clouds/
22/07/2008 11:50      26.0  21.0  27.9  22.4  74  1013   ---     W    31    31   ---   0.4 Scattered Clouds/
22/07/2008 12:50      27.0  21.0  28.8  23.6  70  1013   ---     W    37    37   ---   0.6 Few Clouds/
22/07/2008 13:50      26.0  17.0  26.9  22.3  58  1013   ---   WNW    32    32   ---   0.6 Few Clouds/
22/07/2008 14:50      25.0  18.0  26.3  21.0  65  1013   ---     W    27    27   ---   0.7 Few Clouds/
22/07/2008 15:50      26.0  19.0  27.3  22.6  65  1013   ---   WNW    26    26   ---   0.7 Few Clouds/
22/07/2008 16:50      26.0  17.0  26.9  23.0  58  1013   ---   WNW    21    21   ---   0.7 Scattered Clouds/
22/07/2008 17:50      26.0  18.0  27.1  22.9  61  1013   ---   WNW    23    23   ---   0.7 Scattered Clouds/
22/07/2008 18:50      25.0  18.0  26.3  21.6  65  1013   ---   WNW    21    21   ---   0.7 Scattered Clouds/
22/07/2008 19:50      25.0  19.0  26.6  21.7  69  1013   ---    NW    19    19   ---   0.7 Scattered Clouds/
22/07/2008 20:50      25.0  19.0  26.6  21.7  69  1014   ---   WNW    19    19   ---   0.7 Scattered Clouds/
22/07/2008 21:50      25.0  19.0  26.6  21.6  69  1014   ---    NW    21    21   ---   0.7 Scattered Clouds/
22/07/2008 22:50      25.0  20.0  26.9  22.0  74  1015   ---    NW    18    18   ---   0.7 Scattered Clouds/
22/07/2008 23:50      25.0  20.0  26.9  22.1  74  1015   ---   WNW    16    16   ---   0.7 Scattered Clouds/
23/07/2008 00:50      25.0  19.0  26.6  21.7  69  1015   ---   WNW    19    19   ---   0.7 Scattered Clouds/
23/07/2008 01:50      25.0  19.0  26.6  21.4  69  1015   ---   WNW    23    23   ---   0.7 Scattered Clouds/
23/07/2008 02:50      25.0  18.0  26.3  21.4  65  1014   ---    NW    23    23   ---   0.7 Few Clouds/
23/07/2008 03:50      25.0  18.0  26.3  21.6  65  1014   ---    NW    21    21   ---   0.7 Scattered Clouds/
23/07/2008 04:50      25.0  19.0  26.6  21.4  69  1014   ---    NW    23    23   ---   0.7 Few Clouds/
23/07/2008 05:50      25.0  18.0  26.3  21.4  65  1014   ---    NW    23    23   ---   0.7 Few Clouds/
23/07/2008 06:50      25.0  17.0  26.1  21.2  61  1014   ---   NNW    26    26   ---   0.7 Scattered Clouds/
23/07/2008 07:50      25.0  15.0  25.7  21.2  54  1014   ---   NNW    26    26   ---   0.7 Few Clouds/
23/07/2008 08:50      25.0  15.0  25.7  21.2  54  1015   ---   NNW    26    26   ---   0.7 Few Clouds/
23/07/2008 09:50      25.0  15.0  25.7  22.5  54  1015   ---    NW    14    14   ---   0.7 Few Clouds/
23/07/2008 10:50      25.0  14.0  25.5  22.0  51  1015   ---   NNW    18    18   ---   0.7 Few Clouds/
23/07/2008 11:50      25.0  16.0  25.9  22.1  57  1016   ---   NNW    16    16   ---   0.7 Few Clouds/
23/07/2008 12:50      26.0  16.0  26.7  23.8  54  1016   ---     N    14    14   ---   0.7 Few Clouds/
23/07/2008 13:50      26.0  16.0  26.7  23.8  54  1016   ---     N    14    14   ---   0.7 Few Clouds/
23/07/2008 14:50      26.0  17.0  26.9  22.9  58  1016   ---   NNE    23    23   ---   0.7 Few Clouds/
23/07/2008 15:50      26.0  14.0  26.3  22.9  48  1016   ---   NNE    23    23   ---   0.7 Few Clouds/
23/07/2008 16:50      26.0  14.0  26.3  23.0  48  1016   ---    NE    21    21   ---   0.7 Few Clouds/
23/07/2008 17:50      25.0  14.0  25.5  22.0  51  1016   ---   NNE    18    18   ---   0.7 Few Clouds/
23/07/2008 18:50      25.0  14.0  25.5  22.1  51  1015   ---   NNE    16    16   ---   --- /
23/07/2008 19:50      24.0  14.0  24.6  21.1  54  1015   ---   NNE    14    14   ---   --- /
23/07/2008 20:50      24.0  13.0  24.5  22.2  50  1015   ---    NE    10    10   ---   --- /
23/07/2008 21:50      24.0  12.0  24.3  23.2  47  1016   ---     N     6     6   ---   --- /
23/07/2008 22:50      24.0  12.0  24.3  24.0  47  1016   ---     N     5     5   ---   --- /
23/07/2008 23:50      24.0  13.0  24.5  23.2  50  1016   ---    NW     6     6   ---   --- /
24/07/2008 00:50      24.0  13.0  24.5  22.5  50  1016   ---    NW     8     8   ---   --- /
24/07/2008 01:50      21.0  12.0  21.8  19.0  56  1016   ---   SSE     8     8   ---   --- /
24/07/2008 02:50      22.0  12.0  22.6  22.0  53  1016   ---     N     3     3   ---   --- /
24/07/2008 03:50      21.0  13.0  22.0  21.0  60  1015   ---   SSE     5     5   ---   --- /
24/07/2008 04:50      21.0  12.0  21.8  19.9  56  1015   ---    SE     6     6   ---   --- /
24/07/2008 05:50      21.0  12.0  21.8  19.9  56  1015   ---    SE     6     6   ---   --- /
24/07/2008 06:50      21.0  13.0  22.0  18.6  60  1015   ---     S    10    10   ---   --- /
24/07/2008 07:50      23.0  14.0  23.8  21.3  57  1015   ---   SSW     8     8   ---   --- /
24/07/2008 08:50      25.0  14.0  25.5  24.3  51  1015   ---    SW     6     6   ---   --- /
24/07/2008 09:50      25.0  14.0  25.5  23.7  51  1015   ---     W     8     8   ---   --- /
24/07/2008 10:20      25.0  14.0  25.5  23.7  51  1016   ---     W     8     8   ---   --- /
24/07/2008 11:50      25.0  15.0  25.7  22.8  54  1016   ---   WSW    13    13   ---   --- /
24/07/2008 12:50      25.0  15.0  25.7  22.0  54  1015   ---   WNW    18    18   ---   --- /
24/07/2008 13:50      26.0  17.0  26.9  23.1  58  1015   ---   WNW    19    19   ---   --- /
24/07/2008 14:50      25.0  17.0  26.1  21.7  61  1015   ---   WNW    19    19   ---   --- /
24/07/2008 15:20      26.0  17.0  26.9  23.4  58  1015   ---    NW    18    18   ---   --- /
24/07/2008 16:50      26.0  15.0  26.5  23.8  51  1015   ---    NW    14    14   ---   --- /
24/07/2008 17:50      26.0  15.0  26.5  23.8  51  1014   ---   WNW    14    14   ---   --- /
24/07/2008 18:50      26.0  16.0  26.7  24.8  54  1014   ---   NNW     8     8   ---   --- /
24/07/2008 19:50      25.0  17.0  26.1  24.3  61  1014   ---    NW     6     6   ---   --- /
24/07/2008 20:50      24.0  16.0  25.1  24.0  61  1014   ---     N     3     3   ---   --- /
24/07/2008 21:50      24.0  16.0  25.1  24.0  61  1014   ---     N     2     2   ---   --- /
24/07/2008 22:50      24.0  16.0  25.1  24.0  61  1014   ---     N     3     3   ---   --- /
24/07/2008 23:50      23.0  13.0  23.6  22.1  53  1014   ---   SSE     6     6   ---   --- /
25/07/2008 00:50      22.0  15.0  23.3  21.0  65  1014   ---   SSE     6     6   ---   --- /
25/07/2008 01:50      22.0  15.0  23.3  22.0  65  1014   ---     N     5     5   ---   --- /
25/07/2008 02:50      21.0  14.0  22.3  19.9  64  1013   ---   SSE     6     6   ---   --- /
25/07/2008 03:50      21.0  12.0  21.8  19.0  56  1013   ---   SSW     8     8   ---   --- /
25/07/2008 04:50      21.0  12.0  21.8  19.9  56  1013   ---   SSW     6     6   ---   --- /
25/07/2008 05:50      21.0  14.0  22.3  19.0  64  1013   ---     S     8     8   ---   --- /
25/07/2008 06:50      21.0  15.0  22.5  19.9  69  1013   ---   SSE     6     6   ---   --- /
25/07/2008 07:50      23.0  16.0  24.3  23.0  65  1014   ---     N     3     3   ---   --- /
25/07/2008 08:50      24.0  17.0  25.3  24.0  65  1014   ---     W     5     5   ---   --- /
25/07/2008 09:50      25.0  18.0  26.3  25.0  65  1014   ---     N     5     5   ---   --- /
25/07/2008 10:50      25.0  18.0  26.3  23.7  65  1014   ---     N     8     8   ---   --- /
25/07/2008 11:50      26.0  18.0  27.1  24.6  61  1014   ---     N    10    10   ---   --- /
25/07/2008 12:50      26.0  18.0  27.1  24.8  61  1013   ---   NNE     8     8   ---   --- /
25/07/2008 13:50      26.0  18.0  27.1  23.8  61  1013   ---   NNE    14    14   ---   --- /
25/07/2008 14:50      27.0  18.0  27.9  24.5  58  1012   ---    NE    19    19   ---   --- /
25/07/2008 15:50      27.0  18.0  27.9  24.1  58  1012   ---    NE    26    26   ---   --- /
25/07/2008 16:50      27.0  18.0  27.9  24.9  58  1013   ---   NNE    16    16   ---   --- /
25/07/2008 17:50      27.0  18.0  27.9  24.9  58  1012   ---    NE    16    16   ---   --- /
25/07/2008 18:50      27.0  17.0  27.7  24.5  54  1012   ---    NE    19    19   ---   --- /
25/07/2008 19:50      26.0  17.0  26.9  23.1  58  1012   ---    NE    19    19   ---   --- /
25/07/2008 20:50      26.0  17.0  26.9  23.4  58  1011   ---   ENE    18    18   ---   --- /
25/07/2008 21:50      25.0  17.0  26.1  23.4  61  1011   ---   ENE    10    10   ---   --- /
25/07/2008 22:50      25.0  16.0  25.9  25.0  57  1011   ---     N     2     2   ---   --- /
25/07/2008 23:50      24.0  15.0  24.8  24.0  57  1011   ---     N     5     5   ---   --- /
26/07/2008 00:50      24.0  16.0  25.1  24.0  61  1011   ---     N     3     3   ---   --- /
26/07/2008 01:50      23.0  15.0  24.1  22.1  61  1011   ---   SSW     6     6   ---   --- /
26/07/2008 02:50      23.0  16.0  24.3  21.3  65  1011   ---   SSW     8     8   ---   --- /
26/07/2008 03:50      23.0  15.0  24.1  23.0  61  1011   ---     N     5     5   ---   --- /
26/07/2008 04:50      22.0  16.0  23.6  20.2  69  1011   ---     S     8     8   ---   --- /
26/07/2008 06:50      23.0  16.0  24.3  23.0  65  1011   ---     S     2     2   ---   --- /
26/07/2008 07:50      25.0  16.0  25.9  25.0  57  1011   ---     N     5     5   ---   --- /
26/07/2008 08:50      25.0  18.0  26.3  25.0  65  1011   ---     N     5     5   ---   --- /
26/07/2008 09:50      26.0  19.0  27.3  23.4  65  1011   ---    NE    18    18   ---   --- /
26/07/2008 10:50      27.0  20.0  28.5  24.7  66  1011   ---   NNE    18    18   ---   --- /
26/07/2008 11:50      27.0  20.0  28.5  24.5  66  1011   ---   NNE    19    19   ---   --- /
26/07/2008 12:50      27.0  19.0  28.2  24.4  62  1011   ---    NE    21    21   ---   --- /
26/07/2008 13:50      27.0  19.0  28.2  24.0  62  1011   ---    NE    27    27   ---   --- /
26/07/2008 14:50      27.0  20.0  28.5  24.3  66  1011   ---   NNE    23    23   ---   --- /
26/07/2008 15:50      27.0  19.0  28.2  24.4  62  1011   ---   NNE    21    21   ---   --- /
26/07/2008 16:50      27.0  20.0  28.5  24.5  66  1011   ---   NNE    19    19   ---   --- /
26/07/2008 17:50      27.0  20.0  28.5  24.5  66  1011   ---   NNE    19    19   ---   --- /
26/07/2008 18:50      27.0  19.0  28.2  24.1  62  1010   ---    NE    26    26   ---   --- /
26/07/2008 19:50      27.0  19.0  28.2  24.0  62  1010   ---    NE    29    29   ---   --- /
26/07/2008 20:50      26.0  19.0  27.3  22.9  65  1010   ---    NE    23    23   ---   --- /
26/07/2008 21:50      26.0  20.0  27.6  23.1  70  1011   ---    NE    19    19   ---   --- /
26/07/2008 22:50      26.0  19.0  27.3  24.6  65  1011   ---   ENE    10    10   ---   --- /
26/07/2008 23:50      25.0  19.0  26.6  22.8  69  1011   ---    NE    13    13   ---   --- /
27/07/2008 00:50      25.0  19.0  26.6  24.3  69  1012   ---   ENE     6     6   ---   --- /
27/07/2008 01:50      25.0  20.0  26.9  23.4  74  1012   ---   NNE    10    10   ---   --- /
27/07/2008 02:50      25.0  20.0  26.9  22.8  74  1011   ---   NNE    13    13   ---   --- /
27/07/2008 03:50      24.0  19.0  25.9  22.2  74  1011   ---   ENE    10    10   ---   --- /
27/07/2008 04:50      24.0  19.0  25.9  21.5  74  1011   ---   ENE    13    13   ---   --- /
27/07/2008 05:50      24.0  19.0  25.9  21.5  74  1011   ---   ENE    13    13   ---   0.6 Few Clouds/
27/07/2008 06:50      24.0  19.0  25.9  21.1  74  1011   ---   ENE    14    14   ---   0.6 Few Clouds/
27/07/2008 07:50      25.0  19.0  26.6  22.5  69  1011   ---    NE    14    14   ---   --- /
27/07/2008 08:50      26.0  20.0  27.6  23.5  70  1012   ---    NE    16    16   ---   --- /
27/07/2008 09:50      26.0  21.0  27.9  23.4  74  1012   ---    NE    18    18   ---   --- /
27/07/2008 10:50      27.0  20.0  28.5  24.5  66  1012   ---    NE    19    19   ---   --- /
27/07/2008 11:50      27.0  21.0  28.8  24.7  70  1013   ---   NNE    18    18   ---   --- /
27/07/2008 12:50      27.0  20.0  28.5  24.7  66  1013   ---   NNE    18    18   ---   --- /
27/07/2008 13:50      27.0  20.0  28.5  24.9  66  1013   ---     N    16    16   ---   --- /
27/07/2008 14:50      27.0  21.0  28.8  25.3  70  1013   ---   NNW    13    13   ---   --- /
27/07/2008 15:50      27.0  21.0  28.8  25.1  70  1013   ---   NNW    14    14   ---   0.6 Few Clouds/
27/07/2008 16:50      28.0  22.0  30.7  26.6  70  1013   ---   NNW    13    13   ---   0.6 Few Clouds/
27/07/2008 17:50      27.0  22.0  29.2  24.9  74  1013   ---     N    16    16   ---   0.5 Few Clouds/
27/07/2008 18:20      27.0  21.0  28.8  25.1  70  1013   ---     N    14    14   ---   0.5 Few Clouds/
27/07/2008 19:50      26.0  21.0  27.9  23.8  74  1013   ---     N    14    14   ---   0.6 Few Clouds/
27/07/2008 20:50      26.0  21.0  27.9  24.1  74  1014   ---     N    13    13   ---   0.6 Scattered Clouds/
27/07/2008 21:50      26.0  21.0  27.9  24.6  74  1014   ---     N    10    10   ---   0.9 Scattered Clouds/
27/07/2008 22:50      26.0  21.0  27.9  24.8  74  1014   ---     N     8     8   ---   0.9 Scattered Clouds/
27/07/2008 23:50      26.0  21.0  27.9  24.6  74  1014   ---   NNW    10    10   ---   0.9 Scattered Clouds/
28/07/2008 00:50      25.0  20.0  26.9  23.4  74  1014   ---   NNW    10    10   ---   0.9 Scattered Clouds/
28/07/2008 01:50      25.0  21.0  27.2  23.4  79  1013   ---     N    10    10   ---   0.9 Scattered Clouds/
28/07/2008 02:50      25.0  20.0  26.9  23.4  74  1013   ---     N    10    10   ---   0.9 Scattered Clouds/
28/07/2008 03:50      25.0  20.0  26.9  22.5  74  1013   ---     N    14    14   ---   0.9 Scattered Clouds/
28/07/2008 04:50      25.0  21.0  27.2  22.1  79  1013   ---     N    16    16   ---   0.9 Scattered Clouds/
28/07/2008 05:50      25.0  20.0  26.9  22.5  74  1013   ---     N    14    14   ---   0.6 Few Clouds/
28/07/2008 06:50      25.0  20.0  26.9  22.8  74  1013   ---     N    13    13   ---   0.6 Few Clouds/
28/07/2008 07:50      25.0  21.0  27.2  22.5  79  1013   ---   NNE    14    14   ---   0.5 Few Clouds/
28/07/2008 08:50      25.0  20.0  26.9  22.5  74  1014   ---   NNE    14    14   ---   0.5 Scattered Clouds/
28/07/2008 09:50      27.0  21.0  28.8  25.1  70  1014   ---   NNE    14    14   ---   0.5 Scattered Clouds/
28/07/2008 10:50      27.0  21.0  28.8  24.9  70  1014   ---   NNE    16    16   ---   0.5 Scattered Clouds/
28/07/2008 11:50      27.0  21.0  28.8  24.9  70  1015   ---   NNE    16    16   ---   0.6 Few Clouds/
28/07/2008 12:50      27.0  21.0  28.8  24.9  70  1015   ---   NNE    16    16   ---   0.6 Few Clouds/
28/07/2008 13:50      28.0  21.0  30.1  26.2  66  1014   ---   NNE    16    16   ---   0.6 Few Clouds/
28/07/2008 14:50      27.0  21.0  28.8  24.7  70  1014   ---   NNE    18    18   ---   0.6 Few Clouds/
28/07/2008 15:50      27.0  21.0  28.8  24.5  70  1014   ---   NNE    19    19   ---   0.6 Few Clouds/
28/07/2008 16:50      27.0  21.0  28.8  24.5  70  1014   ---   NNE    19    19   ---   0.6 Few Clouds/
28/07/2008 17:50      27.0  21.0  28.8  24.9  70  1014   ---   NNE    16    16   ---   0.6 Few Clouds/
28/07/2008 18:50      27.0  21.0  28.8  24.7  70  1013   ---    NE    18    18   ---   0.6 Few Clouds/
28/07/2008 19:50      27.0  21.0  28.8  24.9  70  1014   ---    NE    16    16   ---   0.6 Scattered Clouds/
28/07/2008 20:50      26.0  21.0  27.9  23.4  74  1014   ---    NE    18    18   ---   0.6 Scattered Clouds/
28/07/2008 21:50      26.0  21.0  27.9  23.0  74  1014   ---    NE    21    21   ---   0.6 Scattered Clouds/
28/07/2008 22:50      26.0  21.0  27.9  23.4  74  1015   ---    NE    18    18   ---   0.6 Scattered Clouds/
28/07/2008 23:50      26.0  21.0  27.9  23.0  74  1014   ---    NE    21    21   ---   0.6 Few Clouds/
29/07/2008 00:50      25.0  19.0  26.6  22.5  69  1014   ---   ENE    14    14   ---   0.6 Few Clouds/
29/07/2008 01:50      25.0  20.0  26.9  22.8  74  1014   ---    NE    13    13   ---   0.6 Few Clouds/
29/07/2008 02:50      25.0  20.0  26.9  22.5  74  1014   ---   ENE    14    14   ---   0.6 Few Clouds/
29/07/2008 03:50      25.0  20.0  26.9  22.8  74  1015   ---    NE    13    13   ---   0.6 Few Clouds/
29/07/2008 04:50      25.0  20.0  26.9  22.1  74  1014   ---    NE    16    16   ---   0.6 Few Clouds/
29/07/2008 05:50      24.0  18.0  25.6  21.1  69  1014   ---   ENE    14    14   ---   0.6 Few Clouds/
29/07/2008 06:50      25.0  19.0  26.6  23.4  69  1015   ---    NE    10    10   ---   --- /
29/07/2008 07:50      26.0  20.0  27.6  24.1  70  1015   ---    NE    13    13   ---   --- /
29/07/2008 08:50      26.0  20.0  27.6  23.5  70  1015   ---    NE    16    16   ---   --- /
29/07/2008 09:50      27.0  21.0  28.8  24.7  70  1015   ---   NNE    18    18   ---   --- /
29/07/2008 10:50      27.0  27.0  31.8  24.7 100  1015   ---    NE    18    18   ---   --- /
29/07/2008 11:50      27.0  22.0  29.2  24.4  74  1016   ---   NNE    21    21   ---   --- /
29/07/2008 12:50      27.0  22.0  29.2  24.1  74  1016   ---   NNE    26    26   ---   --- /
29/07/2008 13:50      28.0  22.0  30.7  25.5  70  1016   ---   NNE    27    27   ---   --- /
29/07/2008 14:50      28.0  22.0  30.7  25.5  70  1016   ---    NE    27    27   ---   0.6 Few Clouds/
29/07/2008 15:50      28.0  22.0  30.7  25.5  70  1016   ---    NE    29    29   ---   0.6 Few Clouds/
29/07/2008 16:50      27.0  22.0  29.2  24.0  74  1015   ---    NE    27    27   ---   0.6 Few Clouds/
29/07/2008 17:50      27.0  22.0  29.2  24.0  74  1015   ---    NE    27    27   ---   0.6 Few Clouds/
29/07/2008 18:50      27.0  22.0  29.2  24.0  74  1015   ---    NE    29    29   ---   0.6 Few Clouds/
29/07/2008 19:50      27.0  22.0  29.2  24.1  74  1015   ---    NE    26    26   ---   0.6 Few Clouds/
29/07/2008 20:50      27.0  22.0  29.2  24.4  74  1016   ---    NE    21    21   ---   --- /
29/07/2008 21:50      26.0  22.0  28.3  22.6  79  1016   ---    NE    26    26   ---   --- /
29/07/2008 22:50      26.0  22.0  28.3  23.1  79  1016   ---   ENE    19    19   ---   --- /
29/07/2008 23:50      26.0  21.0  27.9  24.1  74  1017   ---   ENE    13    13   ---   --- /
30/07/2008 00:50      26.0  21.0  27.9  26.0  74  1017   ---     N     3     3   ---   --- /
30/07/2008 01:50      24.0  20.0  26.2  24.0  78  1016   ---     N     5     5   ---   --- /
30/07/2008 02:50      24.0  20.0  26.2  24.0  78  1016   ---     N     5     5   ---   --- /
30/07/2008 03:50      24.0  20.0  26.2  23.2  78  1016   ---     S     6     6   ---   --- /
30/07/2008 04:50      24.0  19.0  25.9  24.0  74  1016   ---    NE     3     3   ---   --- /
30/07/2008 05:50      23.0  19.0  25.2  23.0  78  1016   ---     S     5     5   ---   --- /
30/07/2008 06:50      23.0  19.0  25.2  23.0  78  1016   ---     S     5     5   ---   --- /
30/07/2008 07:50      25.0  20.0  26.9  25.0  74  1017   ---     N     3     3   ---   --- /
30/07/2008 08:50      26.0  22.0  28.3  26.0  79  1017   ---     N     5     5   ---   --- /
30/07/2008 09:50      26.0  22.0  28.3  25.4  79  1017   ---   NNW     6     6   ---   --- /
30/07/2008 10:50      28.0  22.0  30.7  25.5  70  1017   ---    NE    27    27   ---   --- /
30/07/2008 11:50      28.0  22.0  30.7  25.4  70  1017   ---    NE    31    31   ---   --- /
30/07/2008 12:50      29.0  22.0  32.0  26.9  66  1017   ---    NE    32    32   ---   --- /
30/07/2008 13:50      28.0  23.0  31.3  25.3  74  1017   ---    NE    34    34   ---   0.6 Few Clouds/
30/07/2008 14:50      28.0  22.0  30.7  25.2  70  1017   ---    NE    37    37   ---   0.6 Few Clouds/
30/07/2008 15:50      29.0  22.0  32.0  26.8  66  1016   ---    NE    34    34   ---   0.6 Few Clouds/
30/07/2008 16:50      29.0  22.0  32.0  26.9  66  1016   ---    NE    32    32   ---   0.6 Few Clouds/
30/07/2008 17:50      28.0  22.0  30.7  25.2  70  1016   ---   ENE    37    37   ---   0.6 Few Clouds/
30/07/2008 18:50      28.0  22.0  30.7  25.4  70  1016   ---   ENE    31    31   ---   --- /
30/07/2008 19:50      27.0  22.0  29.2  24.0  74  1016   ---   ENE    29    29   ---   --- /
30/07/2008 20:50      27.0  22.0  29.2  24.1  74  1016   ---   ENE    26    26   ---   --- /
30/07/2008 21:50      27.0  21.0  28.8  25.8  70  1017   ---   ENE    10    10   ---   --- /
30/07/2008 22:50      26.0  22.0  28.3  25.4  79  1017   ---   WSW     6     6   ---   --- /
30/07/2008 23:50      26.0  22.0  28.3  26.0  79  1017   ---     N     2     2   ---   --- /
31/07/2008 00:50      25.0  21.0  27.2  25.0  79  1017   ---     N     2     2   ---   --- /
31/07/2008 01:50      25.0  21.0  27.2  25.0  79  1017   ---     N     3     3   ---   --- /
31/07/2008 02:50      25.0  21.0  27.2  25.0  79  1016   ---     N     2     2   ---   --- /
31/07/2008 03:50      24.0  20.0  26.2  24.0  78  1016   ---     N     5     5   ---   --- /
31/07/2008 04:50      24.0  20.0  26.2  24.0  78  1016   ---     N     5     5   ---   --- /
31/07/2008 05:50      23.0  19.0  25.2  23.0  78  1016   ---     N     3     3   ---   --- /
31/07/2008 06:50      23.0  19.0  25.2  21.3  78  1016   ---     S     8     8   ---   --- /
31/07/2008 07:50      25.0  21.0  27.2  23.7  79  1016   ---   SSW     8     8   ---   --- /
31/07/2008 08:50      26.0  20.0  27.6  24.8  70  1017   ---     W     8     8   ---   --- /
31/07/2008 09:50      27.0  20.0  28.5  27.0  66  1017   ---     N     5     5   ---   --- /
31/07/2008 10:50      28.0  22.0  30.7  26.6  70  1017   ---   WNW    13    13   ---   --- /
31/07/2008 11:50      28.0  22.0  30.7  25.9  70  1017   ---   NNE    19    19   ---   --- /
31/07/2008 12:50      28.0  22.0  30.7  25.5  70  1017   ---    NE    27    27   ---   --- /
31/07/2008 13:50      29.0  21.0  31.4  27.0  62  1016   ---    NE    29    29   ---   0.6 Few Clouds/
31/07/2008 14:50      29.0  23.0  32.8  26.9  70  1016   ---    NE    31    31   ---   0.6 Few Clouds/
31/07/2008 15:50      29.0  23.0  32.8  26.9  70  1016   ---   ENE    32    32   ---   0.6 Few Clouds/
31/07/2008 16:50      30.0  22.0  33.3  28.5  62  1016   ---   ENE    29    29   ---   --- /
31/07/2008 17:50      29.0  23.0  32.8  27.0  70  1015   ---     E    27    27   ---   --- /
31/07/2008 18:50      29.0  23.0  32.8  27.0  70  1015   ---   ENE    27    27   ---   --- /
31/07/2008 19:50      28.0  23.0  31.3  25.4  74  1015   ---   ENE    31    31   ---   --- /
31/07/2008 20:50      28.0  21.0  30.1  25.8  66  1016   ---   ENE    23    23   ---   --- /
31/07/2008 21:50      28.0  21.0  30.1  26.4  66  1016   ---    NE    14    14   ---   --- /
31/07/2008 22:50      28.0  20.0  29.7  27.0  62  1016   ---   WSW    10    10   ---   --- /
31/07/2008 23:50      27.0  21.0  28.8  25.3  70  1016   ---    SW    13    13   ---   --- /
01/08/2008 00:50      25.0  19.0  26.6  25.0  69  1016   ---     N     3     3   ---   --- /
01/08/2008 01:50      25.0  17.0  26.1  25.0  61  1016   ---     N     2     2   ---   --- /
01/08/2008 02:50      25.0  18.0  26.3  25.0  65  1016   ---     N     5     5   ---   --- /
01/08/2008 03:50      24.0  19.0  25.9  24.0  74  1016   ---     N     5     5   ---   --- /
01/08/2008 04:50      24.0  18.0  25.6  24.0  69  1016   ---     N     5     5   ---   --- /
01/08/2008 05:50      23.0  17.0  24.6  23.0  69  1015   ---     N     5     5   ---   --- /
01/08/2008 06:50      24.0  18.0  25.6  23.2  69  1016   ---     S     6     6   ---   --- /
01/08/2008 07:20      25.0  19.0  26.6  25.0  69  1016   ---     N     3     3   ---   --- /
01/08/2008 08:50      26.0  21.0  27.9  26.0  74  1017   ---     N     3     3   ---   --- /
01/08/2008 09:50      27.0  19.0  28.2  27.0  62  1017   ---     N     5     5   ---   --- /
01/08/2008 10:50      27.0  21.0  28.8  24.5  70  1017   ---   NNE    19    19   ---   --- /
01/08/2008 11:50      28.0  23.0  31.3  25.6  74  1017   ---    NE    26    26   ---   --- /
01/08/2008 12:50      28.0  23.0  31.3  25.5  74  1016   ---    NE    29    29   ---   --- /
01/08/2008 13:50      29.0  22.0  32.0  26.9  66  1016   ---    NE    32    32   ---   --- /
01/08/2008 14:50      29.0  23.0  32.8  26.9  70  1016   ---    NE    32    32   ---   --- /
01/08/2008 15:50      29.0  23.0  32.8  26.9  70  1015   ---    NE    31    31   ---   --- /
01/08/2008 16:50      29.0  22.0  32.0  26.9  66  1015   ---   ENE    31    31   ---   --- /
01/08/2008 17:50      29.0  22.0  32.0  26.9  66  1015   ---   ENE    31    31   ---   --- /
01/08/2008 19:50      28.0  21.0  30.1  25.2  66  1015   ---   ENE    37    37   ---   --- /
01/08/2008 20:50      28.0  21.0  30.1  25.4  66  1015   ---   ENE    31    31   ---   --- /
01/08/2008 21:50      27.0  21.0  28.8  24.7  70  1016   ---    NE    18    18   ---   --- /
01/08/2008 22:50      28.0  19.0  29.3  28.0  58  1016   ---     N     5     5   ---   --- /
01/08/2008 23:50      27.0  21.0  28.8  25.3  70  1016   ---    SW    13    13   ---   --- /
02/08/2008 00:50      26.0  20.0  27.6  26.0  70  1016   ---     N     5     5   ---   --- /
02/08/2008 01:50      25.0  19.0  26.6  25.0  69  1016   ---     N     2     2   ---   --- /
02/08/2008 02:50      25.0  16.0  25.9  24.3  57  1016   ---     S     6     6   ---   --- /
02/08/2008 03:50      26.0  16.0  26.7  26.0  54  1016   ---     N     2     2   ---   --- /
02/08/2008 04:50      24.0  16.0  25.1  22.5  61  1016   ---    NE     8     8   ---   --- /
02/08/2008 05:50      24.0  18.0  25.6  23.2  69  1015   ---   ENE     6     6   ---   --- /
02/08/2008 06:50      23.0  16.0  24.3  23.0  65  1016   ---     N     2     2   ---   --- /
02/08/2008 07:50      25.0  19.0  26.6  25.0  69  1017   ---    SW     5     5   ---   --- /
02/08/2008 08:20      25.0  19.0  26.6  25.0  69  1017   ---    SW     5     5   ---   --- /
02/08/2008 09:50      27.0  21.0  28.8  25.3  70  1018   ---   NNE    13    13   ---   --- /
02/08/2008 10:50      28.0  23.0  31.3  25.9  74  1017   ---    NE    21    21   ---   --- /
02/08/2008 11:50      28.0  23.0  31.3  25.8  74  1018   ---    NE    23    23   ---   --- /
02/08/2008 12:50      28.0  23.0  31.3  25.9  74  1018   ---   NNE    21    21   ---   --- /
02/08/2008 13:50      28.0  23.0  31.3  25.9  74  1017   ---   NNE    21    21   ---   --- /
02/08/2008 14:50      28.0  23.0  31.3  25.8  74  1017   ---   NNE    23    23   ---   --- /
02/08/2008 15:50      29.0  21.0  31.4  27.2  62  1017   ---    NE    23    23   ---   --- /
02/08/2008 16:50      29.0  22.0  32.0  27.3  66  1017   ---    NE    21    21   ---   --- /
02/08/2008 17:50      29.0  22.0  32.0  27.3  66  1016   ---    NE    21    21   ---   --- /
02/08/2008 18:50      29.0  21.0  31.4  27.2  62  1016   ---   ENE    23    23   ---   --- /
02/08/2008 19:50      28.0  21.0  30.1  25.8  66  1016   ---    NE    23    23   ---   --- /
02/08/2008 20:50      28.0  21.0  30.1  25.9  66  1016   ---    NE    21    21   ---   --- /
02/08/2008 21:20      27.0  22.0  29.2  24.7  74  1017   ---    NE    18    18   ---   --- /
02/08/2008 22:50      27.0  22.0  29.2  24.7  74  1017   ---    NE    18    18   ---   --- /
02/08/2008 23:50      27.0  20.0  28.5  24.9  66  1017   ---    NE    16    16   ---   --- /
03/08/2008 00:50      27.0  22.0  29.2  25.8  74  1017   ---   WSW    10    10   ---   --- /
03/08/2008 01:50      25.0  19.0  26.6  25.0  69  1016   ---    NE     3     3   ---   --- /
03/08/2008 02:50      24.0  18.0  25.6  24.0  69  1016   ---    SE     3     3   ---   --- /
03/08/2008 03:50      25.0  18.0  26.3  25.0  65  1016   ---     N     5     5   ---   --- /
03/08/2008 04:50      25.0  18.0  26.3  25.0  65  1016   ---     N     3     3   ---   --- /
03/08/2008 05:50      24.0  18.0  25.6  24.0  69  1016   ---     N     2     2   ---   --- /
03/08/2008 06:50      23.0  18.0  24.9  23.0  73  1016   ---   SSE     5     5   ---   --- /
03/08/2008 07:50      26.0  20.0  27.6  26.0  70  1017   ---     S     5     5   ---   --- /
03/08/2008 08:50      27.0  21.0  28.8  27.0  70  1017   ---     N     3     3   ---   --- /
03/08/2008 09:50      28.0  22.0  30.7  27.5  70  1017   ---     N     6     6   ---   --- /
03/08/2008 10:50      28.0  22.0  30.7  27.0  70  1017   ---     N    10    10   ---   --- /
03/08/2008 11:50      28.0  22.0  30.7  26.6  70  1018   ---     N    13    13   ---   --- /
03/08/2008 12:50      29.0  21.0  31.4  27.7  62  1018   ---     N    14    14   ---   --- /
03/08/2008 13:50      29.0  22.0  32.0  27.7  66  1017   ---     N    14    14   ---   --- /
03/08/2008 14:50      29.0  22.0  32.0  27.6  66  1017   ---   NNE    16    16   ---   --- /
03/08/2008 15:50      29.0  22.0  32.0  27.5  66  1017   ---   NNE    18    18   ---   --- /
03/08/2008 16:50      29.0  22.0  32.0  27.4  66  1016   ---   NNE    19    19   ---   --- /
03/08/2008 17:50      29.0  22.0  32.0  27.3  66  1016   ---   NNE    21    21   ---   --- /
03/08/2008 18:50      28.0  22.0  30.7  25.8  70  1015   ---    NE    23    23   ---   --- /
03/08/2008 19:50      28.0  22.0  30.7  25.9  70  1015   ---   NNE    21    21   ---   --- /
03/08/2008 20:50      27.0  21.0  28.8  24.7  70  1015   ---    NE    18    18   ---   --- /
03/08/2008 21:50      27.0  22.0  29.2  24.7  74  1016   ---    NE    18    18   ---   --- /
03/08/2008 22:50      26.0  22.0  28.3  24.8  79  1016   ---     E     8     8   ---   --- /
03/08/2008 23:50      26.0  21.0  27.9  26.0  74  1016   ---     N     3     3   ---   --- /
04/08/2008 00:50      25.0  21.0  27.2  25.0  79  1016   ---     N     0     0   ---   --- /
04/08/2008 01:50      25.0  21.0  27.2  25.0  79  1016   ---   ---     3     3   ---   --- /
04/08/2008 02:50      24.0  19.0  25.9  23.2  74  1016   ---   SSW     6     6   ---   --- /
04/08/2008 03:50      24.0  19.0  25.9  24.0  74  1015   ---     S     5     5   ---   --- /
04/08/2008 04:50      24.0  19.0  25.9  24.0  74  1015   ---   SSE     5     5   ---   --- /
04/08/2008 05:50      23.0  18.0  24.9  23.0  73  1015   ---     S     5     5   ---   --- /
04/08/2008 06:50      23.0  19.0  25.2  23.0  78  1015   ---     S     3     3   ---   --- /
04/08/2008 07:50      25.0  21.0  27.2  25.0  79  1016   ---     W     2     2   ---   --- /
04/08/2008 08:50      27.0  22.0  29.2  24.5  74  1016   ---   ENE    19    19   ---   --- /
04/08/2008 09:50      29.0  22.0  32.0  28.3  66  1016   ---     N     8     8   ---   --- /
04/08/2008 10:50      28.0  22.0  30.7  25.9  70  1016   ---    NE    21    21   ---   --- /
04/08/2008 11:50      29.0  22.0  32.0  27.2  66  1016   ---    NE    23    23   ---   --- /
04/08/2008 12:50      29.0  22.0  32.0  27.0  66  1015   ---    NE    27    27   ---   --- /
04/08/2008 13:50      29.0  21.0  31.4  27.0  62  1015   ---    NE    27    27   ---   --- /
04/08/2008 14:50      29.0  22.0  32.0  27.0  66  1015   ---   NNE    27    27   ---   --- /
04/08/2008 15:50      29.0  23.0  32.8  26.9  70  1015   ---    NE    31    31   ---   --- /
04/08/2008 16:50      29.0  23.0  32.8  26.9  70  1014   ---    NE    31    31   ---   --- /
04/08/2008 17:50      29.0  23.0  32.8  26.9  70  1014   ---    NE    31    31   ---   --- /
04/08/2008 18:50      29.0  24.0  33.6  27.0  75  1014   ---    NE    29    29   ---   --- /
04/08/2008 19:50      28.0  23.0  31.3  25.6  74  1014   ---    NE    26    26   ---   --- /
04/08/2008 20:50      28.0  23.0  31.3  25.9  74  1014   ---   ENE    19    19   ---   --- /
04/08/2008 21:50      27.0  22.0  29.2  27.0  74  1015   ---     N     5     5   ---   --- /
04/08/2008 22:50      27.0  23.0  29.6  27.0  79  1015   ---     N     5     5   ---   --- /
04/08/2008 23:50      26.0  23.0  28.6  26.0  84  1015   ---   SSW     5     5   ---   --- /
05/08/2008 00:50      25.0  22.0  27.6  25.0  83  1015   ---   SSW     3     3   ---   --- /
05/08/2008 01:50      24.0  20.0  26.2  24.0  78  1015   ---   SSW     5     5   ---   --- /
05/08/2008 02:50      25.0  21.0  27.2  25.0  79  1014   ---    SE     2     2   ---   --- /
05/08/2008 03:50      25.0  21.0  27.2  25.0  79  1014   ---     N     3     3   ---   --- /
05/08/2008 04:50      25.0  20.0  26.9  25.0  74  1014   ---     N     2     2   ---   --- /
05/08/2008 05:50      23.0  18.0  24.9  21.3  73   ---   ---     S     8     8   ---   --- /
05/08/2008 06:50      23.0  19.0  25.2  22.1  78   ---   ---     S     6     6   ---   --- /
05/08/2008 07:50      25.0  21.0  27.2  25.0  79   ---   ---     N     3     3   ---   --- /
05/08/2008 08:50      26.0  22.0  28.3  24.6  79   ---   ---   WSW    10    10   ---   --- /
05/08/2008 09:50      26.0  22.0  28.3  24.8  79   ---   ---     W     8     8   ---   --- /
05/08/2008 10:50      27.0  23.0  29.6  26.4  79   ---   ---   WNW     6     6   ---   --- /
05/08/2008 11:50      28.0  23.0  31.3  27.5  74  1015   ---    NW     6     6   ---   --- /
05/08/2008 12:50      30.0  21.0  32.6  30.0  59  1015   ---     N     5     5   ---   --- /
05/08/2008 13:50      29.0  22.0  32.0  27.5  66  1015   ---     N    18    18   ---   --- /
05/08/2008 14:50      29.0  21.0  31.4  27.5  62  1015   ---     N    18    18   ---   --- /
05/08/2008 15:50      29.0  21.0  31.4  27.6  62  1015   ---     N    16    16   ---   --- /
05/08/2008 16:50      30.0  21.0  32.6  28.8  59  1014   ---   NNE    19    19   ---   --- /
05/08/2008 17:50      29.0  21.0  31.4  27.1  62  1014   ---    NE    26    26   ---   --- /
05/08/2008 17:50      29.0  21.0  31.4  27.1  62  1014   ---    NE    26    26   ---   --- None reported/None reported
06/08/2008 08:20      26.0  19.0  27.3  25.4  65  1013   ---   SSW     6     6   ---   --- /
06/08/2008 09:50      27.0  22.0  29.2  26.0  74  1013   ---   WSW     8     8   ---   --- /
06/08/2008 10:50      28.0  22.0  30.7  27.0  70  1014   ---    NW    10    10   ---   --- /
06/08/2008 11:50      28.0  23.0  31.3  27.0  74  1013   ---   NNE    10    10   ---   --- /
06/08/2008 12:50      29.0  22.0  32.0  28.3  66  1013   ---    NW     8     8   ---   --- /
06/08/2008 13:50      30.0  20.0  31.9  28.8  55  1013   ---   NNE    19    19   ---   --- /
06/08/2008 14:50      30.0  21.0  32.6  28.8  59  1013   ---   NNE    19    19   ---   --- /
06/08/2008 15:50      29.0  23.0  32.8  27.4  70  1013   ---   NNE    19    19   ---   --- /
06/08/2008 16:50      30.0  23.0  34.2  28.7  66  1012   ---   NNE    21    21   ---   --- /
06/08/2008 17:50      30.0  22.0  33.3  28.7  62  1012   ---    NE    23    23   ---   --- /
06/08/2008 18:50      30.0  22.0  33.3  28.5  62  1011   ---    NE    27    27   ---   --- /
06/08/2008 19:50      29.0  23.0  32.8  27.2  70  1012   ---    NE    23    23   ---   --- /
06/08/2008 20:50      28.0  23.0  31.3  25.8  74  1012   ---    NE    23    23   ---   --- /
06/08/2008 21:50      28.0  22.0  30.7  25.9  70  1012   ---   ENE    21    21   ---   --- /
06/08/2008 22:50      27.0  22.0  29.2  27.0  74  1013   ---     N     5     5   ---   --- /
06/08/2008 23:50      27.0  22.0  29.2  27.0  74  1012   ---     N     5     5   ---   --- /
07/08/2008 00:50      26.0  22.0  28.3  26.0  79  1012   ---     N     5     5   ---   --- /
07/08/2008 01:50      25.0  20.0  26.9  25.0  74  1012   ---     N     5     5   ---   --- /
07/08/2008 02:50      25.0  21.0  27.2  25.0  79  1012   ---     N     5     5   ---   --- /
07/08/2008 04:50      25.0  19.0  26.6  25.0  69  1012   ---     N     2     2   ---   --- /
07/08/2008 05:50      25.0  19.0  26.6  25.0  69  1012   ---     N     5     5   ---   --- /
07/08/2008 06:50      24.0  19.0  25.9  23.2  74  1012   ---   SSW     6     6   ---   --- /
07/08/2008 07:50      26.0  21.0  27.9  26.0  74  1012   ---    SW     5     5   ---   --- /
07/08/2008 08:50      27.0  22.0  29.2  27.0  74  1012   ---   WSW     5     5   ---   --- /
07/08/2008 09:50      28.0  23.0  31.3  27.5  74  1012   ---     N     6     6   ---   --- /
07/08/2008 10:50      29.0  22.0  32.0  29.0  66  1013   ---     N     5     5   ---   --- /
07/08/2008 11:50      29.0  23.0  32.8  27.3  70  1013   ---    NE    21    21   ---   --- /
07/08/2008 12:50      31.0  22.0  34.6  30.0  59  1012   ---    NE    26    26   ---   --- /
07/08/2008 13:50      31.0  23.0  35.5  30.0  63  1012   ---    NE    29    29   ---   --- /
07/08/2008 14:50      31.0  21.0  33.8  30.0  55  1011   ---   ENE    31    31   ---   --- /
07/08/2008 15:50      32.0  22.0  35.8  31.5  56  1011   ---    NE    26    26   ---   --- /
07/08/2008 16:50      31.0  22.0  34.6  30.0  59  1011   ---    NE    29    29   ---   --- /
07/08/2008 17:50      31.0  23.0  35.5  30.0  63  1011   ---    NE    27    27   ---   --- /
07/08/2008 18:50      29.0  23.0  32.8  27.0  70  1010   ---    NE    29    29   ---   --- /
07/08/2008 19:50      29.0  22.0  32.0  27.1  66  1011   ---    NE    26    26   ---   --- /
07/08/2008 20:50      29.0  23.0  32.8  27.5  70  1011   ---     E    18    18   ---   --- /
07/08/2008 21:50      28.0  22.0  30.7  27.0  70  1011   ---   SSW    10    10   ---   --- /
07/08/2008 23:50      26.0  21.0  27.9  25.4  74  1011   ---   SSE     6     6   ---   --- /
08/08/2008 00:50      26.0  19.0  27.3  26.0  65  1011   ---     N     3     3   ---   --- /
08/08/2008 01:50      25.0  19.0  26.6  25.0  69  1011   ---     N     2     2   ---   --- /
08/08/2008 02:50      26.0  15.0  26.5  26.0  51  1010   ---     N     3     3   ---   --- /
08/08/2008 03:50      24.0  16.0  25.1  22.5  61  1010   ---   ESE     8     8   ---   --- /
08/08/2008 04:50      24.0  18.0  25.6  22.5  69  1010   ---   SSW     8     8   ---   --- /
08/08/2008 05:50      25.0  17.0  26.1  25.0  61  1010   ---    SE     5     5   ---   --- /
08/08/2008 06:50      25.0  16.0  25.9  25.0  57  1010   ---     S     3     3   ---   --- /
08/08/2008 07:50      26.0  17.0  26.9  24.8  58  1010   ---   SSW     8     8   ---   --- /
08/08/2008 08:50      28.0  17.0  28.6  27.5  51  1010   ---     N     6     6   ---   --- /
08/08/2008 09:50      28.0  21.0  30.1  27.2  66  1010   ---   NNE     8     8   ---   --- /
08/08/2008 10:50      29.0  22.0  32.0  27.9  66  1011   ---   NNE    13    13   ---   --- /
08/08/2008 11:50      30.0  22.0  33.3  29.0  62  1011   ---   NNE    14    14   ---   --- /
08/08/2008 12:50      32.0  21.0  34.9  31.8  52  1010   ---   NNE    10    10   ---   --- /
08/08/2008 13:50      30.0  22.0  33.3  28.9  62  1010   ---    NE    18    18   ---   --- /
08/08/2008 14:50      31.0  24.0  36.6  30.6  66  1009   ---   NNE    10    10   ---   --- /
08/08/2008 15:50      32.0  20.0  34.2  31.9  49  1010   ---    NE     6     6   ---   --- /
08/08/2008 16:50      30.0  23.0  34.2  28.9  66  1010   ---    NE    18    18   ---   --- /
08/08/2008 17:50      30.0  24.0  35.1  29.7  70  1009   ---     N     6     6   ---   --- /
08/08/2008 18:50      29.0  24.0  33.6  27.6  75  1008   ---   WNW    16    16   ---   --- /
08/08/2008 19:50      29.0  24.0  33.6  27.3  75  1009   ---   WNW    21    21   ---   --- /
08/08/2008 20:50      28.0  24.0  31.9  26.6  79  1010   ---   WNW    13    13   ---   --- /
08/08/2008 21:50      28.0  24.0  31.9  25.9  79  1010   ---   WNW    19    19   ---   --- /
08/08/2008 22:50      29.0  22.0  32.0  27.4  66  1010   ---     W    19    19   ---   --- /
08/08/2008 23:50      28.0  22.0  30.7  25.9  70  1010   ---     W    21    21   ---   --- /
09/08/2008 00:50      28.0  23.0  31.3  25.5  74  1010   ---   WNW    27    27   ---   --- /
09/08/2008 01:50      27.0  23.0  29.6  25.1  79  1010   ---     W    14    14   ---   --- /
09/08/2008 02:50      26.0  21.0  27.9  23.5  74  1010   ---     S    16    16   ---   --- /
09/08/2008 03:50      27.0  21.0  28.8  24.1  70  1010   ---   WSW    26    26   ---   --- /
09/08/2008 04:50      27.0  22.0  29.2  25.8  74  1010   ---     W    10    10   ---   --- /
09/08/2008 05:50      27.0  23.0  29.6  24.7  79  1010   ---     W    18    18   ---   --- /
09/08/2008 06:50      25.0  21.0  27.2  25.0  79  1010   ---     S     5     5   ---   --- /
09/08/2008 07:50      26.0  21.0  27.9  25.4  74  1011   ---   SSW     6     6   ---   --- /
09/08/2008 08:50      27.0  21.0  28.8  26.0  70  1011   ---    SW     8     8   ---   --- /
09/08/2008 09:50      28.0  22.0  30.7  27.5  70  1011   ---   WNW     6     6   ---   --- /
09/08/2008 10:50      28.0  22.0  30.7  27.5  70  1012   ---   NNW     6     6   ---   0.7 Few Clouds/
09/08/2008 11:50      29.0  23.0  32.8  28.6  70  1012   ---    NW     6     6   ---   0.6 Few Clouds/
09/08/2008 12:50      29.0  24.0  33.6  28.2  75  1012   ---   NNW    10    10   ---   0.6 Few Clouds/
09/08/2008 13:50      29.0  23.0  32.8  28.2  70  1012   ---   NNW    10    10   ---   0.6 Few Clouds/
09/08/2008 14:50      29.0  23.0  32.8  28.2  70  1011   ---    NW    10    10   ---   0.6 Few Clouds/
09/08/2008 15:50      29.0  24.0  33.6  27.7  75  1011   ---   WNW    14    14   ---   0.6 Few Clouds/
09/08/2008 16:50      28.0  23.0  31.3  25.6  74  1011   ---   WNW    26    26   ---   0.6 Few Clouds/
09/08/2008 17:50      28.0  21.0  30.1  25.6  66  1011   ---   WNW    26    26   ---   0.6 Few Clouds/
09/08/2008 18:50      27.0  20.0  28.5  24.0  66  1011   ---     W    29    29   ---   0.6 Few Clouds/
09/08/2008 19:50      27.0  21.0  28.8  24.5  70  1011   ---     W    19    19   ---   0.8 Scattered Clouds/
09/08/2008 20:50      27.0  21.0  28.8  24.5  70  1011   ---   WSW    19    19   ---   0.8 Scattered Clouds/
09/08/2008 21:50      27.0  20.0  28.5  24.1  66  1012   ---     W    26    26   ---   0.8 Scattered Clouds/
09/08/2008 22:50      27.0  21.0  28.8  24.3  70  1012   ---     W    23    23   ---   0.8 Scattered Clouds/
09/08/2008 23:50      27.0  20.0  28.5  24.7  66  1012   ---     W    18    18   ---   0.8 Scattered Clouds/
10/08/2008 00:50      27.0  20.0  28.5  24.9  66  1012   ---   WNW    16    16   ---   0.8 Scattered Clouds/
10/08/2008 01:50      27.0  20.0  28.5  26.4  66  1011   ---   WNW     6     6   ---   0.8 Few Clouds/
10/08/2008 02:50      26.0  20.0  27.6  25.4  70  1011   ---   NNW     6     6   ---   0.8 Few Clouds/
10/08/2008 03:50      26.0  20.0  27.6  24.8  70  1011   ---     N     8     8   ---   0.8 Few Clouds/
10/08/2008 04:50      26.0  19.0  27.3  24.1  65  1010   ---   NNW    13    13   ---   0.8 Few Clouds/
10/08/2008 05:50      26.0  19.0  27.3  24.8  65  1010   ---   NNW     8     8   ---   0.8 Few Clouds/
10/08/2008 06:50      26.0  20.0  27.6  23.5  70  1011   ---   NNW    16    16   ---   0.8 Broken Clouds/
10/08/2008 07:50      26.0  20.0  27.6  23.0  70  1011   ---     N    21    21   ---   0.8 Scattered Clouds/
10/08/2008 08:50      27.0  20.0  28.5  24.9  66  1012   ---     N    16    16   ---   0.8 Scattered Clouds/
10/08/2008 09:50      27.0  20.0  28.5  24.9  66  1012   ---     N    16    16   ---   0.8 Scattered Clouds/
10/08/2008 10:50      27.0  21.0  28.8  25.1  70  1012   ---     N    14    14   ---   0.8 Scattered Clouds/
10/08/2008 11:50      27.0  21.0  28.8  24.4  70  1012   ---     N    21    21   ---   0.7 Scattered Clouds/
10/08/2008 12:50      28.0  22.0  30.7  25.9  70  1012   ---   NNW    21    21   ---   0.6 Scattered Clouds/
10/08/2008 13:50      28.0  22.0  30.7  26.1  70  1012   ---     N    18    18   ---   0.6 Scattered Clouds/
10/08/2008 14:50      28.0  22.0  30.7  25.9  70  1012   ---   NNW    19    19   ---   0.6 Scattered Clouds/
10/08/2008 15:50      28.0  22.0  30.7  25.9  70  1012   ---   NNW    21    21   ---   0.6 Scattered Clouds/
10/08/2008 16:50      28.0  21.0  30.1  26.2  66  1012   ---     N    16    16   ---   0.6 Scattered Clouds/
10/08/2008 17:50      27.0  21.0  28.8  24.9  70  1011   ---   NNE    16    16   ---   0.6 Scattered Clouds/
10/08/2008 18:50      27.0  21.0  28.8  25.1  70  1011   ---   NNE    14    14   ---   0.6 Few Clouds/
10/08/2008 19:50      27.0  21.0  28.8  25.3  70  1011   ---   NNE    13    13   ---   0.6 Few Clouds/
10/08/2008 20:50      27.0  21.0  28.8  25.3  70  1011   ---   NNE    13    13   ---   0.6 Few Clouds/
10/08/2008 21:50      26.0  20.0  27.6  24.8  70  1012   ---    NE     8     8   ---   0.6 Scattered Clouds/
10/08/2008 22:50      26.0  20.0  27.6  26.0  70  1012   ---     N     5     5   ---   0.6 Scattered Clouds/
10/08/2008 23:50      25.0  19.0  26.6  25.0  69  1012   ---     N     5     5   ---   0.6 Scattered Clouds/
11/08/2008 00:50      24.0  18.0  25.6  22.5  69  1011   ---   SSE     8     8   ---   0.6 Scattered Clouds/
11/08/2008 01:50      24.0  18.0  25.6  22.5  69  1011   ---   SSE     8     8   ---   0.6 Scattered Clouds/
11/08/2008 02:50      25.0  20.0  26.9  25.0  74  1011   ---     N     2     2   ---   0.6 Scattered Clouds/
11/08/2008 03:50      26.0  21.0  27.9  25.4  74  1011   ---   NNE     6     6   ---   0.6 Scattered Clouds/
11/08/2008 04:50      25.0  20.0  26.9  25.0  74  1010   ---     N     5     5   ---   0.6 Few Clouds/
11/08/2008 05:50      23.0  19.0  25.2  21.3  78  1011   ---   SSE     8     8   ---   0.6 Few Clouds/
11/08/2008 06:50      23.0  18.0  24.9  22.1  73  1011   ---   SSE     6     6   ---   0.6 Few Clouds/
11/08/2008 07:50      25.0  19.0  26.6  24.3  69  1011   ---     S     6     6   ---   0.6 Few Clouds/
11/08/2008 08:50      26.0  20.0  27.6  25.4  70  1011   ---    SW     6     6   ---   0.6 Few Clouds/
11/08/2008 09:50      27.0  21.0  28.8  27.0  70  1011   ---     N     5     5   ---   0.6 Few Clouds/
11/08/2008 10:50      27.0  20.0  28.5  26.0  66  1012   ---   NNW     8     8   ---   0.6 Few Clouds/
11/08/2008 11:50      27.0  20.0  28.5  25.8  66  1011   ---   NNW    10    10   ---   0.6 Few Clouds/
11/08/2008 12:50      28.0  20.0  29.7  27.0  62  1011   ---     N    10    10   ---   0.6 Few Clouds/
11/08/2008 13:50      28.0  20.0  29.7  26.6  62  1011   ---     N    13    13   ---   0.6 Few Clouds/
11/08/2008 14:50      28.0  20.0  29.7  26.4  62  1011   ---     N    14    14   ---   0.6 Few Clouds/
11/08/2008 15:50      28.0  20.0  29.7  25.9  62  1010   ---   NNE    19    19   ---   0.6 Few Clouds/
11/08/2008 16:50      28.0  20.0  29.7  25.9  62  1010   ---   NNE    19    19   ---   --- /
11/08/2008 17:50      28.0  20.0  29.7  25.9  62  1010   ---   NNE    21    21   ---   --- /
11/08/2008 17:50      28.0  20.0  29.7  25.9  62  1010   ---   NNE    21    21   ---   --- None reported/None reported
11/08/2008 17:50      28.0  20.0  29.7  25.9  62  1010   ---   NNE    21    21   ---   --- None reported/None reported
11/08/2008 18:50      28.0  19.0  29.3  25.8  58  1010   ---    NE    23    23   ---   --- /
11/08/2008 19:50      27.0  19.0  28.2  24.1  62  1009   ---    NE    26    26   ---   --- /
11/08/2008 20:50      27.0  19.0  28.2  24.5  62  1010   ---   ENE    19    19   ---   --- /
11/08/2008 21:50      27.0  18.0  27.9  25.1  58  1010   ---   ENE    14    14   ---   --- /
11/08/2008 22:50      26.0  18.0  27.1  26.0  61  1010   ---     N     5     5   ---   --- /
11/08/2008 23:50      26.0  18.0  27.1  25.4  61  1010   ---   NNE     6     6   ---   --- /
12/08/2008 00:50      24.0  18.0  25.6  24.0  69  1010   ---     N     5     5   ---   --- /
12/08/2008 01:50      25.0  19.0  26.6  24.3  69  1010   ---     E     6     6   ---   --- /
12/08/2008 02:50      24.0  18.0  25.6  24.0  69  1009   ---     N     3     3   ---   --- /
12/08/2008 03:50      23.0  17.0  24.6  21.3  69  1009   ---     S     8     8   ---   --- /
12/08/2008 04:50      24.0  17.0  25.3  22.5  65  1009   ---     S     8     8   ---   --- /
12/08/2008 05:50      23.0  18.0  24.9  23.0  73  1009   ---     N     5     5   ---   --- /
12/08/2008 06:50      23.0  18.0  24.9  23.0  73  1010   ---     N     2     2   ---   --- /
12/08/2008 07:50      24.0  19.0  25.9  24.0  74  1010   ---     S     5     5   ---   --- /
12/08/2008 08:50      26.0  19.0  27.3  24.8  65  1011   ---   WSW     8     8   ---   --- /
12/08/2008 09:50      27.0  19.0  28.2  26.4  62  1011   ---     W     6     6   ---   --- /
12/08/2008 10:50      28.0  19.0  29.3  27.5  58  1012   ---   NNW     6     6   ---   --- /
12/08/2008 11:50      28.0  20.0  29.7  26.4  62  1012   ---   NNE    14    14   ---   --- /
12/08/2008 11:50      28.0  20.0  29.7  26.4  62  1012   ---   NNE    14    14   ---   --- None reported/None reported
12/08/2008 12:50      29.0  21.0  31.4  27.4  62  1012   ---   NNE    19    19   ---   --- /
12/08/2008 13:50      29.0  20.0  30.8  27.1  58  1011   ---    NE    26    26   ---   --- /
12/08/2008 14:50      29.0  22.0  32.0  27.0  66  1011   ---    NE    27    27   ---   --- /
12/08/2008 15:50      29.0  22.0  32.0  27.0  66  1011   ---    NE    27    27   ---   --- /
12/08/2008 16:50      30.0  21.0  32.6  28.6  59  1011   ---    NE    26    26   ---   --- /
12/08/2008 17:50      30.0  20.0  31.9  28.6  55  1011   ---    NE    26    26   ---   --- /
12/08/2008 18:50      29.0  20.0  30.8  27.1  58  1011   ---    NE    26    26   ---   --- /
12/08/2008 19:50      29.0  20.0  30.8  27.3  58  1011   ---    NE    21    21   ---   --- /
12/08/2008 20:50      29.0  18.0  29.9  28.3  52  1011   ---     E     8     8   ---   --- /
12/08/2008 21:50      27.0  20.0  28.5  24.7  66  1011   ---   SSW    18    18   ---   --- /
12/08/2008 22:50      27.0  20.0  28.5  25.1  66  1012   ---    SW    14    14   ---   --- /
12/08/2008 23:20      27.0  20.0  28.5  25.3  66  1012   ---    SW    13    13   ---   --- /
13/08/2008 00:50      26.0  19.0  27.3  26.0  65  1011   ---     N     0     0   ---   --- /
13/08/2008 01:50      25.0  19.0  26.6  25.0  69  1011   ---   ---     3     3   ---   --- /
13/08/2008 02:50      25.0  18.0  26.3  25.0  65  1011   ---     N     3     3   ---   --- /
13/08/2008 03:50      25.0  17.0  26.1  24.3  61  1011   ---     S     6     6   ---   --- /
13/08/2008 04:50      24.0  18.0  25.6  22.2  69  1012   ---   SSW    10    10   ---   --- /
13/08/2008 05:50      25.0  18.0  26.3  25.0  65  1012   ---    SW     5     5   ---   --- /
13/08/2008 06:50      24.0  17.0  25.3  24.0  65  1012   ---   NNE     2     2   ---   --- /
13/08/2008 07:50      26.0  19.0  27.3  26.0  65  1013   ---     N     5     5   ---   --- /
13/08/2008 08:50      26.0  19.0  27.3  25.4  65  1013   ---     W     6     6   ---   --- /
13/08/2008 09:50      28.0  20.0  29.7  28.0  62  1013   ---     N     5     5   ---   --- /
13/08/2008 10:50      28.0  21.0  30.1  27.2  66  1014   ---     N     8     8   ---   --- /
13/08/2008 11:50      28.0  22.0  30.7  26.6  70  1014   ---     N    13    13   ---   --- /
13/08/2008 12:50      29.0  22.0  32.0  27.5  66  1014   ---   NNE    18    18   ---   --- /
13/08/2008 13:50      29.0  22.0  32.0  27.2  66  1014   ---   NNE    23    23   ---   --- /
13/08/2008 14:50      29.0  22.0  32.0  27.5  66  1014   ---   NNE    18    18   ---   --- /
13/08/2008 15:50      30.0  22.0  33.3  28.9  62  1014   ---   NNE    18    18   ---   --- /
13/08/2008 16:50      29.0  22.0  32.0  27.5  66  1014   ---   NNE    18    18   ---   --- /
13/08/2008 17:50      29.0  22.0  32.0  27.4  66  1014   ---   NNE    19    19   ---   --- /
13/08/2008 18:50      29.0  22.0  32.0  27.4  66  1013   ---    NE    19    19   ---   --- /
13/08/2008 19:50      28.0  22.0  30.7  25.8  70  1013   ---    NE    23    23   ---   --- /
13/08/2008 20:50      28.0  22.0  30.7  25.9  70  1013   ---   ENE    19    19   ---   --- /
13/08/2008 21:50      28.0  21.0  30.1  27.5  66  1014   ---     W     6     6   ---   --- /
13/08/2008 22:50      27.0  21.0  28.8  26.4  70  1014   ---   SSW     6     6   ---   --- /
13/08/2008 23:50      27.0  22.0  29.2  26.4  74  1014   ---   SSW     6     6   ---   --- /
14/08/2008 00:50      26.0  22.0  28.3  24.1  79  1014   ---    SW    13    13   ---   --- /
14/08/2008 01:50      26.0  22.0  28.3  24.6  79  1014   ---    SW    10    10   ---   --- /
14/08/2008 02:50      26.0  21.0  27.9  24.8  74  1014   ---    SW     8     8   ---   --- /
14/08/2008 03:50      25.0  20.0  26.9  23.7  74  1014   ---    SW     8     8   ---   --- /
14/08/2008 04:50      25.0  20.0  26.9  25.0  74  1014   ---     N     2     2   ---   --- /
14/08/2008 05:50      26.0  23.0  28.6  26.0  84  1014   ---     N     5     5   ---   --- /
14/08/2008 06:20      25.0  23.0  28.0  25.0  89  1014   ---     N     5     5   ---   --- /
14/08/2008 07:50      26.0  22.0  28.3  26.0  79  1015   ---     N     3     3   ---   --- /
14/08/2008 08:50      27.0  23.0  29.6  25.3  79  1015   ---    NE    13    13   ---   --- /
14/08/2008 09:50      28.0  23.0  31.3  25.8  74  1015   ---    NE    23    23   ---   --- /
14/08/2008 10:50      28.0  24.0  31.9  25.6  79  1015   ---    NE    26    26   ---   --- /
14/08/2008 11:50      29.0  23.0  32.8  27.2  70  1015   ---    NE    23    23   ---   --- /
14/08/2008 12:50      31.0  22.0  34.6  30.0  59  1014   ---    NE    26    26   ---   --- /
14/08/2008 13:50      31.0  23.0  35.5  30.2  63  1014   ---    NE    19    19   ---   --- /
14/08/2008 14:50      31.0  23.0  35.5  30.3  63  1014   ---    NE    16    16   ---   --- /
14/08/2008 16:50      31.0  22.0  34.6  30.2  59  1013   ---    NE    18    18   ---   --- /
14/08/2008 17:50      31.0  24.0  36.6  30.3  66  1012   ---    NE    16    16   ---   --- /
14/08/2008 18:50      31.0  24.0  36.6  31.0  66  1012   ---     N     3     3   ---   --- /
14/08/2008 19:20      29.0  22.0  32.0  27.7  66  1012   ---    SW    14    14   ---   --- /
14/08/2008 20:50      29.0  24.0  33.6  27.3  75  1012   ---    SW    21    21   ---   --- /
14/08/2008 21:50      28.0  22.0  30.7  26.4  70  1012   ---    SW    14    14   ---   --- /
14/08/2008 22:50      28.0  23.0  31.3  26.1  74  1013   ---   WSW    18    18   ---   --- /
14/08/2008 23:50      27.0  21.0  28.8  26.0  70  1012   ---   SSW     8     8   ---   --- /
15/08/2008 00:50      28.0  21.0  30.1  25.6  66  1012   ---    SW    26    26   ---   --- /
15/08/2008 01:50      30.0  19.0  31.3  28.9  52  1012   ---   SSW    18    18   ---   --- /
15/08/2008 02:50      28.0  21.0  30.1  26.6  66  1011   ---   ENE    13    13   ---   --- /
15/08/2008 03:50      27.0  23.0  29.6  26.0  79  1010   ---    NE     8     8   ---   --- /
15/08/2008 04:50      26.0  22.0  28.3  26.0  79  1009   ---     N     2     2   ---   --- /
15/08/2008 05:50      26.0  20.0  27.6  25.4  70  1009   ---   SSW     6     6   ---   --- /
15/08/2008 06:50      26.0  20.0  27.6  26.0  70  1008   ---     N     3     3   ---   --- /
15/08/2008 07:50      35.0   8.0  32.9  35.0  19  1008   ---   SSW    21    21   ---   --- /
15/08/2008 08:50      32.0  16.0  32.0  31.5  38  1009   ---    SW    26    26   ---   --- /
15/08/2008 09:50      35.0  11.0  33.5  35.0  23  1009   ---     S    31    31   ---   --- /
15/08/2008 10:50      35.0  14.0  34.4  35.0  28  1009   ---   SSW    31    31   ---   --- /
15/08/2008 11:50      37.0  12.0  35.9  37.0  22  1008   ---   SSW    29    29   ---   --- /
15/08/2008 12:50      30.0  24.0  35.1  28.5  70  1009   ---     W    27    27   ---   --- /
15/08/2008 13:50      30.0  24.0  35.1  28.5  70  1009   ---     W    27    27   ---   --- /
15/08/2008 14:50      30.0  23.0  34.2  28.4  66  1009   ---   WSW    31    31   ---   --- /
15/08/2008 15:50      28.0  24.0  31.9  25.4  79  1009   ---     W    31    31   ---   --- Clear/
15/08/2008 16:50      28.0  24.0  31.9  25.3  79  1008   ---     W    34    34   ---   --- Clear/
15/08/2008 17:50      29.0  23.0  32.8  27.0  70  1009   ---     W    27    27   ---   --- Clear/
15/08/2008 18:50      27.0  22.0  29.2  23.6  74  1009   ---     W    40    40   ---   --- /
15/08/2008 19:50      27.0  21.0  28.8  23.8  70  1010   ---     W    34    34   ---   --- /
15/08/2008 20:50      27.0  22.0  29.2  23.9  74  1010   ---     W    31    31   ---   0.6 Few Clouds/
15/08/2008 21:50      27.0  21.0  28.8  24.3  70  1011   ---   WSW    23    23   ---   0.6 Few Clouds/
15/08/2008 22:50      27.0  21.0  28.8  24.5  70  1011   ---   WSW    19    19   ---   0.6 Scattered Clouds/
15/08/2008 23:50      27.0  23.0  29.6  24.1  79  1011   ---     W    26    26   ---   0.6 Scattered Clouds/
16/08/2008 00:50      27.0  23.0  29.6  24.1  79  1011   ---     W    26    26   ---   0.6 Scattered Clouds/
16/08/2008 01:50      27.0  20.0  28.5  23.8  66  1011   ---   WNW    32    32   ---   0.8 Scattered Clouds/
16/08/2008 02:50      26.0  17.0  26.9  22.4  58  1010   ---   WNW    31    31   ---   1.0 Few Clouds/
16/08/2008 03:50      26.0  17.0  26.9  22.6  58  1010   ---   WNW    26    26   ---   1.0 Few Clouds/
16/08/2008 04:50      25.0  18.0  26.3  20.7  65  1010   ---   WNW    32    32   ---   1.0 Few Clouds/
16/08/2008 05:50      25.0  18.0  26.3  21.2  65  1010   ---   WNW    26    26   ---   1.0 Few Clouds/
16/08/2008 06:50      24.0  16.0  25.1  20.3  61  1010   ---   WNW    19    19   ---   0.9 Scattered Clouds/
16/08/2008 07:50      25.0  17.0  26.1  22.0  61  1010   ---   WNW    18    18   ---   0.7 Scattered Clouds/
16/08/2008 08:50      25.0  17.0  26.1  21.7  61  1011   ---   WNW    19    19   ---   0.7 Scattered Clouds/
16/08/2008 09:50      25.0  16.0  25.9  22.1  57  1011   ---   WNW    16    16   ---   0.7 Scattered Clouds/
16/08/2008 10:50      25.0  16.0  25.9  22.8  57  1012   ---   WNW    13    13   ---   0.7 Scattered Clouds/
16/08/2008 11:50      27.0  15.0  27.3  27.0  48  1012   ---     N     5     5   ---   0.8 Scattered Clouds/
16/08/2008 12:50      26.0  16.0  26.7  24.6  54  1012   ---     W    10    10   ---   0.8 Scattered Clouds/
16/08/2008 13:50      26.0  17.0  26.9  24.1  58  1012   ---     W    13    13   ---   0.7 Few Clouds/
16/08/2008 14:50      26.0  15.0  26.5  23.5  51  1011   ---   WNW    16    16   ---   0.7 Few Clouds/
16/08/2008 15:50      26.0  16.0  26.7  23.8  54  1011   ---    NW    14    14   ---   0.7 Few Clouds/
16/08/2008 16:50      26.0  16.0  26.7  24.6  54  1011   ---    NW    10    10   ---   0.7 Few Clouds/
16/08/2008 17:50      26.0  15.0  26.5  23.8  51  1011   ---    NW    14    14   ---   0.7 Few Clouds/
16/08/2008 18:50      26.0  15.0  26.5  24.6  51  1011   ---    NW    10    10   ---   --- /
16/08/2008 19:50      25.0  16.0  25.9  23.4  57  1011   ---     E    10    10   ---   0.9 Few Clouds/
16/08/2008 20:50      25.0  15.0  25.7  24.3  54  1011   ---   NNE     6     6   ---   1.2 Scattered Clouds/
16/08/2008 21:50      25.0  15.0  25.7  24.3  54  1012   ---   NNE     6     6   ---   1.2 Scattered Clouds/
16/08/2008 22:50      24.0  14.0  24.6  22.5  54  1012   ---    NE     8     8   ---   --- /
17/08/2008 00:50      25.0  15.0  25.7  22.8  54  1012   ---   NNE    13    13   ---   --- /
17/08/2008 01:50      24.0  15.0  24.8  21.1  57  1012   ---   NNE    14    14   ---   --- /
17/08/2008 02:50      24.0  15.0  24.8  21.1  57  1011   ---    NE    14    14   ---   --- /
17/08/2008 03:50      24.0  15.0  24.8  21.5  57  1012   ---    NE    13    13   ---   --- /
17/08/2008 04:50      24.0  15.0  24.8  20.3  57  1011   ---    NE    19    19   ---   --- /
17/08/2008 05:50      24.0  15.0  24.8  20.6  57  1011   ---    NE    18    18   ---   0.9 Scattered Clouds/
17/08/2008 06:50      23.0  14.0  23.8  21.0  57  1012   ---   ENE    10    10   ---   0.9 Scattered Clouds/
17/08/2008 07:20      24.0  14.0  24.6  20.8  54  1012   ---   ENE    16    16   ---   0.9 Scattered Clouds/
17/08/2008 08:50      26.0  15.0  26.5  23.5  51  1012   ---   ENE    16    16   ---   0.9 Few Clouds/
17/08/2008 09:50      27.0  15.0  27.3  24.9  48  1013   ---   ENE    16    16   ---   0.9 Few Clouds/
17/08/2008 10:50      26.0  16.0  26.7  23.4  54  1014   ---   NNE    18    18   ---   0.9 Few Clouds/
17/08/2008 11:50      27.0  17.0  27.7  24.9  54  1014   ---   NNE    16    16   ---   0.9 Few Clouds/
17/08/2008 12:50      27.0  17.0  27.7  24.9  54  1014   ---   NNE    16    16   ---   0.9 Few Clouds/
17/08/2008 13:50      27.0  16.0  27.5  24.5  51  1014   ---   NNE    19    19   ---   --- /
17/08/2008 14:50      27.0  17.0  27.7  24.5  54  1014   ---   NNE    19    19   ---   --- /
17/08/2008 15:50      27.0  16.0  27.5  24.1  51  1014   ---    NE    26    26   ---   --- /
17/08/2008 16:50      27.0  16.0  27.5  24.0  51  1013   ---    NE    27    27   ---   --- /
17/08/2008 17:50      27.0  16.0  27.5  23.9  51  1013   ---    NE    31    31   ---   --- /
17/08/2008 18:50      27.0  15.0  27.3  24.0  48  1013   ---    NE    29    29   ---   --- /
17/08/2008 19:50      26.0  15.0  26.5  22.4  51  1013   ---   ENE    31    31   ---   --- /
17/08/2008 20:50      26.0  14.0  26.3  22.6  48  1014   ---   ENE    26    26   ---   --- /
17/08/2008 21:50      25.0  13.0  25.3  21.6  47  1014   ---   ENE    21    21   ---   --- /
17/08/2008 22:50      25.0  14.0  25.5  21.7  51  1014   ---   ENE    19    19   ---   --- /
17/08/2008 23:50      24.0  12.0  24.3  20.8  47  1015   ---   ENE    16    16   ---   --- /
18/08/2008 00:50      23.0  13.0  23.6  21.0  53  1015   ---   ENE    10    10   ---   --- /
18/08/2008 01:50      24.0  15.0  24.8  21.1  57  1015   ---   ENE    14    14   ---   --- /
18/08/2008 02:50      25.0  15.0  25.7  21.7  54  1015   ---   ENE    19    19   ---   --- /
18/08/2008 03:50      24.0  15.0  24.8  22.2  57  1015   ---     E    10    10   ---   --- /
18/08/2008 04:50      24.0  54.0 124.3  20.8 502  1015   ---   ENE    16    16   ---   --- /
18/08/2008 05:50      24.0  15.0  24.8  20.8  57  1015   ---   ENE    16    16   ---   --- /
18/08/2008 06:50      24.0  15.0  24.8  20.3  57  1015   ---   ENE    19    19   ---   0.9 Few Clouds/
18/08/2008 07:50      26.0  17.0  26.9  23.4  58  1016   ---     E    18    18   ---   --- /
18/08/2008 08:50      26.0  17.0  26.9  22.9  58  1016   ---   ENE    23    23   ---   --- /
18/08/2008 09:50      27.0  17.0  27.7  24.0  54  1016   ---   ENE    27    27   ---   --- /
18/08/2008 10:50      27.0  18.0  27.9  23.8  58  1017   ---    NE    32    32   ---   --- /
18/08/2008 11:50      28.0  19.0  29.3  25.3  58  1017   ---    NE    32    32   ---   --- /
18/08/2008 12:50      28.0  18.0  28.9  25.4  55  1017   ---    NE    31    31   ---   --- /
18/08/2008 13:50      29.0  19.0  30.3  26.8  55  1017   ---    NE    34    34   ---   --- /
18/08/2008 14:50      29.0  17.0  29.5  26.8  48  1016   ---    NE    37    37   ---   --- /
18/08/2008 15:50      28.0  17.0  28.6  25.2  51  1016   ---    NE    37    37   ---   --- /
18/08/2008 16:50      28.0  18.0  28.9  25.3  55  1016   ---    NE    34    34   ---   --- /
18/08/2008 17:50      28.0  18.0  28.9  25.2  55  1016   ---    NE    37    37   ---   --- /
18/08/2008 18:50      27.0  18.0  27.9  23.6  58  1015   ---   ENE    37    37   ---   --- /
18/08/2008 19:50      27.0  18.0  27.9  23.9  58  1015   ---   ENE    31    31   ---   --- /
18/08/2008 20:50      26.0  18.0  27.1  22.6  61  1016   ---   ENE    26    26   ---   --- /
18/08/2008 21:50      26.0  17.0  26.9  22.9  58  1016   ---   ENE    23    23   ---   --- /
18/08/2008 22:50      26.0  18.0  27.1  22.6  61  1017   ---   ENE    26    26   ---   --- /
19/08/2008 00:50      24.0  15.0  24.8  24.0  57  1016   ---     E     2     2   ---   --- /
19/08/2008 01:50      23.0  14.0  23.8  21.3  57  1016   ---     E     8     8   ---   --- /
19/08/2008 02:50      22.0  13.0  22.8  22.0  57  1016   ---     S     2     2   ---   --- /
19/08/2008 03:50      22.0  13.0  22.8  22.0  57  1016   ---     S     5     5   ---   --- /
19/08/2008 04:50      22.0  13.0  22.8  22.0  57  1016   ---   WSW     5     5   ---   --- /
19/08/2008 05:50      22.0  12.0  22.6  22.0  53  1016   ---     S     5     5   ---   --- /
19/08/2008 06:50      22.0  11.0  22.4  22.0  50  1016   ---   SSW     5     5   ---   --- /
19/08/2008 07:50      24.0  13.0  24.5  24.0  50  1016   ---     N     5     5   ---   --- /
19/08/2008 08:50      25.0  15.0  25.7  25.0  54  1016   ---     N     5     5   ---   --- /
19/08/2008 09:50      27.0  17.0  27.7  24.4  54  1016   ---    NE    21    21   ---   --- /
19/08/2008 10:50      27.0  18.0  27.9  24.1  58  1016   ---    NE    26    26   ---   --- /
19/08/2008 11:50      27.0  19.0  28.2  24.0  62  1016   ---    NE    29    29   ---   --- /
19/08/2008 12:50      28.0  19.0  29.3  25.4  58  1015   ---    NE    31    31   ---   --- /
19/08/2008 13:50      28.0  18.0  28.9  25.3  55  1015   ---    NE    34    34   ---   --- /
19/08/2008 14:50      28.0  18.0  28.9  25.3  55  1014   ---    NE    34    34   ---   --- /
19/08/2008 15:50      28.0  19.0  29.3  25.3  58  1014   ---    NE    34    34   ---   --- /
19/08/2008 16:50      28.0  19.0  29.3  25.2  58  1013   ---    NE    37    37   ---   --- /
19/08/2008 17:50      28.0  19.0  29.3  25.2  58  1013   ---   ENE    39    39   ---   --- /
19/08/2008 18:50      27.0  20.0  28.5  23.6  66  1013   ---   ENE    37    37   ---   --- /
19/08/2008 19:50      27.0  20.0  28.5  23.8  66  1013   ---   ENE    32    32   ---   --- /
19/08/2008 20:50      26.0  20.0  27.6  22.6  70  1013   ---   ENE    26    26   ---   --- /
19/08/2008 21:50      26.0  19.0  27.3  23.1  65  1013   ---   ENE    19    19   ---   --- /
19/08/2008 22:50      26.0  19.0  27.3  23.5  65  1013   ---   ENE    16    16   ---   --- /
19/08/2008 23:50      24.0  18.0  25.6  24.0  69  1013   ---     N     3     3   ---   --- /
20/08/2008 00:50      24.0  18.0  25.6  24.0  69  1013   ---     N     2     2   ---   --- /
20/08/2008 01:50      24.0  19.0  25.9  24.0  74  1013   ---     N     5     5   ---   --- /
20/08/2008 02:50      22.0  16.0  23.6  21.0  69  1013   ---     S     6     6   ---   --- /
20/08/2008 03:50      23.0  15.0  24.1  23.0  61  1012   ---     N     5     5   ---   --- /
20/08/2008 04:50      23.0  15.0  24.1  23.0  61  1012   ---     N     3     3   ---   --- /
20/08/2008 05:50      22.0  13.0  22.8  21.0  57  1013   ---     S     6     6   ---   --- /
20/08/2008 06:50      23.0  16.0  24.3  22.1  65  1013   ---    SW     6     6   ---   --- /
20/08/2008 07:50      24.0  16.0  25.1  22.5  61  1013   ---   SSE     8     8   ---   --- /
20/08/2008 08:50      27.0  16.0  27.5  27.0  51  1014   ---     N     5     5   ---   --- /
20/08/2008 09:50      27.0  20.0  28.5  27.0  66  1014   ---     N     5     5   ---   --- /
20/08/2008 10:50      27.0  18.0  27.9  25.3  58  1015   ---     N    13    13   ---   --- /
20/08/2008 11:50      28.0  19.0  29.3  26.1  58  1014   ---    NE    18    18   ---   --- /
20/08/2008 12:50      29.0  20.0  30.8  27.2  58  1014   ---    NE    23    23   ---   --- /
20/08/2008 13:50      29.0  20.0  30.8  27.2  58  1014   ---    NE    23    23   ---   --- /
20/08/2008 14:50      30.0  20.0  31.9  28.6  55  1014   ---    NE    26    26   ---   --- /
20/08/2008 15:50      28.0  21.0  30.1  26.1  66  1014   ---   NNE    18    18   ---   --- /
20/08/2008 16:50      28.0  21.0  30.1  26.6  66  1015   ---     N    13    13   ---   --- /
20/08/2008 17:50      28.0  21.0  30.1  25.9  66  1015   ---    NE    19    19   ---   --- /
20/08/2008 18:50      28.0  20.0  29.7  25.6  62  1014   ---    NE    26    26   ---   --- /
20/08/2008 19:50      28.0  19.0  29.3  25.5  58  1014   ---   ENE    29    29   ---   --- /
20/08/2008 20:50      27.0  20.0  28.5  24.0  66  1014   ---   ENE    27    27   ---   --- /
20/08/2008 21:50      27.0  20.0  28.5  24.5  66  1015   ---   ENE    19    19   ---   --- /
20/08/2008 22:50      27.0  19.0  28.2  24.5  62  1015   ---   ENE    19    19   ---   --- /
20/08/2008 23:50      25.0  17.0  26.1  22.8  61  1015   ---   ENE    13    13   ---   --- /
21/08/2008 00:50      24.0  16.0  25.1  23.2  61  1015   ---   ENE     6     6   ---   --- /
21/08/2008 01:50      26.0  19.0  27.3  23.5  65  1015   ---    NE    16    16   ---   --- /
21/08/2008 02:50      25.0  18.0  26.3  22.5  65  1015   ---   ENE    14    14   ---   --- /
21/08/2008 03:20      26.0  19.0  27.3  23.8  65  1015   ---   ENE    14    14   ---   --- /
21/08/2008 04:50      25.0  18.0  26.3  22.5  65  1015   ---   ENE    14    14   ---   --- /
21/08/2008 05:50      25.0  18.0  26.3  22.8  65  1015   ---   ENE    13    13   ---   --- /
21/08/2008 06:50      25.0  18.0  26.3  22.8  65  1015   ---   ENE    13    13   ---   --- /
21/08/2008 07:50      26.0  20.0  27.6  23.5  70  1015   ---   ENE    16    16   ---   --- /
21/08/2008 08:50      27.0  20.0  28.5  25.1  66  1016   ---    NE    14    14   ---   --- /
21/08/2008 09:50      27.0  20.0  28.5  24.9  66  1016   ---    NE    16    16   ---   --- /
21/08/2008 10:50      27.0  20.0  28.5  24.9  66  1017   ---   NNE    16    16   ---   --- /
21/08/2008 11:50      28.0  20.0  29.7  26.1  62  1017   ---   NNE    18    18   ---   --- /
21/08/2008 12:50      28.0  20.0  29.7  26.1  62  1017   ---   NNE    18    18   ---   --- /
21/08/2008 13:50      28.0  21.0  30.1  25.8  66  1016   ---   NNE    23    23   ---   --- /
21/08/2008 14:50      28.0  21.0  30.1  25.9  66  1016   ---   NNE    19    19   ---   --- /
21/08/2008 15:50      28.0  21.0  30.1  25.9  66  1016   ---   NNE    19    19   ---   --- /
21/08/2008 16:50      28.0  22.0  30.7  26.1  70  1016   ---   NNE    18    18   ---   --- /
21/08/2008 17:50      28.0  21.0  30.1  26.2  66  1016   ---   NNE    16    16   ---   --- /
21/08/2008 18:50      27.0  21.0  28.8  25.1  70  1015   ---   NNE    14    14   ---   --- /
21/08/2008 19:50      27.0  21.0  28.8  25.3  70  1015   ---    NE    13    13   ---   --- /
21/08/2008 20:50      27.0  21.0  28.8  25.3  70  1016   ---   NNE    13    13   ---   --- /
21/08/2008 21:50      26.0  22.0  28.3  24.6  79  1016   ---   NNE    10    10   ---   --- /
21/08/2008 22:20      26.0  21.0  27.9  24.6  74  1016   ---    NE    10    10   ---   --- /
21/08/2008 23:50      25.0  21.0  27.2  23.7  79  1016   ---    NE     8     8   ---   --- /
22/08/2008 00:50      25.0  20.0  26.9  25.0  74  1016   ---     N     5     5   ---   --- /
22/08/2008 02:50      25.0  21.0  27.2  23.4  79  1016   ---   ENE    10    10   ---   --- /
22/08/2008 03:50      25.0  21.0  27.2  23.7  79  1016   ---    NE     8     8   ---   --- /
22/08/2008 04:20      24.0  21.0  26.6  22.2  83  1015   ---   ENE    10    10   ---   --- /
22/08/2008 05:50      24.0  21.0  26.6  22.5  83  1015   ---     E     8     8   ---   --- /
22/08/2008 06:50      24.0  21.0  26.6  22.2  83  1015   ---   ENE    10    10   ---   --- /
22/08/2008 07:50      25.0  22.0  27.6  23.4  83  1015   ---   ENE    10    10   ---   --- /
22/08/2008 08:50      27.0  22.0  29.2  25.3  74  1015   ---   ENE    13    13   ---   --- /
22/08/2008 09:50      26.0  22.0  28.3  23.4  79  1015   ---    NE    18    18   ---   --- /
22/08/2008 10:50      27.0  22.0  29.2  24.9  74  1016   ---    NE    16    16   ---   --- /
22/08/2008 11:50      27.0  22.0  29.2  24.3  74  1015   ---    NE    23    23   ---   --- /
22/08/2008 12:50      28.0  22.0  30.7  25.9  70  1015   ---    NE    21    21   ---   --- /
22/08/2008 13:50      28.0  23.0  31.3  25.8  74  1015   ---   NNE    23    23   ---   --- /
22/08/2008 14:50      28.0  23.0  31.3  25.9  74  1015   ---   NNE    21    21   ---   --- /
22/08/2008 15:50      28.0  23.0  31.3  25.6  74  1014   ---    NE    26    26   ---   --- /
22/08/2008 16:50      28.0  23.0  31.3  25.8  74  1014   ---   NNE    23    23   ---   --- /
22/08/2008 17:50      28.0  23.0  31.3  25.8  74  1014   ---   NNE    23    23   ---   --- /
22/08/2008 18:50      28.0  22.0  30.7  25.6  70  1014   ---    NE    26    26   ---   --- /
22/08/2008 19:50      27.0  22.0  29.2  24.3  74  1014   ---    NE    23    23   ---   --- /
22/08/2008 20:50      27.0  22.0  29.2  24.5  74  1014   ---    NE    19    19   ---   --- /
22/08/2008 21:50      27.0  22.0  29.2  24.5  74  1014   ---   ENE    19    19   ---   --- /
22/08/2008 22:50      26.0  22.0  28.3  24.1  79  1014   ---   ENE    13    13   ---   --- /
22/08/2008 23:50      26.0  22.0  28.3  24.8  79  1014   ---     E     8     8   ---   --- /
23/08/2008 00:50      25.0  22.0  27.6  23.7  83  1014   ---    SE     8     8   ---   --- /
23/08/2008 01:50      25.0  21.0  27.2  25.0  79  1014   ---     N     3     3   ---   --- /
23/08/2008 02:50      25.0  21.0  27.2  25.0  79  1013   ---     N     5     5   ---   --- /
23/08/2008 03:50      23.0  19.0  25.2  22.1  78  1013   ---    SE     6     6   ---   --- /
23/08/2008 04:50      23.0  19.0  25.2  23.0  78  1012   ---     N     5     5   ---   --- /
23/08/2008 05:50      24.0  19.0  25.9  24.0  74  1013   ---     N     3     3   ---   --- /
23/08/2008 06:50      23.0  18.0  24.9  23.0  73  1013   ---     N     5     5   ---   --- /
23/08/2008 07:50      25.0  21.0  27.2  25.0  79  1013   ---     N     5     5   ---   --- /
23/08/2008 08:50      26.0  22.0  28.3  26.0  79  1014   ---     N     3     3   ---   --- /
23/08/2008 09:50      26.0  22.0  28.3  26.0  79  1014   ---     N     5     5   ---   --- /
23/08/2008 10:50      27.0  22.0  29.2  26.4  74  1013   ---   NNW     6     6   ---   --- /
23/08/2008 11:50      27.0  22.0  29.2  25.8  74  1014   ---     N    10    10   ---   --- /
23/08/2008 12:50      28.0  22.0  30.7  26.4  70  1014   ---   NNE    14    14   ---   --- /
23/08/2008 13:50      28.0  21.0  30.1  26.1  66  1013   ---   NNE    18    18   ---   --- /
23/08/2008 14:50      29.0  21.0  31.4  27.5  62  1013   ---   NNE    18    18   ---   --- /
23/08/2008 15:50      29.0  20.0  30.8  27.3  58  1012   ---   NNE    21    21   ---   --- /
23/08/2008 16:50      29.0  20.0  30.8  27.1  58  1012   ---    NE    26    26   ---   --- /
23/08/2008 17:50      29.0  19.0  30.3  27.0  55  1011   ---    NE    27    27   ---   --- /
23/08/2008 18:50      28.0  21.0  30.1  25.5  66  1011   ---    NE    27    27   ---   --- /
23/08/2008 19:50      28.0  20.0  29.7  25.9  62  1011   ---    NE    19    19   ---   --- /
23/08/2008 20:50      28.0  21.0  30.1  26.4  66  1011   ---   ENE    14    14   ---   --- /
23/08/2008 21:50      27.0  20.0  28.5  27.0  66  1011   ---     N     5     5   ---   --- /
23/08/2008 22:50      26.0  19.0  27.3  26.0  65  1011   ---     N     2     2   ---   --- /
23/08/2008 23:50      27.0  21.0  28.8  24.9  70  1010   ---   SSW    16    16   ---   --- /
24/08/2008 00:50      26.0  21.0  27.9  24.1  74  1011   ---   SSW    13    13   ---   --- /
24/08/2008 01:50      24.0  19.0  25.9  22.5  74  1011   ---     S     8     8   ---   --- /
24/08/2008 02:50      24.0  18.0  25.6  23.2  69  1011   ---   SSW     6     6   ---   --- /
24/08/2008 03:50      24.0  16.0  25.1  23.2  61  1010   ---   SSW     6     6   ---   --- /
24/08/2008 04:50      25.0  15.0  25.7  25.0  54  1010   ---     S     3     3   ---   --- /
24/08/2008 05:20      24.0  14.0  24.6  24.0  54  1010   ---   SSW     5     5   ---   --- /
24/08/2008 06:50      24.0  15.0  24.8  23.2  57  1011   ---   SSE     6     6   ---   --- /
24/08/2008 07:50      25.0  18.0  26.3  25.0  65  1011   ---   SSE     5     5   ---   --- /
24/08/2008 08:50      27.0  19.0  28.2  26.4  62  1011   ---    SW     6     6   ---   --- /
24/08/2008 09:50      27.0  18.0  27.9  26.4  58  1012   ---     W     6     6   ---   --- /
24/08/2008 10:50      27.0  19.0  28.2  27.0  62  1012   ---     W     5     5   ---   --- /
24/08/2008 11:50      28.0  20.0  29.7  28.0  62  1012   ---     N     5     5   ---   --- /
24/08/2008 12:50      28.0  21.0  30.1  27.2  66  1012   ---     N     8     8   ---   --- /
24/08/2008 13:50      28.0  22.0  30.7  27.2  70  1012   ---     N     8     8   ---   --- /
24/08/2008 14:50      27.0  22.0  29.2  26.0  74  1012   ---     N     8     8   ---   1.0 Few Clouds/
24/08/2008 15:50      27.0  22.0  29.2  24.5  74  1011   ---    NE    19    19   ---   1.0 Scattered Clouds/
24/08/2008 16:50      27.0  21.0  28.8  25.1  70  1012   ---   NNE    14    14   ---   1.0 Scattered Clouds/
24/08/2008 17:50      27.0  21.0  28.8  24.9  70  1012   ---    NE    16    16   ---   1.0 Scattered Clouds/
24/08/2008 18:50      27.0  20.0  28.5  24.7  66  1012   ---    NE    18    18   ---   1.0 Scattered Clouds/
24/08/2008 19:50      27.0  21.0  28.8  24.5  70  1011   ---   ENE    19    19   ---   1.0 Scattered Clouds/
24/08/2008 20:50      27.0  20.0  28.5  24.7  66  1012   ---    NE    18    18   ---   --- /
24/08/2008 21:50      27.0  20.0  28.5  24.7  66  1013   ---    NE    18    18   ---   --- /
24/08/2008 22:50      27.0  21.0  28.8  24.7  70  1013   ---    NE    18    18   ---   --- /
24/08/2008 23:50      26.0  20.0  27.6  23.4  70  1013   ---   ENE    18    18   ---   --- /
25/08/2008 00:50      26.0  19.0  27.3  23.8  65  1013   ---   ENE    14    14   ---   --- /
25/08/2008 01:50      26.0  19.0  27.3  24.6  65  1013   ---   ENE    10    10   ---   --- /
25/08/2008 02:50      25.0  19.0  26.6  22.1  69  1013   ---   ENE    16    16   ---   --- /
25/08/2008 03:50      26.0  20.0  27.6  23.4  70  1012   ---   ENE    18    18   ---   --- /
25/08/2008 04:50      26.0  20.0  27.6  23.5  70  1012   ---    NE    16    16   ---   --- /
25/08/2008 05:50      26.0  20.0  27.6  23.1  70  1012   ---   ENE    19    19   ---   --- /
25/08/2008 06:50      26.0  20.0  27.6  22.9  70  1013   ---    NE    23    23   ---   --- /
25/08/2008 07:50      26.0  20.0  27.6  23.0  70  1013   ---   ENE    21    21   ---   0.6 Few Clouds/
25/08/2008 08:50      27.0  20.0  28.5  24.3  66  1014   ---   ENE    23    23   ---   0.6 Few Clouds/
25/08/2008 09:50      28.0  20.0  29.7  25.8  62  1014   ---    NE    23    23   ---   0.6 Few Clouds/
25/08/2008 10:50      28.0  20.0  29.7  25.5  62  1014   ---    NE    27    27   ---   0.6 Few Clouds/
25/08/2008 11:50      28.0  20.0  29.7  25.5  62  1014   ---    NE    27    27   ---   0.6 Few Clouds/
25/08/2008 12:50      28.0  21.0  30.1  25.5  66  1014   ---    NE    29    29   ---   0.6 Few Clouds/
25/08/2008 13:50      28.0  20.0  29.7  25.5  62  1014   ---   NNE    29    29   ---   0.6 Few Clouds/
25/08/2008 14:50      28.0  20.0  29.7  25.4  62  1014   ---    NE    31    31   ---   0.7 Few Clouds/
25/08/2008 15:50      28.0  21.0  30.1  25.3  66  1014   ---    NE    32    32   ---   0.7 Few Clouds/
25/08/2008 16:50      28.0  20.0  29.7  25.3  62  1014   ---    NE    32    32   ---   0.7 Few Clouds/
25/08/2008 17:50      28.0  20.0  29.7  25.4  62  1014   ---    NE    31    31   ---   0.8 Few Clouds/
25/08/2008 18:50      27.0  20.0  28.5  24.0  66  1014   ---    NE    29    29   ---   0.8 Scattered Clouds/
25/08/2008 19:50      27.0  20.0  28.5  24.0  66  1014   ---    NE    29    29   ---   1.0 Scattered Clouds/
25/08/2008 20:50      26.0  20.0  27.6  22.5  70  1015   ---   ENE    27    27   ---   1.0 Scattered Clouds/
25/08/2008 21:50      26.0  20.0  27.6  22.6  70  1015   ---   ENE    26    26   ---   0.9 Scattered Clouds/
25/08/2008 22:50      26.0  20.0  27.6  23.0  70  1016   ---    NE    21    21   ---   0.9 Scattered Clouds/
25/08/2008 23:50      26.0  20.0  27.6  23.0  70  1016   ---   ENE    21    21   ---   1.0 Few Clouds/
26/08/2008 00:50      26.0  20.0  27.6  23.1  70  1016   ---   ENE    19    19   ---   1.0 Few Clouds/
26/08/2008 01:50      26.0  20.0  27.6  23.4  70  1015   ---   ENE    18    18   ---   1.0 Few Clouds/
26/08/2008 02:50      26.0  20.0  27.6  23.5  70  1016   ---   ENE    16    16   ---   1.0 Few Clouds/
26/08/2008 03:50      26.0  20.0  27.6  23.5  70  1016   ---    NE    16    16   ---   1.0 Few Clouds/
26/08/2008 04:50      26.0  20.0  27.6  23.4  70  1016   ---    NE    18    18   ---   1.0 Few Clouds/
26/08/2008 06:50      25.0  20.0  26.9  21.7  74  1016   ---    NE    19    19   ---   0.6 Scattered Clouds/
26/08/2008 07:50      26.0  19.0  27.3  23.0  65  1016   ---    NE    21    21   ---   0.6 Scattered Clouds/
26/08/2008 08:50      26.0  19.0  27.3  23.0  65  1017   ---    NE    21    21   ---   0.7 Scattered Clouds/
26/08/2008 09:50      27.0  20.0  28.5  24.4  66  1017   ---    NE    21    21   ---   0.7 Broken Clouds/
26/08/2008 10:50      26.0  20.0  27.6  22.9  70  1017   ---    NE    23    23   ---   0.7 Scattered Clouds/
26/08/2008 11:50      27.0  20.0  28.5  24.1  66  1018   ---    NE    26    26   ---   0.7 Few Clouds/
26/08/2008 12:50      27.0  20.0  28.5  24.1  66  1018   ---    NE    26    26   ---   0.7 Few Clouds/
26/08/2008 13:50      27.0  20.0  28.5  24.0  66  1018   ---    NE    27    27   ---   0.7 Few Clouds/
26/08/2008 14:50      27.0  20.0  28.5  24.1  66  1017   ---   NNE    26    26   ---   0.7 Few Clouds/
26/08/2008 15:20      27.0  20.0  28.5  24.1  66  1018   ---    NE    26    26   ---   0.7 Scattered Clouds/
26/08/2008 16:50      27.0  20.0  28.5  24.3  66  1017   ---   NNE    23    23   ---   0.7 Few Clouds/
26/08/2008 17:50      26.0  19.0  27.3  23.1  65  1017   ---   NNE    19    19   ---   0.7 Few Clouds/
26/08/2008 18:50      27.0  19.0  28.2  24.4  62  1018   ---    NE    21    21   ---   0.7 Few Clouds/
26/08/2008 19:50      26.0  18.0  27.1  23.1  61  1017   ---   ENE    19    19   ---   --- /
26/08/2008 20:50      26.0  19.0  27.3  23.5  65  1018   ---    NE    16    16   ---   --- /
26/08/2008 21:50      25.0  18.0  26.3  22.1  65  1018   ---   ENE    16    16   ---   --- /
26/08/2008 22:50      25.0  19.0  26.6  20.1  69   ---   ---    NE   158   158   ---   --- /
26/08/2008 23:50      25.0  18.0  26.3  22.1  65   ---   ---   ENE    16    16   ---   --- /
27/08/2008 00:50      24.0  18.0  25.6  20.8  69   ---   ---   ENE    16    16   ---   --- /
27/08/2008 01:50      24.0  18.0  25.6  23.2  69   ---   ---   ENE     6     6   ---   --- /
27/08/2008 02:50      24.0  18.0  25.6  21.5  69   ---   ---     E    13    13   ---   --- /
27/08/2008 03:50      24.0  18.0  25.6  21.5  69  1016   ---   ENE    13    13   ---   --- /
27/08/2008 04:50      24.0  18.0  25.6  22.5  69  1016   ---     E     8     8   ---   --- /
27/08/2008 05:50      23.0  17.0  24.6  22.1  69  1017   ---   SSW     6     6   ---   --- /
27/08/2008 06:50      23.0  17.0  24.6  23.0  69  1017   ---     N     5     5   ---   0.7 Few Clouds/
27/08/2008 07:50      24.0  17.0  25.3  24.0  65  1017   ---     N     5     5   ---   --- /
27/08/2008 08:50      25.0  18.0  26.3  25.0  65  1018   ---     N     5     5   ---   0.7 Few Clouds/
27/08/2008 09:50      25.0  18.0  26.3  23.7  65  1018   ---     W     8     8   ---   0.7 Few Clouds/
27/08/2008 10:50      26.0  19.0  27.3  24.8  65  1018   ---     W     8     8   ---   0.7 Few Clouds/
27/08/2008 11:50      27.0  20.0  28.5  26.0  66  1018   ---    NW     8     8   ---   0.7 Few Clouds/
27/08/2008 12:50      28.0  21.0  30.1  27.0  66  1018   ---     N    10    10   ---   0.7 Few Clouds/
27/08/2008 13:50      27.0  19.0  28.2  25.1  62  1018   ---   NNE    14    14   ---   0.7 Few Clouds/
27/08/2008 14:50      28.0  20.0  29.7  26.4  62  1017   ---   NNE    14    14   ---   0.7 Few Clouds/
27/08/2008 15:50      27.0  19.0  28.2  25.1  62  1017   ---   NNE    14    14   ---   0.7 Few Clouds/
27/08/2008 16:50      27.0  19.0  28.2  25.3  62  1017   ---     N    13    13   ---   0.7 Scattered Clouds/
27/08/2008 17:50      27.0  19.0  28.2  25.1  62  1017   ---   NNE    14    14   ---   0.7 Scattered Clouds/
27/08/2008 18:50      26.0  19.0  27.3  23.5  65  1017   ---   NNE    16    16   ---   0.7 Scattered Clouds/
27/08/2008 19:50      26.0  19.0  27.3  23.8  65  1016   ---    NE    14    14   ---   0.7 Few Clouds/
27/08/2008 20:50      26.0  18.0  27.1  24.1  61  1016   ---    NE    13    13   ---   0.7 Few Clouds/
27/08/2008 21:50      25.0  18.0  26.3  22.8  65  1016   ---   ENE    13    13   ---   0.7 Few Clouds/
27/08/2008 22:50      25.0  18.0  26.3  23.7  65  1017   ---   ENE     8     8   ---   0.7 Few Clouds/
27/08/2008 23:50      24.0  18.0  25.6  22.5  69  1017   ---   ENE     8     8   ---   0.7 Few Clouds/
28/08/2008 00:50      24.0  18.0  25.6  22.2  69  1016   ---   ENE    10    10   ---   0.7 Few Clouds/
28/08/2008 01:50      24.0  18.0  25.6  24.0  69  1016   ---     N     5     5   ---   0.7 Few Clouds/
28/08/2008 02:50      23.0  18.0  24.9  22.1  73  1015   ---   SSW     6     6   ---   --- /
28/08/2008 03:50      22.0  17.0  23.9  21.0  73  1015   ---   SSE     6     6   ---   --- /
28/08/2008 04:50      22.0  16.0  23.6  18.9  69  1015   ---   SSE    13    13   ---   --- /
28/08/2008 05:50      23.0  17.0  24.6  23.0  69  1015   ---     N     5     5   ---   --- /
28/08/2008 06:50      22.0  17.0  23.9  21.0  73  1015   ---     S     6     6   ---   0.7 Few Clouds/
28/08/2008 07:50      22.0  16.0  23.6  22.0  69  1015   ---     N     5     5   ---   --- /
28/08/2008 08:50      25.0  19.0  26.6  25.0  69  1016   ---     N     5     5   ---   --- /
28/08/2008 09:50      25.0  18.0  26.3  22.8  65  1016   ---   WSW    13    13   ---   --- /
28/08/2008 10:50      26.0  20.0  27.6  25.4  70  1016   ---     W     6     6   ---   --- /
28/08/2008 11:50      26.0  18.0  27.1  24.6  61  1017   ---   WNW    10    10   ---   0.7 Few Clouds/
28/08/2008 12:50      27.0  20.0  28.5  26.0  66  1016   ---    NW     8     8   ---   0.7 Few Clouds/
28/08/2008 13:50      28.0  19.0  29.3  27.0  58  1016   ---    NW    10    10   ---   0.7 Few Clouds/
28/08/2008 14:50      28.0  20.0  29.7  26.6  62  1016   ---    NW    13    13   ---   --- /
28/08/2008 15:50      27.0  20.0  28.5  25.3  66  1015   ---    NW    13    13   ---   --- /
28/08/2008 16:50      27.0  20.0  28.5  25.3  66  1015   ---   WNW    13    13   ---   0.6 Few Clouds/
28/08/2008 17:50      27.0  19.0  28.2  25.1  62  1015   ---   WNW    14    14   ---   0.6 Few Clouds/
28/08/2008 18:50      27.0  18.0  27.9  25.3  58  1015   ---    NW    13    13   ---   0.7 Scattered Clouds/
28/08/2008 19:50      26.0  19.0  27.3  24.6  65  1015   ---   NNW    10    10   ---   0.7 Scattered Clouds/
28/08/2008 20:50      26.0  19.0  27.3  24.8  65  1015   ---   NNW     8     8   ---   0.7 Scattered Clouds/
28/08/2008 21:50      26.0  18.0  27.1  26.0  61  1016   ---     N     3     3   ---   0.7 Scattered Clouds/
28/08/2008 22:50      25.0  18.0  26.3  24.3  65  1016   ---   SSE     6     6   ---   0.7 Scattered Clouds/
28/08/2008 23:50      24.0  17.0  25.3  24.0  65  1015   ---     N     3     3   ---   0.7 Scattered Clouds/
29/08/2008 00:50      24.0  17.0  25.3  24.0  65  1015   ---     N     2     2   ---   0.7 Few Clouds/
29/08/2008 01:50      24.0  17.0  25.3  24.0  65  1015   ---     N     3     3   ---   0.7 Few Clouds/
29/08/2008 02:50      23.0  17.0  24.6  22.1  69  1015   ---     S     6     6   ---   0.7 Few Clouds/
29/08/2008 03:50      23.0  17.0  24.6  22.1  69  1015   ---   SSE     6     6   ---   0.7 Few Clouds/
29/08/2008 04:50      23.0  17.0  24.6  22.1  69  1015   ---     S     6     6   ---   0.7 Few Clouds/
29/08/2008 05:50      23.0  17.0  24.6  23.0  69  1015   ---     N     5     5   ---   0.7 Few Clouds/
29/08/2008 06:50      23.0  17.0  24.6  23.0  69  1015   ---     N     5     5   ---   0.7 Scattered Clouds/
29/08/2008 07:50      24.0  19.0  25.9  24.0  74  1016   ---   SSW     2     2   ---   0.7 Scattered Clouds/
29/08/2008 08:50      25.0  19.0  26.6  23.7  69  1016   ---     N     8     8   ---   0.7 Scattered Clouds/
29/08/2008 09:50      26.0  19.0  27.3  25.4  65  1016   ---   NNE     6     6   ---   0.7 Few Clouds/
29/08/2008 10:50      27.0  19.0  28.2  26.4  62  1017   ---     N     6     6   ---   --- /
29/08/2008 11:50      28.0  19.0  29.3  27.2  58  1017   ---   NNW     8     8   ---   --- /
29/08/2008 12:50      27.0  19.0  28.2  26.0  62  1017   ---     N     8     8   ---   --- /
29/08/2008 13:50      28.0  20.0  29.7  27.2  62  1016   ---   NNW     8     8   ---   --- /
29/08/2008 14:50      28.0  19.0  29.3  27.0  58  1016   ---   NNW    10    10   ---   --- /
29/08/2008 15:50      28.0  20.0  29.7  27.0  62  1016   ---     N    10    10   ---   --- /
29/08/2008 16:50      28.0  20.0  29.7  27.2  62  1015   ---     N     8     8   ---   0.8 Few Clouds/
29/08/2008 17:50      27.0  20.0  28.5  26.4  66  1015   ---     N     6     6   ---   0.8 Few Clouds/
29/08/2008 18:50      27.0  20.0  28.5  26.0  66  1015   ---   NNE     8     8   ---   0.8 Few Clouds/
29/08/2008 19:50      26.0  19.0  27.3  24.8  65  1015   ---     N     8     8   ---   0.8 Few Clouds/
29/08/2008 20:50      26.0  19.0  27.3  24.6  65  1015   ---   NNE    10    10   ---   0.8 Few Clouds/
29/08/2008 21:50      26.0  18.0  27.1  24.1  61  1016   ---   NNE    13    13   ---   0.8 Few Clouds/
29/08/2008 22:50      26.0  18.0  27.1  25.4  61  1016   ---   NNE     6     6   ---   --- /
29/08/2008 23:50      25.0  18.0  26.3  25.0  65  1016   ---     E     5     5   ---   --- /
30/08/2008 00:50      24.0  17.0  25.3  24.0  65  1016   ---    SE     5     5   ---   --- /
30/08/2008 01:50      24.0  17.0  25.3  24.0  65  1016   ---   SSE     5     5   ---   --- /
30/08/2008 02:50      23.0  17.0  24.6  23.0  69  1015   ---     S     5     5   ---   --- /
30/08/2008 03:50      23.0  17.0  24.6  23.0  69  1015   ---   SSW     3     3   ---   --- /
30/08/2008 04:50      23.0  17.0  24.6  23.0  69  1015   ---     S     5     5   ---   --- /
30/08/2008 05:50      23.0  17.0  24.6  23.0  69  1015   ---     S     5     5   ---   --- /
30/08/2008 06:50      22.0  17.0  23.9  21.0  73  1015   ---     S     6     6   ---   --- /
30/08/2008 07:50      24.0  18.0  25.6  24.0  69  1016   ---     N     3     3   ---   --- /
30/08/2008 08:50      25.0  19.0  26.6  25.0  69  1016   ---     N     3     3   ---   --- /
30/08/2008 09:50      26.0  19.0  27.3  25.4  65  1016   ---     N     6     6   ---   --- /
30/08/2008 10:50      27.0  20.0  28.5  25.3  66  1017   ---   NNE    13    13   ---   --- /
30/08/2008 11:50      27.0  19.0  28.2  25.1  62  1016   ---   NNE    14    14   ---   --- /
30/08/2008 12:50      27.0  20.0  28.5  24.5  66  1016   ---   NNE    19    19   ---   --- /
30/08/2008 13:50      28.0  20.0  29.7  26.1  62  1016   ---   NNE    18    18   ---   --- /
30/08/2008 14:50      28.0  20.0  29.7  25.9  62  1016   ---   NNE    19    19   ---   0.7 Few Clouds/
30/08/2008 15:50      28.0  19.0  29.3  25.9  58  1016   ---   NNE    21    21   ---   --- /
30/08/2008 16:50      28.0  19.0  29.3  25.9  58  1015   ---   NNE    19    19   ---   --- /
30/08/2008 17:50      27.0  20.0  28.5  24.4  66  1015   ---   NNE    21    21   ---   --- /
30/08/2008 18:50      27.0  20.0  28.5  24.7  66  1015   ---    NE    18    18   ---   --- /
30/08/2008 19:50      27.0  20.0  28.5  24.7  66  1015   ---    NE    18    18   ---   --- /
30/08/2008 20:50      26.0  19.0  27.3  23.5  65  1015   ---    NE    16    16   ---   --- /
30/08/2008 21:50      26.0  19.0  27.3  23.4  65  1016   ---    NE    18    18   ---   --- /
30/08/2008 22:50      26.0  19.0  27.3  23.5  65  1016   ---   ENE    16    16   ---   --- /
30/08/2008 23:50      25.0  19.0  26.6  22.8  69  1016   ---   ENE    13    13   ---   --- /
31/08/2008 00:50      25.0  18.0  26.3  24.3  65  1016   ---     E     6     6   ---   --- /
31/08/2008 01:50      23.0  18.0  24.9  20.2  73  1016   ---   ENE    13    13   ---   --- /
31/08/2008 02:50      24.0  18.0  25.6  21.1  69  1015   ---   ENE    14    14   ---   --- /
31/08/2008 03:50      23.0  18.0  24.9  23.0  73  1015   ---     N     5     5   ---   --- /
31/08/2008 04:50      23.0  17.0  24.6  23.0  69  1015   ---     N     5     5   ---   --- /
31/08/2008 05:50      22.0  17.0  23.9  22.0  73  1015   ---     N     3     3   ---   --- /
31/08/2008 06:50      22.0  16.0  23.6  22.0  69  1015   ---     N     5     5   ---   --- /
31/08/2008 07:50      22.0  17.0  23.9  22.0  73  1016   ---     S     3     3   ---   --- /
31/08/2008 08:50      25.0  17.0  26.1  25.0  61  1016   ---     W     3     3   ---   --- /
31/08/2008 09:50      27.0  20.0  28.5  25.1  66  1017   ---    NE    14    14   ---   --- /
31/08/2008 10:50      27.0  20.0  28.5  24.5  66  1017   ---    NE    19    19   ---   --- /
31/08/2008 11:50      27.0  20.0  28.5  24.4  66  1017   ---    NE    21    21   ---   --- /
31/08/2008 12:50      28.0  20.0  29.7  26.1  62  1017   ---   NNE    18    18   ---   --- /
31/08/2008 13:50      28.0  20.0  29.7  25.9  62  1017   ---   NNE    19    19   ---   --- /
31/08/2008 14:50      28.0  21.0  30.1  25.9  66  1016   ---   NNE    21    21   ---   --- /
31/08/2008 15:50      28.0  20.0  29.7  25.5  62  1016   ---    NE    27    27   ---   --- /
31/08/2008 16:50      28.0  21.0  30.1  25.5  66  1015   ---    NE    29    29   ---   --- /
31/08/2008 17:50      28.0  21.0  30.1  25.5  66  1015   ---    NE    29    29   ---   --- /
31/08/2008 18:50      28.0  21.0  30.1  25.8  66  1016   ---    NE    23    23   ---   --- /
31/08/2008 19:50      27.0  21.0  28.8  24.5  70  1015   ---   ENE    19    19   ---   --- /
31/08/2008 20:50      27.0  21.0  28.8  24.7  70  1016   ---    NE    18    18   ---   --- /
31/08/2008 21:50      26.0  21.0  27.9  23.8  74  1016   ---    NE    14    14   ---   --- /
31/08/2008 22:50      25.0  20.0  26.9  24.3  74  1016   ---     E     6     6   ---   --- /
31/08/2008 23:50      26.0  20.0  27.6  26.0  70  1017   ---   SSW     5     5   ---   --- /
01/09/2008 00:50      25.0  20.0  26.9  25.0  74  1017   ---   SSE     2     2   ---   --- /
01/09/2008 01:50      25.0  20.0  26.9  25.0  74  1016   ---    NW     2     2   ---   --- /
01/09/2008 02:50      24.0  18.0  25.6  24.0  69  1016   ---   SSE     5     5   ---   --- /
01/09/2008 03:50      23.0  17.0  24.6  23.0  69  1016   ---    SW     5     5   ---   --- /
01/09/2008 04:50      23.0  17.0  24.6  22.1  69  1016   ---   SSW     6     6   ---   --- /
01/09/2008 05:50      23.0  18.0  24.9  21.0  73  1016   ---     S    10    10   ---   --- /
01/09/2008 06:50      24.0  19.0  25.9  23.2  74  1016   ---   WSW     6     6   ---   --- /
01/09/2008 07:50      24.0  18.0  25.6  21.1  69  1016   ---   WSW    14    14   ---   --- /
01/09/2008 08:50      27.0  18.0  27.9  25.3  58  1017   ---    SW    13    13   ---   --- /
01/09/2008 09:50      27.0  19.0  28.2  25.1  62  1017   ---   WSW    14    14   ---   --- /
01/09/2008 10:50      27.0  20.0  28.5  24.9  66  1018   ---   WSW    16    16   ---   --- /
01/09/2008 11:50      27.0  20.0  28.5  24.4  66  1018   ---   WNW    21    21   ---   --- /
01/09/2008 12:50      28.0  21.0  30.1  26.4  66  1018   ---   WNW    14    14   ---   --- /
01/09/2008 13:50      28.0  21.0  30.1  25.9  66  1018   ---    NW    19    19   ---   --- /
01/09/2008 14:50      28.0  21.0  30.1  26.6  66  1017   ---     N    13    13   ---   --- /
01/09/2008 15:50      28.0  21.0  30.1  27.0  66  1017   ---     N    10    10   ---   --- /
01/09/2008 16:50      28.0  20.0  29.7  27.2  62  1017   ---   NNW     8     8   ---   --- /
01/09/2008 17:50      27.0  21.0  28.8  27.0  70  1017   ---     N     3     3   ---   1.0 Broken Clouds/
01/09/2008 18:50      27.0  21.0  28.8  27.0  70  1016   ---     N     5     5   ---   1.0 Scattered Clouds/
01/09/2008 19:50      27.0  21.0  28.8  26.0  70  1016   ---    NE     8     8   ---   0.9 Few Clouds/
01/09/2008 20:50      26.0  21.0  27.9  24.6  74  1016   ---    NE    10    10   ---   --- /
01/09/2008 21:50      26.0  20.0  27.6  25.4  70  1017   ---   ENE     6     6   ---   --- /
01/09/2008 22:50      25.0  20.0  26.9  23.7  74  1017   ---     S     8     8   ---   --- /
01/09/2008 23:50      25.0  20.0  26.9  23.4  74  1017   ---     S    10    10   ---   --- /
02/09/2008 00:50      26.0  20.0  27.6  24.1  70  1017   ---     S    13    13   ---   --- /
02/09/2008 01:50      26.0  20.0  27.6  23.4  70  1016   ---   SSW    18    18   ---   --- /
02/09/2008 02:50      26.0  20.0  27.6  23.4  70  1016   ---   SSW    18    18   ---   --- /
02/09/2008 03:50      25.0  20.0  26.9  22.0  74  1017   ---     S    18    18   ---   --- /
02/09/2008 04:50      25.0  20.0  26.9  21.7  74  1016   ---     S    19    19   ---   0.5 Few Clouds/
02/09/2008 05:50      25.0  19.0  26.6  22.0  69  1016   ---     S    18    18   ---   --- /
02/09/2008 06:50      25.0  19.0  26.6  22.1  69  1016   ---     S    16    16   ---   --- /
02/09/2008 07:50      25.0  19.0  26.6  22.5  69  1017   ---     S    14    14   ---   --- /
02/09/2008 08:50      26.0  19.0  27.3  23.1  65  1017   ---   SSW    19    19   ---   --- /
02/09/2008 09:50      28.0  19.0  29.3  26.2  58  1016   ---    SW    16    16   ---   --- /
02/09/2008 10:20      28.0  19.0  29.3  26.1  58  1017   ---    SW    18    18   ---   --- /
02/09/2008 11:50      28.0  21.0  30.1  26.6  66  1016   ---   WSW    13    13   ---   --- /
02/09/2008 12:50      28.0  21.0  30.1  25.9  66  1016   ---   WNW    21    21   ---   --- /
02/09/2008 13:50      27.0  22.0  29.2  24.3  74  1016   ---     W    23    23   ---   0.7 Few Clouds/
02/09/2008 14:50      27.0  22.0  29.2  23.9  74  1016   ---   WNW    31    31   ---   0.7 Few Clouds/
02/09/2008 15:50      27.0  21.0  28.8  23.6  70  1015   ---   WNW    37    37   ---   0.7 Few Clouds/
02/09/2008 16:50      27.0  21.0  28.8  23.6  70  1015   ---   WNW    37    37   ---   0.7 Few Clouds/
02/09/2008 17:50      27.0  21.0  28.8  23.8  70  1014   ---   WNW    32    32   ---   0.7 Few Clouds/
02/09/2008 18:50      27.0  22.0  29.2  23.8  74  1015   ---   WNW    32    32   ---   0.7 Few Clouds/
02/09/2008 19:50      27.0  21.0  28.8  24.0  70  1015   ---     W    29    29   ---   0.7 Few Clouds/
02/09/2008 20:50      26.0  22.0  28.3  22.6  79  1015   ---     W    26    26   ---   0.7 Few Clouds/
02/09/2008 21:50      26.0  22.0  28.3  23.5  79  1015   ---   WSW    16    16   ---   0.6 Few Clouds/
02/09/2008 22:50      26.0  19.0  27.3  23.8  65  1015   ---     W    14    14   ---   0.6 Few Clouds/
03/09/2008 00:50      24.0  18.0  25.6  22.5  69  1016   ---     S     8     8   ---   0.6 Few Clouds/
03/09/2008 01:50      25.0  19.0  26.6  23.4  69  1015   ---    SW    10    10   ---   0.6 Few Clouds/
03/09/2008 02:50      24.0  19.0  25.9  21.5  74  1015   ---   SSW    13    13   ---   0.6 Few Clouds/
03/09/2008 03:50      24.0  19.0  25.9  21.1  74  1015   ---   SSW    14    14   ---   0.6 Few Clouds/
03/09/2008 04:50      24.0  19.0  25.9  20.8  74  1014   ---     S    16    16   ---   --- /
03/09/2008 05:50      23.0  18.0  24.9  19.8  73  1015   ---     S    14    14   ---   --- /
03/09/2008 06:50      23.0  18.0  24.9  21.0  73  1015   ---   SSW    10    10   ---   0.7 Few Clouds/
03/09/2008 07:50      24.0  18.0  25.6  21.5  69  1015   ---   SSW    13    13   ---   --- /
03/09/2008 08:50      26.0  19.0  27.3  25.4  65  1016   ---   SSW     6     6   ---   --- /
03/09/2008 09:50      26.0  19.0  27.3  23.8  65  1015   ---   WSW    14    14   ---   --- /
03/09/2008 10:50      26.0  19.0  27.3  24.6  65  1016   ---     W    10    10   ---   --- /
03/09/2008 11:50      27.0  18.0  27.9  26.0  58  1016   ---    NW     8     8   ---   --- /
03/09/2008 12:50      28.0  20.0  29.7  26.6  62  1015   ---     N    13    13   ---   --- /
03/09/2008 13:50      27.0  20.0  28.5  24.9  66  1015   ---   NNE    16    16   ---   --- /
03/09/2008 14:50      27.0  21.0  28.8  24.4  70  1015   ---   NNE    21    21   ---   --- /
03/09/2008 15:50      27.0  21.0  28.8  24.3  70  1014   ---   NNE    23    23   ---   --- /
03/09/2008 16:50      27.0  21.0  28.8  24.5  70  1014   ---   NNE    19    19   ---   --- /
03/09/2008 17:50      27.0  22.0  29.2  24.7  74  1014   ---   NNE    18    18   ---   --- /
03/09/2008 18:50      27.0  21.0  28.8  24.7  70  1014   ---   NNE    18    18   ---   --- /
03/09/2008 19:50      27.0  21.0  28.8  24.7  70  1014   ---    NE    18    18   ---   --- /
03/09/2008 20:50      26.0  21.0  27.9  23.4  74  1014   ---    NE    18    18   ---   --- /
03/09/2008 21:50      26.0  21.0  27.9  23.8  74  1015   ---     E    14    14   ---   --- /
03/09/2008 22:50      26.0  21.0  27.9  26.0  74  1014   ---     E     3     3   ---   --- /
03/09/2008 23:50      25.0  20.0  26.9  25.0  74  1014   ---   SSW     5     5   ---   --- /
04/09/2008 00:50      24.0  19.0  25.9  24.0  74  1014   ---     S     5     5   ---   --- /
04/09/2008 01:50      24.0  20.0  26.2  23.2  78  1013   ---   SSW     6     6   ---   --- /
04/09/2008 02:50      24.0  20.0  26.2  24.0  78  1013   ---     S     3     3   ---   --- /
04/09/2008 03:50      24.0  20.0  26.2  24.0  78  1013   ---   NNE     3     3   ---   --- /
04/09/2008 04:50      23.0  19.0  25.2  23.0  78  1013   ---   SSE     3     3   ---   --- /
04/09/2008 05:20      23.0  19.0  25.2  23.0  78  1013   ---     S     3     3   ---   --- /
04/09/2008 06:50      23.0  19.0  25.2  23.0  78  1013   ---    SE     3     3   ---   --- /
04/09/2008 07:50      23.0  19.0  25.2  23.0  78  1014   ---     N     5     5   ---   --- /
04/09/2008 08:50      26.0  20.0  27.6  26.0  70  1014   ---     N     3     3   ---   --- /
04/09/2008 09:50      26.0  21.0  27.9  26.0  74  1014   ---     N     5     5   ---   --- /
04/09/2008 10:50      27.0  21.0  28.8  26.4  70  1015   ---    NW     6     6   ---   --- /
04/09/2008 11:50      28.0  22.0  30.7  27.2  70  1015   ---   NNW     8     8   ---   --- /
04/09/2008 12:50      28.0  21.0  30.1  26.4  66  1014   ---   NNE    14    14   ---   --- /
04/09/2008 13:50      29.0  21.0  31.4  27.3  62  1014   ---   NNE    21    21   ---   --- /
04/09/2008 14:50      29.0  22.0  32.0  27.3  66  1014   ---    NE    21    21   ---   --- /
04/09/2008 15:50      29.0  22.0  32.0  27.3  66  1014   ---    NE    21    21   ---   --- /
04/09/2008 16:50      29.0  22.0  32.0  27.5  66  1014   ---    NE    18    18   ---   --- /
04/09/2008 17:50      28.0  21.0  30.1  26.1  66  1014   ---    NE    18    18   ---   --- /
04/09/2008 18:50      28.0  20.0  29.7  25.9  62  1014   ---    NE    21    21   ---   --- /
04/09/2008 19:50      28.0  22.0  30.7  26.1  70  1014   ---   ENE    18    18   ---   --- /
04/09/2008 20:50      27.0  22.0  29.2  26.4  74  1014   ---    NE     6     6   ---   --- /
04/09/2008 21:50      26.0  20.0  27.6  26.0  70  1015   ---     N     5     5   ---   --- /
04/09/2008 22:50      26.0  19.0  27.3  26.0  65  1015   ---     N     3     3   ---   --- /
04/09/2008 23:50      25.0  18.0  26.3  23.7  65  1015   ---   SSW     8     8   ---   --- /
05/09/2008 00:50      25.0  17.0  26.1  25.0  61  1015   ---     N     5     5   ---   --- /
05/09/2008 01:50      24.0  16.0  25.1  24.0  61  1015   ---     N     5     5   ---   --- /
05/09/2008 02:50      24.0  17.0  25.3  24.0  65  1015   ---     N     2     2   ---   --- /
05/09/2008 03:50      24.0  16.0  25.1  24.0  61  1015   ---     N     2     2   ---   --- /
05/09/2008 04:50      24.0  17.0  25.3  24.0  65  1015   ---     N     5     5   ---   --- /
05/09/2008 05:50      25.0  17.0  26.1  24.3  61  1014   ---     E     6     6   ---   --- /
05/09/2008 06:50      25.0  19.0  26.6  25.0  69  1015   ---     N     5     5   ---   --- /
05/09/2008 07:50      25.0  19.0  26.6  25.0  69  1016   ---     N     5     5   ---   --- /
05/09/2008 08:50      27.0  18.0  27.9  27.0  58  1016   ---     N     5     5   ---   --- /
05/09/2008 09:50      30.0  16.0  30.0  30.0  43  1016   ---     N     3     3   ---   --- /
05/09/2008 10:50      29.0  19.0  30.3  27.2  55  1016   ---   ENE    23    23   ---   --- /
05/09/2008 11:50      30.0  22.0  33.3  28.8  62  1016   ---    NE    19    19   ---   1.2 Scattered Clouds/
05/09/2008 12:50      30.0  21.0  32.6  28.9  59  1016   ---    NE    18    18   ---   1.5 Few Clouds/
05/09/2008 13:50      31.0  20.0  33.0  30.2  52  1015   ---    NE    18    18   ---   --- /
05/09/2008 14:50      34.0  15.0  33.7  34.0  32  1015   ---    NE    19    19   ---   --- /
05/09/2008 15:50      34.0  14.0  33.3  34.0  30  1014   ---    NE    19    19   ---   --- /
05/09/2008 16:50      35.0  13.0  34.0  35.0  27  1014   ---   ENE    21    21   ---   --- /
05/09/2008 17:50      32.0  18.0  32.9  31.8  43  1014   ---     N     8     8   ---   --- /
05/09/2008 18:20      31.0  20.0  33.0  30.2  52  1014   ---    SW    18    18   ---   --- /
05/09/2008 19:50      30.0  17.0  30.4  28.9  46  1014   ---    SW    16    16   ---   --- /
05/09/2008 20:50      29.0  21.0  31.4  28.2  62  1015   ---   WSW    10    10   ---   --- /
05/09/2008 21:50      28.0  17.0  28.6  28.0  51  1015   ---     N     3     3   ---   --- /
05/09/2008 22:50      29.0  13.0  28.4  28.3  37  1015   ---   SSW     8     8   ---   --- /
05/09/2008 23:50      28.0  15.0  28.0  25.9  45  1015   ---    SW    19    19   ---   --- /
06/09/2008 00:50      30.0  11.0  28.8  29.0  31  1015   ---     S    14    14   ---   --- /
06/09/2008 01:50      32.0  16.0  32.0  31.8  38  1015   ---     S    10    10   ---   --- /
06/09/2008 02:50      33.0   7.0  30.9  33.0  20  1014   ---   SSE    16    16   ---   --- /
06/09/2008 03:50      29.0  16.0  29.1  29.0  45  1014   ---     N     3     3   ---   --- /
06/09/2008 04:50      27.0  17.0  27.7  26.0  54  1014   ---     E     8     8   ---   --- /
06/09/2008 05:50      27.0  15.0  27.3  27.0  48  1014   ---     N     3     3   ---   --- /
06/09/2008 06:50      27.0  20.0  28.5  27.0  66  1014   ---     N     2     2   ---   --- /
06/09/2008 07:50      27.0  19.0  28.2  26.0  62  1015   ---     S     8     8   ---   --- /
06/09/2008 08:50      34.0  10.0  32.3  34.0  23  1015   ---   SSW    21    21   ---   --- /
06/09/2008 09:50      35.0   7.0  32.8  35.0  18  1015   ---     S    29    29   ---   --- /
06/09/2008 10:50      36.0   8.0  33.9  36.0  18  1015   ---   SSW    18    18   ---   --- /
06/09/2008 11:50      30.0  22.0  33.3  28.9  62  1015   ---   NNE    16    16   ---   --- /
06/09/2008 12:50      34.0  16.0  34.1  34.0  34  1015   ---    NE    19    19   ---   --- /
06/09/2008 13:50      32.0  18.0  32.9  31.7  43  1015   ---    NE    14    14   ---   --- /
06/09/2008 14:50      31.0  22.0  34.6  30.7  59  1015   ---   NNE     8     8   ---   --- /
06/09/2008 15:50      32.0  21.0  34.9  31.6  52  1014   ---   NNE    18    18   ---   --- /
06/09/2008 16:50      31.0  22.0  34.6  30.3  59  1014   ---   NNE    16    16   ---   --- /
06/09/2008 17:50      33.0  19.0  34.6  33.0  44  1014   ---    NE    16    16   ---   --- /
06/09/2008 18:50      33.0  17.0  33.5  33.0  39  1013   ---   ENE    18    18   ---   --- /
06/09/2008 19:50      30.0  22.0  33.3  29.2  62  1013   ---   NNE    13    13   ---   --- /
06/09/2008 20:50      29.0  24.0  33.6  29.0  75  1014   ---     N     5     5   ---   --- /
06/09/2008 21:50      29.0  22.0  32.0  29.0  66  1014   ---     N     5     5   ---   --- /
06/09/2008 22:50      29.0  22.0  32.0  28.3  66  1014   ---    SW     8     8   ---   --- /
06/09/2008 23:50      31.0  15.0  30.6  30.3  38  1014   ---   SSW    16    16   ---   --- /
07/09/2008 00:50      31.0  14.0  30.3  30.1  36  1015   ---    SW    23    23   ---   --- /
07/09/2008 01:50      31.0  13.0  30.1  30.6  33  1015   ---    SW    10    10   ---   --- /
07/09/2008 02:50      29.0  16.0  29.1  27.9  45  1014   ---   SSW    13    13   ---   --- /
07/09/2008 03:50      30.0  13.0  29.2  28.9  35  1013   ---     S    18    18   ---   --- /
07/09/2008 04:50      28.0  16.0  28.3  27.0  48  1012   ---   ENE    10    10   ---   --- /
07/09/2008 05:50      28.0  21.0  30.1  27.5  66  1012   ---    SW     6     6   ---   --- /
07/09/2008 06:50      27.0  18.0  27.9  26.0  58  1013   ---   SSE     8     8   ---   --- /
07/09/2008 07:50      27.0  20.0  28.5  27.0  66  1013   ---    NE     5     5   ---   --- /
07/09/2008 08:50      30.0  17.0  30.4  29.7  46  1014   ---   SSE     6     6   ---   --- /
07/09/2008 09:50      34.0  13.0  33.0  34.0  28  1014   ---   SSE    13    13   ---   --- /
07/09/2008 10:50      31.0  13.0  30.1  30.4  33  1014   ---   WSW    13    13   ---   --- /
07/09/2008 11:50      31.0  23.0  35.5  30.6  63  1014   ---   NNE    10    10   ---   --- /
07/09/2008 12:50      31.0  24.0  36.6  30.6  66  1014   ---   NNE    10    10   ---   --- /
07/09/2008 13:50      31.0  23.0  35.5  30.4  63  1014   ---   NNE    13    13   ---   --- /
07/09/2008 14:50      31.0  19.0  32.4  30.4  49  1014   ---   NNW    14    14   ---   --- /
07/09/2008 15:50      32.0  20.0  34.2  31.7  49  1014   ---   NNE    14    14   ---   --- /
07/09/2008 16:50      30.0  23.0  34.2  29.2  66  1013   ---   NNE    13    13   ---   --- /
07/09/2008 17:50      30.0  22.0  33.3  29.2  62  1013   ---    NE    13    13   ---   0.7 Scattered Clouds/
07/09/2008 18:50      30.0  21.0  32.6  29.0  59  1013   ---    NE    14    14   ---   0.7 Few Clouds/
07/09/2008 19:50      30.0  18.0  30.8  30.0  49  1014   ---    NE     5     5   ---   --- /
07/09/2008 20:50      29.0  20.0  30.8  28.2  58  1014   ---    NE    10    10   ---   --- /
07/09/2008 21:50      29.0  18.0  29.9  28.6  52  1014   ---     S     6     6   ---   --- /
07/09/2008 22:20      28.0  20.0  29.7  26.6  62  1014   ---   SSW    13    13   ---   --- /
07/09/2008 23:50      28.0  20.0  29.7  27.0  62  1014   ---   SSW    10    10   ---   --- /
08/09/2008 00:50      27.0  20.0  28.5  25.3  66  1014   ---    SW    13    13   ---   --- /
08/09/2008 01:50      28.0  23.0  31.3  26.4  74  1014   ---    NE    14    14   ---   --- /
08/09/2008 02:50      27.0  21.0  28.8  25.3  70  1014   ---    NE    13    13   ---   --- /
08/09/2008 03:50      26.0  21.0  27.9  26.0  74  1014   ---     N     5     5   ---   --- /
08/09/2008 04:50      26.0  20.0  27.6  26.0  70  1014   ---     N     5     5   ---   --- /
08/09/2008 05:50      25.0  17.0  26.1  24.3  61  1014   ---     S     6     6   ---   --- /
08/09/2008 06:50      26.0  19.0  27.3  26.0  65  1014   ---     N     5     5   ---   --- /
08/09/2008 07:50      26.0  20.0  27.6  24.8  70  1014   ---    NE     8     8   ---   --- /
08/09/2008 08:50      28.0  21.0  30.1  26.4  66  1015   ---    NE    14    14   ---   --- /
08/09/2008 09:20      28.0  21.0  30.1  26.4  66  1015   ---   NNE    14    14   ---   --- /
08/09/2008 10:50      29.0  23.0  32.8  28.2  70  1016   ---   NNE    10    10   ---   --- /
08/09/2008 11:50      29.0  23.0  32.8  28.3  70  1016   ---   NNE     8     8   ---   --- /
08/09/2008 12:50      29.0  23.0  32.8  28.3  70  1016   ---     N     8     8   ---   --- /
08/09/2008 13:50      30.0  24.0  35.1  29.7  70  1015   ---   ENE     6     6   ---   --- /
08/09/2008 14:50      30.0  23.0  34.2  29.4  66  1015   ---     N    10    10   ---   --- /
08/09/2008 15:50      30.0  23.0  34.2  28.9  66  1015   ---   NNE    16    16   ---   --- /
08/09/2008 16:50      30.0  23.0  34.2  29.0  66  1015   ---   NNE    14    14   ---   --- /
08/09/2008 17:50      29.0  24.0  33.6  27.4  75  1015   ---   NNE    19    19   ---   --- /
08/09/2008 18:50      28.0  24.0  31.9  25.9  79  1015   ---   NNE    19    19   ---   --- /
08/09/2008 19:50      28.0  24.0  31.9  25.9  79  1015   ---    NE    21    21   ---   0.6 Few Clouds/
08/09/2008 20:50      28.0  24.0  31.9  25.8  79  1016   ---    NE    23    23   ---   0.5 Few Clouds/
08/09/2008 21:50      27.0  24.0  30.1  24.4  84  1016   ---    NE    21    21   ---   0.5 Few Clouds/
08/09/2008 22:50      27.0  24.0  30.1  25.1  84  1016   ---   ENE    14    14   ---   0.5 Few Clouds/
08/09/2008 23:50      27.0  24.0  30.1  24.9  84  1016   ---   ENE    16    16   ---   --- /
09/09/2008 00:50      27.0  24.0  30.1  25.3  84  1016   ---   ENE    13    13   ---   --- /
09/09/2008 01:50      26.0  23.0  28.6  26.0  84  1016   ---    SW     2     2   ---   --- /
09/09/2008 02:50      26.0  23.0  28.6  26.0  84  1016   ---   ENE     3     3   ---   --- /
09/09/2008 03:50      26.0  24.0  29.0  24.1  89  1016   ---   ENE    13    13   ---   --- /
09/09/2008 04:50      26.0  23.0  28.6  23.4  84  1016   ---   ENE    18    18   ---   0.5 Scattered Clouds/
09/09/2008 05:50      26.0  23.0  28.6  23.4  84  1016   ---   ENE    18    18   ---   0.5 Scattered Clouds/
09/09/2008 06:50      26.0  23.0  28.6  23.4  84  1016   ---   ENE    18    18   ---   --- /
09/09/2008 07:50      27.0  23.0  29.6  24.9  79  1017   ---   ENE    16    16   ---   --- Clear/
09/09/2008 08:50      27.0  23.0  29.6  24.5  79  1017   ---    NE    19    19   ---   0.7 Few Clouds/
09/09/2008 09:50      28.0  23.0  31.3  25.5  74  1017   ---    NE    29    29   ---   0.3 Few Clouds/
09/09/2008 10:50      28.0  22.0  30.7  25.5  70  1018   ---    NE    29    29   ---   0.3 Few Clouds/
09/09/2008 11:50      28.0  22.0  30.7  25.5  70  1017   ---    NE    29    29   ---   --- /
09/09/2008 12:50      29.0  22.0  32.0  26.9  66  1017   ---    NE    31    31   ---   --- /
09/09/2008 13:50      29.0  22.0  32.0  27.0  66  1017   ---    NE    29    29   ---   --- /
09/09/2008 14:50      29.0  23.0  32.8  26.9  70  1017   ---    NE    32    32   ---   --- /
09/09/2008 15:50      29.0  22.0  32.0  26.9  66  1016   ---    NE    31    31   ---   --- /
09/09/2008 16:50      30.0  16.0  30.0  28.4  43  1016   ---    NE    34    34   ---   --- /
09/09/2008 17:50      29.0  19.0  30.3  26.9  55  1016   ---    NE    32    32   ---   --- /
09/09/2008 18:50      28.0  19.0  29.3  25.4  58  1016   ---    NE    31    31   ---   --- /
09/09/2008 19:50      27.0  19.0  28.2  24.0  62  1016   ---    NE    27    27   ---   --- /
09/09/2008 20:50      27.0  21.0  28.8  24.0  70  1016   ---    NE    27    27   ---   --- /
09/09/2008 21:50      27.0  20.0  28.5  24.7  66  1017   ---   ENE    18    18   ---   --- /
09/09/2008 22:50      26.0  20.0  27.6  24.8  70  1017   ---     E     8     8   ---   --- /
09/09/2008 23:50      26.0  19.0  27.3  24.6  65  1017   ---   ESE    10    10   ---   --- /
10/09/2008 00:50      25.0  19.0  26.6  25.0  69  1017   ---     N     5     5   ---   --- /
10/09/2008 01:50      24.0  18.0  25.6  23.2  69  1016   ---    SW     6     6   ---   --- /
10/09/2008 02:50      24.0  18.0  25.6  24.0  69  1016   ---     N     3     3   ---   --- /
10/09/2008 03:50      23.0  18.0  24.9  21.3  73  1016   ---   SSW     8     8   ---   --- /
10/09/2008 04:50      23.0  17.0  24.6  21.3  69  1015   ---     S     8     8   ---   --- /
10/09/2008 05:50      24.0  18.0  25.6  22.5  69  1016   ---    SW     8     8   ---   --- /
10/09/2008 06:50      25.0  20.0  26.9  22.5  74  1016   ---    SW    14    14   ---   --- /
10/09/2008 07:50      24.0  19.0  25.9  23.2  74  1017   ---    SW     6     6   ---   --- /
10/09/2008 08:50      26.0  19.0  27.3  26.0  65  1017   ---     N     3     3   ---   --- /
10/09/2008 09:50      27.0  20.0  28.5  26.0  66  1017   ---     N     8     8   ---   --- /
10/09/2008 10:50      27.0  20.0  28.5  24.9  66  1017   ---   NNE    16    16   ---   --- /
10/09/2008 11:50      29.0  20.0  30.8  27.2  58  1016   ---    NE    23    23   ---   --- /
10/09/2008 12:50      30.0  18.0  30.8  28.5  49  1016   ---    NE    27    27   ---   --- /
10/09/2008 13:50      29.0  21.0  31.4  26.9  62  1016   ---    NE    31    31   ---   --- /
10/09/2008 14:50      29.0  20.0  30.8  27.0  58  1015   ---    NE    27    27   ---   --- /
10/09/2008 15:50      30.0  20.0  31.9  28.5  55  1015   ---    NE    27    27   ---   --- /
10/09/2008 16:50      29.0  19.0  30.3  27.0  55  1015   ---    NE    27    27   ---   --- /
10/09/2008 17:50      29.0  20.0  30.8  27.1  58  1014   ---    NE    26    26   ---   --- /
10/09/2008 18:50      29.0  20.0  30.8  27.3  58  1014   ---   ENE    21    21   ---   --- /
10/09/2008 19:50      28.0  21.0  30.1  27.0  66  1014   ---   ENE    10    10   ---   --- /
10/09/2008 20:50      28.0  22.0  30.7  27.2  70  1015   ---     W     8     8   ---   --- /
10/09/2008 21:50      26.0  21.0  27.9  26.0  74  1015   ---    SW     3     3   ---   --- /
10/09/2008 22:50      26.0  21.0  27.9  26.0  74  1015   ---     N     5     5   ---   --- /
10/09/2008 23:50      25.0  19.0  26.6  25.0  69  1015   ---     N     5     5   ---   --- /
11/09/2008 00:50      24.0  18.0  25.6  24.0  69  1014   ---     N     5     5   ---   --- /
11/09/2008 01:50      24.0  16.0  25.1  24.0  61  1014   ---     N     5     5   ---   --- /
11/09/2008 02:50      24.0  15.0  24.8  23.2  57  1014   ---   SSW     6     6   ---   --- /
11/09/2008 03:50      23.0  17.0  24.6  21.0  69  1014   ---   SSW    10    10   ---   --- /
11/09/2008 04:50      25.0  18.0  26.3  23.7  65  1014   ---     S     8     8   ---   --- /
11/09/2008 05:20      26.0  20.0  27.6  24.8  70  1014   ---     S     8     8   ---   --- /
11/09/2008 06:50      24.0  20.0  26.2  23.2  78  1014   ---     S     6     6   ---   --- /
11/09/2008 07:50      25.0  20.0  26.9  25.0  74  1014   ---     N     3     3   ---   --- /
11/09/2008 08:50      27.0  21.0  28.8  27.0  70  1014   ---    NE     5     5   ---   --- /
11/09/2008 09:50      27.0  22.0  29.2  25.8  74  1014   ---   NNE    10    10   ---   --- /
11/09/2008 10:50      27.0  23.0  29.6  25.3  79  1015   ---   NNE    13    13   ---   --- /
11/09/2008 11:50      28.0  23.0  31.3  26.2  74  1015   ---   NNE    16    16   ---   --- /
11/09/2008 12:50      28.0  23.0  31.3  26.1  74  1014   ---   NNE    18    18   ---   --- /
11/09/2008 13:50      28.0  23.0  31.3  25.9  74  1014   ---    NE    21    21   ---   --- /
11/09/2008 14:50      28.0  23.0  31.3  26.1  74  1013   ---   NNE    18    18   ---   --- /
11/09/2008 15:50      29.0  23.0  32.8  27.7  70  1013   ---   NNE    14    14   ---   --- /
11/09/2008 16:50      28.0  23.0  31.3  27.0  74  1013   ---   NNE    10    10   ---   --- /
11/09/2008 17:50      28.0  23.0  31.3  27.0  74  1013   ---   NNE    10    10   ---   --- /
11/09/2008 18:50      28.0  23.0  31.3  27.0  74  1013   ---     N    10    10   ---   --- /
11/09/2008 19:50      28.0  23.0  31.3  27.5  74  1013   ---   NNE     6     6   ---   --- /
11/09/2008 20:50      27.0  23.0  29.6  27.0  79  1013   ---     N     5     5   ---   --- /
11/09/2008 21:50      27.0  21.0  28.8  27.0  70  1013   ---     N     3     3   ---   --- /
11/09/2008 22:50      26.0  22.0  28.3  26.0  79  1013   ---   SSE     3     3   ---   --- /
11/09/2008 23:50      25.0  21.0  27.2  25.0  79  1013   ---     N     5     5   ---   --- /
12/09/2008 00:50      25.0  20.0  26.9  25.0  74  1012   ---    SW     5     5   ---   --- /
12/09/2008 01:50      25.0  20.0  26.9  23.7  74  1012   ---    SW     8     8   ---   --- /
12/09/2008 02:50      26.0  21.0  27.9  23.5  74  1011   ---    SW    16    16   ---   --- /
12/09/2008 03:50      25.0  20.0  26.9  21.2  74  1011   ---   WSW    26    26   ---   --- /
12/09/2008 04:50      26.0  19.0  27.3  23.4  65   ---   ---   WSW    18    18   ---   --- /
12/09/2008 05:50      26.0  19.0  27.3  23.8  65   ---   ---   WSW    14    14   ---   --- /
12/09/2008 06:50      24.0  18.0  25.6  24.0  69   ---   ---     N     5     5   ---   --- /
12/09/2008 07:50      25.0  19.0  26.6  25.0  69   ---   ---     N     5     5   ---   --- /
12/09/2008 08:50      28.0  20.0  29.7  26.2  62   ---   ---   ENE    16    16   ---   --- /
12/09/2008 09:50      27.0  20.0  28.5  25.8  66   ---   ---   WSW    10    10   ---   --- /
12/09/2008 10:50      28.0  21.0  30.1  27.5  66   ---   ---     W     6     6   ---   --- /
12/09/2008 11:50      29.0  22.0  32.0  29.0  66   ---   ---     N     3     3   ---   --- /
12/09/2008 12:50      30.0  22.0  33.3  30.0  62   ---   ---     N     5     5   ---   --- /
12/09/2008 13:50      28.0  23.0  31.3  26.4  74   ---   ---     N    14    14   ---   --- /
12/09/2008 14:50      29.0  23.0  32.8  27.7  70   ---   ---   NNE    14    14   ---   0.6 Few Clouds/
12/09/2008 15:20      29.0  23.0  32.8  27.4  70   ---   ---   NNE    19    19   ---   0.6 Few Clouds/
12/09/2008 16:50      29.0  22.0  32.0  27.0  66   ---   ---   ENE    27    27   ---   0.6 Few Clouds/
12/09/2008 17:50      29.0  23.0  32.8  27.0  70   ---   ---    NE    27    27   ---   0.6 Few Clouds/
12/09/2008 18:50      29.0  23.0  32.8  27.5  70   ---   ---    NE    18    18   ---   0.6 Few Clouds/
12/09/2008 19:50      28.0  22.0  30.7  25.9  70   ---   ---   SSW    19    19   ---   0.6 Few Clouds/
12/09/2008 20:50      27.0  23.0  29.6  25.1  79   ---   ---    SW    14    14   ---   0.6 Few Clouds/
12/09/2008 21:50      27.0  24.0  30.1  25.8  84   ---   ---    SW    10    10   ---   0.6 Few Clouds/
12/09/2008 22:20      27.0  24.0  30.1  25.8  84   ---   ---     W    10    10   ---   0.6 Few Clouds/
12/09/2008 23:50      27.0  21.0  28.8  24.4  70   ---   ---    SW    21    21   ---   0.6 Few Clouds/
13/09/2008 00:50      27.0  21.0  28.8  24.4  70   ---   ---   SSW    21    21   ---   0.6 Few Clouds/
13/09/2008 01:50      28.0  21.0  30.1  25.6  66  1013   ---   SSW    26    26   ---   0.6 Few Clouds/
13/09/2008 02:50      28.0  19.0  29.3  26.1  58  1011   ---   SSE    18    18   ---   0.6 Few Clouds/
13/09/2008 03:50      28.0  19.0  29.3  27.5  58  1010   ---    SW     6     6   ---   0.6 Few Clouds/
13/09/2008 04:50      28.0  20.0  29.7  27.5  62  1009   ---   ENE     6     6   ---   0.6 Few Clouds/
13/09/2008 05:50      26.0  20.0  27.6  24.6  70  1009   ---   SSE    10    10   ---   0.6 Few Clouds/
13/09/2008 06:50      26.0  20.0  27.6  24.8  70  1010   ---     S     8     8   ---   0.6 Broken Clouds/
13/09/2008 07:50      28.0  23.0  31.3  25.3  74  1013   ---     W    34    34   ---   0.4 Broken Clouds/
13/09/2008 08:50      27.0  20.0  28.5  27.0  66  1012   ---   SSW     5     5   ---   0.4 Broken Clouds/
13/09/2008 09:50      28.0  19.0  29.3  26.4  58  1013   ---   ENE    14    14   ---   0.5 Broken Clouds/
13/09/2008 10:50      28.0  20.0  29.7  27.0  62  1013   ---   WSW    10    10   ---   0.5 Broken Clouds/
13/09/2008 11:50      28.0  21.0  30.1  27.0  66  1012   ---     W    10    10   ---   0.5 Broken Clouds/
13/09/2008 12:50      30.0  19.0  31.3  29.2  52  1011   ---    SW    13    13   ---   0.6 Broken Clouds/
13/09/2008 13:50      30.0  20.0  31.9  29.4  55  1011   ---     W    10    10   ---   --- /
13/09/2008 14:50      29.0  21.0  31.4  27.3  62  1011   ---   WNW    21    21   ---   --- /
13/09/2008 15:50      28.0  20.0  29.7  25.2  62  1012   ---   WNW    37    37   ---   0.6 Few Clouds/
13/09/2008 16:50      27.0  20.0  28.5  23.9  66  1012   ---   WNW    31    31   ---   0.6 Few Clouds/
13/09/2008 16:50      27.0  20.0  28.5  23.9  66  1012   ---   WNW    31    31   ---   0.6 Few Clouds/None reported
13/09/2008 17:50      27.0  20.0  28.5  25.8  66  1012   ---   WNW    10    10   ---   0.6 Few Clouds/
13/09/2008 18:50      26.0  20.0  27.6  26.0  70  1011   ---   WSW     5     5   ---   --- /
13/09/2008 19:50      26.0  19.0  27.3  26.0  65  1012   ---    NW     5     5   ---   --- /
13/09/2008 20:50      26.0  19.0  27.3  26.0  65  1013   ---   WNW     5     5   ---   --- /
13/09/2008 22:20      26.0  20.0  27.6  26.0  70  1014   ---   SSW     5     5   ---   --- Overcast/ Light Rain
13/09/2008 22:50      25.0  17.0  26.1  22.5  61  1013   ---    NW    14    14   ---   --- Overcast/ Light Rain
13/09/2008 23:50      24.0  19.0  25.9  23.2  74  1012   ---     S     6     6   ---   0.5 Scattered Clouds/
14/09/2008 00:50      25.0  19.0  26.6  25.0  69  1011   ---   NNW     5     5   ---   0.5 Scattered Clouds/
14/09/2008 02:20      25.0  19.0  26.6  22.5  69  1012   ---   WNW    14    14   ---   --- Overcast/ Rain
14/09/2008 02:50      24.0  18.0  25.6  20.6  69  1012   ---    NW    18    18   ---   --- Overcast/ Light Rain
14/09/2008 03:50      23.0  19.0  25.2  18.5  78  1012   ---    NW    23    23   ---   --- Overcast/ Light Rain
14/09/2008 04:50      22.0  19.0  24.6  18.5  83  1013   ---   WNW    14    14   ---   --- Overcast/ Light Rain
14/09/2008 05:50      21.0  18.0  23.6  17.2  83  1011   ---     S    14    14   ---   --- Overcast/ Light Rain
14/09/2008 06:50      21.0  17.0  23.2  15.2  78  1011   ---     S    26    26   ---   --- Overcast/ Light Rain
14/09/2008 07:50      21.0  18.0  23.6  18.6  83  1011   ---   SSW    10    10   ---   0.7 Broken Clouds/
14/09/2008 08:50      20.0  17.0  22.6  13.2  83  1012   ---     W    31    31   ---   --- Overcast/ Rain
14/09/2008 08:50      20.0  17.0  22.6  13.2  83  1012   ---     W    31    31   ---   --- Overcast/ Rain
14/09/2008 09:50      20.0  17.0  22.6  17.8  83  1012   ---     S     8     8   ---   --- Overcast/ Light Rain
14/09/2008 09:50      20.0  17.0  22.6  17.8  83  1012   ---     S     8     8   ---   --- Overcast/ Light Rain
14/09/2008 09:50      20.0  17.0  22.6  17.8  83  1012   ---     S     8     8   ---   --- Overcast/ Light Rain
14/09/2008 10:50      21.0  16.0  22.9  15.8  73  1012   ---   WNW    21    21   ---   --- Overcast/ Light Rain
14/09/2008 10:50      21.0  16.0  22.9  15.8  73  1012   ---   WNW    21    21   ---   --- Overcast/ Light Rain
14/09/2008 10:50      21.0  16.0  22.9  15.8  73  1012   ---   WNW    21    21   ---   --- Overcast/ Light Rain
14/09/2008 11:50      20.0  16.0  22.2  15.3  78  1013   ---   WSW    16    16   ---   --- Overcast/ Rain
14/09/2008 12:50      18.0  14.0  20.2  13.8  77  1013   ---   SSW    13    13   ---   --- Overcast/ Light Rain
14/09/2008 13:50      19.0  15.0  21.2  14.5  78  1013   ---   SSE    14    14   ---   --- Overcast/ Light Rain
14/09/2008 14:50      19.0  14.0  20.8  12.7  73  1011   ---   SSE    23    23   ---   --- Overcast/ Light Rain
14/09/2008 15:50      20.0  15.0  21.8  15.9  73  1011   ---     S    14    14   ---   0.7 Scattered Clouds/
14/09/2008 16:50      21.0  14.0  22.3  17.2  64  1010   ---   SSW    14    14   ---   0.8 Scattered Clouds/
14/09/2008 17:50      22.0  14.0  23.0  17.9  61  1011   ---   SSW    18    18   ---   0.6 Scattered Clouds/
14/09/2008 18:50      23.0  16.0  24.3  18.2  65  1011   ---   WSW    26    26   ---   0.6 Scattered Clouds/
14/09/2008 19:50      23.0  16.0  24.3  18.7  65  1010   ---     W    21    21   ---   0.7 Broken Clouds/
14/09/2008 20:50      21.0  15.0  22.5  16.5  69  1010   ---     S    18    18   ---   0.7 Broken Clouds/
14/09/2008 21:50      21.0  15.0  22.5  14.9  69  1010   ---   SSW    29    29   ---   0.7 Scattered Clouds/
14/09/2008 22:50      22.0  15.0  23.3  17.1  65  1010   ---   SSW    23    23   ---   0.7 Broken Clouds/
14/09/2008 23:50      24.0  16.0  25.1  18.9  61  1010   ---     W    39    39   ---   0.7 Broken Clouds/
15/09/2008 00:50      23.0  16.0  24.3  17.3  65  1009   ---     W    42    42   ---   0.7 Broken Clouds/
15/09/2008 01:50      24.0  16.0  25.1  19.2  61  1009   ---     W    34    34   ---   0.7 Broken Clouds/
15/09/2008 02:50      24.0  15.0  24.8  18.9  57  1009   ---     W    39    39   ---   0.7 Broken Clouds/
15/09/2008 03:50      23.0  15.0  24.1  17.4  61  1009   ---     W    39    39   ---   0.7 Broken Clouds/
15/09/2008 04:50      23.0  16.0  24.3  17.4  65  1009   ---     W    39    39   ---   0.7 Broken Clouds/
15/09/2008 05:50      23.0  16.0  24.3  17.7  65  1009   ---     W    32    32   ---   0.7 Broken Clouds/
15/09/2008 06:50      23.0  15.0  24.1  17.4  61  1008   ---     W    39    39   ---   0.6 Broken Clouds/
15/09/2008 07:50      24.0  16.0  25.1  19.2  61  1008   ---     W    32    32   ---   0.6 Scattered Clouds/
15/09/2008 08:50      23.0  17.0  24.6  18.2  69  1009   ---     W    26    26   ---   0.6 Scattered Clouds/
15/09/2008 09:50      21.0  15.0  22.5  14.5  69  1010   ---   WNW    34    53   ---   --- Overcast/ Rain Showers
15/09/2008 10:50      24.0  17.0  25.3  19.2  65  1010   ---     W    32    32   ---   0.7 Scattered Clouds/
15/09/2008 11:50      24.0  16.0  25.1  19.3  61  1010   ---     W    31    31   ---   0.7 Scattered Clouds/
15/09/2008 12:50      24.0  16.0  25.1  19.2  61  1010   ---   WNW    32    32   ---   0.7 Scattered Clouds/
15/09/2008 13:50      24.0  16.0  25.1  19.5  61  1011   ---     W    29    29   ---   0.8 Scattered Clouds/
15/09/2008 14:50      24.0  16.0  25.1  19.5  61  1011   ---     W    29    29   ---   0.8 Scattered Clouds/
15/09/2008 15:50      24.0  16.0  25.1  19.2  61  1010   ---     W    32    32   ---   0.8 Scattered Clouds/
15/09/2008 16:50      24.0  16.0  25.1  19.2  61  1010   ---     W    32    32   ---   0.8 Scattered Clouds/
15/09/2008 17:50      24.0  16.0  25.1  19.3  61  1010   ---     W    31    31   ---   0.8 Scattered Clouds/
15/09/2008 18:50      24.0  16.0  25.1  19.5  61  1010   ---     W    27    27   ---   0.7 Scattered Clouds/
15/09/2008 19:50      24.0  16.0  25.1  19.2  61  1010   ---     W    32    32   ---   0.7 Scattered Clouds/
15/09/2008 20:50      24.0  14.0  24.6  19.3  54  1011   ---     W    31    31   ---   0.8 Scattered Clouds/
15/09/2008 21:50      24.0  14.0  24.6  19.2  54  1011   ---     W    34    34   ---   0.8 Scattered Clouds/
15/09/2008 22:50      24.0  15.0  24.8  19.5  57  1011   ---     W    27    27   ---   0.7 Scattered Clouds/
15/09/2008 23:50      24.0  15.0  24.8  19.0  57  1011   ---     W    37    37   ---   0.7 Scattered Clouds/
16/09/2008 00:50      24.0  14.0  24.6  19.0  54  1010   ---     W    37    37   ---   0.7 Scattered Clouds/
16/09/2008 01:50      24.0  14.0  24.6  19.0  54  1010   ---     W    37    37   ---   0.7 Scattered Clouds/
16/09/2008 02:50      24.0  15.0  24.8  18.8  57  1010   ---     W    42    42   ---   0.7 Scattered Clouds/
16/09/2008 03:50      24.0  15.0  24.8  18.7  57  1009   ---     W    45    45   ---   0.7 Scattered Clouds/
16/09/2008 04:50      24.0  15.0  24.8  18.8  57  1009   ---     W    43    43   ---   0.8 Scattered Clouds/
16/09/2008 05:50      23.0  15.0  24.1  17.3  61  1009   ---     W    42    42   ---   0.8 Scattered Clouds/
16/09/2008 06:50      23.0  15.0  24.1  17.3  61  1009   ---     W    42    42   ---   0.8 Scattered Clouds/
16/09/2008 07:50      23.0  14.0  23.8  17.7  57  1010   ---     W    32    32   ---   0.8 Scattered Clouds/
16/09/2008 08:50      23.0  13.0  23.6  17.3  53  1010   ---     W    40    40   ---   0.8 Scattered Clouds/
16/09/2008 09:50      23.0  13.0  23.6  17.7  53  1010   ---     W    32    32   ---   0.8 Scattered Clouds/
16/09/2008 10:50      23.0  15.0  24.1  17.8  61  1011   ---     W    31    31   ---   0.8 Scattered Clouds/
16/09/2008 11:50      23.0  15.0  24.1  18.0  61  1011   ---     W    29    29   ---   0.8 Scattered Clouds/
16/09/2008 12:50      23.0  15.0  24.1  17.8  61  1011   ---     W    31    31   ---   0.8 Broken Clouds/
16/09/2008 13:50      23.0  14.0  23.8  18.0  57  1011   ---     W    27    27   ---   0.8 Broken Clouds/
16/09/2008 14:50      24.0  15.0  24.8  19.5  57  1011   ---     W    29    29   ---   0.7 Scattered Clouds/
16/09/2008 15:50      24.0  15.0  24.8  19.5  57  1011   ---     W    29    29   ---   0.7 Scattered Clouds/
16/09/2008 16:50      24.0  14.0  24.6  19.5  54  1011   ---     W    27    27   ---   0.7 Scattered Clouds/
16/09/2008 17:50      24.0  15.0  24.8  19.7  57  1011   ---     W    26    26   ---   0.7 Scattered Clouds/
16/09/2008 18:50      24.0  14.0  24.6  20.0  54  1011   ---     W    23    23   ---   0.7 Scattered Clouds/
16/09/2008 19:50      23.0  14.0  23.8  18.9  57  1012   ---     W    19    19   ---   0.7 Scattered Clouds/
16/09/2008 20:50      23.0  14.0  23.8  18.9  57  1012   ---    NW    19    19   ---   0.8 Scattered Clouds/
16/09/2008 21:50      24.0  14.0  24.6  21.1  54  1013   ---   WNW    14    14   ---   0.8 Scattered Clouds/
16/09/2008 22:50      23.0  14.0  23.8  19.4  57  1013   ---   WNW    16    16   ---   0.8 Scattered Clouds/
16/09/2008 23:50      23.0  14.0  23.8  19.8  57  1013   ---   WNW    14    14   ---   0.8 Scattered Clouds/
17/09/2008 00:50      23.0  13.0  23.6  19.8  53  1013   ---     W    14    14   ---   0.8 Scattered Clouds/
17/09/2008 01:50      21.0  14.0  22.3  17.7  64  1013   ---     S    13    13   ---   0.8 Scattered Clouds/
17/09/2008 02:50      21.0  13.0  22.0  17.2  60  1013   ---     S    14    14   ---   0.8 Scattered Clouds/
17/09/2008 03:50      21.0  13.0  22.0  16.5  60  1013   ---     S    18    18   ---   0.8 Scattered Clouds/
17/09/2008 04:50      20.0  12.0  21.0  15.3  60  1013   ---     S    16    16   ---   0.8 Scattered Clouds/
17/09/2008 05:50      22.0  13.0  22.8  17.9  57  1013   ---    SW    18    18   ---   0.8 Scattered Clouds/
17/09/2008 06:50      22.0  13.0  22.8  17.9  57  1014   ---   SSW    18    18   ---   0.8 Broken Clouds/
17/09/2008 07:50      23.0  13.0  23.6  19.4  53  1014   ---   NNW    16    16   ---   0.8 Broken Clouds/
17/09/2008 08:50      23.0  12.0  23.4  18.9  50  1014   ---   NNW    19    19   ---   0.8 Broken Clouds/
17/09/2008 09:50      23.0  12.0  23.4  18.9  50  1015   ---   NNW    19    19   ---   0.9 Scattered Clouds/
17/09/2008 10:50      24.0  12.0  24.3  20.6  47  1016   ---   NNW    18    18   ---   0.9 Scattered Clouds/
17/09/2008 11:50      24.0  12.0  24.3  20.8  47  1016   ---   NNW    16    16   ---   0.9 Scattered Clouds/
17/09/2008 12:50      24.0  12.0  24.3  20.8  47  1017   ---    NW    16    16   ---   0.9 Scattered Clouds/
17/09/2008 13:50      24.0  13.0  24.5  21.1  50  1017   ---   NNW    14    14   ---   0.9 Scattered Clouds/
17/09/2008 14:50      24.0  13.0  24.5  21.1  50  1017   ---    NW    14    14   ---   0.9 Scattered Clouds/
17/09/2008 15:20      24.0  13.0  24.5  22.2  50  1017   ---   NNW    10    10   ---   0.9 Scattered Clouds/
17/09/2008 16:50      23.0  13.0  23.6  21.0  53  1016   ---     N    10    10   ---   0.6 Few Clouds/
17/09/2008 17:50      23.0  11.0  23.3  21.3  47  1016   ---   NNE     8     8   ---   0.6 Few Clouds/
17/09/2008 18:50      23.0  12.0  23.4  21.0  50  1016   ---    NE    10    10   ---   0.6 Few Clouds/
17/09/2008 19:50      22.0  12.0  22.6  18.9  53  1016   ---     E    13    13   ---   0.6 Scattered Clouds/
17/09/2008 20:20      23.0  13.0  23.6  18.5  53  1016   ---   ENE    23    23   ---   0.6 Scattered Clouds/
17/09/2008 21:50      22.0  13.0  22.8  17.1  57  1018   ---   ENE    23    23   ---   0.6 Scattered Clouds/
17/09/2008 22:50      22.0  12.0  22.6  18.1  53  1018   ---     E    16    16   ---   0.6 Scattered Clouds/
17/09/2008 23:50      22.0  12.0  22.6  18.1  53  1018   ---     E    16    16   ---   0.6 Scattered Clouds/
18/09/2008 00:50      21.0  12.0  21.8  16.5  56  1018   ---     E    18    18   ---   0.6 Scattered Clouds/
18/09/2008 01:50      21.0  12.0  21.8  16.7  56  1018   ---     E    16    16   ---   0.6 Scattered Clouds/
18/09/2008 02:50      21.0  12.0  21.8  16.5  56  1018   ---     E    18    18   ---   0.6 Scattered Clouds/
18/09/2008 03:50      20.0  11.0  20.8  15.9  56  1017   ---     E    14    14   ---   0.6 Scattered Clouds/
18/09/2008 04:50      20.0  11.0  20.8  17.8  56  1018   ---    SE     8     8   ---   0.6 Scattered Clouds/
18/09/2008 05:50      19.0  11.0  20.0  17.7  60  1018   ---   ESE     6     6   ---   --- /
18/09/2008 06:50      18.0  11.0  19.2  15.0  64  1018   ---   SSE    10    10   ---   --- /
18/09/2008 07:50      18.0  12.0  19.5  15.0  68  1018   ---   SSE    10    10   ---   --- /
18/09/2008 08:50      21.0  13.0  22.0  21.0  60  1019   ---     N     3     3   ---   0.6 Scattered Clouds/
18/09/2008 09:50      22.0  13.0  22.8  21.0  57  1019   ---     E     6     6   ---   0.6 Scattered Clouds/
18/09/2008 10:50      24.0  13.0  24.5  21.5  50  1020   ---    NE    13    13   ---   0.6 Few Clouds/
18/09/2008 11:50      24.0  13.0  24.5  22.2  50  1020   ---   NNE    10    10   ---   0.6 Few Clouds/
18/09/2008 12:50      24.0  14.0  24.6  21.1  54  1020   ---    NE    14    14   ---   0.6 Few Clouds/
18/09/2008 13:50      24.0  14.0  24.6  20.6  54  1019   ---    NE    18    18   ---   0.6 Few Clouds/
18/09/2008 14:50      25.0  15.0  25.7  21.6  54  1019   ---    NE    21    21   ---   0.6 Few Clouds/
18/09/2008 15:50      25.0  15.0  25.7  21.0  54  1018   ---    NE    27    27   ---   0.6 Few Clouds/
18/09/2008 16:50      25.0  13.0  25.3  20.7  47  1018   ---    NE    32    32   ---   --- /
18/09/2008 17:50      25.0  13.0  25.3  20.8  47  1018   ---    NE    31    31   ---   --- /
18/09/2008 18:50      24.0  13.0  24.5  19.3  50  1018   ---   ENE    31    31   ---   --- /
18/09/2008 19:50      23.0  13.0  23.6  18.2  53  1018   ---   ENE    26    26   ---   --- /
18/09/2008 20:50      23.0  13.0  23.6  18.7  53  1019   ---   ENE    21    21   ---   --- /
18/09/2008 21:50      23.0  13.0  23.6  19.2  53  1019   ---   ENE    18    18   ---   --- /
18/09/2008 22:50      21.0  13.0  22.0  16.7  60  1019   ---   ENE    16    16   ---   --- /
18/09/2008 23:50      21.0  13.0  22.0  16.7  60  1019   ---   ENE    16    16   ---   --- /
19/09/2008 00:50      21.0  13.0  22.0  19.9  60  1019   ---     E     6     6   ---   --- /
19/09/2008 01:50      21.0  13.0  22.0  19.9  60  1019   ---     E     6     6   ---   --- /
19/09/2008 02:50      19.0  13.0  20.5  17.7  68  1018   ---   SSE     6     6   ---   --- /
19/09/2008 03:50      19.0  13.0  20.5  16.7  68  1017   ---     S     8     8   ---   --- /
19/09/2008 04:50      19.0  12.0  20.2  17.7  64  1018   ---     S     6     6   ---   --- /
19/09/2008 05:50      18.0  12.0  19.5  16.6  68  1017   ---     S     6     6   ---   --- /
19/09/2008 06:50      19.0  13.0  20.5  19.0  68  1017   ---     N     5     5   ---   --- /
19/09/2008 07:50      19.0  13.0  20.5  16.7  68  1017   ---   SSE     8     8   ---   --- /
19/09/2008 08:50      21.0  15.0  22.5  21.0  69  1018   ---     N     5     5   ---   --- /
19/09/2008 09:50      23.0  14.0  23.8  19.4  57  1018   ---   SSW    16    16   ---   --- /
19/09/2008 10:20      24.0  13.0  24.5  22.2  50  1017   ---   SSW    10    10   ---   --- /
19/09/2008 11:50      25.0  14.0  25.5  25.0  51  1017   ---     N     5     5   ---   --- /
19/09/2008 12:50      24.0  15.0  24.8  23.2  57  1017   ---   NNE     6     6   ---   --- /
19/09/2008 13:50      25.0  16.0  25.9  25.0  57  1017   ---     N     3     3   ---   --- /
19/09/2008 14:50      24.0  15.0  24.8  22.5  57  1016   ---   NNE     8     8   ---   --- /
19/09/2008 15:50      24.0  16.0  25.1  23.2  61  1016   ---   WNW     6     6   ---   0.9 Broken Clouds/
19/09/2008 16:50      24.0  17.0  25.3  22.2  65  1015   ---   WSW    10    10   ---   0.9 Broken Clouds/
19/09/2008 16:50      24.0  17.0  25.3  22.2  65  1015   ---   WSW    10    10   ---   0.9 Broken Clouds/None reported
19/09/2008 17:50      24.0  16.0  25.1  21.5  61  1014   ---    SW    13    13   ---   0.9 Broken Clouds/
19/09/2008 18:50      24.0  13.0  24.5  20.1  50  1014   ---   SSW    21    21   ---   0.9 Broken Clouds/
19/09/2008 19:50      24.0  16.0  25.1  20.1  61  1013   ---   SSW    21    21   ---   0.9 Broken Clouds/
19/09/2008 20:50      24.0  18.0  25.6  19.5  69  1012   ---   SSW    29    29   ---   0.9 Broken Clouds/
19/09/2008 21:50      25.0  19.0  26.6  20.5  69  1012   ---     W    39    39   ---   0.8 Broken Clouds/
19/09/2008 22:20      25.0  20.0  26.9  20.5  74  1013   ---     W    37    37   ---   0.8 Broken Clouds/
19/09/2008 23:50      25.0  19.0  26.6  20.8  69  1012   ---   WNW    31    31   ---   0.8 Broken Clouds/
20/09/2008 00:50      20.0  17.0  22.6  12.3  83  1013   ---   NNW    45    64   ---   0.5 Broken Clouds/
20/09/2008 01:50      20.0  16.0  22.2  17.8  78  1012   ---   SSE     8     8   ---   0.5 Broken Clouds/
20/09/2008 02:50      22.0  18.0  24.2  18.1  78  1011   ---   WNW    16    16   ---   0.5 Broken Clouds/
20/09/2008 03:50      22.0  17.0  23.9  18.5  73  1011   ---     N    14    14   ---   0.5 Scattered Clouds/
20/09/2008 04:50      22.0  17.0  23.9  15.9  73  1011   ---     N    37    37   ---   0.5 Broken Clouds/
20/09/2008 05:50      22.0  16.0  23.6  16.1  69  1012   ---   NNE    34    34   ---   0.5 Broken Clouds/
20/09/2008 06:50      22.0  15.0  23.3  15.9  65  1012   ---   NNE    37    37   ---   0.5 Scattered Clouds/
20/09/2008 07:50      22.0  15.0  23.3  16.2  65  1012   ---   NNE    32    32   ---   0.5 Scattered Clouds/
20/09/2008 08:50      22.0  16.0  23.6  15.9  69  1012   ---   NNE    37    37   ---   --- Overcast/ Light Rain
20/09/2008 09:50      21.0  15.0  22.5  14.3  69  1013   ---    NE    37    37   ---   0.5 Broken Clouds/
20/09/2008 10:50      22.0  13.0  22.8  15.6  57  1013   ---    NE    43    43   ---   0.5 Broken Clouds/
20/09/2008 11:50      22.0  14.0  23.0  15.9  61  1014   ---    NE    37    37   ---   0.5 Broken Clouds/
20/09/2008 12:50      22.0  13.0  22.8  16.1  57  1014   ---    NE    34    34   ---   0.5 Broken Clouds/
20/09/2008 13:50      23.0  12.0  23.4  17.8  50  1014   ---    NE    31    31   ---   0.5 Broken Clouds/
20/09/2008 14:50      23.0  11.0  23.3  18.0  47  1014   ---    NE    29    29   ---   0.5 Scattered Clouds/
20/09/2008 15:50      23.0  11.0  23.3  18.2  47  1014   ---    NE    26    26   ---   0.5 Scattered Clouds/
20/09/2008 16:50      22.0  10.0  22.3  17.5  46  1014   ---    NE    19    19   ---   0.5 Broken Clouds/
20/09/2008 17:50      22.0  11.0  22.4  17.5  50  1014   ---    NE    19    19   ---   0.5 Broken Clouds/
20/09/2008 18:50      22.0  12.0  22.6  18.1  53  1015   ---    NE    16    16   ---   0.6 Broken Clouds/
20/09/2008 19:50      22.0  13.0  22.8  17.5  57  1015   ---   NNW    19    19   ---   0.6 Broken Clouds/
20/09/2008 20:50      21.0  10.0  21.4  18.6  49  1015   ---    NE    10    10   ---   0.7 Broken Clouds/
20/09/2008 21:50      21.0  11.0  21.6  18.6  53  1015   ---   ENE    10    10   ---   0.7 Broken Clouds/
20/09/2008 22:50      21.0  11.0  21.6  17.2  53  1015   ---    NE    14    14   ---   0.7 Broken Clouds/
20/09/2008 23:50      21.0  11.0  21.6  18.6  53  1015   ---    NE    10    10   ---   0.7 Broken Clouds/
21/09/2008 00:50      21.0  10.0  21.4  19.0  49  1015   ---     N     8     8   ---   0.6 Scattered Clouds/
21/09/2008 01:50      20.0  10.0  20.6  20.0  53  1015   ---     N     3     3   ---   0.6 Broken Clouds/
21/09/2008 02:50      19.0  12.0  20.2  17.7  64  1015   ---     S     6     6   ---   0.8 Scattered Clouds/
21/09/2008 03:50      19.0  11.0  20.0  15.1  60  1014   ---   SSE    13    13   ---   0.8 Scattered Clouds/
21/09/2008 04:50      18.0  13.0  19.8  11.3  73  1014   ---   ENE    23    23   ---   --- Overcast/ Light Rain
21/09/2008 05:20      18.0  14.0  20.2  13.8  77  1014   ---   ENE    13    13   ---   --- Overcast/ Light Rain
21/09/2008 06:50      17.0  14.0  19.5  14.3  83  1013   ---   SSE     8     8   ---   0.7 Broken Clouds/
21/09/2008 07:50      17.0  13.0  19.2  15.5  77  1014   ---     S     6     6   ---   0.6 Scattered Clouds/
21/09/2008 08:50      19.0  15.0  21.2  19.0  78  1014   ---     N     3     3   ---   0.7 Broken Clouds/
21/09/2008 09:50      18.0  13.0  19.8  15.5  73  1014   ---   ENE     8    31   ---   --- Overcast/ Light Rain
21/09/2008 10:50      19.0  15.0  21.2  19.0  78  1014   ---     N     5     5   ---   0.7 Broken Clouds/
21/09/2008 11:50      20.0  13.0  21.3  20.0  64  1014   ---     N     2     2   ---   0.7 Broken Clouds/
21/09/2008 12:50      21.0  13.0  22.0  21.0  60  1014   ---     N     3     3   ---   0.7 Broken Clouds/
21/09/2008 13:50      21.0  14.0  22.3  18.6  64  1013   ---    NW    10    10   ---   0.7 Broken Clouds/
21/09/2008 14:50      21.0  14.0  22.3  19.0  64  1013   ---     N     8     8   ---   0.7 Broken Clouds/
21/09/2008 15:50      22.0  14.0  23.0  20.2  61  1013   ---    NW     8     8   ---   0.7 Scattered Clouds/
21/09/2008 16:50      21.0  14.0  22.3  18.6  64  1013   ---   NNW    10    10   ---   0.7 Scattered Clouds/
21/09/2008 17:50      21.0  11.0  21.6  17.7  53  1013   ---   WNW    13    13   ---   0.7 Scattered Clouds/
21/09/2008 18:50      21.0  10.0  21.4  18.6  49  1013   ---     W    10    10   ---   0.7 Scattered Clouds/
21/09/2008 19:50      21.0  11.0  21.6  21.0  53  1012   ---     N     5     5   ---   0.7 Few Clouds/
21/09/2008 20:50      19.0  11.0  20.0  15.1  60  1012   ---   SSE    13    13   ---   0.7 Few Clouds/
21/09/2008 21:50      17.0  14.0  19.5   7.7  83  1013   ---   NNW    43    66   ---   0.6 Overcast/
21/09/2008 22:50      16.0  13.0  18.5  11.3  82  1013   ---     S    13    13   ---   --- Overcast/ Light Rain
21/09/2008 23:50      16.0  13.0  18.5   9.9  82  1013   ---     S    16    16   ---   0.7 Broken Clouds/
22/09/2008 00:50      18.0  14.0  20.2  12.4  77  1012   ---     S    18    18   ---   0.7 Scattered Clouds/
22/09/2008 01:50      18.0  14.0  20.2  13.2  77  1012   ---   SSE    14    14   ---   0.7 Scattered Clouds/
22/09/2008 02:50      18.0  14.0  20.2  15.0  77  1012   ---     S    10    10   ---   0.6 Broken Clouds/
22/09/2008 03:50      17.0  14.0  19.5  11.3  83  1011   ---     S    16    16   ---   0.7 Scattered Clouds/
22/09/2008 04:50      18.0  14.0  20.2  11.8  77  1011   ---     S    19    19   ---   0.7 Broken Clouds/
22/09/2008 05:50      17.0  14.0  19.5  13.8  83  1011   ---     S    10    10   ---   0.6 Scattered Clouds/
22/09/2008 06:50      18.0  14.0  20.2  12.6  77  1011   ---     S    16    16   ---   0.7 Scattered Clouds/
22/09/2008 07:50      18.0  13.0  19.8  13.8  73  1011   ---   SSE    13    13   ---   0.7 Few Clouds/
22/09/2008 08:50      20.0  14.0  21.5  18.8  68  1011   ---     S     6     6   ---   0.7 Few Clouds/
22/09/2008 09:50      21.0  14.0  22.3  17.2  64  1011   ---     S    14    14   ---   0.6 Scattered Clouds/
22/09/2008 09:50      21.0  14.0  22.3  17.2  64  1011   ---     S    14    14   ---   0.6 Scattered Clouds/None reported
22/09/2008 10:50      18.0  12.0  19.5  11.8  68  1011   ---     S    19    19   ---   --- Overcast/ Light Rain
22/09/2008 11:50      20.0  14.0  21.5  15.1  68  1011   ---     S    18    18   ---   --- Overcast/ Light Rain
22/09/2008 12:50      22.0  15.0  23.3  21.0  65  1011   ---    NE     6     6   ---   0.6 Scattered Clouds/
22/09/2008 13:50      22.0  15.0  23.3  21.0  65  1012   ---    NE     6     6   ---   0.7 Few Clouds/
22/09/2008 14:50      22.0  15.0  23.3  22.0  65  1011   ---     N     5     5   ---   0.7 Few Clouds/
22/09/2008 15:50      22.0  14.0  23.0  19.8  61  1011   ---   NNW    10    10   ---   0.7 Few Clouds/
22/09/2008 16:50      22.0  13.0  22.8  18.9  57  1011   ---   NNW    13    13   ---   0.7 Few Clouds/
22/09/2008 17:50      21.0  13.0  22.0  17.7  60  1011   ---     N    13    13   ---   0.7 Few Clouds/
22/09/2008 18:50      21.0  13.0  22.0  18.6  60  1011   ---   NNE    10    10   ---   0.7 Few Clouds/
22/09/2008 19:50      21.0  12.0  21.8  19.0  56  1011   ---   NNE     8     8   ---   0.7 Few Clouds/
22/09/2008 20:50      21.0  12.0  21.8  19.0  56  1012   ---   NNE     8     8   ---   0.7 Few Clouds/
22/09/2008 21:50      19.0  13.0  20.5  17.7  68  1012   ---   ENE     6     6   ---   0.7 Few Clouds/
22/09/2008 22:50      19.0  13.0  20.5  19.0  68  1012   ---     N     5     5   ---   0.7 Few Clouds/
22/09/2008 23:50      18.0  13.0  19.8  15.0  73  1012   ---   SSE    10    10   ---   0.7 Few Clouds/
23/09/2008 00:50      18.0  13.0  19.8  18.0  73  1012   ---     N     5     5   ---   0.7 Few Clouds/
23/09/2008 01:50      19.0  13.0  20.5  19.0  68  1012   ---     N     5     5   ---   0.7 Few Clouds/
23/09/2008 02:50      19.0  13.0  20.5  17.7  68  1011   ---     E     6     6   ---   0.7 Few Clouds/
23/09/2008 03:50      19.0  13.0  20.5  16.7  68  1011   ---     E     8     8   ---   0.6 Broken Clouds/
23/09/2008 04:50      19.0  13.0  20.5  16.7  68  1010   ---     E     8     8   ---   0.6 Broken Clouds/
23/09/2008 05:50      19.0  13.0  20.5  19.0  68  1010   ---     N     5     5   ---   0.6 Broken Clouds/
23/09/2008 06:50      18.0  13.0  19.8  15.5  73  1010   ---     S     8     8   ---   0.6 Broken Clouds/
23/09/2008 07:50      18.0  13.0  19.8  15.5  73  1010   ---   SSW     8     8   ---   0.7 Broken Clouds/
23/09/2008 08:50      19.0  14.0  20.8  17.7  73  1010   ---     S     6     6   ---   0.7 Scattered Clouds/
23/09/2008 09:50      22.0  11.0  22.4  21.0  50  1010   ---   WSW     6     6   ---   0.7 Broken Clouds/
23/09/2008 10:50      23.0  10.0  23.1  23.0  44  1010   ---     N     5     5   ---   0.7 Broken Clouds/
23/09/2008 11:50      23.0  11.0  23.3  21.3  47  1010   ---   NNE     8     8   ---   0.7 Broken Clouds/
23/09/2008 12:50      22.0  11.0  22.4  18.9  50  1010   ---    NE    13    13   ---   0.7 Broken Clouds/
23/09/2008 13:50      19.0  12.0  20.2  12.7  64  1011   ---   SSW    23    23   ---   --- Overcast/ Light Rain
23/09/2008 14:50      19.0  13.0  20.5  13.2  68  1010   ---    SW    19    19   ---   0.7 Overcast/
23/09/2008 15:50      20.0  13.0  21.3  16.4  64  1010   ---   WSW    13    13   ---   0.7 Overcast/
23/09/2008 16:50      21.0  13.0  22.0  19.9  60  1009   ---    NE     6     6   ---   0.7 Overcast/
23/09/2008 17:50      20.0  14.0  21.5  20.0  68  1009   ---     S     5     5   ---   0.7 Overcast/
23/09/2008 18:50      20.0  14.0  21.5  18.8  68  1009   ---   SSE     6     6   ---   --- Overcast/ Light Rain
23/09/2008 19:50      19.0  15.0  21.2  16.2  78  1009   ---   ENE    10    10   ---   --- Overcast/ Rain
23/09/2008 20:50      19.0  15.0  21.2  16.7  78  1009   ---     E     8     8   ---   0.7 Overcast/
23/09/2008 21:50      19.0  15.0  21.2  19.0  78  1009   ---     N     5     5   ---   0.7 Scattered Clouds/
23/09/2008 22:50      19.0  15.0  21.2  17.7  78  1009   ---   SSW     6     6   ---   0.7 Scattered Clouds/
23/09/2008 23:50      21.0  15.0  22.5  16.1  69  1009   ---     S    19    19   ---   0.7 Few Clouds/
24/09/2008 00:50      20.0  15.0  21.8  15.3  73  1009   ---     E    16    16   ---   0.7 Few Clouds/
24/09/2008 01:50      20.0  16.0  22.2  17.4  78  1008   ---   ENE    10    10   ---   0.7 Few Clouds/
24/09/2008 03:00      21.0  16.0  22.9  19.9  73  1007   ---    SW     6     6   ---   0.7 Scattered Clouds/
24/09/2008 03:50      19.0  16.0  21.6  10.7  83  1009   ---   NNW    45    45   ---   0.6 Scattered Clouds/
24/09/2008 04:50      19.0  15.0  21.2  13.0  78  1008   ---     E    21    21   ---   0.8 Scattered Clouds/
24/09/2008 05:50      19.0  16.0  21.6  19.0  83  1008   ---     N     5     5   ---   0.8 Scattered Clouds/
24/09/2008 06:50      20.0  16.0  22.2  20.0  78  1008   ---     N     5     5   ---   0.8 Scattered Clouds/
24/09/2008 07:50      21.0  17.0  23.2  19.9  78  1008   ---    SW     6     6   ---   0.8 Scattered Clouds/
24/09/2008 08:50      22.0  17.0  23.9  22.0  73  1008   ---     N     2     2   ---   0.8 Scattered Clouds/
24/09/2008 09:50      23.0  17.0  24.6  19.2  69  1008   ---   SSW    18    18   ---   0.4 Broken Clouds/
24/09/2008 10:50      19.0  16.0  21.6  14.5  83  1010   ---     E    14    14   ---   0.3 Broken Clouds/
24/09/2008 11:50      21.0  17.0  23.2  16.5  78  1010   ---     E    18    18   ---   0.4 Broken Clouds/
24/09/2008 12:50      20.0  17.0  22.6  20.0  83  1010   ---     N     5     5   ---   --- Overcast/ Light Rain
24/09/2008 13:50      22.0  16.0  23.6  22.0  69  1010   ---     N     3     3   ---   0.6 Scattered Clouds/
24/09/2008 14:50      22.0  17.0  23.9  21.0  73  1010   ---   NNW     6     6   ---   0.6 Scattered Clouds/
24/09/2008 15:50      22.0  18.0  24.2  22.0  78  1010   ---     N     5     5   ---   0.6 Scattered Clouds/
24/09/2008 16:50      22.0  18.0  24.2  18.5  78  1010   ---   NNE    14    14   ---   0.6 Broken Clouds/
24/09/2008 17:50      22.0  18.0  24.2  19.8  78  1011   ---    NE    10    10   ---   0.6 Broken Clouds/
24/09/2008 18:50      23.0  17.0  24.6  19.2  69  1011   ---     N    18    18   ---   0.6 Scattered Clouds/
24/09/2008 19:50      22.0  17.0  23.9  17.9  73  1012   ---     N    18    18   ---   0.5 Scattered Clouds/
24/09/2008 20:50      22.0  16.0  23.6  18.5  69  1012   ---     N    14    14   ---   0.5 Scattered Clouds/
24/09/2008 21:50      22.0  16.0  23.6  20.2  69  1012   ---     N     8     8   ---   0.5 Scattered Clouds/
24/09/2008 22:50      22.0  15.0  23.3  18.9  65  1013   ---     N    13    13   ---   0.5 Scattered Clouds/
24/09/2008 23:50      22.0  16.0  23.6  18.1  69  1013   ---     N    16    16   ---   0.5 Scattered Clouds/
25/09/2008 00:50      22.0  15.0  23.3  18.5  65  1012   ---     N    14    14   ---   0.5 Scattered Clouds/
25/09/2008 01:50      22.0  15.0  23.3  18.9  65  1012   ---     N    13    13   ---   0.5 Scattered Clouds/
25/09/2008 02:50      22.0  15.0  23.3  20.2  65  1012   ---    NW     8     8   ---   0.5 Scattered Clouds/
25/09/2008 03:50      21.0  17.0  23.2  16.7  78  1012   ---   NNW    16    16   ---   --- Overcast/ Rain
25/09/2008 04:50      19.0  16.0  21.6  14.5  83  1012   ---     E    14    14   ---   --- Overcast/ Rain
25/09/2008 05:50      21.0  16.0  22.9  17.7  73  1012   ---    NE    13    13   ---   0.4 Broken Clouds/
25/09/2008 06:50      20.0  15.0  21.8  17.4  73  1012   ---   ENE    10    10   ---   0.4 Broken Clouds/
25/09/2008 07:50      20.0  15.0  21.8  18.8  73  1013   ---     E     6     6   ---   0.4 Broken Clouds/
25/09/2008 08:50      22.0  15.0  23.3  18.5  65  1013   ---   NNE    14    14   ---   0.4 Broken Clouds/
25/09/2008 09:50      22.0  15.0  23.3  20.2  65  1014   ---     N     8     8   ---   0.4 Broken Clouds/
25/09/2008 10:50      22.0  15.0  23.3  18.9  65  1014   ---   NNW    13    13   ---   0.4 Broken Clouds/
25/09/2008 11:50      22.0  16.0  23.6  17.9  69  1014   ---     N    18    18   ---   0.4 Broken Clouds/
25/09/2008 12:50      22.0  15.0  23.3  18.5  65  1014   ---   NNW    14    14   ---   0.4 Broken Clouds/
25/09/2008 13:50      22.0  15.0  23.3  19.8  65  1015   ---     N    10    10   ---   0.6 Few Clouds/
25/09/2008 14:50      22.0  15.0  23.3  20.2  65  1015   ---     N     8     8   ---   0.6 Few Clouds/
25/09/2008 15:50      23.0  13.0  23.6  22.1  53  1014   ---     N     6     6   ---   0.6 Few Clouds/
25/09/2008 16:50      23.0  13.0  23.6  22.1  53  1014   ---   NNW     6     6   ---   0.6 Scattered Clouds/
25/09/2008 17:50      22.0  14.0  23.0  22.0  61  1015   ---     N     3     3   ---   0.6 Scattered Clouds/
25/09/2008 18:50      22.0  13.0  22.8  16.7  57  1015   ---   NNW    26    26   ---   0.6 Scattered Clouds/
25/09/2008 19:50      22.0  13.0  22.8  17.5  57  1015   ---   NNW    19    19   ---   0.6 Scattered Clouds/
25/09/2008 20:50      22.0  13.0  22.8  17.3  57  1016   ---    NW    21    21   ---   0.6 Scattered Clouds/
25/09/2008 21:50      22.0  13.0  22.8  17.3  57  1017   ---    NW    21    21   ---   0.6 Scattered Clouds/
25/09/2008 22:50      22.0  12.0  22.6  17.3  53  1067   ---    NW    21    21   ---   0.6 Scattered Clouds/
25/09/2008 23:50      22.0  11.0  22.4  17.3  50  1016   ---   WNW    21    21   ---   0.6 Few Clouds/
26/09/2008 00:50      22.0  12.0  22.6  17.1  53  1017   ---   WNW    23    23   ---   0.6 Few Clouds/
26/09/2008 01:50      22.0  13.0  22.8  17.3  57  1016   ---   WNW    21    21   ---   0.6 Few Clouds/
26/09/2008 02:50      22.0  13.0  22.8  17.3  57  1016   ---   WNW    21    21   ---   0.6 Few Clouds/
26/09/2008 03:50      22.0  12.0  22.6  17.3  53  1016   ---   WNW    21    21   ---   0.6 Few Clouds/
26/09/2008 04:50      22.0  13.0  22.8  17.9  57  1016   ---   WNW    18    18   ---   0.6 Few Clouds/
26/09/2008 05:50      22.0  13.0  22.8  17.9  57  1016   ---   WNW    18    18   ---   0.6 Scattered Clouds/
26/09/2008 06:50      22.0  12.0  22.6  18.1  53  1016   ---    NW    16    16   ---   0.6 Scattered Clouds/
26/09/2008 07:50      22.0  12.0  22.6  17.5  53  1016   ---   WNW    19    19   ---   0.8 Scattered Clouds/
26/09/2008 08:50      22.0  11.0  22.4  18.5  50  1017   ---     W    14    14   ---   0.8 Scattered Clouds/
26/09/2008 09:50      22.0  13.0  22.8  17.9  57  1017   ---    NW    18    18   ---   0.8 Scattered Clouds/
26/09/2008 10:50      21.0  12.0  21.8  16.1  56  1018   ---   SSW    19    19   ---   0.8 Scattered Clouds/
26/09/2008 11:50      22.0  13.0  22.8  17.3  57  1018   ---   WNW    21    21   ---   0.8 Scattered Clouds/
26/09/2008 12:20      22.0  13.0  22.8  17.9  57  1018   ---    NW    18    18   ---   0.8 Scattered Clouds/
26/09/2008 13:50      22.0  12.0  22.6  17.9  53  1018   ---   WNW    18    18   ---   0.7 Scattered Clouds/
26/09/2008 14:50      22.0  12.0  22.6  18.1  53  1017   ---    NW    16    16   ---   0.7 Scattered Clouds/
26/09/2008 15:50      22.0  12.0  22.6  17.9  53  1017   ---   WNW    18    18   ---   0.7 Scattered Clouds/
26/09/2008 16:50      22.0  12.0  22.6  17.9  53  1018   ---    NW    18    18   ---   0.7 Scattered Clouds/
26/09/2008 17:50      22.0  12.0  22.6  18.1  53  1018   ---   WNW    16    16   ---   0.7 Scattered Clouds/
26/09/2008 18:50      21.0  11.0  21.6  16.7  53  1018   ---   WNW    16    16   ---   0.7 Scattered Clouds/
26/09/2008 19:50      21.0  11.0  21.6  17.2  53  1018   ---   WNW    14    14   ---   0.7 Scattered Clouds/
26/09/2008 20:50      21.0  13.0  22.0  17.2  60  1018   ---     W    14    14   ---   0.7 Scattered Clouds/
26/09/2008 21:50      21.0  12.0  21.8  16.7  56  1019   ---   WNW    16    16   ---   0.7 Scattered Clouds/
26/09/2008 22:50      21.0  11.0  21.6  16.7  53  1019   ---     W    16    16   ---   0.7 Scattered Clouds/
26/09/2008 23:50      21.0  11.0  21.6  17.7  53  1019   ---    NW    13    13   ---   0.7 Scattered Clouds/
27/09/2008 00:50      21.0  11.0  21.6  17.7  53  1019   ---     W    13    13   ---   0.8 Few Clouds/
27/09/2008 01:50      18.0  11.0  19.2  13.2  64  1019   ---     S    14    14   ---   0.8 Scattered Clouds/
27/09/2008 02:50      18.0  11.0  19.2  15.0  64  1019   ---     S    10    10   ---   0.8 Few Clouds/
27/09/2008 03:50      18.0  11.0  19.2  13.8  64  1018   ---   SSE    13    13   ---   0.8 Few Clouds/
27/09/2008 04:50      17.0  11.0  18.5  13.8  68  1018   ---   SSE    10    10   ---   0.8 Few Clouds/
27/09/2008 05:50      18.0  12.0  19.5  18.0  68  1018   ---     N     5     5   ---   0.8 Scattered Clouds/
27/09/2008 06:50      17.0  12.0  18.8  15.5  72  1017   ---     S     6     6   ---   0.8 Few Clouds/
27/09/2008 07:50      17.0  12.0  18.8  14.3  72  1018   ---   SSE     8     8   ---   0.8 Few Clouds/
27/09/2008 08:50      18.0  13.0  19.8  15.0  73  1019   ---     S    10    10   ---   0.8 Few Clouds/
27/09/2008 09:50      20.0  14.0  21.5  18.8  68  1019   ---     S     6     6   ---   0.8 Scattered Clouds/
27/09/2008 10:50      21.0  13.0  22.0  21.0  60  1019   ---   WSW     5     5   ---   0.8 Scattered Clouds/
27/09/2008 11:50      21.0  13.0  22.0  21.0  60  1019   ---     N     5     5   ---   0.8 Scattered Clouds/
27/09/2008 12:50      22.0  12.0  22.6  22.0  53  1019   ---     N     5     5   ---   0.7 Few Clouds/
27/09/2008 13:20      22.0  11.0  22.4  21.0  50  1019   ---     N     6     6   ---   0.7 Few Clouds/
27/09/2008 14:50      22.0  10.0  22.3  19.8  46  1019   ---   NNE    10    10   ---   0.7 Few Clouds/
27/09/2008 15:50      22.0   9.0  22.1  18.5  43  1018   ---    NE    14    14   ---   0.7 Few Clouds/
27/09/2008 16:50      22.0  11.0  22.4  18.5  50  1018   ---    NE    14    14   ---   0.7 Few Clouds/
27/09/2008 17:50      22.0  11.0  22.4  18.9  50  1018   ---    NE    13    13   ---   0.7 Few Clouds/
27/09/2008 18:50      21.0  10.0  21.4  17.7  49  1018   ---    NE    13    13   ---   0.7 Few Clouds/
27/09/2008 19:50      21.0  10.0  21.4  21.0  49  1018   ---     E     5     5   ---   0.7 Scattered Clouds/
27/09/2008 20:50      20.0  11.0  20.8  20.0  56  1019   ---   ENE     5     5   ---   0.7 Scattered Clouds/
27/09/2008 21:50      20.0  13.0  21.3  13.8  64  1019   ---   ENE    26    26   ---   0.7 Scattered Clouds/
27/09/2008 22:50      20.0  12.0  21.0  16.4  60  1019   ---   ENE    13    13   ---   0.7 Scattered Clouds/
27/09/2008 23:50      20.0  12.0  21.0  17.4  60  1019   ---     E    10    10   ---   0.7 Scattered Clouds/
28/09/2008 00:50      20.0  13.0  21.3  17.8  64  1019   ---     E     8     8   ---   0.7 Scattered Clouds/
28/09/2008 01:50      20.0  12.0  21.0  15.9  60  1019   ---     E    14    14   ---   0.7 Scattered Clouds/
28/09/2008 02:50      21.0  11.0  21.6  17.7  53  1019   ---     E    13    13   ---   0.7 Scattered Clouds/
28/09/2008 03:50      20.0  12.0  21.0  17.4  60  1019   ---     E    10    10   ---   0.7 Scattered Clouds/
28/09/2008 04:50      19.0  11.0  20.0  16.7  60  1018   ---    NE     8     8   ---   0.7 Scattered Clouds/
28/09/2008 05:50      19.0  11.0  20.0  16.7  60  1018   ---     E     8     8   ---   0.7 Scattered Clouds/
28/09/2008 06:50      19.0  11.0  20.0  17.7  60  1018   ---     E     6     6   ---   0.7 Scattered Clouds/
28/09/2008 07:50      18.0  11.0  19.2  18.0  64  1019   ---     N     3     3   ---   0.7 Few Clouds/
28/09/2008 08:50      20.0  13.0  21.3  20.0  64  1019   ---     N     5     5   ---   0.7 Scattered Clouds/
28/09/2008 09:50      22.0  10.0  22.3  20.2  46  1019   ---    NE     8     8   ---   0.6 Scattered Clouds/
28/09/2008 10:50      22.0  11.0  22.4  22.0  50  1020   ---     N     5     5   ---   0.6 Scattered Clouds/
28/09/2008 11:50      21.0  13.0  22.0  16.1  60  1020   ---   NNE    19    19   ---   0.8 Broken Clouds/
28/09/2008 12:50      22.0  12.0  22.6  19.8  53  1020   ---   NNE    10    10   ---   0.8 Broken Clouds/
28/09/2008 13:50      22.0  12.0  22.6  19.8  53  1020   ---     N    10    10   ---   0.8 Scattered Clouds/
28/09/2008 14:50      22.0  13.0  22.8  18.5  57  1019   ---   NNE    14    14   ---   0.8 Scattered Clouds/
28/09/2008 15:50      22.0  12.0  22.6  18.1  53  1019   ---    NE    16    16   ---   0.8 Scattered Clouds/
28/09/2008 16:50      22.0  12.0  22.6  17.9  53  1019   ---   NNE    18    18   ---   0.8 Scattered Clouds/
28/09/2008 17:50      22.0  11.0  22.4  18.9  50  1020   ---    NE    13    13   ---   0.8 Scattered Clouds/
28/09/2008 18:50      22.0  12.0  22.6  17.9  53  1020   ---   NNE    18    18   ---   0.8 Scattered Clouds/
28/09/2008 19:50      21.0  11.0  21.6  17.2  53  1020   ---    NE    14    14   ---   0.8 Scattered Clouds/
28/09/2008 20:50      20.0  11.0  20.8  17.4  56  1020   ---   NNE    10    10   ---   0.8 Scattered Clouds/
28/09/2008 21:50      20.0  11.0  20.8  17.4  56  1020   ---    NE    10    10   ---   0.8 Scattered Clouds/
28/09/2008 22:50      19.0  11.0  20.0  17.7  60  1021   ---     E     6     6   ---   0.8 Scattered Clouds/
28/09/2008 23:50      18.0  11.0  19.2  16.6  64  1021   ---   SSE     6     6   ---   0.8 Scattered Clouds/
29/09/2008 00:50      18.0  11.0  19.2  15.5  64  1020   ---    SE     8     8   ---   0.8 Scattered Clouds/
29/09/2008 01:50      17.0  11.0  18.5  15.5  68  1020   ---    SE     6     6   ---   --- /
29/09/2008 02:50      17.0  11.0  18.5  17.0  68  1020   ---     N     5     5   ---   --- /
29/09/2008 03:50      17.0  11.0  18.5  15.5  68  1019   ---   SSE     6     6   ---   --- /
29/09/2008 04:50      16.0  11.0  17.8  11.3  72  1019   ---     S    13    13   ---   --- /
29/09/2008 05:50      17.0  12.0  18.8  13.8  72  1019   ---     S    10    10   ---   --- /
29/09/2008 06:50      17.0  12.0  18.8  12.5  72  1019   ---   SSE    13    13   ---   --- /
29/09/2008 07:50      18.0  12.0  19.5  13.2  68  1019   ---   SSE    14    14   ---   0.7 Broken Clouds/
29/09/2008 08:50      19.0  13.0  20.5  16.2  68  1019   ---     S    10    10   ---   0.7 Broken Clouds/
29/09/2008 09:50      21.0  13.0  22.0  19.0  60  1020   ---     S     8     8   ---   0.7 Broken Clouds/
29/09/2008 10:50      22.0  12.0  22.6  20.2  53  1020   ---    SW     8     8   ---   0.7 Broken Clouds/
29/09/2008 11:50      22.0  13.0  22.8  19.8  57  1020   ---   WSW    10    10   ---   0.7 Scattered Clouds/
29/09/2008 12:50      22.0  13.0  22.8  18.9  57  1020   ---   WSW    13    13   ---   0.7 Scattered Clouds/
29/09/2008 13:50      22.0  13.0  22.8  19.8  57  1020   ---     W    10    10   ---   0.7 Few Clouds/
29/09/2008 14:50      23.0  13.0  23.6  21.3  53  1019   ---    NW     8     8   ---   0.7 Few Clouds/
29/09/2008 15:50      22.0  13.0  22.8  18.9  57  1019   ---   WNW    13    13   ---   0.9 Scattered Clouds/
29/09/2008 16:50      22.0  13.0  22.8  20.2  57  1019   ---   NNW     8     8   ---   0.9 Scattered Clouds/
29/09/2008 17:50      22.0  13.0  22.8  21.0  57  1019   ---     N     6     6   ---   0.9 Scattered Clouds/
29/09/2008 18:50      22.0  12.0  22.6  22.0  53  1019   ---     N     5     5   ---   0.9 Scattered Clouds/
29/09/2008 19:50      21.0  12.0  21.8  19.9  56  1019   ---   ENE     6     6   ---   0.9 Scattered Clouds/
29/09/2008 20:50      20.0  12.0  21.0  18.8  60  1019   ---   ESE     6     6   ---   0.9 Scattered Clouds/
29/09/2008 21:50      20.0  12.0  21.0  17.8  60  1019   ---     E     8     8   ---   0.9 Few Clouds/
29/09/2008 22:50      20.0  12.0  21.0  20.0  60  1019   ---     N     5     5   ---   0.9 Few Clouds/
29/09/2008 23:50      18.0  12.0  19.5  15.5  68  1019   ---   SSE     8     8   ---   0.9 Few Clouds/
30/09/2008 01:50      19.0  12.0  20.2  19.0  64  1018   ---     N     3     3   ---   0.9 Few Clouds/
30/09/2008 02:50      18.0  12.0  19.5  16.6  68  1018   ---   SSW     6     6   ---   0.9 Few Clouds/
30/09/2008 03:50      18.0  11.0  19.2  18.0  64  1017   ---     N     5     5   ---   0.9 Few Clouds/
30/09/2008 04:50      19.0  13.0  20.5  19.0  68  1017   ---     S     3     3   ---   0.9 Few Clouds/
30/09/2008 05:50      18.0  11.0  19.2  18.0  64  1017   ---    SE     3     3   ---   0.9 Few Clouds/
30/09/2008 06:50      18.0  12.0  19.5  15.5  68  1017   ---   SSE     8     8   ---   0.9 Broken Clouds/
30/09/2008 07:50      19.0  12.0  20.2  19.0  64  1017   ---     N     3     3   ---   0.9 Broken Clouds/
30/09/2008 08:50      20.0  14.0  21.5  20.0  68  1017   ---     N     3     3   ---   0.9 Few Clouds/
30/09/2008 09:50      22.0  10.0  22.3  20.2  46  1017   ---   ENE     8     8   ---   0.9 Scattered Clouds/
30/09/2008 10:50      23.0  13.0  23.6  21.3  53  1017   ---    NE     8     8   ---   0.9 Scattered Clouds/
30/09/2008 11:50      23.0  10.0  23.1  23.0  44  1017   ---     N     3     3   ---   0.9 Few Clouds/
30/09/2008 12:50      23.0  12.0  23.4  22.1  50  1017   ---     W     6     6   ---   0.9 Few Clouds/
30/09/2008 13:50      23.0  11.0  23.3  23.0  47  1017   ---     N     3     3   ---   0.9 Few Clouds/
30/09/2008 14:50      23.0  11.0  23.3  23.0  47  1016   ---     N     3     3   ---   0.9 Broken Clouds/
30/09/2008 15:50      24.0  11.0  24.1  24.0  44  1015   ---     N     5     5   ---   0.9 Broken Clouds/
30/09/2008 16:50      23.0  12.0  23.4  23.0  50  1015   ---     N     5     5   ---   0.9 Broken Clouds/
30/09/2008 16:50      23.0  12.0  23.4  23.0  50  1015   ---   ---     5     5   ---   0.9 Broken Clouds/None reported
30/09/2008 17:50      23.0  12.0  23.4  19.4  50  1014   ---   ENE    16    16   ---   0.9 Broken Clouds/
30/09/2008 18:50      23.0  12.0  23.4  22.1  50  1014   ---     E     6     6   ---   0.9 Broken Clouds/
30/09/2008 19:50      22.0  12.0  22.6  22.0  53  1015   ---     N     3     3   ---   0.7 Broken Clouds/
30/09/2008 20:50      21.0  13.0  22.0  18.6  60  1015   ---     S    10    10   ---   0.7 Broken Clouds/
30/09/2008 21:50      21.0  12.0  21.8  21.0  56  1015   ---     N     5     5   ---   0.7 Scattered Clouds/
30/09/2008 22:50      21.0  13.0  22.0  21.0  60  1015   ---     N     3     3   ---   0.7 Scattered Clouds/
30/09/2008 23:50      20.0  13.0  21.3  18.8  64  1015   ---     S     6     6   ---   0.8 Scattered Clouds/
01/10/2008 00:50      20.0  13.0  21.3  20.0  64  1014   ---     N     5     5   ---   0.8 Scattered Clouds/
01/10/2008 01:50      19.0  13.0  20.5  19.0  68  1014   ---     N     5     5   ---   0.7 Scattered Clouds/
01/10/2008 02:50      19.0  13.0  20.5  19.0  68  1014   ---     N     5     5   ---   0.7 Scattered Clouds/
01/10/2008 03:50      19.0  14.0  20.8  19.0  73  1013   ---     N     5     5   ---   0.7 Scattered Clouds/
01/10/2008 04:50      19.0  14.0  20.8  19.0  73  1013   ---     N     5     5   ---   0.7 Scattered Clouds/
01/10/2008 05:50      19.0  14.0  20.8  15.1  73  1014   ---     S    13    13   ---   0.7 Scattered Clouds/
01/10/2008 06:50      19.0  13.0  20.5  16.7  68  1014   ---     S     8     8   ---   0.7 Broken Clouds/
01/10/2008 07:50      20.0  14.0  21.5  18.8  68  1014   ---    SE     6     6   ---   1.0 Few Clouds/
01/10/2008 08:50      22.0  15.0  23.3  22.0  65  1014   ---     N     5     5   ---   1.0 Few Clouds/
01/10/2008 09:50      23.0  16.0  24.3  23.0  65  1015   ---     N     5     5   ---   1.0 Few Clouds/
01/10/2008 10:50      23.0  15.0  24.1  23.0  61  1015   ---     N     5     5   ---   1.0 Few Clouds/
01/10/2008 11:50      23.0  16.0  24.3  21.3  65  1015   ---     N     8     8   ---   0.8 Few Clouds/
01/10/2008 12:50      24.0  16.0  25.1  22.2  61  1015   ---     N    10    10   ---   0.8 Few Clouds/
01/10/2008 13:50      24.0  16.0  25.1  22.2  61  1015   ---     N    10    10   ---   0.8 Few Clouds/
01/10/2008 14:50      24.0  16.0  25.1  21.1  61  1015   ---   NNE    14    14   ---   0.8 Few Clouds/
01/10/2008 15:50      24.0  15.0  24.8  20.6  57  1014   ---    NE    18    18   ---   0.8 Few Clouds/
01/10/2008 16:50      24.0  16.0  25.1  21.1  61  1014   ---   NNE    14    14   ---   0.8 Few Clouds/
01/10/2008 17:50      23.0  15.0  24.1  21.0  61  1014   ---   NNE    10    10   ---   0.8 Few Clouds/
01/10/2008 18:20      23.0  15.0  24.1  21.0  61  1014   ---   NNE    10    10   ---   0.8 Few Clouds/
01/10/2008 19:50      23.0  14.0  23.8  21.0  57  1014   ---   ENE    10    10   ---   0.8 Few Clouds/
01/10/2008 20:50      23.0  15.0  24.1  20.2  61  1014   ---   ENE    13    13   ---   0.8 Few Clouds/
01/10/2008 21:50      22.0  15.0  23.3  19.8  65  1014   ---     E    10    10   ---   0.8 Few Clouds/
01/10/2008 22:50      22.0  15.0  23.3  21.0  65  1014   ---   SSE     6     6   ---   0.8 Few Clouds/
01/10/2008 23:50      21.0  16.0  22.9  19.0  73  1015   ---     S     8     8   ---   0.8 Broken Clouds/
02/10/2008 00:50      22.0  16.0  23.6  22.0  69  1014   ---     N     5     5   ---   0.7 Few Clouds/
02/10/2008 01:50      21.0  16.0  22.9  19.9  73  1014   ---   SSW     6     6   ---   0.8 Few Clouds/
02/10/2008 02:50      21.0  16.0  22.9  19.0  73  1013   ---    SW     8     8   ---   0.8 Few Clouds/
02/10/2008 03:50      20.0  16.0  22.2  17.8  78  1013   ---    SW     8     8   ---   0.8 Few Clouds/
02/10/2008 04:50      20.0  16.0  22.2  20.0  78  1013   ---     N     5     5   ---   1.0 Few Clouds/
02/10/2008 05:50      20.0  16.0  22.2  15.9  78  1013   ---    SW    14    14   ---   1.0 Few Clouds/
02/10/2008 06:50      19.0  15.0  21.2  16.7  78  1013   ---   SSW     8     8   ---   --- /
02/10/2008 07:50      20.0  15.0  21.8  16.4  73  1013   ---     S    13    13   ---   0.8 Few Clouds/
02/10/2008 08:50      21.0  16.0  22.9  18.6  73  1013   ---     S    10    10   ---   0.7 Few Clouds/
02/10/2008 09:50      23.0  16.0  24.3  19.4  65  1014   ---   SSW    16    16   ---   0.7 Few Clouds/
02/10/2008 10:50      23.0  16.0  24.3  19.8  65  1014   ---   WSW    14    14   ---   0.7 Few Clouds/
02/10/2008 11:50      23.0  17.0  24.6  20.2  69  1014   ---     W    13    13   ---   0.7 Few Clouds/
02/10/2008 12:50      23.0  17.0  24.6  19.2  69  1014   ---   WNW    18    18   ---   0.6 Few Clouds/
02/10/2008 13:50      23.0  16.0  24.3  18.5  65  1013   ---     S    23    23   ---   0.6 Few Clouds/
02/10/2008 14:50      23.0  17.0  24.6  18.7  69  1013   ---   WNW    21    21   ---   0.6 Few Clouds/
02/10/2008 15:50      23.0  17.0  24.6  18.5  69  1013   ---   WNW    23    23   ---   0.7 Few Clouds/
02/10/2008 16:50      23.0  17.0  24.6  18.5  69  1012   ---   WNW    23    23   ---   0.7 Broken Clouds/
02/10/2008 17:50      23.0  13.0  23.6  18.2  53  1012   ---   WNW    26    26   ---   0.7 Broken Clouds/
02/10/2008 18:50      23.0  16.0  24.3  18.9  65  1013   ---   WNW    19    19   ---   0.7 Broken Clouds/
02/10/2008 19:50      23.0  16.0  24.3  18.7  65  1013   ---   WNW    21    21   ---   0.7 Broken Clouds/
02/10/2008 20:50      22.0  16.0  23.6  17.5  69  1014   ---     W    19    19   ---   0.7 Broken Clouds/
02/10/2008 21:50      23.0  16.0  24.3  19.2  65  1014   ---   WNW    18    18   ---   0.6 Broken Clouds/
02/10/2008 22:50      22.0  15.0  23.3  17.5  65  1014   ---   WNW    19    19   ---   0.6 Scattered Clouds/
02/10/2008 23:50      22.0  16.0  23.6  17.5  69  1014   ---     W    19    19   ---   0.6 Scattered Clouds/
03/10/2008 00:50      22.0  15.0  23.3  17.5  65  1014   ---     W    19    19   ---   0.6 Scattered Clouds/
03/10/2008 01:50      22.0  15.0  23.3  17.3  65  1014   ---     W    21    21   ---   0.6 Scattered Clouds/
03/10/2008 02:50      22.0  15.0  23.3  18.1  65  1013   ---   SSW    16    16   ---   0.6 Scattered Clouds/
03/10/2008 03:50      20.0  14.0  21.5  15.3  68  1013   ---     S    16    16   ---   0.6 Scattered Clouds/
03/10/2008 04:50      20.0  15.0  21.8  16.4  73  1013   ---     S    13    13   ---   0.6 Scattered Clouds/
03/10/2008 05:50      21.0  15.0  22.5  15.6  69  1012   ---     S    23    23   ---   0.6 Scattered Clouds/
03/10/2008 06:50      21.0  15.0  22.5  15.6  69  1012   ---   SSW    23    23   ---   0.6 Scattered Clouds/
03/10/2008 07:50      20.0  16.0  22.2  15.3  78  1013   ---     N    16    16   ---   --- Overcast/ Light Rain
03/10/2008 08:50      21.0  16.0  22.9  15.8  73  1013   ---     S    21    21   ---   0.6 Scattered Clouds/
03/10/2008 09:50      21.0  17.0  23.2  15.6  78  1013   ---   SSW    23    23   ---   0.6 Broken Clouds/
03/10/2008 10:50      23.0  17.0  24.6  18.5  69  1014   ---    SW    23    23   ---   0.7 Scattered Clouds/
03/10/2008 11:50      23.0  16.0  24.3  18.7  65  1014   ---     W    21    21   ---   0.6 Scattered Clouds/
03/10/2008 12:50      23.0  16.0  24.3  19.8  65  1014   ---     W    14    14   ---   0.6 Scattered Clouds/
03/10/2008 13:50      24.0  16.0  25.1  20.8  61  1013   ---     W    16    16   ---   0.6 Scattered Clouds/
03/10/2008 14:50      23.0  17.0  24.6  18.9  69  1013   ---     W    19    19   ---   0.7 Scattered Clouds/
03/10/2008 15:50      24.0  16.0  25.1  20.6  61  1012   ---     W    18    18   ---   0.7 Scattered Clouds/
03/10/2008 16:50      25.0  15.0  25.7  21.0  54  1012   ---    SW    27    27   ---   0.7 Scattered Clouds/
03/10/2008 17:50      26.0  14.0  26.3  22.5  48  1011   ---    SW    27    27   ---   0.7 Scattered Clouds/
03/10/2008 18:50      24.0  15.0  24.8  20.1  57  1012   ---   SSW    21    21   ---   0.7 Scattered Clouds/
03/10/2008 19:50      23.0  15.0  24.1  18.0  61  1012   ---     S    27    27   ---   0.7 Scattered Clouds/
03/10/2008 20:50      23.0  16.0  24.3  18.5  65  1012   ---   SSW    23    23   ---   0.7 Few Clouds/
03/10/2008 21:50      23.0  16.0  24.3  18.2  65  1013   ---   SSW    26    26   ---   0.7 Few Clouds/
03/10/2008 22:20      23.0  16.0  24.3  18.0  65  1013   ---     S    27    27   ---   0.7 Few Clouds/
03/10/2008 23:50      23.0  16.0  24.3  17.7  65  1013   ---   SSW    32    32   ---   0.7 Few Clouds/
04/10/2008 00:50      23.0  14.0  23.8  17.7  57  1013   ---     S    32    32   ---   0.7 Few Clouds/
04/10/2008 01:50      22.0  15.0  23.3  16.4  65  1012   ---     S    29    29   ---   0.7 Few Clouds/
04/10/2008 02:50      22.0  16.0  23.6  16.4  69  1012   ---   SSW    29    29   ---   --- /
04/10/2008 03:50      22.0  16.0  23.6  16.5  69  1012   ---   SSW    27    27   ---   --- /
04/10/2008 04:50      22.0  16.0  23.6  16.7  69  1012   ---   SSW    26    26   ---   0.6 Scattered Clouds/
04/10/2008 05:50      21.0  17.0  23.2  16.1  78  1012   ---    SW    19    19   ---   0.4 Broken Clouds/
04/10/2008 06:50      19.0  15.0  21.2  16.7  78  1012   ---     S     8     8   ---   0.6 Broken Clouds/
04/10/2008 07:50      20.0  15.0  21.8  14.4  73  1013   ---   SSW    21    21   ---   0.6 Broken Clouds/
04/10/2008 08:50      19.0  16.0  21.6  12.7  83  1014   ---   WSW    23    23   ---   0.5 Broken Clouds/
04/10/2008 09:50      21.0  14.0  22.3  15.0  64  1015   ---    NW    27    27   ---   0.5 Broken Clouds/
04/10/2008 10:50      21.0  14.0  22.3  14.9  64  1016   ---   WNW    29    29   ---   0.5 Broken Clouds/
04/10/2008 11:50      21.0  11.0  21.6  14.8  53  1017   ---   WNW    31    31   ---   0.5 Broken Clouds/
04/10/2008 12:50      21.0  10.0  21.4  14.9  49  1017   ---     W    29    29   ---   1.0 Scattered Clouds/
04/10/2008 13:50      20.0  10.0  20.6  13.1  53  1017   ---     W    32    32   ---   1.0 Scattered Clouds/
04/10/2008 13:50      20.0  10.0  20.6  13.1  53  1017   ---     W    32    32   ---   1.0 Scattered Clouds/None reported
04/10/2008 14:50      21.0  10.0  21.4  15.2  49  1016   ---     W    26    45   ---   0.6 Broken Clouds/
04/10/2008 14:50      21.0  10.0  21.4  15.2  49  1016   ---     W    26    45   ---   0.6 Broken Clouds/None reported
04/10/2008 15:50      20.0  11.0  20.8  13.2  56  1016   ---     W    31    56   ---   0.6 Broken Clouds/
04/10/2008 16:50      19.0  13.0  20.5  10.7  68  1016   ---   WNW    47    47   ---   0.6 Broken Clouds/
04/10/2008 17:50      20.0  10.0  20.6  13.5  53  1016   ---     W    27    60   ---   0.6 Broken Clouds/
04/10/2008 18:50      20.0   9.0  20.4  13.0  49  1017   ---   WNW    34    56   ---   0.6 Broken Clouds/
04/10/2008 19:50      20.0   9.0  20.4  12.3  49  1018   ---   WNW    45    45   ---   0.6 Broken Clouds/
04/10/2008 20:50      20.0   9.0  20.4  13.2  49  1018   ---   WNW    31    55   ---   0.6 Broken Clouds/
04/10/2008 21:50      20.0  10.0  20.6  12.6  53  1019   ---    NW    40    40   ---   0.8 Broken Clouds/
04/10/2008 22:50      20.0  11.0  20.8  13.2  56  1019   ---   NNW    31    31   ---   0.8 Broken Clouds/
04/10/2008 23:50      20.0  11.0  20.8  13.8  56  1020   ---   NNW    26    26   ---   0.8 Scattered Clouds/
05/10/2008 00:50      20.0  11.0  20.8  13.1  56  1020   ---   NNW    32    32   ---   0.8 Scattered Clouds/
05/10/2008 01:50      20.0  10.0  20.6  13.5  53  1020   ---    NW    27    27   ---   0.8 Scattered Clouds/
05/10/2008 02:50      20.0  10.0  20.6  15.1  53  1020   ---   NNW    18    18   ---   0.8 Scattered Clouds/
05/10/2008 03:50      20.0  11.0  20.8  14.6  56  1020   ---   WNW    19    19   ---   0.8 Scattered Clouds/
05/10/2008 04:50      20.0  10.0  20.6  15.1  53  1020   ---   NNW    18    18   ---   0.8 Scattered Clouds/
05/10/2008 05:50      20.0   9.0  20.4  14.4  49  1020   ---   NNW    21    21   ---   0.8 Scattered Clouds/
05/10/2008 06:50      20.0   7.0  20.1  15.9  43  1020   ---    NW    14    14   ---   0.8 Few Clouds/
05/10/2008 07:50      20.0   9.0  20.4  15.1  49  1020   ---    NW    18    18   ---   0.8 Scattered Clouds/
05/10/2008 08:50      20.0  11.0  20.8  15.3  56  1021   ---   WNW    16    16   ---   0.8 Scattered Clouds/
05/10/2008 09:50      20.0  11.0  20.8  18.8  56  1022   ---   WSW     6     6   ---   0.8 Scattered Clouds/
05/10/2008 10:50      21.0  11.0  21.6  19.0  53  1022   ---    SW     8     8   ---   0.8 Scattered Clouds/
05/10/2008 11:50      21.0  10.0  21.4  21.0  49  1023   ---     W     5     5   ---   0.8 Scattered Clouds/
05/10/2008 12:50      21.0   9.0  21.3  19.0  46  1023   ---     W     8     8   ---   0.8 Scattered Clouds/
05/10/2008 13:50      21.0  10.0  21.4  18.6  49  1022   ---     W    10    10   ---   0.8 Few Clouds/
05/10/2008 14:50      21.0  10.0  21.4  17.2  49  1022   ---   WNW    14    14   ---   0.8 Few Clouds/
05/10/2008 15:50      21.0  11.0  21.6  17.7  53  1022   ---    NW    13    13   ---   0.8 Few Clouds/
05/10/2008 16:50      21.0  12.0  21.8  16.7  56  1021   ---   WNW    16    16   ---   0.8 Few Clouds/
05/10/2008 17:50      20.0  11.0  20.8  15.9  56  1021   ---   WNW    14    14   ---   0.8 Scattered Clouds/
05/10/2008 18:50      20.0  11.0  20.8  17.4  56  1021   ---   WNW    10    10   ---   0.8 Scattered Clouds/
05/10/2008 19:50      20.0  10.0  20.6  17.8  53  1022   ---   WNW     8     8   ---   0.8 Scattered Clouds/
05/10/2008 20:50      19.0  11.0  20.0  17.7  60  1022   ---   SSE     6     6   ---   0.8 Scattered Clouds/
05/10/2008 21:50      20.0  11.0  20.8  17.8  56  1022   ---   WSW     8     8   ---   0.7 Scattered Clouds/
05/10/2008 22:50      17.0  10.0  18.2  12.5  63  1022   ---   SSE    13    13   ---   0.7 Scattered Clouds/
05/10/2008 23:50      17.0  10.0  18.2  13.8  63  1022   ---    SE    10    10   ---   0.7 Few Clouds/
06/10/2008 00:50      16.0  10.0  17.5  12.5  68  1022   ---   SSE    10    10   ---   0.7 Few Clouds/
06/10/2008 01:50      16.0  10.0  17.5  12.5  68  1022   ---     S    10    10   ---   0.7 Few Clouds/
06/10/2008 02:50      15.0   9.0  16.5  10.0  67  1022   ---     S    13    13   ---   0.7 Few Clouds/
06/10/2008 03:50      16.0   9.0  17.2   9.9  63  1022   ---   SSE    16    16   ---   0.7 Few Clouds/
06/10/2008 04:50      16.0   9.0  17.2   9.9  63  1022   ---   SSE    16    16   ---   0.7 Few Clouds/
06/10/2008 05:50      16.0   9.0  17.2   9.9  63  1022   ---   SSE    16    16   ---   0.7 Few Clouds/
06/10/2008 06:50      16.0   9.0  17.2  10.6  63  1022   ---   SSE    14    14   ---   0.7 Few Clouds/
06/10/2008 07:50      16.0  10.0  17.5  10.6  68  1022   ---   SSE    14    14   ---   0.7 Few Clouds/
06/10/2008 08:50      18.0  12.0  19.5  13.8  68  1023   ---   SSE    13    13   ---   0.7 Few Clouds/
06/10/2008 09:50      20.0  11.0  20.8  20.0  56  1023   ---     N     3     3   ---   0.8 Few Clouds/
06/10/2008 10:50      21.0  11.0  21.6  21.0  53  1024   ---     N     3     3   ---   0.8 Few Clouds/
06/10/2008 11:50      21.0  11.0  21.6  19.9  53  1024   ---     N     6     6   ---   0.8 Few Clouds/
06/10/2008 12:50      21.0  11.0  21.6  18.6  53  1023   ---   NNE    10    10   ---   0.8 Few Clouds/
06/10/2008 13:50      21.0  11.0  21.6  17.2  53  1023   ---   NNE    14    14   ---   0.8 Few Clouds/
06/10/2008 14:50      21.0  12.0  21.8  16.1  56  1023   ---    NE    19    19   ---   0.8 Few Clouds/
06/10/2008 15:50      21.0  12.0  21.8  15.6  56  1022   ---    NE    23    23   ---   --- /
06/10/2008 16:50      21.0  12.0  21.8  15.6  56  1022   ---    NE    23    23   ---   --- /
06/10/2008 17:50      21.0  13.0  22.0  15.2  60  1021   ---   ENE    26    26   ---   --- /
06/10/2008 18:50      21.0  12.0  21.8  16.5  56  1021   ---   ENE    18    18   ---   --- /
06/10/2008 19:50      20.0  12.0  21.0  15.9  60  1022   ---   ENE    14    14   ---   --- /
06/10/2008 20:50      21.0  11.0  21.6  18.6  53  1022   ---   WSW    10    10   ---   --- /
06/10/2008 22:50      20.0  11.0  20.8  20.0  56  1022   ---     N     5     5   ---   --- /
06/10/2008 23:50      18.0  11.0  19.2  18.0  64  1022   ---     N     3     3   ---   --- /
07/10/2008 00:50      17.0  11.0  18.5  17.0  68  1022   ---     N     5     5   ---   --- /
07/10/2008 01:50      17.0  11.0  18.5  17.0  68  1022   ---     N     3     3   ---   --- /
07/10/2008 02:50      16.0  11.0  17.8  12.5  72  1021   ---     S    10    10   ---   --- /
07/10/2008 03:50      17.0  11.0  18.5  17.0  68  1021   ---     N     3     3   ---   --- /
07/10/2008 04:50      16.0  10.0  17.5  14.4  68  1021   ---     S     6     6   ---   --- /
07/10/2008 05:50      16.0  11.0  17.8  14.4  72  1021   ---     S     6     6   ---   --- /
07/10/2008 06:50      17.0  12.0  18.8  17.0  72  1021   ---     N     2     2   ---   --- /
07/10/2008 07:50      17.0  11.0  18.5  12.5  68  1021   ---     N    13    13   ---   --- /
07/10/2008 08:50      17.0  12.0  18.8  17.0  72  1021   ---     N     5     5   ---   --- /
07/10/2008 09:50      20.0  14.0  21.5  20.0  68  1022   ---     N     2     2   ---   --- /
07/10/2008 10:50      21.0  13.0  22.0  21.0  60  1021   ---     N     5     5   ---   --- /
07/10/2008 11:50      21.0  13.0  22.0  19.0  60  1021   ---   NNE     8     8   ---   --- /
07/10/2008 12:50      23.0  12.0  23.4  19.8  50  1021   ---    NE    14    14   ---   --- /
07/10/2008 13:50      23.0  13.0  23.6  19.2  53  1020   ---    NE    18    18   ---   --- /
07/10/2008 14:50      23.0  13.0  23.6  18.9  53  1019   ---   ENE    19    19   ---   --- /
07/10/2008 15:50      24.0  13.0  24.5  19.5  50  1019   ---   ENE    29    29   ---   --- /
07/10/2008 16:50      24.0  12.0  24.3  19.7  47  1018   ---   ENE    26    26   ---   --- /
07/10/2008 17:50      24.0  12.0  24.3  23.2  47  1018   ---     E     6     6   ---   --- /
07/10/2008 18:50      23.0  13.0  23.6  19.2  53  1019   ---   SSW    18    18   ---   --- /
07/10/2008 19:50      21.0  13.0  22.0  21.0  60  1019   ---     N     5     5   ---   --- /
07/10/2008 20:50      20.0  13.0  21.3  18.8  64  1019   ---     S     6     6   ---   --- /
07/10/2008 21:50      20.0  13.0  21.3  20.0  64  1019   ---     E     5     5   ---   --- /
07/10/2008 22:50      19.0  13.0  20.5  19.0  68  1019   ---     N     5     5   ---   --- /
07/10/2008 23:50      19.0  12.0  20.2  16.7  64  1019   ---   SSE     8     8   ---   --- /
08/10/2008 00:50      19.0  13.0  20.5  17.7  68  1019   ---   SSW     6     6   ---   --- /
08/10/2008 01:50      18.0  12.0  19.5  16.6  68  1018   ---     S     6     6   ---   --- /
08/10/2008 02:50      17.0  12.0  18.8  17.0  72  1018   ---     N     3     3   ---   --- /
08/10/2008 03:50      18.0  12.0  19.5  18.0  68  1018   ---     N     3     3   ---   --- /
08/10/2008 04:20      18.0  13.0  19.8  18.0  73  1018   ---     N     5     5   ---   --- /
08/10/2008 05:50      17.0  13.0  19.2  17.0  77  1018   ---     N     5     5   ---   --- /
08/10/2008 06:50      17.0  12.0  18.8  17.0  72  1018   ---     N     5     5   ---   --- /
08/10/2008 07:50      18.0  13.0  19.8  18.0  73  1018   ---     N     2     2   ---   --- /
08/10/2008 08:50      20.0  15.0  21.8  20.0  73  1018   ---     N     2     2   ---   --- /
08/10/2008 09:50      21.0  15.0  22.5  21.0  69  1018   ---     N     3     3   ---   --- /
08/10/2008 10:50      22.0  16.0  23.6  21.0  69  1019   ---   WSW     6     6   ---   0.7 Few Clouds/
08/10/2008 11:50      23.0  15.0  24.1  21.0  61  1019   ---   NNE    10    10   ---   0.7 Few Clouds/
08/10/2008 12:50      23.0  15.0  24.1  19.4  61  1018   ---    NE    16    16   ---   0.7 Few Clouds/
08/10/2008 13:50      24.0  14.0  24.6  20.6  54  1017   ---    NE    18    18   ---   0.7 Few Clouds/
08/10/2008 14:50      23.0  15.0  24.1  19.8  61  1018   ---    NE    14    14   ---   --- Overcast/ Light Rain
08/10/2008 15:50      23.0  15.0  24.1  20.2  61  1017   ---   ENE    13    13   ---   0.7 Scattered Clouds/
08/10/2008 16:50      23.0  16.0  24.3  19.2  65  1017   ---   ENE    18    18   ---   0.7 Broken Clouds/
08/10/2008 17:50      23.0  16.0  24.3  19.4  65  1017   ---   ENE    16    16   ---   0.7 Broken Clouds/
08/10/2008 18:50      22.0  15.0  23.3  21.0  65  1017   ---   ENE     6     6   ---   0.7 Scattered Clouds/
08/10/2008 19:50      22.0  16.0  23.6  18.9  69  1017   ---     S    13    13   ---   0.7 Scattered Clouds/
08/10/2008 20:50      21.0  16.0  22.9  19.9  73  1018   ---     S     6     6   ---   0.7 Few Clouds/
08/10/2008 21:50      22.0  16.0  23.6  22.0  69  1018   ---     N     3     3   ---   0.7 Few Clouds/
08/10/2008 22:50      20.0  15.0  21.8  20.0  73  1018   ---     N     5     5   ---   0.7 Few Clouds/
08/10/2008 23:50      20.0  15.0  21.8  20.0  73  1018   ---     N     3     3   ---   0.7 Few Clouds/
09/10/2008 00:50      19.0  15.0  21.2  17.7  78  1018   ---   SSE     6     6   ---   0.7 Few Clouds/
09/10/2008 01:50      19.0  15.0  21.2  17.7  78  1019   ---   SSW     6     6   ---   0.7 Few Clouds/
09/10/2008 02:50      19.0  15.0  21.2  19.0  78  1019   ---     N     2     2   ---   0.7 Few Clouds/
09/10/2008 03:50      19.0  15.0  21.2  19.0  78  1018   ---     N     2     2   ---   0.7 Few Clouds/
09/10/2008 04:50      18.0  14.0  20.2  18.0  77  1019   ---     N     5     5   ---   0.7 Few Clouds/
09/10/2008 05:50      19.0  15.0  21.2  19.0  78  1019   ---     N     3     3   ---   0.7 Few Clouds/
09/10/2008 06:50      18.0  15.0  20.5  18.0  83  1019   ---     N     3     3   ---   0.7 Few Clouds/
09/10/2008 07:50      17.0  14.0  19.5  17.0  83  1020   ---   SSE     5     5   ---   --- /
09/10/2008 08:50      19.0  16.0  21.6  17.7  83  1020   ---     S     6     6   ---   --- /
09/10/2008 09:50      21.0  16.0  22.9  21.0  73  1021   ---     N     3     3   ---   --- /
09/10/2008 10:50      21.0  15.0  22.5  19.0  69  1022   ---   WSW     8     8   ---   --- /
09/10/2008 11:50      22.0  16.0  23.6  22.0  69  1022   ---   WNW     5     5   ---   --- /
09/10/2008 12:50      23.0  17.0  24.6  21.0  69  1022   ---     N    10    10   ---   0.6 Few Clouds/
09/10/2008 13:50      23.0  17.0  24.6  19.4  69  1022   ---   NNE    16    16   ---   0.6 Few Clouds/
09/10/2008 14:50      24.0  17.0  25.3  20.3  65  1022   ---    NE    19    19   ---   0.6 Few Clouds/
09/10/2008 15:20      24.0  17.0  25.3  19.5  65  1022   ---    NE    27    27   ---   0.6 Few Clouds/
09/10/2008 16:50      24.0  17.0  25.3  19.5  65  1022   ---    NE    27    27   ---   0.6 Few Clouds/
09/10/2008 17:50      23.0  17.0  24.6  18.7  69  1022   ---   ENE    21    21   ---   0.6 Few Clouds/
09/10/2008 18:50      23.0  16.0  24.3  19.8  65  1023   ---    NE    14    14   ---   0.7 Few Clouds/
09/10/2008 19:50      22.0  16.0  23.6  18.1  69  1023   ---   ENE    16    16   ---   0.7 Few Clouds/
09/10/2008 20:50      21.0  16.0  22.9  16.7  73  1024   ---   ENE    16    16   ---   0.7 Few Clouds/
09/10/2008 21:50      21.0  15.0  22.5  19.0  69  1025   ---     E     8     8   ---   --- /
09/10/2008 22:50      20.0  14.0  21.5  18.8  68  1025   ---    SE     6     6   ---   --- /
09/10/2008 23:50      19.0  14.0  20.8  19.0  73  1026   ---   SSE     3     3   ---   --- /
10/10/2008 00:50      19.0  15.0  21.2  19.0  78  1026   ---     E     3     3   ---   --- /
10/10/2008 01:50      18.0  14.0  20.2  15.5  77  1026   ---   SSE     8     8   ---   --- /
10/10/2008 02:50      19.0  15.0  21.2  16.2  78  1026   ---   SSE    10    10   ---   --- /
10/10/2008 03:50      18.0  14.0  20.2  18.0  77  1026   ---     S     5     5   ---   --- /
10/10/2008 04:50      18.0  14.0  20.2  18.0  77  1026   ---     N     5     5   ---   --- /
10/10/2008 05:50      18.0  14.0  20.2  16.6  77  1026   ---   SSE     6     6   ---   --- /
10/10/2008 06:50      18.0  14.0  20.2  18.0  77  1027   ---     N     5     5   ---   0.6 Few Clouds/
10/10/2008 07:50      18.0  15.0  20.5  18.0  83  1027   ---     S     5     5   ---   0.6 Few Clouds/
10/10/2008 08:50      19.0  15.0  21.2  19.0  78  1028   ---     N     3     3   ---   0.6 Scattered Clouds/
10/10/2008 09:50      19.0  15.0  21.2  19.0  78  1028   ---     N     3     3   ---   0.6 Scattered Clouds/
10/10/2008 10:50      22.0  18.0  24.2  22.0  78  1029   ---   NNW     5     5   ---   0.6 Scattered Clouds/
10/10/2008 11:50      22.0  18.0  24.2  21.0  78  1029   ---     N     6     6   ---   0.6 Few Clouds/
10/10/2008 12:50      23.0  18.0  24.9  20.2  73  1029   ---   NNE    13    13   ---   0.6 Few Clouds/
10/10/2008 13:50      23.0  18.0  24.9  18.9  73  1028   ---    NE    19    19   ---   0.6 Few Clouds/
10/10/2008 14:50      23.0  17.0  24.6  18.7  69  1028   ---    NE    21    21   ---   --- /
10/10/2008 15:50      23.0  15.0  24.1  18.2  61  1027   ---    NE    26    26   ---   --- /
10/10/2008 16:50      24.0  15.0  24.8  20.0  57  1027   ---   ENE    23    23   ---   --- /
10/10/2008 17:50      24.0  14.0  24.6  19.7  54  1027   ---   ENE    26    26   ---   --- /
10/10/2008 18:50      22.0  14.0  23.0  16.7  61  1028   ---   ENE    26    26   ---   --- /
10/10/2008 19:50      21.0  13.0  22.0  16.1  60  1028   ---   ENE    19    19   ---   --- /
10/10/2008 20:50      21.0  12.0  21.8  17.2  56  1028   ---     E    14    14   ---   --- /
10/10/2008 21:20      21.0  12.0  21.8  17.2  56  1029   ---   ENE    14    14   ---   --- /
10/10/2008 22:50      20.0  12.0  21.0  15.3  60  1029   ---   ENE    16    16   ---   --- /
10/10/2008 23:50      21.0  13.0  22.0  19.0  60  1029   ---     E     8     8   ---   --- /
11/10/2008 00:50      20.0  13.0  21.3  20.0  64  1029   ---     N     2     2   ---   --- /
11/10/2008 01:50      18.0  12.0  19.5  16.6  68  1029   ---     E     6     6   ---   --- /
11/10/2008 02:50      18.0  13.0  19.8  18.0  73  1029   ---     N     3     3   ---   --- /
11/10/2008 03:50      18.0  13.0  19.8  18.0  73  1029   ---     S     5     5   ---   --- /
11/10/2008 04:50      17.0  12.0  18.8  15.5  72  1029   ---     S     6     6   ---   --- /
11/10/2008 05:50      17.0  12.0  18.8  14.3  72  1029   ---   SSW     8     8   ---   --- /
11/10/2008 06:50      18.0  11.0  19.2  15.5  64  1029   ---     S     8     8   ---   --- /
11/10/2008 07:50      18.0  12.0  19.5  18.0  68  1029   ---     N     2     2   ---   --- /
11/10/2008 08:50      19.0  14.0  20.8  19.0  73  1030   ---     S     5     5   ---   --- /
11/10/2008 09:50      21.0  15.0  22.5  21.0  69  1031   ---     N     3     3   ---   --- /
11/10/2008 10:50      22.0  15.0  23.3  20.2  65  1031   ---   NNE     8     8   ---   --- /
11/10/2008 11:50      22.0  15.0  23.3  18.5  65  1031   ---   NNE    14    14   ---   --- /
11/10/2008 12:50      23.0  16.0  24.3  19.4  65  1031   ---   NNE    16    16   ---   --- /
11/10/2008 13:50      23.0  15.0  24.1  18.5  61  1030   ---    NE    23    23   ---   --- /
11/10/2008 14:50      23.0  15.0  24.1  18.2  61  1029   ---    NE    26    26   ---   --- /
11/10/2008 15:50      23.0  16.0  24.3  18.0  65  1029   ---    NE    27    27   ---   --- /
11/10/2008 16:50      23.0  16.0  24.3  18.0  65  1029   ---    NE    29    29   ---   0.9 Few Clouds/
11/10/2008 17:50      23.0  15.0  24.1  17.8  61  1029   ---    NE    31    31   ---   0.9 Few Clouds/
11/10/2008 18:50      22.0  15.0  23.3  16.5  65  1029   ---   ENE    27    27   ---   --- /
11/10/2008 19:50      21.0  14.0  22.3  15.6  64  1029   ---   ENE    23    23   ---   --- /
11/10/2008 20:50      21.0  13.0  22.0  15.6  60  1029   ---   ENE    23    23   ---   --- /
11/10/2008 21:50      20.0  12.0  21.0  15.9  60  1030   ---     E    14    14   ---   --- /
11/10/2008 22:50      20.0  12.0  21.0  20.0  60  1030   ---     N     3     3   ---   --- /
11/10/2008 23:50      18.0  12.0  19.5  18.0  68  1030   ---   SSE     5     5   ---   --- /
12/10/2008 00:50      20.0  12.0  21.0  20.0  60  1030   ---     E     5     5   ---   --- /
12/10/2008 01:50      17.0  11.0  18.5  17.0  68  1030   ---   SSE     5     5   ---   --- /
12/10/2008 02:50      16.0  10.0  17.5  14.4  68  1030   ---     S     6     6   ---   --- /
12/10/2008 03:50      18.0  11.0  19.2  18.0  64  1029   ---     N     3     3   ---   --- /
12/10/2008 04:50      16.0  11.0  17.8  16.0  72  1029   ---     N     5     5   ---   --- /
12/10/2008 05:50      16.0  11.0  17.8  14.4  72  1029   ---    SE     6     6   ---   --- /
12/10/2008 06:50      17.0  11.0  18.5  17.0  68  1029   ---     N     3     3   ---   --- /
12/10/2008 07:50      15.0  11.0  17.1  15.0  77  1029   ---     N     5     5   ---   --- /
12/10/2008 08:50      17.0  12.0  18.8  17.0  72  1029   ---     N     5     5   ---   --- /
12/10/2008 09:50      20.0  14.0  21.5  20.0  68  1030   ---     N     2     2   ---   --- /
12/10/2008 10:50      21.0  13.0  22.0  21.0  60  1030   ---     N     3     3   ---   --- /
12/10/2008 11:50      22.0  15.0  23.3  22.0  65  1030   ---     N     5     5   ---   --- /
12/10/2008 12:50      22.0  16.0  23.6  18.5  69  1029   ---   NNE    14    14   ---   --- /
12/10/2008 13:50      22.0  16.0  23.6  17.9  69  1028   ---   NNE    18    18   ---   --- /
12/10/2008 14:50      23.0  16.0  24.3  19.4  65  1028   ---   NNE    16    16   ---   --- /
12/10/2008 15:50      22.0  16.0  23.6  18.1  69  1027   ---   NNE    16    16   ---   --- /
12/10/2008 16:50      22.0  16.0  23.6  18.1  69  1027   ---   NNE    16    16   ---   0.8 Few Clouds/
12/10/2008 17:50      22.0  16.0  23.6  18.1  69  1027   ---    NE    16    16   ---   0.7 Few Clouds/
12/10/2008 18:50      21.0  16.0  22.9  17.7  73  1027   ---   ENE    13    13   ---   0.7 Few Clouds/
12/10/2008 19:50      22.0  15.0  23.3  17.5  65  1026   ---   NNE    19    19   ---   0.7 Few Clouds/
12/10/2008 20:50      21.0  15.0  22.5  16.5  69  1026   ---    NE    18    18   ---   0.7 Few Clouds/
12/10/2008 21:50      21.0  15.0  22.5  16.1  69  1026   ---    NE    19    19   ---   0.7 Few Clouds/
12/10/2008 22:50      21.0  16.0  22.9  16.5  73  1026   ---    NE    18    18   ---   0.7 Few Clouds/
12/10/2008 23:50      20.0  15.0  21.8  16.4  73  1025   ---   ENE    13    13   ---   0.7 Few Clouds/
13/10/2008 00:50      19.0  15.0  21.2  16.2  78  1025   ---     E    10    10   ---   0.7 Scattered Clouds/
13/10/2008 01:50      19.0  15.0  21.2  16.7  78  1025   ---   ENE     8     8   ---   0.7 Scattered Clouds/
13/10/2008 02:50      20.0  15.0  21.8  12.1  73  1024   ---   ENE    80    80   ---   0.7 Scattered Clouds/
13/10/2008 03:50      19.0  15.0  21.2  17.7  78  1024   ---   SSW     6     6   ---   0.7 Scattered Clouds/
13/10/2008 04:50      18.0  15.0  20.5  18.0  83  1023   ---     N     5     5   ---   0.7 Scattered Clouds/
13/10/2008 05:50      18.0  14.0  20.2  16.6  77  1023   ---     S     6     6   ---   0.7 Scattered Clouds/
13/10/2008 06:50      17.0  14.0  19.5  15.5  83  1023   ---     S     6     6   ---   0.8 Scattered Clouds/
13/10/2008 07:50      17.0  14.0  19.5  15.5  83  1023   ---     S     6     6   ---   0.8 Scattered Clouds/
13/10/2008 08:50      17.0  14.0  19.5  15.5  83  1023   ---     S     6     6   ---   0.8 Scattered Clouds/
13/10/2008 09:50      20.0  16.0  22.2  18.8  78  1024   ---   WSW     6     6   ---   0.8 Few Clouds/
13/10/2008 10:50      21.0  16.0  22.9  21.0  73  1024   ---     N     3     3   ---   0.7 Few Clouds/
13/10/2008 11:50      22.0  16.0  23.6  21.0  69  1023   ---    NW     6     6   ---   0.7 Few Clouds/
13/10/2008 12:50      22.0  17.0  23.9  22.0  73  1023   ---     N     5     5   ---   0.7 Few Clouds/
13/10/2008 13:50      22.0  16.0  23.6  18.9  69  1023   ---     N    13    13   ---   0.7 Few Clouds/
13/10/2008 14:50      22.0  16.0  23.6  18.9  69  1022   ---   NNE    13    13   ---   0.7 Few Clouds/
13/10/2008 15:50      22.0  17.0  23.9  19.8  73  1022   ---   NNE    10    10   ---   --- /
13/10/2008 16:50      22.0  17.0  23.9  18.1  73  1021   ---   NNE    16    16   ---   --- /
13/10/2008 17:50      22.0  17.0  23.9  18.1  73  1021   ---   NNE    16    16   ---   --- /
13/10/2008 18:50      21.0  17.0  23.2  17.2  78  1021   ---    NE    14    14   ---   --- /
13/10/2008 19:50      20.0  16.0  22.2  16.4  78  1021   ---    NE    13    13   ---   --- /
13/10/2008 20:50      19.0  16.0  21.6  16.2  83  1021   ---     E    10    10   ---   0.8 Few Clouds/
13/10/2008 21:50      20.0  15.0  21.8  18.8  73  1021   ---     E     6     6   ---   0.8 Few Clouds/
13/10/2008 22:50      19.0  15.0  21.2  17.7  78  1021   ---     E     6     6   ---   0.8 Few Clouds/
13/10/2008 23:50      19.0  15.0  21.2  16.2  78  1021   ---     E    10    10   ---   0.8 Few Clouds/
14/10/2008 00:50      18.0  13.0  19.8  16.6  73  1021   ---     S     6     6   ---   0.9 Few Clouds/
14/10/2008 01:50      17.0  13.0  19.2  17.0  77  1021   ---     N     5     5   ---   0.9 Few Clouds/
14/10/2008 02:50      16.0  12.0  18.1  12.5  77  1021   ---   SSE    10    10   ---   0.9 Few Clouds/
14/10/2008 03:50      17.0  12.0  18.8  17.0  72  1020   ---     S     5     5   ---   --- /
14/10/2008 04:50      16.0  11.0  17.8  14.4  72  1020   ---   SSE     6     6   ---   --- /
14/10/2008 05:50      16.0  11.0  17.8  16.0  72  1020   ---     N     5     5   ---   --- /
14/10/2008 06:50      15.0  12.0  17.5  13.3  82  1020   ---    SE     6     6   ---   0.8 Few Clouds/
14/10/2008 07:50      17.0  13.0  19.2  15.5  77  1020   ---     S     6     6   ---   --- /
14/10/2008 08:50      17.0  13.0  19.2  17.0  77  1020   ---     N     3     3   ---   --- /
14/10/2008 09:50      20.0  13.0  21.3  18.8  64  1020   ---    SW     6     6   ---   --- /
14/10/2008 10:50      21.0  14.0  22.3  19.9  64  1020   ---     W     6     6   ---   --- /
14/10/2008 11:50      21.0  16.0  22.9  21.0  73  1020   ---     N     5     5   ---   --- /
14/10/2008 12:50      22.0  16.0  23.6  20.2  69  1020   ---     N     8     8   ---   --- /
14/10/2008 13:50      22.0  17.0  23.9  19.8  73  1020   ---     N    10    10   ---   --- /
14/10/2008 14:50      22.0  17.0  23.9  18.9  73  1019   ---   NNE    13    13   ---   --- /
14/10/2008 15:50      22.0  16.0  23.6  18.5  69  1019   ---     N    14    14   ---   --- /
14/10/2008 16:50      22.0  15.0  23.3  17.9  65  1019   ---   NNE    18    18   ---   --- /
14/10/2008 17:50      22.0  15.0  23.3  18.1  65  1019   ---   NNE    16    16   ---   --- /
14/10/2008 18:50      21.0  15.0  22.5  17.2  69  1019   ---   NNE    14    14   ---   --- /
14/10/2008 19:50      21.0  14.0  22.3  17.7  64  1019   ---    NE    13    13   ---   --- /
14/10/2008 20:50      20.0  14.0  21.5  16.4  68  1019   ---   ENE    13    13   ---   --- /
14/10/2008 21:50      19.0  14.0  20.8  16.2  73  1020   ---     E    10    10   ---   --- /
14/10/2008 22:50      19.0  14.0  20.8  17.7  73  1020   ---   SSE     6     6   ---   --- /
14/10/2008 23:20      18.0  14.0  20.2  16.6  77  1020   ---   SSE     6     6   ---   --- /
15/10/2008 00:50      16.0  13.0  18.5  13.2  82  1020   ---     S     8     8   ---   --- /
15/10/2008 01:50      17.0  13.0  19.2  15.5  77  1020   ---     S     6     6   ---   --- /
15/10/2008 02:50      17.0  13.0  19.2  13.8  77  1020   ---   SSW    10    10   ---   --- /
15/10/2008 03:50      16.0  13.0  18.5  12.5  82  1020   ---   SSW    10    10   ---   --- /
15/10/2008 04:50      17.0  13.0  19.2  14.3  77  1020   ---   SSW     8     8   ---   --- /
15/10/2008 05:50      17.0  12.0  18.8  15.5  72  1020   ---   SSW     6     6   ---   --- /
15/10/2008 06:50      16.0  11.0  17.8  12.5  72  1020   ---     S    10    10   ---   --- /
15/10/2008 07:50      15.0  11.0  17.1  12.0  77  1020   ---   SSE     8     8   ---   --- /
15/10/2008 08:50      17.0  13.0  19.2  14.3  77  1021   ---     S     8     8   ---   --- /
15/10/2008 09:50      20.0  14.0  21.5  17.8  68  1021   ---   SSW     8     8   ---   --- /
15/10/2008 10:50      21.0  15.0  22.5  19.9  69  1022   ---   WSW     6     6   ---   --- /
15/10/2008 11:50      21.0  15.0  22.5  19.9  69  1022   ---     W     6     6   ---   --- /
15/10/2008 13:50      22.0  15.0  23.3  20.2  65  1022   ---     N     8     8   ---   0.8 Few Clouds/
15/10/2008 14:50      22.0  15.0  23.3  20.2  65  1021   ---   NNW     8     8   ---   0.8 Few Clouds/
15/10/2008 15:50      22.0  14.0  23.0  20.2  61  1021   ---     N     8     8   ---   0.8 Few Clouds/
15/10/2008 16:50      22.0  15.0  23.3  20.2  65  1021   ---   NNE     8     8   ---   0.8 Few Clouds/
15/10/2008 17:50      21.0  15.0  22.5  19.9  69  1021   ---   NNE     6     6   ---   0.8 Few Clouds/
15/10/2008 18:50      21.0  15.0  22.5  19.9  69  1022   ---    NE     6     6   ---   0.8 Few Clouds/
15/10/2008 19:50      20.0  14.0  21.5  18.8  68  1022   ---     E     6     6   ---   0.7 Few Clouds/
15/10/2008 20:50      20.0  14.0  21.5  20.0  68  1022   ---     E     5     5   ---   --- /
15/10/2008 21:50      19.0  14.0  20.8  19.0  73  1022   ---     N     5     5   ---   --- /
15/10/2008 22:50      18.0  14.0  20.2  18.0  77  1022   ---     S     5     5   ---   --- /
15/10/2008 23:50      17.0  14.0  19.5  15.5  83  1022   ---     S     6     6   ---   --- /
16/10/2008 00:50      17.0  13.0  19.2  17.0  77  1022   ---   SSW     5     5   ---   --- /
16/10/2008 01:50      17.0  13.0  19.2  15.5  77  1022   ---     S     6     6   ---   --- /
16/10/2008 02:50      16.0  13.0  18.5  12.5  82  1020   ---     S    10    10   ---   --- /
16/10/2008 03:50      18.0  14.0  20.2  18.0  77  1021   ---     N     5     5   ---   --- /
16/10/2008 04:50      16.0  13.0  18.5  13.2  82  1021   ---     S     8     8   ---   --- /
16/10/2008 05:50      18.0  14.0  20.2  18.0  77  1021   ---     N     3     3   ---   --- /
16/10/2008 06:50      17.0  13.0  19.2  17.0  77  1021   ---     N     5     5   ---   --- /
16/10/2008 07:50      17.0  12.0  18.8  15.5  72  1021   ---   SSE     6     6   ---   --- /
16/10/2008 08:50      17.0  13.0  19.2  15.5  77  1022   ---     S     6     6   ---   --- /
16/10/2008 09:50      19.0  13.0  20.5  19.0  68  1022   ---     N     5     5   ---   --- /
16/10/2008 10:50      23.0  15.0  24.1  23.0  61  1022   ---   ENE     5     5   ---   --- /
16/10/2008 11:50      22.0  16.0  23.6  19.8  69  1022   ---    NE    10    10   ---   --- /
16/10/2008 12:50      22.0  16.0  23.6  19.8  69  1022   ---   NNE    10    10   ---   --- /
16/10/2008 13:50      23.0  16.0  24.3  20.2  65  1021   ---   NNE    13    13   ---   --- /
16/10/2008 14:50      23.0  16.0  24.3  19.4  65  1020   ---    NE    16    16   ---   --- /
16/10/2008 15:50      23.0  16.0  24.3  19.4  65  1020   ---    NE    16    16   ---   --- /
16/10/2008 16:50      23.0  16.0  24.3  19.8  65  1019   ---   ENE    14    14   ---   --- /
16/10/2008 17:50      23.0  16.0  24.3  21.0  65  1019   ---   ENE    10    10   ---   --- /
16/10/2008 18:50      22.0  16.0  23.6  20.2  69  1018   ---   ENE     8     8   ---   --- /
16/10/2008 19:50      21.0  16.0  22.9  21.0  73  1019   ---     N     2     2   ---   --- /
16/10/2008 20:50      20.0  15.0  21.8  18.8  73  1018   ---     S     6     6   ---   --- /
16/10/2008 21:50      21.0  17.0  23.2  17.7  78  1018   ---    SW    13    13   ---   --- /
16/10/2008 22:50      21.0  16.0  22.9  18.6  73  1018   ---   SSW    10    10   ---   --- /
16/10/2008 23:20      21.0  16.0  22.9  18.6  73  1018   ---   SSW    10    10   ---   --- /
17/10/2008 00:50      21.0  16.0  22.9  18.6  73  1018   ---     S    10    10   ---   --- /
17/10/2008 01:50      21.0  16.0  22.9  15.8  73  1018   ---   SSW    21    21   ---   --- /
17/10/2008 02:50      21.0  16.0  22.9  16.5  73  1017   ---     S    18    18   ---   --- /
17/10/2008 03:50      22.0  16.0  23.6  17.3  69  1016   ---     S    21    21   ---   --- /
17/10/2008 04:50      21.0  16.0  22.9  16.5  73  1016   ---     S    18    18   ---   --- /
17/10/2008 05:50      21.0  16.0  22.9  16.5  73  1015   ---     S    18    18   ---   --- /
17/10/2008 06:50      20.0  15.0  21.8  15.9  73  1015   ---     S    14    14   ---   --- /
17/10/2008 07:50      20.0  15.0  21.8  16.4  73  1015   ---     S    13    13   ---   --- /
17/10/2008 08:50      21.0  17.0  23.2  18.6  78  1015   ---     S    10    10   ---   --- /
17/10/2008 09:20      22.0  17.0  23.9  19.8  73  1016   ---   SSE    10    10   ---   --- /
17/10/2008 10:50      23.0  17.0  24.6  19.2  69  1016   ---    SW    18    18   ---   0.9 Few Clouds/
17/10/2008 11:50      24.0  16.0  25.1  20.8  61  1016   ---    SW    16    16   ---   0.9 Few Clouds/
17/10/2008 12:50      24.0  18.0  25.6  21.1  69  1015   ---   WSW    14    14   ---   0.4 Scattered Clouds/
17/10/2008 13:50      22.0  17.0  23.9  18.5  73  1015   ---    SW    14    14   ---   --- Overcast/ Light Rain
17/10/2008 14:50      23.0  17.0  24.6  20.2  69  1015   ---   WSW    13    13   ---   0.5 Broken Clouds/
17/10/2008 15:50      22.0  16.0  23.6  18.9  69  1014   ---   SSW    13    13   ---   0.5 Broken Clouds/
17/10/2008 16:50      22.0  15.0  23.3  18.5  65   ---   ---    SW    14    14   ---   0.7 Broken Clouds/
17/10/2008 17:50      22.0  15.0  23.3  20.2  65   ---   ---   SSW     8     8   ---   0.7 Broken Clouds/
17/10/2008 18:20      22.0  15.0  23.3  20.2  65   ---   ---   SSW     8     8   ---   0.7 Broken Clouds/
17/10/2008 19:50      21.0  14.0  22.3  19.0  64   ---   ---   SSE     8     8   ---   0.7 Few Clouds/
17/10/2008 20:50      20.0  14.0  21.5  17.4  68   ---   ---     S    10    10   ---   0.7 Few Clouds/
17/10/2008 21:50      21.0  16.0  22.9  17.7  73   ---   ---     S    13    13   ---   0.7 Scattered Clouds/
17/10/2008 22:50      20.0  16.0  22.2  16.4  78   ---   ---     S    13    13   ---   0.7 Scattered Clouds/
17/10/2008 23:50      20.0  16.0  22.2  16.4  78   ---   ---     S    13    13   ---   0.7 Scattered Clouds/
18/10/2008 00:50      19.0  16.0  21.6  16.2  83   ---   ---     S    10    10   ---   0.7 Scattered Clouds/
18/10/2008 01:50      19.0  15.0  21.2  16.2  78   ---   ---     S    10    10   ---   0.7 Scattered Clouds/
18/10/2008 02:50      19.0  15.0  21.2  17.7  78   ---   ---   SSW     6     6   ---   0.7 Scattered Clouds/
18/10/2008 03:50      19.0  15.0  21.2  16.2  78   ---   ---   SSW    10    10   ---   0.7 Scattered Clouds/
18/10/2008 04:50      20.0  16.0  22.2  17.4  78   ---   ---   SSW    10    10   ---   0.7 Scattered Clouds/
18/10/2008 05:50      20.0  16.0  22.2  17.8  78   ---   ---   SSW     8     8   ---   --- Overcast/ Light Rain
18/10/2008 06:50      19.0  16.0  21.6  17.7  83   ---   ---     S     6     6   ---   --- Overcast/ Light Rain
18/10/2008 07:50      18.0  16.0  21.0  16.6  88   ---   ---     S     6     6   ---   --- Overcast/ Light Rain
18/10/2008 08:50      19.0  17.0  22.0  16.7  88   ---   ---   SSW     8     8   ---   1.0 Scattered Clouds/
18/10/2008 09:50      21.0  18.0  23.6  19.0  83   ---   ---    SW     8     8   ---   1.0 Scattered Clouds/
18/10/2008 10:50      21.0  17.0  23.2  18.6  78   ---   ---   WSW    10    10   ---   1.0 Scattered Clouds/
18/10/2008 11:50      22.0  17.0  23.9  19.8  73   ---   ---   WSW    10    10   ---   1.0 Few Clouds/
18/10/2008 12:50      23.0  18.0  24.9  22.1  73   ---   ---     W     6     6   ---   1.0 Few Clouds/
18/10/2008 13:50      22.0  18.0  24.2  18.9  78   ---   ---    NW    13    13   ---   0.9 Few Clouds/
18/10/2008 14:50      23.0  18.0  24.9  19.8  73   ---   ---     N    14    14   ---   0.6 Few Clouds/
18/10/2008 15:20      23.0  18.0  24.9  19.8  73   ---   ---     N    14    14   ---   0.5 Few Clouds/
18/10/2008 16:50      23.0  18.0  24.9  19.8  73   ---   ---   NNE    14    14   ---   0.5 Few Clouds/
18/10/2008 17:50      22.0  18.0  24.2  18.9  78   ---   ---    NE    13    13   ---   0.5 Scattered Clouds/
18/10/2008 18:50      21.0  17.0  23.2  18.6  78   ---   ---   ENE    10    10   ---   0.5 Scattered Clouds/
18/10/2008 19:20      21.0  17.0  23.2  17.7  78   ---   ---   ENE    13    13   ---   0.6 Few Clouds/
18/10/2008 20:50      21.0  17.0  23.2  21.0  78   ---   ---     N     3     3   ---   0.7 Few Clouds/
18/10/2008 21:50      20.0  16.0  22.2  20.0  78   ---   ---     N     5     5   ---   0.7 Few Clouds/
18/10/2008 22:50      20.0  16.0  22.2  20.0  78   ---   ---   SSW     3     3   ---   --- /
18/10/2008 23:50      20.0  16.0  22.2  20.0  78   ---   ---     N     3     3   ---   0.7 Few Clouds/
19/10/2008 00:50      19.0  15.0  21.2  19.0  78   ---   ---     N     5     5   ---   --- /
19/10/2008 01:50      19.0  15.0  21.2  19.0  78   ---   ---     N     5     5   ---   --- /
19/10/2008 02:50      18.0  15.0  20.5  18.0  83   ---   ---     N     3     3   ---   --- /
19/10/2008 03:50      18.0  15.0  20.5  18.0  83   ---   ---    SE     2     2   ---   --- /
19/10/2008 04:50      18.0  15.0  20.5  18.0  83   ---   ---   SSE     5     5   ---   --- /
19/10/2008 05:50      18.0  15.0  20.5  16.6  83   ---   ---     S     6     6   ---   --- /
19/10/2008 06:50      17.0  15.0  20.0  17.0  88   ---   ---   SSE     5     5   ---   --- /
19/10/2008 07:50      18.0  15.0  20.5  18.0  83   ---   ---     N     5     5   ---   --- /
19/10/2008 08:50      19.0  16.0  21.6  19.0  83  1022   ---     N     3     3   ---   --- /
19/10/2008 09:50      21.0  18.0  23.6  21.0  83  1022   ---     N     5     5   ---   0.7 Few Clouds/
19/10/2008 10:50      22.0  17.0  23.9  21.0  73  1023   ---   NNE     6     6   ---   0.7 Few Clouds/
19/10/2008 11:50      22.0  17.0  23.9  21.0  73  1023   ---     N     6     6   ---   0.7 Few Clouds/
19/10/2008 12:50      23.0  17.0  24.6  22.1  69  1023   ---     N     6     6   ---   0.7 Few Clouds/
19/10/2008 13:50      23.0  17.0  24.6  22.1  69  1022   ---     N     6     6   ---   0.7 Few Clouds/
19/10/2008 14:50      23.0  17.0  24.6  19.2  69  1022   ---    NE    18    18   ---   0.7 Few Clouds/
19/10/2008 15:50      23.0  18.0  24.9  18.5  73  1022   ---    NE    23    23   ---   0.7 Few Clouds/
19/10/2008 16:50      23.0  18.0  24.9  18.5  73  1022   ---    NE    23    23   ---   0.7 Few Clouds/
19/10/2008 16:50      23.0  18.0  24.9  18.5  73  1022   ---    NE    23    23   ---   0.7 Few Clouds/None reported
19/10/2008 17:50      22.0  18.0  24.2  17.1  78  1022   ---    NE    23    23   ---   0.7 Scattered Clouds/
19/10/2008 18:50      22.0  17.0  23.9  17.9  73  1022   ---   ENE    18    18   ---   0.7 Scattered Clouds/
19/10/2008 19:50      22.0  17.0  23.9  18.9  73  1023   ---   ENE    13    13   ---   0.7 Scattered Clouds/
19/10/2008 20:50      22.0  17.0  23.9  22.0  73  1023   ---     N     5     5   ---   0.7 Scattered Clouds/
19/10/2008 21:50      20.0  16.0  22.2  20.0  78  1023   ---     N     3     3   ---   0.7 Few Clouds/
19/10/2008 22:50      20.0  16.0  22.2  20.0  78  1023   ---     N     5     5   ---   0.7 Few Clouds/
19/10/2008 23:50      19.0  15.0  21.2  17.7  78  1024   ---     S     6     6   ---   0.7 Few Clouds/
20/10/2008 00:50      18.0  15.0  20.5  18.0  83  1024   ---     N     5     5   ---   0.7 Few Clouds/
20/10/2008 01:50      19.0  16.0  21.6  19.0  83  1023   ---     N     3     3   ---   --- /
20/10/2008 02:50      19.0  16.0  21.6  19.0  83  1023   ---     N     5     5   ---   --- /
20/10/2008 03:50      19.0  16.0  21.6  16.7  83  1023   ---     S     8     8   ---   --- /
20/10/2008 04:50      18.0  15.0  20.5  16.6  83  1023   ---     S     6     6   ---   --- /
20/10/2008 05:50      17.0  15.0  20.0  15.5  88  1023   ---     S     6     6   ---   --- /
20/10/2008 06:50      18.0  15.0  20.5  15.5  83  1023   ---   SSW     8     8   ---   --- /
20/10/2008 07:50      18.0  15.0  20.5  15.5  83  1023   ---     S     8     8   ---   --- /
20/10/2008 08:50      19.0  16.0  21.6  16.2  83  1024   ---   SSW    10    10   ---   --- /
20/10/2008 09:50      22.0  16.0  23.6  22.0  69  1024   ---    SE     2     2   ---   --- /
20/10/2008 10:50      22.0  17.0  23.9  21.0  73  1024   ---     W     6     6   ---   --- /
20/10/2008 11:50      22.0  17.0  23.9  22.0  73  1024   ---     N     5     5   ---   --- /
20/10/2008 12:20      23.0  17.0  24.6  22.1  69  1024   ---    NW     6     6   ---   --- /
20/10/2008 13:50      23.0  17.0  24.6  21.0  69  1024   ---   NNE    10    10   ---   --- /
20/10/2008 14:50      23.0  18.0  24.9  19.4  73  1023   ---   NNE    16    16   ---   0.7 Few Clouds/
20/10/2008 15:50      23.0  18.0  24.9  19.2  73  1023   ---   NNE    18    18   ---   0.6 Few Clouds/
20/10/2008 16:50      23.0  18.0  24.9  18.7  73  1022   ---    NE    21    21   ---   0.6 Scattered Clouds/
20/10/2008 17:50      22.0  17.0  23.9  17.5  73  1022   ---    NE    19    19   ---   0.6 Scattered Clouds/
20/10/2008 18:50      22.0  18.0  24.2  18.1  78  1022   ---   ENE    16    16   ---   0.6 Scattered Clouds/
20/10/2008 19:50      21.0  17.0  23.2  16.7  78  1022   ---   ENE    16    16   ---   0.5 Scattered Clouds/
20/10/2008 20:50      20.0  17.0  22.6  18.8  83  1022   ---     S     6     6   ---   0.5 Few Clouds/
20/10/2008 21:50      21.0  17.0  23.2  19.0  78  1022   ---     S     8     8   ---   0.5 Few Clouds/
20/10/2008 22:50      21.0  18.0  23.6  19.0  83  1022   ---    SW     8     8   ---   0.5 Few Clouds/
20/10/2008 23:50      21.0  17.0  23.2  19.0  78  1022   ---   SSW     8     8   ---   --- /
21/10/2008 00:50      19.0  16.0  21.6  16.7  83  1022   ---     S     8     8   ---   --- /
21/10/2008 01:50      19.0  16.0  21.6  19.0  83  1022   ---     S     5     5   ---   --- /
21/10/2008 02:50      19.0  16.0  21.6  19.0  83  1021   ---   ESE     3     3   ---   --- /
21/10/2008 03:50      18.0  15.0  20.5  18.0  83  1021   ---   NNE     3     3   ---   --- /
21/10/2008 04:50      19.0  16.0  21.6  19.0  83  1021   ---     N     3     3   ---   --- /
21/10/2008 05:50      17.0  14.0  19.5  17.0  83  1020   ---     N     5     5   ---   --- /
21/10/2008 06:50      17.0  14.0  19.5  15.5  83  1020   ---     S     6     6   ---   --- /
21/10/2008 07:50      18.0  15.0  20.5  18.0  83  1020   ---     N     5     5   ---   --- /
21/10/2008 08:50      18.0  15.0  20.5  18.0  83  1020   ---     N     5     5   ---   --- /
21/10/2008 09:50      20.0  17.0  22.6  18.8  83  1021   ---    SW     6     6   ---   --- /
21/10/2008 10:50      21.0  16.0  22.9  19.9  73  1021   ---     W     6     6   ---   0.6 Few Clouds/
21/10/2008 11:50      22.0  17.0  23.9  22.0  73  1021   ---     N     5     5   ---   0.6 Few Clouds/
21/10/2008 12:50      22.0  17.0  23.9  21.0  73  1020   ---     N     6     6   ---   0.6 Few Clouds/
21/10/2008 13:50      23.0  18.0  24.9  21.0  73  1019   ---   NNE    10    10   ---   0.6 Few Clouds/
21/10/2008 14:50      23.0  17.0  24.6  18.9  69  1018   ---    NE    19    19   ---   0.6 Few Clouds/
21/10/2008 15:50      24.0  17.0  25.3  20.0  65  1018   ---   ENE    23    23   ---   0.6 Few Clouds/
21/10/2008 16:50      23.0  17.0  24.6  18.0  69  1017   ---   ENE    27    27   ---   0.6 Few Clouds/
21/10/2008 17:50      23.0  17.0  24.6  18.2  69  1017   ---   ENE    26    26   ---   0.6 Few Clouds/
21/10/2008 18:50      22.0  16.0  23.6  21.0  69  1017   ---    NE     6     6   ---   0.6 Few Clouds/
21/10/2008 19:50      21.0  16.0  22.9  17.7  73  1017   ---     S    13    13   ---   0.6 Few Clouds/
21/10/2008 20:50      21.0  16.0  22.9  16.1  73  1018   ---     S    19    19   ---   0.6 Few Clouds/
21/10/2008 21:50      21.0  17.0  23.2  17.2  78  1018   ---   SSW    14    14   ---   0.6 Few Clouds/
21/10/2008 22:50      20.0  15.0  21.8  17.8  73  1018   ---     S     8     8   ---   0.6 Few Clouds/
21/10/2008 23:50      19.0  15.0  21.2  15.1  78  1018   ---     S    13    13   ---   0.6 Few Clouds/
22/10/2008 00:50      21.0  16.0  22.9  19.9  73  1018   ---   SSW     6     6   ---   0.6 Few Clouds/
22/10/2008 01:50      20.0  15.0  21.8  20.0  73  1018   ---     N     2     2   ---   0.6 Few Clouds/
22/10/2008 02:50      19.0  16.0  21.6  17.7  83  1018   ---     S     6     6   ---   0.6 Few Clouds/
22/10/2008 03:50      18.0  15.0  20.5  18.0  83  1017   ---     N     5     5   ---   0.6 Few Clouds/
22/10/2008 04:50      19.0  15.0  21.2  19.0  78  1017   ---     N     3     3   ---   0.6 Few Clouds/
22/10/2008 05:50      18.0  15.0  20.5  18.0  83  1017   ---     N     2     2   ---   0.6 Few Clouds/
22/10/2008 06:50      18.0  15.0  20.5  15.5  83  1016   ---   SSE     8     8   ---   0.6 Few Clouds/
22/10/2008 07:50      18.0  15.0  20.5  18.0  83  1016   ---     S     5     5   ---   0.6 Few Clouds/
22/10/2008 08:50      19.0  16.0  21.6  17.7  83  1017   ---   SSE     6     6   ---   0.7 Broken Clouds/
22/10/2008 09:50      20.0  17.0  22.6  20.0  83  1017   ---     N     3     3   ---   0.7 Broken Clouds/
22/10/2008 10:50      21.0  16.0  22.9  17.7  73  1017   ---    SW    13    13   ---   0.7 Broken Clouds/
22/10/2008 11:50      22.0  16.0  23.6  18.9  69  1016   ---   WNW    13    13   ---   0.7 Broken Clouds/
22/10/2008 12:50      22.0  16.0  23.6  18.9  69  1016   ---    NW    13    13   ---   0.7 Broken Clouds/
22/10/2008 13:50      22.0  17.0  23.9  19.8  73  1016   ---   NNW    10    10   ---   0.7 Broken Clouds/
22/10/2008 14:50      22.0  17.0  23.9  22.0  73  1016   ---     N     2     2   ---   0.6 Few Clouds/
22/10/2008 15:50      23.0  15.0  24.1  18.5  61  1016   ---   SSW    23    23   ---   0.6 Few Clouds/
22/10/2008 16:50      23.0  14.0  23.8  18.5  57  1015   ---     S    23    23   ---   0.6 Few Clouds/
22/10/2008 17:50      23.0  13.0  23.6  19.8  53  1014   ---    SE    14    32   ---   0.6 Few Clouds/
22/10/2008 18:50      23.0  14.0  23.8  23.0  57  1015   ---     N     5     5   ---   --- / Drizzle
22/10/2008 19:50      22.0  15.0  23.3  22.0  65  1015   ---     N     2     2   ---   0.6 Few Clouds/
22/10/2008 20:50      22.0  16.0  23.6  21.0  69  1015   ---   NNW     6     6   ---   0.6 Few Clouds/
22/10/2008 21:50      21.0  16.0  22.9  21.0  73  1015   ---     N     5     5   ---   0.6 Few Clouds/
22/10/2008 22:50      20.0  15.0  21.8  16.4  73  1016   ---   SSW    13    13   ---   0.6 Overcast/
22/10/2008 23:50      20.0  15.0  21.8  15.9  73  1016   ---    SW    14    14   ---   0.6 Overcast/
23/10/2008 00:50      21.0  15.0  22.5  16.7  69  1016   ---    SW    16    16   ---   0.6 Overcast/
23/10/2008 01:50      20.0  14.0  21.5  15.3  68  1016   ---   SSW    16    16   ---   0.6 Scattered Clouds/
23/10/2008 02:50      19.0  14.0  20.8  13.2  73  1016   ---    SW    19    19   ---   0.6 Scattered Clouds/
23/10/2008 03:50      19.0  14.0  20.8  19.0  73  1016   ---     N     5     5   ---   0.6 Few Clouds/
23/10/2008 04:50      20.0  15.0  21.8  20.0  73  1016   ---   ENE     5     5   ---   0.6 Few Clouds/
23/10/2008 05:50      19.0  15.0  21.2  19.0  78  1016   ---     S     5     5   ---   0.6 Few Clouds/
23/10/2008 06:50      20.0  15.0  21.8  20.0  73  1016   ---   WSW     5     5   ---   0.6 Scattered Clouds/
23/10/2008 07:50      20.0  16.0  22.2  17.8  78  1016   ---   SSW     8     8   ---   0.6 Scattered Clouds/
23/10/2008 08:50      20.0  16.0  22.2  18.8  78  1017   ---    SW     6     6   ---   0.6 Scattered Clouds/
23/10/2008 09:50      21.0  16.0  22.9  19.0  73  1018   ---    SW     8     8   ---   0.6 Scattered Clouds/
23/10/2008 10:50      22.0  17.0  23.9  18.1  73  1018   ---   NNE    16    16   ---   0.6 Scattered Clouds/
23/10/2008 11:50      23.0  16.0  24.3  19.4  65  1018   ---   ENE    16    16   ---   0.7 Scattered Clouds/
23/10/2008 12:50      23.0  16.0  24.3  19.4  65  1018   ---   NNE    16    16   ---   0.6 Few Clouds/
23/10/2008 13:50      23.0  17.0  24.6  22.1  69  1018   ---    NW     6     6   ---   0.6 Few Clouds/
23/10/2008 14:50      22.0  17.0  23.9  19.8  73  1018   ---    NW    10    10   ---   0.6 Scattered Clouds/
23/10/2008 15:50      23.0  18.0  24.9  19.2  73  1018   ---    NW    18    18   ---   0.6 Scattered Clouds/
23/10/2008 16:50      22.0  18.0  24.2  18.5  78  1018   ---    NW    14    14   ---   0.5 Scattered Clouds/
23/10/2008 17:50      22.0  18.0  24.2  18.1  78  1018   ---    NW    16    16   ---   0.5 Scattered Clouds/
23/10/2008 18:50      22.0  17.0  23.9  18.1  73  1019   ---    NW    16    16   ---   --- / Mist
23/10/2008 19:50      21.0  17.0  23.2  21.0  78  1020   ---     N     5     5   ---   0.6 Scattered Clouds/
23/10/2008 20:50      21.0  17.0  23.2  21.0  78  1020   ---     N     5     5   ---   0.6 Scattered Clouds/
23/10/2008 21:50      20.0  18.0  23.0  17.8  88  1020   ---   SSW     8     8   ---   0.6 Scattered Clouds/
23/10/2008 22:50      20.0  17.0  22.6  20.0  83  1020   ---     N     3     3   ---   --- Overcast/ Light Rain
23/10/2008 23:50      20.0  17.0  22.6  18.8  83  1021   ---    SE     6     6   ---   0.4 Broken Clouds/
24/10/2008 00:50      19.0  17.0  22.0  17.7  88  1020   ---   ESE     6     6   ---   0.4 Broken Clouds/
24/10/2008 01:50      18.0  17.0  21.5  18.0  94  1020   ---     N     5     5   ---   0.4 Broken Clouds/
24/10/2008 02:50      18.0  16.0  21.0  16.6  88  1021   ---     S     6     6   ---   0.7 Few Clouds/
24/10/2008 03:50      18.0  16.0  21.0  15.5  88  1020   ---   SSE     8     8   ---   0.7 Scattered Clouds/
24/10/2008 04:50      17.0  16.0  20.5  14.3  94  1020   ---   SSW     8     8   ---   0.7 Scattered Clouds/
24/10/2008 05:50      18.0  17.0  21.5  15.5  94  1020   ---    SW     8     8   ---   0.7 Scattered Clouds/
24/10/2008 06:50      19.0  16.0  21.6  19.0  83  1020   ---   ENE     5     5   ---   0.7 Scattered Clouds/
24/10/2008 07:50      19.0  16.0  21.6  19.0  83  1020   ---     N     2     2   ---   0.7 Few Clouds/
24/10/2008 08:50      19.0  16.0  21.6  19.0  83  1021   ---     N     3     3   ---   0.7 Few Clouds/
24/10/2008 09:50      21.0  18.0  23.6  21.0  83  1022   ---     N     5     5   ---   0.7 Few Clouds/
24/10/2008 10:50      22.0  18.0  24.2  21.0  78  1021   ---     N     6     6   ---   0.7 Few Clouds/
24/10/2008 11:50      22.0  18.0  24.2  20.2  78  1022   ---   NNE     8     8   ---   0.7 Few Clouds/
24/10/2008 12:50      23.0  18.0  24.9  23.0  73  1022   ---     N     5     5   ---   0.7 Few Clouds/
24/10/2008 13:50      23.0  18.0  24.9  21.0  73  1021   ---   NNE    10    10   ---   0.7 Few Clouds/
24/10/2008 14:50      23.0  18.0  24.9  19.8  73  1021   ---   NNE    14    14   ---   0.7 Few Clouds/
24/10/2008 15:50      23.0  17.0  24.6  19.8  69  1020   ---    NE    14    14   ---   0.7 Few Clouds/
24/10/2008 16:50      23.0  17.0  24.6  19.4  69  1020   ---    NE    16    16   ---   0.7 Broken Clouds/
24/10/2008 17:50      22.0  17.0  23.9  18.5  73  1021   ---    NE    14    14   ---   0.7 Broken Clouds/
24/10/2008 18:50      22.0  17.0  23.9  18.9  73  1021   ---   ENE    13    13   ---   0.7 Scattered Clouds/
24/10/2008 19:50      21.0  17.0  23.2  19.9  78  1022   ---   ENE     6     6   ---   0.7 Scattered Clouds/
24/10/2008 20:50      21.0  17.0  23.2  21.0  78  1023   ---     N     5     5   ---   0.7 Scattered Clouds/
24/10/2008 21:50      21.0  18.0  23.6  21.0  83  1023   ---     N     5     5   ---   0.7 Scattered Clouds/
24/10/2008 22:50      20.0  17.0  22.6  17.4  83  1023   ---     S    10    10   ---   0.7 Scattered Clouds/
24/10/2008 23:50      19.0  17.0  22.0  17.7  88  1023   ---     S     6     6   ---   0.7 Scattered Clouds/
25/10/2008 00:50      20.0  17.0  22.6  20.0  83  1023   ---     N     5     5   ---   0.7 Scattered Clouds/
25/10/2008 01:50      19.0  16.0  21.6  19.0  83  1022   ---     N     5     5   ---   0.7 Scattered Clouds/
25/10/2008 02:50      19.0  16.0  21.6  19.0  83  1022   ---     N     5     5   ---   0.7 Few Clouds/
25/10/2008 03:50      19.0  16.0  21.6  19.0  83  1022   ---     N     5     5   ---   0.7 Few Clouds/
25/10/2008 04:50      20.0  17.0  22.6  16.4  83  1022   ---   ENE    13    13   ---   0.8 Scattered Clouds/
25/10/2008 05:50      19.0  15.0  21.2  19.0  78  1022   ---     N     5     5   ---   0.8 Scattered Clouds/
25/10/2008 06:50      19.0  16.0  21.6  19.0  83  1022   ---     N     3     3   ---   0.8 Scattered Clouds/
25/10/2008 07:50      19.0  15.0  21.2  19.0  78  1023   ---     N     5     5   ---   1.0 Few Clouds/
25/10/2008 08:50      19.0  16.0  21.6  19.0  83  1023   ---     N     5     5   ---   --- /
25/10/2008 09:50      21.0  17.0  23.2  21.0  78  1023   ---     N     5     5   ---   0.7 Few Clouds/
25/10/2008 10:50      21.0  17.0  23.2  19.9  78  1024   ---   WSW     6     6   ---   0.7 Few Clouds/
25/10/2008 11:50      22.0  17.0  23.9  21.0  73  1024   ---     W     6     6   ---   0.7 Few Clouds/
25/10/2008 12:50      22.0  17.0  23.9  22.0  73  1024   ---     N     5     5   ---   0.7 Few Clouds/
25/10/2008 13:50      22.0  18.0  24.2  20.2  78  1024   ---     N     8     8   ---   0.7 Few Clouds/
25/10/2008 14:50      23.0  18.0  24.9  19.8  73  1023   ---   NNE    14    14   ---   0.7 Few Clouds/
25/10/2008 15:50      23.0  18.0  24.9  19.4  73  1023   ---    NE    16    16   ---   0.7 Few Clouds/
25/10/2008 16:20      23.0  17.0  24.6  18.7  69  1023   ---    NE    21    21   ---   0.7 Few Clouds/
25/10/2008 17:50      22.0  17.0  23.9  18.5  73  1023   ---   ENE    14    14   ---   0.7 Few Clouds/
25/10/2008 18:50      22.0  17.0  23.9  18.9  73  1023   ---   ENE    13    13   ---   0.7 Few Clouds/
25/10/2008 19:50      21.0  17.0  23.2  19.9  78  1024   ---     E     6     6   ---   0.7 Few Clouds/
25/10/2008 20:50      22.0  18.0  24.2  22.0  78  1024   ---     N     3     3   ---   0.7 Few Clouds/
25/10/2008 21:50      21.0  17.0  23.2  21.0  78  1024   ---     N     5     5   ---   0.9 Few Clouds/
25/10/2008 22:50      21.0  17.0  23.2  21.0  78  1024   ---   NNE     2     2   ---   0.9 Few Clouds/
25/10/2008 23:50      19.0  16.0  21.6  19.0  83  1024   ---     N     5     5   ---   0.9 Few Clouds/
26/10/2008 00:50      20.0  16.0  22.2  20.0  78  1024   ---     N     3     3   ---   0.9 Few Clouds/
26/10/2008 01:50      19.0  16.0  21.6  19.0  83  1024   ---     N     2     2   ---   0.9 Few Clouds/
26/10/2008 02:50      19.0  16.0  21.6  19.0  83  1024   ---     N     3     3   ---   0.9 Few Clouds/
26/10/2008 03:50      19.0  16.0  21.6  16.7  83  1023   ---   SSW     8     8   ---   0.9 Few Clouds/
26/10/2008 04:50      20.0  16.0  22.2  17.8  78  1023   ---    SW     8     8   ---   0.9 Few Clouds/
26/10/2008 05:50      20.0  16.0  22.2  15.3  78  1023   ---    SW    16    16   ---   0.9 Few Clouds/
26/10/2008 06:50      20.0  16.0  22.2  15.3  78  1024   ---   SSW    16    16   ---   0.7 Scattered Clouds/
26/10/2008 07:50      19.0  17.0  22.0  14.5  88  1024   ---   SSW    14    14   ---   --- Overcast/ Light Rain
26/10/2008 08:50      19.0  17.0  22.0  14.5  88  1024   ---     S    14    14   ---   --- Overcast/ Light Rain
26/10/2008 09:50      20.0  16.0  22.2  15.1  78  1023   ---   SSE    18    18   ---   0.6 Scattered Clouds/
26/10/2008 10:50      21.0  16.0  22.9  19.0  73  1024   ---   ENE     8     8   ---   0.6 Scattered Clouds/
26/10/2008 11:50      21.0  17.0  23.2  16.7  78  1024   ---    NE    16    16   ---   0.5 Scattered Clouds/
26/10/2008 12:50      22.0  17.0  23.9  17.3  73  1023   ---   ENE    21    21   ---   0.5 Scattered Clouds/
26/10/2008 13:50      22.0  17.0  23.9  18.1  73  1022   ---   ENE    16    16   ---   0.7 Scattered Clouds/
26/10/2008 14:50      21.0  17.0  23.2  16.5  78  1022   ---   NNE    18    18   ---   0.7 Scattered Clouds/
26/10/2008 15:50      21.0  17.0  23.2  17.2  78  1022   ---   NNE    14    14   ---   0.7 Scattered Clouds/
26/10/2008 16:50      21.0  17.0  23.2  17.2  78  1022   ---    NE    14    14   ---   0.7 Scattered Clouds/
26/10/2008 17:50      21.0  17.0  23.2  17.7  78  1022   ---    NE    13    13   ---   0.7 Few Clouds/
26/10/2008 18:50      19.0  16.0  21.6  16.2  83  1022   ---   ENE    10    10   ---   0.7 Few Clouds/
26/10/2008 19:50      19.0  16.0  21.6  16.7  83  1022   ---     E     8     8   ---   0.7 Few Clouds/
26/10/2008 20:50      18.0  13.0  19.8  16.6  73  1023   ---   SSE     6     6   ---   0.7 Few Clouds/
26/10/2008 21:50      18.0  13.0  19.8  15.5  73  1022   ---    SE     8     8   ---   0.7 Few Clouds/
26/10/2008 22:50      17.0  13.0  19.2  14.3  77  1022   ---    SE     8     8   ---   0.7 Few Clouds/
26/10/2008 23:50      16.0  12.0  18.1  13.2  77  1021   ---   SSE     8     8   ---   0.7 Few Clouds/
27/10/2008 00:50      17.0  12.0  18.8  12.5  72  1021   ---   SSE    13    13   ---   0.7 Few Clouds/
27/10/2008 01:50      16.0  12.0  18.1  13.2  77  1021   ---     S     8     8   ---   0.7 Few Clouds/
27/10/2008 02:50      16.0  12.0  18.1  13.2  77  1020   ---     S     8     8   ---   0.7 Few Clouds/
27/10/2008 03:50      18.0  12.0  19.5  18.0  68  1020   ---     N     5     5   ---   0.7 Few Clouds/
27/10/2008 04:50      16.0  12.0  18.1  14.4  77  1020   ---     S     6     6   ---   0.7 Few Clouds/
27/10/2008 05:50      15.0  12.0  17.5  12.0  82  1019   ---     S     8     8   ---   0.7 Few Clouds/
27/10/2008 06:50      15.0  12.0  17.5  12.0  82  1019   ---     S     8     8   ---   --- /
27/10/2008 07:50      16.0  12.0  18.1  14.4  77  1019   ---   SSW     6     6   ---   --- /
27/10/2008 08:50      20.0  14.0  21.5  20.0  68  1019   ---     N     2     2   ---   --- /
27/10/2008 09:50      21.0  15.0  22.5  21.0  69  1020   ---     N     3     3   ---   --- /
27/10/2008 10:50      22.0  14.0  23.0  22.0  61  1020   ---     N     3     3   ---   --- /
27/10/2008 11:50      22.0  15.0  23.3  19.8  65  1019   ---     W    10    10   ---   --- /
27/10/2008 12:50      22.0  15.0  23.3  18.9  65  1018   ---   WNW    13    13   ---   0.6 Few Clouds/
27/10/2008 13:50      22.0  15.0  23.3  21.0  65  1017   ---     N     6     6   ---   0.6 Few Clouds/
27/10/2008 14:50      22.0  15.0  23.3  18.5  65  1017   ---    NE    14    14   ---   0.6 Few Clouds/
27/10/2008 15:50      22.0  15.0  23.3  18.5  65  1016   ---   ENE    14    14   ---   0.6 Few Clouds/
27/10/2008 16:50      21.0  15.0  22.5  17.2  69  1016   ---   ENE    14    14   ---   0.6 Few Clouds/
27/10/2008 17:50      20.0  15.0  21.8  17.4  73  1015   ---   ENE    10    10   ---   0.8 Few Clouds/
27/10/2008 18:50      21.0  15.0  22.5  21.0  69  1016   ---     N     5     5   ---   0.8 Few Clouds/
27/10/2008 19:50      21.0  16.0  22.9  17.7  73  1016   ---    SW    13    13   ---   0.8 Few Clouds/
27/10/2008 20:50      20.0  16.0  22.2  20.0  78  1015   ---     N     5     5   ---   0.8 Few Clouds/
27/10/2008 21:50      20.0  15.0  21.8  18.8  73  1015   ---   WSW     6     6   ---   0.8 Few Clouds/
27/10/2008 22:50      19.0  15.0  21.2  16.7  78  1015   ---   SSW     8     8   ---   0.8 Few Clouds/
27/10/2008 23:50      21.0  15.0  22.5  14.8  69  1016   ---   SSW    31    31   ---   0.8 Few Clouds/
28/10/2008 00:50      21.0  15.0  22.5  16.1  69  1016   ---     S    19    19   ---   0.8 Scattered Clouds/
28/10/2008 01:50      21.0  15.0  22.5  14.0  69  1015   ---     S    43    43   ---   --- Overcast/ Light Rain
28/10/2008 02:50      19.0  14.0  20.8  12.7  73  1013   ---   SSE    23    23   ---   --- Overcast/ Light Rain
28/10/2008 03:50      21.0  12.0  21.8  16.1  56  1012   ---     S    19    19   ---   0.6 Scattered Clouds/
28/10/2008 04:50      20.0  15.0  21.8  14.6  73  1011   ---   SSW    19    19   ---   0.6 Scattered Clouds/
28/10/2008 05:50      23.0  13.0  23.6  18.5  53  1011   ---     S    23    23   ---   0.6 Scattered Clouds/
28/10/2008 06:50      23.0  14.0  23.8  18.0  57  1011   ---   SSW    27    27   ---   1.0 Few Clouds/
28/10/2008 07:50      23.0  15.0  24.1  18.0  61  1011   ---   SSW    27    27   ---   1.0 Few Clouds/
28/10/2008 08:50      26.0  11.0  25.9  22.4  39  1011   ---     S    31    31   ---   1.0 Few Clouds/
28/10/2008 09:50      26.0  11.0  25.9  22.0  39  1011   ---     S    40    40   ---   1.0 Few Clouds/
28/10/2008 10:50      26.0  11.0  25.9  22.3  39  1011   ---     S    32    51   ---   1.0 Scattered Clouds/
28/10/2008 11:50      26.0  11.0  25.9  22.1  39  1009   ---     S    37    55   ---   1.0 Scattered Clouds/
28/10/2008 12:50      25.0  12.0  25.2  20.7  44  1010   ---     S    34    63   ---   1.0 Scattered Clouds/
28/10/2008 13:50      23.0  14.0  23.8  18.9  57  1010   ---   SSW    19    19   ---   0.9 Broken Clouds/
28/10/2008 14:50      19.0  14.0  20.8  11.7  73  1010   ---     S    31    31   ---   0.4 Broken Clouds/
28/10/2008 15:50      22.0  16.0  23.6  18.1  69  1009   ---     S    16    34   ---   0.5 Broken Clouds/
28/10/2008 16:50      24.0  17.0  25.3  19.5  65  1008   ---     S    29    47   ---   0.8 Few Clouds/
28/10/2008 17:50      24.0  15.0  24.8  20.3  57  1008   ---     S    19    55   ---   0.8 Few Clouds/
28/10/2008 18:50      25.0  15.0  25.7  20.4  54  1008   ---     S    40    60   ---   0.8 Few Clouds/
28/10/2008 19:50      24.0  15.0  24.8  19.5  57  1008   ---   SSW    27    58   ---   0.8 Few Clouds/
28/10/2008 20:50      25.0  14.0  25.5  20.5  51  1009   ---     S    37    60   ---   0.8 Few Clouds/
28/10/2008 21:50      25.0  14.0  25.5  20.4  51  1009   ---     S    42    63   ---   0.8 Few Clouds/
28/10/2008 22:50      24.0  14.0  24.6  18.9  54  1009   ---   SSW    40    40   ---   0.8 Few Clouds/
28/10/2008 23:50      25.0  13.0  25.3  20.5  47  1009   ---   SSW    39    56   ---   0.8 Few Clouds/
29/10/2008 00:50      25.0  13.0  25.3  21.6  47  1009   ---    SW    21    21   ---   0.8 Few Clouds/
29/10/2008 01:50      25.0  13.0  25.3  20.5  47  1009   ---   SSW    37    37   ---   0.8 Few Clouds/
29/10/2008 02:50      25.0  14.0  25.5  20.4  51  1008   ---   SSW    42    69   ---   0.8 Few Clouds/
29/10/2008 03:50      24.0  15.0  24.8  18.9  57  1009   ---   SSW    39    60   ---   0.8 Few Clouds/
29/10/2008 04:50      24.0  14.0  24.6  19.2  54  1009   ---   SSW    34    53   ---   0.8 Few Clouds/
29/10/2008 05:50      24.0  16.0  25.1  19.0  61  1009   ---   SSW    37    37   ---   0.8 Few Clouds/
29/10/2008 06:50      24.0  15.0  24.8  18.9  57  1009   ---   SSW    39    39   ---   0.8 Few Clouds/
29/10/2008 07:50      24.0  16.0  25.1  19.2  61  1010   ---     S    34    34   ---   0.8 Few Clouds/
29/10/2008 08:50      25.0  17.0  26.1  20.7  61  1010   ---     S    34    63   ---   --- /
29/10/2008 09:50      26.0  16.0  26.7  22.1  54  1010   ---   SSW    37    37   ---   --- /
29/10/2008 10:50      26.0  17.0  26.9  22.3  58  1010   ---   SSW    32    32   ---   --- /
29/10/2008 11:50      27.0  17.0  27.7  23.9  54  1010   ---     S    31    31   ---   --- /
29/10/2008 12:50      27.0  15.0  27.3  24.0  48  1009   ---   SSW    27    45   ---   --- /
29/10/2008 13:50      27.0  15.0  27.3  23.8  48  1008   ---   SSW    32    56   ---   --- /
29/10/2008 14:50      27.0  15.0  27.3  24.0  48  1008   ---   SSW    29    29   ---   --- /
29/10/2008 15:50      27.0  12.0  26.8  24.3  39  1008   ---     S    23    23   ---   --- /
29/10/2008 16:50      27.0  11.0  26.7  24.0  37  1008   ---     S    27    27   ---   0.9 Scattered Clouds/
29/10/2008 17:50      27.0  10.0  26.6  23.5  34  1008   ---     S    43    68   ---   0.9 Scattered Clouds/
29/10/2008 18:50      26.0  12.0  26.0  21.9  42  1008   ---     S    43    74   ---   0.9 Scattered Clouds/
29/10/2008 19:50      26.0  13.0  26.2  22.0  45  1008   ---     S    40    58   ---   0.9 Scattered Clouds/
29/10/2008 20:50      26.0  13.0  26.2  22.1  45  1008   ---     S    39    64   ---   0.9 Scattered Clouds/
29/10/2008 21:50      24.0  18.0  25.6  19.0  69  1010   ---   WSW    37    56   ---   0.3 Broken Clouds/
29/10/2008 22:50      20.0  16.0  22.2  13.4  78  1011   ---   SSW    29    29   ---   0.6 Scattered Clouds/
29/10/2008 23:50      20.0  17.0  22.6  16.4  83  1012   ---   SSW    13    13   ---   0.5 Scattered Clouds/
30/10/2008 00:20      20.0  17.0  22.6  20.0  83  1011   ---     N     5     5   ---   0.7 Scattered Clouds/
30/10/2008 01:50      21.0  16.0  22.9  16.5  73  1010   ---     W    18    18   ---   0.7 Scattered Clouds/
30/10/2008 02:50      21.0  15.0  22.5  16.5  69  1010   ---     W    18    18   ---   0.7 Scattered Clouds/
30/10/2008 03:50      21.0  15.0  22.5  15.2  69  1010   ---     W    26    26   ---   0.7 Scattered Clouds/
30/10/2008 04:50      21.0  14.0  22.3  15.2  64  1010   ---     W    26    26   ---   0.7 Scattered Clouds/
30/10/2008 05:50      20.0  15.0  21.8  15.1  73  1010   ---   WSW    18    18   ---   0.7 Scattered Clouds/
30/10/2008 06:50      19.0  14.0  20.8  16.7  73  1010   ---   SSW     8     8   ---   0.7 Broken Clouds/
30/10/2008 09:50      20.0  13.0  21.3  15.3  64  1012   ---    SW    16    16   ---   0.7 Broken Clouds/
30/10/2008 10:20      20.0  14.0  21.5  15.9  68  1012   ---    SW    14    14   ---   0.7 Broken Clouds/
30/10/2008 11:50      20.0  14.0  21.5  14.6  68  1012   ---   WSW    19    19   ---   0.7 Broken Clouds/
30/10/2008 12:50      20.0  13.0  21.3  14.6  64  1011   ---   WSW    19    19   ---   0.7 Broken Clouds/
30/10/2008 13:50      20.0  13.0  21.3  13.8  64  1011   ---   WSW    26    26   ---   0.7 Broken Clouds/
30/10/2008 14:50      21.0  12.0  21.8  15.0  56  1012   ---   WSW    27    27   ---   0.9 Broken Clouds/
30/10/2008 15:50      20.0  12.0  21.0  13.4  60  1012   ---   WSW    29    29   ---   0.9 Broken Clouds/
30/10/2008 16:50      20.0  12.0  21.0  14.4  60  1012   ---    SW    21    21   ---   0.9 Few Clouds/
30/10/2008 17:50      20.0  11.0  20.8  13.8  56  1013   ---    SW    26    26   ---   0.9 Scattered Clouds/
30/10/2008 18:50      19.0  10.0  19.8  14.0  56  1014   ---    SW    16    16   ---   0.8 Scattered Clouds/
30/10/2008 19:50      17.0  10.0  18.2  12.5  63  1014   ---   SSE    13    13   ---   0.8 Scattered Clouds/
30/10/2008 20:50      17.0  10.0  18.2  11.9  63  1014   ---   SSE    14    14   ---   0.8 Few Clouds/
30/10/2008 21:50      17.0   9.0  18.0  15.5  59  1014   ---   SSE     6     6   ---   0.8 Few Clouds/
30/10/2008 22:50      17.0   8.0  17.7  17.0  55  1014   ---     N     5     5   ---   0.8 Few Clouds/
30/10/2008 23:50      16.0   8.0  16.9  16.0  59  1014   ---     N     5     5   ---   0.8 Few Clouds/
31/10/2008 00:50      15.0   8.0  16.2  15.0  63  1014   ---     N     5     5   ---   0.7 Few Clouds/
31/10/2008 01:50      16.0   9.0  17.2  12.5  63  1014   ---   ENE    10    10   ---   0.7 Few Clouds/
31/10/2008 02:50      16.0  10.0  17.5  16.0  68  1013   ---     N     5     5   ---   0.7 Scattered Clouds/
31/10/2008 03:50      18.0  11.0  19.2  18.0  64  1013   ---     N     5     5   ---   0.7 Scattered Clouds/
31/10/2008 04:50      18.0  12.0  19.5  18.0  68  1013   ---     N     3     3   ---   0.7 Few Clouds/
31/10/2008 05:50      18.0  12.0  19.5  18.0  68  1013   ---     N     3     3   ---   0.8 Few Clouds/
31/10/2008 06:50      17.0  12.0  18.8  15.5  72  1013   ---     S     6     6   ---   0.8 Few Clouds/
31/10/2008 07:50      18.0  14.0  20.2  18.0  77  1013   ---     N     2     2   ---   --- /
31/10/2008 08:50      20.0  15.0  21.8  20.0  73  1014   ---     N     5     5   ---   --- /
31/10/2008 09:20      21.0  15.0  22.5  21.0  69  1013   ---     N     3     3   ---   --- /
31/10/2008 10:50      22.0  16.0  23.6  20.2  69  1013   ---    NE     8     8   ---   --- /
31/10/2008 11:50      22.0  16.0  23.6  18.9  69  1012   ---    NE    13    13   ---   --- /
31/10/2008 12:50      23.0  17.0  24.6  23.0  69  1011   ---     N     5     5   ---   1.0 Few Clouds/
31/10/2008 13:50      23.0  17.0  24.6  23.0  69  1011   ---     N     5     5   ---   1.0 Few Clouds/
31/10/2008 14:50      25.0  13.0  25.3  22.1  47  1010   ---     S    16    16   ---   1.0 Few Clouds/
31/10/2008 15:50      23.0  16.0  24.3  19.2  65  1009   ---   ENE    18    18   ---   1.0 Overcast/
31/10/2008 16:50      23.0  15.0  24.1  21.3  61  1008   ---   ENE     8     8   ---   0.9 Few Clouds/
31/10/2008 17:50      24.0  13.0  24.5  24.0  50  1008   ---     N     2     2   ---   0.9 Few Clouds/
31/10/2008 18:50      24.0  15.0  24.8  23.2  57  1006   ---     N     6     6   ---   0.9 Few Clouds/
31/10/2008 19:50      31.0   6.0  29.1  29.8  21  1004   ---   SSE    58    82   ---   0.9 Few Clouds/
31/10/2008 20:50      30.0   6.0  28.3  28.2  22  1005   ---     S    55    90   ---   0.9 Few Clouds/
31/10/2008 21:50      27.0  13.0  27.0  23.5  42  1006   ---   SSW    43    77   ---   0.9 Few Clouds/
31/10/2008 22:50      26.0  16.0  26.7  21.8  54  1006   ---     S    50    88   ---   0.9 Few Clouds/
31/10/2008 23:50      24.0  16.0  25.1  18.8  61  1008   ---    SW    42    42   ---   0.9 Few Clouds/
01/11/2008 00:50      22.0  16.0  23.6  15.9  69   ---   ---   WSW    37    37   ---   0.9 Few Clouds/
01/11/2008 01:50      21.0  14.0  22.3  15.0  64   ---   ---   SSW    27    27   ---   0.9 Few Clouds/
01/11/2008 02:50      20.0  13.0  21.3  14.6  64   ---   ---   SSW    19    19   ---   0.7 Few Clouds/
01/11/2008 03:50      20.0  11.0  20.8  14.4  56   ---   ---   SSW    21    21   ---   0.7 Few Clouds/
01/11/2008 04:50      19.0  11.0  20.0  11.9  60   ---   ---     S    29    29   ---   0.9 Few Clouds/
01/11/2008 05:50      20.0  10.0  20.6  17.4  53   ---   ---   SSE    10    29   ---   0.9 Few Clouds/
01/11/2008 06:50      19.0  10.0  19.8  14.0  56   ---   ---     S    16    16   ---   0.9 Few Clouds/
01/11/2008 07:50      20.0  11.0  20.8  14.2  56   ---   ---   SSW    23    23   ---   0.9 Few Clouds/
01/11/2008 08:50      21.0  12.0  21.8  15.8  56  1014   ---   SSW    21    21   ---   0.9 Few Clouds/
01/11/2008 09:50      22.0  13.0  22.8  16.5  57  1015   ---   SSW    27    27   ---   0.7 Scattered Clouds/
01/11/2008 10:50      23.0  14.0  23.8  17.6  57  1015   ---    SW    34    34   ---   0.7 Scattered Clouds/
01/11/2008 11:50      23.0  13.0  23.6  17.4  53  1015   ---    SW    37    37   ---   0.7 Scattered Clouds/
01/11/2008 12:50      23.0  13.0  23.6  17.3  53  1014   ---   SSW    40    40   ---   0.7 Scattered Clouds/
01/11/2008 13:50      23.0  13.0  23.6  17.4  53  1014   ---   SSW    39    39   ---   0.7 Few Clouds/
01/11/2008 14:50      23.0  14.0  23.8  17.4  57  1014   ---   SSW    39    39   ---   0.7 Few Clouds/
01/11/2008 15:50      23.0  13.0  23.6  17.4  53  1014   ---   SSW    37    37   ---   0.7 Few Clouds/
01/11/2008 16:20      22.0  14.0  23.0  16.7  61  1014   ---   SSW    26    26   ---   --- /
01/11/2008 17:50      20.0  13.0  21.3  14.6  64  1016   ---   SSW    19    19   ---   --- /
01/11/2008 18:50      20.0  14.0  21.5  14.6  68  1016   ---    SW    19    19   ---   --- /
01/11/2008 19:50      19.0  13.0  20.5  14.0  68  1017   ---     S    16    16   ---   --- /
01/11/2008 20:50      19.0  13.0  20.5  12.0  68  1017   ---   SSW    27    27   ---   --- /
01/11/2008 21:50      19.0  14.0  20.8  14.0  73  1017   ---    SW    16    16   ---   --- /
01/11/2008 22:50      18.0  13.0  19.8  12.6  73  1018   ---     S    16    16   ---   --- /
01/11/2008 23:50      17.0  11.0  18.5  11.9  68  1018   ---     S    14    14   ---   --- /
02/11/2008 00:50      20.0  12.0  21.0  14.4  60  1018   ---   SSE    21    21   ---   --- /
02/11/2008 01:50      20.0  12.0  21.0  15.3  60  1017   ---   SSE    16    16   ---   --- /
02/11/2008 02:50      20.0  10.0  20.6  20.0  53  1018   ---     N     3     3   ---   --- /
02/11/2008 03:50      19.0  10.0  19.8  19.0  56  1017   ---     N     2     2   ---   --- /
02/11/2008 04:50      18.0  13.0  19.8  18.0  73  1017   ---     N     3     3   ---   --- /
02/11/2008 05:50      18.0  13.0  19.8  18.0  73  1017   ---     N     5     5   ---   --- /
02/11/2008 06:50      18.0   9.0  18.8  15.5  56  1017   ---   SSE     8     8   ---   --- /
02/11/2008 07:50      21.0   9.0  21.3  19.0  46  1018   ---   SSE     8     8   ---   --- /
02/11/2008 08:50      23.0   8.0  22.9  23.0  38  1018   ---   SSE     3     3   ---   --- /
02/11/2008 09:50      25.0   9.0  24.8  24.3  36  1018   ---     S     6     6   ---   --- /
02/11/2008 10:50      24.0  10.0  24.0  21.5  41  1018   ---   ENE    13    13   ---   --- /
02/11/2008 11:50      25.0   7.0  24.6  22.8  32  1018   ---   ENE    13    13   ---   --- /
02/11/2008 12:50      24.0  14.0  24.6  21.5  54  1017   ---   ENE    13    13   ---   --- /
02/11/2008 13:50      24.0  14.0  24.6  20.3  54  1017   ---   ENE    19    19   ---   --- /
02/11/2008 14:50      24.0  17.0  25.3  22.5  65  1017   ---    NE     8     8   ---   --- /
02/11/2008 15:50      24.0  15.0  24.8  22.2  57  1017   ---   ENE    10    10   ---   --- /
02/11/2008 16:50      23.0  17.0  24.6  21.3  69  1016   ---    NE     8     8   ---   --- /
02/11/2008 17:50      23.0  13.0  23.6  21.3  53  1016   ---   ENE     8     8   ---   --- /
02/11/2008 18:50      20.0  13.0  21.3  20.0  64  1016   ---     N     3     3   ---   --- /
02/11/2008 19:50      20.0  13.0  21.3  17.8  64  1016   ---     S     8     8   ---   --- /
02/11/2008 20:50      21.0  13.0  22.0  17.7  60  1016   ---    SW    13    13   ---   --- /
02/11/2008 21:50      22.0  13.0  22.8  16.7  57  1016   ---   SSW    26    26   ---   --- /
02/11/2008 22:50      23.0  13.0  23.6  18.5  53  1016   ---   WSW    23    23   ---   --- /
02/11/2008 23:50      23.0  11.0  23.3  22.1  47  1016   ---   SSW     6     6   ---   --- /
03/11/2008 00:50      21.0  13.0  22.0  21.0  60  1015   ---    NE     2     2   ---   --- /
03/11/2008 01:50      22.0  12.0  22.6  22.0  53  1015   ---     E     3     3   ---   --- /
03/11/2008 02:50      22.0  11.0  22.4  18.5  50  1015   ---   ESE    14    14   ---   --- /
03/11/2008 03:50      23.0  10.0  23.1  23.0  44  1015   ---     N     2     2   ---   --- /
03/11/2008 04:50      20.0  13.0  21.3  20.0  64  1015   ---     N     5     5   ---   --- /
03/11/2008 05:50      20.0  12.0  21.0  18.8  60  1015   ---     S     6     6   ---   --- /
03/11/2008 06:50      19.0  12.0  20.2  16.2  64  1015   ---     S    10    10   ---   --- /
03/11/2008 07:50      22.0  13.0  22.8  17.1  57  1017   ---     S    23    23   ---   --- /
03/11/2008 08:50      23.0  13.0  23.6  20.2  53  1017   ---     S    13    13   ---   --- /
03/11/2008 10:50      24.0  16.0  25.1  20.3  61  1017   ---    SW    19    19   ---   --- /
03/11/2008 11:50      24.0  16.0  25.1  20.8  61  1017   ---    NE    16    16   ---   --- /
03/11/2008 12:50      23.0  17.0  24.6  19.4  69  1016   ---   ENE    16    16   ---   --- /
03/11/2008 13:50      23.0  18.0  24.9  19.2  73  1015   ---    NE    18    18   ---   1.5 Scattered Clouds/
03/11/2008 14:50      23.0  18.0  24.9  22.1  73  1016   ---   ENE     6     6   ---   1.5 Scattered Clouds/
03/11/2008 15:50      26.0  12.0  26.0  22.5  42  1016   ---     S    27    51   ---   1.2 Scattered Clouds/
03/11/2008 16:50      27.0  11.0  26.7  24.0  37  1015   ---     S    27    45   ---   1.2 Scattered Clouds/
03/11/2008 17:50      27.0  10.0  26.6  24.1  34  1016   ---     S    26    26   ---   1.2 Scattered Clouds/
03/11/2008 18:50      26.0  10.0  25.8  23.5  37  1015   ---   SSE    16    16   ---   1.2 Scattered Clouds/
03/11/2008 19:50      24.0  14.0  24.6  19.7  54  1016   ---    SW    26    26   ---   1.2 Scattered Clouds/
03/11/2008 20:50      26.0  11.0  25.9  22.5  39  1017   ---     S    27    27   ---   1.2 Scattered Clouds/
03/11/2008 21:50      24.0  12.0  24.3  22.2  47  1017   ---   SSW    10    10   ---   1.2 Scattered Clouds/
03/11/2008 22:50      23.0  17.0  24.6  21.0  69  1017   ---     W    10    10   ---   1.2 Scattered Clouds/
03/11/2008 23:50      22.0  17.0  23.9  18.1  73  1018   ---   ENE    16    16   ---   1.2 Scattered Clouds/
04/11/2008 00:50      23.0  15.0  24.1  18.2  61  1016   ---   ENE    26    26   ---   1.2 Scattered Clouds/
04/11/2008 01:50      23.0  14.0  23.8  18.0  57  1016   ---     E    27    27   ---   1.2 Scattered Clouds/
04/11/2008 02:50      24.0  13.0  24.5  19.5  50  1015   ---     E    29    29   ---   1.2 Scattered Clouds/
04/11/2008 03:50      25.0  12.0  25.2  20.1  44  1014   ---     E    51    51   ---   1.2 Scattered Clouds/
04/11/2008 04:50      25.0  12.0  25.2  20.3  44  1013   ---     E    43    43   ---   --- /
04/11/2008 05:50      24.0  13.0  24.5  20.1  50  1013   ---    NE    21    21   ---   --- /
04/11/2008 06:50      25.0  13.0  25.3  25.0  47  1012   ---     N     2     2   ---   --- /
04/11/2008 07:50      24.0  14.0  24.6  24.0  54  1012   ---     N     3     3   ---   --- /
04/11/2008 08:50      30.0   5.0  28.3  29.0  21  1012   ---     S    14    50   ---   --- /
04/11/2008 09:50      30.0   6.0  28.3  28.9  22  1012   ---     S    18    50   ---   --- /
04/11/2008 10:50      27.0  11.0  26.7  24.3  37  1013   ---    SW    23    23   ----3274-32741.2 Broken Clouds/
04/11/2008 11:50      29.0  10.0  27.9  27.0  31  1013   ---     S    29    50   ---   --- /
04/11/2008 12:50      28.0  12.0  27.5  25.4  37  1013   ---     S    31    31   ---   --- /
04/11/2008 13:50      27.0  16.0  27.5  23.6  51  1013   ---     S    42    63   ---   --- /
04/11/2008 14:50      27.0  17.0  27.7  23.9  54  1013   ---     S    31    56   ---   0.8 Few Clouds/
04/11/2008 15:50      26.0  16.0  26.7  22.2  54  1014   ---   SSW    34    34   ---   0.8 Few Clouds/
04/11/2008 16:50      25.0  15.0  25.7  21.0  54  1014   ---     S    27    27   ---   0.8 Few Clouds/
04/11/2008 17:50      23.0  12.0  23.4  18.9  50  1014   ---     S    19    19   ---   0.8 Few Clouds/
04/11/2008 18:50      24.0  11.0  24.1  20.3  44  1015   ---     S    19    19   ---   0.8 Few Clouds/
04/11/2008 19:50      24.0  10.0  24.0  19.7  41  1015   ---     S    26    26   ---   0.8 Few Clouds/
04/11/2008 20:50      23.0  12.0  23.4  19.2  50  1016   ---   SSW    18    18   ---   0.8 Few Clouds/
04/11/2008 21:50      22.0  14.0  23.0  17.3  61  1016   ---    SW    21    21   ---   0.7 Scattered Clouds/
04/11/2008 22:50      22.0  12.0  22.6  17.9  53  1017   ---   SSW    18    18   ---   0.7 Scattered Clouds/
04/11/2008 23:50      22.0  13.0  22.8  18.1  57  1017   ---    SW    16    16   ---   0.7 Scattered Clouds/
05/11/2008 00:50      22.0  14.0  23.0  17.9  61  1017   ---   SSW    18    18   ---   0.7 Scattered Clouds/
05/11/2008 01:50      22.0  15.0  23.3  17.5  65  1017   ---   SSW    19    19   ---   0.7 Scattered Clouds/
05/11/2008 02:50      22.0  15.0  23.3  17.3  65  1017   ---     S    21    21   ---   0.7 Scattered Clouds/
05/11/2008 03:50      22.0  15.0  23.3  17.3  65  1017   ---     S    21    21   ---   0.7 Scattered Clouds/
05/11/2008 04:50      22.0  15.0  23.3  19.8  65  1017   ---   SSW    10    10   ---   0.7 Scattered Clouds/
05/11/2008 05:50      20.0  15.0  21.8  15.9  73  1017   ---   SSW    14    14   ---   0.7 Scattered Clouds/
05/11/2008 06:50      20.0  14.0  21.5  17.4  68  1017   ---   SSW    10    10   ---   0.8 Broken Clouds/
05/11/2008 07:50      21.0  14.0  22.3  16.7  64  1018   ---   SSW    16    16   ---   0.8 Broken Clouds/
05/11/2008 08:50      21.0  15.0  22.5  16.7  69  1018   ---    SW    16    16   ---   0.9 Scattered Clouds/
05/11/2008 09:50      21.0  16.0  22.9  16.1  73  1018   ---   WSW    19    19   ---   0.9 Scattered Clouds/
05/11/2008 10:50      21.0  15.0  22.5  15.8  69  1018   ---   WSW    21    21   ---   0.9 Scattered Clouds/
05/11/2008 11:50      22.0  15.0  23.3  17.5  65  1017   ---   WSW    19    19   ---   0.8 Scattered Clouds/
05/11/2008 12:50      23.0  13.0  23.6  18.2  53  1017   ---   WSW    26    26   ---   0.8 Scattered Clouds/
05/11/2008 13:50      21.0  16.0  22.9  15.2  73  1016   ---   WNW    26    26   ---   0.8 Few Clouds/
05/11/2008 14:50      21.0  16.0  22.9  16.1  73  1016   ---   WNW    19    19   ---   0.6 Few Clouds/
05/11/2008 15:50      21.0  15.0  22.5  17.7  69  1016   ---    NW    13    13   ---   0.6 Scattered Clouds/
05/11/2008 16:50      21.0  15.0  22.5  17.7  69  1016   ---    NW    13    13   ---   0.6 Scattered Clouds/
05/11/2008 17:50      21.0  15.0  22.5  19.9  69  1017   ---   WNW     6     6   ---   0.6 Scattered Clouds/
05/11/2008 18:50      21.0  14.0  22.3  19.9  64  1017   ---   NNW     6     6   ---   0.6 Scattered Clouds/
05/11/2008 19:50      21.0  14.0  22.3  19.0  64  1017   ---   NNW     8     8   ---   0.7 Scattered Clouds/
05/11/2008 20:50      21.0  13.0  22.0  21.0  60  1017   ---     N     5     5   ---   0.7 Scattered Clouds/
05/11/2008 21:50      20.0  13.0  21.3  18.8  64  1017   ---     W     6     6   ---   0.7 Scattered Clouds/
05/11/2008 22:50      19.0  13.0  20.5  17.7  68  1017   ---     S     6     6   ---   0.7 Scattered Clouds/
05/11/2008 23:50      17.0  12.0  18.8  14.3  72  1017   ---     S     8     8   ---   0.7 Scattered Clouds/
06/11/2008 00:50      17.0  12.0  18.8  13.8  72  1016   ---   SSE    10    10   ---   0.7 Scattered Clouds/
06/11/2008 01:50      17.0  12.0  18.8  14.3  72  1016   ---   SSE     8     8   ---   0.7 Few Clouds/
06/11/2008 02:50      17.0  12.0  18.8  17.0  72  1015   ---     N     5     5   ---   0.7 Few Clouds/
06/11/2008 03:50      17.0  12.0  18.8  17.0  72  1015   ---     N     2     2   ---   0.7 Few Clouds/
06/11/2008 04:50      17.0  14.0  19.5  17.0  83  1015   ---     N     5     5   ---   0.7 Few Clouds/
06/11/2008 05:50      16.0  13.0  18.5  12.5  82  1015   ---   SSW    10    10   ---   0.8 Scattered Clouds/
06/11/2008 06:50      17.0  13.0  19.2  12.5  77  1015   ---   SSE    13    13   ---   0.5 Scattered Clouds/
06/11/2008 07:50      17.0  13.0  19.2  14.3  77  1015   ---     S     8     8   ---   0.7 Scattered Clouds/
06/11/2008 08:50      18.0  14.0  20.2  16.6  77  1015   ---     S     6     6   ---   0.7 Scattered Clouds/
06/11/2008 09:50      19.0  14.0  20.8  17.7  73  1015   ---    SW     6     6   ---   0.7 Scattered Clouds/
06/11/2008 10:50      20.0  12.0  21.0  17.8  60  1016   ---   WNW     8     8   ---   0.7 Broken Clouds/
06/11/2008 11:50      20.0  11.0  20.8  16.4  56  1015   ---    NW    13    13   ---   0.7 Scattered Clouds/
06/11/2008 12:50      20.0  11.0  20.8  17.4  56  1015   ---    NW    10    10   ---   0.7 Scattered Clouds/
06/11/2008 13:50      20.0  11.0  20.8  17.4  56  1014   ---    NW    10    10   ---   0.7 Few Clouds/
06/11/2008 14:50      20.0  13.0  21.3  15.1  64  1015   ---   NNW    18    18   ---   1.0 Scattered Clouds/
06/11/2008 15:50      20.0  12.0  21.0  15.1  60  1015   ---    NW    18    18   ---   1.0 Scattered Clouds/
06/11/2008 16:50      20.0  12.0  21.0  15.9  60  1015   ---   NNW    14    14   ---   0.9 Scattered Clouds/
06/11/2008 17:50      19.0  13.0  20.5  12.7  68  1015   ---   NNW    23    23   ---   0.9 Scattered Clouds/
06/11/2008 18:50      19.0  11.0  20.0  13.7  60  1015   ---   NNW    18    18   ---   0.6 Scattered Clouds/
06/11/2008 19:50      19.0  12.0  20.2  15.1  64  1015   ---     N    13    13   ---   0.6 Scattered Clouds/
06/11/2008 20:50      19.0  11.0  20.0  16.7  60  1016   ---   NNW     8     8   ---   0.6 Scattered Clouds/
06/11/2008 21:50      19.0  11.0  20.0  16.2  60  1016   ---   NNW    10    10   ---   0.6 Scattered Clouds/
06/11/2008 22:50      19.0  11.0  20.0  16.7  60  1015   ---   SSE     8     8   ---   0.6 Scattered Clouds/
06/11/2008 23:50      16.0  10.0  17.5  12.5  68  1015   ---   SSE    10    10   ---   0.6 Scattered Clouds/
07/11/2008 00:50      15.0  10.0  16.8  10.0  72  1015   ---     S    13    13   ---   0.6 Scattered Clouds/
07/11/2008 01:50      16.0  11.0  17.8  12.5  72  1015   ---     S    10    10   ---   0.6 Few Clouds/
07/11/2008 02:50      16.0  11.0  17.8  11.3  72  1014   ---     S    13    13   ---   0.7 Few Clouds/
07/11/2008 03:50      15.0  11.0  17.1  10.0  77  1014   ---     S    13    13   ---   0.7 Few Clouds/
07/11/2008 04:20      16.0  10.0  17.5  11.3  68  1014   ---     S    13    13   ---   0.7 Few Clouds/
07/11/2008 05:50      15.0  10.0  16.8   9.3  72  1014   ---   SSE    14    14   ---   0.7 Few Clouds/
07/11/2008 06:50      15.0  10.0  16.8   8.6  72  1014   ---   SSE    16    16   ---   0.7 Few Clouds/
07/11/2008 07:50      16.0  10.0  17.5  11.3  68  1014   ---     S    13    13   ---   0.7 Few Clouds/
07/11/2008 08:50      18.0  11.0  19.2  13.8  64  1015   ---   SSW    13    13   ---   0.7 Scattered Clouds/
07/11/2008 09:50      16.0  12.0  18.1  12.5  77  1016   ---     S    10    10   ---   0.7 Scattered Clouds/
07/11/2008 10:50      18.0  12.0  19.5  12.6  68  1016   ---   SSW    16    16   ---   0.7 Scattered Clouds/
07/11/2008 11:50      19.0  12.0  20.2  14.0  64  1016   ---    SW    16    16   ---   0.9 Few Clouds/
07/11/2008 12:50      19.0  12.0  20.2  15.1  64  1016   ---     W    13    13   ---   0.9 Scattered Clouds/
07/11/2008 13:50      18.0  11.0  19.2  10.4  64  1016   ---     W    29    29   ---   0.7 Scattered Clouds/
07/11/2008 14:50      20.0  12.0  21.0  14.4  60  1016   ---     W    21    21   ---   0.7 Scattered Clouds/
07/11/2008 15:50      19.0  12.0  20.2  12.7  64  1016   ---     W    23    23   ---   0.9 Scattered Clouds/
07/11/2008 16:50      19.0  12.0  20.2  13.2  64  1017   ---     W    19    19   ---   0.9 Scattered Clouds/
07/11/2008 17:50      19.0  12.0  20.2  13.0  64  1017   ---   WNW    21    21   ---   0.9 Scattered Clouds/
07/11/2008 18:50      19.0  13.0  20.5  12.7  68  1018   ---    NW    23    23   ---   0.9 Scattered Clouds/
07/11/2008 19:50      19.0  12.0  20.2  13.7  64  1019   ---   NNW    18    18   ---   0.9 Scattered Clouds/
07/11/2008 20:50      19.0  11.0  20.0  14.5  60  1019   ---    NW    14    14   ---   0.9 Scattered Clouds/
07/11/2008 21:50      19.0  11.0  20.0  16.2  60  1020   ---   NNW    10    10   ---   0.9 Scattered Clouds/
07/11/2008 22:50      17.0  11.0  18.5  17.0  68  1020   ---     N     5     5   ---   0.9 Scattered Clouds/
07/11/2008 23:50      17.0  12.0  18.8  17.0  72  1020   ---     N     5     5   ---   0.9 Scattered Clouds/
08/11/2008 00:50      17.0  12.0  18.8  17.0  72  1020   ---     N     5     5   ---   0.9 Few Clouds/
08/11/2008 01:50      16.0  11.0  17.8  12.5  72  1021   ---     S    10    10   ---   0.9 Few Clouds/
08/11/2008 02:50      15.0  11.0  17.1  11.3  77  1021   ---     S    10    10   ---   0.9 Few Clouds/
08/11/2008 03:50      14.0  11.0  16.5  10.1  82  1021   ---     S    10    10   ---   0.9 Few Clouds/
08/11/2008 04:50      14.0  10.0  16.1   8.7  77  1021   ---   SSE    13    13   ---   0.9 Few Clouds/
08/11/2008 05:50      14.0  10.0  16.1  10.1  77  1022   ---     S    10    10   ---   0.9 Few Clouds/
08/11/2008 06:50      14.0  10.0  16.1   8.7  77  1022   ---     S    13    13   ---   0.9 Few Clouds/
08/11/2008 07:50      15.0  10.0  16.8  10.0  72  1023   ---   SSE    13    13   ---   0.9 Few Clouds/
08/11/2008 08:50      18.0  12.0  19.5  15.5  68  1023   ---     S     8     8   ---   0.9 Few Clouds/
08/11/2008 09:50      19.0  11.0  20.0  19.0  60  1024   ---     N     5     5   ---   0.8 Few Clouds/
08/11/2008 10:50      20.0  11.0  20.8  20.0  56  1024   ---     N     5     5   ---   0.8 Few Clouds/
08/11/2008 11:50      20.0  11.0  20.8  18.8  56  1024   ---   NNW     6     6   ---   0.8 Few Clouds/
08/11/2008 12:50      20.0  11.0  20.8  17.8  56  1023   ---     N     8     8   ---   0.8 Few Clouds/
08/11/2008 13:50      20.0  11.0  20.8  17.4  56  1023   ---     N    10    10   ---   0.8 Few Clouds/
08/11/2008 14:50      20.0  12.0  21.0  16.4  60  1023   ---    NE    13    13   ---   0.8 Few Clouds/
08/11/2008 15:50      20.0  12.0  21.0  15.9  60  1024   ---   NNE    14    14   ---   0.8 Few Clouds/
08/11/2008 16:50      19.0  12.0  20.2  15.1  64  1024   ---   NNE    13    13   ---   0.8 Few Clouds/
08/11/2008 17:50      17.0  11.0  18.5  13.8  68  1024   ---     E    10    10   ---   0.8 Few Clouds/
08/11/2008 18:50      17.0  11.0  18.5  14.3  68  1025   ---     E     8     8   ---   0.8 Few Clouds/
08/11/2008 19:50      17.0  11.0  18.5  13.8  68  1025   ---     E    10    10   ---   0.8 Few Clouds/
08/11/2008 20:50      17.0  11.0  18.5  14.3  68  1026   ---     E     8     8   ---   0.8 Few Clouds/
08/11/2008 21:50      17.0  11.0  18.5  17.0  68  1026   ---     E     5     5   ---   --- /
08/11/2008 22:50      16.0  11.0  17.8  14.4  72  1026   ---     E     6     6   ---   --- /
08/11/2008 23:50      16.0  11.0  17.8  16.0  72  1026   ---     E     3     3   ---   --- /
09/11/2008 00:50      16.0  11.0  17.8  14.4  72  1026   ---   SSE     6     6   ---   --- /
09/11/2008 01:50      16.0  11.0  17.8  16.0  72  1026   ---     S     3     3   ---   --- /
09/11/2008 02:50      16.0  11.0  17.8  16.0  72  1026   ---     S     5     5   ---   --- /
09/11/2008 03:50      15.0  11.0  17.1  15.0  77  1026   ---     N     5     5   ---   --- /
09/11/2008 04:50      15.0  10.0  16.8  12.0  72  1026   ---     S     8     8   ---   --- /
09/11/2008 05:50      16.0  11.0  17.8  14.4  72  1027   ---     S     6     6   ---   --- /
09/11/2008 06:50      14.0  10.0  16.1  12.3  77  1027   ---     S     6     6   ---   0.7 Scattered Clouds/
09/11/2008 07:50      15.0  12.0  17.5  13.3  82  1028   ---   SSE     6     6   ---   0.7 Few Clouds/
09/11/2008 08:50      18.0  13.0  19.8  18.0  73  1028   ---     N     2     2   ---   0.7 Few Clouds/
09/11/2008 09:20      18.0  12.0  19.5  16.6  68  1028   ---    SW     6     6   ---   0.7 Few Clouds/
09/11/2008 10:50      19.0  13.0  20.5  19.0  68  1029   ---     N     3     3   ---   0.7 Few Clouds/
09/11/2008 11:50      20.0  14.0  21.5  18.8  68  1028   ---     W     6     6   ---   0.7 Few Clouds/
09/11/2008 12:50      20.0  12.0  21.0  15.9  60  1028   ---    NE    14    14   ---   0.7 Few Clouds/
09/11/2008 13:50      20.0  12.0  21.0  15.1  60  1027   ---    NE    18    18   ---   0.7 Few Clouds/
09/11/2008 14:50      21.0  12.0  21.8  16.1  56  1027   ---    NE    19    19   ---   0.8 Few Clouds/
09/11/2008 15:50      20.0  13.0  21.3  14.6  64  1027   ---    NE    19    19   ---   0.8 Few Clouds/
09/11/2008 16:50      19.0  12.0  20.2  12.7  64  1027   ---   ENE    23    23   ---   0.8 Few Clouds/
09/11/2008 17:50      18.0  12.0  19.5  12.6  68  1028   ---   ENE    16    16   ---   0.8 Few Clouds/
09/11/2008 18:50      17.0  12.0  18.8  11.3  72  1028   ---   ENE    16    16   ---   0.8 Few Clouds/
09/11/2008 19:50      17.0  11.0  18.5  11.9  68  1028   ---   ENE    14    14   ---   0.8 Few Clouds/
09/11/2008 20:50      17.0  11.0  18.5  11.9  68  1029   ---     E    14    14   ---   0.8 Few Clouds/
09/11/2008 21:50      17.0  10.0  18.2  17.0  63  1029   ---     N     5     5   ---   0.8 Few Clouds/
09/11/2008 22:50      17.0  10.0  18.2  14.3  63  1029   ---   ENE     8     8   ---   0.8 Few Clouds/
09/11/2008 23:50      17.0  12.0  18.8  12.5  72  1029   ---    NE    13    13   ---   0.8 Few Clouds/
10/11/2008 00:50      17.0  12.0  18.8  17.0  72  1029   ---     N     5     5   ---   0.8 Few Clouds/
10/11/2008 01:50      16.0  11.0  17.8  16.0  72  1028   ---     N     2     2   ---   0.8 Few Clouds/
10/11/2008 02:50      16.0  11.0  17.8  16.0  72  1028   ---     N     2     2   ---   0.9 Few Clouds/
10/11/2008 03:50      16.0  12.0  18.1  13.2  77  1028   ---    SW     8     8   ---   0.9 Few Clouds/
10/11/2008 04:50      15.0  11.0  17.1  12.0  77  1028   ---   WSW     8     8   ---   0.9 Few Clouds/
10/11/2008 05:50      16.0  12.0  18.1  16.0  77  1028   ---   WSW     5     5   ---   0.9 Few Clouds/
10/11/2008 06:50      16.0  13.0  18.5  16.0  82  1028   ---     E     5     5   ---   0.9 Few Clouds/
10/11/2008 07:50      16.0  12.0  18.1  16.0  77  1028   ---     N     3     3   ---   0.6 Few Clouds/
10/11/2008 08:50      18.0  13.0  19.8  13.2  73  1029   ---     E    14    14   ---   0.6 Scattered Clouds/
10/11/2008 09:50      19.0  13.0  20.5  16.7  68  1029   ---     E     8     8   ---   0.6 Scattered Clouds/
10/11/2008 10:50      20.0  13.0  21.3  16.4  64  1029   ---     E    13    13   ---   0.7 Few Clouds/
10/11/2008 11:50      20.0  12.0  21.0  15.9  60  1029   ---    NE    14    14   ---   0.7 Few Clouds/
10/11/2008 12:50      20.0  11.0  20.8  15.1  56  1028   ---    NE    18    18   ---   0.7 Few Clouds/
10/11/2008 13:50      20.0  12.0  21.0  15.1  60  1027   ---    NE    18    18   ---   0.7 Few Clouds/
10/11/2008 14:50      20.0  12.0  21.0  14.6  60  1027   ---    NE    19    19   ---   0.7 Few Clouds/
10/11/2008 15:50      20.0  12.0  21.0  15.1  60  1027   ---    NE    18    18   ---   0.7 Few Clouds/
10/11/2008 16:50      19.0  11.0  20.0  13.7  60  1027   ---    NE    18    18   ---   0.7 Few Clouds/
10/11/2008 17:50      18.0  11.0  19.2  13.2  64  1027   ---   ENE    14    14   ---   0.7 Few Clouds/
10/11/2008 18:50      18.0  11.0  19.2  13.8  64  1027   ---     E    13    13   ---   0.7 Few Clouds/
10/11/2008 19:50      18.0  11.0  19.2  12.6  64  1027   ---     E    16    16   ---   0.7 Few Clouds/
10/11/2008 20:50      17.0  11.0  18.5  12.5  68  1027   ---   ENE    13    13   ---   0.7 Few Clouds/
10/11/2008 21:50      17.0  11.0  18.5  13.8  68  1027   ---     E    10    10   ---   0.7 Few Clouds/
10/11/2008 22:50      17.0  11.0  18.5  13.8  68  1027   ---     E    10    10   ---   0.7 Few Clouds/
10/11/2008 23:50      16.0  10.0  17.5  12.5  68  1026   ---     E    10    10   ---   0.7 Few Clouds/
11/11/2008 00:50      16.0  10.0  17.5  13.2  68  1026   ---     E     8     8   ---   0.7 Few Clouds/
11/11/2008 01:50      15.0  10.0  16.8  15.0  72  1026   ---     N     5     5   ---   0.7 Few Clouds/
11/11/2008 02:50      15.0  11.0  17.1  13.3  77  1025   ---   SSW     6     6   ---   0.7 Few Clouds/
11/11/2008 03:50      14.0  10.0  16.1  12.3  77  1025   ---     S     6     6   ---   0.7 Few Clouds/
11/11/2008 04:50      14.0  10.0  16.1  12.3  77  1024   ---     S     6     6   ---   0.7 Few Clouds/
11/11/2008 05:50      14.0  11.0  16.5  14.0  82  1024   ---     N     5     5   ---   0.7 Few Clouds/
11/11/2008 06:50      14.0  11.0  16.5  12.3  82  1024   ---    SE     6     6   ---   0.7 Few Clouds/
11/11/2008 07:50      15.0  11.0  17.1  15.0  77  1025   ---     N     3     3   ---   0.7 Few Clouds/
11/11/2008 08:50      17.0  13.0  19.2  17.0  77  1025   ---     N     5     5   ---   0.8 Few Clouds/
11/11/2008 09:50      18.0  13.0  19.8  18.0  73  1025   ---     N     3     3   ---   0.8 Few Clouds/
11/11/2008 10:50      19.0  13.0  20.5  19.0  68  1025   ---     N     5     5   ---   0.8 Few Clouds/
11/11/2008 11:50      19.0  12.0  20.2  16.2  64  1024   ---     N    10    10   ---   0.8 Few Clouds/
11/11/2008 12:50      20.0  11.0  20.8  15.9  56  1023   ---   NNE    14    14   ---   0.8 Few Clouds/
11/11/2008 13:50      20.0  11.0  20.8  15.3  56  1023   ---   NNE    16    16   ---   --- /
11/11/2008 14:50      20.0  11.0  20.8  15.3  56  1022   ---    NE    16    16   ---   --- /
11/11/2008 15:50      19.0  11.0  20.0  14.5  60  1023   ---   NNE    14    14   ---   0.7 Few Clouds/
11/11/2008 16:50      19.0  10.0  19.8  14.5  56  1023   ---    NE    14    14   ---   --- /
11/11/2008 17:50      16.0  10.0  17.5  10.6  68  1022   ---     E    14    14   ---   --- /
11/11/2008 18:50      16.0  10.0  17.5  10.6  68  1023   ---   ENE    14    14   ---   --- /
11/11/2008 19:50      16.0  10.0  17.5  11.3  68  1023   ---     E    13    13   ---   --- /
11/11/2008 20:50      16.0  10.0  17.5  11.3  68  1023   ---     E    13    13   ---   --- /
11/11/2008 21:50      15.0   9.0  16.5  12.0  67  1023   ---    SE     8     8   ---   --- /
11/11/2008 22:50      15.0   9.0  16.5  13.3  67  1023   ---   SSE     6     6   ---   --- /
11/11/2008 23:50      13.0   9.0  15.1   9.7  77  1023   ---    SE     8     8   ---   --- /
12/11/2008 00:50      13.0   9.0  15.1   8.9  77  1022   ---   SSE    10    10   ---   --- /
12/11/2008 01:50      13.0   8.0  14.8   8.9  72  1022   ---   SSE    10    10   ---   --- /
12/11/2008 02:50      13.0   7.0  14.4  11.2  67  1022   ---     S     6     6   ---   --- /
12/11/2008 03:50      13.0   7.0  14.4   9.7  67  1022   ---    SE     8     8   ---   --- /
12/11/2008 04:50      13.0   8.0  14.8  13.0  72  1021   ---     N     3     3   ---   --- /
12/11/2008 05:50      15.0   9.0  16.5  15.0  67  1021   ---     N     2     2   ---   --- /
12/11/2008 06:50      15.0  10.0  16.8  15.0  72  1021   ---     N     3     3   ---   --- /
12/11/2008 07:50      15.0   9.0  16.5  15.0  67  1021   ---    SE     2     2   ---   --- /
12/11/2008 08:50      19.0  12.0  20.2  19.0  64  1021   ---     S     5     5   ---   --- /
12/11/2008 09:50      20.0  10.0  20.6  14.4  53  1022   ---     S    21    21   ---   --- /
12/11/2008 10:50      20.0  11.0  20.8  14.4  56  1022   ---   SSW    21    21   ---   --- /
12/11/2008 11:50      21.0  10.0  21.4  16.7  49  1021   ---     S    16    16   ---   --- /
12/11/2008 12:50      22.0   9.0  22.1  18.1  43  1021   ---   SSW    16    16   ---   --- /
12/11/2008 13:50      21.0  10.0  21.4  19.9  49  1022   ---     N     6     6   ---   0.7 Few Clouds/
12/11/2008 14:50      20.0  10.0  20.6  17.4  53  1019   ---     E    10    10   ---   0.7 Few Clouds/
12/11/2008 15:50      21.0  10.0  21.4  17.7  49  1019   ---    SW    13    13   ---   0.7 Few Clouds/
12/11/2008 16:50      20.0   8.0  20.2  15.3  46  1019   ---     S    16    16   ---   1.8 Broken Clouds/
12/11/2008 17:50      19.0   9.0  19.6  15.1  52  1019   ---   SSW    13    13   ---   1.8 Broken Clouds/
12/11/2008 18:50      19.0   7.0  19.2  15.1  46  1019   ---   SSE    13    13   ---   0.7 Few Clouds/
12/11/2008 19:50      20.0   8.0  20.2  15.3  46  1018   ---     S    16    16   ---   0.7 Few Clouds/
12/11/2008 20:50      19.0   8.0  19.4  16.2  49  1018   ---     S    10    10   ---   0.7 Few Clouds/
12/11/2008 21:50      20.0   9.0  20.4  15.3  49  1018   ---     S    16    16   ---   0.7 Few Clouds/
12/11/2008 22:50      20.0  11.0  20.8  14.4  56  1018   ---     S    21    21   ---   0.7 Few Clouds/
12/11/2008 23:50      20.0  12.0  21.0  15.9  60  1018   ---   SSW    14    14   ---   0.7 Few Clouds/
13/11/2008 00:50      19.0  12.0  20.2  13.7  64  1017   ---     S    18    18   ---   0.7 Few Clouds/
13/11/2008 01:50      19.0  13.0  20.5  13.2  68  1016   ---   SSW    19    19   ---   0.7 Scattered Clouds/
13/11/2008 02:50      19.0  13.0  20.5  13.2  68  1016   ---     S    19    19   ---   0.7 Scattered Clouds/
13/11/2008 03:20      19.0  13.0  20.5  14.0  68  1015   ---   SSW    16    16   ---   0.7 Scattered Clouds/
13/11/2008 04:50      19.0  13.0  20.5  16.2  68  1015   ---     S    10    10   ---   0.7 Scattered Clouds/
13/11/2008 05:50      19.0  14.0  20.8  14.5  73  1015   ---    SW    14    14   ---   --- Overcast/ Rain
13/11/2008 06:50      16.0  13.0  18.5  10.6  82  1015   ---   SSE    14    14   ---   --- / Thunderstorm
13/11/2008 07:50      17.0  12.0  18.8  12.5  72  1015   ---     S    13    13   ---   0.6 Broken Clouds/
13/11/2008 08:50      18.0  13.0  19.8  12.4  73  1015   ---     S    18    18   ---   0.6 Broken Clouds/
13/11/2008 09:50      20.0  13.0  21.3  15.3  64  1015   ---     S    16    16   ---   0.7 Broken Clouds/
13/11/2008 10:50      21.0  13.0  22.0  16.5  60  1015   ---   SSW    18    18   ---   0.7 Broken Clouds/
13/11/2008 11:50      21.0  13.0  22.0  16.5  60  1014   ---   SSW    18    18   ---   0.7 Broken Clouds/
13/11/2008 12:50      22.0  11.0  22.4  17.1  50  1013   ---   SSW    23    23   ---   0.6 Scattered Clouds/
13/11/2008 13:50      22.0  12.0  22.6  17.1  53  1013   ---    SW    23    23   ---   0.6 Scattered Clouds/
13/11/2008 14:50      22.0  12.0  22.6  17.1  53  1012   ---    SW    23    23   ---   0.6 Scattered Clouds/
13/11/2008 15:50      21.0  12.0  21.8  16.1  56  1012   ---    SW    19    19   ---   0.6 Scattered Clouds/
13/11/2008 16:50      20.0  12.0  21.0  15.9  60  1012   ---     S    14    14   ---   0.6 Scattered Clouds/
13/11/2008 17:50      19.0  12.0  20.2  14.0  64  1013   ---     S    16    16   ---   0.6 Scattered Clouds/
13/11/2008 18:50      18.0  13.0  19.8  12.4  73  1013   ---   SSW    18    18   ---   0.6 Scattered Clouds/
13/11/2008 19:50      17.0  13.0  19.2  15.5  77  1013   ---   SSE     6     6   ---   0.7 Scattered Clouds/ Drizzle
13/11/2008 20:50      16.0  12.0  18.1  10.6  77  1014   ---     S    14    14   ---   0.7 Scattered Clouds/
13/11/2008 21:50      17.0  12.0  18.8  10.4  72  1014   ---     S    19    19   ---   --- / Thunderstorm
13/11/2008 22:50      18.0  12.0  19.5  15.5  68  1014   ---   SSW     8     8   ---   --- / Thunderstorm
13/11/2008 23:50      16.0  11.0  17.8  11.3  72  1015   ---     S    13    13   ---   0.5 Scattered Clouds/
14/11/2008 00:50      17.0  12.0  18.8  11.0  72  1014   ---     S    18    18   ---   0.5 Scattered Clouds/
14/11/2008 01:50      17.0  10.0  18.2   9.1  63  1015   ---     S    27    27   ---   0.5 Scattered Clouds/
14/11/2008 02:50      16.0  10.0  17.5   9.0  68  1014   ---     S    19    19   ---   0.5 Scattered Clouds/
14/11/2008 03:50      17.0  10.0  18.2   9.8  63  1014   ---     S    23    23   ---   0.6 Scattered Clouds/
14/11/2008 04:50      16.0  10.0  17.5   7.2  68  1014   ---     S    31    31   ---   0.6 Scattered Clouds/
14/11/2008 05:50      16.0  10.0  17.5   8.7  68  1014   ---     S    21    21   ---   0.6 Scattered Clouds/
14/11/2008 06:50      16.0  10.0  17.5   9.6  68  1015   ---     S    18    18   ---   0.6 Few Clouds/
14/11/2008 07:50      17.0  11.0  18.5   9.3  68  1015   ---     S    26    26   ---   0.7 Few Clouds/
14/11/2008 08:50      18.0  11.0  19.2  11.3  64  1016   ---     S    23    23   ---   0.7 Few Clouds/
14/11/2008 09:50      18.0  10.0  19.0  10.6  60  1016   ---     S    27    27   ---   0.7 Few Clouds/
14/11/2008 10:50      19.0  10.0  19.8  12.7  56  1016   ---    SW    23    23   ---   0.7 Few Clouds/
14/11/2008 11:50      18.0  12.0  19.5  11.3  68  1016   ---   WSW    23    23   ---   0.7 Scattered Clouds/
14/11/2008 12:50      19.0  10.0  19.8  14.5  56  1016   ---     S    14    14   ---   0.7 Broken Clouds/
14/11/2008 13:50      18.0  10.0  19.0  13.2  60  1016   ---     S    14    14   ---   0.7 Broken Clouds/
14/11/2008 14:50      15.0  12.0  17.5   9.3  82  1016   ---   SSW    14    14   ---   0.7 Overcast/
14/11/2008 15:50      16.0  12.0  18.1  11.3  77  1016   ---   SSE    13    13   ---   0.7 Broken Clouds/
14/11/2008 16:50      14.0  11.0  16.5   6.9  82  1016   ---     S    18    18   ---   --- Overcast/ Light Rain
14/11/2008 17:50      15.0  10.0  16.8   8.2  72  1016   ---   SSE    18    18   ---   0.7 Broken Clouds/
14/11/2008 18:50      15.0   9.0  16.5   8.2  67  1017   ---     S    18    18   ---   0.7 Broken Clouds/
14/11/2008 19:20      15.0  10.0  16.8   8.6  72  1017   ---     S    16    16   ---   0.7 Scattered Clouds/
14/11/2008 20:50      15.0   9.0  16.5   9.3  67  1017   ---     S    14    14   ---   0.7 Scattered Clouds/
14/11/2008 21:50      14.0   9.0  15.8   7.2  72  1017   ---     S    16    16   ---   0.7 Scattered Clouds/
14/11/2008 22:50      14.0   8.0  15.5  12.3  67  1017   ---     S     6     6   ---   0.7 Few Clouds/
14/11/2008 23:50      13.0   8.0  14.8  13.0  72  1017   ---     S     5     5   ---   0.7 Scattered Clouds/
15/11/2008 00:50      13.0   8.0  14.8   8.9  72  1017   ---   SSE    10    10   ---   0.7 Scattered Clouds/
15/11/2008 01:50      14.0   8.0  15.5   6.2  67  1017   ---   SSE    19    19   ---   0.7 Scattered Clouds/
15/11/2008 02:50      13.0   8.0  14.8   5.8  72  1017   ---     S    16    16   ---   0.7 Scattered Clouds/
15/11/2008 03:50      13.0   8.0  14.8   9.7  72  1016   ---   SSW     8     8   ---   0.7 Few Clouds/
15/11/2008 04:50      12.0   7.0  13.7   8.5  71  1017   ---   SSW     8     8   ---   0.7 Few Clouds/
15/11/2008 05:50      13.0   9.0  15.1   6.6  77  1017   ---   SSW    14    14   ---   0.7 Scattered Clouds/
15/11/2008 06:50      12.0   6.0  13.4   6.2  67  1017   ---   SSE    13    13   ---   0.7 Scattered Clouds/
15/11/2008 07:20      13.0   8.0  14.8   9.7  72  1017   ---   SSW     8     8   ---   0.7 Scattered Clouds/
15/11/2008 08:50      14.0   9.0  15.8  12.3  72  1018   ---     S     6     6   ---   0.7 Scattered Clouds/
15/11/2008 09:50      15.0  10.0  16.8  13.3  72  1018   ---   SSE     6     6   ---   0.7 Scattered Clouds/
15/11/2008 11:50      17.0   9.0  18.0  13.8  59  1017   ---    SW    10    10   ---   0.7 Scattered Clouds/
15/11/2008 12:50      17.0  10.0  18.2  15.5  63  1017   ---    SW     6     6   ---   0.7 Scattered Clouds/
15/11/2008 13:50      17.0   9.0  18.0  17.0  59  1016   ---     N     5     5   ---   0.7 Few Clouds/
15/11/2008 14:50      17.0   9.0  18.0  13.8  59  1016   ---     W    10    10   ---   0.7 Scattered Clouds/
15/11/2008 15:50      17.0  11.0  18.5   9.3  68  1016   ---     W    26    26   ---   0.4 Broken Clouds/
15/11/2008 16:50      16.0   7.0  16.7  16.0  55  1017   ---     N     5     5   ---   0.4 Broken Clouds/
15/11/2008 17:50      14.0   8.0  15.5   8.7  67  1017   ---    SE    13    13   ---   0.4 Scattered Clouds/
15/11/2008 18:50      14.0   8.0  15.5   8.0  67  1017   ---   SSE    14    14   ---   0.7 Scattered Clouds/
15/11/2008 19:50      15.0   9.0  16.5  11.3  67  1017   ---   ESE    10    10   ---   0.7 Scattered Clouds/
15/11/2008 20:50      13.0   7.0  14.4   5.8  67  1017   ---   SSE    16    16   ---   0.7 Scattered Clouds/
15/11/2008 21:50      13.0   7.0  14.4   5.8  67  1018   ---     S    16    16   ---   0.7 Scattered Clouds/
15/11/2008 22:50      13.0   7.0  14.4   5.8  67  1018   ---     S    16    16   ---   0.7 Scattered Clouds/
15/11/2008 23:50      13.0   7.0  14.4   5.8  67  1018   ---     S    16    16   ---   0.8 Few Clouds/
16/11/2008 00:50      13.0   6.0  14.2   5.8  62  1018   ---     S    16    16   ---   0.8 Few Clouds/
16/11/2008 01:50      13.0   5.0  13.9   6.6  58  1018   ---   SSE    14    14   ---   0.8 Few Clouds/
16/11/2008 02:50      13.0   4.0  13.7   5.8  54  1018   ---   SSE    16    16   ---   0.8 Few Clouds/
16/11/2008 03:50      14.0   4.0  14.5   8.0  51  1018   ---   SSE    14    14   ---   0.8 Few Clouds/
16/11/2008 04:50      13.0   5.0  13.9   5.8  58  1018   ---   SSE    16    16   ---   0.8 Scattered Clouds/
16/11/2008 05:50      13.0   5.0  13.9   7.4  58  1018   ---     S    13    13   ---   0.8 Scattered Clouds/
16/11/2008 06:50      14.0   5.0  14.7  10.8  55  1018   ---     S     8     8   ---   0.8 Scattered Clouds/
16/11/2008 07:50      15.0   5.0  15.5  15.0  51  1018   ---     N     5     5   ---   0.8 Broken Clouds/
16/11/2008 08:50      17.0   6.0  17.4  17.0  48  1019   ---     N     3     3   ---   0.8 Scattered Clouds/
16/11/2008 09:50      18.0   6.0  18.2  18.0  45  1019   ---     N     5     5   ---   0.8 Scattered Clouds/
16/11/2008 10:50      18.0   5.0  18.1  16.6  42  1019   ---    NE     6     6   ---   0.8 Scattered Clouds/
16/11/2008 11:50      18.0   6.0  18.2  18.0  45  1019   ---     N     5     5   ---   0.8 Few Clouds/
16/11/2008 12:50      19.0   7.0  19.2  19.0  46  1018   ---     N     5     5   ---   0.8 Few Clouds/
16/11/2008 13:50      19.0   5.0  18.9  16.7  40  1018   ---   NNE     8     8   ---   0.8 Few Clouds/
16/11/2008 14:50      19.0   5.0  18.9  16.2  40  1018   ---   NNE    10    10   ---   0.8 Few Clouds/
16/11/2008 15:50      17.0   6.0  17.4  13.8  48  1018   ---   ENE    10    10   ---   0.8 Scattered Clouds/
16/11/2008 16:50      16.0   6.0  16.5  13.2  51  1018   ---   ENE     8     8   ---   0.8 Scattered Clouds/
16/11/2008 17:50      16.0   6.0  16.5   5.6  51  1017   ---     E   119   119   ---   0.8 Scattered Clouds/
16/11/2008 18:50      17.0   7.0  17.5  11.0  52  1018   ---     E    18    18   ---   0.8 Scattered Clouds/
16/11/2008 19:50      16.0   7.0  16.7  10.6  55  1018   ---     E    14    14   ---   0.8 Few Clouds/
16/11/2008 20:50      16.0   7.0  16.7  11.3  55  1018   ---     E    13    13   ---   0.8 Few Clouds/
16/11/2008 21:50      16.0   7.0  16.7  10.6  55  1018   ---     E    14    14   ---   0.8 Few Clouds/
16/11/2008 22:50      16.0   7.0  16.7  16.0  55  1017   ---     N     5     5   ---   0.8 Few Clouds/
16/11/2008 23:50      16.0   8.0  16.9  16.0  59  1017   ---     N     2     2   ---   0.8 Few Clouds/
17/11/2008 00:50      16.0   9.0  17.2  16.0  63  1017   ---     N     5     5   ---   0.8 Few Clouds/
17/11/2008 01:50      15.0   9.0  16.5  15.0  67  1017   ---     N     5     5   ---   0.8 Few Clouds/
17/11/2008 04:50      14.0   7.0  15.2  14.0  63  1016   ---     N     5     5   ---   0.5 Scattered Clouds/
17/11/2008 05:50      12.0   7.0  13.7  12.0  71  1016   ---     N     2     2   ---   0.5 Scattered Clouds/
17/11/2008 06:50      14.0   8.0  15.5  14.0  67  1016   ---     N     3     3   ---   0.5 Scattered Clouds/
17/11/2008 07:50      14.0   9.0  15.8  14.0  72  1016   ---     N     5     5   ---   0.5 Scattered Clouds/
17/11/2008 08:50      16.0  11.0  17.8   8.4  72  1016   ---   NNE    23    23   ---   0.5 Scattered Clouds/
17/11/2008 09:50      17.0  12.0  18.8  17.0  72  1016   ---     N     5     5   ---   0.6 Few Clouds/
17/11/2008 10:50      18.0  12.0  19.5  12.4  68  1016   ---   ENE    18    18   ---   0.6 Scattered Clouds/
17/11/2008 11:50      18.0  10.0  19.0  15.5  60  1016   ---    NE     8     8   ---   0.6 Scattered Clouds/
17/11/2008 12:50      18.0  11.0  19.2  13.8  64  1015   ---    NE    13    13   ---   0.6 Scattered Clouds/
17/11/2008 13:50      18.0  10.0  19.0  13.2  60  1015   ---     E    14    14   ---   0.6 Scattered Clouds/
17/11/2008 14:50      19.0  10.0  19.8  16.7  56  1015   ---    NE     8     8   ---   0.6 Scattered Clouds/
17/11/2008 15:50      18.0  10.0  19.0  11.8  60  1014   ---    NE    19    19   ---   0.7 Scattered Clouds/
17/11/2008 16:50      18.0   9.0  18.8  11.8  56  1014   ---   ENE    19    19   ---   0.7 Scattered Clouds/
17/11/2008 17:50      18.0   9.0  18.8  11.6  56  1014   ---    NE    21    21   ---   0.7 Scattered Clouds/
17/11/2008 18:50      18.0  11.0  19.2  11.3  64  1015   ---    NE    23    23   ---   0.7 Scattered Clouds/
17/11/2008 19:50      17.0   9.0  18.0  11.0  59  1015   ---    NE    18    18   ---   0.7 Scattered Clouds/
17/11/2008 20:50      17.0  11.0  18.5   9.1  68  1015   ---   NNE    27    43   ---   --- Overcast/ Rain
17/11/2008 21:50      18.0  10.0  19.0  11.8  60  1015   ---   NNE    19    19   ---   0.6 Scattered Clouds/
17/11/2008 22:50      18.0  11.0  19.2  12.4  64  1014   ---   NNE    18    18   ---   0.6 Scattered Clouds/
17/11/2008 23:50      17.0   9.0  18.0  10.4  59  1014   ---    NE    19    19   ---   0.6 Scattered Clouds/
18/11/2008 00:50      17.0   9.0  18.0  11.0  59  1013   ---    NE    18    18   ---   0.6 Scattered Clouds/
18/11/2008 01:50      18.0   9.0  18.8  11.6  56  1013   ---    NE    21    21   ---   0.6 Scattered Clouds/
18/11/2008 02:50      16.0   9.0  17.2  13.2  63  1013   ---   ENE     8     8   ---   0.6 Scattered Clouds/
18/11/2008 03:50      16.0   9.0  17.2  10.6  63  1012   ---   ENE    14    14   ---   0.7 Scattered Clouds/
18/11/2008 04:50      18.0  12.0  19.5  10.6  68  1012   ---     N    27    27   ---   0.5 Scattered Clouds/
18/11/2008 05:50      15.0   9.0  16.5   8.6  67  1012   ---     E    16    16   ---   0.5 Scattered Clouds/
18/11/2008 06:50      15.0  10.0  16.8  10.0  72  1013   ---   ENE    13    13   ---   0.5 Scattered Clouds/
18/11/2008 07:20      17.0  11.0  18.5   9.8  68  1013   ---    NE    23    23   ---   0.5 Scattered Clouds/
18/11/2008 08:50      14.0  10.0  16.1   3.4  77  1013   ---   ENE    37    53   ---   0.4 Broken Clouds/
18/11/2008 09:50      17.0  10.0  18.2  14.3  63  1013   ---   ENE     8     8   ---   0.7 Few Clouds/
18/11/2008 10:50      17.0   9.0  18.0  11.3  59  1013   ---   ENE    16    16   ---   0.7 Few Clouds/
18/11/2008 11:50      18.0   9.0  18.8  13.2  56  1013   ---    NE    14    14   ---   0.7 Few Clouds/
18/11/2008 12:50      18.0  10.0  19.0  12.6  60  1013   ---    NE    16    16   ---   0.7 Few Clouds/
18/11/2008 13:50      18.0  10.0  19.0  15.5  60  1012   ---   NNE     8     8   ---   0.7 Scattered Clouds/
18/11/2008 14:50      17.0  10.0  18.2  11.9  63  1012   ---   ENE    14    14   ---   0.5 Scattered Clouds/
18/11/2008 15:50      18.0   9.0  18.8  12.4  56  1012   ---     N    18    18   ---   0.5 Scattered Clouds/
18/11/2008 16:50      17.0   8.0  17.7  11.0  55  1012   ---   NNE    18    18   ---   0.5 Scattered Clouds/
18/11/2008 17:50      17.0   8.0  17.7  11.9  55  1013   ---   NNE    14    14   ---   0.5 Scattered Clouds/
18/11/2008 18:50      16.0   8.0  16.9  12.5  59  1013   ---    NE    10    10   ---   0.7 Scattered Clouds/
18/11/2008 19:50      15.0   8.0  16.2  12.0  63  1013   ---     E     8     8   ---   0.7 Scattered Clouds/
18/11/2008 20:50      15.0   9.0  16.5  11.3  67  1013   ---     E    10    10   ---   0.7 Scattered Clouds/
18/11/2008 21:20      14.0   8.0  15.5   8.0  67  1013   ---     E    14    14   ---   0.7 Scattered Clouds/
18/11/2008 22:50      13.0   7.0  14.4  13.0  67  1013   ---     N     5     5   ---   0.7 Scattered Clouds/
18/11/2008 23:50      13.0   8.0  14.8  11.2  72  1014   ---   ESE     6     6   ---   0.7 Scattered Clouds/
19/11/2008 00:50      14.0   7.0  15.2  14.0  63  1014   ---     N     5     5   ---   0.7 Scattered Clouds/
19/11/2008 01:50      12.0   6.0  13.4  10.1  67  1014   ---   SSW     6     6   ---   0.8 Few Clouds/
19/11/2008 02:50      11.0   7.0  13.1   7.3  76  1014   ---   SSE     8     8   ---   0.8 Few Clouds/
19/11/2008 03:50      12.0   7.0  13.7   8.5  71  1014   ---    SE     8     8   ---   0.8 Few Clouds/
19/11/2008 04:50      12.0   7.0  13.7   8.5  71  1014   ---    SE     8     8   ---   0.8 Few Clouds/
19/11/2008 05:50      11.0   7.0  13.1   7.3  76  1015   ---    SE     8     8   ---   0.8 Few Clouds/
19/11/2008 06:50      12.0   7.0  13.7   7.7  71  1015   ---   SSE    10    10   ---   --- /
19/11/2008 07:50      12.0   8.0  14.1  10.1  77  1015   ---    SE     6     6   ---   --- /
19/11/2008 08:50      14.0  10.0  16.1  12.3  77  1016   ---    SE     6     6   ---   --- /
19/11/2008 09:50      17.0  11.0  18.5  17.0  68  1017   ---     N     3     3   ---   --- /
19/11/2008 10:50      19.0  10.0  19.8  19.0  56  1017   ---     N     2     2   ---   --- /
19/11/2008 11:50      18.0   9.0  18.8  18.0  56  1017   ---     N     3     3   ---   --- /
19/11/2008 12:50      18.0   8.0  18.6  18.0  52  1017   ---     N     3     3   ---   0.7 Few Clouds/
19/11/2008 13:50      18.0   9.0  18.8  16.6  56  1017   ---   NNE     6     6   ---   0.7 Few Clouds/
19/11/2008 14:50      18.0   9.0  18.8  15.5  56  1018   ---   NNE     8     8   ---   0.7 Few Clouds/
19/11/2008 15:50      18.0  10.0  19.0  15.5  60  1018   ---   ENE     8     8   ---   0.9 Scattered Clouds/
19/11/2008 16:50      17.0  12.0  18.8  15.5  72  1018   ---   SSE     6     6   ---   --- Overcast/ Light Rain
19/11/2008 17:50      15.0  11.0  17.1   8.6  77  1019   ---   SSW    16    16   ---   0.9 Broken Clouds/
19/11/2008 18:50      14.0  10.0  16.1  12.3  77  1019   ---     S     6     6   ---   0.9 Broken Clouds/
19/11/2008 19:50      14.0   9.0  15.8  12.3  72  1019   ---   SSE     6     6   ---   0.9 Broken Clouds/
19/11/2008 20:50      14.0   9.0  15.8  10.8  72  1020   ---     S     8     8   ---   0.8 Scattered Clouds/
19/11/2008 21:50      14.0   9.0  15.8  10.8  72  1020   ---     S     8     8   ---   0.8 Few Clouds/
19/11/2008 22:50      15.0  11.0  17.1   9.3  77  1021   ---    SW    14    14   ---   0.8 Few Clouds/
19/11/2008 23:50      14.0   9.0  15.8   7.2  72  1021   ---   SSE    16    16   ---   0.8 Few Clouds/
20/11/2008 00:50      14.0   9.0  15.8   8.0  72  1021   ---   SSE    14    14   ---   0.8 Few Clouds/
20/11/2008 01:50      15.0   9.0  16.5   9.3  67  1021   ---   SSE    14    14   ---   0.8 Few Clouds/
20/11/2008 02:50      15.0   9.0  16.5   8.6  67  1021   ---     S    16    16   ---   --- /
20/11/2008 03:50      16.0  10.0  17.5   9.6  68  1021   ---     S    18    18   ---   --- /
20/11/2008 04:50      16.0  10.0  17.5   9.0  68  1021   ---   SSW    19    19   ---   --- /
20/11/2008 05:50      16.0  10.0  17.5   8.7  68  1021   ---     S    21    21   ---   --- /
20/11/2008 06:50      16.0  10.0  17.5   9.0  68  1022   ---     S    19    19   ---   0.7 Few Clouds/
20/11/2008 07:50      17.0   9.0  18.0   9.8  59  1022   ---     S    23    23   ---   0.6 Scattered Clouds/
20/11/2008 08:50      17.0  10.0  18.2  10.4  63  1023   ---     S    19    19   ---   0.6 Few Clouds/
20/11/2008 09:50      18.0  10.0  19.0  11.8  60  1023   ---   SSW    19    19   ---   0.6 Few Clouds/
20/11/2008 10:50      19.0  11.0  20.0  13.2  60  1023   ---   SSW    19    19   ---   0.6 Few Clouds/
20/11/2008 11:50      19.0  11.0  20.0  14.0  60  1022   ---     S    16    16   ---   0.6 Few Clouds/
20/11/2008 12:50      19.0  12.0  20.2  13.7  64  1022   ---    SW    18    18   ---   0.6 Few Clouds/
20/11/2008 13:50      18.0   9.0  18.8  11.8  56  1022   ---   SSW    19    19   ---   0.6 Few Clouds/
20/11/2008 14:50      19.0  11.0  20.0  14.5  60  1022   ---   SSW    14    14   ---   0.6 Few Clouds/
20/11/2008 15:50      19.0  11.0  20.0  16.2  60  1021   ---    SW    10    10   ---   0.7 Few Clouds/
20/11/2008 16:50      19.0  12.0  20.2  16.7  64  1021   ---    SW     8     8   ---   0.7 Few Clouds/
20/11/2008 17:50      19.0  13.0  20.5  13.2  68  1021   ---     W    19    19   ---   0.7 Scattered Clouds/
20/11/2008 18:50      17.0   9.0  18.0  10.4  59  1022   ---   SSW    19    19   ---   0.7 Scattered Clouds/
20/11/2008 19:50      17.0  10.0  18.2  11.3  63  1022   ---   SSW    16    16   ---   0.7 Scattered Clouds/
20/11/2008 20:50      17.0  11.0  18.5  11.3  68  1022   ---   SSW    16    16   ---   0.7 Scattered Clouds/
20/11/2008 21:50      16.0  11.0  17.8   9.0  72  1022   ---     S    19    19   ---   0.7 Scattered Clouds/
20/11/2008 22:50      16.0  11.0  17.8   9.6  72  1022   ---     S    18    18   ---   0.7 Few Clouds/
20/11/2008 23:50      16.0  10.0  17.5   9.0  68  1022   ---   SSW    19    19   ---   0.7 Few Clouds/
21/11/2008 00:50      16.0  10.0  17.5   8.4  68  1022   ---     S    23    23   ---   --- /
21/11/2008 01:50      16.0  10.0  17.5   7.8  68  1021   ---     S    26    26   ---   --- /
21/11/2008 02:20      16.0  10.0  17.5   9.0  68  1021   ---   SSW    19    19   ---   --- /
21/11/2008 03:50      16.0  10.0  17.5   8.7  68  1021   ---   SSW    21    21   ---   --- /
21/11/2008 04:50      16.0  10.0  17.5   8.4  68  1020   ---   SSW    23    23   ---   --- /
21/11/2008 05:50      15.0  10.0  16.8   7.3  72  1020   ---   SSW    21    21   ---   --- /
21/11/2008 06:50      16.0  10.0  17.5   8.4  68  1019   ---   SSW    23    23   ---   0.6 Few Clouds/
21/11/2008 07:50      16.0  10.0  17.5   7.6  68  1019   ---   SSW    27    27   ---   0.7 Few Clouds/
21/11/2008 08:50      17.0  10.0  18.2   9.1  63  1019   ---   SSW    27    27   ---   0.7 Few Clouds/
21/11/2008 09:50      18.0  11.0  19.2  10.2  64  1019   ---   SSW    31    31   ---   0.7 Scattered Clouds/
21/11/2008 10:50      18.0  13.0  19.8  11.6  73  1018   ---   WSW    21    21   ---   0.6 Broken Clouds/
21/11/2008 11:20      17.0  11.0  18.5   7.6  68  1018   ---     W    45    64   ---   --- Overcast/ Light Rain
21/11/2008 12:50      16.0  12.0  18.1   7.0  77  1016   ---    SW    32    32   ---   --- Overcast/ Light Rain
21/11/2008 13:50      18.0  12.0  19.5   9.2  68  1016   ---     W    45    45   ---   0.6 Broken Clouds/
21/11/2008 14:50      19.0  11.0  20.0  10.9  60  1014   ---     W    43    43   ---   0.8 Broken Clouds/
21/11/2008 15:50      19.0  12.0  20.2  11.0  64  1014   ---   WSW    42    42   ---   0.8 Scattered Clouds/
21/11/2008 16:50      19.0  11.0  20.0  10.9  60  1013   ---     W    43    43   ---   0.8 Broken Clouds/
21/11/2008 17:50      18.0  11.0  19.2   9.2  64  1012   ---   WSW    45    45   ---   0.8 Broken Clouds/
21/11/2008 18:50      18.0  12.0  19.5   9.4  68  1011   ---   WSW    40    40   ---   0.8 Broken Clouds/
21/11/2008 19:50      19.0  12.0  20.2  10.5  64  1011   ---   WSW    51    51   ---   0.7 Broken Clouds/
21/11/2008 20:50      18.0  12.0  19.5   9.2  68  1010   ---   WSW    45    45   ---   0.7 Broken Clouds/
21/11/2008 21:50      18.0  12.0  19.5   9.3  68  1010   ---   WSW    43    43   ---   0.7 Broken Clouds/
21/11/2008 22:50      18.0  12.0  19.5   8.9  68  1010   ---   WSW    51    51   ---   0.7 Broken Clouds/
21/11/2008 23:50      18.0  13.0  19.8   8.9  73  1008   ---   WSW    50    50   ---   0.7 Broken Clouds/
22/11/2008 00:50      19.0  13.0  20.5  10.5  68  1007   ---   WSW    53    53   ---   0.7 Broken Clouds/
22/11/2008 01:50      19.0  13.0  20.5  10.5  68  1007   ---     W    58    58   ---   0.7 Broken Clouds/
22/11/2008 02:50      19.0  13.0  20.5  10.5  68  1006   ---     W    58    58   ---   0.7 Broken Clouds/
22/11/2008 03:50      19.0  13.0  20.5  10.5  68  1005   ---     W    58    58   ---   0.7 Broken Clouds/
22/11/2008 04:50      19.0  13.0  20.5  10.5  68  1004   ---   WSW    56    56   ---   0.7 Broken Clouds/
22/11/2008 05:50      19.0  13.0  20.5  10.5  68  1004   ---   WSW    60    76   ---   0.7 Broken Clouds/
22/11/2008 06:50      19.0  12.0  20.2  10.5  64  1003   ---   WSW    55    76   ---   0.7 Broken Clouds/
22/11/2008 07:50      19.0  12.0  20.2  10.5  64  1003   ---   WSW    56    76   ---   0.7 Broken Clouds/
22/11/2008 08:50      19.0  12.0  20.2  10.7  64  1003   ---   WSW    45    77   ---   0.5 Broken Clouds/
22/11/2008 09:50      19.0  13.0  20.5  10.5  68  1003   ---     W    53    74   ---   0.5 Broken Clouds/
22/11/2008 11:50      19.0  13.0  20.5  10.5  68  1002   ---     W    56    56   ---   0.7 Broken Clouds/
22/11/2008 12:50      19.0  11.0  20.0  10.5  60  1002   ---     W    64    82   ---   0.7 Broken Clouds/
22/11/2008 13:50      18.0  11.0  19.2   8.9  64  1002   ---     W    53    74   ---   0.7 Broken Clouds/
22/11/2008 14:50      17.0  11.0  18.5   7.7  68  1002   ---   WNW    43    64   ---   0.6 Broken Clouds/
22/11/2008 15:50      17.0  11.0  18.5   8.7  68  1002   ---   WNW    31    31   ---   0.6 Broken Clouds/
22/11/2008 16:50      17.0  11.0  18.5   8.7  68  1002   ---   WNW    31    31   ---   0.6 Broken Clouds/
22/11/2008 17:50      16.0  10.0  17.5   7.2  68  1002   ---   WNW    31    31   ---   0.6 Broken Clouds/
22/11/2008 18:50      16.0  10.0  17.5   8.4  68  1003   ---   WNW    23    23   ---   0.6 Broken Clouds/
22/11/2008 19:50      16.0  11.0  17.8   7.6  72  1004   ---     W    27    27   ---   0.6 Broken Clouds/
22/11/2008 20:50      16.0  11.0  17.8   7.0  72  1004   ---     W    32    32   ---   0.6 Broken Clouds/
22/11/2008 21:50      16.0  11.0  17.8   9.0  72  1004   ---     W    19    19   ---   0.5 Broken Clouds/
22/11/2008 22:50      16.0  11.0  17.8   6.4  72  1004   ---   WNW    39    58   ---   0.5 Broken Clouds/
22/11/2008 23:50      16.0  11.0  17.8   7.0  72  1004   ---   WNW    32    32   ---   0.5 Broken Clouds/
23/11/2008 00:50      16.0   9.0  17.2   6.0  63  1004   ---     W    45    45   ---   0.5 Broken Clouds/
23/11/2008 01:50      16.0  10.0  17.5   7.4  68  1004   ---   WNW    29    29   ---   0.5 Broken Clouds/
23/11/2008 02:50      15.0   9.0  16.5   5.3  67  1004   ---   WNW    34    34   ---   0.5 Broken Clouds/
23/11/2008 03:50      15.0   9.0  16.5   5.9  67  1004   ---     W    29    29   ---   0.5 Broken Clouds/
23/11/2008 04:50      15.0   9.0  16.5   5.9  67  1004   ---     W    29    29   ---   --- / Drizzle
23/11/2008 05:50      15.0   8.0  16.2   4.7  63  1004   ---     W    42    42   ---   --- / Drizzle
23/11/2008 06:50      16.0   8.0  16.9   6.4  59  1004   ---     W    39    39   ---   0.5 Broken Clouds/
23/11/2008 07:50      15.0   9.0  16.5   4.7  67  1005   ---     W    40    40   ---   --- Overcast/ Light Rain
23/11/2008 08:50      15.0  10.0  16.8   4.7  72  1006   ---     W    40    40   ---   --- Overcast/ Light Rain
23/11/2008 09:50      14.0   9.0  15.8   4.1  72  1007   ---   WNW    31    31   ---   0.3 Broken Clouds/
23/11/2008 11:50      15.0   8.0  16.2   4.9  63  1007   ---     W    37    37   ---   0.3 Broken Clouds/
23/11/2008 12:50      16.0   7.0  16.7   6.1  55  1006   ---   WNW    43    43   ---   0.5 Scattered Clouds/
23/11/2008 13:50      15.0   9.0  16.5   4.3  67  1006   ---     W    47    47   ---   0.5 Scattered Clouds/
23/11/2008 14:50      15.0   9.0  16.5   4.9  67  1007   ---   WNW    39    39   ---   0.7 Broken Clouds/
23/11/2008 15:50      15.0   7.0  15.9   5.4  59  1007   ---     W    32    32   ---   0.7 Broken Clouds/
23/11/2008 16:50      15.0   8.0  16.2   6.4  63  1008   ---     W    26    26   ---   0.7 Broken Clouds/
23/11/2008 17:50      14.0   8.0  15.5   4.6  67  1008   ---     W    27    27   ---   --- Overcast/ Light Rain
23/11/2008 18:50      15.0   8.0  16.2  12.0  63  1008   ---     W     8     8   ---   --- Overcast/ Light Rain
23/11/2008 19:50      13.0   7.0  14.4  13.0  67  1009   ---     N     5     5   ---   0.5 Broken Clouds/
23/11/2008 20:50      15.0   6.0  15.7   8.2  55  1009   ---     W    18    18   ---   0.6 Broken Clouds/
23/11/2008 21:50      16.0   6.0  16.5   9.9  51  1009   ---     W    16    16   ---   0.6 Broken Clouds/
23/11/2008 22:50      15.0   7.0  15.9   8.6  59  1008   ---   WSW    16    16   ---   0.6 Broken Clouds/
23/11/2008 23:50      13.0   5.0  13.9   3.1  58  1008   ---   SSW    27    27   ---   0.6 Broken Clouds/
24/11/2008 00:50      13.0   5.0  13.9   3.1  58  1008   ---     S    27    27   ---   0.6 Broken Clouds/
24/11/2008 01:50      14.0   4.0  14.5   4.4  51  1007   ---     S    29    29   ---   0.6 Broken Clouds/
24/11/2008 02:50      14.0   5.0  14.7   4.1  55  1007   ---     S    31    31   ---   0.6 Broken Clouds/
24/11/2008 03:50      15.0   7.0  15.9   4.7  59  1006   ---    SW    40    40   ---   0.6 Broken Clouds/
24/11/2008 04:50      15.0   9.0  16.5   4.5  67  1006   ---    SW    43    43   ---   0.6 Broken Clouds/
24/11/2008 05:50      15.0   9.0  16.5   4.5  67  1006   ---    SW    43    43   ---   0.6 Broken Clouds/
24/11/2008 06:50      15.0   9.0  16.5   4.9  67  1006   ---    SW    37    56   ---   0.9 Broken Clouds/
24/11/2008 07:50      15.0   8.0  16.2   4.9  63  1006   ---   SSW    37    37   ---   0.8 Broken Clouds/
24/11/2008 08:50      16.0   9.0  17.2   7.2  63  1006   ---   SSW    31    31   ---   0.9 Scattered Clouds/
24/11/2008 09:50      17.0   9.0  18.0   8.5  59  1007   ---   SSW    32    32   ---   0.9 Scattered Clouds/
24/11/2008 11:50      17.0  10.0  18.2   8.9  63  1005   ---   SSW    29    29   ---   0.8 Scattered Clouds/
24/11/2008 12:50      18.0  10.0  19.0  10.0  60  1004   ---   SSW    32    32   ---   0.7 Broken Clouds/
24/11/2008 13:50      18.0  10.0  19.0   9.6  60  1003   ---   SSW    37    37   ---   0.7 Scattered Clouds/
24/11/2008 14:50      18.0  10.0  19.0  10.0  60  1003   ---   SSW    32    32   ---   0.8 Scattered Clouds/
24/11/2008 15:50      17.0  10.0  18.2   8.9  63  1003   ---     S    29    29   ---   0.8 Scattered Clouds/
24/11/2008 16:20      17.0  10.0  18.2   9.1  63  1002   ---     S    27    27   ---   0.8 Scattered Clouds/
24/11/2008 17:50      16.0  11.0  17.8   7.6  72  1002   ---   SSW    27    47   ---   0.8 Scattered Clouds/
24/11/2008 18:50      17.0  11.0  18.5   9.1  68  1002   ---   SSW    27    51   ---   0.8 Scattered Clouds/
24/11/2008 19:50      17.0  11.0  18.5   9.3  68  1002   ---     S    26    51   ---   0.7 Scattered Clouds/
24/11/2008 20:50      17.0  11.0  18.5   8.9  68  1002   ---     S    29    50   ---   0.7 Scattered Clouds/
24/11/2008 21:50      17.0  11.0  18.5   8.1  68  1002   ---   SSW    37    37   ---   0.7 Scattered Clouds/
24/11/2008 22:50      18.0  11.0  19.2   9.1  64  1001   ---     S    47    47   ---   0.7 Scattered Clouds/
24/11/2008 23:50      18.0  11.0  19.2   9.3  64  1001   ---     S    43    64   ---   0.7 Scattered Clouds/
25/11/2008 00:50      18.0  13.0  19.8   9.6  73  1001   ---   SSW    37    37   ---   0.7 Few Clouds/
25/11/2008 01:50      17.0  12.0  18.8   8.0  72  1000   ---   SSW    39    39   ---   0.7 Few Clouds/
25/11/2008 02:50      17.0  11.0  18.5   8.4  68  1000   ---   SSW    34    34   ---   0.7 Few Clouds/
25/11/2008 03:50      17.0  11.0  18.5   7.8  68  1001   ---   SSW    42    42   ---   0.7 Few Clouds/
25/11/2008 04:50      17.0  11.0  18.5   8.0  68  1001   ---   SSW    39    39   ---   0.7 Few Clouds/
25/11/2008 05:50      16.0  10.0  17.5   6.9  68  1001   ---   SSW    34    34   ---   0.7 Few Clouds/
25/11/2008 06:50      16.0  10.0  17.5   7.2  68  1001   ---   SSW    31    31   ---   0.7 Few Clouds/
25/11/2008 07:50      17.0   9.0  18.0   8.9  59  1001   ---   SSW    29    29   ---   0.7 Few Clouds/
25/11/2008 08:50      17.0  10.0  18.2   9.3  63  1002   ---     S    26    26   ---   0.7 Few Clouds/
25/11/2008 09:50      18.0  10.0  19.0  10.4  60  1002   ---   SSW    29    55   ---   0.7 Few Clouds/
25/11/2008 10:50      19.0  10.0  19.8  11.0  56  1002   ---   SSW    40    40   ---   0.7 Few Clouds/
25/11/2008 11:50      20.0  10.0  20.6  12.5  53  1002   ---   SSW    42    42   ---   0.7 Scattered Clouds/
25/11/2008 13:50      20.0  10.0  20.6  12.6  53  1002   ---    SW    40    40   ---   0.7 Scattered Clouds/
25/11/2008 14:50      19.0   9.0  19.6  11.0  52  1002   ---   SSW    42    42   ---   0.7 Scattered Clouds/
25/11/2008 15:50      19.0  10.0  19.8  10.7  56  1003   ---    SW    45    45   ---   0.7 Scattered Clouds/
25/11/2008 16:50      19.0  10.0  19.8  11.0  56  1004   ---    SW    42    42   ---   0.6 Broken Clouds/
25/11/2008 17:50      17.0  12.0  18.8   7.8  72  1006   ---     W    42    42   ---   0.6 Broken Clouds/
25/11/2008 18:20      17.0  11.0  18.5   8.7  68  1007   ---     W    31    31   ---   0.6 Broken Clouds/
25/11/2008 19:50      17.0   9.0  18.0   8.9  59  1008   ---   WSW    29    29   ---   0.6 Broken Clouds/
25/11/2008 21:50      15.0  10.0  16.8   5.9  72  1009   ---   SSW    29    29   ---   0.6 Scattered Clouds/
25/11/2008 22:50      16.0  10.0  17.5   6.9  68  1010   ---    SW    34    34   ---   0.8 Few Clouds/
25/11/2008 23:50      16.0   9.0  17.2   7.2  63  1011   ---    SW    31    31   ---   0.8 Few Clouds/
26/11/2008 00:50      16.0   9.0  17.2   7.6  63  1011   ---    SW    27    27   ---   0.8 Few Clouds/
26/11/2008 01:50      16.0   9.0  17.2   7.6  63  1012   ---     W    27    27   ---   0.8 Scattered Clouds/
26/11/2008 02:50      16.0   9.0  17.2   7.4  63  1013   ---     W    29    29   ---   0.8 Scattered Clouds/
26/11/2008 03:50      16.0   9.0  17.2   7.4  63  1013   ---     W    29    29   ---   0.8 Scattered Clouds/
26/11/2008 04:50      14.0   8.0  15.5   8.7  67  1013   ---   SSW    13    13   ---   0.8 Scattered Clouds/
26/11/2008 05:50      14.0   8.0  15.5   8.0  67  1013   ---   SSW    14    14   ---   0.6 Scattered Clouds/
26/11/2008 06:50      14.0   8.0  15.5   8.0  67  1014   ---     S    14    14   ---   0.6 Broken Clouds/
26/11/2008 07:50      14.0   8.0  15.5  10.8  67  1015   ---     S     8     8   ---   0.8 Broken Clouds/
26/11/2008 08:50      14.0   8.0  15.5   8.7  67  1016   ---   SSE    13    13   ---   0.6 Scattered Clouds/
26/11/2008 09:50      16.0   8.0  16.9  10.6  59  1016   ---   SSW    14    14   ---   0.6 Broken Clouds/
26/11/2008 10:50      16.0   9.0  17.2  10.6  63  1017   ---   SSW    14    14   ---   0.6 Scattered Clouds/
26/11/2008 11:50      17.0   9.0  18.0  11.9  59  1017   ---    SW    14    14   ---   0.7 Scattered Clouds/
26/11/2008 12:50      17.0   9.0  18.0  12.5  59  1017   ---   WSW    13    13   ---   0.7 Broken Clouds/
26/11/2008 13:50      17.0  10.0  18.2  12.5  63  1017   ---   WNW    13    13   ---   0.8 Scattered Clouds/
26/11/2008 14:50      17.0   9.0  18.0  11.3  59  1017   ---     W    16    16   ---   0.8 Scattered Clouds/
26/11/2008 15:50      17.0   9.0  18.0  10.4  59  1017   ---   WSW    19    19   ---   0.8 Scattered Clouds/
26/11/2008 16:50      17.0   9.0  18.0  11.0  59  1018   ---   WSW    18    18   ---   0.8 Scattered Clouds/
26/11/2008 17:50      16.0   8.0  16.9   9.0  59  1018   ---    SW    19    19   ---   0.8 Broken Clouds/
26/11/2008 18:50      16.0   8.0  16.9  10.6  59  1019   ---   SSW    14    14   ---   0.8 Broken Clouds/
26/11/2008 19:50      15.0   8.0  16.2   9.3  63  1019   ---   SSW    14    14   ---   0.8 Broken Clouds/
26/11/2008 20:50      14.0   7.0  15.2   8.0  63  1020   ---   SSE    14    14   ---   --- / Drizzle
26/11/2008 21:50      14.0   7.0  15.2   8.7  63  1021   ---   SSE    13    13   ---   0.8 Scattered Clouds/
26/11/2008 22:50      13.0   7.0  14.4   6.6  67  1021   ---   SSE    14    14   ---   0.8 Scattered Clouds/
26/11/2008 23:50      13.0   7.0  14.4  11.2  67  1021   ---   SSE     6     6   ---   0.8 Scattered Clouds/
27/11/2008 00:50      13.0   7.0  14.4   7.4  67  1021   ---     S    13    13   ---   0.8 Scattered Clouds/
27/11/2008 01:50      13.0   7.0  14.4   8.9  67  1021   ---   SSE    10    10   ---   0.8 Scattered Clouds/
27/11/2008 02:50      14.0   7.0  15.2  14.0  63  1021   ---   SSE     5     5   ---   0.8 Scattered Clouds/
27/11/2008 03:50      13.0   6.0  14.2   9.7  62  1021   ---    SE     8     8   ---   0.8 Few Clouds/
27/11/2008 04:50      12.0   6.0  13.4  12.0  67  1021   ---    SE     5     5   ---   0.8 Scattered Clouds/
27/11/2008 05:50      12.0   6.0  13.4  12.0  67  1021   ---     S     5     5   ---   0.8 Scattered Clouds/
27/11/2008 06:50      12.0   6.0  13.4   8.5  67  1021   ---     S     8     8   ---   0.8 Scattered Clouds/
27/11/2008 07:50      13.0   7.0  14.4  13.0  67  1021   ---     N     3     3   ---   0.8 Few Clouds/
27/11/2008 08:50      13.0   8.0  14.8  11.2  72  1021   ---   SSE     6     6   ---   0.8 Few Clouds/
27/11/2008 09:50      16.0  10.0  17.5  14.4  68  1021   ---   WSW     6     6   ---   --- /
27/11/2008 10:50      16.0   9.0  17.2  16.0  63  1021   ---     N     5     5   ---   --- /
27/11/2008 11:50      17.0   9.0  18.0  17.0  59  1021   ---     N     5     5   ---   --- /
27/11/2008 12:50      17.0   8.0  17.7  17.0  55  1020   ---     N     5     5   ---   --- /
27/11/2008 13:50      18.0  10.0  19.0  12.6  60  1018   ---    NE    16    16   ---   --- /
27/11/2008 14:50      19.0   9.0  19.6  19.0  52  1018   ---     N     5     5   ---   --- /
27/11/2008 15:50      19.0  10.0  19.8  19.0  56  1018   ---     N     3     3   ---   --- /
27/11/2008 16:50      19.0  10.0  19.8  19.0  56  1017   ---     N     5     5   ---   1.5 Few Clouds/
27/11/2008 17:50      18.0   9.0  18.8  15.0  56  1017   ---    SE    10    10   ---   --- Overcast/ Light Rain
27/11/2008 18:50      19.0   7.0  19.2  14.0  46  1015   ---   ESE    16    16   ---   1.0 Scattered Clouds/
27/11/2008 19:50      20.0   5.0  19.8  16.4  37  1015   ---    SE    13    13   ---   0.9 Scattered Clouds/
27/11/2008 20:50      19.0   7.0  19.2  15.1  46  1014   ---     E    13    13   ---   0.9 Scattered Clouds/
27/11/2008 21:50      20.0   7.0  20.1  17.4  43  1013   ---     N    10    39   ---   0.8 Scattered Clouds/
27/11/2008 22:50      19.0   8.0  19.4  15.1  49  1013   ---   ESE    13    13   ---   0.8 Scattered Clouds/
27/11/2008 23:50      19.0   9.0  19.6  12.7  52  1013   ---   ENE    23    23   ---   0.8 Scattered Clouds/
28/11/2008 00:50      20.0   7.0  20.1  18.8  43  1011   ---    SE     6     6   ---   0.9 Scattered Clouds/
28/11/2008 01:50      19.0   7.0  19.2  19.0  46  1011   ---     N     3     3   ---   0.9 Scattered Clouds/
28/11/2008 02:50      20.0   6.0  20.0  15.1  40  1010   ---   SSE    18    18   ---   0.9 Scattered Clouds/
28/11/2008 03:50      21.0   7.0  21.0  15.0  40  1008   ---   SSE    27    51   ---   0.9 Scattered Clouds/
28/11/2008 04:50      21.0   8.0  21.1  14.3  43  1006   ---   SSE    37    60   ---   0.9 Scattered Clouds/
28/11/2008 05:50      21.0   9.0  21.3  14.1  46  1006   ---   SSE    42    64   ---   0.8 Scattered Clouds/
28/11/2008 06:50      22.0   9.0  22.1  15.3  43  1004   ---   SSE    51    84   ---   0.7 Broken Clouds/
28/11/2008 07:50      21.0  11.0  21.6  14.3  53  1004   ---   SSE    39    69   ---   --- Overcast/ Light Rain
28/11/2008 08:50      19.0  13.0  20.5  11.5  68  1004   ---     S    34    55   ---   --- Overcast/ Light Rain
28/11/2008 09:50      20.0  14.0  21.5  12.7  68  1003   ---     S    39    58   ---   --- Overcast/ Light Rain
28/11/2008 10:50      21.0  14.0  22.3  13.9  64  1003   ---     S    47    92   ---   --- Overcast/ Rain
28/11/2008 11:50      19.0  15.0  21.2  10.5  78  1003   ---     S    51    79   ---   0.4 Broken Clouds/
28/11/2008 12:50      20.0  13.0  21.3  12.6  64  1001   ---   SSW    40    40   ---   0.6 Scattered Clouds/
28/11/2008 13:50      21.0   9.0  21.3  13.9  46  1001   ---    SW    47    47   ---   1.0 Scattered Clouds/
28/11/2008 14:50      20.0   9.0  20.4  12.4  49  1001   ---    SW    43    43   ---   1.0 Few Clouds/
28/11/2008 15:50      19.0   9.0  19.6  10.7  52  1001   ---    SW    47    47   ---   1.0 Few Clouds/
28/11/2008 16:50      19.0   8.0  19.4  11.5  49  1002   ---   WSW    34    34   ---   1.0 Few Clouds/
28/11/2008 17:50      18.0  10.0  19.0   9.6  60  1003   ---   WSW    39    39   ---   1.0 Scattered Clouds/
28/11/2008 18:50      17.0  11.0  18.5   8.0  68  1003   ---   WSW    39    39   ---   0.5 Broken Clouds/
28/11/2008 19:50      17.0  11.0  18.5   7.7  68  1004   ---     W    43    43   ---   0.5 Broken Clouds/
28/11/2008 20:50      17.0  11.0  18.5   7.7  68  1004   ---     W    43    43   ---   0.8 Broken Clouds/
28/11/2008 21:50      16.0   9.0  17.2   6.4  63  1005   ---     W    39    56   ---   0.8 Broken Clouds/
28/11/2008 22:50      16.0   9.0  17.2   5.6  63  1005   ---    SW   166   166   ---   0.8 Broken Clouds/
28/11/2008 23:50      16.0   9.0  17.2   6.9  63  1005   ---    SW    34    34   ---   0.8 Scattered Clouds/
29/11/2008 00:50      16.0   9.0  17.2   6.3  63  1006   ---   WSW    40    40   ---   0.8 Scattered Clouds/
29/11/2008 01:50      16.0   9.0  17.2   6.1  63  1006   ---   WSW    43    43   ---   0.8 Scattered Clouds/
29/11/2008 02:50      15.0   8.0  16.2   4.5  63  1006   ---    SW    43    43   ---   0.8 Scattered Clouds/
29/11/2008 03:50      15.0  10.0  16.8   4.7  72  1007   ---    SW    40    40   ---   0.8 Scattered Clouds/
29/11/2008 04:50      14.0  10.0  16.1   3.2  77  1006   ---    SW    40    40   ---   0.8 Broken Clouds/
29/11/2008 05:50      15.0   9.0  16.5   4.7  67  1007   ---    SW    40    40   ---   0.8 Broken Clouds/
29/11/2008 06:50      15.0   9.0  16.5   4.7  67  1008   ---   SSW    40    40   ---   0.8 Broken Clouds/
29/11/2008 07:50      14.0   9.0  15.8   4.6  72  1009   ---   SSW    27    27   ---   0.9 Broken Clouds/
29/11/2008 08:50      14.0   9.0  15.8   5.8  72  1009   ---     S    21    21   ---   0.9 Broken Clouds/
29/11/2008 09:50      15.0   9.0  16.5   5.3  67  1011   ---     S    34    34   ---   0.7 Broken Clouds/
29/11/2008 10:50      15.0   9.0  16.5   6.1  67  1011   ---    SW    27    27   ---   0.7 Broken Clouds/
29/11/2008 11:50      16.0  10.0  17.5   7.4  68  1011   ---     S    29    29   ---   0.7 Broken Clouds/
29/11/2008 12:50      16.0   9.0  17.2   7.0  63  1010   ---    SW    32    32   ---   0.7 Scattered Clouds/
29/11/2008 13:50      18.0  10.0  19.0  10.4  60  1010   ---    SW    29    29   ---   0.7 Scattered Clouds/
29/11/2008 14:20      18.0   9.0  18.8  10.6  56  1010   ---   SSW    27    27   ---   0.8 Scattered Clouds/
29/11/2008 15:50      17.0   8.0  17.7   9.1  55  1010   ---   SSW    27    27   ---   0.8 Few Clouds/
29/11/2008 16:50      16.0   7.0  16.7   8.4  55  1010   ---     S    23    23   ---   0.8 Few Clouds/
29/11/2008 17:50      15.0   7.0  15.9   7.6  59  1011   ---     S    19    19   ---   0.8 Few Clouds/
29/11/2008 18:50      16.0   7.0  16.7   7.4  55  1011   ---     S    29    53   ---   0.8 Few Clouds/
29/11/2008 19:50      15.0   6.0  15.7   7.6  55  1012   ---     S    19    40   ---   0.8 Few Clouds/
29/11/2008 20:50      16.0   6.0  16.5   9.6  51  1012   ---     S    18    18   ---   0.8 Few Clouds/
29/11/2008 21:50      15.0   6.0  15.7   4.9  55  1012   ---     S    37    37   ---   0.8 Few Clouds/
29/11/2008 22:50      15.0   4.0  15.3   6.1  48  1012   ---     S    27    27   ---   0.8 Few Clouds/
29/11/2008 23:50      16.0   4.0  16.2   6.1  45  1012   ---   SSE    43    66   ---   0.8 Few Clouds/
30/11/2008 00:50      17.0   7.0  17.5   7.7  52  1012   ---     S    43    64   ---   0.8 Few Clouds/
30/11/2008 01:50      17.0   7.0  17.5   7.5  52  1011   ---   SSE    47    47   ---   0.8 Few Clouds/
30/11/2008 02:50      16.0   7.0  16.7   6.5  55  1011   ---     S    37    60   ---   0.8 Few Clouds/
30/11/2008 03:50      16.0   8.0  16.9   8.4  59  1011   ---     S    23    23   ---   0.8 Few Clouds/
30/11/2008 04:50      16.0   7.0  16.7   7.0  55  1012   ---    SW    32    32   ---   0.8 Few Clouds/
30/11/2008 05:50      16.0   8.0  16.9   7.2  59  1012   ---     S    31    31   ---   0.8 Few Clouds/
30/11/2008 06:50      16.0   8.0  16.9   7.8  59  1012   ---     S    26    26   ---   0.8 Few Clouds/
30/11/2008 07:50      16.0   8.0  16.9   6.9  59  1013   ---     S    34    56   ---   --- /
30/11/2008 08:50      16.0   8.0  16.9   6.2  59  1013   ---     S    42    68   ---   --- /
30/11/2008 09:50      17.0   8.0  17.7   7.8  55  1014   ---     S    42    42   ---   1.0 Few Clouds/
30/11/2008 10:20      18.0   8.0  18.6   9.4  52  1014   ---     S    40    58   ---   1.0 Few Clouds/
30/11/2008 11:50      18.0   5.0  18.1   9.6  42  1013   ---     S    39    58   ---   --- /
30/11/2008 12:50      19.0   4.0  18.8  10.7  37  1011   ---     S    45    71   ---   --- /
30/11/2008 13:50      19.0   3.0  18.7  10.5  35  1010   ---     S    56    77   ---   --- /
30/11/2008 14:50      18.0   4.0  17.9   8.9  39  1009   ---     S    56    84   ---   --- /
30/11/2008 15:50      18.0   4.0  17.9   8.9  39  1009   ---     S    58    84   ---   --- /
30/11/2008 16:50      17.0   4.0  17.1   7.2  42  1009   ---     S    60    80   ---   --- /
30/11/2008 17:50      17.0   5.0  17.2   7.2  45  1010   ---     S    55    84   ---   --- /
30/11/2008 18:50      17.0   6.0  17.4   7.2  48  1009   ---     S    64    88   ---   --- /
30/11/2008 19:50      17.0   7.0  17.5   7.2  52  1010   ---     S    60    95   ---   --- /
30/11/2008 20:50      17.0   6.0  17.4   7.3  48  1009   ---     S    50    80   ---   --- /
30/11/2008 21:50      17.0   7.0  17.5   7.2  52  1009   ---     S    56    82   ---   --- /
30/11/2008 22:50      17.0   8.0  17.7   7.2  55  1009   ---     S    60    95   ---   --- /
30/11/2008 23:50      17.0   8.0  17.7   8.1  55  1011   ---     S    37    37   ---   --- /
01/12/2008 01:50      17.0   8.0  17.7   7.5  55  1011   ---     S    47    66   ---   --- /
01/12/2008 02:50      17.0   8.0  17.7   7.3  55  1010   ---     S    50    76   ---   --- /
01/12/2008 03:50      17.0   6.0  17.4   7.7  48  1010   ---     S    43    63   ---   --- /
01/12/2008 04:50      16.0   5.0  16.3   6.4  48  1010   ---     S    39    39   ---   --- /
01/12/2008 05:50      16.0   6.0  16.5   7.0  51  1011   ---     S    32    32   ---   --- /
01/12/2008 06:50      16.0   7.0  16.7   7.2  55  1011   ---   SSW    31    31   ---   --- /
01/12/2008 07:50      16.0   5.0  16.3   7.8  48  1012   ---   SSW    26    26   ---   0.7 Few Clouds/
01/12/2008 09:50      17.0   6.0  17.4  10.4  48  1013   ---     S    19    19   ---   0.7 Few Clouds/
01/12/2008 10:50      18.0   7.0  18.4  11.8  49  1013   ---   SSW    19    19   ---   0.7 Few Clouds/
01/12/2008 11:50      18.0   8.0  18.6  11.8  52  1013   ---    SW    19    19   ---   0.7 Few Clouds/
01/12/2008 12:50      18.0   9.0  18.8  11.6  56  1012   ---   WSW    21    21   ---   0.7 Few Clouds/
01/12/2008 13:50      18.0   8.0  18.6  11.8  52  1012   ---   WSW    19    19   ---   --- /
01/12/2008 14:50      18.0   8.0  18.6  11.3  52  1012   ---     W    23    23   ---   --- /
01/12/2008 15:50      18.0   9.0  18.8  11.3  56  1012   ---   WSW    23    23   ---   --- /
01/12/2008 16:50      16.0   6.0  16.5   9.6  51  1012   ---    SW    18    18   ---   --- /
01/12/2008 17:50      15.0   5.0  15.5   8.2  51  1013   ---     S    18    18   ---   --- /
01/12/2008 18:50      15.0   6.0  15.7   8.6  55  1013   ---   SSW    16    16   ---   --- /
01/12/2008 19:50      13.0   5.0  13.9   6.6  58  1014   ---     S    14    14   ---   --- /
01/12/2008 20:50      13.0   5.0  13.9   7.4  58  1014   ---     S    13    13   ---   --- /
01/12/2008 21:50      14.0   5.0  14.7   7.2  55  1014   ---   SSW    16    16   ---   --- /
01/12/2008 22:50      13.0   4.0  13.7   6.6  54  1014   ---     S    14    14   ---   --- /
01/12/2008 23:50      12.0   3.0  12.7   8.5  54  1014   ---     S     8     8   ---   --- /
02/12/2008 00:50      13.0   2.0  13.3   8.9  47  1013   ---   SSE    10    10   ---   --- /
02/12/2008 01:50      13.0   2.0  13.3  13.0  47  1013   ---     N     5     5   ---   --- /
02/12/2008 02:50      10.0   1.0  10.6   6.2  54  1013   ---     S     8     8   ---   --- /
02/12/2008 03:50      11.0   0.0  11.3  11.0  47  1012   ---     N     3     3   ---   --- /
02/12/2008 04:50      11.0  -1.0  11.1  11.0  43  1012   ---     N     5     5   ---   --- /
02/12/2008 05:50       9.0   1.0   9.8   9.0  57  1012   ---     N     5     5   ---   --- /
02/12/2008 06:50      11.0  -1.0  11.1  11.0  43  1011   ---     N     5     5   ---   --- /
02/12/2008 07:50      11.0  -1.0  11.1  11.0  43  1011   ---   WSW     5     5   ---   --- /
02/12/2008 08:50      13.0   5.0  13.9  13.0  58  1011   ---     S     2     2   ---   --- /
02/12/2008 09:50      15.0   5.0  15.5  15.0  51  1011   ---     N     5     5   ---   --- /
02/12/2008 10:50      16.0   6.0  16.5  14.4  51  1011   ---    NE     6     6   ---   5.4 Broken Clouds/
02/12/2008 11:50      18.0   9.0  18.8  18.0  56  1011   ---     S     5     5   ---   5.4 Broken Clouds/
02/12/2008 12:50      19.0   7.0  19.2  13.7  46  1009   ---   SSW    18    42   ---   5.4 Broken Clouds/
02/12/2008 13:50      19.0   9.0  19.6  16.2  52  1009   ---   SSW    10    10   ---   0.6 Broken Clouds/
02/12/2008 14:50      19.0   7.0  19.2  11.7  46  1008   ---     W    31    31   ---   0.6 Scattered Clouds/
02/12/2008 15:50      16.0   8.0  16.9  14.4  59  1008   ---    SE     6     6   ---   0.9 Scattered Clouds/
02/12/2008 16:50      15.0  10.0  16.8  11.3  72  1009   ---     S    10    10   ---   0.9 Scattered Clouds/
02/12/2008 17:50      15.0   9.0  16.5  12.0  67  1008   ---   SSE     8     8   ---   --- / Drizzle
02/12/2008 18:50      14.0   9.0  15.8  10.1  72  1008   ---     S    10    10   ---   0.7 Scattered Clouds/
02/12/2008 19:50      14.0   9.0  15.8  10.8  72  1008   ---     S     8     8   ---   0.7 Scattered Clouds/
02/12/2008 20:50      14.0   9.0  15.8  10.8  72  1008   ---   SSE     8     8   ---   0.7 Scattered Clouds/
02/12/2008 21:50      14.0   9.0  15.8  14.0  72  1008   ---   ENE     5     5   ---   0.7 Scattered Clouds/
02/12/2008 22:50      16.0  11.0  17.8  11.3  72  1007   ---    NE    13    13   ---   --- Overcast/ Light Rain
02/12/2008 23:50      14.0  10.0  16.1   8.0  77  1007   ---   ENE    14    14   ---   --- Overcast/ Light Rain
03/12/2008 00:50      13.0  10.0  15.5   7.4  82  1007   ---   ENE    13    13   ---   0.6 Scattered Clouds/
03/12/2008 01:50      15.0  11.0  17.1  10.0  77  1006   ---    NE    13    13   ---   0.6 Scattered Clouds/
03/12/2008 02:50      16.0  10.0  17.5   9.6  68  1006   ---   NNE    18    18   ---   0.6 Scattered Clouds/
03/12/2008 03:50      16.0  10.0  17.5   8.4  68  1005   ---   NNE    23    23   ---   0.6 Broken Clouds/
03/12/2008 04:50      16.0  10.0  17.5   9.6  68  1006   ---   NNE    18    18   ---   0.6 Broken Clouds/
03/12/2008 05:50      13.0   9.0  15.1   5.5  77  1005   ---     E    18    18   ---   0.6 Broken Clouds/
03/12/2008 06:50      14.0   9.0  15.8   5.8  72  1005   ---   ENE    21    21   ---   --- Overcast/ Light Rain
03/12/2008 07:50      14.0   9.0  15.8   8.0  72  1006   ---     E    14    14   ---   0.6 Broken Clouds/
03/12/2008 08:50      13.0   9.0  15.1   4.0  77  1007   ---   WNW    23    23   ---   0.6 Broken Clouds/
03/12/2008 09:50      13.0  10.0  15.5   9.7  82  1007   ---     N     8     8   ---   --- Overcast/ Rain
03/12/2008 10:50      12.0   9.0  14.5  12.0  82  1007   ---    SW     5     5   ---   --- Overcast/ Rain
03/12/2008 11:50      12.0   9.0  14.5   3.0  82  1006   ---     E    21    21   ---   --- Overcast/ Rain
03/12/2008 12:50      13.0  10.0  15.5   5.5  82  1006   ---   ENE    18    18   ---   --- Overcast/ Light Rain
03/12/2008 13:50      12.0  10.0  14.9   6.2  88  1005   ---     E    13    13   ---   --- Overcast/ Rain
03/12/2008 14:50      15.0   9.0  16.5   4.9  67  1005   ---     N    37    37   ---   --- Overcast/ Light Rain
03/12/2008 15:50      15.0   9.0  16.5   4.9  67  1005   ---     N    39    39   ---   0.8 Broken Clouds/
03/12/2008 16:50      15.0   8.0  16.2   4.9  63  1005   ---     N    39    39   ---   0.8 Broken Clouds/
03/12/2008 17:50      15.0   8.0  16.2   5.6  63  1005   ---     N    31    31   ---   0.8 Broken Clouds/
03/12/2008 18:50      15.0   7.0  15.9   6.4  59  1006   ---     N    26    26   ---   0.8 Broken Clouds/
03/12/2008 19:50      15.0   8.0  16.2   5.6  63  1005   ---     N    31    31   ---   0.8 Broken Clouds/
03/12/2008 20:50      15.0   8.0  16.2   5.4  63  1005   ---     N    32    32   ---   0.8 Broken Clouds/
03/12/2008 21:20      15.0   8.0  16.2   5.3  63  1005   ---     N    34    34   ---   0.8 Broken Clouds/
03/12/2008 22:50      15.0   8.0  16.2   4.7  63  1005   ---     N    40    40   ---   0.8 Broken Clouds/
03/12/2008 23:50      15.0   8.0  16.2   4.5  63  1005   ---     N    43    43   ---   0.8 Broken Clouds/
04/12/2008 00:50      15.0   8.0  16.2   4.3  63  1003   ---     N    47    47   ---   0.8 Broken Clouds/
04/12/2008 01:50      15.0   8.0  16.2   4.7  63  1003   ---   NNW    42    42   ---   0.8 Broken Clouds/
04/12/2008 02:50      15.0   7.0  15.9   4.7  59  1003   ---   NNW    40    40   ---   0.8 Broken Clouds/
04/12/2008 03:50      15.0   7.0  15.9   4.9  59  1003   ---   NNW    37    37   ---   0.8 Broken Clouds/
04/12/2008 04:50      14.0   7.0  15.2   3.2  63  1002   ---    NW    40    40   ---   0.8 Broken Clouds/
04/12/2008 05:50      15.0   7.0  15.9   4.9  59  1003   ---   NNW    37    37   ---   0.8 Broken Clouds/
04/12/2008 06:50      15.0   8.0  16.2   4.9  63  1003   ---   NNW    39    39   ---   0.7 Broken Clouds/
04/12/2008 07:50      15.0   7.0  15.9   4.9  59  1004   ---    NW    39    39   ---   0.7 Broken Clouds/
04/12/2008 08:50      15.0   7.0  15.9   5.3  59  1005   ---   NNW    34    34   ---   0.7 Broken Clouds/
04/12/2008 09:50      15.0   7.0  15.9   4.9  59  1006   ---    NW    37    37   ---   0.7 Broken Clouds/
04/12/2008 11:50      15.0   7.0  15.9   5.6  59  1007   ---    NW    31    31   ---   0.7 Broken Clouds/
04/12/2008 12:50      14.0   9.0  15.8   5.5  72  1008   ---   WNW    23    23   ---   0.6 Broken Clouds/
04/12/2008 13:50      13.0   8.0  14.8   4.0  72  1008   ---    NW    23    23   ---   0.7 Broken Clouds/
04/12/2008 14:50      15.0   7.0  15.9   5.6  59  1009   ---     W    31    31   ---   0.7 Broken Clouds/
04/12/2008 15:20      15.0   7.0  15.9   6.1  59  1010   ---     W    27    27   ---   0.7 Broken Clouds/
04/12/2008 16:50      15.0   8.0  16.2   5.6  63  1011   ---   WNW    31    31   ---   0.6 Broken Clouds/
04/12/2008 17:50      16.0   8.0  16.9   7.4  59  1012   ---     W    29    29   ---   0.6 Broken Clouds/
04/12/2008 18:50      14.0   7.0  15.2   6.9  63  1013   ---   SSW    18    18   ---   0.6 Broken Clouds/
04/12/2008 19:50      14.0  13.0  17.4   4.9  94  1014   ---     S    26    26   ---   0.6 Broken Clouds/
04/12/2008 20:50      14.0   7.0  15.2   5.8  63  1014   ---     S    21    21   ---   0.9 Scattered Clouds/
04/12/2008 21:50      14.0   7.0  15.2   4.9  63  1014   ---   SSW    26    26   ---   0.9 Scattered Clouds/
04/12/2008 22:50      14.0   8.0  15.5   4.9  67  1015   ---   SSW    26    26   ---   0.9 Scattered Clouds/
04/12/2008 23:50      14.0   8.0  15.5   4.1  67  1015   ---   SSW    31    31   ---   0.9 Scattered Clouds/
05/12/2008 00:50      14.0   8.0  15.5   4.6  67  1015   ---     S    27    27   ---   0.9 Scattered Clouds/
05/12/2008 01:50      14.0   8.0  15.5   4.1  67  1015   ---   SSW    31    31   ---   0.9 Few Clouds/
05/12/2008 02:50      15.0   8.0  16.2   5.6  63  1015   ---     S    31    31   ---   0.9 Few Clouds/
05/12/2008 03:50      15.0   7.0  15.9   4.9  59  1015   ---     S    39    39   ---   0.9 Scattered Clouds/
05/12/2008 04:50      15.0   7.0  15.9   5.9  59  1015   ---     S    29    29   ---   0.9 Scattered Clouds/
05/12/2008 05:50      15.0   7.0  15.9   5.4  59  1015   ---     S    32    32   ---   0.9 Scattered Clouds/
05/12/2008 06:50      15.0   7.0  15.9   6.1  59  1015   ---   SSW    27    27   ---   0.9 Scattered Clouds/
05/12/2008 07:50      15.0   7.0  15.9   7.6  59  1016   ---     S    19    19   ---   0.9 Scattered Clouds/
05/12/2008 08:50      15.0   6.0  15.7   7.6  55  1016   ---     S    19    19   ---   1.0 Few Clouds/
05/12/2008 09:50      16.0   7.0  16.7   7.2  55  1017   ---     S    31    55   ---   1.0 Few Clouds/
05/12/2008 10:50      16.0   8.0  16.9   6.4  59  1016   ---   SSW    39    64   ---   1.0 Few Clouds/
05/12/2008 11:50      16.0   7.0  16.7   5.9  55  1015   ---   SSW    47    47   ---   0.7 Few Clouds/
05/12/2008 12:50      17.0   6.0  17.4   8.0  48  1015   ---     S    39    63   ---   0.7 Few Clouds/
05/12/2008 13:50      17.0   7.0  17.5   7.6  52  1014   ---   SSW    45    45   ---   0.7 Few Clouds/
05/12/2008 14:50      16.0   6.0  16.5   5.7  51  1014   ---   SSW    50    50   ---   0.7 Few Clouds/
05/12/2008 15:50      16.0   6.0  16.5   6.0  51  1014   ---   SSW    45    45   ---   0.7 Few Clouds/
05/12/2008 16:50      15.0   7.0  15.9   4.7  59  1014   ---     S    40    68   ---   0.7 Few Clouds/
05/12/2008 17:50      14.0   6.0  14.9   3.8  59  1014   ---     S    34    53   ---   0.7 Few Clouds/
05/12/2008 18:50      14.0   6.0  14.9   3.3  59  1015   ---     S    39    64   ---   0.7 Few Clouds/
05/12/2008 19:50      14.0   6.0  14.9   3.1  59  1015   ---   SSW    42    58   ---   0.7 Few Clouds/
05/12/2008 20:50      14.0   7.0  15.2   3.1  63  1015   ---   SSW    42    63   ---   0.7 Few Clouds/
05/12/2008 21:50      14.0   6.0  14.9   3.1  59  1015   ---     S    42    66   ---   0.7 Few Clouds/
05/12/2008 22:50      14.0   6.0  14.9   3.3  59  1015   ---     S    39    68   ---   0.7 Scattered Clouds/
05/12/2008 23:50      15.0   6.0  15.7   5.3  55  1015   ---     S    34    53   ---   0.7 Scattered Clouds/
06/12/2008 00:50      15.0   7.0  15.9   4.7  59  1015   ---     S    42    42   ---   1.0 Scattered Clouds/
06/12/2008 01:50      15.0   7.0  15.9   4.7  59  1015   ---     S    40    40   ---   1.0 Few Clouds/
06/12/2008 02:50      15.0   8.0  16.2   4.9  63  1015   ---   SSW    39    56   ---   1.0 Scattered Clouds/
06/12/2008 03:50      15.0   8.0  16.2   4.9  63  1015   ---     S    39    60   ---   1.0 Scattered Clouds/
06/12/2008 04:50      15.0   8.0  16.2   4.9  63  1015   ---   SSW    39    39   ---   1.0 Scattered Clouds/
06/12/2008 05:50      15.0   9.0  16.5   4.7  67  1015   ---     S    40    40   ---   1.0 Broken Clouds/
06/12/2008 06:50      15.0   9.0  16.5   4.9  67  1015   ---     S    37    37   ---   1.0 Broken Clouds/
06/12/2008 07:50      15.0   9.0  16.5   5.3  67  1015   ---     S    34    34   ---   0.8 Broken Clouds/
06/12/2008 08:50      15.0   9.0  16.5   5.6  67  1016   ---     S    31    31   ---   0.8 Few Clouds/
06/12/2008 09:50      16.0  10.0  17.5   7.6  68  1016   ---     S    27    27   ---   0.8 Few Clouds/
06/12/2008 10:50      17.0  10.0  18.2   9.8  63  1017   ---   SSW    23    23   ---   0.8 Few Clouds/
06/12/2008 11:50      18.0  11.0  19.2  11.3  64  1016   ---   SSW    23    23   ---   0.6 Few Clouds/
06/12/2008 12:50      17.0  12.0  18.8   9.3  72  1016   ---     W    26    26   ---   0.6 Scattered Clouds/
06/12/2008 13:50      17.0  12.0  18.8   9.3  72  1015   ---   WNW    26    26   ---   0.5 Scattered Clouds/
06/12/2008 14:50      17.0  12.0  18.8   9.3  72  1015   ---     W    26    26   ---   0.5 Few Clouds/
06/12/2008 15:20      17.0  11.0  18.5   9.1  68  1015   ---     W    27    27   ---   0.5 Few Clouds/
06/12/2008 16:50      17.0   9.0  18.0   9.1  59  1015   ---     W    27    27   ---   0.6 Few Clouds/
06/12/2008 17:50      17.0   8.0  17.7   9.1  55  1016   ---     W    27    27   ---   0.6 Few Clouds/
06/12/2008 18:50      16.0  10.0  17.5   7.8  68  1016   ---   WSW    26    26   ---   0.9 Few Clouds/
06/12/2008 19:50      14.0   8.0  15.5   6.9  67  1016   ---     S    18    18   ---   0.6 Scattered Clouds/
06/12/2008 20:50      17.0  10.0  18.2   8.7  63  1016   ---     W    31    31   ---   0.6 Broken Clouds/
06/12/2008 21:50      17.0  11.0  18.5   8.5  68  1016   ---     W    32    32   ---   0.6 Scattered Clouds/
06/12/2008 22:50      17.0  10.0  18.2   8.1  63  1016   ---     W    37    37   ---   0.6 Scattered Clouds/
06/12/2008 23:50      17.0   9.0  18.0   8.0  59  1017   ---     W    39    39   ---   0.6 Scattered Clouds/
07/12/2008 00:50      17.0   9.0  18.0   8.5  59  1017   ---     W    32    32   ---   0.6 Scattered Clouds/
07/12/2008 01:50      17.0   9.0  18.0   8.9  59  1017   ---   WNW    29    29   ---   0.6 Scattered Clouds/
07/12/2008 02:50      16.0  10.0  17.5   7.2  68   ---   ---   WNW    31    31   ---   0.6 Scattered Clouds/
07/12/2008 03:50      16.0  10.0  17.5   7.8  68   ---   ---   WNW    26    26   ---   0.9 Scattered Clouds/
07/12/2008 04:50      16.0   8.0  16.9   7.8  59   ---   ---    NW    26    26   ---   0.9 Scattered Clouds/
07/12/2008 05:50      16.0   8.0  16.9   8.7  59   ---   ---   WNW    21    21   ---   0.9 Scattered Clouds/
07/12/2008 06:50      16.0   8.0  16.9   9.0  59   ---   ---     W    19    19   ---   0.8 Scattered Clouds/
07/12/2008 07:50      16.0   8.0  16.9   9.9  59   ---   ---     W    16    16   ---   0.8 Scattered Clouds/
07/12/2008 08:50      16.0   8.0  16.9   9.0  59   ---   ---     W    19    19   ---   0.8 Scattered Clouds/
07/12/2008 09:50      16.0   9.0  17.2   9.0  63   ---   ---   WNW    19    19   ---   0.8 Scattered Clouds/
07/12/2008 10:50      16.0   9.0  17.2   9.0  63   ---   ---     W    19    19   ---   0.8 Scattered Clouds/
07/12/2008 11:50      16.0   8.0  16.9   8.7  59   ---   ---     W    21    21   ---   0.8 Few Clouds/
07/12/2008 12:50      16.0   9.0  17.2   8.7  63   ---   ---     W    21    21   ---   0.8 Few Clouds/
07/12/2008 13:50      16.0   9.0  17.2   9.0  63   ---   ---     W    19    19   ---   0.8 Few Clouds/
07/12/2008 14:50      16.0   9.0  17.2   9.9  63   ---   ---     W    16    16   ---   0.8 Few Clouds/
07/12/2008 15:50      16.0   9.0  17.2   7.4  63   ---   ---   WNW    29    29   ---   0.8 Few Clouds/
07/12/2008 16:50      16.0   8.0  16.9   9.0  59   ---   ---   WNW    19    19   ---   0.8 Few Clouds/
07/12/2008 17:50      16.0   8.0  16.9   8.7  59   ---   ---   WNW    21    21   ---   0.8 Few Clouds/
07/12/2008 18:50      16.0   8.0  16.9   9.6  59   ---   ---   WNW    18    18   ---   0.8 Few Clouds/
07/12/2008 19:50      16.0   9.0  17.2   9.9  63   ---   ---     N    16    16   ---   0.8 Few Clouds/
07/12/2008 20:50      15.0   8.0  16.2  11.3  63   ---   ---     N    10    10   ---   0.8 Scattered Clouds/
07/12/2008 21:50      15.0   7.0  15.9  11.3  59   ---   ---   NNW    10    10   ---   0.8 Scattered Clouds/
07/12/2008 22:50      15.0   7.0  15.9   8.6  59   ---   ---   NNW    16    16   ---   0.8 Few Clouds/
07/12/2008 23:50      15.0   5.0  15.5   8.6  51   ---   ---    NW    16    16   ---   0.8 Few Clouds/
08/12/2008 00:50      15.0   6.0  15.7   9.3  55   ---   ---   WNW    14    14   ---   0.8 Few Clouds/
08/12/2008 01:50      11.0   5.0  12.4  11.0  66   ---   ---     N     5     5   ---   0.8 Few Clouds/
08/12/2008 02:50      11.0   4.0  12.1  11.0  62   ---   ---     N     2     2   ---   0.8 Few Clouds/
08/12/2008 03:50      11.0   4.0  12.1  11.0  62   ---   ---     N     5     5   ---   0.8 Few Clouds/
08/12/2008 04:50      10.0   4.0  11.4   5.3  66   ---   ---     S    10    10   ---   0.8 Few Clouds/
08/12/2008 05:50      11.0   6.0  12.7   6.5  71   ---   ---     S    10    10   ---   0.8 Scattered Clouds/
08/12/2008 06:50      12.0   6.0  13.4  12.0  67   ---   ---     N     5     5   ---   0.8 Broken Clouds/
08/12/2008 07:50      11.0   6.0  12.7   9.0  71   ---   ---   SSW     6     6   ---   0.8 Broken Clouds/
08/12/2008 08:50      12.0   8.0  14.1  12.0  77   ---   ---     S     5     5   ---   0.8 Scattered Clouds/
08/12/2008 08:50      12.0   8.0  14.1  12.0  77   ---   ---     S     5     5   ---   0.8 Scattered Clouds/None reported
08/12/2008 09:50      14.0   9.0  15.8  14.0  72   ---   ---     N     3     3   ---   0.8 Scattered Clouds/
08/12/2008 10:20      14.0   9.0  15.8  14.0  72   ---   ---     W     3     3   ---   0.8 Scattered Clouds/
08/12/2008 11:50      16.0   6.0  16.5   9.6  51   ---   ---    NE    18    18   ---   0.8 Scattered Clouds/
08/12/2008 12:50      16.0   7.0  16.7   8.7  55   ---   ---   NNE    21    21   ---   0.8 Scattered Clouds/
08/12/2008 13:50      16.0   6.0  16.5   9.0  51   ---   ---    NE    19    19   ---   0.9 Scattered Clouds/
08/12/2008 14:50      16.0   5.0  16.3   9.6  48   ---   ---    NE    18    18   ---   0.9 Few Clouds/
08/12/2008 15:50      15.0   5.0  15.5   8.2  51   ---   ---   ENE    18    18   ---   0.9 Few Clouds/
08/12/2008 16:50      13.0   5.0  13.9   5.5  58   ---   ---   ENE    18    18   ---   0.9 Few Clouds/
08/12/2008 17:50      13.0   5.0  13.9   6.6  58   ---   ---   ENE    14    14   ---   0.9 Few Clouds/
08/12/2008 18:50      12.0   4.0  12.9   7.7  58   ---   ---   ENE    10    10   ---   0.9 Few Clouds/
08/12/2008 19:50      13.0   4.0  13.7   7.4  54   ---   ---   ENE    13    13   ---   0.9 Few Clouds/
08/12/2008 20:50      13.0   4.0  13.7   7.4  54   ---   ---     E    13    13   ---   0.9 Few Clouds/
08/12/2008 21:50      12.0   4.0  12.9   6.2  58   ---   ---   ENE    13    13   ---   0.9 Scattered Clouds/
08/12/2008 22:50      13.0   4.0  13.7  13.0  54   ---   ---     N     3     3   ---   0.9 Scattered Clouds/
08/12/2008 23:50      12.0   3.0  12.7  12.0  54   ---   ---    SE     5     5   ---   0.9 Few Clouds/
09/12/2008 00:50      10.0   2.0  10.9   6.2  58   ---   ---    SE     8     8   ---   0.9 Few Clouds/
09/12/2008 01:50      11.0   3.0  11.9   7.3  58   ---   ---   SSE     8     8   ---   0.9 Few Clouds/
09/12/2008 02:50      10.0   2.0  10.9  10.0  58   ---   ---   NNW     2     2   ---   0.9 Few Clouds/
09/12/2008 03:50      10.0   2.0  10.9  10.0  58   ---   ---     N     5     5   ---   0.9 Few Clouds/
09/12/2008 04:50       8.0   2.0   9.4   8.0  66   ---   ---     N     5     5   ---   0.9 Few Clouds/
09/12/2008 05:50       9.0   1.0   9.8   9.0  57   ---   ---     S     5     5   ---   0.9 Few Clouds/
09/12/2008 06:50       9.0   2.0  10.1   9.0  62   ---   ---     N     3     3   ---   --- /
09/12/2008 07:50       9.0   2.0  10.1   9.0  62   ---   ---     N     3     3   ---   --- /
09/12/2008 08:50       9.0   4.0  10.7   9.0  71   ---   ---     N     5     5   ---   --- /
09/12/2008 09:50      14.0   5.0  14.7  14.0  55   ---   ---     N     2     2   ---   --- /
09/12/2008 10:50      15.0   4.0  15.3  13.3  48   ---   ---     E     6     6   ---   --- /
09/12/2008 11:50      15.0   6.0  15.7  15.0  55   ---   ---     N     2     2   ---   1.5 Few Clouds/
09/12/2008 12:50      15.0   4.0  15.3  13.3  48   ---   ---   NNE     6     6   ---   --- /
09/12/2008 13:50      16.0   4.0  16.2  16.0  45   ---   ---     N     5     5   ---   --- /
09/12/2008 14:50      16.0   5.0  16.3  14.4  48   ---   ---   NNE     6     6   ---   --- /
09/12/2008 15:50      15.0   7.0  15.9  12.0  59   ---   ---     E     8     8   ---   --- /
09/12/2008 16:50      14.0   7.0  15.2  14.0  63   ---   ---    SE     5     5   ---   --- /
09/12/2008 17:50      14.0   7.0  15.2  14.0  63   ---   ---     N     3     3   ---   --- /
09/12/2008 18:50      14.0   7.0  15.2  10.8  63   ---   ---   ENE     8     8   ---   0.8 Few Clouds/
09/12/2008 19:50      14.0   7.0  15.2  14.0  63   ---   ---     N     5     5   ---   0.8 Few Clouds/
09/12/2008 20:50      13.0   8.0  14.8  13.0  72   ---   ---     N     5     5   ---   0.8 Broken Clouds/
09/12/2008 21:50      13.0   8.0  14.8  13.0  72   ---   ---   ENE     5     5   ---   --- / Drizzle
09/12/2008 22:50      14.0   9.0  15.8   8.7  72   ---   ---   NNE    13    13   ---   0.8 Broken Clouds/
09/12/2008 23:50      13.0   9.0  15.1  11.2  77   ---   ---   NNE     6     6   ---   0.8 Broken Clouds/
10/12/2008 00:50      13.0   9.0  15.1  13.0  77   ---   ---   WSW     3     3   ---   0.8 Broken Clouds/
10/12/2008 01:50      13.0   9.0  15.1  11.2  77   ---   ---   NNE     6     6   ---   0.8 Broken Clouds/
10/12/2008 02:50      14.0   8.0  15.5  10.1  67  1015   ---    NE    10    10   ---   0.8 Broken Clouds/
10/12/2008 03:50      15.0   9.0  16.5  11.3  67  1014   ---    NE    10    10   ---   0.8 Broken Clouds/
10/12/2008 04:50      15.0   8.0  16.2  12.0  63  1014   ---     N     8     8   ---   0.8 Broken Clouds/
10/12/2008 05:50      15.0  10.0  16.8   6.1  72  1014   ---     S    27    27   ---   --- Overcast/ Rain
10/12/2008 06:50      15.0   9.0  16.5  15.0  67  1014   ---     N     3     3   ---   0.7 Broken Clouds/
10/12/2008 07:50      14.0  10.0  16.1  14.0  77  1013   ---     N     5     5   ---   0.8 Broken Clouds/
10/12/2008 08:50      17.0   9.0  18.0   8.4  59  1013   ---     S    34    34   ---   0.9 Broken Clouds/
10/12/2008 09:50      17.0   8.0  17.7   7.7  55  1013   ---     S    43    43   ---   --- Overcast/ Light Rain
10/12/2008 10:50      16.0  10.0  17.5   6.5  68  1013   ---     S    37    37   ---   0.6 Broken Clouds/
10/12/2008 11:50      14.0   9.0  15.8   4.9  72  1013   ---     S    26    26   ---   --- Overcast/ Light Rain
10/12/2008 12:50      14.0   9.0  15.8  10.1  72  1013   ---     W    10    10   ---   0.4 Broken Clouds/
10/12/2008 13:50      14.0  11.0  16.5   4.4  82  1011   ---   ENE    29    29   ---   0.7 Broken Clouds/
10/12/2008 14:20      15.0  11.0  17.1   7.3  77  1011   ---    NE    21    21   ---   0.7 Broken Clouds/
10/12/2008 15:50      16.0  13.0  18.5  16.0  82  1010   ---     N     0     0   ---   0.7 Broken Clouds/
10/12/2008 16:50      18.0  11.0  19.2  10.0  64  1009   ---     S    32    32   ---   0.9 Scattered Clouds/
10/12/2008 17:50      18.0  11.0  19.2  13.2  64  1009   ---     S    14    14   ---   0.7 Broken Clouds/
10/12/2008 18:50      18.0  11.0  19.2  10.8  64  1009   ---     S    26    26   ---   0.7 Broken Clouds/
10/12/2008 19:50      18.0  10.0  19.0  10.6  60  1009   ---     S    27    51   ---   0.7 Broken Clouds/
10/12/2008 20:50      19.0  10.0  19.8  12.0  56  1009   ---     S    27    27   ---   0.7 Broken Clouds/
10/12/2008 21:50      19.0   8.0  19.4  12.0  49  1008   ---   SSE    27    27   ---   0.7 Scattered Clouds/
10/12/2008 22:50      19.0   8.0  19.4  11.7  49  1008   ---     S    31    64   ---   0.7 Scattered Clouds/
10/12/2008 23:50      19.0  10.0  19.8  11.9  56  1008   ---     S    29    53   ---   0.7 Scattered Clouds/
11/12/2008 00:50      19.0  10.0  19.8  12.0  56  1006   ---     S    27    27   ---   0.7 Scattered Clouds/
11/12/2008 01:50      19.0  11.0  20.0  11.0  60  1005   ---     S    42    66   ---   0.7 Scattered Clouds/
11/12/2008 02:50      19.0  10.0  19.8  11.1  56  1004   ---     S    39    69   ---   0.8 Broken Clouds/
11/12/2008 03:50      20.0  10.0  20.6  12.3  53  1003   ---     S    45    71   ---   0.8 Broken Clouds/
11/12/2008 04:50      19.0  10.0  19.8  11.6  56  1002   ---     S    32    51   ---   0.8 Broken Clouds/
11/12/2008 05:50      14.0  11.0  16.5   2.4  82  1003   ---   SSW    58    58   ---   0.3 Broken Clouds/
11/12/2008 06:50      15.0  10.0  16.8   7.3  72  1001   ---   SSE    21    40   ---   0.4 Broken Clouds/
11/12/2008 07:50      13.0  11.0  15.9   5.5  88  1003   ---     S    18    18   ---   0.3 Broken Clouds/
11/12/2008 08:50      13.0  10.0  15.5   4.0  82  1003   ---     S    23    23   ---   0.3 Broken Clouds/
11/12/2008 09:50      13.0  10.0  15.5   5.8  82  1002   ---     S    16    16   ---   0.6 Broken Clouds/
11/12/2008 10:50      13.0   9.0  15.1   9.7  77  1001   ---     S     8     8   ---   --- / Thunderstorm
11/12/2008 11:50      14.0   9.0  15.8  14.0  72  1001   ---     N     3     3   ---   0.6 Broken Clouds/
11/12/2008 12:50      14.0   9.0  15.8   8.0  72  1002   ---     S    14    14   ---   0.6 Broken Clouds/
11/12/2008 13:50      14.0   9.0  15.8  10.8  72  1001   ---     S     8     8   ---   0.6 Broken Clouds/
11/12/2008 14:20      14.0  10.0  16.1  10.1  77  1000   ---     S    10    10   ---   0.6 Overcast/
11/12/2008 15:50      14.0  10.0  16.1  10.8  77  1001   ---     S     8     8   ---   0.7 Broken Clouds/
11/12/2008 16:50      13.0  10.0  15.5   8.9  82  1001   ---     S    10    10   ---   0.6 Broken Clouds/
11/12/2008 17:50      14.0  12.0  17.0  12.3  88  1000   ---    SW     6     6   ---   0.6 Broken Clouds/
11/12/2008 18:50      15.0  12.0  17.5   4.4  82  1001   ---     W    45    45   ---   --- Overcast/ Light Rain
11/12/2008 19:50      14.0  12.0  17.0   2.4  88  1001   ---   WNW    51    51   ---   0.5 Broken Clouds/
11/12/2008 20:50      13.0  11.0  15.9   0.8  88  1002   ---   WNW    63    63   ---   --- Overcast/ Heavy Rain
11/12/2008 21:50      14.0  10.0  16.1   2.9  77  1003   ---    NW    43    43   ---   --- Overcast/ Light Rain
11/12/2008 22:50      14.0   9.0  15.8   2.5  72  1004   ---   WNW    50    50   ---   --- Overcast/ Rain
11/12/2008 23:50      14.0   7.0  15.2   2.7  63  1005   ---   WNW    47    47   ---   0.5 Broken Clouds/
12/12/2008 00:50      13.0   6.0  14.2   1.1  62  1005   ---     W    47    68   ---   0.5 Broken Clouds/
12/12/2008 01:50      13.0   6.0  14.2   0.8  62  1005   ---     W    51    51   ---   --- / Mist
12/12/2008 02:50      13.0   6.0  14.2   0.9  62  1006   ---     W    50    50   ---   0.6 Broken Clouds/
12/12/2008 03:50      13.0   6.0  14.2   0.8  62  1006   ---     W    53    53   ---   0.6 Broken Clouds/
12/12/2008 04:50      12.0   5.0  13.1  -0.8  62  1006   ---     W    51    51   ---   0.6 Broken Clouds/
12/12/2008 05:50      12.0   5.0  13.1  -0.8  62  1006   ---     W    53    53   ---   --- Overcast/ Light Rain
12/12/2008 06:50      12.0   6.0  13.4   0.8  67  1007   ---    SW    32    32   ---   0.5 Broken Clouds/
12/12/2008 07:50      13.0   6.0  14.2   2.6  62  1007   ---   WSW    31    53   ---   0.5 Broken Clouds/
12/12/2008 08:50      13.0   4.0  13.7   0.9  54  1007   ---     W    50    50   ---   0.7 Broken Clouds/
12/12/2008 09:50      12.0   5.0  13.1  -0.1  62  1007   ---    SW    42    42   ---   0.7 Broken Clouds/
12/12/2008 10:50      14.0   5.0  14.7   2.5  55  1007   ---     W    50    50   ---   0.7 Broken Clouds/
12/12/2008 11:50      13.0   6.0  14.2   0.9  62  1007   ---     W    50    50   ---   0.5 Broken Clouds/
12/12/2008 12:50      14.0   7.0  15.2   2.4  63  1006   ---     W    55    55   ---   0.5 Broken Clouds/
12/12/2008 13:50      14.0   6.0  14.9   2.4  59  1006   ---     W    63    63   ---   0.5 Broken Clouds/
12/12/2008 14:50      14.0   7.0  15.2   2.4  63  1007   ---     W    58    58   ---   0.5 Broken Clouds/
12/12/2008 15:50      14.0   6.0  14.9   2.4  59  1008   ---     W    53    53   ---   0.5 Broken Clouds/
12/12/2008 16:50      14.0   7.0  15.2   2.9  63  1008   ---   WSW    43    43   ---   0.6 Broken Clouds/
12/12/2008 17:50      14.0   7.0  15.2   3.1  63  1009   ---   WSW    42    42   ---   0.6 Broken Clouds/
12/12/2008 18:50      14.0   6.0  14.9   2.7  59  1010   ---     W    47    47   ---   0.6 Broken Clouds/
12/12/2008 19:50      15.0   7.0  15.9   4.3  59  1010   ---     W    47    47   ---   0.6 Broken Clouds/
12/12/2008 20:50      14.0   7.0  15.2   2.7  63  1010   ---   WSW    47    47   ---   0.6 Scattered Clouds/
12/12/2008 21:50      14.0   6.0  14.9   2.9  59  1011   ---   WSW    43    43   ---   0.8 Scattered Clouds/
12/12/2008 22:50      14.0   5.0  14.7   2.4  55  1012   ---     W    58    84   ---   0.8 Broken Clouds/
12/12/2008 23:50      14.0   7.0  15.2   2.4  63  1012   ---     W    56    56   ---   0.8 Broken Clouds/
13/12/2008 00:50      14.0   6.0  14.9   5.5  59  1012   ---     W    23    23   ---   0.8 Broken Clouds/
13/12/2008 01:50      15.0   8.0  16.2   4.3  63  1012   ---     W    47    47   ---   --- Overcast/ Light Rain
13/12/2008 02:50      15.0   8.0  16.2   4.0  63  1012   ---     W    51    51   ---   0.7 Scattered Clouds/
13/12/2008 03:50      14.0   8.0  15.5   2.5  67  1012   ---     W    50    50   ---   0.7 Scattered Clouds/
13/12/2008 04:50      15.0   8.0  16.2   4.4  63  1012   ---     W    45    45   ---   0.9 Scattered Clouds/
13/12/2008 05:50      14.0   7.0  15.2   2.8  63  1012   ---     W    45    45   ---   0.9 Scattered Clouds/
13/12/2008 06:50      15.0   8.0  16.2   4.3  63  1012   ---     W    47    47   ---   0.9 Scattered Clouds/
13/12/2008 07:50      15.0   7.0  15.9   4.1  59  1013   ---     W    50    50   ---   0.9 Scattered Clouds/
13/12/2008 08:50      15.0   8.0  16.2   4.4  63  1013   ---     W    45    45   ---   0.9 Scattered Clouds/
13/12/2008 09:50      15.0   8.0  16.2   4.4  63  1014   ---     W    45    45   ---   0.9 Scattered Clouds/
13/12/2008 10:50      15.0   7.0  15.9   4.9  59  1014   ---     W    39    39   ---   0.9 Scattered Clouds/
13/12/2008 11:50      15.0   8.0  16.2   4.9  63  1014   ---     W    39    39   ---   0.9 Scattered Clouds/
13/12/2008 12:50      15.0   8.0  16.2   4.9  63  1013   ---     W    39    39   ---   0.9 Scattered Clouds/
13/12/2008 13:50      15.0   7.0  15.9   6.1  59  1013   ---   WSW    27    27   ---   0.9 Scattered Clouds/
13/12/2008 14:50      15.0   7.0  15.9   6.1  59  1013   ---   WSW    27    27   ---   0.9 Broken Clouds/
13/12/2008 15:50      15.0   8.0  16.2   6.9  63  1012   ---   WSW    23    23   ---   0.9 Broken Clouds/
13/12/2008 16:50      15.0   7.0  15.9   7.3  59  1013   ---   WSW    21    21   ---   0.9 Scattered Clouds/
13/12/2008 17:50      15.0   7.0  15.9   7.3  59  1013   ---     W    21    21   ---   0.9 Scattered Clouds/
13/12/2008 18:50      13.0   6.0  14.2   7.4  62  1013   ---     S    13    13   ---   0.9 Scattered Clouds/
13/12/2008 19:50      13.0   7.0  14.4   7.4  67  1013   ---   SSE    13    13   ---   0.9 Scattered Clouds/
13/12/2008 20:50      13.0   7.0  14.4   7.4  67  1013   ---     S    13    13   ---   0.9 Scattered Clouds/
13/12/2008 21:50      14.0   8.0  15.5   5.8  67  1013   ---     S    21    21   ---   0.9 Scattered Clouds/
13/12/2008 22:50      14.0   8.0  15.5   5.5  67  1013   ---     S    23    23   ---   0.9 Scattered Clouds/
13/12/2008 23:50      14.0   7.0  15.2   5.8  63  1012   ---     S    21    21   ---   0.9 Scattered Clouds/
14/12/2008 00:50      13.0   7.0  14.4   9.7  67  1011   ---   SSE     8     8   ---   0.9 Scattered Clouds/
14/12/2008 01:50      13.0   6.0  14.2  13.0  62  1010   ---     N     3     3   ---   0.9 Scattered Clouds/
14/12/2008 02:50      14.0   6.0  14.9   8.0  59   ---   ---     S    14    14   ---   0.9 Scattered Clouds/
14/12/2008 03:50      13.0   7.0  14.4   7.4  67   ---   ---   SSE    13    13   ---   0.9 Scattered Clouds/
14/12/2008 04:50      13.0   7.0  14.4   8.9  67   ---   ---     S    10    10   ---   0.9 Scattered Clouds/
14/12/2008 05:50      13.0   7.0  14.4   6.6  67   ---   ---     S    14    14   ---   0.7 Broken Clouds/
14/12/2008 06:50      13.0   6.0  14.2   4.8  62   ---   ---     S    19    19   ---   0.7 Scattered Clouds/
14/12/2008 07:50      13.0   6.0  14.2   5.8  62   ---   ---     S    16    16   ---   0.7 Broken Clouds/
14/12/2008 08:50      13.0   6.0  14.2   7.4  62   ---   ---     S    13    13   ---   0.7 Scattered Clouds/
14/12/2008 09:50      14.0   7.0  15.2   5.8  63   ---   ---   SSW    21    47   ---   0.7 Scattered Clouds/
14/12/2008 10:50      15.0   7.0  15.9   6.4  59   ---   ---   SSW    26    50   ---   0.7 Scattered Clouds/
14/12/2008 11:50      15.0   7.0  15.9   6.1  59   ---   ---     S    27    27   ---   0.8 Scattered Clouds/
14/12/2008 12:50      16.0   6.0  16.5   6.9  51   ---   ---   SSW    34    58   ---   0.8 Scattered Clouds/
14/12/2008 13:50      16.0   6.0  16.5   7.4  51   ---   ---     S    29    29   ---   0.8 Few Clouds/
14/12/2008 14:50      16.0   5.0  16.3   6.3  48   ---   ---     S    40    40   ---   0.8 Few Clouds/
14/12/2008 15:50      15.0   6.0  15.7   5.6  55   ---   ---   SSW    31    31   ---   0.8 Few Clouds/
14/12/2008 16:20      15.0   6.0  15.7   5.6  55   ---   ---     S    31    31   ---   0.9 Scattered Clouds/
14/12/2008 17:50      15.0   4.0  15.3   4.0  48  1005   ---     S    56    79   ---   0.9 Few Clouds/
14/12/2008 18:50      15.0   5.0  15.5   4.0  51  1005   ---     S    51    76   ---   0.9 Few Clouds/
14/12/2008 19:50      15.0   6.0  15.7   4.5  55  1006   ---   SSW    43    43   ---   0.9 Few Clouds/
14/12/2008 20:50      15.0   6.0  15.7   4.9  55  1006   ---     S    37    66   ---   0.9 Few Clouds/
14/12/2008 21:50      15.0   7.0  15.9   4.9  59  1007   ---     S    39    58   ---   0.9 Few Clouds/
14/12/2008 22:50      15.0   7.0  15.9   5.6  59  1007   ---     S    31    31   ---   0.9 Scattered Clouds/
14/12/2008 23:20      15.0   7.0  15.9   5.9  59  1007   ---     S    29    47   ---   0.9 Scattered Clouds/
15/12/2008 00:50      16.0   7.0  16.7   6.9  55  1007   ---   SSW    34    64   ---   0.5 Scattered Clouds/
15/12/2008 01:50      15.0   5.0  15.5   7.6  51  1006   ---     S    19    37   ---   0.5 Scattered Clouds/
15/12/2008 02:50      16.0   5.0  16.3   7.6  48  1006   ---     S    27    56   ---   0.5 Scattered Clouds/
15/12/2008 03:50      16.0   6.0  16.5   5.6  51  1005   ---     S    55    76   ---   0.5 Scattered Clouds/
15/12/2008 04:50      16.0   8.0  16.9   5.6  59  1005   ---     S    53    79   ---   0.5 Scattered Clouds/
15/12/2008 05:50      16.0   7.0  16.7   5.6  55  1005   ---     S    53    74   ---   0.5 Scattered Clouds/
15/12/2008 06:50      17.0   4.0  17.1   7.2  42  1006   ---     S    53    71   ---   0.6 Scattered Clouds/
15/12/2008 07:50      17.0   7.0  17.5   7.3  52  1006   ---     S    50    74   ---   0.6 Scattered Clouds/
15/12/2008 08:50      17.0   7.0  17.5   8.0  52  1007   ---     S    39    60   ---   0.6 Scattered Clouds/
15/12/2008 09:50      18.0   6.0  18.2  10.4  45  1008   ---     S    29    58   ---   0.6 Scattered Clouds/
15/12/2008 10:50      18.0   6.0  18.2  10.6  45  1009   ---     S    27    47   ---   0.6 Scattered Clouds/
15/12/2008 11:50      19.0   6.0  19.1  11.0  43  1008   ---     S    40    63   ---   0.6 Few Clouds/
15/12/2008 12:50      18.0   6.0  18.2   9.4  45  1008   ---     S    40    63   ---   0.6 Few Clouds/
15/12/2008 13:50      19.0   7.0  19.2  11.7  46  1008   ---     S    31    50   ---   0.6 Scattered Clouds/
15/12/2008 14:50      19.0   4.0  18.8  11.7  37  1007   ---     S    31    50   ---   --- /
15/12/2008 15:50      19.0   4.0  18.8  13.2  37  1008   ---     S    19    19   ---   0.9 Few Clouds/
15/12/2008 16:50      17.0   6.0  17.4  11.0  48  1008   ---     S    18    18   ---   0.9 Few Clouds/
15/12/2008 17:50      16.0   5.0  16.3  12.5  48  1008   ---   SSE    10    10   ---   0.9 Few Clouds/
15/12/2008 18:50      15.0   5.0  15.5   9.3  51  1008   ---     S    14    14   ---   0.9 Few Clouds/
15/12/2008 19:50      16.0   5.0  16.3  11.3  48  1008   ---   SSE    13    13   ---   0.9 Few Clouds/
15/12/2008 20:50      17.0   5.0  17.2  10.4  45  1008   ---   SSE    19    19   ---   0.9 Few Clouds/
15/12/2008 21:50      16.0   5.0  16.3  10.6  48  1008   ---   SSE    14    14   ---   0.9 Few Clouds/
15/12/2008 22:50      18.0   6.0  18.2  10.8  45  1008   ---   SSE    26    43   ---   0.9 Few Clouds/
15/12/2008 23:50      18.0   6.0  18.2  10.0  45  1008   ---     S    32    53   ---   1.2 Scattered Clouds/
16/12/2008 00:50      18.0   7.0  18.4   9.1  49  1008   ---     S    47    66   ---   1.2 Scattered Clouds/
16/12/2008 01:50      18.0   8.0  18.6   9.4  52  1008   ---     S    42    68   ---   1.2 Few Clouds/
16/12/2008 02:50      18.0   7.0  18.4   9.2  49  1008   ---     S    45    64   ---   1.2 Few Clouds/
16/12/2008 03:50      18.0   6.0  18.2  10.6  45  1007   ---     S    27    56   ---   1.2 Few Clouds/
16/12/2008 04:50      18.0   6.0  18.2  10.4  45  1007   ---     S    29    66   ---   1.2 Few Clouds/
16/12/2008 05:50      18.0   8.0  18.6  11.3  52  1008   ---     S    23    56   ---   1.2 Few Clouds/
16/12/2008 06:50      18.0   9.0  18.8  10.0  56  1008   ---     S    32    32   ---   1.2 Few Clouds/
16/12/2008 08:50      15.0  10.0  16.8  15.0  72  1010   ---     N     3     3   ---   0.5 Broken Clouds/
16/12/2008 09:50      15.0  10.0  16.8  15.0  72  1011   ---     N     2     2   ---   0.6 Broken Clouds/
16/12/2008 11:50      16.0   7.0  16.7   7.6  55  1011   ---   SSW    27    27   ---   0.8 Scattered Clouds/
16/12/2008 12:50      16.0   6.0  16.5   7.2  51  1011   ---     S    31    31   ---   0.7 Few Clouds/
16/12/2008 13:50      18.0   2.0  17.7  11.3  34  1010   ---     S    23    23   ---   --- /
16/12/2008 14:50      18.0   0.0  17.5  11.3  30  1010   ---     S    23    23   ---   --- /
16/12/2008 15:50      17.0   1.0  16.7  10.1  34  1010   ---   SSW    21    21   ---   --- /
16/12/2008 16:50      15.0   2.0  15.0   8.2  41  1010   ---     S    18    18   ---   --- /
16/12/2008 17:50      16.0   1.0  15.8   9.9  36  1010   ---   SSE    16    16   ---   --- /
16/12/2008 18:50      16.0   0.0  15.7   9.6  34  1010   ---     S    18    18   ---   --- /
16/12/2008 19:50      16.0  -1.0  15.6   9.9  31  1010   ---   SSE    16    16   ---   --- /
16/12/2008 20:50      15.0   7.0  15.9   9.3  59  1010   ---    SW    14    14   ---   --- /
16/12/2008 21:50      15.0   5.0  15.5   8.2  51  1010   ---    SW    18    18   ---   --- /
16/12/2008 22:50      14.0   7.0  15.2   8.0  63  1011   ---   SSW    14    14   ---   --- /
16/12/2008 23:50      14.0   6.0  14.9   6.9  59  1011   ---   SSW    18    18   ---   0.7 Scattered Clouds/
17/12/2008 00:50      14.0   8.0  15.5   5.8  67  1010   ---   SSW    21    21   ---   0.7 Scattered Clouds/
17/12/2008 01:50      14.0   8.0  15.5   8.0  67  1010   ---    SW    14    14   ---   0.7 Scattered Clouds/
17/12/2008 02:50      14.0   8.0  15.5   6.9  67  1010   ---    SW    18    18   ---   0.8 Scattered Clouds/
17/12/2008 03:50      13.0   7.0  14.4   8.9  67  1009   ---     S    10    10   ---   0.9 Scattered Clouds/
17/12/2008 04:50      14.0   8.0  15.5   6.9  67  1009   ---     S    18    18   ---   0.9 Scattered Clouds/
17/12/2008 05:50      13.0   7.0  14.4   9.7  67  1009   ---     S     8     8   ---   0.9 Scattered Clouds/
17/12/2008 06:50      13.0   7.0  14.4   9.7  67  1009   ---   SSE     8     8   ---   0.9 Scattered Clouds/
17/12/2008 07:50      13.0   7.0  14.4   7.4  67  1009   ---   SSE    13    13   ---   0.6 Broken Clouds/
17/12/2008 08:50      15.0   7.0  15.9   8.6  59  1009   ---   SSE    16    16   ---   0.6 Scattered Clouds/
17/12/2008 09:50      15.0   7.0  15.9  11.3  59  1009   ---     S    10    10   ---   0.5 Broken Clouds/
17/12/2008 10:50      15.0   7.0  15.9  10.0  59  1009   ---     S    13    13   ---   0.6 Broken Clouds/
17/12/2008 11:50      15.0   7.0  15.9   8.2  59  1009   ---   SSW    18    18   ---   0.6 Broken Clouds/
17/12/2008 12:50      15.0   7.0  15.9   7.6  59  1008   ---   SSW    19    19   ---   0.6 Broken Clouds/
17/12/2008 13:50      15.0   6.0  15.7   8.2  55  1007   ---     S    18    18   ---   0.6 Scattered Clouds/
17/12/2008 14:50      15.0   6.0  15.7   7.6  55  1007   ---     S    19    19   ---   0.5 Broken Clouds/
17/12/2008 15:50      14.0   0.0  13.9   4.4  38  1007   ---     S    29    29   ---   0.5 Broken Clouds/
17/12/2008 16:50      12.0   3.0  12.7   3.3  54  1007   ---   SSE    19    19   ---   0.5 Broken Clouds/
17/12/2008 17:50      12.0   3.0  12.7   1.9  54  1007   ---     S    26    26   ---   0.5 Scattered Clouds/
17/12/2008 18:50      12.0   5.0  13.1   1.9  62  1007   ---     S    26    26   ---   0.5 Scattered Clouds/
17/12/2008 19:50      12.0   5.0  13.1   1.4  62  1007   ---   SSW    29    29   ---   0.5 Broken Clouds/
17/12/2008 20:50      11.0   4.0  12.1   0.4  62  1007   ---   SSW    26    26   ---   0.7 Scattered Clouds/
17/12/2008 21:50      12.0   4.0  12.9   1.1  58  1006   ---   SSW    31    31   ---   0.7 Scattered Clouds/
17/12/2008 22:50      12.0   4.0  12.9   1.6  58  1006   ---   SSW    27    27   ---   0.7 Scattered Clouds/
17/12/2008 23:50      12.0   4.0  12.9   3.0  58  1006   ---   SSW    21    21   ---   0.7 Scattered Clouds/
18/12/2008 01:20      12.0   6.0  13.4   1.9  67  1006   ---     S    26    26   ---   0.7 Broken Clouds/
18/12/2008 02:50      11.0   6.0  12.7  11.0  71  1006   ---     N     5     5   ---   --- Overcast/ Light Rain
18/12/2008 03:50      10.0   6.0  12.1  10.0  76  1005   ---     N     5     5   ---   --- Overcast/ Light Rain
18/12/2008 04:50      10.0   7.0  12.5  10.0  82  1006   ---     E     5     5   ---   --- Overcast/ Light Rain
18/12/2008 05:50      10.0   7.0  12.5   6.2  82  1007   ---    SE     8     8   ---   0.6 Broken Clouds/
18/12/2008 06:50      10.0   7.0  12.5   3.6  82  1008   ---   SSE    13    13   ---   0.6 Broken Clouds/
18/12/2008 07:50      11.0   8.0  13.5   7.3  82  1009   ---     S     8     8   ---   0.6 Broken Clouds/
18/12/2008 08:50      11.0   8.0  13.5   6.5  82  1009   ---     S    10    10   ---   0.7 Scattered Clouds/
18/12/2008 09:50      12.0   8.0  14.1   6.2  77  1010   ---     S    13    13   ---   0.8 Scattered Clouds/
18/12/2008 10:20      13.0   8.0  14.8   5.5  72  1010   ---     S    18    18   ---   0.8 Scattered Clouds/
18/12/2008 11:50      13.0   8.0  14.8   2.9  72  1009   ---   SSW    29    29   ---   0.7 Few Clouds/
18/12/2008 12:50      14.0   8.0  15.5   3.4  67  1009   ---    SW    37    37   ---   0.7 Scattered Clouds/
18/12/2008 13:50      13.0   8.0  14.8   1.8  72  1009   ---    SW    37    37   ---   0.6 Scattered Clouds/
18/12/2008 14:50      13.0   8.0  14.8   2.6  72  1009   ---   SSW    31    31   ---   0.6 Broken Clouds/
18/12/2008 15:50      14.0   8.0  15.5   4.6  67  1010   ---   SSW    27    27   ---   0.6 Broken Clouds/
18/12/2008 16:50      15.0   8.0  16.2   7.3  63  1010   ---     W    21    21   ---   0.6 Broken Clouds/
18/12/2008 17:20      14.0   8.0  15.5   3.3  67  1010   ---     W    39    39   ---   0.6 Broken Clouds/
18/12/2008 18:50      14.0   8.0  15.5   3.9  67  1012   ---     W    32    32   ---   0.6 Broken Clouds/
18/12/2008 19:50      13.0   9.0  15.1   1.6  77  1013   ---     W    40    40   ---   --- Overcast/ Rain
18/12/2008 20:50      14.0   9.0  15.8   3.8  72  1013   ---     W    34    34   ---   0.5 Broken Clouds/
18/12/2008 21:50      14.0   9.0  15.8   4.1  72  1014   ---     W    31    31   ---   --- Overcast/ Light Rain
18/12/2008 22:50      14.0   8.0  15.5   4.1  67  1014   ---     W    31    31   ---   0.6 Broken Clouds/
18/12/2008 23:50      13.0   8.0  14.8   3.4  72  1014   ---    SW    26    26   ---   --- / Drizzle
19/12/2008 00:50      13.0   8.0  14.8   5.8  72  1014   ---    SW    16    16   ---   0.6 Scattered Clouds/
19/12/2008 01:50      13.0   8.0  14.8   5.5  72  1015   ---    SW    18    18   ---   0.6 Scattered Clouds/
19/12/2008 02:50      12.0   7.0  13.7   5.3  71  1015   ---     S    14    14   ---   0.6 Scattered Clouds/
19/12/2008 03:50      12.0   7.0  13.7   3.0  71  1015   ---   SSW    21    21   ---   0.6 Scattered Clouds/
19/12/2008 04:50      12.0   8.0  14.1   1.9  77  1015   ---   SSW    26    26   ---   --- Overcast/ Light Rain
19/12/2008 05:50      12.0   8.0  14.1   2.6  77  1015   ---     S    23    23   ---   --- Overcast/ Light Rain
19/12/2008 06:50      11.0   7.0  13.1   0.4  76  1015   ---     S    26    26   ---   0.7 Broken Clouds/
19/12/2008 07:50      11.0   8.0  13.5   4.0  82  1016   ---   SSE    14    14   ---   0.6 Broken Clouds/
19/12/2008 08:50      11.0   8.0  13.5   2.7  82  1016   ---     S    18    18   ---   --- Overcast/ Light Rain
19/12/2008 09:50      12.0   9.0  14.5  12.0  82  1017   ---     N     3     3   ---   0.7 Broken Clouds/
19/12/2008 10:50      13.0   9.0  15.1   5.8  77  1017   ---     S    16    16   ---   0.6 Broken Clouds/
19/12/2008 11:50      13.0   8.0  14.8   5.8  72  1016   ---     S    16    16   ---   0.6 Broken Clouds/
19/12/2008 12:50      13.0   8.0  14.8   4.0  72  1016   ---    SW    23    23   ---   0.6 Broken Clouds/
19/12/2008 13:50      13.0   7.0  14.4   3.4  67  1016   ---    SW    26    26   ---   0.5 Broken Clouds/
19/12/2008 14:50      11.0   7.0  13.1   7.3  76  1016   ---     S     8     8   ---   --- Overcast/ Light Rain
19/12/2008 15:50      11.0   8.0  13.5   4.9  82  1016   ---     S    13    13   ---   0.6 Broken Clouds/
19/12/2008 16:50      11.0   7.0  13.1   6.5  76  1017   ---     S    10    10   ---   0.5 Scattered Clouds/
19/12/2008 17:50      10.0   7.0  12.5   6.2  82  1017   ---     N     8     8   ---   --- Overcast/ Light Rain
19/12/2008 18:50      10.0   7.0  12.5  10.0  82  1017   ---     N     5     5   ---   0.4 Broken Clouds/
19/12/2008 19:50      11.0   7.0  13.1   2.7  76  1018   ---    NE    18    18   ---   0.4 Broken Clouds/
19/12/2008 20:50      11.0   7.0  13.1  11.0  76  1018   ---     N     3     3   ---   0.4 Broken Clouds/
19/12/2008 21:50      13.0   6.0  14.2   6.6  62  1018   ---   NNW    14    14   ---   0.6 Broken Clouds/
19/12/2008 22:50      11.0   7.0  13.1   0.4  76  1018   ---    NW    26    26   ---   --- Overcast/ Light Rain
19/12/2008 23:50      11.0   7.0  13.1  11.0  76  1018   ---     N     2     2   ---   0.5 Broken Clouds/
20/12/2008 00:50      13.0   7.0  14.4   5.5  67  1018   ---    NW    18    18   ---   0.5 Broken Clouds/
20/12/2008 01:50      13.0   7.0  14.4   3.4  67  1018   ---   NNW    26    26   ---   0.6 Broken Clouds/
20/12/2008 02:50      13.0   7.0  14.4   2.9  67  1018   ---   NNW    29    29   ---   0.6 Broken Clouds/
20/12/2008 03:50      13.0   7.0  14.4   7.4  67  1018   ---     N    13    13   ---   0.6 Broken Clouds/
20/12/2008 04:50      14.0   8.0  15.5   5.5  67  1018   ---     N    23    23   ---   0.6 Broken Clouds/
20/12/2008 05:50      14.0   7.0  15.2   5.5  63  1018   ---     N    23    23   ---   0.7 Broken Clouds/
20/12/2008 06:50      14.0   8.0  15.5   5.5  67  1019   ---   NNE    23    23   ---   0.6 Broken Clouds/
20/12/2008 07:50      14.0   7.0  15.2   4.1  63  1020   ---     N    31    31   ---   0.6 Broken Clouds/
20/12/2008 08:50      14.0   6.0  14.9   4.4  59  1020   ---   NNE    29    29   ---   0.6 Broken Clouds/
20/12/2008 09:50      13.0   7.0  14.4   2.2  67  1021   ---    NE    34    34   ---   --- Overcast/ Light Rain
20/12/2008 11:50      14.0   7.0  15.2   4.6  63  1020   ---   NNE    27    27   ---   0.6 Broken Clouds/
20/12/2008 12:50      15.0   7.0  15.9   4.7  59  1020   ---     N    40    40   ---   0.6 Broken Clouds/
20/12/2008 13:50      14.0   7.0  15.2   3.4  63  1021   ---   NNE    37    37   ---   0.6 Broken Clouds/
20/12/2008 14:50      15.0   6.0  15.7   5.3  55  1021   ---   NNE    34    34   ---   0.6 Scattered Clouds/
20/12/2008 15:50      14.0   7.0  15.2   4.6  63  1021   ---   NNE    27    27   ---   0.6 Scattered Clouds/
20/12/2008 16:50      14.0   7.0  15.2   4.6  63  1021   ---   NNE    27    27   ---   0.6 Scattered Clouds/
20/12/2008 17:50      14.0   7.0  15.2   4.6  63  1022   ---   NNE    27    27   ---   0.6 Broken Clouds/
20/12/2008 18:50      14.0   7.0  15.2   5.5  63  1022   ---   NNE    23    23   ---   0.6 Broken Clouds/
20/12/2008 19:50      14.0   6.0  14.9   5.5  59  1023   ---     N    23    23   ---   0.6 Broken Clouds/
20/12/2008 20:50      14.0   6.0  14.9   6.2  59  1023   ---   NNE    19    19   ---   0.6 Broken Clouds/
20/12/2008 21:50      14.0   6.0  14.9   7.2  59  1023   ---   NNE    16    16   ---   0.9 Scattered Clouds/
20/12/2008 22:50      11.0   5.0  12.4   6.5  66  1024   ---   ENE    10    10   ---   0.9 Scattered Clouds/
20/12/2008 23:50      12.0   5.0  13.1  12.0  62  1024   ---     N     5     5   ---   0.9 Scattered Clouds/
21/12/2008 00:50      14.0   6.0  14.9  12.3  59  1023   ---   NNW     6     6   ---   0.9 Scattered Clouds/
21/12/2008 01:50      14.0   6.0  14.9   6.2  59  1023   ---   NNW    19    19   ---   0.7 Scattered Clouds/
21/12/2008 02:50      14.0   7.0  15.2   6.2  63  1023   ---   NNW    19    19   ---   0.7 Scattered Clouds/
21/12/2008 03:50      15.0   7.0  15.9   6.9  59  1022   ---    NW    23    23   ---   0.7 Scattered Clouds/
21/12/2008 04:50      14.0   7.0  15.2   4.9  63  1023   ---   NNW    26    26   ---   0.7 Scattered Clouds/
21/12/2008 05:50      14.0   7.0  15.2   5.8  63  1023   ---     N    21    21   ---   0.7 Scattered Clouds/
21/12/2008 06:50      14.0   7.0  15.2   6.9  63  1023   ---     N    18    18   ---   0.7 Scattered Clouds/
21/12/2008 07:50      14.0   7.0  15.2   8.0  63  1023   ---     N    14    14   ---   0.7 Scattered Clouds/
21/12/2008 08:50      15.0   7.0  15.9  10.0  59  1024   ---   NNW    13    13   ---   0.7 Scattered Clouds/
21/12/2008 09:50      15.0   6.0  15.7   7.6  55  1024   ---   NNW    19    19   ---   0.7 Scattered Clouds/
21/12/2008 11:50      15.0   8.0  16.2   8.6  63  1024   ---   NNW    16    16   ---   0.7 Scattered Clouds/
21/12/2008 13:50      15.0   9.0  16.5   8.6  67  1024   ---   WNW    16    16   ---   0.7 Scattered Clouds/
21/12/2008 14:50      15.0   9.0  16.5   9.3  67  1024   ---   WNW    14    14   ---   0.7 Scattered Clouds/
21/12/2008 15:50      15.0   9.0  16.5   9.3  67  1024   ---    NW    14    14   ---   0.7 Scattered Clouds/
21/12/2008 16:50      15.0   9.0  16.5   8.6  67  1024   ---    NW    16    16   ---   0.7 Scattered Clouds/
21/12/2008 17:50      15.0  10.0  16.8   8.6  72  1025   ---   NNW    16    16   ---   0.7 Scattered Clouds/
21/12/2008 18:50      15.0   9.0  16.5   9.3  67  1025   ---   NNW    14    14   ---   0.7 Scattered Clouds/
21/12/2008 19:50      15.0   9.0  16.5  10.0  67  1025   ---   NNW    13    13   ---   0.7 Scattered Clouds/
21/12/2008 20:50      15.0   9.0  16.5  10.0  67  1025   ---   NNW    13    13   ---   0.7 Scattered Clouds/
21/12/2008 21:50      15.0  10.0  16.8   7.3  72  1026   ---   NNW    21    21   ---   0.7 Scattered Clouds/
21/12/2008 22:50      15.0   9.0  16.5   8.6  67  1026   ---   NNE    16    16   ---   0.7 Scattered Clouds/
21/12/2008 23:50      15.0   9.0  16.5   9.3  67  1026   ---   NNE    14    14   ---   0.7 Scattered Clouds/
22/12/2008 00:50      15.0   9.0  16.5  10.0  67  1026   ---   NNE    13    13   ---   0.7 Scattered Clouds/
22/12/2008 01:50      15.0   9.0  16.5   9.3  67  1026   ---     N    14    14   ---   0.7 Scattered Clouds/
22/12/2008 02:50      15.0  10.0  16.8  10.0  72  1026   ---   NNE    13    13   ---   0.7 Scattered Clouds/
22/12/2008 03:50      15.0  10.0  16.8   8.2  72  1026   ---     N    18    18   ---   0.7 Scattered Clouds/
22/12/2008 04:50      15.0   9.0  16.5   7.3  67  1026   ---   NNE    21    21   ---   0.7 Scattered Clouds/
22/12/2008 05:50      15.0   9.0  16.5   7.6  67  1026   ---   NNE    19    19   ---   0.7 Scattered Clouds/
22/12/2008 06:50      14.0   8.0  15.5   8.7  67  1026   ---   NNE    13    13   ---   0.7 Scattered Clouds/
22/12/2008 07:50      13.0   7.0  14.4   8.9  67  1026   ---   ENE    10    10   ---   --- /
22/12/2008 08:20      12.0   7.0  13.7   4.5  71  1027   ---    NE    16    16   ---   --- /
22/12/2008 09:50      15.0   7.0  15.9   7.3  59  1027   ---   ENE    21    21   ---   --- /
22/12/2008 11:50      16.0   7.0  16.7   8.7  55  1027   ---    NE    21    21   ---   --- /
22/12/2008 12:50      15.0   7.0  15.9   7.6  59  1027   ---   NNE    19    19   ---   --- /
22/12/2008 13:50      15.0   8.0  16.2   7.3  63  1026   ---   NNE    21    21   ---   --- /
22/12/2008 14:50      15.0   8.0  16.2   7.3  63  1026   ---     N    21    21   ---   --- /
22/12/2008 15:50      15.0   8.0  16.2   6.4  63  1026   ---     N    26    26   ---   --- /
22/12/2008 16:50      15.0   8.0  16.2   7.6  63  1026   ---     N    19    19   ---   --- /
22/12/2008 17:50      15.0   9.0  16.5   8.2  67  1026   ---     N    18    18   ---   --- /
22/12/2008 18:50      15.0  10.0  16.8   8.2  72  1026   ---   NNE    18    18   ---   --- /
22/12/2008 19:50      15.0  10.0  16.8   8.2  72  1026   ---    NE    18    18   ---   --- /
22/12/2008 20:50      15.0   9.0  16.5   7.6  67  1026   ---    NE    19    19   ---   0.6 Scattered Clouds/
22/12/2008 21:50      15.0  10.0  16.8   7.6  72  1026   ---    NE    19    19   ---   0.8 Broken Clouds/
22/12/2008 22:50      14.0   9.0  15.8   8.0  72  1026   ---    NE    14    14   ---   0.8 Scattered Clouds/
22/12/2008 23:50      15.0  10.0  16.8   9.3  72  1026   ---   NNE    14    14   ---   0.8 Scattered Clouds/
23/12/2008 00:50      14.0  10.0  16.1  10.8  77  1025   ---   NNE     8     8   ---   0.8 Scattered Clouds/
23/12/2008 01:50      15.0  10.0  16.8  10.0  72  1025   ---     N    13    13   ---   0.8 Scattered Clouds/
23/12/2008 02:50      15.0  10.0  16.8  12.0  72  1026   ---     N     8     8   ---   0.6 Scattered Clouds/
23/12/2008 03:50      15.0  11.0  17.1  10.0  77  1025   ---    NW    13    13   ---   0.7 Scattered Clouds/
23/12/2008 04:50      14.0  10.0  16.1   6.9  77  1025   ---    NW    18    18   ---   0.7 Scattered Clouds/
23/12/2008 05:50      14.0   9.0  15.8   8.7  72  1026   ---    NW    13    13   ---   0.7 Scattered Clouds/
23/12/2008 06:50      14.0   9.0  15.8   8.7  72  1026   ---    NW    13    13   ---   0.7 Scattered Clouds/
23/12/2008 07:50      15.0   9.0  16.5  11.3  67  1026   ---   WNW    10    10   ---   0.7 Scattered Clouds/
23/12/2008 08:50      13.0   8.0  14.8  13.0  72  1027   ---     N     3     3   ---   0.7 Scattered Clouds/
23/12/2008 09:50      14.0   9.0  15.8  14.0  72  1027   ---     N     5     5   ---   0.7 Scattered Clouds/
23/12/2008 10:50      15.0   9.0  16.5  15.0  67  1028   ---     N     5     5   ---   0.8 Broken Clouds/
23/12/2008 11:50      15.0   9.0  16.5  15.0  67  1027   ---     N     5     5   ---   0.8 Broken Clouds/
23/12/2008 12:50      15.0   8.0  16.2  11.3  63  1027   ---     W    10    10   ---   0.8 Broken Clouds/
23/12/2008 13:50      16.0   8.0  16.9  16.0  59  1026   ---     N     5     5   ---   0.8 Broken Clouds/
23/12/2008 14:50      15.0   8.0  16.2  13.3  63  1026   ---    NW     6     6   ---   1.0 Scattered Clouds/
23/12/2008 15:50      15.0   9.0  16.5  13.3  67  1026   ---     W     6     6   ---   1.0 Broken Clouds/
23/12/2008 16:50      15.0   9.0  16.5  13.3  67  1026   ---   WNW     6     6   ---   1.0 Broken Clouds/
23/12/2008 18:50      15.0   8.0  16.2   9.3  63  1026   ---   WNW    14    14   ---   0.9 Broken Clouds/
23/12/2008 19:50      15.0   8.0  16.2  11.3  63  1026   ---     W    10    10   ---   0.9 Broken Clouds/
23/12/2008 20:50      15.0   8.0  16.2  15.0  63  1027   ---     N     3     3   ---   0.9 Broken Clouds/
23/12/2008 21:20      14.0   8.0  15.5  10.1  67  1027   ---     N    10    10   ---   0.9 Broken Clouds/
23/12/2008 22:50      15.0   8.0  16.2   8.2  63  1027   ---     N    18    18   ---   0.9 Broken Clouds/
23/12/2008 23:50      14.0   7.0  15.2   8.0  63  1027   ---   NNE    14    14   ---   0.9 Broken Clouds/
24/12/2008 00:50      14.0   7.0  15.2  12.3  63  1027   ---     N     6     6   ---   0.9 Broken Clouds/
24/12/2008 01:50      14.0   8.0  15.5   8.7  67  1027   ---     N    13    13   ---   0.9 Broken Clouds/
24/12/2008 02:50      14.0   8.0  15.5   7.2  67  1027   ---    NW    16    16   ---   0.9 Broken Clouds/
24/12/2008 03:50      14.0   7.0  15.2   7.2  63  1027   ---   NNW    16    16   ---   0.8 Broken Clouds/
24/12/2008 04:50      14.0   7.0  15.2   8.0  63  1026   ---     N    14    14   ---   0.8 Broken Clouds/
24/12/2008 05:50      14.0   7.0  15.2  10.8  63  1027   ---    NE     8     8   ---   0.8 Broken Clouds/
24/12/2008 06:50      14.0   7.0  15.2  10.1  63  1027   ---   NNE    10    10   ---   0.7 Broken Clouds/
24/12/2008 07:50      13.0   7.0  14.4   9.7  67  1027   ---   ENE     8     8   ---   0.6 Broken Clouds/
24/12/2008 08:50      14.0   7.0  15.2  10.8  63  1027   ---   ENE     8     8   ---   0.6 Broken Clouds/
24/12/2008 09:50      14.0   8.0  15.5  10.8  67  1028   ---   ENE     8     8   ---   0.6 Broken Clouds/
24/12/2008 10:20      14.0   8.0  15.5  10.8  67  1028   ---   ENE     8     8   ---   0.6 Broken Clouds/
24/12/2008 11:50      15.0   8.0  16.2  15.0  63  1027   ---     N     5     5   ---   0.6 Broken Clouds/
24/12/2008 12:50      15.0   8.0  16.2  12.0  63  1026   ---   ENE     8     8   ---   0.6 Broken Clouds/
24/12/2008 13:50      15.0   8.0  16.2  11.3  63  1026   ---    NE    10    10   ---   0.6 Scattered Clouds/
24/12/2008 14:50      15.0   8.0  16.2  10.0  63  1026   ---    NE    13    13   ---   0.6 Scattered Clouds/
24/12/2008 15:50      15.0   7.0  15.9  11.3  59  1026   ---    NE    10    10   ---   0.6 Scattered Clouds/
24/12/2008 16:50      14.0   8.0  15.5   8.7  67  1026   ---    NE    13    13   ---   0.6 Broken Clouds/
24/12/2008 17:50      13.0   7.0  14.4   8.9  67  1025   ---   ENE    10    10   ---   1.0 Few Clouds/
24/12/2008 18:50      12.0   7.0  13.7  10.1  71  1025   ---     E     6     6   ---   1.0 Few Clouds/
24/12/2008 19:50      12.0   7.0  13.7  12.0  71  1025   ---     N     2     2   ---   1.0 Few Clouds/
24/12/2008 20:50      11.0   6.0  12.7   7.3  71  1025   ---   SSE     8     8   ---   1.0 Few Clouds/
24/12/2008 21:50      10.0   6.0  12.1  10.0  76  1025   ---     N     5     5   ---   1.0 Few Clouds/
24/12/2008 22:50      10.0   6.0  12.1   5.3  76  1025   ---   SSE    10    10   ---   1.0 Few Clouds/
24/12/2008 23:50      10.0   6.0  12.1   5.3  76  1024   ---   SSE    10    10   ---   1.0 Few Clouds/
25/12/2008 00:50      10.0   6.0  12.1   2.7  76  1023   ---     S    14    14   ---   1.0 Few Clouds/
25/12/2008 01:50      12.0   7.0  13.7   8.5  71  1023   ---    SW     8     8   ---   1.0 Few Clouds/
25/12/2008 02:50      11.0   7.0  13.1   6.5  76  1023   ---   SSW    10    10   ---   0.9 Few Clouds/
25/12/2008 03:50      12.0   7.0  13.7   7.7  71  1022   ---   SSW    10    10   ---   0.9 Scattered Clouds/
25/12/2008 04:50      12.0   7.0  13.7   8.5  71  1021   ---   SSW     8     8   ---   0.9 Scattered Clouds/
25/12/2008 05:50      12.0   6.0  13.4   8.5  67  1021   ---    SW     8     8   ---   0.9 Scattered Clouds/
25/12/2008 06:50      12.0   8.0  14.1   6.2  77  1021   ---     S    13    13   ---   0.9 Scattered Clouds/
25/12/2008 07:50      12.0   8.0  14.1   6.2  77  1021   ---     S    13    13   ---   0.9 Broken Clouds/
25/12/2008 08:50      12.0   7.0  13.7   8.5  71  1021   ---     S     8     8   ---   0.9 Broken Clouds/
25/12/2008 09:50      14.0   8.0  15.5   7.2  67  1021   ---   SSW    16    16   ---   0.9 Scattered Clouds/
25/12/2008 10:50      14.0   8.0  15.5   8.0  67  1021   ---   SSW    14    14   ---   0.9 Scattered Clouds/
25/12/2008 11:50      14.0   8.0  15.5   7.2  67   ---   ---   SSW    16    16   ---   0.9 Scattered Clouds/
25/12/2008 12:50      15.0   8.0  16.2   8.2  63   ---   ---    SW    18    18   ---   0.9 Scattered Clouds/
25/12/2008 13:50      15.0   7.0  15.9   9.3  59   ---   ---   SSW    14    14   ---   0.9 Scattered Clouds/
25/12/2008 14:50      15.0   7.0  15.9   8.6  59   ---   ---   SSW    16    16   ---   0.9 Scattered Clouds/
25/12/2008 15:50      16.0   7.0  16.7   9.9  55   ---   ---   SSW    16    16   ---   0.9 Scattered Clouds/
25/12/2008 16:50      14.0   7.0  15.2   6.2  63   ---   ---     S    19    19   ---   0.8 Broken Clouds/
25/12/2008 17:50      14.0   7.0  15.2   7.2  63  1017   ---     S    16    16   ---   0.8 Broken Clouds/
25/12/2008 18:50      14.0   7.0  15.2   4.9  63  1017   ---     S    26    26   ---   0.8 Broken Clouds/
25/12/2008 19:50      14.0   7.0  15.2   6.2  63  1017   ---     S    19    19   ---   0.8 Few Clouds/
25/12/2008 20:50      13.0   7.0  14.4   5.8  67  1017   ---     S    16    16   ---   0.8 Few Clouds/
25/12/2008 21:50      13.0   7.0  14.4   3.1  67  1015   ---     S    27    27   ---   0.8 Few Clouds/
25/12/2008 22:50      13.0   7.0  14.4   4.4  67  1015   ---     S    21    21   ---   0.7 Few Clouds/
25/12/2008 23:50      14.0   7.0  15.2   4.6  63  1015   ---   SSW    27    27   ---   0.7 Few Clouds/
26/12/2008 00:50      13.0   7.0  14.4   2.6  67  1014   ---   SSW    31    31   ---   0.7 Few Clouds/
26/12/2008 01:50      13.0   7.0  14.4   4.0  67  1014   ---   SSW    23    23   ---   0.7 Few Clouds/
26/12/2008 02:50      13.0   7.0  14.4   3.4  67  1014   ---     S    26    26   ---   0.7 Few Clouds/
26/12/2008 03:50      13.0   6.0  14.2   4.8  62  1013   ---     S    19    19   ---   0.7 Few Clouds/
26/12/2008 04:50      13.0   6.0  14.2   4.4  62  1013   ---     S    21    21   ---   0.7 Few Clouds/
26/12/2008 05:50      13.0   7.0  14.4   4.0  67  1013   ---     S    23    23   ---   0.7 Few Clouds/
26/12/2008 06:50      13.0   7.0  14.4   7.4  67  1014   ---     S    13    13   ---   0.7 Scattered Clouds/
26/12/2008 07:50      13.0   7.0  14.4  11.2  67  1014   ---     S     6     6   ---   0.7 Scattered Clouds/
26/12/2008 08:50      13.0   7.0  14.4  13.0  67  1015   ---     N     3     3   ---   0.7 Scattered Clouds/
26/12/2008 09:50      15.0   7.0  15.9  15.0  59  1016   ---     N     2     2   ---   0.8 Few Clouds/
26/12/2008 10:50      16.0   7.0  16.7  16.0  55  1016   ---   NNE     5     5   ---   0.8 Few Clouds/
26/12/2008 11:50      16.0   7.0  16.7  14.4  55  1015   ---     W     6     6   ---   0.8 Few Clouds/
26/12/2008 12:50      16.0   7.0  16.7  11.3  55  1015   ---   NNE    13    13   ---   0.8 Scattered Clouds/
26/12/2008 13:50      16.0   7.0  16.7  12.5  55  1015   ---    NE    10    10   ---   0.8 Scattered Clouds/
26/12/2008 14:50      16.0   9.0  17.2   9.6  63  1015   ---   ENE    18    18   ---   0.8 Scattered Clouds/
26/12/2008 15:50      15.0   9.0  16.5   5.6  67  1015   ---     E    31    31   ---   0.5 Broken Clouds/
26/12/2008 16:50      14.0   9.0  15.8   5.5  72  1015   ---     E    23    23   ---   0.5 Broken Clouds/
26/12/2008 17:50      14.0   9.0  15.8   5.8  72  1015   ---   ENE    21    21   ---   0.6 Broken Clouds/
26/12/2008 18:50      14.0   8.0  15.5   8.0  67  1016   ---   ENE    14    14   ---   0.6 Broken Clouds/
26/12/2008 19:50      13.0   7.0  14.4  13.0  67  1016   ---     N     5     5   ---   0.6 Broken Clouds/
26/12/2008 20:50      11.0   5.0  12.4  11.0  66  1016   ---     N     5     5   ---   0.6 Broken Clouds/
26/12/2008 21:50      11.0   6.0  12.7  11.0  71  1016   ---     S     3     3   ---   0.6 Few Clouds/
26/12/2008 22:50      11.0   6.0  12.7   7.3  71  1017   ---     S     8     8   ---   0.6 Few Clouds/
26/12/2008 23:50      10.0   5.0  11.7   6.2  71  1017   ---     S     8     8   ---   0.6 Few Clouds/
27/12/2008 00:50      10.0   5.0  11.7  10.0  71  1017   ---     N     5     5   ---   0.6 Few Clouds/
27/12/2008 01:50      10.0   5.0  11.7  10.0  71  1017   ---     S     5     5   ---   0.6 Few Clouds/
27/12/2008 02:50      10.0   6.0  12.1  10.0  76  1016   ---   ESE     2     2   ---   0.6 Few Clouds/
27/12/2008 03:50      10.0   5.0  11.7  10.0  71  1016   ---    SE     5     5   ---   0.6 Few Clouds/
27/12/2008 04:50      11.0   6.0  12.7  11.0  71  1016   ---     N     2     2   ---   0.6 Few Clouds/
27/12/2008 05:50      10.0   6.0  12.1  10.0  76  1016   ---     N     5     5   ---   0.6 Scattered Clouds/
27/12/2008 06:50      11.0   6.0  12.7  11.0  71  1016   ---     N     3     3   ---   0.6 Scattered Clouds/
27/12/2008 07:50      10.0   6.0  12.1  10.0  76  1017   ---     N     5     5   ---   0.6 Broken Clouds/
27/12/2008 08:50      11.0   6.0  12.7  11.0  71  1017   ---     N     2     2   ---   0.6 Scattered Clouds/
27/12/2008 09:50      14.0   9.0  15.8  14.0  72  1018   ---     S     5     5   ---   0.6 Scattered Clouds/
27/12/2008 10:50      14.0   9.0  15.8  14.0  72  1018   ---     W     5     5   ---   0.6 Scattered Clouds/
27/12/2008 11:50      15.0   9.0  16.5  15.0  67  1018   ---   WSW     5     5   ---   0.6 Scattered Clouds/
27/12/2008 12:50      15.0   9.0  16.5  15.0  67  1017   ---     N     5     5   ---   0.6 Scattered Clouds/
27/12/2008 13:50      15.0  10.0  16.8  15.0  72  1017   ---     W     5     5   ---   0.6 Scattered Clouds/
27/12/2008 14:50      15.0  10.0  16.8  15.0  72  1016   ---     N     3     3   ---   0.6 Scattered Clouds/
27/12/2008 15:50      15.0   9.0  16.5  15.0  67  1016   ---     N     3     3   ---   0.6 Scattered Clouds/
27/12/2008 16:50      14.0   9.0  15.8  14.0  72  1016   ---     N     3     3   ---   0.9 Scattered Clouds/
27/12/2008 17:50      14.0   9.0  15.8  14.0  72  1016   ---     N     3     3   ---   0.7 Scattered Clouds/
27/12/2008 18:50      13.0   9.0  15.1   9.7  77  1016   ---     E     8     8   ---   0.7 Scattered Clouds/
27/12/2008 19:50      13.0   9.0  15.1   8.9  77  1017   ---   ENE    10    10   ---   0.7 Scattered Clouds/
27/12/2008 20:50      13.0   9.0  15.1   7.4  77  1017   ---     E    13    13   ---   0.7 Scattered Clouds/
27/12/2008 21:50      12.0   8.0  14.1  10.1  77  1017   ---   SSE     6     6   ---   0.7 Broken Clouds/
27/12/2008 22:50      12.0   8.0  14.1  12.0  77  1017   ---    NE     5     5   ---   0.7 Broken Clouds/
27/12/2008 23:50      12.0   8.0  14.1  12.0  77  1017   ---     S     5     5   ---   0.7 Broken Clouds/
28/12/2008 00:50      12.0   9.0  14.5  12.0  82  1016   ---     S     5     5   ---   0.7 Broken Clouds/
28/12/2008 01:50      12.0   9.0  14.5  12.0  82  1016   ---    SW     5     5   ---   0.7 Broken Clouds/
28/12/2008 02:50      13.0   8.0  14.8   4.4  72  1015   ---     S    21    21   ---   0.7 Broken Clouds/
28/12/2008 03:50      13.0   7.0  14.4   4.4  67  1015   ---     S    21    21   ---   0.7 Broken Clouds/
28/12/2008 04:50      13.0   6.0  14.2   5.5  62  1014   ---     S    18    18   ---   0.7 Scattered Clouds/
28/12/2008 05:50      13.0   7.0  14.4   4.8  67  1014   ---   SSW    19    19   ---   0.7 Scattered Clouds/
28/12/2008 06:50      13.0   7.0  14.4   4.4  67  1015   ---     S    21    21   ---   1.2 Few Clouds/
28/12/2008 07:50      13.0   6.0  14.2   3.4  62  1015   ---     S    26    26   ---   0.9 Few Clouds/
28/12/2008 08:20      13.0   6.0  14.2   3.1  62  1015   ---     S    27    27   ---   0.9 Few Clouds/
28/12/2008 09:50      15.0   6.0  15.7   6.9  55  1015   ---     S    23    23   ---   0.9 Few Clouds/
28/12/2008 10:20      15.0   7.0  15.9   6.4  59  1015   ---     S    26    26   ---   0.9 Few Clouds/
28/12/2008 11:50      16.0   7.0  16.7   8.7  55  1016   ---   SSW    21    21   ---   0.9 Few Clouds/
28/12/2008 12:50      17.0   7.0  17.5   9.1  52  1015   ---   SSW    27    27   ---   0.9 Few Clouds/
28/12/2008 13:50      16.0   7.0  16.7   9.0  55  1015   ---     S    19    19   ---   0.9 Few Clouds/
28/12/2008 14:50      17.0   6.0  17.4  11.0  48  1015   ---     S    18    18   ---   0.9 Few Clouds/
28/12/2008 15:50      16.0   7.0  16.7  10.6  55  1015   ---     S    14    14   ---   0.9 Scattered Clouds/
28/12/2008 16:50      15.0   7.0  15.9   9.3  59  1015   ---     S    14    14   ---   0.9 Scattered Clouds/
28/12/2008 17:50      15.0   7.0  15.9   8.6  59  1015   ---   SSW    16    16   ---   0.9 Scattered Clouds/
28/12/2008 19:50      14.0   8.0  15.5  14.0  67  1016   ---     N     5     5   ---   0.9 Scattered Clouds/
28/12/2008 20:50      15.0   7.0  15.9   8.2  59  1016   ---     S    18    18   ---   0.9 Scattered Clouds/
28/12/2008 21:50      16.0   8.0  16.9  11.3  59  1017   ---     S    13    13   ---   0.9 Scattered Clouds/
28/12/2008 22:50      15.0   7.0  15.9   6.9  59  1017   ---   SSE    23    23   ---   0.9 Scattered Clouds/
28/12/2008 23:50      15.0   7.0  15.9  12.0  59  1017   ---     E     8     8   ---   0.9 Scattered Clouds/
29/12/2008 00:50      16.0   8.0  16.9  16.0  59  1017   ---   ENE     5     5   ---   0.9 Scattered Clouds/
29/12/2008 01:50      14.0   8.0  15.5  10.1  67  1016   ---   ENE    10    10   ---   0.9 Scattered Clouds/
29/12/2008 02:50      14.0   8.0  15.5  10.1  67  1017   ---   ENE    10    10   ---   0.9 Scattered Clouds/
29/12/2008 03:50      14.0   8.0  15.5  12.3  67  1017   ---   SSE     6     6   ---   0.9 Scattered Clouds/
29/12/2008 04:50      13.0   8.0  14.8  11.2  72  1017   ---   SSE     6     6   ---   0.9 Scattered Clouds/
29/12/2008 05:50      14.0   8.0  15.5  14.0  67  1017   ---     N     3     3   ---   0.9 Scattered Clouds/
29/12/2008 06:50      13.0   9.0  15.1  13.0  77  1018   ---     N     5     5   ---   0.9 Scattered Clouds/
29/12/2008 07:50      14.0  10.0  16.1  10.8  77  1018   ---    NE     8     8   ---   0.7 Broken Clouds/
29/12/2008 08:50      14.0  10.0  16.1  12.3  77  1019   ---   NNE     6     6   ---   --- Overcast/ Light Rain
29/12/2008 09:50      14.0  10.0  16.1   6.2  77  1019   ---   ENE    19    19   ---   0.6 Broken Clouds/
29/12/2008 10:50      15.0   9.0  16.5   6.4  67  1020   ---     E    26    26   ---   0.6 Broken Clouds/
29/12/2008 11:50      16.0   9.0  17.2   9.6  63  1020   ---   ENE    18    18   ---   0.6 Broken Clouds/
29/12/2008 12:50      16.0  11.0  17.8   7.8  72  1020   ---    NE    26    26   ---   0.7 Broken Clouds/
29/12/2008 13:50      15.0  10.0  16.8   6.1  72  1019   ---    NE    27    27   ---   0.6 Broken Clouds/
29/12/2008 14:50      15.0  10.0  16.8   6.9  72  1019   ---   ENE    23    23   ---   0.6 Scattered Clouds/
29/12/2008 15:50      15.0  11.0  17.1   6.1  77  1020   ---    NE    27    27   ---   0.6 Broken Clouds/
29/12/2008 16:50      15.0  11.0  17.1   6.9  77  1020   ---   ENE    23    23   ---   0.6 Scattered Clouds/
29/12/2008 18:50      12.0   9.0  14.5  12.0  82  1023   ---     N     5     5   ---   --- Overcast/ Rain
29/12/2008 19:50      12.0   8.0  14.1   6.2  77  1023   ---    SE    13    13   ---   0.7 Scattered Clouds/
29/12/2008 20:50      12.0   9.0  14.5  12.0  82  1023   ---     N     3     3   ---   0.7 Broken Clouds/
29/12/2008 21:50      12.0   8.0  14.1  12.0  77  1023   ---     N     5     5   ---   0.7 Broken Clouds/
29/12/2008 22:50      12.0   9.0  14.5  10.1  82  1024   ---    SE     6     6   ---   0.7 Broken Clouds/
29/12/2008 23:50      12.0   9.0  14.5  12.0  82  1024   ---     N     5     5   ---   0.7 Broken Clouds/
30/12/2008 00:50      11.0   9.0  13.9   9.0  87  1024   ---   SSE     6     6   ---   0.7 Broken Clouds/
30/12/2008 01:50      12.0   8.0  14.1  12.0  77  1024   ---     N     5     5   ---   0.7 Broken Clouds/
30/12/2008 02:50      12.0   8.0  14.1  12.0  77  1024   ---     N     5     5   ---   0.7 Scattered Clouds/
30/12/2008 03:50      12.0   8.0  14.1  10.1  77  1024   ---    SE     6     6   ---   0.7 Scattered Clouds/
30/12/2008 04:50      13.0  10.0  15.5   9.7  82  1025   ---    SW     8     8   ---   0.7 Scattered Clouds/
30/12/2008 05:50      12.0  10.0  14.9   6.2  88  1025   ---   SSW    13    13   ---   0.7 Scattered Clouds/
30/12/2008 06:50      12.0   9.0  14.5   6.2  82  1026   ---   SSW    13    13   ---   --- Overcast/ Light Rain
30/12/2008 07:50      12.0   9.0  14.5   7.7  82  1026   ---     S    10    10   ---   --- / Drizzle
30/12/2008 08:50      12.0  10.0  14.9  12.0  88  1027   ---     N     5     5   ---   --- / Drizzle
30/12/2008 09:50      13.0  10.0  15.5  13.0  82  1028   ---     N     5     5   ---   0.9 Broken Clouds/
30/12/2008 10:50      13.0  11.0  15.9  13.0  88  1028   ---     N     5     5   ---   0.9 Broken Clouds/
30/12/2008 11:50      14.0  11.0  16.5  12.3  82  1028   ---     S     6     6   ---   0.9 Broken Clouds/
30/12/2008 12:50      14.0  11.0  16.5  14.0  82  1028   ---     N     3     3   ---   0.4 Broken Clouds/
30/12/2008 13:50      15.0  10.0  16.8  10.0  72  1027   ---   ENE    13    13   ---   0.4 Broken Clouds/
30/12/2008 14:50      15.0  10.0  16.8  10.0  72  1027   ---   ENE    13    13   ---   0.4 Scattered Clouds/
30/12/2008 15:50      14.0  10.0  16.1  10.1  77  1027   ---   ENE    10    10   ---   0.4 Scattered Clouds/
30/12/2008 16:50      14.0  11.0  16.5   8.7  82  1028   ---     E    13    13   ---   --- Overcast/ Light Rain
30/12/2008 17:50      13.0  10.0  15.5   8.9  82  1028   ---     E    10    10   ---   --- Overcast/ Light Rain
30/12/2008 18:50      13.0  10.0  15.5  13.0  82  1028   ---     N     3     3   ---   0.4 Broken Clouds/
30/12/2008 19:50      13.0  10.0  15.5  13.0  82  1029   ---     N     5     5   ---   0.4 Broken Clouds/
30/12/2008 20:50      13.0  10.0  15.5   9.7  82  1029   ---    SW     8     8   ---   0.4 Broken Clouds/
30/12/2008 21:50      12.0  10.0  14.9  12.0  88  1029   ---     N     5     5   ---   0.4 Broken Clouds/
30/12/2008 22:50      13.0   9.0  15.1  13.0  77  1029   ---     N     3     3   ---   0.6 Broken Clouds/
30/12/2008 23:50      13.0  10.0  15.5  13.0  82  1029   ---     N     5     5   ---   0.6 Broken Clouds/
31/12/2008 00:50      13.0  10.0  15.5  13.0  82  1029   ---     N     5     5   ---   0.6 Broken Clouds/
31/12/2008 01:50      13.0  10.0  15.5  13.0  82  1029   ---     N     3     3   ---   0.6 Broken Clouds/
31/12/2008 02:50      13.0   9.0  15.1  11.2  77  1030   ---     S     6     6   ---   0.6 Scattered Clouds/
31/12/2008 03:50      13.0   9.0  15.1  13.0  77  1029   ---     N     5     5   ---   0.6 Scattered Clouds/
31/12/2008 04:20      12.0   9.0  14.5   8.5  82  1029   ---     E     8     8   ---   0.6 Scattered Clouds/
31/12/2008 05:50      12.0   9.0  14.5  12.0  82  1029   ---     N     5     5   ---   0.9 Scattered Clouds/
31/12/2008 06:50      12.0   9.0  14.5  12.0  82  1030   ---     N     5     5   ---   0.9 Scattered Clouds/
31/12/2008 07:50      12.0   9.0  14.5  10.1  82  1030   ---   SSE     6     6   ---   0.9 Broken Clouds/
31/12/2008 08:50      12.0   9.0  14.5  12.0  82  1030   ---     N     5     5   ---   0.9 Broken Clouds/
31/12/2008 09:20      13.0  10.0  15.5  13.0  82  1030   ---     N     5     5   ---   0.9 Broken Clouds/
31/12/2008 10:50      14.0   9.0  15.8  10.8  72  1031   ---    SW     8     8   ---   0.9 Scattered Clouds/
31/12/2008 11:50      15.0   9.0  16.5   9.3  67  1031   ---   WSW    14    14   ---   0.6 Broken Clouds/
31/12/2008 12:50      15.0   9.0  16.5  10.0  67  1031   ---   WSW    13    13   ---   0.6 Scattered Clouds/
31/12/2008 13:50      15.0   8.0  16.2  13.3  63  1030   ---     W     6     6   ---   0.6 Broken Clouds/
31/12/2008 14:50      16.0   9.0  17.2  11.3  63  1029   ---     E    13    13   ---   0.8 Broken Clouds/
31/12/2008 15:50      15.0   9.0  16.5  12.0  67  1030   ---   ENE     8     8   ---   0.8 Broken Clouds/
31/12/2008 16:50      15.0   9.0  16.5   8.2  67  1030   ---    SW    18    18   ---   0.8 Broken Clouds/
31/12/2008 17:50      14.0   9.0  15.8   6.9  72  1030   ---   SSW    18    18   ---   0.8 Broken Clouds/
31/12/2008 18:50      13.0   7.0  14.4   6.6  67  1030   ---   SSW    14    14   ---   0.6 Scattered Clouds/
31/12/2008 19:50      12.0   8.0  14.1   4.5  77  1030   ---    SW    16    16   ---   0.6 Scattered Clouds/
31/12/2008 20:50      12.0   7.0  13.7   5.3  71  1030   ---   SSW    14    14   ---   0.8 Scattered Clouds/
31/12/2008 21:50      11.0   7.0  13.1   7.3  76  1030   ---     S     8     8   ---   0.8 Few Clouds/
31/12/2008 22:50      10.0   6.0  12.1   6.2  76  1030   ---     S     8     8   ---   0.8 Few Clouds/
31/12/2008 23:50      11.0   6.0  12.7  11.0  71  1029   ---     N     5     5   ---   0.8 Few Clouds/
01/01/2009 00:50      11.0   6.0  12.7  11.0  71  1029   ---     N     5     5   ---   0.8 Scattered Clouds/
01/01/2009 01:50      11.0   7.0  13.1   4.0  76  1028   ---    SW    14    14   ---   0.8 Few Clouds/
01/01/2009 03:50      11.0   6.0  12.7   3.1  71  1027   ---   SSW    16    16   ---   0.8 Few Clouds/
01/01/2009 04:50      11.0   5.0  12.4   7.3  66  1026   ---     S     8     8   ---   0.8 Few Clouds/
01/01/2009 05:50      12.0   5.0  13.1   6.2  62  1026   ---   SSW    13    13   ---   0.7 Few Clouds/
01/01/2009 06:50      14.0   6.0  14.9  10.8  59  1026   ---     N     8     8   ---   0.7 Few Clouds/
01/01/2009 07:50      14.0   4.0  14.5  12.3  51  1026   ---     S     6     6   ---   0.7 Few Clouds/
01/01/2009 08:50      15.0   5.0  15.5   5.6  51  1025   ---     S    31    50   ---   0.7 Few Clouds/
01/01/2009 09:50      16.0   7.0  16.7   6.3  55  1025   ---     S    40    40   ---   0.7 Few Clouds/
01/01/2009 10:20      16.0   7.0  16.7   6.3  55  1025   ---     S    40    40   ---   1.2 Few Clouds/
01/01/2009 10:20      16.0   7.0  16.7   6.3  55  1025   ---     S    40    40   ---   1.2 Few Clouds/None reported
01/01/2009 11:50      16.0   8.0  16.9   6.3  59  1024   ---     S    40    40   ---   1.2 Few Clouds/
01/01/2009 12:50      17.0   8.0  17.7   7.6  55  1023   ---     S    45    45   ---   1.2 Few Clouds/
01/01/2009 13:50      17.0   9.0  18.0   7.7  59  1023   ---     S    43    43   ---   1.2 Few Clouds/
01/01/2009 14:50      17.0   8.0  17.7   8.1  55  1022   ---     S    37    37   ---   1.2 Few Clouds/
01/01/2009 15:50      17.0   8.0  17.7   8.1  55  1022   ---   SSW    37    37   ---   1.2 Few Clouds/
01/01/2009 16:50      15.0   9.0  16.5   6.1  67  1021   ---   SSW    27    58   ---   0.9 Scattered Clouds/
01/01/2009 17:50      15.0   9.0  16.5   7.3  67  1021   ---     S    21    47   ---   0.9 Scattered Clouds/
01/01/2009 18:50      15.0   9.0  16.5   4.9  67  1021   ---     S    39    60   ---   0.9 Scattered Clouds/
01/01/2009 19:50      15.0   9.0  16.5   5.3  67  1021   ---     S    34    55   ---   0.9 Scattered Clouds/
01/01/2009 20:50      15.0   9.0  16.5   5.9  67  1021   ---     S    29    58   ---   0.9 Scattered Clouds/
01/01/2009 21:50      15.0   9.0  16.5   5.4  67  1021   ---     S    32    32   ---   0.9 Scattered Clouds/
01/01/2009 22:50      15.0   9.0  16.5   4.7  67  1020   ---     S    40    40   ---   0.9 Scattered Clouds/
01/01/2009 23:50      15.0   9.0  16.5   4.7  67  1020   ---     S    42    63   ---   0.9 Scattered Clouds/
02/01/2009 00:50      15.0  10.0  16.8   5.4  72  1020   ---   SSW    32    32   ---   0.9 Scattered Clouds/
02/01/2009 01:50      14.0  10.0  16.1   4.1  77  1020   ---   SSW    31    31   ---   0.9 Scattered Clouds/
02/01/2009 02:50      15.0   9.0  16.5   4.7  67  1020   ---   SSW    42    42   ---   0.9 Scattered Clouds/
02/01/2009 03:50      15.0  10.0  16.8   4.9  72  1019   ---     S    37    37   ---   0.6 Scattered Clouds/
02/01/2009 04:50      15.0  10.0  16.8   5.3  72  1019   ---     S    34    34   ---   0.6 Scattered Clouds/
02/01/2009 05:50      14.0  10.0  16.1   4.9  77  1019   ---   SSW    26    26   ---   0.6 Scattered Clouds/
02/01/2009 06:50      14.0   9.0  15.8   4.9  72  1019   ---     S    26    26   ---   0.6 Scattered Clouds/
02/01/2009 07:50      14.0   9.0  15.8   5.5  72  1019   ---     S    23    23   ---   0.6 Scattered Clouds/
02/01/2009 08:50      15.0   8.0  16.2   5.9  63  1019   ---   SSW    29    29   ---   0.6 Few Clouds/
02/01/2009 09:50      15.0   9.0  16.5   6.9  67  1019   ---   SSW    23    23   ---   0.6 Few Clouds/
02/01/2009 10:50      16.0  10.0  17.5   7.4  68  1019   ---   SSW    29    29   ---   0.6 Few Clouds/
02/01/2009 11:50      16.0  10.0  17.5   8.4  68  1019   ---   SSW    23    23   ---   0.6 Few Clouds/
02/01/2009 12:50      17.0  11.0  18.5  10.4  68  1019   ---   SSW    19    19   ---   0.6 Few Clouds/
02/01/2009 13:50      17.0  11.0  18.5  12.5  68  1018   ---   SSW    13    13   ---   0.6 Few Clouds/
02/01/2009 14:50      17.0  11.0  18.5  11.0  68  1017   ---    SW    18    18   ---   0.7 Few Clouds/
02/01/2009 15:50      16.0  12.0  18.1   9.0  77  1017   ---    SW    19    19   ---   0.7 Scattered Clouds/
02/01/2009 16:50      16.0  10.0  17.5   9.6  68  1017   ---     S    18    18   ---   0.7 Few Clouds/
02/01/2009 17:50      15.0  10.0  16.8   7.6  72  1016   ---   SSW    19    19   ---   0.7 Few Clouds/
02/01/2009 18:50      16.0   8.0  16.9   8.4  59  1016   ---     S    23    23   ---   0.7 Few Clouds/
02/01/2009 19:50      16.0   7.0  16.7   8.7  55  1016   ---     S    21    21   ---   0.7 Few Clouds/
02/01/2009 20:50      15.0   6.0  15.7   9.3  55  1015   ---   SSW    14    14   ---   0.7 Few Clouds/
02/01/2009 21:50      15.0  10.0  16.8   7.3  72  1015   ---    SW    21    21   ---   0.7 Few Clouds/
02/01/2009 22:50      15.0   8.0  16.2   7.3  63  1014   ---    SW    21    21   ---   0.7 Few Clouds/
02/01/2009 23:50      15.0   8.0  16.2   6.4  63  1014   ---    SW    26    26   ---   0.7 Few Clouds/
03/01/2009 00:50      15.0   7.0  15.9   7.3  59  1014   ---   SSW    21    21   ---   0.7 Few Clouds/
03/01/2009 01:50      15.0   9.0  16.5   7.3  67  1013   ---   SSW    21    21   ---   0.7 Few Clouds/
03/01/2009 02:50      15.0  10.0  16.8   6.9  72  1013   ---   SSW    23    23   ---   0.6 Few Clouds/
03/01/2009 03:50      14.0  11.0  16.5   4.9  82  1013   ---     S    26    26   ---   --- / Drizzle
03/01/2009 04:50      14.0  11.0  16.5   4.9  82  1012   ---   SSW    26    26   ---   0.6 Broken Clouds/
03/01/2009 05:50      13.0  11.0  15.9   3.1  88  1012   ---   SSW    27    27   ---   --- / Drizzle
03/01/2009 06:50      14.0   9.0  15.8   5.5  72  1012   ---   SSW    23    23   ---   0.6 Broken Clouds/
03/01/2009 07:50      14.0  10.0  16.1   5.5  77  1012   ---     S    23    23   ---   0.6 Broken Clouds/
03/01/2009 08:50      14.0  11.0  16.5   4.4  82  1012   ---     S    29    29   ---   0.6 Broken Clouds/
03/01/2009 09:50      14.0  11.0  16.5   4.9  82  1012   ---   SSW    26    26   ---   0.6 Broken Clouds/
03/01/2009 10:50      15.0  11.0  17.1   6.4  77  1012   ---   SSW    26    26   ---   0.6 Scattered Clouds/
03/01/2009 11:50      14.0  11.0  16.5   4.4  82  1011   ---    SW    29    29   ---   --- Overcast/ Light Rain
03/01/2009 12:50      14.0  11.0  16.5   6.2  82  1011   ---     S    19    19   ---   0.6 Broken Clouds/
03/01/2009 13:50      14.0  11.0  16.5   4.9  82  1010   ---     S    26    26   ---   --- Overcast/ Light Rain
03/01/2009 14:50      14.0  12.0  17.0   5.5  88  1010   ---   WSW    23    23   ---   --- Overcast/ Light Rain
03/01/2009 15:50      14.0  11.0  16.5   6.9  82  1010   ---   SSW    18    18   ---   0.6 Scattered Clouds/
03/01/2009 16:50      14.0  11.0  16.5   4.1  82  1010   ---     W    31    31   ---   0.6 Scattered Clouds/
03/01/2009 17:50      14.0  11.0  16.5   4.6  82  1011   ---     W    27    27   ---   0.7 Scattered Clouds/
03/01/2009 18:50      14.0  10.0  16.1   3.8  77  1011   ---     W    34    34   ---   0.7 Scattered Clouds/
03/01/2009 19:50      13.0  11.0  15.9   1.8  88  1011   ---     W    37    37   ---   0.6 Scattered Clouds/
03/01/2009 20:50      14.0  12.0  17.0   4.1  88  1012   ---   WNW    31    31   ---   --- Overcast/ Rain
03/01/2009 21:50      14.0  12.0  17.0   3.9  88  1012   ---   WNW    32    32   ---   0.4 Scattered Clouds/
03/01/2009 22:50      14.0  11.0  16.5   4.1  82  1012   ---    NW    31    31   ---   0.4 Scattered Clouds/
03/01/2009 23:50      14.0  10.0  16.1   4.4  77  1013   ---   WNW    29    29   ---   0.4 Scattered Clouds/
04/01/2009 00:50      14.0  10.0  16.1   6.2  77  1013   ---    NW    19    19   ---   0.4 Scattered Clouds/
04/01/2009 01:50      14.0   9.0  15.8   6.9  72  1012   ---    NW    18    18   ---   0.4 Scattered Clouds/
04/01/2009 02:50      14.0   9.0  15.8   6.9  72  1012   ---    NW    18    18   ---   0.4 Scattered Clouds/
04/01/2009 03:50      14.0   9.0  15.8   7.2  72  1012   ---    NW    16    16   ---   0.4 Scattered Clouds/
04/01/2009 04:50      14.0   9.0  15.8   6.9  72  1012   ---    NW    18    18   ---   0.4 Scattered Clouds/
04/01/2009 05:50      11.0   9.0  13.9   7.3  87  1012   ---   SSE     8     8   ---   0.4 Scattered Clouds/
04/01/2009 06:50      11.0   8.0  13.5   7.3  82  1012   ---   SSE     8     8   ---   0.6 Broken Clouds/
04/01/2009 07:50      13.0   9.0  15.1   4.8  77  1013   ---    NW    19    19   ---   0.4 Broken Clouds/
04/01/2009 08:50      13.0   8.0  14.8   8.9  72  1013   ---   WNW    10    10   ---   0.7 Broken Clouds/
04/01/2009 09:20      13.0   8.0  14.8   9.7  72  1013   ---   WNW     8     8   ---   0.7 Broken Clouds/
04/01/2009 10:50      13.0   9.0  15.1   9.7  77  1014   ---   SSW     8     8   ---   0.7 Scattered Clouds/
04/01/2009 11:50      14.0   8.0  15.5  10.8  67  1013   ---   WNW     8     8   ---   0.6 Broken Clouds/
04/01/2009 12:50      13.0   8.0  14.8   6.6  72  1013   ---    NW    14    14   ---   0.6 Broken Clouds/
04/01/2009 13:50      13.0   7.0  14.4   7.4  67  1012   ---    NW    13    13   ---   0.8 Broken Clouds/
04/01/2009 14:50      13.0   7.0  14.4   7.4  67  1012   ---     N    13    13   ---   0.8 Broken Clouds/
04/01/2009 15:20      13.0   7.0  14.4   8.9  67  1012   ---     N    10    10   ---   0.8 Broken Clouds/
04/01/2009 16:50      13.0   7.0  14.4  11.2  67  1012   ---     N     6     6   ---   0.8 Broken Clouds/
04/01/2009 17:50      13.0   7.0  14.4  11.2  67  1012   ---     N     6     6   ---   0.7 Scattered Clouds/
04/01/2009 18:50      12.0   7.0  13.7   8.5  71  1012   ---   ENE     8     8   ---   0.7 Scattered Clouds/
04/01/2009 19:50      11.0   8.0  13.5   7.3  82  1013   ---   ENE     8     8   ---   0.7 Scattered Clouds/
04/01/2009 20:50      11.0   8.0  13.5   6.5  82  1013   ---     E    10    10   ---   0.7 Few Clouds/
04/01/2009 21:50      11.0   8.0  13.5   7.3  82  1013   ---     E     8     8   ---   0.7 Scattered Clouds/
04/01/2009 22:50      11.0   8.0  13.5   6.5  82  1012   ---    NE    10    10   ---   0.8 Broken Clouds/
04/01/2009 23:50      11.0   8.0  13.5   4.9  82  1012   ---   ENE    13    13   ---   0.8 Broken Clouds/
05/01/2009 00:50      11.0   8.0  13.5   4.0  82  1011   ---   ENE    14    14   ---   0.8 Broken Clouds/
05/01/2009 01:50      12.0   7.0  13.7   3.3  71  1011   ---   ENE    19    19   ---   0.9 Broken Clouds/
05/01/2009 02:50      11.0   7.0  13.1   3.1  76  1010   ---   ENE    16    16   ---   0.9 Broken Clouds/
05/01/2009 03:50      11.0   7.0  13.1   1.5  76  1010   ---     E    21    21   ---   0.9 Broken Clouds/
05/01/2009 04:50      11.0   7.0  13.1   2.7  76  1009   ---   ENE    18    18   ---   0.9 Broken Clouds/
05/01/2009 05:50      11.0   7.0  13.1   3.1  76  1009   ---   ENE    16    16   ---   0.9 Broken Clouds/
05/01/2009 06:50      11.0   7.0  13.1   4.0  76  1010   ---   ENE    14    14   ---   0.7 Broken Clouds/
05/01/2009 07:50      12.0   7.0  13.7   3.0  71  1010   ---    NE    21    21   ---   0.7 Broken Clouds/
05/01/2009 08:50      12.0   8.0  14.1   1.9  77  1010   ---    NE    26    26   ---   0.7 Broken Clouds/
05/01/2009 09:50      12.0   8.0  14.1   3.0  77  1010   ---   NNE    21    21   ---   0.7 Broken Clouds/
05/01/2009 10:50      13.0   7.0  14.4   4.4  67  1010   ---   NNE    21    21   ---   0.7 Broken Clouds/
05/01/2009 11:50      13.0   7.0  14.4   4.0  67  1010   ---   NNE    23    23   ---   0.7 Broken Clouds/
05/01/2009 12:50      13.0   7.0  14.4   5.5  67  1010   ---   NNE    18    18   ---   0.7 Broken Clouds/
05/01/2009 13:50      13.0   7.0  14.4   5.8  67  1009   ---   NNE    16    16   ---   0.7 Broken Clouds/
05/01/2009 14:50      13.0   6.0  14.2   7.4  62  1010   ---   NNE    13    13   ---   0.7 Broken Clouds/
05/01/2009 16:50      13.0   7.0  14.4   6.6  67  1010   ---   NNE    14    14   ---   0.7 Broken Clouds/
05/01/2009 17:50      13.0   7.0  14.4   2.9  67  1011   ---     N    29    29   ---   0.7 Broken Clouds/
05/01/2009 18:50      13.0   7.0  14.4   4.4  67  1011   ---   NNE    21    21   ---   0.9 Broken Clouds/
05/01/2009 19:50      12.0   6.0  13.4   4.5  67  1012   ---   NNE    16    16   ---   0.9 Broken Clouds/
05/01/2009 20:50      13.0   7.0  14.4   5.5  67  1012   ---     N    18    18   ---   0.9 Broken Clouds/
05/01/2009 21:50      12.0   5.0  13.1   4.5  62  1012   ---     N    16    16   ---   0.9 Scattered Clouds/
05/01/2009 22:50      12.0   6.0  13.4   4.1  67  1013   ---   NNW    18    18   ---   0.9 Scattered Clouds/
05/01/2009 23:50      12.0   5.0  13.1   4.5  62  1013   ---   NNW    16    16   ---   0.9 Scattered Clouds/
06/01/2009 00:50      12.0   4.0  12.9   7.7  58  1013   ---   NNW    10    10   ---   0.9 Scattered Clouds/
06/01/2009 01:50      12.0   4.0  12.9   7.7  58  1013   ---   NNW    10    10   ---   0.9 Scattered Clouds/
06/01/2009 02:50       8.0   3.0   9.7   5.7  71  1013   ---   ENE     6     6   ---   0.8 Few Clouds/
06/01/2009 03:50       9.0   3.0  10.4   6.8  66  1013   ---     E     6     6   ---   0.8 Few Clouds/
06/01/2009 04:50       7.0   3.0   9.0   4.6  76  1013   ---    SE     6     6   ---   0.8 Few Clouds/
06/01/2009 05:50       8.0   4.0  10.0   5.7  76  1013   ---    SE     6     6   ---   0.8 Few Clouds/
06/01/2009 06:50       9.0   4.0  10.7   9.0  71  1013   ---     N     3     3   ---   0.8 Few Clouds/
06/01/2009 07:50       8.0   4.0  10.0   1.0  76  1014   ---    SE    13    13   ---   0.8 Few Clouds/
06/01/2009 08:50       8.0   4.0  10.0   5.7  76  1014   ---   SSE     6     6   ---   1.0 Few Clouds/
06/01/2009 09:50      12.0   6.0  13.4  12.0  67  1015   ---     N     5     5   ---   1.2 Scattered Clouds/
06/01/2009 10:50      13.0   5.0  13.9  13.0  58  1015   ---     N     5     5   ---   1.2 Scattered Clouds/
06/01/2009 11:50      13.0   6.0  14.2   7.4  62  1014   ---    SW    13    13   ---   0.9 Few Clouds/
06/01/2009 12:50      13.0   6.0  14.2   7.4  62  1014   ---    SW    13    13   ---   1.2 Scattered Clouds/
06/01/2009 13:50      14.0   5.0  14.7   8.7  55  1014   ---   SSW    13    13   ---   0.9 Scattered Clouds/
06/01/2009 14:50      14.0   4.0  14.5   8.0  51  1014   ---   SSW    14    14   ---   0.8 Few Clouds/
06/01/2009 15:50      14.0   4.0  14.5  10.1  51  1014   ---    SW    10    10   ---   0.8 Few Clouds/
06/01/2009 16:50      12.0   5.0  13.1   7.7  62  1014   ---   SSW    10    10   ---   0.8 Scattered Clouds/
06/01/2009 17:50      11.0   5.0  12.4   6.5  66  1014   ---     S    10    10   ---   0.8 Scattered Clouds/
06/01/2009 18:50      10.0   6.0  12.1   5.3  76  1014   ---     S    10    10   ---   0.8 Scattered Clouds/
06/01/2009 19:50      10.0   6.0  12.1   3.6  76  1014   ---   SSE    13    13   ---   0.8 Scattered Clouds/
06/01/2009 20:20      11.0   6.0  12.7   4.9  71  1015   ---     S    13    13   ---   0.8 Scattered Clouds/
06/01/2009 21:50      12.0   6.0  13.4   6.2  67  1015   ---     S    13    13   ---   0.8 Scattered Clouds/
06/01/2009 22:50      11.0   6.0  12.7   2.7  71  1015   ---     S    18    18   ---   0.8 Few Clouds/
06/01/2009 23:50      11.0   5.0  12.4   2.7  66  1014   ---   SSE    18    18   ---   0.8 Scattered Clouds/
07/01/2009 00:50      12.0   5.0  13.1   3.0  62  1014   ---     S    21    21   ---   0.8 Scattered Clouds/
07/01/2009 01:50      12.0   6.0  13.4   2.6  67  1014   ---     S    23    23   ---   0.8 Few Clouds/
07/01/2009 02:50      12.0   6.0  13.4   0.8  67  1013   ---     S    32    32   ---   0.8 Few Clouds/
07/01/2009 03:50      12.0   9.0  14.5   3.0  82  1013   ---    SW    21    21   ---   0.9 Broken Clouds/
07/01/2009 04:50      10.0   8.0  12.9   6.2  87  1013   ---   SSE     8     8   ---   --- Overcast/ Light Rain
07/01/2009 05:50      11.0   8.0  13.5  11.0  82  1013   ---     N     2     2   ---   0.9 Broken Clouds/
07/01/2009 06:50      13.0   6.0  14.2   3.4  62  1013   ---     S    26    26   ---   0.9 Broken Clouds/
07/01/2009 07:50      13.0   6.0  14.2   2.2  62  1013   ---     S    34    34   ---   0.8 Few Clouds/
07/01/2009 08:50      13.0   6.0  14.2   1.8  62  1013   ---     S    39    39   ---   0.8 Few Clouds/
07/01/2009 09:50      14.0   7.0  15.2   3.3  63  1013   ---     S    39    39   ---   0.8 Few Clouds/
07/01/2009 10:50      15.0   7.0  15.9   5.3  59  1013   ---     S    34    55   ---   0.8 Few Clouds/
07/01/2009 11:20      15.0   7.0  15.9   5.3  59  1013   ---     S    34    55   ---   0.8 Few Clouds/
07/01/2009 12:50      15.0   7.0  15.9   4.9  59  1013   ---     S    39    39   ---   0.8 Few Clouds/
07/01/2009 13:50      15.0   7.0  15.9   6.1  59  1012   ---     S    27    27   ---   0.8 Few Clouds/
07/01/2009 14:50      15.0   8.0  16.2   6.1  63  1012   ---     S    27    27   ---   0.8 Few Clouds/
07/01/2009 15:50      15.0   8.0  16.2   7.6  63  1012   ---   SSW    19    19   ---   0.7 Scattered Clouds/
07/01/2009 16:50      14.0   9.0  15.8   5.5  72  1012   ---   SSW    23    23   ---   0.7 Scattered Clouds/
07/01/2009 17:50      14.0   8.0  15.5  10.8  67  1013   ---     S     8     8   ---   0.7 Scattered Clouds/
07/01/2009 18:50      14.0   9.0  15.8   6.2  72  1013   ---     S    19    39   ---   0.7 Scattered Clouds/
07/01/2009 19:50      14.0   8.0  15.5   4.6  67  1014   ---     S    27    47   ---   0.7 Scattered Clouds/
07/01/2009 20:50      14.0   9.0  15.8   5.5  72  1014   ---   SSW    23    23   ---   0.7 Scattered Clouds/
07/01/2009 21:50      14.0   9.0  15.8   4.4  72  1014   ---     S    29    29   ---   0.7 Scattered Clouds/
07/01/2009 22:50      14.0   9.0  15.8   4.9  72  1014   ---   SSW    26    26   ---   0.7 Scattered Clouds/
07/01/2009 23:50      14.0   8.0  15.5   4.6  67  1015   ---     S    27    27   ---   0.7 Scattered Clouds/
08/01/2009 00:50      14.0   8.0  15.5   6.2  67  1015   ---     S    19    19   ---   0.7 Scattered Clouds/
08/01/2009 01:50      14.0   8.0  15.5   4.6  67  1014   ---     S    27    27   ---   0.7 Scattered Clouds/
08/01/2009 02:50      14.0   8.0  15.5   5.5  67  1015   ---     S    23    23   ---   0.7 Scattered Clouds/
08/01/2009 03:50      14.0   7.0  15.2   5.8  63  1014   ---     S    21    21   ---   0.7 Scattered Clouds/
08/01/2009 04:50      13.0   6.0  14.2   5.5  62  1014   ---     S    18    18   ---   0.7 Scattered Clouds/
08/01/2009 05:50      14.0   4.0  14.5   8.7  51  1014   ---    SE    13    13   ---   0.7 Scattered Clouds/
08/01/2009 06:50      14.0   8.0  15.5  14.0  67  1014   ---     N     5     5   ---   0.7 Scattered Clouds/
08/01/2009 07:50      12.0   7.0  13.7  12.0  71  1015   ---     N     5     5   ---   1.2 Scattered Clouds/
08/01/2009 08:50      12.0   7.0  13.7  12.0  71  1015   ---     N     3     3   ---   1.0 Scattered Clouds/
08/01/2009 09:50      14.0   8.0  15.5  14.0  67  1016   ---     N     3     3   ---   1.0 Scattered Clouds/
08/01/2009 10:50      15.0   9.0  16.5  13.3  67  1017   ---     N     6     6   ---   1.0 Few Clouds/
08/01/2009 11:50      15.0  10.0  16.8  10.0  72  1016   ---   NNE    13    13   ---   1.0 Few Clouds/
08/01/2009 12:50      15.0  12.0  17.5   7.3  82  1016   ---   NNE    21    21   ---   1.0 Few Clouds/
08/01/2009 13:50      16.0   9.0  17.2   8.7  63  1015   ---    NE    21    21   ---   --- /
08/01/2009 14:50      15.0  10.0  16.8   6.1  72  1015   ---   ENE    27    27   ---   1.5 Scattered Clouds/
08/01/2009 15:50      15.0  11.0  17.1   6.1  77  1015   ---   ENE    27    27   ---   0.9 Few Clouds/
08/01/2009 16:50      14.0  10.0  16.1   5.8  77  1015   ---   ENE    21    21   ---   0.9 Few Clouds/
08/01/2009 17:50      14.0  10.0  16.1   4.6  77  1016   ---     E    27    27   ---   0.7 Few Clouds/
08/01/2009 18:50      14.0  10.0  16.1   4.6  77  1016   ---   ENE    27    27   ---   0.7 Few Clouds/
08/01/2009 19:50      13.0  10.0  15.5   3.1  82  1017   ---   ENE    27    27   ---   0.7 Few Clouds/
08/01/2009 20:50      13.0  10.0  15.5   4.0  82  1017   ---   ENE    23    23   ---   0.7 Few Clouds/
08/01/2009 21:50      14.0   9.0  15.8   4.6  72  1017   ---   ENE    27    27   ---   0.7 Few Clouds/
08/01/2009 22:50      14.0   9.0  15.8   5.5  72  1017   ---     E    23    23   ---   0.7 Few Clouds/
08/01/2009 23:50      14.0   9.0  15.8   6.2  72  1017   ---   ESE    19    19   ---   0.7 Few Clouds/
09/01/2009 00:50      14.0   8.0  15.5  14.0  67  1018   ---     E     3     3   ---   0.7 Few Clouds/
09/01/2009 01:50      12.0   8.0  14.1  10.1  77  1018   ---    SW     6     6   ---   0.7 Few Clouds/
09/01/2009 02:50      12.0   8.0  14.1   8.5  77  1018   ---     E     8     8   ---   0.7 Few Clouds/
09/01/2009 03:50      11.0   9.0  13.9   9.0  87  1018   ---    SE     6     6   ---   0.7 Few Clouds/
09/01/2009 04:50      10.0   9.0  13.4   7.9  94  1018   ---    SE     6     6   ---   0.7 Few Clouds/
09/01/2009 05:50       9.0   6.0  11.5   9.0  81  1018   ---     N     5     5   ---   0.7 Few Clouds/
09/01/2009 06:50      10.0   8.0  12.9  10.0  87  1019   ---     N     2     2   ---   0.7 Few Clouds/
09/01/2009 07:50      10.0   8.0  12.9   7.9  87  1019   ---   ESE     6     6   ---   0.9 Few Clouds/
09/01/2009 08:50      12.0   9.0  14.5  12.0  82  1019   ---     N     5     5   ---   0.9 Few Clouds/
09/01/2009 10:50      14.0  10.0  16.1  14.0  77  1020   ---     N     3     3   ---   0.9 Broken Clouds/
09/01/2009 11:50      15.0  10.0  16.8  15.0  72  1019   ---     N     2     2   ---   1.0 Broken Clouds/
09/01/2009 12:50      15.0  10.0  16.8  15.0  72  1018   ---     N     3     3   ---   1.0 Broken Clouds/
09/01/2009 13:50      16.0  11.0  17.8   8.7  72  1017   ---   ENE    21    21   ---   1.0 Broken Clouds/
09/01/2009 14:50      15.0  11.0  17.1   7.6  77  1017   ---   ENE    19    19   ---   1.0 Broken Clouds/
09/01/2009 15:50      15.0  12.0  17.5   7.6  82  1017   ---   ENE    19    19   ---   1.0 Scattered Clouds/
09/01/2009 16:50      15.0  11.0  17.1  15.0  77  1016   ---     N     2     2   ---   1.0 Scattered Clouds/
09/01/2009 17:50      14.0  11.0  16.5  14.0  82  1016   ---     N     5     5   ---   1.0 Scattered Clouds/
09/01/2009 18:50      13.0  11.0  15.9  13.0  88  1016   ---     N     0     0   ---   1.0 Scattered Clouds/
09/01/2009 19:50      13.0  11.0  15.9  13.0  88  1016   ---   ---     5     5   ---   1.0 Scattered Clouds/
09/01/2009 20:50      12.0  10.0  14.9  12.0  88  1016   ---     N     5     5   ---   1.0 Scattered Clouds/
09/01/2009 21:50      11.0   9.0  13.9   9.0  87  1017   ---     S     6     6   ---   1.0 Few Clouds/
09/01/2009 22:50      12.0  10.0  14.9  12.0  88  1017   ---     N     2     2   ---   1.0 Few Clouds/
09/01/2009 23:50      11.0   9.0  13.9  11.0  87  1016   ---     N     5     5   ---   0.9 Scattered Clouds/
10/01/2009 00:50      11.0   9.0  13.9   9.0  87  1016   ---   SSE     6     6   ---   0.9 Scattered Clouds/
10/01/2009 01:50      13.0  11.0  15.9   3.4  88  1016   ---    SW    26    26   ---   0.9 Scattered Clouds/
10/01/2009 02:50      12.0  11.0  15.4  12.0  94  1015   ---     N     5     5   ---   --- Overcast/ Light Rain
10/01/2009 03:50      12.0  10.0  14.9  12.0  88  1015   ---     N     3     3   ---   0.6 Broken Clouds/
10/01/2009 04:50      12.0  10.0  14.9  10.1  88  1016   ---     S     6     6   ---   0.9 Scattered Clouds/
10/01/2009 05:50      13.0  10.0  15.5   8.9  82  1016   ---     S    10    10   ---   0.9 Scattered Clouds/
10/01/2009 06:50      12.0   9.0  14.5   4.5  82  1016   ---     S    16    16   ---   0.9 Few Clouds/
10/01/2009 07:50      12.0   9.0  14.5   5.3  82  1016   ---     S    14    14   ---   0.9 Few Clouds/
10/01/2009 08:50      12.0  10.0  14.9   8.5  88  1017   ---     S     8     8   ---   0.9 Few Clouds/
10/01/2009 09:50      14.0  10.0  16.1   4.6  77  1017   ---     S    27    27   ---   0.7 Few Clouds/
10/01/2009 10:50      15.0  10.0  16.8   6.9  72  1018   ---     S    23    23   ---   0.7 Few Clouds/
10/01/2009 11:50      16.0  11.0  17.8   8.4  72  1018   ---     S    23    23   ---   0.7 Few Clouds/
10/01/2009 12:50      15.0  10.0  16.8   8.2  72  1018   ---   SSW    18    18   ---   0.7 Few Clouds/
10/01/2009 13:50      15.0  10.0  16.8   8.2  72  1017   ---    SW    18    18   ---   0.7 Few Clouds/
10/01/2009 14:50      15.0  10.0  16.8  12.0  72  1017   ---     W     8     8   ---   0.7 Few Clouds/
10/01/2009 15:50      15.0  10.0  16.8   8.2  72  1017   ---   WSW    18    18   ---   0.7 Few Clouds/
10/01/2009 16:50      14.0  10.0  16.1   7.2  77  1018   ---   SSW    16    16   ---   0.7 Few Clouds/
10/01/2009 17:50      14.0  10.0  16.1   6.2  77  1018   ---   SSW    19    19   ---   0.7 Few Clouds/
10/01/2009 18:50      13.0   9.0  15.1   6.6  77  1019   ---   SSE    14    14   ---   0.7 Few Clouds/
10/01/2009 19:50      13.0   9.0  15.1   7.4  77  1019   ---   SSE    13    13   ---   0.9 Few Clouds/
10/01/2009 20:50      12.0   8.0  14.1   7.7  77  1020   ---     S    10    10   ---   0.9 Few Clouds/
10/01/2009 21:50      11.0   7.0  13.1  11.0  76  1020   ---     N     2     2   ---   0.9 Few Clouds/
10/01/2009 22:50      11.0   7.0  13.1  11.0  76  1021   ---     N     5     5   ---   0.9 Few Clouds/
10/01/2009 23:50      10.0   6.0  12.1  10.0  76   ---   ---     N     5     5   ---   0.9 Few Clouds/
11/01/2009 00:50      10.0   7.0  12.5   7.9  82   ---   ---    SE     6     6   ---   0.9 Few Clouds/
11/01/2009 01:50      10.0   7.0  12.5  10.0  82   ---   ---     N     5     5   ---   0.9 Few Clouds/
11/01/2009 02:50      10.0   7.0  12.5  10.0  82   ---   ---     N     5     5   ---   0.9 Few Clouds/
11/01/2009 04:50      10.0   7.0  12.5  10.0  82   ---   ---     N     5     5   ---   0.9 Few Clouds/
11/01/2009 05:50       9.0   6.0  11.5   9.0  81   ---   ---     N     5     5   ---   0.9 Few Clouds/
11/01/2009 06:50       8.0   6.0  10.9   8.0  87   ---   ---     N     5     5   ---   --- /
11/01/2009 07:50       8.0   6.0  10.9   5.7  87   ---   ---   SSW     6     6   ---   --- /
11/01/2009 08:50      10.0   6.0  12.1  10.0  76   ---   ---    SW     2     2   ---   --- /
11/01/2009 09:50      13.0   9.0  15.1  13.0  77   ---   ---     N     5     5   ---   --- /
11/01/2009 10:50      14.0  10.0  16.1  10.1  77   ---   ---   NNE    10    10   ---   0.9 Few Clouds/
11/01/2009 11:50      14.0  11.0  16.5   7.2  82   ---   ---    NE    16    16   ---   0.9 Few Clouds/
11/01/2009 12:50      14.0  11.0  16.5   8.0  82   ---   ---    NE    14    14   ---   0.9 Few Clouds/
11/01/2009 13:50      15.0  10.0  16.8   8.6  72   ---   ---   ENE    16    16   ---   0.9 Few Clouds/
11/01/2009 14:50      15.0  11.0  17.1   7.3  77   ---   ---   ENE    21    21   ---   0.9 Few Clouds/
11/01/2009 15:50      15.0  12.0  17.5   7.3  82   ---   ---    NE    21    21   ---   0.5 Few Clouds/
11/01/2009 16:50      14.0  12.0  17.0   5.8  88   ---   ---    NE    21    21   ---   0.5 Scattered Clouds/
11/01/2009 17:20      14.0  12.0  17.0   5.8  88   ---   ---    NE    21    21   ---   0.5 Scattered Clouds/
11/01/2009 18:50      14.0  11.0  16.5   3.4  82   ---   ---   ENE    37    37   ---   0.5 Scattered Clouds/
11/01/2009 19:50      14.0  10.0  16.1   2.5  77   ---   ---   ENE    50    50   ---   0.5 Scattered Clouds/
12/01/2009 00:50      13.0  12.0  16.4   2.6  94   ---   ---     E    31    31   ---   --- Overcast/ Rain
12/01/2009 01:50      14.0  11.0  16.5   8.7  82   ---   ---    NE    13    13   ---   --- Overcast/ Rain
12/01/2009 02:50      14.0  11.0  16.5   7.2  82   ---   ---   ENE    16    16   ---   0.5 Broken Clouds/
12/01/2009 03:50      13.0  11.0  15.9   4.4  88   ---   ---   ENE    21    21   ---   0.6 Scattered Clouds/
12/01/2009 04:50      14.0  11.0  16.5   6.9  82   ---   ---   ENE    18    18   ---   0.6 Scattered Clouds/
12/01/2009 05:50      13.0  11.0  15.9   4.0  88   ---   ---     E    23    23   ---   0.6 Broken Clouds/
12/01/2009 06:50      14.0  11.0  16.5   6.2  82   ---   ---   ENE    19    19   ---   0.6 Broken Clouds/
12/01/2009 07:50      14.0  11.0  16.5  12.3  82   ---   ---   ESE     6     6   ---   --- Overcast/ Light Rain
12/01/2009 08:50      13.0  12.0  16.4  13.0  94   ---   ---     N     5     5   ---   --- Overcast/ Light Rain
12/01/2009 09:50      13.0  12.0  16.4   5.5  94   ---   ---   ENE    18    18   ---   --- Overcast/ Light Rain
12/01/2009 10:50      13.0  13.0  17.0   3.4 100   ---   ---   ENE    26    26   ---   --- Overcast/ Light Rain
12/01/2009 11:50      13.0  13.0  17.0   4.8 100   ---   ---   ENE    19    19   ---   --- Overcast/ Light Rain
12/01/2009 12:50      14.0  13.0  17.4   6.2  94   ---   ---   ENE    19    19   ---   --- Overcast/ Light Rain
12/01/2009 13:50      14.0  13.0  17.4  14.0  94   ---   ---     N     5     5   ---   --- Overcast/ Light Rain
12/01/2009 14:50      14.0  13.0  17.4  14.0  94   ---   ---     N     5     5   ---   --- Overcast/ Rain
12/01/2009 15:50      14.0  11.0  16.5  14.0  82   ---   ---     N     2     2   ---   --- Overcast/ Light Rain
12/01/2009 16:50      14.0  11.0  16.5   6.9  82   ---   ---   ENE    18    18   ---   --- Overcast/ Light Rain
12/01/2009 17:50      13.0  11.0  15.9   7.4  88   ---   ---   ENE    13    13   ---   0.6 Overcast/
12/01/2009 18:50      15.0  11.0  17.1   9.3  77   ---   ---     E    14    14   ---   0.6 Overcast/
12/01/2009 19:50      15.0  12.0  17.5  12.0  82   ---   ---   WNW     8     8   ---   0.6 Overcast/
12/01/2009 20:50      14.0  12.0  17.0  14.0  88   ---   ---     N     2     2   ---   0.6 Overcast/
12/01/2009 21:50      14.0  11.0  16.5  12.3  82   ---   ---    NE     6     6   ---   0.6 Overcast/
12/01/2009 22:50      14.0  12.0  17.0   8.0  88   ---   ---    NE    14    14   ---   0.6 Overcast/
12/01/2009 23:50      14.0  12.0  17.0  12.3  88   ---   ---    NE     6     6   ---   0.6 Overcast/
13/01/2009 00:50      14.0  12.0  17.0   3.3  88   ---   ---   ENE    39    39   ---   0.6 Overcast/
13/01/2009 01:50      13.0  11.0  15.9   1.8  88   ---   ---     E    37    37   ---   0.6 Overcast/
13/01/2009 02:50      14.0  11.0  16.5   4.9  82   ---   ---   ENE    26    26   ---   0.6 Overcast/
13/01/2009 03:50      14.0  11.0  16.5   4.6  82   ---   ---     E    27    27   ---   0.6 Overcast/
13/01/2009 04:50      15.0  12.0  17.5   4.7  82   ---   ---   ENE    40    40   ---   0.6 Overcast/
13/01/2009 05:50      15.0  12.0  17.5   4.7  82   ---   ---     E    40    40   ---   0.7 Broken Clouds/
13/01/2009 06:50      15.0  12.0  17.5   4.4  82   ---   ---     E    45    45   ---   0.7 Broken Clouds/
13/01/2009 07:50      15.0  12.0  17.5   4.4  82   ---   ---     E    45    66   ---   0.4 Broken Clouds/
13/01/2009 08:50      14.0  12.0  17.0   2.5  88   ---   ---   ENE    50    50   ---   0.3 Broken Clouds/
13/01/2009 09:50      14.0  13.0  17.4   2.8  94   ---   ---   ENE    45    45   ---   0.3 Broken Clouds/
13/01/2009 10:50      15.0  12.0  17.5   4.9  82   ---   ---    NE    39    39   ---   0.4 Scattered Clouds/
13/01/2009 11:50      16.0  12.0  18.1   8.7  77   ---   ---     E    21    40   ---   0.5 Scattered Clouds/
13/01/2009 12:50      16.0  11.0  17.8   8.7  72   ---   ---   ESE    21    21   ---   0.5 Scattered Clouds/
13/01/2009 13:50      16.0  11.0  17.8   6.3  72   ---   ---     E    40    40   ---   --- Overcast/ Rain
13/01/2009 14:50      15.0  12.0  17.5   7.3  82   ---   ---     E    21    21   ---   --- Overcast/ Light Rain
13/01/2009 15:50      14.0  13.0  17.4   3.2  94   ---   ---   ENE    40    40   ---   --- Overcast/ Rain
13/01/2009 16:50      14.0  13.0  17.4   5.8  94   ---   ---   ENE    21    21   ---   --- Overcast/ Rain
13/01/2009 17:50      14.0  12.0  17.0   3.9  88   ---   ---     E    32    32   ---   --- Overcast/ Rain
13/01/2009 18:20      13.0  12.0  16.4   3.1  94   ---   ---   ENE    27    27   ---   --- Overcast/ Rain
13/01/2009 19:50      14.0  10.0  16.1   4.4  77   ---   ---   SSW    29    29   ---   --- / Drizzle
13/01/2009 20:50      13.0  10.0  15.5   1.8  82   ---   ---     S    39    39   ---   --- Overcast/ Light Rain
13/01/2009 21:50      14.0  11.0  16.5   4.4  82   ---   ---     S    29    29   ---   0.5 Broken Clouds/
13/01/2009 22:50      14.0  12.0  17.0   3.3  88   ---   ---     S    39    39   ---   0.5 Broken Clouds/
13/01/2009 23:50      13.0  11.0  15.9   3.1  88   ---   ---   SSW    27    27   ---   --- Overcast/ Rain
14/01/2009 00:50      13.0  12.0  16.4   2.9  94   ---   ---   SSW    29    29   ---   --- Overcast/ Light Rain
14/01/2009 01:50      14.0  13.0  17.4   3.2  94   ---   ---     W    40    40   ---   --- Overcast/ Light Rain
14/01/2009 02:50      14.0  12.0  17.0   3.2  88   ---   ---     W    40    40   ---   --- Overcast/ Light Rain
14/01/2009 03:50      14.0  12.0  17.0   2.9  88   ---   ---     W    43    43   ---   0.5 Broken Clouds/
14/01/2009 04:50      14.0  12.0  17.0   2.9  88   ---   ---     W    43    43   ---   --- Overcast/ Rain
14/01/2009 05:50      13.0  12.0  16.4   1.5  94   ---   ---     W    42    42   ---   --- Overcast/ Rain
14/01/2009 06:50      14.0  11.0  16.5   3.1  82   ---   ---     W    42    42   ---   --- / Drizzle
14/01/2009 07:50      14.0  11.0  16.5   2.9  82   ---   ---     W    43    43   ---   --- Overcast/ Light Rain
14/01/2009 08:20      14.0  10.0  16.1   3.3  77   ---   ---     W    39    39   ---   --- / Drizzle
14/01/2009 09:50      14.0  11.0  16.5   4.1  82   ---   ---     W    31    31   ---   0.5 Broken Clouds/
14/01/2009 10:50      13.0  12.0  16.4   4.8  94   ---   ---    SW    19    19   ---   0.4 Broken Clouds/
14/01/2009 11:50      14.0  11.0  16.5   3.3  82  1011   ---     W    39    39   ---   0.5 Broken Clouds/
14/01/2009 12:50      14.0  11.0  16.5   3.1  82  1011   ---     W    42    42   ---   0.5 Broken Clouds/
14/01/2009 13:50      14.0  11.0  16.5   4.1  82  1011   ---     W    31    31   ---   0.6 Broken Clouds/
14/01/2009 14:50      15.0  10.0  16.8   5.4  72  1012   ---   WSW    32    32   ---   0.9 Scattered Clouds/
14/01/2009 15:50      15.0  10.0  16.8   5.9  72  1012   ---   WSW    29    29   ---   0.9 Scattered Clouds/
14/01/2009 16:50      15.0   9.0  16.5   6.4  67  1013   ---     W    26    26   ---   0.9 Scattered Clouds/
14/01/2009 17:50      14.0  10.0  16.1   4.9  77  1014   ---   WSW    26    26   ---   0.9 Broken Clouds/
14/01/2009 18:50      14.0  10.0  16.1   5.8  77  1014   ---    SW    21    21   ---   0.9 Broken Clouds/
14/01/2009 19:50      14.0  10.0  16.1   5.5  77  1015   ---   WSW    23    23   ---   0.9 Broken Clouds/
14/01/2009 20:50      13.0   9.0  15.1   4.4  77  1015   ---   SSW    21    21   ---   0.9 Broken Clouds/
14/01/2009 21:50      12.0   8.0  14.1   4.1  77  1016   ---     S    18    18   ---   0.9 Broken Clouds/
14/01/2009 22:50      12.0   8.0  14.1   4.1  77  1016   ---     S    18    18   ---   0.9 Scattered Clouds/
14/01/2009 23:50      13.0   8.0  14.8   4.8  72  1017   ---     S    19    19   ---   0.9 Scattered Clouds/
15/01/2009 00:50      13.0   9.0  15.1   4.8  77  1016   ---   SSW    19    19   ---   0.9 Scattered Clouds/
15/01/2009 01:50      12.0   9.0  14.5   3.0  82  1016   ---     S    21    21   ---   0.8 Scattered Clouds/
15/01/2009 02:50      12.0   9.0  14.5   2.6  82  1017   ---     S    23    23   ---   0.9 Scattered Clouds/
15/01/2009 03:50      12.0   8.0  14.1   3.3  77  1017   ---   SSW    19    19   ---   0.9 Scattered Clouds/
15/01/2009 04:50      12.0   8.0  14.1   1.1  77  1017   ---     S    31    31   ---   0.8 Scattered Clouds/
15/01/2009 05:50      12.0   8.0  14.1   3.0  77  1017   ---     S    21    21   ---   0.8 Scattered Clouds/
15/01/2009 06:50      12.0   8.0  14.1   4.1  77  1017   ---     S    18    18   ---   0.8 Scattered Clouds/
15/01/2009 07:50      12.0   8.0  14.1   3.0  77  1018   ---     S    21    21   ---   0.8 Scattered Clouds/
15/01/2009 08:50      12.0   9.0  14.5   3.0  82  1018   ---   SSW    21    21   ---   0.8 Few Clouds/
15/01/2009 09:50      13.0   9.0  15.1   4.8  77  1019   ---     S    19    19   ---   0.8 Scattered Clouds/
15/01/2009 10:20      14.0   9.0  15.8   5.8  72  1019   ---   SSW    21    21   ---   0.8 Scattered Clouds/
15/01/2009 11:50      14.0  10.0  16.1   6.9  77  1019   ---   WSW    18    18   ---   0.8 Scattered Clouds/
15/01/2009 12:50      14.0  10.0  16.1   6.2  77  1018   ---   SSW    19    19   ---   0.8 Scattered Clouds/
15/01/2009 13:50      14.0   8.0  15.5   8.0  67  1018   ---     S    14    14   ---   0.7 Scattered Clouds/
15/01/2009 14:50      15.0   9.0  16.5  10.0  67  1017   ---   SSW    13    13   ---   0.7 Broken Clouds/
15/01/2009 15:50      13.0  10.0  15.5   5.8  82  1017   ---    NW    16    16   ---   --- Overcast/ Light Rain
15/01/2009 16:50      13.0  10.0  15.5  13.0  82  1018   ---     N     3     3   ---   0.5 Broken Clouds/
15/01/2009 17:50      12.0  10.0  14.9  12.0  88  1018   ---     N     3     3   ---   0.6 Broken Clouds/
15/01/2009 18:50      12.0  10.0  14.9  12.0  88  1019   ---     N     5     5   ---   0.6 Broken Clouds/
15/01/2009 19:50      11.0  10.0  14.4   7.3  94  1019   ---     S     8     8   ---   0.6 Broken Clouds/
15/01/2009 20:50      10.0   8.0  12.9   5.3  87  1019   ---   SSE    10    10   ---   0.6 Scattered Clouds/
15/01/2009 21:20      10.0   8.0  12.9   5.3  87  1019   ---   SSE    10    10   ---   0.6 Scattered Clouds/
15/01/2009 21:50      10.0   8.0  12.9   6.2  87  1019   ---     S     8     8   ---   0.6 Scattered Clouds/
15/01/2009 23:50      10.0   7.0  12.5   7.9  82  1019   ---     S     6     6   ---   0.6 Scattered Clouds/
16/01/2009 00:50       9.0   7.0  11.9   4.1  87  1019   ---   SSE    10    10   ---   0.9 Few Clouds/
16/01/2009 01:50       9.0   7.0  11.9   5.0  87  1019   ---   SSE     8     8   ---   0.9 Few Clouds/
16/01/2009 02:50       9.0   6.0  11.5   2.3  81  1019   ---   SSE    13    13   ---   0.9 Few Clouds/
16/01/2009 03:50       9.0   6.0  11.5   6.8  81  1019   ---   SSE     6     6   ---   0.9 Few Clouds/
16/01/2009 04:50       8.0   6.0  10.9   8.0  87  1019   ---     N     5     5   ---   0.9 Few Clouds/
16/01/2009 05:50       9.0   6.0  11.5   6.8  81  1019   ---   SSE     6     6   ---   0.9 Few Clouds/
16/01/2009 06:50       8.0   6.0  10.9   3.8  87  1019   ---     S     8     8   ---   0.9 Few Clouds/
16/01/2009 07:50       9.0   7.0  11.9   2.3  87  1020   ---    NE    13    13   ---   0.9 Scattered Clouds/
16/01/2009 08:50       9.0   7.0  11.9   2.3  87  1021   ---    SE    13    13   ---   --- Overcast/ Light Rain
16/01/2009 09:50      11.0   9.0  13.9   9.0  87  1021   ---   SSE     6     6   ---   0.9 Few Clouds/
16/01/2009 10:50      13.0   9.0  15.1  13.0  77  1021   ---     N     3     3   ---   0.9 Few Clouds/
16/01/2009 11:50      13.0   9.0  15.1  11.2  77  1022   ---     W     6     6   ---   0.9 Few Clouds/
16/01/2009 12:50      14.0   9.0  15.8  14.0  72  1022   ---     N     3     3   ---   0.6 Few Clouds/
16/01/2009 13:50      13.0   9.0  15.1   8.9  77  1021   ---     N    10    10   ---   0.6 Few Clouds/
16/01/2009 14:50      13.0   8.0  14.8   7.4  72  1021   ---   NNE    13    13   ---   --- /
16/01/2009 15:50      14.0   8.0  15.5   8.7  67  1022   ---    NE    13    13   ---   --- /
16/01/2009 16:50      13.0   7.0  14.4   7.4  67  1022   ---    NE    13    13   ---   --- /
16/01/2009 17:50      11.0   7.0  13.1   6.5  76  1023   ---   ENE    10    10   ---   --- /
16/01/2009 18:50      11.0   6.0  12.7   4.9  71  1023   ---   ENE    13    13   ---   0.8 Few Clouds/
16/01/2009 19:50      11.0   6.0  12.7   4.0  71  1023   ---     E    14    14   ---   0.8 Few Clouds/
16/01/2009 20:50      11.0   7.0  13.1   6.5  76  1023   ---     E    10    10   ---   0.8 Few Clouds/
16/01/2009 21:50      11.0   7.0  13.1   6.5  76  1024   ---   ENE    10    10   ---   0.8 Scattered Clouds/
16/01/2009 22:50      11.0   7.0  13.1   6.5  76  1024   ---     E    10    10   ---   0.8 Scattered Clouds/
16/01/2009 23:50      11.0   7.0  13.1  11.0  76  1024   ---     N     5     5   ---   0.8 Scattered Clouds/
17/01/2009 00:50       9.0   6.0  11.5   9.0  81  1024   ---   SSE     5     5   ---   0.8 Scattered Clouds/
17/01/2009 01:50       9.0   6.0  11.5   9.0  81  1024   ---    SW     5     5   ---   0.8 Scattered Clouds/
17/01/2009 02:50      10.0   7.0  12.5  10.0  82  1024   ---   SSW     3     3   ---   0.8 Scattered Clouds/
17/01/2009 03:50       8.0   6.0  10.9   5.7  87  1025   ---   SSW     6     6   ---   0.8 Few Clouds/
17/01/2009 04:50       9.0   7.0  11.9   9.0  87  1025   ---     N     5     5   ---   0.8 Few Clouds/
17/01/2009 05:50       9.0   7.0  11.9   9.0  87  1025   ---     N     5     5   ---   0.8 Few Clouds/
17/01/2009 06:50      10.0   8.0  12.9   7.9  87  1025   ---   ENE     6     6   ---   0.8 Few Clouds/
17/01/2009 07:50      11.0   8.0  13.5   2.7  82  1025   ---   ENE    18    18   ---   0.8 Few Clouds/
17/01/2009 08:50      11.0   9.0  13.9   9.0  87  1026   ---    SW     6     6   ---   0.8 Few Clouds/
17/01/2009 09:50      12.0  10.0  14.9  10.1  88  1026   ---   WSW     6     6   ---   0.8 Few Clouds/
17/01/2009 10:50      13.0   9.0  15.1   9.7  77  1027   ---    SW     8     8   ---   0.8 Few Clouds/
17/01/2009 11:50      14.0   9.0  15.8  10.1  72  1027   ---   WSW    10    10   ---   0.8 Few Clouds/
17/01/2009 12:50      14.0  10.0  16.1  12.3  77  1026   ---   WNW     6     6   ---   0.8 Few Clouds/
17/01/2009 13:50      14.0  10.0  16.1  12.3  77  1026   ---   NNE     6     6   ---   0.8 Few Clouds/
17/01/2009 14:50      14.0  11.0  16.5   6.2  82  1025   ---    NE    19    19   ---   0.8 Few Clouds/
17/01/2009 15:50      14.0  11.0  16.5   6.2  82  1025   ---   ENE    19    19   ---   0.8 Few Clouds/
17/01/2009 16:50      13.0  10.0  15.5   5.5  82  1025   ---   ENE    18    18   ---   0.8 Few Clouds/
17/01/2009 17:50      12.0   9.0  14.5   6.2  82  1025   ---     E    13    13   ---   0.8 Few Clouds/
17/01/2009 18:50      11.0   7.0  13.1   7.3  76  1026   ---     S     8     8   ---   --- /
17/01/2009 19:50      11.0   8.0  13.5   3.1  82  1026   ---     S    16    16   ---   --- /
17/01/2009 20:50      11.0   9.0  13.9   7.3  87  1026   ---     S     8     8   ---   --- /
18/01/2009 02:50      10.0   6.0  12.1   7.9  76  1025   ---   SSW     6     6   ---   --- /
18/01/2009 03:50      11.0   6.0  12.7   4.9  71  1025   ---   SSE    13    13   ---   --- /
18/01/2009 04:50      11.0   6.0  12.7   9.0  71  1024   ---   ENE     6     6   ---   --- /
18/01/2009 05:50      10.0   7.0  12.5  10.0  82  1024   ---     N     3     3   ---   --- /
18/01/2009 06:50      11.0   6.0  12.7   9.0  71  1025   ---    SE     6     6   ---   0.8 Few Clouds/
18/01/2009 07:50      10.0   6.0  12.1  10.0  76  1025   ---     N     5     5   ---   0.8 Scattered Clouds/
18/01/2009 08:50      12.0   9.0  14.5  10.1  82  1025   ---    SW     6     6   ---   1.0 Scattered Clouds/
18/01/2009 09:50      14.0   9.0  15.8   8.7  72  1024   ---     S    13    13   ---   1.0 Scattered Clouds/
18/01/2009 10:50      16.0   9.0  17.2  11.3  63  1024   ---   SSW    13    13   ---   1.0 Scattered Clouds/
18/01/2009 11:50      15.0   9.0  16.5   7.3  67  1023   ---   SSW    21    21   ---   1.0 Scattered Clouds/
18/01/2009 12:50      16.0  11.0  17.8   8.4  72  1022   ---    SW    23    23   ---   1.0 Scattered Clouds/
18/01/2009 13:50      17.0  10.0  18.2   9.1  63  1021   ---   SSW    27    27   ---   1.0 Scattered Clouds/
18/01/2009 14:50      16.0  10.0  17.5   7.2  68  1021   ---   SSW    31    31   ---   1.0 Scattered Clouds/
18/01/2009 15:50      16.0  10.0  17.5   7.2  68  1021   ---   SSW    31    31   ---   1.0 Scattered Clouds/
18/01/2009 16:50      15.0   9.0  16.5   5.4  67  1021   ---     S    32    32   ---   1.0 Scattered Clouds/
18/01/2009 17:50      16.0   9.0  17.2   7.4  63  1021   ---     S    29    47   ---   1.0 Scattered Clouds/
18/01/2009 18:50      15.0  10.0  16.8   6.4  72  1021   ---   SSW    26    26   ---   1.0 Scattered Clouds/
18/01/2009 19:50      15.0  10.0  16.8   6.4  72  1021   ---     S    26    26   ---   1.0 Scattered Clouds/
18/01/2009 20:50      15.0  11.0  17.1   5.4  77  1021   ---   SSW    32    32   ---   1.0 Scattered Clouds/
18/01/2009 21:50      15.0  11.0  17.1   6.4  77  1021   ---   SSW    26    26   ---   1.0 Scattered Clouds/
18/01/2009 22:50      15.0  11.0  17.1   6.1  77  1021   ---   SSW    27    27   ---   1.0 Scattered Clouds/
18/01/2009 23:50      14.0  10.0  16.1   4.6  77  1021   ---   SSW    27    27   ---   1.0 Scattered Clouds/
19/01/2009 00:50      14.0  10.0  16.1   4.1  77  1021   ---    SW    31    31   ---   1.0 Scattered Clouds/
19/01/2009 01:50      13.0  10.0  15.5   4.0  82  1021   ---   SSW    23    23   ---   1.0 Scattered Clouds/
19/01/2009 02:50      13.0   9.0  15.1   3.4  77  1021   ---   SSW    26    26   ---   1.0 Scattered Clouds/
19/01/2009 03:50      13.0   9.0  15.1   3.4  77  1021   ---   SSW    26    26   ---   1.0 Scattered Clouds/
19/01/2009 04:50      13.0  10.0  15.5   5.5  82  1021   ---   SSW    18    18   ---   1.0 Scattered Clouds/
19/01/2009 05:50      13.0   9.0  15.1   4.8  77  1020   ---     S    19    19   ---   1.0 Scattered Clouds/
19/01/2009 06:50      13.0   8.0  14.8   4.4  72  1020   ---   SSW    21    21   ---   1.0 Scattered Clouds/
19/01/2009 07:50      11.0   8.0  13.5   3.1  82  1020   ---     S    16    16   ---   1.0 Scattered Clouds/
19/01/2009 08:50      13.0   9.0  15.1   4.4  77  1021   ---     S    21    21   ---   1.0 Broken Clouds/
19/01/2009 09:50      14.0   9.0  15.8   8.0  72  1020   ---   SSW    14    14   ---   1.0 Broken Clouds/
19/01/2009 10:20      14.0   9.0  15.8   6.9  72  1020   ---   SSW    18    18   ---   1.0 Broken Clouds/
19/01/2009 11:50      15.0   9.0  16.5   6.1  67  1019   ---   SSW    27    27   ---   1.0 Scattered Clouds/
19/01/2009 12:50      16.0   9.0  17.2   7.6  63  1018   ---   SSW    27    27   ---   1.0 Few Clouds/
19/01/2009 13:50      16.0  10.0  17.5   7.8  68  1017   ---    SW    26    26   ---   1.0 Few Clouds/
19/01/2009 14:50      16.0  10.0  17.5   8.4  68  1017   ---   WSW    23    23   ---   0.8 Few Clouds/
19/01/2009 15:50      15.0  11.0  17.1   6.1  77  1017   ---   WSW    27    27   ---   0.8 Few Clouds/
19/01/2009 16:50      15.0  10.0  16.8   8.2  72  1016   ---   WSW    18    18   ---   0.8 Few Clouds/
19/01/2009 17:50      14.0  10.0  16.1   5.8  77  1016   ---   SSW    21    21   ---   0.8 Few Clouds/
19/01/2009 18:50      13.0   9.0  15.1   5.5  77  1015   ---     S    18    18   ---   0.8 Few Clouds/
19/01/2009 19:50      14.0   8.0  15.5   4.9  67  1015   ---     S    26    26   ---   0.8 Few Clouds/
19/01/2009 20:50      14.0   8.0  15.5   4.1  67  1015   ---     S    31    31   ---   0.8 Few Clouds/
19/01/2009 21:50      14.0   9.0  15.8   3.4  72  1014   ---     S    37    37   ---   0.8 Few Clouds/
19/01/2009 22:50      14.0   8.0  15.5   4.6  67  1014   ---     S    27    45   ---   0.8 Few Clouds/
19/01/2009 23:50      15.0   8.0  16.2   5.3  63  1014   ---     S    34    34   ---   0.8 Scattered Clouds/
20/01/2009 00:50      15.0  10.0  16.8   5.3  72  1013   ---     S    34    34   ---   0.9 Few Clouds/
20/01/2009 01:50      15.0  10.0  16.8   7.6  72  1012   ---   SSW    19    19   ---   0.9 Few Clouds/
20/01/2009 02:50      15.0  11.0  17.1   8.6  77  1011   ---     S    16    16   ---   0.9 Few Clouds/
20/01/2009 03:50      15.0  11.0  17.1   8.2  77  1010   ---     S    18    18   ---   0.9 Few Clouds/
20/01/2009 04:50      16.0  11.0  17.8   9.9  72  1009   ---     S    16    16   ---   0.9 Scattered Clouds/
20/01/2009 05:50      17.0  12.0  18.8  10.1  72  1008   ---     S    21    21   ---   0.9 Scattered Clouds/
20/01/2009 06:50      16.0  12.0  18.1   9.6  77  1008   ---   SSW    18    18   ---   0.9 Scattered Clouds/
20/01/2009 07:50      16.0  12.0  18.1   7.0  77  1008   ---     S    32    32   ---   0.9 Scattered Clouds/
20/01/2009 08:50      17.0  12.0  18.8   7.8  72  1008   ---     S    42    60   ---   0.7 Scattered Clouds/
20/01/2009 09:50      17.0  13.0  19.2   9.1  77  1008   ---     S    27    27   ---   0.7 Scattered Clouds/
20/01/2009 10:50      16.0  13.0  18.5   7.4  82  1008   ---   SSW    29    29   ---   0.6 Broken Clouds/
20/01/2009 11:50      16.0  13.0  18.5   6.5  82  1006   ---   SSW    37    37   ---   0.6 Broken Clouds/
20/01/2009 12:50      16.0  13.0  18.5   8.4  82  1006   ---   SSW    23    23   ---   0.6 Broken Clouds/
20/01/2009 13:50      16.0  14.0  19.0   7.8  88  1005   ---   SSW    26    26   ---   0.5 Broken Clouds/
20/01/2009 14:20      16.0  14.0  19.0   7.6  88  1004   ---   SSW    27    27   ---   0.5 Broken Clouds/
20/01/2009 15:50      16.0  14.0  19.0   8.4  88  1004   ---     S    23    23   ---   --- / Drizzle
20/01/2009 16:50      15.0  14.0  18.4   7.3  94  1004   ---   SSW    21    21   ---   --- / Drizzle
20/01/2009 17:50      15.0  15.0  19.0  11.3 100  1003   ---   SSW    10    10   ---   --- Overcast/ Rain
20/01/2009 19:50      15.0  14.0  18.4  15.0  94  1003   ---     N     0     0   ---   --- Overcast/ Light Rain
20/01/2009 20:50      15.0  13.0  18.0   8.6  88  1003   ---     S    16    16   ---   --- Overcast/ Rain
20/01/2009 21:50      14.0  13.0  17.4   6.2  94  1002   ---     S    19    19   ---   --- Overcast/ Light Rain
20/01/2009 22:50      14.0  12.0  17.0   8.0  88  1002   ---     S    14    14   ---   --- Overcast/ Light Rain
20/01/2009 23:50      14.0  12.0  17.0  10.8  88  1001   ---   SSW     8     8   ---   0.5 Broken Clouds/
21/01/2009 00:50      14.0  12.0  17.0   7.2  88  1001   ---    SW    16    16   ---   0.5 Broken Clouds/
21/01/2009 02:50      14.0  12.0  17.0   7.2  88  1000   ---    SW    16    16   ---   0.5 Broken Clouds/
21/01/2009 03:50      14.0  12.0  17.0  12.3  88  1000   ---    SW     6     6   ---   0.5 Broken Clouds/
21/01/2009 04:50      13.0  11.0  15.9  13.0  88  9999   ---     N     5     5   ---   0.5 Broken Clouds/
21/01/2009 05:50      13.0  11.0  15.9  13.0  88  9999   ---     N     2     2   ---   0.5 Broken Clouds/
21/01/2009 06:50      12.0  11.0  15.4  10.1  94  9999   ---   SSE     6     6   ---   0.5 Broken Clouds/
21/01/2009 07:50      12.0  11.0  15.4  12.0  94  1000   ---     E     3     3   ---   --- / Drizzle
21/01/2009 08:50      13.0  13.0  17.0  11.2 100  1000   ---     N     6     6   ---   --- / Drizzle
21/01/2009 09:50      14.0  12.0  17.0   7.2  88  1000   ---   WNW    16    16   ---   --- Overcast/ Light Rain
21/01/2009 10:50      14.0  12.0  17.0   6.9  88  1000   ---    NW    18    18   ---   0.2 Broken Clouds/
21/01/2009 11:50      14.0  12.0  17.0   6.9  88  1000   ---   WNW    18    18   ---   0.3 Broken Clouds/
21/01/2009 12:50      14.0  12.0  17.0   5.8  88  1000   ---   WNW    21    21   ---   --- Overcast/ Light Rain
21/01/2009 13:50      14.0  12.0  17.0   5.5  88  1000   ---   WNW    23    23   ---   0.2 Broken Clouds/
21/01/2009 14:50      14.0  12.0  17.0   7.2  88  1001   ---   WNW    16    16   ---   0.2 Broken Clouds/
21/01/2009 15:50      14.0  12.0  17.0   6.9  88  1001   ---   NNW    18    18   ---   0.2 Broken Clouds/
21/01/2009 16:50      14.0  12.0  17.0   6.9  88  1002   ---   NNW    18    18   ---   0.2 Broken Clouds/
21/01/2009 17:50      14.0  12.0  17.0   8.0  88  1003   ---    NW    14    14   ---   0.2 Broken Clouds/
21/01/2009 19:50      14.0  12.0  17.0  10.8  88  1004   ---   NNW     8     8   ---   0.3 Broken Clouds/
21/01/2009 20:50      14.0  12.0  17.0  12.3  88  1005   ---   NNW     6     6   ---   0.3 Broken Clouds/
21/01/2009 21:50      13.0  12.0  16.4  13.0  94  1005   ---   ESE     5     5   ---   0.3 Scattered Clouds/
21/01/2009 22:50      13.0  12.0  16.4  13.0  94  1005   ---   ESE     2     2   ---   0.4 Scattered Clouds/
21/01/2009 23:50      13.0  12.0  16.4   9.7  94  1005   ---     N     8     8   ---   0.4 Scattered Clouds/
22/01/2009 00:50      12.0  10.0  14.9  12.0  88  1005   ---    SE     3     3   ---   0.4 Few Clouds/
22/01/2009 01:50      14.0  12.0  17.0   5.8  88  1005   ---     N    21    21   ---   0.4 Few Clouds/
22/01/2009 02:50      14.0  11.0  16.5   5.8  82  1005   ---     N    21    21   ---   0.4 Scattered Clouds/
22/01/2009 03:50      12.0  11.0  15.4  10.1  94  1005   ---   ESE     6     6   ---   --- Overcast/ Light Rain
22/01/2009 04:50      12.0  11.0  15.4   4.5  94  1005   ---     E    16    16   ---   0.4 Broken Clouds/
22/01/2009 05:50      12.0  10.0  14.9   7.7  88  1004   ---     E    10    10   ---   0.4 Broken Clouds/
22/01/2009 06:50      12.0  10.0  14.9   7.7  88  1005   ---     E    10    10   ---   0.5 Broken Clouds/
22/01/2009 07:50      13.0  11.0  15.9   8.9  88  1005   ---    NE    10    10   ---   0.5 Broken Clouds/
22/01/2009 08:50      13.0  12.0  16.4   1.8  94  1005   ---     N    37    37   ---   0.2 Overcast/
22/01/2009 09:50      13.0  11.0  15.9   1.8  88  1005   ---   NNE    37    37   ---   --- Overcast/ Rain
22/01/2009 10:50      13.0  10.0  15.5   1.8  82  1005   ---   NNE    37    37   ---   0.3 Overcast/
22/01/2009 11:50      13.0  11.0  15.9   2.9  88  1005   ---   NNE    29    29   ---   --- Overcast/ Rain
22/01/2009 12:20      13.0  11.0  15.9   1.8  88  1004   ---     N    37    37   ---   --- Overcast/ Rain
22/01/2009 13:50      12.0  11.0  15.4   0.8  94  1004   ---     N    32    32   ---   --- Overcast/ Rain
22/01/2009 14:50      12.0   8.0  14.1   1.1  77  1004   ---     N    31    31   ---   --- Overcast/ Rain
22/01/2009 15:50      13.0   9.0  15.1   2.2  77  1004   ---   NNW    34    34   ---   0.7 Overcast/
22/01/2009 16:50      13.0   8.0  14.8   1.8  72  1005   ---   NNW    37    37   ---   0.7 Overcast/
22/01/2009 17:50      13.0   8.0  14.8   2.4  72  1004   ---   NNW    32    32   ---   0.7 Overcast/
22/01/2009 18:50      13.0   8.0  14.8   1.8  72  1004   ---   NNW    37    37   ---   0.7 Overcast/
22/01/2009 19:50      13.0   7.0  14.4   1.8  67  1004   ---   NNW    37    37   ---   0.7 Scattered Clouds/
22/01/2009 20:50      13.0   6.0  14.2   2.2  62  1005   ---   NNW    34    34   ---   0.7 Scattered Clouds/
22/01/2009 21:50      13.0   5.0  13.9   2.9  58  1005   ---   NNW    29    29   ---   0.7 Scattered Clouds/
22/01/2009 22:50      13.0   5.0  13.9   2.4  58  1005   ---    NW    32    32   ---   0.7 Scattered Clouds/
22/01/2009 23:50      13.0   5.0  13.9   2.6  58  1004   ---    NW    31    31   ---   0.7 Scattered Clouds/
23/01/2009 00:50      13.0   5.0  13.9   2.9  58  1004   ---   WNW    29    29   ---   0.7 Scattered Clouds/
23/01/2009 01:50      13.0   7.0  14.4   2.9  67  1003   ---   WNW    29    29   ---   0.7 Scattered Clouds/
23/01/2009 02:50      13.0   8.0  14.8   2.9  72  1002   ---     W    29    29   ---   0.7 Broken Clouds/
23/01/2009 03:50      13.0   8.0  14.8   2.4  72  1001   ---     W    32    32   ---   0.7 Broken Clouds/
23/01/2009 04:50      12.0   8.0  14.1   0.0  77  1001   ---    NW    40    40   ---   --- Overcast/ Light Rain
23/01/2009 05:50      12.0   8.0  14.1   1.6  77  1000   ---   WNW    27    27   ---   0.6 Broken Clouds/
23/01/2009 06:50      12.0   8.0  14.1   6.2  77  1001   ---    NW    13    13   ---   0.6 Broken Clouds/
23/01/2009 07:50      12.0   8.0  14.1   0.3  77  1002   ---    NW    37    37   ---   0.6 Broken Clouds/
23/01/2009 08:50      13.0   8.0  14.8   2.4  72  1002   ---    NW    32    32   ---   0.6 Scattered Clouds/
23/01/2009 09:50      13.0   8.0  14.8   3.1  72  1002   ---   WNW    27    27   ---   0.6 Scattered Clouds/
23/01/2009 10:50      13.0   8.0  14.8   4.4  72  1002   ---   WNW    21    21   ---   0.6 Scattered Clouds/
23/01/2009 11:50      13.0   9.0  15.1   4.0  77  1002   ---     W    23    23   ---   0.6 Scattered Clouds/
23/01/2009 12:50      13.0   9.0  15.1   4.0  77  1001   ---     W    23    23   ---   0.6 Scattered Clouds/
23/01/2009 13:50      13.0  10.0  15.5   5.5  82  1001   ---     W    18    18   ---   0.6 Scattered Clouds/
23/01/2009 14:50      14.0  10.0  16.1   6.2  77  1001   ---   WSW    19    19   ---   0.6 Broken Clouds/
23/01/2009 15:50      14.0  10.0  16.1   6.9  77  1000   ---   SSW    18    18   ---   0.6 Broken Clouds/
23/01/2009 16:50      14.0  10.0  16.1   6.2  77  1000   ---   SSW    19    19   ---   0.8 Scattered Clouds/
23/01/2009 17:50      14.0  11.0  16.5   6.9  82  1000   ---   SSW    18    18   ---   0.8 Broken Clouds/
23/01/2009 18:50      14.0  11.0  16.5   5.8  82  1000   ---   SSW    21    21   ---   0.7 Broken Clouds/
23/01/2009 20:50      14.0  12.0  17.0   5.8  88   999   ---   SSW    21    21   ---   --- / Drizzle
23/01/2009 21:50      15.0  13.0  18.0   6.9  88   999   ---   SSW    23    23   ---   --- / Drizzle
23/01/2009 22:50      15.0  14.0  18.4   5.9  94   998   ---    SW    29    29   ---   0.4 Broken Clouds/
23/01/2009 23:50      15.0  14.0  18.4   6.4  94   998   ---    SW    26    26   ---   0.4 Broken Clouds/
24/01/2009 00:50      15.0  14.0  18.4   6.1  94   998   ---    SW    27    27   ---   0.4 Broken Clouds/
24/01/2009 01:50      15.0  14.0  18.4   6.4  94   998   ---   WSW    26    26   ---   0.4 Broken Clouds/
24/01/2009 02:50      15.0  14.0  18.4   7.6  94   998   ---    SW    19    19   ---   0.4 Broken Clouds/
24/01/2009 03:50      15.0  14.0  18.4   6.4  94   998   ---   SSW    26    26   ---   0.4 Broken Clouds/
24/01/2009 04:50      16.0  13.0  18.5   7.8  82   996   ---   SSW    26    26   ---   0.4 Broken Clouds/
24/01/2009 05:50      16.0  13.0  18.5   6.5  82   996   ---    SW    37    37   ---   0.4 Broken Clouds/
24/01/2009 06:50      15.0  13.0  18.0   5.3  88   996   ---   SSW    34    34   ---   0.4 Scattered Clouds/
24/01/2009 07:50      15.0  13.0  18.0   4.5  88   995   ---    SW    43    43   ---   0.6 Scattered Clouds/
24/01/2009 08:50      16.0  14.0  19.0   5.9  88   997   ---    SW    47    47   ---   0.5 Broken Clouds/
24/01/2009 09:50      16.0  13.0  18.5   6.1  82   996   ---    SW    43    43   ---   0.5 Scattered Clouds/
24/01/2009 10:50      16.0  13.0  18.5   6.2  82   997   ---   SSW    42    60   ---   0.5 Broken Clouds/
24/01/2009 11:50      16.0  13.0  18.5   5.6  82   996   ---   WSW    56    56   ---   0.5 Few Clouds/
24/01/2009 12:50      16.0  13.0  18.5   5.7  82   995   ---    SW    50    50   ---   --- / Drizzle
24/01/2009 13:50      16.0  12.0  18.1   5.6  77   995   ---     W    55    55   ---   0.6 Broken Clouds/
24/01/2009 14:50      16.0  12.0  18.1   5.6  77   995   ---     W    51    71   ---   --- Overcast/ Light Rain
24/01/2009 15:50      16.0  12.0  18.1   5.6  77   994   ---     W    60    60   ---   0.6 Broken Clouds/
24/01/2009 16:50      16.0  12.0  18.1   5.6  77   995   ---     W    56    76   ---   0.6 Broken Clouds/
24/01/2009 17:50      16.0  12.0  18.1   5.6  77   995   ---     W    55    55   ---   0.4 Broken Clouds/
24/01/2009 18:50      15.0  12.0  17.5   4.0  82   996   ---     W    56    77   ---   0.4 Broken Clouds/
24/01/2009 19:50      15.0   9.0  16.5   4.0  67   997   ---     W    51    51   ---   0.4 Broken Clouds/
24/01/2009 20:50      15.0   9.0  16.5   4.3  67   997   ---     W    47    47   ---   0.6 Broken Clouds/
24/01/2009 21:50      15.0   9.0  16.5   4.0  67   997   ---     W    53    71   ---   --- Overcast/ Rain
24/01/2009 22:50      14.0   9.0  15.8   3.4  72   997   ---   WSW    37    37   ---   0.8 Scattered Clouds/
24/01/2009 23:50      14.0   9.0  15.8   2.5  72   996   ---     W    50    50   ---   0.8 Scattered Clouds/
25/01/2009 00:50      14.0   8.0  15.5   2.8  67   996   ---   WSW    45    45   ---   0.8 Scattered Clouds/
25/01/2009 01:50      14.0   7.0  15.2   3.9  63   996   ---     W    32    32   ---   0.7 Scattered Clouds/
25/01/2009 02:50      13.0   9.0  15.1   1.6  77   996   ---   WSW    40    40   ---   0.7 Scattered Clouds/
25/01/2009 03:50      13.0   9.0  15.1   4.4  77   996   ---    SW    21    53   ---   --- Overcast/ Rain Showers
25/01/2009 04:50      13.0   8.0  14.8   2.6  72   995   ---    SW    31    55   ---   0.8 Scattered Clouds/
25/01/2009 05:50      13.0   9.0  15.1   1.8  77   995   ---    SW    39    39   ---   0.8 Broken Clouds/
25/01/2009 06:50      13.0   8.0  14.8   0.8  72   995   ---     W    58    58   ---   0.8 Scattered Clouds/
25/01/2009 07:50      13.0   9.0  15.1   0.8  77   996   ---     W    58    58   ---   0.9 Broken Clouds/
25/01/2009 08:50      13.0   9.0  15.1   0.8  77   997   ---     W    58    77   ---   0.5 Broken Clouds/
25/01/2009 09:50      13.0   8.0  14.8   0.8  72   997   ---     W    60    60   ---   --- Overcast/ Light Rain
25/01/2009 11:50      13.0   7.0  14.4   0.8  67   999   ---     W    58    58   ---   0.9 Broken Clouds/
25/01/2009 12:50      13.0   9.0  15.1   0.8  77   999   ---     W    55    55   ---   0.9 Broken Clouds/
25/01/2009 13:50      13.0   8.0  14.8   0.8  72  1000   ---     W    53    53   ---   0.8 Broken Clouds/
25/01/2009 14:50      13.0   7.0  14.4   0.9  67  1001   ---     W    50    50   ---   0.8 Broken Clouds/
25/01/2009 15:50      14.0   7.0  15.2   3.1  63  1001   ---     W    42    42   ---   0.8 Broken Clouds/
25/01/2009 16:50      14.0   8.0  15.5   2.9  67  1002   ---     W    43    43   ---   0.8 Broken Clouds/
25/01/2009 17:50      14.0   7.0  15.2   2.8  63  1002   ---     W    45    45   ---   0.8 Broken Clouds/
25/01/2009 18:50      14.0   9.0  15.8   3.1  72  1003   ---     W    42    42   ---   0.8 Broken Clouds/
25/01/2009 19:50      14.0   9.0  15.8   3.1  72  1003   ---     W    42    42   ---   0.8 Scattered Clouds/
25/01/2009 20:50      14.0   9.0  15.8   3.3  72  1004   ---     W    39    39   ---   0.8 Scattered Clouds/
25/01/2009 21:50      12.0   8.0  14.1   3.0  77  1004   ---   SSW    21    21   ---   0.8 Scattered Clouds/
25/01/2009 22:50      14.0   9.0  15.8   4.4  72  1004   ---    SW    29    29   ---   0.8 Scattered Clouds/
25/01/2009 23:50      13.0   8.0  14.8   3.1  72  1004   ---   SSW    27    27   ---   0.8 Scattered Clouds/
26/01/2009 00:50      13.0   9.0  15.1   3.1  77  1005   ---   SSW    27    27   ---   0.8 Scattered Clouds/
26/01/2009 01:50      13.0   9.0  15.1   3.4  77  1004   ---   SSW    26    26   ---   0.8 Scattered Clouds/
26/01/2009 03:50      14.0   7.0  15.2   4.4  63  1004   ---     S    29    29   ---   0.8 Few Clouds/
26/01/2009 04:50      14.0   5.0  14.7   3.9  55  1003   ---     S    32    32   ---   0.8 Few Clouds/
26/01/2009 05:50      14.0   6.0  14.9   4.4  59  1003   ---   SSW    29    29   ---   0.8 Few Clouds/
26/01/2009 06:50      14.0   7.0  15.2   3.8  63  1003   ---   SSW    34    34   ---   0.8 Few Clouds/
26/01/2009 07:20      14.0   8.0  15.5   4.1  67  1004   ---     S    31    31   ---   0.8 Few Clouds/
26/01/2009 08:50      14.0   8.0  15.5   4.4  67  1003   ---   SSW    29    29   ---   --- /
26/01/2009 09:50      17.0   3.0  16.9   8.4  39  1004   ---     S    34    34   ---   --- /
26/01/2009 11:50      17.0   8.0  17.7   8.1  55  1004   ---   SSW    37    37   ---   0.9 Few Clouds/
26/01/2009 12:50      16.0   9.0  17.2   7.4  63  1003   ---    SW    29    29   ---   0.9 Broken Clouds/
26/01/2009 13:50      15.0  11.0  17.1   5.3  77  1003   ---   SSW    34    34   ---   0.9 Broken Clouds/
26/01/2009 14:20      15.0  11.0  17.1   5.9  77  1003   ---   WSW    29    29   ---   0.9 Overcast/
26/01/2009 16:50      12.0   9.0  14.5   2.6  82  1004   ---    SW    23    23   ---   --- / Drizzle
26/01/2009 17:50      12.0  10.0  14.9   3.3  88  1005   ---   WSW    19    19   ---   --- Overcast/ Light Rain
26/01/2009 18:50      11.0   9.0  13.9   2.7  87  1005   ---     S    18    18   ---   --- Overcast/ Light Rain
26/01/2009 19:50      10.0   7.0  12.5   0.5  82  1005   ---     S    19    19   ---   --- / Drizzle
26/01/2009 20:50      10.0   8.0  12.9   0.1  87  1005   ---     S    21    21   ---   --- / Drizzle
26/01/2009 21:50      11.0   6.0  12.7  -0.1  71  1005   ---     S    29    29   ---   0.7 Broken Clouds/
26/01/2009 22:50      11.0   7.0  13.1  -0.1  76  1005   ---     S    29    29   ---   0.6 Broken Clouds/
26/01/2009 23:50      11.0   6.0  12.7  -0.4  71  1005   ---     S    31    31   ---   0.6 Broken Clouds/
27/01/2009 00:50      11.0   6.0  12.7  -1.3  71  1004   ---     S    37    37   ---   0.6 Broken Clouds/
27/01/2009 01:50      10.0   6.0  12.1  -2.8  76  1005   ---     S    37    37   ---   0.6 Broken Clouds/
27/01/2009 02:50       9.0   6.0  11.5  -3.1  81  1005   ---     S    29    29   ---   0.6 Broken Clouds/
27/01/2009 03:50       9.0   6.0  11.5  -3.1  81  1004   ---     S    29    29   ---   0.6 Scattered Clouds/
27/01/2009 04:50      10.0   6.0  12.1  -1.6  76  1004   ---     S    29    29   ---   0.6 Scattered Clouds/
27/01/2009 05:50       9.0   6.0  11.5  -3.8  81  1004   ---     S    32    32   ---   0.6 Scattered Clouds/
27/01/2009 06:50      10.0   6.0  12.1  -2.4  76  1004   ---     S    34    34   ---   0.5 Scattered Clouds/
27/01/2009 07:50      10.0   6.0  12.1  -1.6  76  1004   ---     S    29    29   ---   0.7 Scattered Clouds/
27/01/2009 08:50      10.0   7.0  12.5  -2.9  82  1005   ---   SSW    39    39   ---   --- Overcast/ Light Rain
27/01/2009 09:50       9.0   7.0  11.9   0.4  87  1005   ---     S    16    16   ---   0.6 Broken Clouds/
27/01/2009 11:50      11.0   7.0  13.1  -0.4  76  1005   ---     S    31    31   ---   0.6 Broken Clouds/
27/01/2009 12:50      11.0   8.0  13.5  -1.8  82  1004   ---   SSW    43    43   ---   0.4 Broken Clouds/
27/01/2009 13:50      12.0   8.0  14.1  -0.5  77  1003   ---    SW    47    47   ---   0.6 Broken Clouds/
27/01/2009 14:50      12.0   8.0  14.1   0.2  77  1003   ---    SW    39    39   ---   --- Overcast/ Light Rain
27/01/2009 15:50      12.0   8.0  14.1  -0.2  77  1003   ---    SW    43    43   ---   0.7 Broken Clouds/
27/01/2009 16:50      12.0   8.0  14.1   0.3  77  1003   ---    SW    37    37   ---   0.7 Broken Clouds/
27/01/2009 17:50      11.0   7.0  13.1  -0.4  76  1004   ---   SSW    31    31   ---   0.7 Broken Clouds/
27/01/2009 18:50      11.0   6.0  12.7  -0.1  71  1004   ---     S    29    29   ---   0.7 Broken Clouds/
27/01/2009 19:50      10.0   7.0  12.5  -1.4  82  1004   ---   SSW    27    27   ---   0.7 Broken Clouds/
27/01/2009 20:50      11.0   7.0  13.1   0.4  76  1004   ---   SSW    26    26   ---   0.7 Broken Clouds/
27/01/2009 21:50      12.0   8.0  14.1   1.9  77  1004   ---   SSW    26    26   ---   0.7 Broken Clouds/
27/01/2009 22:50      13.0   7.0  14.4   1.6  67  1004   ---   WSW    40    40   ---   0.7 Broken Clouds/
27/01/2009 23:50      12.0   8.0  14.1   0.0  77  1004   ---   WSW    40    40   ---   0.6 Broken Clouds/
28/01/2009 00:50      12.0   7.0  13.7  -0.1  71  1003   ---   WSW    42    42   ---   0.6 Broken Clouds/
28/01/2009 01:50      10.0   6.0  12.1  -1.1  76  1003   ---     S    26    45   ---   0.6 Broken Clouds/
28/01/2009 02:50      11.0   7.0  13.1  -0.1  76  1003   ---     S    29    29   ---   0.6 Broken Clouds/
28/01/2009 03:50      11.0   7.0  13.1   0.4  76  1003   ---   SSW    26    26   ---   0.7 Broken Clouds/
28/01/2009 04:50      11.0   7.0  13.1  -0.1  76  1003   ---   SSW    29    29   ---   0.7 Broken Clouds/
28/01/2009 05:50       9.0   7.0  11.9  -0.0  87  1002   ---     S    18    18   ---   0.7 Broken Clouds/
28/01/2009 06:50      10.0   7.0  12.5   0.5  82  1002   ---     S    19    19   ---   --- / Drizzle
28/01/2009 07:50      11.0   9.0  13.9   0.1  87  1003   ---   WNW    27    27   ---   --- Overcast/ Light Rain
28/01/2009 08:50      12.0   8.0  14.1   1.1  77  1003   ---     W    31    51   ---   --- Overcast/ Rain
28/01/2009 09:50      12.0   8.0  14.1   0.7  77  1004   ---     W    34    34   ---   0.4 Broken Clouds/
28/01/2009 11:50      12.0   9.0  14.5  -0.7  82  1004   ---   WNW    50    50   ---   0.4 Broken Clouds/
28/01/2009 12:50      13.0   9.0  15.1   1.6  77  1004   ---   WNW    40    40   ---   0.4 Broken Clouds/
28/01/2009 13:50      12.0   8.0  14.1   0.0  77  1004   ---    NW    40    40   ---   0.6 Broken Clouds/
28/01/2009 14:50      13.0   9.0  15.1   1.5  77  1004   ---   NNW    42    42   ---   0.6 Scattered Clouds/
28/01/2009 15:50      12.0   9.0  14.5   1.6  82  1005   ---   NNW    27    27   ---   0.7 Scattered Clouds/
28/01/2009 16:50      13.0   8.0  14.8   1.8  72  1006   ---    NW    37    37   ---   0.7 Scattered Clouds/
31/01/2009 02:50      10.0   6.0  12.1  10.0  76  1013   ---     N     5     5   ---   0.8 Scattered Clouds/
31/01/2009 03:50      10.0   7.0  12.5   5.3  82  1013   ---   ENE    10    10   ---   0.8 Scattered Clouds/
31/01/2009 04:50      11.0   7.0  13.1   9.0  76  1013   ---   ENE     6     6   ---   0.8 Scattered Clouds/
31/01/2009 05:50       9.0   6.0  11.5   6.8  81  1013   ---     S     6     6   ---   0.8 Scattered Clouds/
31/01/2009 06:20       8.0   6.0  10.9   3.8  87  1012   ---   SSE     8     8   ---   0.8 Scattered Clouds/
31/01/2009 07:20       8.0   5.0  10.5   8.0  81  1012   ---    SE     5     5   ---   0.8 Scattered Clouds/
31/01/2009 08:20       8.0   5.0  10.5   3.8  81  1013   ---     S     8     8   ---   0.8 Scattered Clouds/
31/01/2009 09:20      10.0   8.0  12.9  10.0  87  1013   ---     S     3     3   ---   0.8 Scattered Clouds/
31/01/2009 09:50      12.0   8.0  14.1  12.0  77  1013   ---   WSW     2     2   ---   0.8 Scattered Clouds/
31/01/2009 11:20      13.0   7.0  14.4   7.4  67  1013   ---   WSW    13    13   ---   0.7 Few Clouds/
31/01/2009 12:20      13.0   7.0  14.4   6.6  67  1012   ---   WSW    14    14   ---   0.7 Few Clouds/
31/01/2009 13:20      14.0   8.0  15.5  10.8  67  1012   ---     W     8     8   ---   0.7 Few Clouds/
31/01/2009 14:20      14.0   7.0  15.2   8.7  63  1011   ---   ENE    13    13   ---   0.7 Few Clouds/
31/01/2009 15:20      13.0   7.0  14.4   6.6  67  1011   ---    NE    14    14   ---   0.8 Few Clouds/
31/01/2009 16:20      14.0   8.0  15.5   8.0  67  1011   ---   ENE    14    14   ---   0.8 Scattered Clouds/
31/01/2009 17:20      13.0   7.0  14.4   8.9  67  1010   ---     E    10    10   ---   0.8 Scattered Clouds/
31/01/2009 18:20      11.0   7.0  13.1  11.0  76  1011   ---   SSE     5     5   ---   0.8 Scattered Clouds/
31/01/2009 20:20      11.0   7.0  13.1   7.3  76  1011   ---     E     8     8   ---   0.8 Scattered Clouds/
31/01/2009 21:20      11.0   7.0  13.1   9.0  76  1010   ---   ENE     6     6   ---   0.8 Few Clouds/
31/01/2009 22:20      11.0   6.0  12.7  11.0  71  1009   ---   SSE     3     3   ---   0.8 Scattered Clouds/
31/01/2009 23:20      10.0   7.0  12.5  10.0  82  1008   ---   SSE     3     3   ---   0.8 Scattered Clouds/
01/02/2009 00:20      10.0   7.0  12.5   6.2  82  1008   ---   SSE     8     8   ---   0.8 Scattered Clouds/
01/02/2009 01:20      11.0   8.0  13.5  11.0  82  1007   ---   SSE     3     3   ---   0.8 Scattered Clouds/
01/02/2009 02:20      11.0   7.0  13.1   7.3  76  1005   ---    NE     8     8   ---   --- Overcast/ Light Rain
01/02/2009 03:20      12.0   8.0  14.1  12.0  77  1004   ---     N     0     0   ---   --- Overcast/ Light Rain
01/02/2009 04:20      12.0  10.0  14.9   4.5  88  1003   ---    SE    16    16   ---   --- Overcast/ Light Rain
01/02/2009 05:20      10.0   9.0  13.4   3.6  94  1004   ---    SE    13    13   ---   0.7 Broken Clouds/
01/02/2009 06:20      10.0   9.0  13.4   6.2  94  1002   ---     E     8     8   ---   0.7 Broken Clouds/
01/02/2009 07:20       9.0   8.0  12.4  -1.3  93  1002   ---     E    21    21   ---   0.7 Overcast/
01/02/2009 08:20      10.0   9.0  13.4  -1.4  94  1001   ---   ENE    27    27   ---   --- Overcast/ Light Rain Rain
01/02/2009 09:20      12.0   9.0  14.5  -0.5  82  1002   ---     W    47    47   ---   --- Overcast/ Rain
01/02/2009 10:20      11.0   8.0  13.5   4.9  82  1002   ---   SSE    13    13   ---   0.6 Broken Clouds/
01/02/2009 11:20      12.0   9.0  14.5  12.0  82  1002   ---     N     2     2   ---   0.6 Broken Clouds/
01/02/2009 12:20      12.0   8.0  14.1   3.3  77  1002   ---   SSW    19    19   ---   0.6 Broken Clouds/
01/02/2009 13:20      11.0   9.0  13.9   0.4  87  1002   ---     S    26    26   ---   --- Overcast/ Rain
01/02/2009 14:20      13.0  10.0  15.5   4.4  82  1002   ---    SW    21    21   ---   0.6 Broken Clouds/
01/02/2009 15:20      14.0  10.0  16.1   3.4  77  1002   ---     W    37    37   ---   0.6 Scattered Clouds/
01/02/2009 16:20      13.0  11.0  15.9   2.9  88  1003   ---   WSW    29    29   ---   0.6 Scattered Clouds/
01/02/2009 17:20      14.0  10.0  16.1   3.9  77  1004   ---     W    32    32   ---   0.6 Scattered Clouds/
01/02/2009 18:20      13.0  10.0  15.5   6.6  82  1005   ---   SSW    14    14   ---   0.6 Scattered Clouds/
01/02/2009 19:20      12.0   9.0  14.5   3.3  82  1006   ---   SSW    19    19   ---   0.6 Scattered Clouds/
01/02/2009 20:20      12.0   9.0  14.5   2.6  82  1006   ---   SSW    23    23   ---   0.6 Scattered Clouds/
01/02/2009 21:20      12.0   9.0  14.5   2.6  82  1007   ---     S    23    23   ---   0.7 Scattered Clouds/
01/02/2009 22:20      12.0   9.0  14.5   2.6  82  1007   ---     S    23    23   ---   0.7 Scattered Clouds/
01/02/2009 23:20      12.0   9.0  14.5   1.9  82  1007   ---     S    26    26   ---   0.7 Scattered Clouds/
02/02/2009 00:50      12.0   8.0  14.1   3.3  77  1007   ---     S    19    19   ---   0.7 Scattered Clouds/
02/02/2009 01:20      12.0   8.0  14.1   3.3  77  1007   ---     S    19    19   ---   0.7 Scattered Clouds/
02/02/2009 02:20      12.0   8.0  14.1   4.1  77  1007   ---   SSW    18    18   ---   0.7 Scattered Clouds/
02/02/2009 03:20      14.0   5.0  14.7   3.8  55  1006   ---     S    34    34   ---   0.7 Scattered Clouds/
02/02/2009 04:20      14.0   5.0  14.7   4.6  55  1007   ---     S    27    27   ---   0.7 Broken Clouds/
02/02/2009 05:20      15.0   2.0  15.0   6.9  41  1006   ---     S    23    23   ---   0.7 Broken Clouds/
02/02/2009 06:20      16.0   2.0  15.9   7.2  39  1006   ---     S    31    31   ---   0.7 Broken Clouds/
02/02/2009 07:20      17.0   2.0  16.8   9.3  36  1006   ---   SSE    26    26   ---   1.3 Few Clouds/
02/02/2009 08:20      17.0   2.0  16.8   9.1  36  1006   ---     S    27    27   ---   1.3 Scattered Clouds/
02/02/2009 09:20      18.0   2.0  17.7   9.6  34  1005   ---     S    37    55   ---   1.3 Scattered Clouds/
02/02/2009 10:20      19.0   2.0  18.6  10.9  32  1004   ---     S    43    64   ---   1.3 Scattered Clouds/
02/02/2009 11:20      20.0   2.0  19.6  12.1  30  1004   ---   SSE    51    87   ---   1.3 Few Clouds/
02/02/2009 12:20      21.0   2.0  20.5  13.9  28  1004   ---     S    45    76   ---   1.8 Scattered Clouds/
02/02/2009 12:50      21.0   3.0  20.6  13.7  31  1003   ---     S    50    79   ---   1.8 Scattered Clouds/
02/02/2009 13:50      21.0   3.0  20.6  13.7  31  1001   ---     S    60    95   ---   1.8 Few Clouds/
02/02/2009 15:20      20.0   4.0  19.7  12.1  35  1000   ---     S    56    84   ---   --- /
02/02/2009 16:20      21.0   3.0  20.6  13.7  31  1000   ---     S    63    88   ---   --- /
02/02/2009 17:20      20.0   3.0  19.6  12.1  32  1001   ---     S    55    77   ---   --- /
02/02/2009 18:20      21.0   1.0  20.4  13.7  26  1000   ---     S    56    82   ---   --- /
02/02/2009 19:20      20.0   2.0  19.6  12.1  30  1000   ---     S    63    87   ---   --- /
02/02/2009 20:20      20.0   1.0  19.5  12.1  28  1001   ---     S    60    80   ---   --- /
02/02/2009 21:20      21.0   2.0  20.5  13.7  28  1001   ---     S    56    88   ---   --- /
02/02/2009 22:20      21.0   2.0  20.5  13.7  28  1001   ---     S    53    74   ---   --- /
02/02/2009 23:20      21.0   2.0  20.5  14.0  28  1002   ---     S    43    68   ---   --- /
03/02/2009 00:50      21.0   2.0  20.5  13.7  28  1001   ---     S    51    80   ---   --- /
03/02/2009 01:20      21.0   2.0  20.5  14.0  28  1001   ---     S    43    82   ---   --- /
03/02/2009 02:20      21.0   3.0  20.6  14.3  31  1001   ---     S    37    60   ---   --- /
03/02/2009 03:20      21.0   3.0  20.6  14.5  31  1001   ---     S    34    58   ---   --- /
03/02/2009 04:20      20.0   3.0  19.6  12.5  32  1000   ---     S    42    68   ---   --- / Haze
03/02/2009 05:20      20.0   5.0  19.8  12.3  37  1000   ---     S    45    77   ---   --- / Haze
03/02/2009 06:20      20.0   4.0  19.7  13.1  35   999   ---     S    32    55   ---   --- / Haze
03/02/2009 07:20      20.0   2.0  19.6  13.5  30   999   ---     S    27    47   ---   --- / Haze
03/02/2009 07:50      19.0   5.0  18.9  12.3  40   999   ---    SW    26    26   ---   --- / Haze
03/02/2009 09:20      22.0  -1.0  21.3  16.2  22   999   ---     S    32    32   ---   --- / Haze
03/02/2009 10:20      22.0   1.0  21.4  15.9  25   999   ---     S    37    58   ---   --- / Haze
03/02/2009 10:50      22.0   1.0  21.4  15.7  25   999   ---     S    40    64   ---   --- / Haze
03/02/2009 12:20      20.0   5.0  19.8  13.5  37   999   ---     S    27    27   ---   --- / Haze
03/02/2009 12:50      20.0   7.0  20.1  13.2  43   999   ---     S    31    50   ---   --- / Haze
03/02/2009 14:20      17.0   9.0  18.0   8.1  59   998   ---     S    37    55   ---   --- / Haze
03/02/2009 15:20      18.0   8.0  18.6   8.9  52   997   ---     S    60    79   ---   --- / Mist
03/02/2009 15:50      18.0   8.0  18.6   8.9  52   997   ---     S    58    79   ---   0.8 Broken Clouds/
03/02/2009 16:50      18.0   8.0  18.6   9.4  52   997   ---     S    42    42   ---   0.8 Broken Clouds/
03/02/2009 18:20      15.0  11.0  17.1   5.4  77   998   ---     S    32    55   ---   --- Overcast/ Light Rain
03/02/2009 19:20      16.0  10.0  17.5   6.3  68   999   ---     S    40    58   ---   --- Overcast/ Light Rain
03/02/2009 20:20      16.0  10.0  17.5   7.2  68  1000   ---   SSW    31    31   ---   --- / Mist
03/02/2009 21:20      15.0  12.0  17.5   5.9  82  1001   ---    SW    29    29   ---   --- / Mist
03/02/2009 22:20      14.0  11.0  16.5   3.9  82  1001   ---   WSW    32    32   ---   --- Overcast/ Light Rain Mist
03/02/2009 23:20      13.0  11.0  15.9   4.0  88  1002   ---    SW    23    23   ---   --- Overcast/ Light Rain
04/02/2009 00:50      14.0  12.0  17.0   2.8  88  1003   ---     W    45    45   ---   0.6 Broken Clouds/
04/02/2009 01:20      14.0  12.0  17.0   2.4  88  1003   ---     W    51    51   ---   0.6 Broken Clouds/
04/02/2009 02:20      14.0  11.0  16.5   2.4  82  1003   ---     W    53    53   ---   0.6 Broken Clouds/
04/02/2009 03:20      14.0  10.0  16.1   3.8  77  1004   ---     W    34    58   ---   0.6 Broken Clouds/
04/02/2009 04:20      14.0  10.0  16.1   4.6  77  1004   ---   WSW    27    27   ---   0.6 Broken Clouds/
04/02/2009 05:20      13.0  10.0  15.5   3.1  82  1005   ---   SSW    27    27   ---   0.6 Broken Clouds/
04/02/2009 06:20      14.0  10.0  16.1   4.1  77  1005   ---   WSW    31    31   ---   0.7 Scattered Clouds/
04/02/2009 07:20      14.0  11.0  16.5   4.6  82  1006   ---    SW    27    27   ---   0.7 Scattered Clouds/
04/02/2009 08:20      14.0  11.0  16.5   4.4  82  1006   ---    SW    29    29   ---   0.7 Scattered Clouds/
04/02/2009 09:20      14.0  10.0  16.1   4.4  77  1007   ---   SSW    29    29   ---   0.9 Scattered Clouds/
04/02/2009 10:20      14.0  10.0  16.1   4.4  77  1008   ---    SW    29    29   ---   0.9 Scattered Clouds/
04/02/2009 11:20      15.0  11.0  17.1   6.4  77  1008   ---   WSW    26    26   ---   0.9 Scattered Clouds/
04/02/2009 12:20      15.0  10.0  16.8   7.6  72  1008   ---   WSW    19    19   ---   0.9 Scattered Clouds/
04/02/2009 13:20      15.0  11.0  17.1   7.3  77  1008   ---   WSW    21    21   ---   0.9 Scattered Clouds/
04/02/2009 14:20      15.0  11.0  17.1   6.4  77  1008   ---   WSW    26    26   ---   0.8 Scattered Clouds/
04/02/2009 15:20      15.0   9.0  16.5   7.6  67  1008   ---    SW    19    19   ---   0.8 Scattered Clouds/
04/02/2009 16:20      15.0  11.0  17.1   7.3  77  1009   ---   WSW    21    21   ---   0.8 Scattered Clouds/
04/02/2009 17:20      15.0  11.0  17.1   6.4  77  1009   ---   WSW    26    26   ---   0.8 Scattered Clouds/
04/02/2009 18:20      14.0  10.0  16.1   5.5  77  1009   ---    SW    23    23   ---   0.8 Scattered Clouds/
04/02/2009 19:20      13.0   9.0  15.1   4.0  77  1010   ---   SSW    23    23   ---   0.8 Scattered Clouds/
04/02/2009 20:20      13.0   8.0  14.8   3.1  72  1010   ---   SSW    27    27   ---   0.8 Scattered Clouds/
04/02/2009 21:20      13.0   8.0  14.8   3.4  72  1011   ---     S    26    26   ---   0.8 Scattered Clouds/
04/02/2009 22:20      13.0   8.0  14.8   4.4  72  1011   ---     S    21    21   ---   0.8 Few Clouds/
04/02/2009 23:20      13.0   7.0  14.4   3.1  67  1011   ---     S    27    27   ---   0.8 Few Clouds/
05/02/2009 00:50      13.0   6.0  14.2   3.4  62  1011   ---     S    26    26   ---   0.8 Few Clouds/
05/02/2009 01:20      14.0   6.0  14.9   5.5  59  1011   ---     S    23    23   ---   0.8 Few Clouds/
05/02/2009 02:20      13.0   6.0  14.2   4.4  62  1011   ---     S    21    21   ---   0.8 Few Clouds/
05/02/2009 03:20      13.0   5.0  13.9   4.0  58  1011   ---     S    23    23   ---   0.8 Few Clouds/
05/02/2009 04:20      13.0   5.0  13.9   4.0  58  1011   ---     S    23    23   ---   0.8 Few Clouds/
05/02/2009 05:20      14.0   5.0  14.7   5.5  55  1011   ---     S    23    23   ---   0.8 Few Clouds/
05/02/2009 06:20      13.0   5.0  13.9   6.6  58  1011   ---     S    14    14   ---   0.8 Few Clouds/
05/02/2009 07:20      13.0   5.0  13.9  11.2  58  1011   ---   ENE     6     6   ---   0.9 Few Clouds/
05/02/2009 08:20      13.0   8.0  14.8  11.2  72  1011   ---   SSW     6     6   ---   1.2 Few Clouds/
05/02/2009 09:20      14.0   8.0  15.5   5.8  67  1011   ---    SW    21    21   ---   1.2 Few Clouds/
05/02/2009 09:50      15.0   9.0  16.5  12.0  67  1011   ---   WSW     8     8   ---   1.2 Scattered Clouds/
05/02/2009 11:20      20.0   6.0  20.0  15.9  40  1011   ---     S    14    14   ---   1.2 Scattered Clouds/
05/02/2009 12:20      16.0  10.0  17.5  10.6  68  1010   ---   NNE    14    14   ---   1.2 Scattered Clouds/
05/02/2009 13:20      20.0   7.0  20.1  15.1  43  1009   ---   SSW    18    18   ---   1.2 Scattered Clouds/
05/02/2009 14:20      18.0  10.0  19.0  10.6  60  1009   ---    SW    27    27   ---   --- /
05/02/2009 15:20      18.0   7.0  18.4  10.6  49  1009   ---     S    27    27   ---   --- /
05/02/2009 16:20      18.0   6.0  18.2  10.8  45  1008   ---     S    26    26   ---   --- /
05/02/2009 17:20      17.0   6.0  17.4   8.9  48  1008   ---     S    29    29   ---   1.8 Few Clouds/
05/02/2009 18:20      17.0   4.0  17.1   8.1  42  1007   ---     S    37    55   ---   --- /
05/02/2009 19:20      17.0   3.0  16.9  11.3  39  1007   ---   SSE    16    16   ---   --- /
05/02/2009 20:20      17.0   4.0  17.1  14.3  42  1007   ---     S     8     8   ---   --- /
05/02/2009 21:20      17.0   3.0  16.9  10.1  39  1007   ---     S    21    21   ---   2.1 Scattered Clouds/
05/02/2009 22:20      18.0   2.0  17.7  11.6  34  1006   ---   SSW    21    21   ---   2.1 Scattered Clouds/
05/02/2009 23:20      19.0   2.0  18.6  11.0  32  1005   ---     S    40    40   ---   2.1 Scattered Clouds/
06/02/2009 00:20      19.0   4.0  18.8  11.0  37  1004   ---     S    40    58   ---   2.1 Broken Clouds/
06/02/2009 01:20      19.0   3.0  18.7  10.7  35  1003   ---     S    47    68   ---   1.8 Broken Clouds/
06/02/2009 02:20      19.0   4.0  18.8  11.0  37  1003   ---     S    40    60   ---   1.8 Broken Clouds/
06/02/2009 03:20      18.0   7.0  18.4   9.4  49  1002   ---     S    42    63   ---   1.8 Scattered Clouds/
06/02/2009 04:20      18.0   8.0  18.6  10.2  52  1002   ---   WNW    31    55   ---   1.8 Scattered Clouds/
06/02/2009 05:20      15.0  10.0  16.8   5.9  72  1002   ---   SSW    29    29   ---   1.8 Scattered Clouds/
06/02/2009 06:20      16.0  11.0  17.8   7.0  72  1002   ---     S    32    32   ---   1.8 Scattered Clouds/
06/02/2009 07:20      15.0  11.0  17.1   6.4  77  1003   ---   SSW    26    26   ---   --- /
06/02/2009 08:20      15.0  10.0  16.8   6.9  72  1003   ---   SSW    23    23   ---   --- /
06/02/2009 09:20      15.0  10.0  16.8   5.9  72  1004   ---    SW    29    29   ---   --- /
06/02/2009 10:20      15.0  11.0  17.1   5.3  77  1004   ---    SW    34    34   ---   0.7 Few Clouds/
06/02/2009 11:20      16.0  11.0  17.8   7.6  72  1005   ---   SSW    27    27   ---   0.7 Few Clouds/
06/02/2009 12:20      17.0  10.0  18.2   8.9  63  1004   ---    SW    29    29   ---   --- /
06/02/2009 13:20      17.0  10.0  18.2   8.4  63  1004   ---   SSW    34    34   ---   --- /
06/02/2009 14:20      17.0  10.0  18.2   8.7  63  1003   ---    SW    31    31   ---   --- /
06/02/2009 15:20      17.0  10.0  18.2   9.1  63  1004   ---    SW    27    27   ---   --- /
06/02/2009 16:20      16.0   9.0  17.2   7.4  63  1003   ---   SSW    29    29   ---   --- /
06/02/2009 17:20      15.0   9.0  16.5   7.3  67  1004   ---   SSE    21    21   ---   --- /
06/02/2009 18:20      16.0   4.0  16.2   8.4  45  1002   ---     S    23    23   ---   --- /
06/02/2009 18:50      16.0   4.0  16.2   7.0  45  1002   ---     S    32    51   ---   --- /
06/02/2009 20:20      18.0   1.0  17.6  10.0  32  1002   ---     S    32    51   ---   --- /
06/02/2009 21:20      18.0   1.0  17.6   9.4  32  1001   ---     S    40    64   ---   --- /
06/02/2009 22:20      18.0   1.0  17.6   9.2  32  1001   ---     S    45    69   ---   --- /
06/02/2009 23:20      18.0   4.0  17.9   8.9  39  1001   ---     S    50    71   ---   --- /
07/02/2009 00:50      18.0   5.0  18.1   9.4  42  1000   ---     S    40    76   ---   --- /
07/02/2009 01:20      18.0   5.0  18.1   9.4  42  1000   ---     S    42    63   ---   --- /
07/02/2009 02:20      18.0   6.0  18.2   9.6  45  1000   ---     S    39    63   ---   --- /
07/02/2009 03:20      18.0   6.0  18.2   9.4  45   999   ---     S    40    64   ---   --- /
07/02/2009 04:20      17.0   6.0  17.4   8.1  48   998   ---     S    37    55   ---   --- /
07/02/2009 05:20      17.0   6.0  17.4   8.1  48   997   ---     S    37    37   ---   --- /
07/02/2009 06:20      17.0   7.0  17.5   8.1  52   997   ---     S    37    56   ---   --- /
07/02/2009 07:20      17.0   7.0  17.5   8.1  52   996   ---     S    37    37   ---   --- /
07/02/2009 08:20      16.0   8.0  16.9   7.6  59   996   ---   SSW    27    27   ---   --- /
07/02/2009 08:50      17.0   8.0  17.7   8.9  55   996   ---   SSW    29    29   ---   --- /
07/02/2009 10:20      17.0  11.0  18.5  10.4  68   997   ---    SW    19    19   ---   0.9 Few Clouds/
07/02/2009 11:20      14.0  11.0  16.5   4.4  82   997   ---   WNW    29    29   ---   --- Overcast/ Light Rain
07/02/2009 11:50      13.0  11.0  15.9   2.6  88   997   ---   WNW    31    31   ---   --- Overcast/ Light Rain
07/02/2009 13:20      12.0  10.0  14.9   2.6  88   996   ---   WNW    23    23   ---   0.5 Broken Clouds/
07/02/2009 14:20      12.0  10.0  14.9   0.7  88   996   ---   WNW    34    34   ---   0.3 Broken Clouds/
07/02/2009 15:20      11.0   9.0  13.9  -1.4  87   996   ---     W    39    39   ---   --- Overcast/ Rain
07/02/2009 15:50      11.0   9.0  13.9  -0.4  87   997   ---     W    31    31   ---   --- Overcast/ Light Rain
07/02/2009 17:20      10.0   7.0  12.5  -0.3  82   997   ---     S    23    23   ---   0.6 Broken Clouds/
07/02/2009 17:50      11.0   6.0  12.7   0.1  71   996   ---   SSW    27    27   ---   0.6 Broken Clouds/
07/02/2009 19:20      11.0   8.0  13.5   0.4  82   997   ---   SSW    26    26   ---   0.6 Scattered Clouds/
07/02/2009 20:20      12.0   7.0  13.7   0.0  71   998   ---    SW    40    40   ---   0.7 Scattered Clouds/
07/02/2009 21:20      11.0   5.0  12.4   0.4  66   998   ---    SW    26    26   ---   0.8 Scattered Clouds/
07/02/2009 22:20      12.0   7.0  13.7   0.7  71   998   ---    SW    34    34   ---   0.8 Scattered Clouds/
07/02/2009 23:20      12.0   7.0  13.7  -0.4  71   998   ---    SW    45    64   ---   0.7 Scattered Clouds/
08/02/2009 00:50      11.0   7.0  13.1  -2.0  76   998   ---    SW    45    45   ---   0.7 Scattered Clouds/
08/02/2009 01:20      11.0   8.0  13.5  -1.8  82   998   ---   WSW    43    43   ---   0.7 Scattered Clouds/
08/02/2009 02:20      10.0   7.0  12.5  -1.9  82   998   ---   SSW    31    31   ---   0.7 Scattered Clouds/
08/02/2009 03:20      10.0   6.0  12.1  -1.9  76   998   ---   SSW    31    31   ---   0.8 Scattered Clouds/
08/02/2009 04:20      10.0   6.0  12.1  -2.9  76   997   ---    SW    39    39   ---   0.8 Scattered Clouds/
08/02/2009 05:20       9.0   5.0  11.1  -3.8  76   998   ---     S    32    32   ---   0.9 Scattered Clouds/
08/02/2009 06:20       9.0   6.0  11.5  -3.9  81   997   ---   SSW    34    34   ---   0.9 Scattered Clouds/
08/02/2009 07:20      10.0   6.0  12.1  -2.2  76   998   ---     S    32    55   ---   --- Overcast/ Rain
08/02/2009 08:20       9.0   6.0  11.5  -3.8  81   999   ---     S    32    51   ---   --- Overcast/ Light Rain
08/02/2009 09:20       8.0   6.0  10.9  -5.0  87  1000   ---   SSW    31    31   ---   --- Overcast/ Light Rain
08/02/2009 10:20       9.0   5.0  11.1  -3.8  76  1000   ---   SSW    32    32   ---   0.7 Broken Clouds/
08/02/2009 11:20       9.0   7.0  11.9  -3.9  87  1001   ---   SSW    34    34   ---   --- Overcast/ Light Rain
08/02/2009 12:20       9.0   5.0  11.1  -3.1  76  1001   ---    SW    29    29   ---   0.7 Broken Clouds/
08/02/2009 13:20       9.0   6.0  11.5  -1.8  81  1001   ---   SSW    23    23   ---   --- Overcast/ Light Rain
08/02/2009 14:20       9.0   6.0  11.5  -3.1  81  1001   ---     S    29    29   ---   --- Overcast/ Rain
08/02/2009 15:20       9.0   7.0  11.9  -2.5  87  1001   ---   SSW    26    26   ---   0.6 Broken Clouds/
08/02/2009 16:20      10.0   7.0  12.5  -0.3  82  1001   ---     W    23    23   ---   --- Overcast/ Rain
08/02/2009 17:20       9.0   6.0  11.5  -1.3  81  1002   ---     S    21    21   ---   --- Overcast/ Light Rain
08/02/2009 18:20      12.0   6.0  13.4   0.8  67  1002   ---     W    32    43   ---   0.6 Scattered Clouds/
08/02/2009 19:20      12.0   5.0  13.1   1.4  62  1003   ---   WNW    29    29   ---   0.6 Scattered Clouds/
08/02/2009 20:20      12.0   6.0  13.4   1.4  67  1004   ---   WNW    29    29   ---   0.6 Scattered Clouds/
08/02/2009 21:20      12.0   6.0  13.4   0.7  67  1004   ---     W    34    34   ---   0.6 Scattered Clouds/
08/02/2009 22:20      12.0   6.0  13.4   0.8  67  1005   ---     W    32    32   ---   0.6 Scattered Clouds/
08/02/2009 23:20      12.0   6.0  13.4   0.2  67  1006   ---     W    39    39   ---   0.6 Scattered Clouds/
09/02/2009 00:50      12.0   6.0  13.4   0.2  67  1005   ---     W    39    39   ---   0.6 Scattered Clouds/
09/02/2009 01:20      11.0   6.0  12.7   1.1  71  1006   ---   WSW    23    23   ---   0.6 Scattered Clouds/
09/02/2009 02:20      11.0   7.0  13.1  -1.4  76  1006   ---     W    39    39   ---   --- Overcast/ Light Rain
09/02/2009 03:20      11.0   7.0  13.1  -1.4  76  1006   ---    NW    39    39   ---   0.6 Scattered Clouds/
09/02/2009 04:20      12.0   6.0  13.4   0.7  67  1006   ---    NW    34    34   ---   0.6 Scattered Clouds/
09/02/2009 05:20      11.0   6.0  12.7  -0.4  71  1007   ---     W    31    31   ---   0.7 Scattered Clouds/
09/02/2009 06:20       9.0   6.0  11.5   0.4  81  1008   ---   SSE    16    16   ---   0.7 Scattered Clouds/
09/02/2009 07:20      12.0   7.0  13.7   1.1  71  1008   ---    NW    31    42   ---   0.6 Broken Clouds/
09/02/2009 08:20      11.0   7.0  13.1  -1.4  76  1009   ---   WNW    39    39   ---   0.6 Broken Clouds/
09/02/2009 09:20      12.0   7.0  13.7   3.3  71  1010   ---     W    19    19   ---   0.6 Broken Clouds/
09/02/2009 10:20      12.0   7.0  13.7   3.3  71  1011   ---    NW    19    19   ---   0.5 Broken Clouds/
09/02/2009 11:20      13.0   6.0  14.2   2.9  62  1012   ---     W    29    29   ---   0.5 Broken Clouds/
09/02/2009 12:20      13.0   6.0  14.2   2.6  62  1013   ---   WNW    31    31   ---   0.5 Broken Clouds/
09/02/2009 13:20      13.0   7.0  14.4   3.4  67  1012   ---     W    26    26   ---   0.6 Broken Clouds/
09/02/2009 14:20      13.0   7.0  14.4   3.4  67  1013   ---    NW    26    26   ---   0.6 Broken Clouds/
09/02/2009 15:20      13.0   7.0  14.4   4.4  67  1013   ---    NW    21    21   ---   0.7 Scattered Clouds/
09/02/2009 15:50      13.0   7.0  14.4   3.4  67  1014   ---   WNW    26    26   ---   0.7 Scattered Clouds/
09/02/2009 17:20      13.0   7.0  14.4   4.4  67  1015   ---   WNW    21    21   ---   0.7 Scattered Clouds/
09/02/2009 18:20      13.0   6.0  14.2   3.1  62  1015   ---   WNW    27    27   ---   0.7 Scattered Clouds/
09/02/2009 19:20      13.0   7.0  14.4   5.5  67  1016   ---   WNW    18    18   ---   0.7 Few Clouds/
09/02/2009 20:20      13.0   7.0  14.4   5.5  67  1017   ---   WNW    18    18   ---   0.7 Few Clouds/
09/02/2009 21:20      13.0   7.0  14.4   5.5  67  1017   ---     W    18    18   ---   0.7 Few Clouds/
09/02/2009 22:20      12.0   5.0  13.1  12.0  62  1017   ---     W     5     5   ---   0.7 Few Clouds/
09/02/2009 23:20       9.0   5.0  11.1   2.3  76  1018   ---     S    13    13   ---   0.7 Few Clouds/
10/02/2009 00:50      10.0   6.0  12.1   0.5  76  1018   ---   SSE    19    19   ---   0.7 Few Clouds/
10/02/2009 01:20      10.0   6.0  12.1   2.7  76  1018   ---     S    14    14   ---   0.7 Few Clouds/
10/02/2009 02:20      12.0   7.0  13.7   1.9  71  1018   ---     S    26    26   ---   0.7 Few Clouds/
10/02/2009 03:20      11.0   7.0  13.1   1.9  76  1018   ---     S    19    19   ---   0.7 Few Clouds/
10/02/2009 04:20      11.0   8.0  13.5   1.9  82  1017   ---     S    19    19   ---   0.7 Scattered Clouds/
10/02/2009 05:20      12.0   8.0  14.1   3.0  77  1017   ---     S    21    21   ---   0.7 Scattered Clouds/
10/02/2009 06:20      13.0   9.0  15.1   3.4  77  1017   ---     S    26    26   ---   0.7 Scattered Clouds/
10/02/2009 07:20      13.0   9.0  15.1   3.1  77  1017   ---     S    27    27   ---   0.9 Few Clouds/
10/02/2009 08:20      14.0  10.0  16.1   4.4  77  1018   ---   SSW    29    29   ---   0.9 Scattered Clouds/
10/02/2009 09:20      14.0  10.0  16.1   4.4  77  1017   ---     S    29    29   ---   0.9 Scattered Clouds/
10/02/2009 10:20      15.0  10.0  16.8   6.1  72  1017   ---     S    27    51   ---   0.9 Scattered Clouds/
10/02/2009 11:20      15.0  10.0  16.8   4.9  72  1017   ---     S    37    37   ---   0.9 Scattered Clouds/
10/02/2009 12:20      16.0  11.0  17.8   6.4  72  1016   ---     S    39    39   ---   0.9 Broken Clouds/
10/02/2009 13:20      17.0  10.0  18.2   8.0  63  1015   ---   SSW    39    39   ---   0.9 Broken Clouds/
10/02/2009 14:20      17.0   9.0  18.0   7.3  59  1013   ---    SW    50    50   ---   0.9 Few Clouds/
10/02/2009 15:20      16.0  10.0  17.5   5.9  68  1013   ---    SW    47    47   ---   0.9 Few Clouds/
10/02/2009 16:20      16.0  10.0  17.5   6.4  68  1014   ---    SW    39    39   ---   0.9 Scattered Clouds/
10/02/2009 17:20      15.0  11.0  17.1   4.9  77  1014   ---   WSW    37    37   ---   0.7 Broken Clouds/
10/02/2009 18:20      15.0  10.0  16.8   4.7  72  1013   ---   SSW    42    42   ---   0.7 Scattered Clouds/
10/02/2009 19:20      15.0  11.0  17.1   5.6  77  1014   ---   SSW    31    31   ---   0.7 Scattered Clouds/
10/02/2009 20:20      15.0  11.0  17.1   6.9  77  1014   ---   SSW    23    23   ---   0.6 Scattered Clouds/
10/02/2009 21:20      15.0  11.0  17.1   6.4  77  1014   ---    SW    26    26   ---   0.6 Scattered Clouds/
10/02/2009 22:20      14.0  10.0  16.1   4.1  77  1014   ---   SSW    31    31   ---   0.6 Scattered Clouds/
10/02/2009 23:20      15.0  11.0  17.1   5.3  77  1014   ---    SW    34    34   ---   0.6 Scattered Clouds/
11/02/2009 00:50      14.0  10.0  16.1   6.2  77  1014   ---   SSW    19    19   ---   0.6 Scattered Clouds/
11/02/2009 01:20      14.0  11.0  16.5   8.7  82  1013   ---    SW    13    13   ---   0.6 Scattered Clouds/
11/02/2009 02:20      14.0  11.0  16.5   4.9  82  1012   ---   WSW    26    26   ---   0.6 Scattered Clouds/
11/02/2009 03:20      14.0  11.0  16.5   4.4  82  1012   ---     W    29    29   ---   0.7 Broken Clouds/
11/02/2009 04:20      14.0  11.0  16.5   4.6  82  1011   ---     W    27    27   ---   0.7 Broken Clouds/
11/02/2009 05:20      14.0  10.0  16.1   3.1  77  1011   ---     W    42    42   ---   0.7 Broken Clouds/
11/02/2009 06:20      14.0  10.0  16.1   2.7  77  1010   ---     W    47    47   ---   0.7 Broken Clouds/
11/02/2009 07:20      13.0   8.0  14.8   1.2  72  1010   ---     W    45    45   ---   0.7 Scattered Clouds/
11/02/2009 08:20      13.0   9.0  15.1   1.4  77  1011   ---     W    43    43   ---   0.7 Scattered Clouds/
11/02/2009 09:20      13.0   8.0  14.8   1.4  72  1011   ---     W    43    43   ---   0.7 Scattered Clouds/
11/02/2009 10:20      13.0   7.0  14.4   1.5  67  1011   ---     W    42    42   ---   0.7 Broken Clouds/
11/02/2009 11:20      13.0   6.0  14.2   1.6  62  1011   ---   WNW    40    40   ---   0.7 Scattered Clouds/
11/02/2009 12:20      13.0   6.0  14.2   1.4  62  1010   ---     W    43    43   ---   0.7 Scattered Clouds/
11/02/2009 13:20      13.0   7.0  14.4   2.9  67  1010   ---     W    29    58   ---   0.5 Broken Clouds/
11/02/2009 14:20      12.0   6.0  13.4  -0.2  67  1009   ---   WNW    43    43   ---   --- Overcast/ Light Rain
11/02/2009 15:20      12.0   8.0  14.1  -0.5  77  1008   ---     W    47    47   ---   --- Overcast/ Light Rain
11/02/2009 16:20      12.0   6.0  13.4  -0.5  67  1008   ---     W    47    66   ---   0.5 Broken Clouds/ Showers in the Vicinity
11/02/2009 17:20      12.0   6.0  13.4  -0.7  67  1008   ---     W    50    50   ---   0.7 Scattered Clouds/
11/02/2009 18:20      12.0   5.0  13.1  -0.4  62  1008   ---     W    45    45   ---   0.9 Scattered Clouds/
11/02/2009 19:20      11.0   6.0  12.7  -2.4  71  1008   ---   WNW    53    53   ---   0.9 Scattered Clouds/
11/02/2009 20:20      12.0   6.0  13.4  -0.1  67  1008   ---     W    42    42   ---   0.9 Scattered Clouds/
11/02/2009 21:20      12.0   6.0  13.4  -0.4  67  1008   ---     W    45    45   ---   0.7 Scattered Clouds/
11/02/2009 22:20      12.0   6.0  13.4   0.0  67  1007   ---     W    40    40   ---   0.7 Scattered Clouds/
11/02/2009 23:20      12.0   5.0  13.1  -0.2  62  1007   ---   WNW    43    43   ---   0.7 Scattered Clouds/
12/02/2009 00:50      12.0   4.0  12.9   0.3  58  1006   ---   WNW    37    37   ---   0.7 Scattered Clouds/
12/02/2009 01:20      12.0   4.0  12.9   0.0  58  1006   ---     W    40    40   ---   0.7 Scattered Clouds/
12/02/2009 02:20      11.0   6.0  12.7  -0.7  71  1006   ---   WSW    32    32   ---   0.7 Scattered Clouds/
12/02/2009 03:20      11.0   5.0  12.4  -2.0  66  1004   ---     W    45    45   ---   0.7 Scattered Clouds/
12/02/2009 04:20      11.0   5.0  12.4  -2.0  66  1004   ---     W    45    45   ---   0.7 Broken Clouds/
12/02/2009 05:20      11.0   6.0  12.7  -1.8  71  1004   ---     W    43    43   ---   0.7 Broken Clouds/
12/02/2009 06:20       8.0   5.0  10.5  -6.8  81  1005   ---   NNW    47    47   ---   0.7 Broken Clouds/
12/02/2009 07:20       7.0   3.0   9.0   1.7  76  1005   ---    SW    10    10   ---   0.8 Scattered Clouds/
12/02/2009 08:20       9.0   5.0  11.1  -0.9  76  1005   ---     W    19    19   ---   0.6 Scattered Clouds/
12/02/2009 08:50      10.0   6.0  12.1  -4.0  76  1005   ---   WNW    51    51   ---   --- Overcast/ Light Rain
12/02/2009 10:20       7.0   3.0   9.0  -0.2  76  1006   ---   SSW    13    29   ---   0.6 Broken Clouds/
12/02/2009 11:20      11.0   5.0  12.4  -1.4  66  1006   ---   NNW    39    56   ---   0.5 Broken Clouds/
12/02/2009 12:20       9.0   5.0  11.1  -5.6  76  1007   ---   NNW    53    53   ---   0.7 Broken Clouds/
12/02/2009 13:20       6.0   4.0   8.9  -3.7  87  1007   ---   SSE    16    16   ---   0.7 Scattered Clouds/
12/02/2009 14:20       9.0   6.0  11.5  -1.8  81  1007   ---   SSW    23    23   ---   --- Overcast/ Light Rain
12/02/2009 15:20       8.0   5.0  10.5  -2.3  81  1008   ---     N    19    19   ---   --- Overcast/ Light Rain
12/02/2009 16:20       7.0   5.0   9.9   2.7  87  1008   ---     N     8     8   ---   --- Overcast/ Light Rain
12/02/2009 17:20       7.0   4.0   9.4  -1.3  81  1008   ---    NE    14    14   ---   0.7 Broken Clouds/
12/02/2009 18:20       6.0   3.0   8.4  -7.4  81  1008   ---   SSW    27    27   ---   --- Overcast/ Light Rain
12/02/2009 19:20       5.0   2.0   7.4  -5.0  81  1008   ---     S    16    16   ---   0.7 Scattered Clouds/
12/02/2009 20:20       5.0   2.0   7.4  -2.8  81  1007   ---     S    13    13   ---   0.7 Scattered Clouds/
12/02/2009 21:20       5.0   2.0   7.4  -2.8  81  1007   ---     S    13    13   ---   0.7 Scattered Clouds/
12/02/2009 22:20       8.0   4.0  10.0  -4.4  76  1007   ---    NW    27    27   ---   --- Overcast/ Light Rain
12/02/2009 23:20       6.0   2.0   8.0  -4.2  75  1007   ---     S    18    18   ---   0.5 Broken Clouds/
13/02/2009 00:50       5.0   3.0   7.9  -5.5  87  1007   ---   SSE    18    18   ---   --- Overcast/ Light Rain
13/02/2009 01:20       5.0   3.0   7.9  -2.8  87  1006   ---   SSW    13    13   ---   0.6 Broken Clouds/
13/02/2009 02:20       6.0   3.0   8.4  -4.2  81  1006   ---   SSE    18    18   ---   0.6 Broken Clouds/
13/02/2009 07:20       8.0   4.0  10.0  -6.0  76  1005   ---    NW    37    37   ---   0.6 Broken Clouds/
13/02/2009 08:20       6.0   3.0   8.4   1.5  81  1006   ---     S     8     8   ---   0.6 Broken Clouds/
13/02/2009 09:20       8.0   4.0  10.0   0.0  76  1006   ---   WSW    14    14   ---   0.6 Scattered Clouds/
13/02/2009 10:20       8.0   4.0  10.0  -0.9  76  1013   ---   WNW    16    16   ---   0.6 Broken Clouds/
13/02/2009 10:50       9.0   6.0  11.5   9.0  81  1006   ---     N     0     0   ---   0.5 Broken Clouds/
13/02/2009 12:20       8.0   4.0  10.0  -4.6  76  1007   ---     N    29    29   ---   0.6 Broken Clouds/
13/02/2009 12:50       8.0   4.0  10.0  -3.2  76  1006   ---     N    23    23   ---   0.6 Broken Clouds/
13/02/2009 14:20       8.0   5.0  10.5  -4.4  81  1006   ---     N    27    27   ---   0.6 Broken Clouds/
13/02/2009 15:20       8.0   5.0  10.5  -0.9  81  1006   ---   NNW    16    53   ---   0.5 Broken Clouds/
13/02/2009 16:20       7.0   4.0   9.4  -2.3  81  1007   ---    NE    16    16   ---   0.4 Broken Clouds/
13/02/2009 17:20       5.0   2.0   7.4  -7.6  81  1008   ---   SSE    23    42   ---   0.4 Broken Clouds/
13/02/2009 18:20       6.0   3.0   8.4  -2.6  81  1008   ---   ENE    14    14   ---   0.4 Broken Clouds/
13/02/2009 19:20       6.0   3.0   8.4  -4.2  81  1008   ---     S    18    18   ---   0.5 Broken Clouds/
13/02/2009 20:20       7.0   4.0   9.4  -3.7  81  1009   ---     N    19    19   ---   --- Overcast/ Rain
13/02/2009 21:20       5.0   2.0   7.4  -2.8  81  1009   ---     E    13    13   ---   0.5 Scattered Clouds/
13/02/2009 22:20       5.0   3.0   7.9  -7.6  87  1010   ---    NW    23    23   ---   --- Overcast/ Light Rain
13/02/2009 22:50       5.0   2.0   7.4  -3.9  81  1010   ---     S    14    14   ---   --- Overcast/ Light Rain
14/02/2009 00:50       4.0   2.0   6.9  -6.4  87  1010   ---   SSE    16    16   ---   --- / Thunderstorm
14/02/2009 01:50       4.0   2.0   6.9  -6.9  87  1010   ---    SW    18    18   ---   0.7 Scattered Clouds/
14/02/2009 03:20       4.0   3.0   7.4  -8.0  93  1009   ---     E    19    19   ---   0.4 Scattered Clouds/
14/02/2009 03:50       4.0   2.0   6.9  -5.2  87  1009   ---   ENE    14    14   ---   --- / Thunderstorm
14/02/2009 04:50       5.0   2.0   7.4  -9.1  81  1009   ---     E    29    29   ---   0.5 Scattered Clouds/
14/02/2009 06:20       6.0   4.0   8.9  -7.0  87  1009   ---    SW    26    26   ---   0.5 Scattered Clouds/
14/02/2009 07:20       5.0   3.0   7.9  -5.0  87  1010   ---   SSW    16    16   ---   --- Overcast/ Light Rain
14/02/2009 08:20       4.0   3.0   7.4  -1.9  93  1011   ---   SSE    10    10   ---   --- Overcast/ Light Rain
14/02/2009 09:20       4.0   3.0   7.4  -9.9  93  1011   ---    NE    26    26   ---   --- Overcast/ Light Rain
14/02/2009 10:20       4.0   3.0   7.4  -8.0  93  1011   ---   ESE    19    19   ---   --- Overcast/ Light Rain
14/02/2009 11:20       6.0   4.0   8.9  -5.6  87  1012   ---   WSW    21    21   ---   0.7 Broken Clouds/
14/02/2009 11:50       7.0   4.0   9.4  -1.3  81  1012   ---   SSW    14    14   ---   0.6 Scattered Clouds/
14/02/2009 13:20       6.0   4.0   8.9  -8.0  87  1012   ---   NNE    31    31   ---   --- Overcast/ Light Rain
14/02/2009 14:20       5.0   3.0   7.9   0.4  87  1012   ---   SSE     8     8   ---   1.0 Broken Clouds/
14/02/2009 15:20       5.0   3.0   7.9  -2.8  87  1012   ---   SSE    13    13   ---   0.9 Broken Clouds/
14/02/2009 16:20       6.0   3.0   8.4   1.5  81  1012   ---    SW     8     8   ---   0.9 Broken Clouds/
14/02/2009 17:20       5.0   3.0   7.9  -7.6  87  1012   ---   WSW    23    23   ---   --- Overcast/ Rain
14/02/2009 18:20       4.0   2.0   6.9  -4.1  87  1012   ---   SSE    13    13   ---   --- Overcast/ Light Rain
14/02/2009 19:20       4.0   3.0   7.4 -11.4  93  1013   ---     W    32    32   ---   0.5 Overcast/
14/02/2009 20:20       3.0   2.0   6.4  -6.6  93  1012   ---    SE    14    14   ---   0.5 Broken Clouds/
14/02/2009 21:20       3.0   2.0   6.4  -5.3  93  1012   ---     S    13    13   ---   0.5 Broken Clouds/
14/02/2009 22:20       4.0   1.0   6.4  -5.2  81  1012   ---     S    14    14   ---   0.6 Scattered Clouds/
14/02/2009 23:20       4.0   2.0   6.9  -8.0  87  1012   ---   SSW    19    19   ---   0.6 Broken Clouds/
15/02/2009 00:50       4.0   1.0   6.4  -0.8  81  1012   ---     S     8     8   ---   0.6 Scattered Clouds/
15/02/2009 01:20       3.0   1.0   5.9  -6.6  87  1012   ---   SSE    14    14   ---   0.6 Scattered Clouds/
15/02/2009 02:20       6.0   3.0   8.4  -3.7  81  1012   ---     N    16    16   ---   0.6 Scattered Clouds/
15/02/2009 03:20       8.0   0.0   8.8  -3.2  57  1013   ---   NNE    23    23   ---   0.6 Scattered Clouds/
15/02/2009 04:20       8.0   4.0  10.0  -5.3  76  1013   ---     N    32    32   ---   0.6 Scattered Clouds/
15/02/2009 05:20       4.0   1.0   6.4  -4.1  81  1014   ---     E    13    13   ---   0.6 Broken Clouds/
15/02/2009 06:20       4.0   3.0   7.4  -0.8  93  1015   ---     E     8     8   ---   --- Overcast/ Light Rain
15/02/2009 07:20       3.0   2.0   6.4   3.0  93  1015   ---     S     5     5   ---   0.5 Scattered Clouds/
15/02/2009 08:20       3.0   2.0   6.4  -2.0  93  1016   ---     S     8     8   ---   0.5 Scattered Clouds/
15/02/2009 09:20       5.0   2.0   7.4   0.4  81  1017   ---     S     8     8   ---   0.5 Broken Clouds/
15/02/2009 10:20       8.0   4.0  10.0  -4.4  76  1017   ---   NNE    27    27   ---   0.5 Broken Clouds/
15/02/2009 11:20      10.0   1.0  10.6  -1.1  54  1018   ---     N    26    26   ---   0.5 Broken Clouds/
15/02/2009 12:20       9.0   1.0   9.8  -0.9  57  1018   ---     N    19    19   ---   0.5 Broken Clouds/
15/02/2009 13:20      10.0   2.0  10.9   0.5  58  1018   ---   NNE    19    19   ---   0.5 Broken Clouds/
15/02/2009 13:50      10.0   1.0  10.6  -0.3  54  1018   ---   NNE    23    23   ---   0.5 Broken Clouds/
15/02/2009 15:20      10.0   1.0  10.6  -1.6  54  1018   ---    NE    29    29   ---   0.7 Broken Clouds/
15/02/2009 16:20      10.0   2.0  10.9  -1.1  58  1019   ---   NNE    26    26   ---   0.7 Broken Clouds/
15/02/2009 17:20      10.0   1.0  10.6  -0.3  54  1019   ---   NNE    23    23   ---   0.7 Broken Clouds/
15/02/2009 18:20       9.0   1.0   9.8   2.3  57  1019   ---   NNE    13    13   ---   0.7 Broken Clouds/
15/02/2009 19:20       8.0   2.0   9.4  -2.3  66  1020   ---    NE    19    19   ---   0.7 Broken Clouds/
15/02/2009 20:20       7.0   4.0   9.4  -7.8  81  1021   ---     N    40    40   ---   --- / Drizzle
15/02/2009 21:20       6.0   3.0   8.4   6.0  81  1021   ---   ESE     5     5   ---   0.7 Broken Clouds/
15/02/2009 22:20       6.0   2.0   8.0  -1.5  75  1021   ---     E    13    13   ---   0.7 Broken Clouds/
15/02/2009 23:20       5.0   3.0   7.9   0.4  87  1021   ---   SSW     8     8   ---   0.7 Scattered Clouds/
16/02/2009 00:50       7.0   3.0   9.0  -6.1  76  1022   ---     N    29    29   ---   --- Overcast/ Light Rain
16/02/2009 01:20       6.0   2.0   8.0  -9.1  75  1021   ---   SSE    37    37   ---   0.9 Broken Clouds/
16/02/2009 02:20       5.0   1.0   7.0   0.4  75  1021   ---     S     8     8   ---   0.9 Broken Clouds/
16/02/2009 03:20       4.0   2.0   6.9  -1.9  87  1021   ---     S    10    10   ---   0.9 Broken Clouds/
16/02/2009 04:20       8.0   4.0  10.0  -6.0  76  1021   ---    NW    37    37   ---   0.9 Broken Clouds/
16/02/2009 05:20       6.0   3.0   8.4  -5.1  81  1022   ---     E    19    19   ---   0.9 Broken Clouds/
16/02/2009 06:20       6.0   3.0   8.4  -5.6  81  1022   ---   ENE    21    21   ---   0.9 Broken Clouds/
16/02/2009 07:20       6.0   1.0   7.7   6.0  70  1022   ---     N     3     3   ---   0.9 Few Clouds/
16/02/2009 08:20       5.0   2.0   7.4   5.0  81  1022   ---     N     3     3   ---   0.9 Few Clouds/
16/02/2009 12:20       8.0   3.0   9.7   8.0  71  1023   ---     S     5     5   ---   0.9 Broken Clouds/
16/02/2009 13:20       9.0   2.0  10.1   9.0  62  1023   ---     N     5     5   ---   1.0 Scattered Clouds/
16/02/2009 14:20      10.0   2.0  10.9  10.0  58  1022   ---     N     5     5   ---   0.9 Few Clouds/
16/02/2009 15:20      10.0   0.0  10.4   6.2  50  1022   ---     N     8     8   ---   0.9 Few Clouds/
16/02/2009 16:20      10.0   0.0  10.4  10.0  50  1022   ---     N     3     3   ---   0.9 Few Clouds/
16/02/2009 16:50      10.0   0.0  10.4  10.0  50  1022   ---     N     3     3   ---   0.9 Few Clouds/
16/02/2009 18:20       9.0  -1.0   9.4   9.0  50  1022   ---     N     3     3   ---   0.9 Few Clouds/
16/02/2009 19:20       6.0   2.0   8.0   0.5  75  1022   ---    SE    10    10   ---   0.9 Few Clouds/
16/02/2009 20:20       6.0   1.0   7.7   0.5  70  1022   ---   SSE    10    10   ---   0.9 Few Clouds/
16/02/2009 21:20       5.0   1.0   7.0  -2.8  75  1022   ---   SSE    13    13   ---   0.9 Few Clouds/
16/02/2009 22:20       6.0   1.0   7.7  -2.6  70  1022   ---   SSE    14    14   ---   0.9 Few Clouds/
16/02/2009 23:20       7.0   1.0   8.4  -0.2  66  1022   ---   SSE    13    13   ---   0.9 Few Clouds/
17/02/2009 00:50       7.0   0.0   8.1   1.7  61  1022   ---     S    10    10   ---   0.9 Few Clouds/
17/02/2009 01:20       7.0  -1.0   7.8   1.7  57  1022   ---     S    10    10   ---   0.9 Few Clouds/
17/02/2009 02:20       6.0   0.0   7.3   0.5  65  1022   ---   SSE    10    10   ---   0.9 Few Clouds/
17/02/2009 03:20       7.0   2.0   8.7  -1.3  70  1022   ---   SSW    14    14   ---   0.9 Few Clouds/
17/02/2009 04:20       7.0   1.0   8.4   1.7  66  1021   ---   SSW    10    10   ---   0.9 Few Clouds/
17/02/2009 05:20       8.0  -1.0   8.6   1.0  53  1021   ---     S    13    13   ---   0.9 Few Clouds/
17/02/2009 06:20       7.0  -1.0   7.8  -2.3  57  1020   ---   SSE    16    16   ---   0.9 Few Clouds/
17/02/2009 07:20       7.0  -1.0   7.8  -0.2  57  1021   ---   SSE    13    13   ---   0.9 Scattered Clouds/
17/02/2009 08:20       8.0   0.0   8.8   0.0  57  1021   ---     S    14    14   ---   0.9 Scattered Clouds/
17/02/2009 09:20      10.0  -1.0  10.3   3.6  46  1021   ---     S    13    13   ---   0.9 Broken Clouds/
17/02/2009 10:20      10.0   0.0  10.4   1.4  50  1021   ---     S    18    18   ---   0.9 Broken Clouds/
17/02/2009 11:20      11.0   2.0  11.6   4.0  54  1021   ---     S    14    14   ---   0.9 Scattered Clouds/
17/02/2009 12:20      11.0   4.0  12.1   1.1  62  1020   ---    SW    23    23   ---   0.9 Scattered Clouds/
17/02/2009 13:20      11.0   3.0  11.9   4.0  58  1020   ---   SSW    14    14   ---   0.9 Scattered Clouds/
17/02/2009 14:20      11.0   4.0  12.1   7.3  62  1019   ---   SSW     8     8   ---   0.9 Broken Clouds/
17/02/2009 15:20      11.0   5.0  12.4   4.0  66  1018   ---   WNW    14    14   ---   0.9 Broken Clouds/
17/02/2009 16:20      11.0   6.0  12.7   7.3  71  1018   ---    NE     8     8   ---   1.0 Broken Clouds/
17/02/2009 17:20      10.0   6.0  12.1   7.9  76  1018   ---   ENE     6     6   ---   1.0 Broken Clouds/
17/02/2009 18:20       9.0   6.0  11.5   6.8  81  1018   ---     E     6     6   ---   1.2 Broken Clouds/
17/02/2009 19:20       9.0   6.0  11.5   9.0  81  1017   ---     N     5     5   ---   1.2 Broken Clouds/
17/02/2009 20:20      10.0   6.0  12.1   5.3  76  1017   ---   SSW    10    10   ---   1.2 Broken Clouds/
17/02/2009 21:20       9.0   5.0  11.1   2.3  76  1017   ---   SSW    13    13   ---   1.2 Broken Clouds/
17/02/2009 22:20       7.0   5.0   9.9  -0.2  87  1016   ---     S    13    13   ---   1.2 Scattered Clouds/
17/02/2009 23:20       7.0   4.0   9.4  -2.3  81  1016   ---     S    16    16   ---   1.0 Few Clouds/
18/02/2009 00:50       8.0   4.0  10.0  -2.3  76  1015   ---   SSW    19    19   ---   1.0 Scattered Clouds/
18/02/2009 01:20       8.0   4.0  10.0  -2.7  76  1014   ---     S    21    21   ---   1.0 Scattered Clouds/
18/02/2009 02:20       9.0   4.0  10.7  -2.5  71  1013   ---     S    26    26   ---   1.0 Scattered Clouds/
18/02/2009 03:20       9.0   4.0  10.7  -2.9  71  1012   ---     S    27    27   ---   1.0 Scattered Clouds/
18/02/2009 04:20       9.0   5.0  11.1  -4.5  76  1012   ---     S    39    39   ---   1.0 Scattered Clouds/
18/02/2009 05:20       9.0   5.0  11.1  -3.5  76  1011   ---     S    31    31   ---   1.0 Scattered Clouds/
18/02/2009 06:20       9.0   5.0  11.1  -2.5  76  1010   ---     S    26    26   ---   1.0 Scattered Clouds/
18/02/2009 07:20      10.0   5.0  11.7  -1.1  71  1010   ---   SSW    26    26   ---   0.9 Scattered Clouds/
18/02/2009 08:20      10.0   6.0  12.1  -1.1  76  1009   ---     S    26    26   ---   0.9 Broken Clouds/
18/02/2009 09:20      10.0   6.0  12.1  -1.6  76  1009   ---     S    29    29   ---   0.9 Broken Clouds/
18/02/2009 10:20      10.0   8.0  12.9  -0.3  87  1009   ---     S    23    23   ---   --- Overcast/ Light Rain
18/02/2009 10:50      10.0   8.0  12.9  -1.6  87  1009   ---   SSW    29    29   ---   --- Overcast/ Light Rain
18/02/2009 12:20      12.0   9.0  14.5   1.1  82  1008   ---     W    31    31   ---   0.5 Overcast/
18/02/2009 12:50      13.0   9.0  15.1   2.9  77  1009   ---   WNW    29    29   ---   0.5 Broken Clouds/
18/02/2009 14:20      13.0   8.0  14.8   2.6  72  1008   ---    NW    31    31   ---   0.5 Scattered Clouds/
18/02/2009 15:20      12.0   8.0  14.1   2.6  77  1009   ---   NNW    23    23   ---   0.5 Scattered Clouds/
18/02/2009 15:50      12.0   7.0  13.7   1.6  71  1009   ---     N    27    27   ---   0.5 Scattered Clouds/
18/02/2009 17:20      12.0   6.0  13.4   1.6  67  1010   ---    NW    27    27   ---   0.6 Scattered Clouds/
18/02/2009 18:20      11.0   3.0  11.9  -0.4  58  1011   ---   NNW    31    31   ---   0.8 Few Clouds/
18/02/2009 19:20      10.0   5.0  11.7  -2.2  71  1012   ---   NNW    32    32   ---   0.8 Few Clouds/
18/02/2009 20:20       9.0   3.0  10.4  -3.1  66  1013   ---    NW    29    29   ---   1.2 Broken Clouds/
18/02/2009 21:20       9.0   4.0  10.7  -3.5  71  1014   ---   NNW    31    31   ---   1.2 Broken Clouds/
18/02/2009 22:20       9.0   2.0  10.1  -1.8  62  1014   ---    NW    23    23   ---   1.2 Broken Clouds/
18/02/2009 23:20       9.0   3.0  10.4  -1.3  66  1014   ---    NW    21    21   ---   1.2 Scattered Clouds/
19/02/2009 00:50      10.0   4.0  11.4  -1.1  66  1014   ---    NW    26    26   ---   1.2 Scattered Clouds/
19/02/2009 01:20       9.0   3.0  10.4  -2.9  66  1014   ---    NW    27    27   ---   1.2 Scattered Clouds/
19/02/2009 02:20       9.0   2.0  10.1  -2.9  62  1014   ---    NW    27    27   ---   1.2 Scattered Clouds/
19/02/2009 03:20       9.0   3.0  10.4  -2.9  66  1015   ---   NNW    27    27   ---   1.2 Scattered Clouds/
19/02/2009 04:20       9.0   3.0  10.4  -1.8  66  1015   ---   NNW    23    23   ---   1.0 Broken Clouds/
19/02/2009 05:20       8.0   2.0   9.4  -4.0  66  1015   ---   NNW    26    26   ---   0.9 Broken Clouds/
19/02/2009 06:20       9.0   2.0  10.1  -2.5  62  1015   ---   NNW    26    26   ---   0.7 Broken Clouds/
19/02/2009 07:20       9.0   4.0  10.7  -2.9  71  1016   ---   NNW    27    27   ---   0.7 Broken Clouds/
19/02/2009 07:50       8.0   2.0   9.4  -4.4  66  1017   ---   NNW    27    27   ---   0.7 Broken Clouds/
19/02/2009 09:20       9.0   2.0  10.1  -2.9  62  1017   ---   NNW    27    27   ---   0.9 Broken Clouds/
19/02/2009 09:50       9.0   2.0  10.1  -2.5  62  1017   ---   NNW    26    26   ---   0.9 Broken Clouds/
19/02/2009 11:20      10.0   3.0  11.1  -1.1  62  1017   ---   NNW    26    26   ---   0.9 Broken Clouds/
19/02/2009 12:20      10.0   2.0  10.9   0.1  58  1018   ---    NW    21    21   ---   0.9 Broken Clouds/
19/02/2009 12:50      10.0   2.0  10.9   0.5  58  1017   ---   NNW    19    19   ---   0.9 Broken Clouds/
19/02/2009 14:20      10.0   3.0  11.1   0.1  62  1017   ---    NW    21    21   ---   0.9 Broken Clouds/
19/02/2009 14:50      10.0   2.0  10.9   0.5  58  1017   ---   NNW    19    19   ---   0.7 Broken Clouds/
19/02/2009 16:20      10.0   2.0  10.9  -1.1  58  1018   ---   NNW    26    26   ---   0.7 Broken Clouds/
19/02/2009 17:20       9.0   1.0   9.8  -1.3  57  1018   ---   WNW    21    21   ---   0.7 Broken Clouds/
19/02/2009 18:20      10.0   2.0  10.9   0.1  58  1018   ---    NW    21    21   ---   0.7 Broken Clouds/
19/02/2009 19:20      10.0   3.0  11.1   1.4  62  1019   ---    NW    18    18   ---   0.7 Broken Clouds/
19/02/2009 20:20       9.0   2.0  10.1  -0.0  62  1019   ---   NNW    18    18   ---   0.7 Broken Clouds/
19/02/2009 21:20       9.0   2.0  10.1   2.3  62  1019   ---   NNW    13    13   ---   0.7 Broken Clouds/
19/02/2009 22:20       9.0   3.0  10.4   4.1  66  1019   ---   NNW    10    10   ---   0.7 Scattered Clouds/
19/02/2009 23:20      10.0   3.0  11.1   1.8  62  1019   ---     N    16    16   ---   0.7 Scattered Clouds/
20/02/2009 00:50      10.0   3.0  11.1   1.4  62  1019   ---     N    18    18   ---   0.7 Scattered Clouds/
20/02/2009 01:20      10.0   3.0  11.1   1.8  62  1019   ---     N    16    16   ---   0.7 Scattered Clouds/
20/02/2009 02:20      10.0   3.0  11.1   3.6  62  1019   ---   NNW    13    13   ---   0.7 Scattered Clouds/
20/02/2009 03:20      10.0   3.0  11.1  -0.3  62  1019   ---     N    23    23   ---   0.7 Scattered Clouds/
20/02/2009 04:20      10.0   3.0  11.1   1.4  62  1019   ---     N    18    18   ---   0.9 Broken Clouds/
20/02/2009 05:20      10.0   2.0  10.9   5.3  58  1020   ---     N    10    10   ---   0.9 Broken Clouds/
20/02/2009 06:20      10.0   2.0  10.9   3.6  58  1020   ---     N    13    13   ---   0.9 Broken Clouds/
20/02/2009 07:20      10.0   2.0  10.9  -1.6  58  1020   ---   NNW    29    29   ---   0.9 Scattered Clouds/
20/02/2009 08:20      10.0   2.0  10.9  -1.6  58  1021   ---     N    29    29   ---   0.9 Scattered Clouds/
20/02/2009 09:20      10.0   0.0  10.4  -0.3  50  1022   ---   NNW    23    23   ---   0.9 Scattered Clouds/
20/02/2009 10:20      10.0   0.0  10.4   0.1  50  1022   ---     N    21    21   ---   0.9 Scattered Clouds/
20/02/2009 11:20      10.0   0.0  10.4   2.7  50  1023   ---   NNW    14    14   ---   0.9 Scattered Clouds/
20/02/2009 11:50      10.0   1.0  10.6   1.4  54  1023   ---     N    18    18   ---   0.9 Scattered Clouds/
20/02/2009 13:20      10.0   2.0  10.9   1.4  58  1023   ---    NW    18    18   ---   0.9 Scattered Clouds/
20/02/2009 14:20      10.0   0.0  10.4   1.8  50  1023   ---   WSW    16    16   ---   0.9 Scattered Clouds/
20/02/2009 15:20      10.0   2.0  10.9   2.7  58  1023   ---     N    14    14   ---   0.9 Scattered Clouds/
20/02/2009 16:20      10.0   1.0  10.6   2.7  54  1022   ---     N    14    14   ---   0.9 Scattered Clouds/
20/02/2009 17:20      10.0   1.0  10.6   3.6  54  1023   ---     N    13    13   ---   0.9 Scattered Clouds/
20/02/2009 18:20      10.0   1.0  10.6   1.8  54  1023   ---   NNE    16    16   ---   0.9 Scattered Clouds/
20/02/2009 19:20       8.0   2.0   9.4   2.9  66  1023   ---   ENE    10    10   ---   0.9 Scattered Clouds/
20/02/2009 20:20      10.0   3.0  11.1  -0.3  62  1023   ---    NE    23    23   ---   0.9 Scattered Clouds/
20/02/2009 21:20      10.0   3.0  11.1  -0.3  62  1024   ---   NNE    23    23   ---   0.9 Scattered Clouds/
20/02/2009 21:50      10.0   3.0  11.1  -0.3  62  1024   ---   NNE    23    23   ---   0.9 Scattered Clouds/
20/02/2009 23:20      10.0   2.0  10.9   0.5  58  1025   ---   NNE    19    19   ---   0.9 Scattered Clouds/
21/02/2009 00:50       7.0   1.0   8.4  -1.3  66  1025   ---    NE    14    14   ---   1.0 Scattered Clouds/
21/02/2009 02:20       7.0   1.0   8.4   1.7  66  1025   ---     E    10    10   ---   1.0 Scattered Clouds/
21/02/2009 02:50       7.0   1.0   8.4   1.7  66  1024   ---     E    10    10   ---   1.0 Scattered Clouds/
21/02/2009 04:20       7.0   1.0   8.4   4.6  66  1024   ---     E     6     6   ---   1.0 Scattered Clouds/
21/02/2009 05:20       5.0   1.0   7.0   2.4  75  1024   ---   SSE     6     6   ---   1.0 Scattered Clouds/
21/02/2009 06:20       5.0   1.0   7.0   5.0  75  1024   ---     N     5     5   ---   1.0 Scattered Clouds/
21/02/2009 07:20       6.0   2.0   8.0   3.5  75  1024   ---   ESE     6     6   ---   0.9 Scattered Clouds/
21/02/2009 08:20       7.0   3.0   9.0   1.7  76  1024   ---     E    10    10   ---   0.9 Scattered Clouds/
21/02/2009 09:20      10.0   3.0  11.1   3.6  62  1024   ---   ENE    13    13   ---   0.9 Scattered Clouds/
21/02/2009 10:20      11.0   2.0  11.6   4.9  54  1024   ---   ENE    13    13   ---   0.9 Scattered Clouds/
21/02/2009 11:20      11.0   3.0  11.9   6.5  58  1024   ---   NNE    10    10   ---   0.9 Scattered Clouds/
21/02/2009 12:20      11.0   3.0  11.9   4.9  58  1024   ---     N    13    13   ---   0.9 Few Clouds/
21/02/2009 13:20      11.0   3.0  11.9   4.9  58  1023   ---     N    13    13   ---   --- /
21/02/2009 14:20      11.0   3.0  11.9   4.9  58  1023   ---     N    13    13   ---   --- /
21/02/2009 15:20      11.0   4.0  12.1   4.9  62  1022   ---     N    13    13   ---   --- /
21/02/2009 16:20      11.0   3.0  11.9   4.0  58  1022   ---    NE    14    14   ---   --- /
21/02/2009 17:20      11.0   3.0  11.9   4.9  58  1022   ---   ENE    13    13   ---   --- /
21/02/2009 18:20       9.0   3.0  10.4   1.4  66  1022   ---   ENE    14    14   ---   --- /
21/02/2009 19:20       8.0   2.0   9.4   1.0  66  1022   ---   ENE    13    13   ---   --- /
21/02/2009 20:20       9.0   1.0   9.8   4.1  57  1023   ---     E    10    10   ---   --- /
21/02/2009 21:20       9.0   1.0   9.8   6.8  57  1023   ---   ENE     6     6   ---   --- /
21/02/2009 22:20       8.0   1.0   9.1   8.0  61  1023   ---   ENE     5     5   ---   --- /
21/02/2009 23:20       8.0   1.0   9.1   5.7  61  1023   ---     E     6     6   ---   --- /
22/02/2009 00:50       7.0   2.0   8.7   7.0  70  1022   ---     N     2     2   ---   --- /
22/02/2009 01:20       7.0   2.0   8.7   7.0  70  1022   ---     N     3     3   ---   --- /
22/02/2009 02:20       7.0   2.0   8.7   7.0  70  1022   ---     N     3     3   ---   --- /
22/02/2009 03:20       7.0   3.0   9.0   7.0  76  1021   ---     N     2     2   ---   --- /
22/02/2009 04:20       6.0   2.0   8.0   6.0  75  1021   ---     N     2     2   ---   --- /
22/02/2009 05:20       6.0   3.0   8.4   3.5  81  1021   ---     S     6     6   ---   --- /
22/02/2009 06:20       7.0   3.0   9.0   7.0  76  1021   ---     S     5     5   ---   --- /
22/02/2009 07:20       6.0   2.0   8.0   3.5  75  1021   ---     S     6     6   ---   0.8 Few Clouds/
22/02/2009 08:20       7.0   4.0   9.4   1.7  81  1021   ---     S    10    10   ---   0.8 Few Clouds/
22/02/2009 09:20      10.0   5.0  11.7   7.9  71  1021   ---     S     6     6   ---   0.8 Few Clouds/
22/02/2009 10:20      11.0   6.0  12.7  11.0  71  1021   ---     N     3     3   ---   0.8 Few Clouds/
22/02/2009 10:20      11.0   6.0  12.7  11.0  71  1021   ---   ---     3     3   ---   0.8 Few Clouds/None reported
22/02/2009 11:50      12.0   6.0  13.4  10.1  67  1021   ---     W     6     6   ---   0.8 Few Clouds/
22/02/2009 13:20      12.0   7.0  13.7   6.2  71  1020   ---   WNW    13    13   ---   0.8 Few Clouds/
22/02/2009 14:20      12.0   5.0  13.1   7.7  62  1019   ---     W    10    10   ---   0.8 Few Clouds/
22/02/2009 15:20      11.0   6.0  12.7   4.9  71  1019   ---   WSW    13    13   ---   0.6 Scattered Clouds/
22/02/2009 16:20      11.0   6.0  12.7  11.0  71  1019   ---     N     3     3   ---   0.7 Broken Clouds/
22/02/2009 17:20      12.0   6.0  13.4   5.3  67  1018   ---   WNW    14    14   ---   0.7 Scattered Clouds/
22/02/2009 18:20      10.0   6.0  12.1  -1.4  76  1018   ---    NW    27    27   ---   --- Overcast/ Light Rain
22/02/2009 19:20      10.0   7.0  12.5   1.8  82  1018   ---   WNW    16    16   ---   --- Overcast/ Light Rain
22/02/2009 20:20      11.0   7.0  13.1  -0.1  76  1018   ---    NW    29    29   ---   0.6 Broken Clouds/
22/02/2009 21:20      11.0   6.0  12.7   1.1  71  1018   ---    NW    23    23   ---   0.5 Scattered Clouds/
22/02/2009 22:20      11.0   7.0  13.1   1.5  76  1017   ---   NNW    21    21   ---   0.7 Few Clouds/
22/02/2009 23:20      11.0   7.0  13.1   2.7  76  1017   ---   NNW    18    18   ---   0.7 Scattered Clouds/
23/02/2009 00:50      12.0   8.0  14.1   3.0  77  1016   ---    NW    21    21   ---   0.7 Scattered Clouds/
23/02/2009 01:20      11.0   8.0  13.5   2.7  82  1016   ---   WNW    18    18   ---   0.7 Scattered Clouds/
23/02/2009 02:20      11.0   8.0  13.5   4.0  82  1016   ---    NW    14    14   ---   0.7 Few Clouds/
23/02/2009 03:20      11.0   8.0  13.5   0.1  82  1015   ---   WNW    27    27   ---   0.7 Few Clouds/
23/02/2009 04:20      11.0   7.0  13.1   1.5  76  1014   ---   WNW    21    21   ---   0.7 Few Clouds/
23/02/2009 05:20      10.0   7.0  12.5   1.8  82  1014   ---   ENE    16    16   ---   0.8 Broken Clouds/
23/02/2009 06:20       9.0   6.0  11.5   9.0  81  1014   ---     N     2     2   ---   0.8 Broken Clouds/
23/02/2009 07:20       9.0   6.0  11.5   9.0  81  1014   ---     N     5     5   ---   0.8 Broken Clouds/
23/02/2009 08:20       9.0   7.0  11.9   6.8  87  1014   ---     S     6     6   ---   0.8 Broken Clouds/
23/02/2009 09:20      10.0   8.0  12.9   7.9  87  1014   ---    SE     6     6   ---   0.8 Broken Clouds/
23/02/2009 10:20      11.0   7.0  13.1  11.0  76  1014   ---     N     3     3   ---   0.8 Few Clouds/
23/02/2009 11:20      12.0   7.0  13.7   6.2  71  1014   ---   NNE    13    13   ---   0.8 Few Clouds/
23/02/2009 12:20      12.0   7.0  13.7   6.2  71  1014   ---   NNE    13    13   ---   0.8 Few Clouds/
23/02/2009 13:20      12.0   7.0  13.7   6.2  71  1013   ---   NNE    13    13   ---   0.8 Few Clouds/
23/02/2009 13:50      13.0   7.0  14.4   6.6  67  1012   ---   NNE    14    14   ---   0.8 Few Clouds/
23/02/2009 15:20      13.0   5.0  13.9   4.4  58  1011   ---   ENE    21    21   ---   0.8 Few Clouds/
23/02/2009 17:20      12.0   5.0  13.1   6.2  62  1010   ---   ENE    13    13   ---   0.8 Few Clouds/
23/02/2009 18:20      11.0   5.0  12.4   9.0  66  1010   ---   ESE     6     6   ---   0.8 Few Clouds/
23/02/2009 18:20      11.0   5.0  12.4   9.0  66  1010   ---   ESE     6     6   ---   0.8 Few Clouds/None reported
23/02/2009 19:20      11.0   6.0  12.7   4.0  71  1011   ---     S    14    14   ---   0.8 Few Clouds/
23/02/2009 20:20      10.0   5.0  11.7   5.3  71  1011   ---     S    10    10   ---   0.8 Few Clouds/
23/02/2009 21:20      10.0   6.0  12.1   3.6  76  1010   ---    SW    13    13   ---   0.8 Scattered Clouds/
23/02/2009 22:20      10.0   6.0  12.1   5.3  76  1011   ---    SW    10    10   ---   0.8 Scattered Clouds/
23/02/2009 23:20      10.0   6.0  12.1   6.2  76  1010   ---    SW     8     8   ---   0.8 Scattered Clouds/
24/02/2009 00:50       9.0   5.0  11.1   9.0  76  1010   ---     N     0     0   ---   0.8 Scattered Clouds/
24/02/2009 01:20      10.0   6.0  12.1  10.0  76  1009   ---   ---     2     2   ---   0.8 Scattered Clouds/
24/02/2009 02:20       8.0   5.0  10.5   5.7  81  1009   ---   SSW     6     6   ---   0.8 Scattered Clouds/
24/02/2009 03:20       9.0   4.0  10.7   6.8  71  1008   ---     E     6     6   ---   0.8 Scattered Clouds/
24/02/2009 04:20       9.0   4.0  10.7   9.0  71  1008   ---     N     5     5   ---   0.8 Scattered Clouds/
24/02/2009 05:20       9.0   4.0  10.7   1.4  71  1008   ---     E    14    14   ---   0.8 Scattered Clouds/
24/02/2009 06:20       9.0   4.0  10.7   5.0  71  1008   ---   ENE     8     8   ---   0.8 Few Clouds/
24/02/2009 07:20       8.0   3.0   9.7   2.9  71  1009   ---   ENE    10    10   ---   1.0 Few Clouds/
24/02/2009 08:20       9.0   4.0  10.7   9.0  71  1009   ---     N     5     5   ---   1.0 Few Clouds/
24/02/2009 08:50      10.0   5.0  11.7   6.2  71  1009   ---   ENE     8     8   ---   1.0 Few Clouds/
24/02/2009 10:20      11.0   5.0  12.4   3.1  66  1010   ---    NE    16    16   ---   1.0 Few Clouds/
24/02/2009 11:20      12.0   5.0  13.1   4.1  62  1010   ---    NE    18    18   ---   1.0 Few Clouds/
24/02/2009 12:20      12.0   6.0  13.4   3.3  67  1010   ---    NE    19    19   ---   1.0 Few Clouds/
24/02/2009 13:20      12.0   5.0  13.1   4.5  62  1010   ---   NNE    16    16   ---   1.0 Few Clouds/
24/02/2009 14:20      12.0   6.0  13.4   4.5  67  1010   ---    NE    16    16   ---   1.0 Few Clouds/
24/02/2009 15:20      12.0   6.0  13.4   6.2  67  1010   ---    NE    13    13   ---   1.0 Few Clouds/
24/02/2009 16:20      12.0   5.0  13.1   8.5  62  1011   ---     N     8     8   ---   1.0 Few Clouds/
24/02/2009 17:20      12.0   5.0  13.1  10.1  62  1011   ---     N     6     6   ---   1.0 Few Clouds/
24/02/2009 18:20      11.0   4.0  12.1  11.0  62  1012   ---     N     3     3   ---   1.0 Few Clouds/
24/02/2009 19:20      10.0   5.0  11.7  10.0  71  1012   ---     N     5     5   ---   1.0 Few Clouds/
24/02/2009 20:20       9.0   5.0  11.1   6.8  76  1013   ---   SSE     6     6   ---   1.0 Few Clouds/
24/02/2009 21:20       9.0   5.0  11.1   4.1  76  1013   ---   SSE    10    10   ---   0.7 Few Clouds/
24/02/2009 22:20       8.0   4.0  10.0   8.0  76  1014   ---   SSW     5     5   ---   0.7 Scattered Clouds/
24/02/2009 23:20       7.0   4.0   9.4   2.7  81  1014   ---     S     8     8   ---   0.7 Scattered Clouds/
25/02/2009 00:50       8.0   4.0  10.0   2.9  76  1014   ---   SSW    10    10   ---   0.7 Scattered Clouds/
25/02/2009 01:20       8.0   4.0  10.0   5.7  76  1015   ---     S     6     6   ---   0.7 Scattered Clouds/
25/02/2009 02:20       8.0   4.0  10.0   5.7  76  1015   ---     S     6     6   ---   0.7 Scattered Clouds/
25/02/2009 03:20       8.0   4.0  10.0   0.0  76  1015   ---     S    14    14   ---   0.7 Scattered Clouds/
25/02/2009 04:20       8.0   5.0  10.5   3.8  81  1014   ---     S     8     8   ---   0.7 Scattered Clouds/
25/02/2009 05:20       8.0   4.0  10.0   2.9  76  1015   ---     S    10    10   ---   0.7 Scattered Clouds/
25/02/2009 06:20       8.0   4.0  10.0   3.8  76  1015   ---     S     8     8   ---   0.7 Scattered Clouds/
25/02/2009 07:20       9.0   6.0  11.5   6.8  81  1015   ---     E     6     6   ---   0.7 Scattered Clouds/
25/02/2009 08:20      10.0   6.0  12.1  10.0  76  1016   ---     E     5     5   ---   0.7 Scattered Clouds/
25/02/2009 09:20      10.0   7.0  12.5   1.4  82  1017   ---   WNW    18    18   ---   --- / Drizzle
25/02/2009 10:20       8.0   7.0  11.4   1.0  93  1018   ---     S    13    13   ---   0.4 Overcast/
25/02/2009 11:20       8.0   7.0  11.4   5.7  93  1018   ---   ESE     6     6   ---   --- Overcast/ Rain
25/02/2009 12:20       8.0   7.0  11.4   1.0  93  1019   ---    NE    13    13   ---   --- Overcast/ Rain
25/02/2009 13:20       8.0   6.0  10.9   1.0  87  1019   ---   ENE    13    13   ---   --- Overcast/ Light Rain
25/02/2009 14:20       8.0   7.0  11.4  -1.4  93  1019   ---   ENE    18    18   ---   --- Overcast/ Rain
25/02/2009 15:20       8.0   6.0  10.9  -5.0  87  1019   ---   ENE    31    31   ---   --- Overcast/ Rain
25/02/2009 16:20       8.0   5.0  10.5  -4.4  81  1019   ---     E    27    27   ---   --- Overcast/ Light Rain
25/02/2009 17:20       9.0   3.0  10.4  -3.1  66  1019   ---     E    29    29   ---   0.7 Scattered Clouds/
25/02/2009 18:20       9.0   4.0  10.7  -0.0  71  1020   ---   ENE    18    18   ---   0.7 Scattered Clouds/
25/02/2009 19:20       9.0   5.0  11.1   0.4  76  1021   ---    NE    16    16   ---   0.7 Scattered Clouds/
25/02/2009 20:20       9.0   5.0  11.1   1.4  76  1021   ---   ENE    14    14   ---   0.7 Scattered Clouds/
25/02/2009 21:20      12.0   5.0  13.1   0.3  62  1022   ---   NNE    37    37   ---   0.7 Scattered Clouds/
25/02/2009 22:20      11.0   4.0  12.1  -1.5  62  1022   ---    NE    40    40   ---   0.7 Scattered Clouds/
25/02/2009 23:20      11.0   3.0  11.9  -0.4  58  1023   ---    NE    31    31   ---   0.7 Scattered Clouds/
26/02/2009 00:50      11.0   3.0  11.9  -0.4  58  1023   ---    NE    31    31   ---   0.7 Scattered Clouds/
26/02/2009 01:20      11.0   3.0  11.9  -0.1  58  1023   ---    NE    29    29   ---   0.7 Scattered Clouds/
26/02/2009 02:20      10.0   3.0  11.1  -1.6  62  1023   ---    NE    29    29   ---   0.7 Scattered Clouds/
26/02/2009 03:20      10.0   3.0  11.1  -1.1  62  1023   ---    NE    26    26   ---   0.7 Scattered Clouds/
26/02/2009 04:20      10.0   3.0  11.1  -1.1  62  1024   ---    NE    26    26   ---   0.7 Scattered Clouds/
26/02/2009 05:20       9.0   3.0  10.4  -0.9  66  1023   ---    NE    19    19   ---   0.7 Scattered Clouds/
26/02/2009 07:20      11.0   3.0  11.9   2.7  58  1024   ---   NNE    18    18   ---   0.7 Scattered Clouds/
26/02/2009 08:20      11.0   3.0  11.9   2.7  58  1024   ---   NNE    18    18   ---   0.7 Scattered Clouds/
26/02/2009 09:20      11.0   3.0  11.9   2.7  58  1025   ---    NE    18    18   ---   0.7 Scattered Clouds/
26/02/2009 10:20      12.0   4.0  12.9   5.3  58  1025   ---    NE    14    14   ---   0.7 Scattered Clouds/
26/02/2009 11:20      11.0   3.0  11.9   3.1  58  1025   ---    NE    16    16   ---   0.7 Scattered Clouds/
26/02/2009 12:20      12.0   3.0  12.7   6.2  54  1025   ---   NNE    13    13   ---   0.7 Scattered Clouds/
26/02/2009 13:20      12.0   4.0  12.9   8.5  58  1025   ---     N     8     8   ---   0.7 Broken Clouds/
26/02/2009 14:20      12.0   4.0  12.9   8.5  58  1024   ---     N     8     8   ---   0.7 Scattered Clouds/
26/02/2009 15:20      12.0   3.0  12.7  12.0  54  1024   ---     N     5     5   ---   0.7 Few Clouds/
26/02/2009 16:20      12.0   5.0  13.1   3.0  62  1023   ---    NW    21    21   ---   0.7 Broken Clouds/
26/02/2009 17:20      11.0   5.0  12.4   1.1  66  1024   ---    NW    23    23   ---   0.7 Scattered Clouds/
26/02/2009 17:20      11.0   5.0  12.4   1.1  66  1024   ---    NW    23    23   ---   0.7 Scattered Clouds/None reported
26/02/2009 18:20      12.0   5.0  13.1   3.3  62  1024   ---    NW    19    19   ---   0.7 Broken Clouds/
26/02/2009 19:20      12.0   4.0  12.9   3.0  58  1024   ---   NNW    21    21   ---   0.7 Broken Clouds/
26/02/2009 20:20      12.0   4.0  12.9   5.3  58  1023   ---   NNW    14    14   ---   0.7 Scattered Clouds/
26/02/2009 21:20      12.0   5.0  13.1   5.3  62  1023   ---   NNW    14    14   ---   0.7 Scattered Clouds/
26/02/2009 22:20      12.0   6.0  13.4   2.6  67  1023   ---    NW    23    23   ---   0.7 Scattered Clouds/
26/02/2009 23:20      12.0   5.0  13.1   2.6  62  1023   ---   WNW    23    23   ---   0.7 Scattered Clouds/
27/02/2009 00:50      12.0   5.0  13.1   4.1  62  1023   ---   WNW    18    18   ---   0.7 Scattered Clouds/
27/02/2009 01:20      12.0   4.0  12.9   4.1  58  1022   ---   WNW    18    18   ---   0.7 Scattered Clouds/
27/02/2009 02:20      12.0   5.0  13.1   4.1  62  1021   ---     W    18    18   ---   0.7 Scattered Clouds/
27/02/2009 03:20       9.0   4.0  10.7   1.4  71  1021   ---     S    14    14   ---   0.7 Scattered Clouds/
27/02/2009 04:20       8.0   4.0  10.0   5.7  76  1020   ---     S     6     6   ---   0.7 Scattered Clouds/
27/02/2009 05:20       8.0   4.0  10.0   0.0  76  1020   ---     S    14    14   ---   0.7 Scattered Clouds/
27/02/2009 06:20       8.0   4.0  10.0  -0.9  76  1019   ---   SSE    16    16   ---   0.7 Scattered Clouds/
27/02/2009 07:20       8.0   4.0  10.0   1.0  76  1019   ---     S    13    13   ---   0.7 Scattered Clouds/
27/02/2009 08:20      10.0   5.0  11.7   1.8  71  1019   ---     S    16    16   ---   0.9 Few Clouds/
27/02/2009 09:20      12.0   6.0  13.4   4.1  67  1019   ---   SSW    18    18   ---   0.9 Few Clouds/
27/02/2009 09:50      12.0   6.0  13.4   3.3  67  1019   ---     S    19    19   ---   0.7 Broken Clouds/
27/02/2009 11:20      12.0   7.0  13.7   5.3  71  1019   ---    SW    14    14   ---   0.7 Broken Clouds/
27/02/2009 12:20      13.0   7.0  14.4   4.4  67  1019   ---     W    21    21   ---   0.7 Scattered Clouds/
27/02/2009 13:20      13.0   8.0  14.8   5.5  72  1019   ---     W    18    18   ---   0.9 Scattered Clouds/
27/02/2009 14:20      13.0   8.0  14.8   3.1  72  1018   ---     W    27    27   ---   0.9 Scattered Clouds/
27/02/2009 15:20      13.0   9.0  15.1   4.4  77  1017   ---     W    21    21   ---   0.9 Scattered Clouds/
27/02/2009 16:20      13.0   9.0  15.1   4.0  77  1017   ---     W    23    23   ---   0.9 Scattered Clouds/
27/02/2009 17:20      13.0   9.0  15.1   3.1  77  1017   ---     W    27    27   ---   0.9 Scattered Clouds/
27/02/2009 18:20      13.0   9.0  15.1   5.5  77  1017   ---     W    18    18   ---   0.7 Broken Clouds/
27/02/2009 19:20      13.0  10.0  15.5   4.4  82  1017   ---     W    21    21   ---   0.7 Broken Clouds/
27/02/2009 20:20      13.0  10.0  15.5   5.8  82  1018   ---     W    16    16   ---   0.7 Broken Clouds/
27/02/2009 21:20      13.0  10.0  15.5   5.8  82  1018   ---     W    16    16   ---   0.7 Broken Clouds/
27/02/2009 22:20      11.0   9.0  13.9   7.3  87  1018   ---     S     8     8   ---   0.7 Broken Clouds/
27/02/2009 23:20      11.0   9.0  13.9   6.5  87  1018   ---     S    10    10   ---   0.7 Broken Clouds/
28/02/2009 00:50      12.0   9.0  14.5  10.1  82  1019   ---   SSE     6     6   ---   0.8 Scattered Clouds/
28/02/2009 01:20      12.0   9.0  14.5  12.0  82  1019   ---     N     5     5   ---   0.8 Scattered Clouds/
28/02/2009 02:20      11.0   8.0  13.5  11.0  82  1019   ---     N     5     5   ---   0.8 Few Clouds/
28/02/2009 03:20      10.0   8.0  12.9  10.0  87  1019   ---     N     2     2   ---   0.8 Few Clouds/
28/02/2009 04:20       9.0   7.0  11.9   9.0  87  1019   ---     N     5     5   ---   0.8 Few Clouds/
28/02/2009 05:20      10.0   8.0  12.9  10.0  87  1019   ---     N     3     3   ---   0.8 Few Clouds/
28/02/2009 06:20       9.0   6.0  11.5   9.0  81  1019   ---     N     5     5   ---   0.8 Scattered Clouds/
28/02/2009 07:20       9.0   7.0  11.9   6.8  87  1020   ---     S     6     6   ---   0.8 Few Clouds/
28/02/2009 08:20      10.0   8.0  12.9  10.0  87  1020   ---     N     5     5   ---   --- /
28/02/2009 09:20      12.0  10.0  14.9  12.0  88  1021   ---     N     2     2   ---   --- /
28/02/2009 10:20      13.0   9.0  15.1  13.0  77  1021   ---     N     5     5   ---   --- /
28/02/2009 11:20      14.0  10.0  16.1  12.3  77  1021   ---     N     6     6   ---   --- /
28/02/2009 12:20      14.0  11.0  16.5  10.8  82  1021   ---   NNE     8     8   ---   --- /
28/02/2009 13:20      15.0   9.0  16.5   8.6  67  1021   ---    NE    16    16   ---   --- /
28/02/2009 14:20      15.0   9.0  16.5   8.2  67  1020   ---   ENE    18    18   ---   --- /
28/02/2009 15:20      15.0  10.0  16.8   7.6  72  1020   ---   ENE    19    19   ---   --- /
28/02/2009 16:20      15.0  10.0  16.8   6.9  72  1020   ---   ENE    23    23   ---   --- /
28/02/2009 17:20      15.0  10.0  16.8  13.3  72  1019   ---     E     6     6   ---   --- /
28/02/2009 18:20      14.0  10.0  16.1  14.0  77  1019   ---     N     3     3   ---   --- /
28/02/2009 19:20      13.0  10.0  15.5   7.4  82  1020   ---     S    13    13   ---   --- /
28/02/2009 20:20      12.0   9.0  14.5   7.7  82  1020   ---   SSW    10    10   ---   --- /
28/02/2009 21:20      12.0   8.0  14.1  12.0  77  1020   ---     N     5     5   ---   --- /
28/02/2009 22:20      12.0   7.0  13.7   5.3  71  1020   ---    SW    14    14   ---   --- /
28/02/2009 23:20      12.0   7.0  13.7  12.0  71  1020   ---     N     3     3   ---   --- /
01/03/2009 00:20      11.0   8.0  13.5  11.0  82  1020   ---     N     5     5   ---   --- /
01/03/2009 01:20      12.0   8.0  14.1  10.1  77  1020   ---   ESE     6     6   ---   --- /
01/03/2009 02:20      12.0   9.0  14.5   4.5  82  1020   ---   ENE    16    16   ---   --- /
01/03/2009 03:20      12.0   9.0  14.5   3.3  82  1019   ---   ENE    19    19   ---   --- /
01/03/2009 04:20      13.0   8.0  14.8   3.1  72  1019   ---   SSW    27    27   ---   --- /
01/03/2009 05:20      14.0   6.0  14.9   4.1  59  1019   ---   SSW    31    31   ---   0.7 Few Clouds/
01/03/2009 06:20      15.0   6.0  15.7  12.0  55  1016   ---     E     8    29   ---   0.8 Scattered Clouds/
01/03/2009 07:20      14.0   8.0  15.5   8.7  67  1017   ---     W    13    13   ---   --- /
01/03/2009 07:50      14.0   7.0  15.2   8.7  63  1017   ---     S    13    13   ---   --- /
01/03/2009 09:20      15.0   7.0  15.9   9.3  59  1017   ---   WSW    14    14   ---   --- /
01/03/2009 10:20      16.0   8.0  16.9   7.2  59  1017   ---    SW    31    31   ---   --- /
01/03/2009 11:20      17.0   8.0  17.7   9.8  55  1017   ---     S    23    56   ---   --- /
01/03/2009 11:50      18.0   9.0  18.8  10.4  56  1017   ---     S    29    29   ---   --- /
01/03/2009 13:20      18.0   9.0  18.8  10.8  56  1016   ---     S    26    43   ---   --- /
01/03/2009 14:20      19.0   9.0  19.6  12.0  52  1015   ---     S    27    47   ---   --- /
01/03/2009 15:20      18.0   9.0  18.8   9.4  56  1015   ---   SSW    42    42   ---   --- /
01/03/2009 16:20      17.0  10.0  18.2   8.1  63  1015   ---   SSW    37    37   ---   --- /
01/03/2009 17:20      17.0   9.0  18.0   9.1  59  1015   ---   SSW    27    27   ---   --- /
01/03/2009 18:20      16.0  10.0  17.5   7.8  68  1016   ---   SSW    26    26   ---   --- /
01/03/2009 19:20      15.0  10.0  16.8   9.3  72  1016   ---   SSW    14    14   ---   1.8 Scattered Clouds/
01/03/2009 20:20      15.0  10.0  16.8   7.6  72  1016   ---    SW    19    19   ---   1.8 Scattered Clouds/
01/03/2009 21:20      14.0  10.0  16.1   6.9  77  1017   ---    SW    18    18   ---   --- /
01/03/2009 22:20      13.0  10.0  15.5   5.8  82  1017   ---    SW    16    16   ---   --- /
01/03/2009 23:20      13.0   9.0  15.1   9.7  77  1017   ---   SSW     8     8   ---   --- /
02/03/2009 00:50      14.0   9.0  15.8   8.7  72  1017   ---   SSW    13    13   ---   --- /
02/03/2009 01:20      14.0   9.0  15.8   6.9  72  1017   ---   SSW    18    18   ---   --- /
02/03/2009 02:20      14.0   8.0  15.5   5.8  67  1017   ---   SSW    21    21   ---   --- /
02/03/2009 03:20      14.0  10.0  16.1   5.5  77  1016   ---     S    23    23   ---   --- Overcast/ Light Rain
02/03/2009 04:20      14.0   9.0  15.8   5.8  72  1016   ---   SSW    21    21   ---   0.9 Scattered Clouds/
02/03/2009 05:20      14.0   9.0  15.8   7.2  72  1017   ---   SSW    16    16   ---   0.9 Scattered Clouds/
02/03/2009 06:20      14.0  10.0  16.1   5.5  77  1016   ---   SSW    23    23   ---   1.0 Scattered Clouds/
02/03/2009 07:20      14.0  10.0  16.1   6.2  77  1017   ---   SSW    19    19   ---   1.0 Few Clouds/
02/03/2009 08:20      15.0  10.0  16.8  10.0  72  1018   ---    SW    13    13   ---   1.0 Few Clouds/
02/03/2009 09:20      15.0  11.0  17.1   8.6  77  1018   ---   WSW    16    16   ---   1.0 Scattered Clouds/
02/03/2009 10:20      15.0  12.0  17.5   8.2  82  1018   ---   WSW    18    18   ---   1.0 Scattered Clouds/
02/03/2009 11:20      15.0  12.0  17.5   9.3  82  1018   ---   WNW    14    14   ---   1.0 Scattered Clouds/
02/03/2009 12:20      15.0  12.0  17.5  12.0  82  1018   ---   WNW     8     8   ---   1.0 Few Clouds/
02/03/2009 13:20      15.0  12.0  17.5   9.3  82  1018   ---     W    14    14   ---   1.0 Few Clouds/
02/03/2009 14:20      15.0  12.0  17.5   6.9  82  1018   ---   WNW    23    23   ---   1.0 Few Clouds/
02/03/2009 14:50      15.0  12.0  17.5   6.4  82  1018   ---   WNW    26    26   ---   0.6 Few Clouds/
02/03/2009 16:20      15.0  13.0  18.0   7.3  88  1018   ---     W    21    21   ---   0.4 Few Clouds/
02/03/2009 17:20      14.0  12.0  17.0   4.9  88  1018   ---   WNW    26    26   ---   0.5 Few Clouds/
02/03/2009 18:20      14.0  12.0  17.0   6.9  88  1018   ---   WNW    18    18   ---   0.6 Few Clouds/
02/03/2009 19:20      14.0  12.0  17.0  14.0  88  1018   ---     N     5     5   ---   0.6 Few Clouds/
02/03/2009 20:20      13.0  11.0  15.9  13.0  88  1018   ---     N     3     3   ---   0.7 Few Clouds/
02/03/2009 21:20      13.0  11.0  15.9  11.2  88  1018   ---     E     6     6   ---   0.7 Few Clouds/
02/03/2009 22:20      12.0  10.0  14.9   8.5  88  1019   ---     E     8     8   ---   0.7 Few Clouds/
02/03/2009 23:20      12.0  10.0  14.9  12.0  88  1019   ---    SE     3     3   ---   0.7 Few Clouds/
03/03/2009 00:50      11.0   9.0  13.9  11.0  87  1018   ---     S     3     3   ---   0.7 Few Clouds/
03/03/2009 01:20      11.0   8.0  13.5  11.0  82  1018   ---   SSW     3     3   ---   0.7 Few Clouds/
03/03/2009 02:20      11.0   8.0  13.5  11.0  82  1018   ---    SW     3     3   ---   0.7 Few Clouds/
03/03/2009 03:20      11.0  10.0  14.4   9.0  94  1017   ---   ENE     6     6   ---   0.7 Few Clouds/
03/03/2009 04:20      10.0   8.0  12.9   3.6  87  1017   ---   SSW    13    13   ---   0.7 Few Clouds/
03/03/2009 05:20      10.0   8.0  12.9   6.2  87  1017   ---    SW     8     8   ---   0.7 Few Clouds/
03/03/2009 06:20      11.0   9.0  13.9   6.5  87  1017   ---    SW    10    10   ---   0.7 Few Clouds/
03/03/2009 06:50      11.0   9.0  13.9   7.3  87  1017   ---    SW     8     8   ---   0.7 Few Clouds/
03/03/2009 07:50      11.0   9.0  13.9   3.1  87  1018   ---   SSW    16    16   ---   --- /
03/03/2009 08:50      12.0  10.0  14.9  10.1  88  1018   ---   WSW     6     6   ---   --- /
03/03/2009 09:50      14.0  10.0  16.1  14.0  77  1018   ---     N     5     5   ---   --- /
03/03/2009 10:50      15.0  11.0  17.1  13.3  77  1018   ---    NE     6     6   ---   --- /
03/03/2009 11:50      15.0  11.0  17.1   9.3  77  1018   ---   NNE    14    14   ---   --- /
03/03/2009 12:50      15.0  11.0  17.1   9.3  77  1017   ---   NNE    14    14   ---   --- /
03/03/2009 14:20      15.0  11.0  17.1   8.6  77  1016   ---    NE    16    16   ---   --- /
03/03/2009 15:20      16.0  12.0  18.1   9.6  77  1016   ---   ENE    18    18   ---   --- /
03/03/2009 16:20      16.0  12.0  18.1  14.4  77  1015   ---    NE     6     6   ---   1.0 Few Clouds/
03/03/2009 17:20      15.0  13.0  18.0  12.0  88  1015   ---   NNE     8     8   ---   --- /
03/03/2009 17:50      15.0  13.0  18.0  15.0  88  1015   ---     N     5     5   ---   --- /
03/03/2009 19:20      14.0  12.0  17.0  12.3  88  1015   ---    NE     6     6   ---   0.9 Few Clouds/
03/03/2009 20:20      13.0  11.0  15.9   9.7  88  1014   ---   ENE     8     8   ---   0.9 Few Clouds/
03/03/2009 20:50      14.0  12.0  17.0  10.8  88  1015   ---    NE     8     8   ---   0.9 Few Clouds/
03/03/2009 21:50      14.0  12.0  17.0  10.8  88  1014   ---   NNE     8     8   ---   0.9 Few Clouds/
03/03/2009 22:50      14.0  12.0  17.0  14.0  88  1014   ---     N     5     5   ---   0.9 Few Clouds/
04/03/2009 00:50      17.0   9.0  18.0  10.1  59  1012   ---     S    21    21   ---   0.9 Few Clouds/
04/03/2009 01:50      15.0   9.0  16.5   8.6  67  1012   ---   SSW    16    16   ---   0.9 Few Clouds/
04/03/2009 02:50      17.0   8.0  17.7   8.4  55  1011   ---     S    34    34   ---   0.9 Few Clouds/
04/03/2009 03:50      17.0   8.0  17.7   8.7  55  1010   ---     S    31    31   ---   0.9 Few Clouds/
04/03/2009 04:50      17.0   8.0  17.7  10.1  55  1009   ---     S    21    21   ---   0.9 Few Clouds/
04/03/2009 05:50      16.0   8.0  16.9   7.0  59  1008   ---   SSW    32    51   ---   0.9 Few Clouds/
04/03/2009 08:20      16.0   9.0  17.2   8.7  63  1007   ---    SW    21    21   ---   --- /
04/03/2009 08:50      18.0   6.0  18.2  11.8  45  1007   ---     S    19    19   ---   --- /
04/03/2009 10:20      21.0   4.0  20.7  14.5  33  1006   ---     S    34    58   ---   --- /
04/03/2009 11:20      22.0   6.0  21.8  15.7  35  1004   ---     S    40    64   ---   --- /
04/03/2009 12:20      21.0   4.0  20.7  13.7  33  1003   ---     S    56    74   ---   --- /
04/03/2009 13:20      22.0   5.0  21.7  15.7  33  1002   ---     S    42    63   ---   --- /
04/03/2009 14:20      22.0   5.0  21.7  15.5  33   999   ---     S    45    68   ---   --- /
04/03/2009 15:20      22.0   7.0  21.9  18.5  38   996   ---   SSW    14    14   ---   --- /
04/03/2009 16:20      22.0   6.0  21.8  16.7  35   994   ---     S    26    47   ---   --- /
04/03/2009 16:50      22.0   7.0  21.9  15.3  38   993   ---     S    50    76   ---   --- /
04/03/2009 18:20      22.0   8.0  22.0  15.3  41   991   ---     S    55    79   ---   1.0 Scattered Clouds/
04/03/2009 19:20      20.0  10.0  20.6  12.4  53   990   ---     S    43    66   ---   0.6 Broken Clouds/
04/03/2009 20:20      19.0  12.0  20.2  10.5  64   989   ---     S    60    97   ---   --- Overcast/ Rain
04/03/2009 21:20      20.0  10.0  20.6  12.1  53   988   ---     S    51    90   ---   --- / Mist
04/03/2009 21:20      20.0  10.0  20.6  12.1  53   988   ---     S    51    90   ---   --- None reported/ Mist
04/03/2009 22:20      18.0  12.0  19.5  18.0  68   988   ---   ENE     5     5   ---   0.7 Overcast/ Rain Mist
04/03/2009 23:20      15.0  10.0  16.8   4.9  72   990   ---   SSW    39    58   ---   0.7 Scattered Clouds/
05/03/2009 00:50      14.0  11.0  16.5   3.1  82   989   ---    SW    42    42   ---   0.7 Scattered Clouds/
05/03/2009 01:20      14.0  11.0  16.5   2.9  82   989   ---    SW    43    43   ---   0.7 Scattered Clouds/
05/03/2009 02:20      13.0  11.0  15.9   1.5  88   989   ---    SW    42    42   ---   --- Overcast/ Light Rain
05/03/2009 03:20      13.0  10.0  15.5   1.6  82   990   ---    SW    40    58   ---   0.6 Broken Clouds/
05/03/2009 04:20      13.0  10.0  15.5   1.6  82   989   ---   SSW    40    40   ---   0.8 Scattered Clouds/
05/03/2009 05:20      13.0  10.0  15.5   0.8  82   988   ---    SW    55    55   ---   --- Overcast/ Light Rain
05/03/2009 06:20      13.0  10.0  15.5   0.8  82   988   ---    SW    51    51   ---   0.8 Scattered Clouds/
05/03/2009 07:20      13.0   9.0  15.1   1.5  77   989   ---   SSW    42    42   ---   0.8 Broken Clouds/
05/03/2009 08:20      13.0   9.0  15.1   0.8  77   989   ---     S    51    74   ---   0.6 Broken Clouds/
05/03/2009 09:20      12.0   9.0  14.5  -0.8  82   990   ---    SW    51    51   ---   --- Overcast/ Light Rain
05/03/2009 09:50      12.0   9.0  14.5  -0.8  82   990   ---    SW    51    51   ---   --- Overcast/ Light Rain
05/03/2009 11:20      13.0   7.0  14.4   1.2  67   991   ---   WSW    45    45   ---   0.7 Broken Clouds/
05/03/2009 13:20      12.0   6.0  13.4  -0.2  67   991   ---   WSW    43    43   ---   0.7 Scattered Clouds/
05/03/2009 14:20      13.0   7.0  14.4   1.5  67   991   ---   WSW    42    42   ---   0.6 Scattered Clouds/
05/03/2009 15:20      12.0   7.0  13.7   0.7  71   992   ---     W    34    34   ---   0.6 Scattered Clouds/
05/03/2009 16:20      11.0   6.0  12.7  -1.4  71   992   ---   WNW    39    64   ---   --- Overcast/ Rain
05/03/2009 17:20      12.0   6.0  13.4   1.1  67   993   ---   WSW    31    31   ---   0.6 Scattered Clouds/
05/03/2009 17:50      12.0   6.0  13.4   1.1  67   993   ---   WSW    31    31   ---   0.6 Scattered Clouds/
05/03/2009 19:20      11.0   4.0  12.1  -0.1  62   992   ---   SSW    29    29   ---   0.6 Scattered Clouds/
05/03/2009 20:20      11.0   4.0  12.1   1.9  62   992   ---     S    19    19   ---   0.8 Scattered Clouds/
05/03/2009 21:20      11.0   3.0  11.9   1.5  58   991   ---     S    21    21   ---   0.8 Scattered Clouds/
05/03/2009 22:20      12.0   3.0  12.7   4.5  54   991   ---   SSW    16    16   ---   0.8 Scattered Clouds/
05/03/2009 23:20      11.0   5.0  12.4   1.5  66   989   ---   SSW    21    21   ---   0.8 Scattered Clouds/
06/03/2009 00:50       9.0   4.0  10.7   0.4  71   988   ---    SE    16    16   ---   --- Overcast/ Light Rain
06/03/2009 01:20       9.0   5.0  11.1  -0.0  76   986   ---     E    18    18   ---   --- Overcast/ Light Rain
06/03/2009 02:20      10.0   6.0  12.1   5.3  76   984   ---     N    10    10   ---   --- Overcast/ Light Rain
06/03/2009 03:20      11.0   8.0  13.5   2.7  82   983   ---   WSW    18    18   ---   0.6 Broken Clouds/
06/03/2009 04:20      10.0   8.0  12.9   1.8  87   983   ---    SW    16    16   ---   0.6 Broken Clouds/
06/03/2009 05:20      10.0   8.0  12.9  -1.6  87   983   ---    SW    29    29   ---   0.6 Broken Clouds/
06/03/2009 06:20       9.0   7.0  11.9  -5.2  87   985   ---    NW    45    45   ---   0.5 Broken Clouds/
06/03/2009 07:20       9.0   6.0  11.5  -1.8  81   985   ---   WNW    23    23   ---   --- Overcast/ Light Rain
06/03/2009 08:20       9.0   7.0  11.9   6.8  87   986   ---    SW     6     6   ---   0.5 Broken Clouds/
06/03/2009 09:20      10.0   8.0  12.9   1.8  87   986   ---   SSW    16    16   ---   0.6 Broken Clouds/
06/03/2009 09:50      10.0   7.0  12.5  -3.6  82   987   ---     W    45    45   ---   0.6 Broken Clouds/
06/03/2009 11:20      11.0   7.0  13.1  -0.1  76   987   ---   WSW    29    29   ---   0.4 Broken Clouds/
06/03/2009 12:20      10.0   7.0  12.5  -1.6  82   988   ---   WSW    29    29   ---   0.4 Broken Clouds/
06/03/2009 13:20      11.0   7.0  13.1  -0.8  76   987   ---   WSW    34    34   ---   0.4 Broken Clouds/
06/03/2009 13:50      12.0   7.0  13.7  -0.1  71   987   ---     W    42    42   ---   0.4 Broken Clouds/
06/03/2009 15:20      12.0   7.0  13.7   0.3  71   987   ---   WSW    37    37   ---   0.7 Broken Clouds/
06/03/2009 16:20      11.0   5.0  12.4   0.4  66   988   ---    SW    26    26   ---   0.7 Broken Clouds/
06/03/2009 17:20      10.0   6.0  12.1   0.1  76   988   ---    SW    21    21   ---   0.7 Broken Clouds/
06/03/2009 18:20       9.0   6.0  11.5  -1.8  81   989   ---   SSW    23    23   ---   0.7 Broken Clouds/
06/03/2009 19:20       9.0   6.0  11.5  -0.9  81   989   ---     S    19    19   ---   0.7 Broken Clouds/
06/03/2009 20:20       8.0   5.0  10.5  -0.9  81   990   ---     S    16    16   ---   0.7 Broken Clouds/
06/03/2009 21:20       8.0   5.0  10.5   0.0  81   991   ---     S    14    14   ---   0.7 Scattered Clouds/
06/03/2009 22:20       7.0   5.0   9.9  -1.3  87   991   ---     S    14    14   ---   0.7 Scattered Clouds/
06/03/2009 23:20       7.0   5.0   9.9  -0.2  87   992   ---     S    13    13   ---   0.7 Scattered Clouds/
07/03/2009 00:50       9.0   6.0  11.5  -1.3  81   992   ---     S    21    21   ---   --- Overcast/ Rain
07/03/2009 01:20       9.0   7.0  11.9  -0.0  87   993   ---     N    18    18   ---   --- Overcast/ Light Rain
07/03/2009 02:20       9.0   7.0  11.9   1.4  87   993   ---    SE    14    14   ---   --- Overcast/ Rain
07/03/2009 03:20       9.0   7.0  11.9   1.4  87   993   ---     S    14    14   ---   --- Overcast/ Light Rain
07/03/2009 04:20      13.0   9.0  15.1   1.4  77   993   ---    NW    43    43   ---   0.6 Broken Clouds/
07/03/2009 05:20      13.0   8.0  14.8   1.6  72   994   ---    NW    40    40   ---   0.6 Broken Clouds/
07/03/2009 06:20      13.0   8.0  14.8   1.6  72   994   ---   WNW    40    40   ---   0.6 Scattered Clouds/
07/03/2009 07:20      12.0   8.0  14.1   0.0  77   995   ---   WNW    40    40   ---   --- Overcast/ Rain
07/03/2009 08:20      13.0   8.0  14.8   1.8  72   995   ---   WNW    39    39   ---   0.6 Broken Clouds/
07/03/2009 08:50      13.0   9.0  15.1   1.6  77   996   ---   WNW    40    40   ---   0.6 Broken Clouds/
07/03/2009 09:50      13.0   9.0  15.1   1.8  77   997   ---    NW    37    37   ---   0.6 Broken Clouds/
07/03/2009 11:20      12.0   8.0  14.1   0.8  77   997   ---   WNW    32    32   ---   0.6 Broken Clouds/
07/03/2009 12:20      12.0   7.0  13.7   4.5  71   998   ---     W    16    16   ---   0.6 Broken Clouds/
07/03/2009 13:20      13.0   8.0  14.8   2.4  72   998   ---    NW    32    32   ---   0.6 Broken Clouds/
07/03/2009 14:20      13.0   9.0  15.1   2.2  77   998   ---    NW    34    34   ---   0.8 Scattered Clouds/
07/03/2009 15:20      13.0   9.0  15.1   1.8  77   999   ---    NW    37    37   ---   0.8 Broken Clouds/
07/03/2009 16:20      14.0  10.0  16.1   3.8  77  1000   ---   NNW    34    34   ---   0.7 Scattered Clouds/
07/03/2009 17:20      13.0   9.0  15.1   2.4  77  1001   ---   NNW    32    32   ---   0.7 Scattered Clouds/
07/03/2009 18:20      13.0   9.0  15.1   2.6  77  1002   ---   NNW    31    31   ---   0.8 Scattered Clouds/
07/03/2009 19:20      14.0  10.0  16.1   4.4  77  1003   ---   NNW    29    29   ---   0.8 Scattered Clouds/
07/03/2009 20:20      13.0  10.0  15.5   2.9  82  1003   ---   NNW    29    29   ---   0.8 Scattered Clouds/
07/03/2009 20:50      13.0   9.0  15.1   3.4  77  1004   ---   NNW    26    26   ---   0.8 Scattered Clouds/
07/03/2009 22:20      13.0   9.0  15.1   4.8  77  1005   ---    NW    19    19   ---   0.8 Scattered Clouds/
07/03/2009 23:20      13.0   9.0  15.1   5.5  77  1006   ---    NW    18    18   ---   0.8 Scattered Clouds/
08/03/2009 00:50      14.0  10.0  16.1   6.9  77  1006   ---    NW    18    18   ---   0.7 Scattered Clouds/
08/03/2009 01:20      14.0  11.0  16.5   5.8  82  1006   ---    NW    21    21   ---   0.7 Scattered Clouds/
08/03/2009 02:20      14.0  11.0  16.5   5.5  82  1006   ---    NW    23    23   ---   0.7 Broken Clouds/
08/03/2009 03:20      14.0  11.0  16.5   5.8  82  1006   ---    NW    21    21   ---   0.7 Broken Clouds/
08/03/2009 04:20      11.0   8.0  13.5   0.4  82  1007   ---    NE    26    26   ---   0.6 Broken Clouds/
08/03/2009 05:20      11.0   8.0  13.5   7.3  82  1007   ---     E     8     8   ---   --- Overcast/ Rain
08/03/2009 06:20      12.0   8.0  14.1   5.3  77  1008   ---    NW    14    14   ---   0.6 Broken Clouds/
08/03/2009 07:20      11.0   9.0  13.9  11.0  87  1009   ---   WSW     3     3   ---   0.9 Broken Clouds/
08/03/2009 08:20      11.0   9.0  13.9   6.5  87  1010   ---    SE    10    10   ---   0.9 Few Clouds/
08/03/2009 09:20      13.0   9.0  15.1   8.9  77  1011   ---    SW    10    10   ---   0.9 Few Clouds/
08/03/2009 10:20      13.0   9.0  15.1  11.2  77  1011   ---   WSW     6     6   ---   --- /
08/03/2009 11:20      14.0  10.0  16.1  14.0  77  1012   ---     N     5     5   ---   --- /
08/03/2009 12:20      15.0  10.0  16.8  15.0  72  1012   ---     N     5     5   ---   --- /
08/03/2009 12:20      15.0  10.0  16.8  15.0  72  1012   ---   ---     5     5   ---   --- None reported/None reported
08/03/2009 13:20      15.0  11.0  17.1  10.0  77  1013   ---     N    13    13   ---   --- /
08/03/2009 14:20      15.0  11.0  17.1  11.3  77  1013   ---     N    10    10   ---   --- /
08/03/2009 15:20      15.0  10.0  16.8  11.3  72  1013   ---     N    10    10   ---   --- /
08/03/2009 16:20      15.0  10.0  16.8  13.3  72  1013   ---     N     6     6   ---   --- /
08/03/2009 16:20      15.0  10.0  16.8  13.3  72  1013   ---     N     6     6   ---   --- None reported/None reported
08/03/2009 17:20      14.0  10.0  16.1  10.8  77  1014   ---   NNW     8     8   ---   --- /
08/03/2009 18:20      14.0   9.0  15.8  10.1  72  1015   ---   WNW    10    10   ---   --- /
08/03/2009 19:20      14.0  11.0  16.5   8.7  82  1015   ---     W    13    13   ---   --- /
08/03/2009 19:50      14.0  11.0  16.5   6.2  82  1015   ---     W    19    19   ---   0.6 Few Clouds/
08/03/2009 21:20      14.0  11.0  16.5   6.2  82  1016   ---     W    19    19   ---   0.6 Scattered Clouds/
08/03/2009 22:20      12.0  10.0  14.9   7.7  88  1016   ---     S    10    10   ---   0.6 Scattered Clouds/
08/03/2009 23:20      10.0   7.0  12.5   2.7  82  1016   ---     S    14    14   ---   0.6 Scattered Clouds/
09/03/2009 00:50      11.0   8.0  13.5   0.4  82  1016   ---    SW    26    26   ---   0.6 Few Clouds/
09/03/2009 01:20      11.0   8.0  13.5   0.4  82  1016   ---    SW    26    26   ---   0.6 Few Clouds/
09/03/2009 02:20      11.0   7.0  13.1   0.4  76  1015   ---   SSW    26    26   ---   --- /
09/03/2009 03:20      12.0   8.0  14.1   1.6  77  1015   ---   SSW    27    27   ---   --- /
09/03/2009 04:20      12.0   8.0  14.1   1.4  77  1015   ---   SSW    29    29   ---   --- /
09/03/2009 05:20      12.0   8.0  14.1   1.6  77  1015   ---   SSW    27    27   ---   --- /
09/03/2009 06:20      12.0   8.0  14.1   0.7  77  1015   ---     S    34    34   ---   0.9 Few Clouds/
09/03/2009 07:20      12.0   8.0  14.1   0.7  77  1015   ---     S    34    34   ---   0.9 Few Clouds/
09/03/2009 08:20      13.0   8.0  14.8   2.6  72  1015   ---   SSW    31    31   ---   0.7 Few Clouds/
09/03/2009 09:20      14.0   9.0  15.8   3.9  72  1016   ---   SSW    32    32   ---   0.7 Few Clouds/
09/03/2009 10:20      14.0  10.0  16.1   4.1  77  1016   ---   SSW    31    31   ---   0.7 Few Clouds/
09/03/2009 11:20      15.0  11.0  17.1   6.1  77  1016   ---    SW    27    27   ---   0.7 Few Clouds/
09/03/2009 11:50      14.0  11.0  16.5   4.6  82  1016   ---     W    27    27   ---   0.7 Few Clouds/
09/03/2009 13:20      15.0  12.0  17.5   6.9  82  1016   ---   WSW    23    23   ---   0.7 Few Clouds/
09/03/2009 14:20      14.0  11.0  16.5   4.1  82  1015   ---     W    31    31   ---   --- /
09/03/2009 15:20      14.0  11.0  16.5   3.2  82  1015   ---     W    40    40   ---   --- /
09/03/2009 15:20      14.0  11.0  16.5   3.2  82  1015   ---     W    40    40   ---   --- None reported/None reported
09/03/2009 16:20      14.0  11.0  16.5   3.4  82  1015   ---     W    37    37   ---   0.7 Few Clouds/
09/03/2009 17:20      15.0  11.0  17.1   5.9  77  1015   ---     W    29    29   ---   0.7 Few Clouds/
09/03/2009 17:20      15.0  11.0  17.1   5.9  77  1015   ---     W    29    29   ---   0.7 Few Clouds/None reported
09/03/2009 18:20      14.0  10.0  16.1   5.8  77  1015   ---   WSW    21    21   ---   --- /
09/03/2009 19:20      14.0  11.0  16.5   4.6  82  1016   ---    SW    27    27   ---   --- /
09/03/2009 20:20      14.0  10.0  16.1   5.5  77  1016   ---    SW    23    23   ---   --- /
09/03/2009 21:20      14.0  10.0  16.1   8.0  77  1017   ---    SW    14    14   ---   --- /
09/03/2009 22:20      14.0  11.0  16.5   6.9  82  1018   ---     W    18    18   ---   --- /
09/03/2009 23:20      14.0   9.0  15.8   6.2  72  1019   ---     N    19    19   ---   --- /
10/03/2009 00:50      13.0